<?xml version='1.0' encoding='UTF-8'?><gpx version="1.1" creator="JPX - https://github.com/jenetics/jpx" xmlns="http://www.topografix.com/GPX/1/1"><trk><trkseg><trkpt lat="50.44458002531213" lon="3.9512614032908315"><ele>31.4</ele><time>2026-04-30T13:11:06.999Z</time></trkpt></trkseg><trkseg><trkpt lat="50.444930645466044" lon="3.9512380292274325"><ele>32.0</ele><time>2026-04-30T13:27:48.607Z</time></trkpt><trkpt lat="50.444997829907784" lon="3.9511105391234076"><ele>32.0</ele><time>2026-04-30T13:27:56.245Z</time></trkpt><trkpt lat="50.44504235379653" lon="3.9509332728620614"><ele>32.0</ele><time>2026-04-30T13:28:01.531Z</time></trkpt><trkpt lat="50.445095778380555" lon="3.9512697321023604"><ele>32.0</ele><time>2026-04-30T13:28:10.957Z</time></trkpt><trkpt lat="50.44512921086104" lon="3.951446470177698"><ele>32.0</ele><time>2026-04-30T13:28:11.957Z</time></trkpt><trkpt lat="50.44522553124833" lon="3.9517019201078867"><ele>32.0</ele><time>2026-04-30T13:28:12.957Z</time></trkpt><trkpt lat="50.44531045211872" lon="3.95193575274273"><ele>32.0</ele><time>2026-04-30T13:28:13.947Z</time></trkpt><trkpt lat="50.44539351345253" lon="3.9521764586328882"><ele>32.0</ele><time>2026-04-30T13:28:14.965Z</time></trkpt><trkpt lat="50.445459476662734" lon="3.9523805995500694"><ele>32.0</ele><time>2026-04-30T13:28:15.965Z</time></trkpt><trkpt lat="50.44551000936964" lon="3.9525594372236035"><ele>32.0</ele><time>2026-04-30T13:28:17.007Z</time></trkpt><trkpt lat="50.44556697495614" lon="3.9527542005903964"><ele>32.0</ele><time>2026-04-30T13:28:18.006Z</time></trkpt><trkpt lat="50.44560213430142" lon="3.9528827830825124"><ele>32.0</ele><time>2026-04-30T13:28:19.006Z</time></trkpt><trkpt lat="50.445659252358325" lon="3.9530489293504174"><ele>32.0</ele><time>2026-04-30T13:28:21.005Z</time></trkpt><trkpt lat="50.4456781149933" lon="3.9531462026680266"><ele>32.0</ele><time>2026-04-30T13:28:23.005Z</time></trkpt><trkpt lat="50.44550697532924" lon="3.9532098621593668"><ele>32.0</ele><time>2026-04-30T13:28:25.004Z</time></trkpt><trkpt lat="50.445401954683874" lon="3.953292319424095"><ele>31.6</ele><time>2026-04-30T13:28:26.004Z</time></trkpt><trkpt lat="50.44530426654848" lon="3.9533465706124233"><ele>31.200000000000003</ele><time>2026-04-30T13:28:27.003Z</time></trkpt><trkpt lat="50.44521899011293" lon="3.9533111772986316"><ele>30.8</ele><time>2026-04-30T13:28:28.003Z</time></trkpt><trkpt lat="50.44512092784117" lon="3.9532629929751466"><ele>30.4</ele><time>2026-04-30T13:28:29.003Z</time></trkpt><trkpt lat="50.445002531904755" lon="3.9532202405477457"><ele>30.0</ele><time>2026-04-30T13:28:30.003Z</time></trkpt><trkpt lat="50.44487757703886" lon="3.953175119721288"><ele>30.0</ele><time>2026-04-30T13:28:31.003Z</time></trkpt><trkpt lat="50.44475591629334" lon="3.9531311883887583"><ele>30.0</ele><time>2026-04-30T13:28:32.002Z</time></trkpt><trkpt lat="50.44465541993688" lon="3.953092767301564"><ele>30.0</ele><time>2026-04-30T13:28:33.002Z</time></trkpt><trkpt lat="50.44458720711186" lon="3.9530674373886425"><ele>30.0</ele><time>2026-04-30T13:28:34.002Z</time></trkpt><trkpt lat="50.444511588902515" lon="3.9531226524982186"><ele>30.0</ele><time>2026-04-30T13:28:36.002Z</time></trkpt><trkpt lat="50.44444244904719" lon="3.9531384216464143"><ele>30.0</ele><time>2026-04-30T13:28:42.001Z</time></trkpt><trkpt lat="50.44447832290278" lon="3.9533121294904694"><ele>30.0</ele><time>2026-04-30T13:28:43.001Z</time></trkpt><trkpt lat="50.44457394299132" lon="3.953469678658258"><ele>30.0</ele><time>2026-04-30T13:28:45.001Z</time></trkpt><trkpt lat="50.444647087675826" lon="3.9536082518454982"><ele>30.0</ele><time>2026-04-30T13:28:46.001Z</time></trkpt><trkpt lat="50.444750842455164" lon="3.9537859545357237"><ele>30.0</ele><time>2026-04-30T13:28:47.001Z</time></trkpt><trkpt lat="50.444858470051145" lon="3.9539862202805427"><ele>30.0</ele><time>2026-04-30T13:28:48.001Z</time></trkpt><trkpt lat="50.44495361159797" lon="3.9541624339222965"><ele>30.0</ele><time>2026-04-30T13:28:49.001Z</time></trkpt><trkpt lat="50.445041798593664" lon="3.9543165401756677"><ele>30.0</ele><time>2026-04-30T13:28:50.001Z</time></trkpt><trkpt lat="50.44511944611487" lon="3.954461369242661"><ele>30.2</ele><time>2026-04-30T13:28:51Z</time></trkpt><trkpt lat="50.445198710917296" lon="3.954601062290295"><ele>30.4</ele><time>2026-04-30T13:28:52Z</time></trkpt><trkpt lat="50.445270690856255" lon="3.954730516393955"><ele>30.6</ele><time>2026-04-30T13:28:53Z</time></trkpt><trkpt lat="50.445329236318486" lon="3.9548353632801034"><ele>30.8</ele><time>2026-04-30T13:28:54Z</time></trkpt><trkpt lat="50.44538249810618" lon="3.954943666858537"><ele>31.0</ele><time>2026-04-30T13:28:56Z</time></trkpt><trkpt lat="50.445300274122715" lon="3.955049413299276"><ele>31.0</ele><time>2026-04-30T13:28:59Z</time></trkpt><trkpt lat="50.44522324167578" lon="3.9550602668343915"><ele>31.0</ele><time>2026-04-30T13:29:00Z</time></trkpt><trkpt lat="50.445124299488455" lon="3.9550898976231563"><ele>31.0</ele><time>2026-04-30T13:29:01Z</time></trkpt><trkpt lat="50.44499860806275" lon="3.9551097055619064"><ele>31.0</ele><time>2026-04-30T13:29:02Z</time></trkpt><trkpt lat="50.444856602139794" lon="3.9551322846916945"><ele>31.0</ele><time>2026-04-30T13:29:03Z</time></trkpt><trkpt lat="50.44470441284071" lon="3.955155089865042"><ele>31.333333333333336</ele><time>2026-04-30T13:29:04Z</time></trkpt><trkpt lat="50.444549116313205" lon="3.9551824296699545"><ele>31.666666666666664</ele><time>2026-04-30T13:29:05Z</time></trkpt><trkpt lat="50.4443905482918" lon="3.9552061509332828"><ele>32.0</ele><time>2026-04-30T13:29:06Z</time></trkpt><trkpt lat="50.444235495755066" lon="3.9552343651164756"><ele>32.0</ele><time>2026-04-30T13:29:07Z</time></trkpt><trkpt lat="50.444083067241564" lon="3.9552659965605668"><ele>32.0</ele><time>2026-04-30T13:29:08Z</time></trkpt><trkpt lat="50.44393910572931" lon="3.9552902879649467"><ele>32.0</ele><time>2026-04-30T13:29:09Z</time></trkpt><trkpt lat="50.443799600589244" lon="3.955293163674432"><ele>32.0</ele><time>2026-04-30T13:29:10Z</time></trkpt><trkpt lat="50.443666052787705" lon="3.955316391943889"><ele>31.75</ele><time>2026-04-30T13:29:11Z</time></trkpt><trkpt lat="50.443541238728926" lon="3.9553604001996185"><ele>31.5</ele><time>2026-04-30T13:29:12Z</time></trkpt><trkpt lat="50.44341641536179" lon="3.955363107737698"><ele>31.25</ele><time>2026-04-30T13:29:13Z</time></trkpt><trkpt lat="50.44329383013125" lon="3.9553868708305666"><ele>31.0</ele><time>2026-04-30T13:29:14Z</time></trkpt><trkpt lat="50.44319041917279" lon="3.9554014719101507"><ele>31.000000000000004</ele><time>2026-04-30T13:29:15Z</time></trkpt><trkpt lat="50.44310216618064" lon="3.9554127121812552"><ele>31.0</ele><time>2026-04-30T13:29:16Z</time></trkpt><trkpt lat="50.44301899918823" lon="3.9554187544248305"><ele>31.0</ele><time>2026-04-30T13:29:17Z</time></trkpt><trkpt lat="50.44295167582053" lon="3.9554291193139264"><ele>31.0</ele><time>2026-04-30T13:29:18Z</time></trkpt><trkpt lat="50.4428632187677" lon="3.9554665866315335"><ele>31.000000000000004</ele><time>2026-04-30T13:29:24.999Z</time></trkpt><trkpt lat="50.44278344526645" lon="3.955475655680939"><ele>31.0</ele><time>2026-04-30T13:29:25.999Z</time></trkpt><trkpt lat="50.442688872716424" lon="3.955484238813589"><ele>31.75</ele><time>2026-04-30T13:29:26.999Z</time></trkpt><trkpt lat="50.44257894346524" lon="3.9555042104366853"><ele>32.5</ele><time>2026-04-30T13:29:27.999Z</time></trkpt><trkpt lat="50.44245574596699" lon="3.9555282626778654"><ele>33.25</ele><time>2026-04-30T13:29:28.999Z</time></trkpt><trkpt lat="50.4423206637489" lon="3.95554822388161"><ele>34.0</ele><time>2026-04-30T13:29:29.999Z</time></trkpt><trkpt lat="50.44218418905096" lon="3.9555655975882242"><ele>35.25</ele><time>2026-04-30T13:29:30.999Z</time></trkpt><trkpt lat="50.44205374816707" lon="3.9555836916113027"><ele>36.5</ele><time>2026-04-30T13:29:31.999Z</time></trkpt><trkpt lat="50.44192688517255" lon="3.9556081945039034"><ele>37.75</ele><time>2026-04-30T13:29:32.999Z</time></trkpt><trkpt lat="50.44180501901803" lon="3.955626875861048"><ele>39.0</ele><time>2026-04-30T13:29:33.999Z</time></trkpt><trkpt lat="50.441684970463825" lon="3.9556443354869284"><ele>39.0</ele><time>2026-04-30T13:29:34.999Z</time></trkpt><trkpt lat="50.44156405853821" lon="3.9556657931810983"><ele>39.0</ele><time>2026-04-30T13:29:35.999Z</time></trkpt><trkpt lat="50.44145119004917" lon="3.955675106903638"><ele>39.0</ele><time>2026-04-30T13:29:36.999Z</time></trkpt><trkpt lat="50.44133324132369" lon="3.9557005533891485"><ele>39.0</ele><time>2026-04-30T13:29:37.999Z</time></trkpt><trkpt lat="50.44120860162919" lon="3.9557203665124625"><ele>39.6</ele><time>2026-04-30T13:29:38.999Z</time></trkpt><trkpt lat="50.44109145465905" lon="3.955740568335472"><ele>40.2</ele><time>2026-04-30T13:29:39.999Z</time></trkpt><trkpt lat="50.44099012858975" lon="3.9557595183173047"><ele>40.800000000000004</ele><time>2026-04-30T13:29:40.999Z</time></trkpt><trkpt lat="50.440899071442324" lon="3.9557763514183595"><ele>41.4</ele><time>2026-04-30T13:29:41.999Z</time></trkpt><trkpt lat="50.44081401501288" lon="3.955786436936033"><ele>42.0</ele><time>2026-04-30T13:29:42.999Z</time></trkpt><trkpt lat="50.440739451282006" lon="3.9558034965274715"><ele>42.0</ele><time>2026-04-30T13:29:43.999Z</time></trkpt><trkpt lat="50.44061479579521" lon="3.955818334536129"><ele>42.0</ele><time>2026-04-30T13:29:45.999Z</time></trkpt><trkpt lat="50.44054743139884" lon="3.955822070348524"><ele>42.0</ele><time>2026-04-30T13:29:46.999Z</time></trkpt><trkpt lat="50.44047526807988" lon="3.955817417413878"><ele>42.0</ele><time>2026-04-30T13:29:47.999Z</time></trkpt><trkpt lat="50.44039758623309" lon="3.955785700781986"><ele>42.0</ele><time>2026-04-30T13:29:48.999Z</time></trkpt><trkpt lat="50.44034014822324" lon="3.9556961834817206"><ele>42.0</ele><time>2026-04-30T13:29:49.999Z</time></trkpt><trkpt lat="50.44025870071753" lon="3.955639585672594"><ele>42.5</ele><time>2026-04-30T13:29:50.999Z</time></trkpt><trkpt lat="50.44018737585353" lon="3.955545455057649"><ele>43.0</ele><time>2026-04-30T13:29:51.999Z</time></trkpt><trkpt lat="50.44011633778905" lon="3.9554595655492535"><ele>43.5</ele><time>2026-04-30T13:29:52.999Z</time></trkpt><trkpt lat="50.44004128807139" lon="3.95538470252202"><ele>44.0</ele><time>2026-04-30T13:29:53.999Z</time></trkpt><trkpt lat="50.43996754282871" lon="3.9553124720756934"><ele>44.5</ele><time>2026-04-30T13:29:54.999Z</time></trkpt><trkpt lat="50.439900552090364" lon="3.955240643534133"><ele>45.0</ele><time>2026-04-30T13:29:55.999Z</time></trkpt><trkpt lat="50.43982805899053" lon="3.9551649120726986"><ele>45.0</ele><time>2026-04-30T13:29:56.999Z</time></trkpt><trkpt lat="50.439750316105126" lon="3.9550925276766793"><ele>45.0</ele><time>2026-04-30T13:29:57.999Z</time></trkpt><trkpt lat="50.43966141923958" lon="3.9550065738616484"><ele>45.0</ele><time>2026-04-30T13:29:58.999Z</time></trkpt><trkpt lat="50.43957595548411" lon="3.9549183924875027"><ele>45.0</ele><time>2026-04-30T13:29:59.999Z</time></trkpt><trkpt lat="50.43948222975559" lon="3.9548214313718058"><ele>45.0</ele><time>2026-04-30T13:30:00.999Z</time></trkpt><trkpt lat="50.439380621915426" lon="3.9547197086707864"><ele>45.75</ele><time>2026-04-30T13:30:01.999Z</time></trkpt><trkpt lat="50.43927164302585" lon="3.9546022993703636"><ele>46.5</ele><time>2026-04-30T13:30:02.999Z</time></trkpt><trkpt lat="50.43915970500235" lon="3.9544927478304626"><ele>47.25</ele><time>2026-04-30T13:30:03.999Z</time></trkpt><trkpt lat="50.439057734454394" lon="3.954383914371987"><ele>48.0</ele><time>2026-04-30T13:30:04.999Z</time></trkpt><trkpt lat="50.43896488346137" lon="3.954281017499405"><ele>47.8</ele><time>2026-04-30T13:30:05.999Z</time></trkpt><trkpt lat="50.438881091058214" lon="3.95419056662577"><ele>47.599999999999994</ele><time>2026-04-30T13:30:06.999Z</time></trkpt><trkpt lat="50.43880585333192" lon="3.954117303011543"><ele>47.400000000000006</ele><time>2026-04-30T13:30:07.999Z</time></trkpt><trkpt lat="50.438739288213625" lon="3.9540336809224352"><ele>47.2</ele><time>2026-04-30T13:30:08.999Z</time></trkpt><trkpt lat="50.43865998698799" lon="3.9539517077443"><ele>47.0</ele><time>2026-04-30T13:30:09.999Z</time></trkpt><trkpt lat="50.43857658473011" lon="3.9538663382981993"><ele>47.75</ele><time>2026-04-30T13:30:10.999Z</time></trkpt><trkpt lat="50.43848485251736" lon="3.9537729796256884"><ele>48.5</ele><time>2026-04-30T13:30:11.999Z</time></trkpt><trkpt lat="50.4383911261223" lon="3.9536767682992493"><ele>49.25</ele><time>2026-04-30T13:30:12.999Z</time></trkpt><trkpt lat="50.43829059453877" lon="3.953573810643677"><ele>50.0</ele><time>2026-04-30T13:30:13.999Z</time></trkpt><trkpt lat="50.438195448882354" lon="3.9534729092540455"><ele>50.0</ele><time>2026-04-30T13:30:14.999Z</time></trkpt><trkpt lat="50.438109170792416" lon="3.9533766525979224"><ele>50.0</ele><time>2026-04-30T13:30:15.999Z</time></trkpt><trkpt lat="50.43803438656146" lon="3.95328177930953"><ele>50.0</ele><time>2026-04-30T13:30:17Z</time></trkpt><trkpt lat="50.43795839334904" lon="3.9531762988136627"><ele>50.0</ele><time>2026-04-30T13:30:18Z</time></trkpt><trkpt lat="50.437883896195736" lon="3.9530654707971857"><ele>50.0</ele><time>2026-04-30T13:30:19Z</time></trkpt><trkpt lat="50.43781296507911" lon="3.9529386902225796"><ele>50.8</ele><time>2026-04-30T13:30:20Z</time></trkpt><trkpt lat="50.43773612335282" lon="3.952820951958143"><ele>51.6</ele><time>2026-04-30T13:30:21Z</time></trkpt><trkpt lat="50.43767323149947" lon="3.9526791744801355"><ele>52.400000000000006</ele><time>2026-04-30T13:30:22Z</time></trkpt><trkpt lat="50.43761219771701" lon="3.952538380322661"><ele>53.2</ele><time>2026-04-30T13:30:23Z</time></trkpt><trkpt lat="50.43755707413324" lon="3.952403922629322"><ele>54.0</ele><time>2026-04-30T13:30:24Z</time></trkpt><trkpt lat="50.437508207611394" lon="3.9522881176302445"><ele>54.2</ele><time>2026-04-30T13:30:25Z</time></trkpt><trkpt lat="50.437459843681026" lon="3.952172641597735"><ele>54.400000000000006</ele><time>2026-04-30T13:30:26Z</time></trkpt><trkpt lat="50.43740738611655" lon="3.952043980622171"><ele>54.6</ele><time>2026-04-30T13:30:27Z</time></trkpt><trkpt lat="50.437349659958834" lon="3.9519028634691833"><ele>54.8</ele><time>2026-04-30T13:30:28Z</time></trkpt><trkpt lat="50.437287967942694" lon="3.9517459904396577"><ele>55.0</ele><time>2026-04-30T13:30:29Z</time></trkpt><trkpt lat="50.43721884289207" lon="3.9515783600410663"><ele>55.0</ele><time>2026-04-30T13:30:30Z</time></trkpt><trkpt lat="50.43714878993713" lon="3.951407069176424"><ele>55.0</ele><time>2026-04-30T13:30:31Z</time></trkpt><trkpt lat="50.43708330518567" lon="3.9512483006967662"><ele>55.0</ele><time>2026-04-30T13:30:32Z</time></trkpt><trkpt lat="50.43702405520135" lon="3.9511071073385304"><ele>55.0</ele><time>2026-04-30T13:30:33Z</time></trkpt><trkpt lat="50.43697431863009" lon="3.950982014608001"><ele>55.0</ele><time>2026-04-30T13:30:34Z</time></trkpt><trkpt lat="50.436929798966105" lon="3.950865208310046"><ele>55.0</ele><time>2026-04-30T13:30:35Z</time></trkpt><trkpt lat="50.43689621152097" lon="3.9507672541741483"><ele>55.0</ele><time>2026-04-30T13:30:36Z</time></trkpt><trkpt lat="50.436874533051935" lon="3.950588055427438"><ele>55.0</ele><time>2026-04-30T13:30:38Z</time></trkpt><trkpt lat="50.43686663252317" lon="3.950405399906119"><ele>55.0</ele><time>2026-04-30T13:30:40Z</time></trkpt><trkpt lat="50.43675874906452" lon="3.9503193046401837"><ele>55.0</ele><time>2026-04-30T13:30:42Z</time></trkpt><trkpt lat="50.43666120742633" lon="3.9501813532740537"><ele>55.0</ele><time>2026-04-30T13:30:44Z</time></trkpt><trkpt lat="50.43661646440252" lon="3.950046932178058"><ele>55.0</ele><time>2026-04-30T13:30:45Z</time></trkpt><trkpt lat="50.43656581624363" lon="3.9499163264637036"><ele>55.0</ele><time>2026-04-30T13:30:46Z</time></trkpt><trkpt lat="50.43650174966845" lon="3.949756802198148"><ele>55.0</ele><time>2026-04-30T13:30:47Z</time></trkpt><trkpt lat="50.43643060602689" lon="3.9495844858014784"><ele>55.5</ele><time>2026-04-30T13:30:48Z</time></trkpt><trkpt lat="50.436354406953555" lon="3.949401464016603"><ele>56.0</ele><time>2026-04-30T13:30:49Z</time></trkpt><trkpt lat="50.43628166839082" lon="3.9492209929218625"><ele>56.5</ele><time>2026-04-30T13:30:50Z</time></trkpt><trkpt lat="50.43621393870464" lon="3.949052052495413"><ele>57.0</ele><time>2026-04-30T13:30:51Z</time></trkpt><trkpt lat="50.43614949182742" lon="3.948898528331224"><ele>57.0</ele><time>2026-04-30T13:30:52Z</time></trkpt><trkpt lat="50.43608763831725" lon="3.9487534697786053"><ele>57.0</ele><time>2026-04-30T13:30:53Z</time></trkpt><trkpt lat="50.43603464034685" lon="3.948620644598991"><ele>57.0</ele><time>2026-04-30T13:30:54Z</time></trkpt><trkpt lat="50.43598680496316" lon="3.948497507625117"><ele>57.0</ele><time>2026-04-30T13:30:55Z</time></trkpt><trkpt lat="50.43593773860446" lon="3.948375283838437"><ele>57.0</ele><time>2026-04-30T13:30:56Z</time></trkpt><trkpt lat="50.435895482891674" lon="3.948248081279698"><ele>57.0</ele><time>2026-04-30T13:30:57Z</time></trkpt><trkpt lat="50.43585552728087" lon="3.9481361342043373"><ele>57.0</ele><time>2026-04-30T13:30:58Z</time></trkpt><trkpt lat="50.43581657029035" lon="3.9480368826088355"><ele>57.0</ele><time>2026-04-30T13:30:59Z</time></trkpt><trkpt lat="50.435765565265434" lon="3.947909816648645"><ele>57.0</ele><time>2026-04-30T13:31:01Z</time></trkpt><trkpt lat="50.43573364653174" lon="3.94782094594889"><ele>57.0</ele><time>2026-04-30T13:31:05Z</time></trkpt><trkpt lat="50.43569591430116" lon="3.9477168920037133"><ele>57.0</ele><time>2026-04-30T13:31:17Z</time></trkpt><trkpt lat="50.43559006282022" lon="3.9476444310548495"><ele>57.0</ele><time>2026-04-30T13:31:18.999Z</time></trkpt><trkpt lat="50.43549530254807" lon="3.9476676598683635"><ele>57.0</ele><time>2026-04-30T13:31:19.999Z</time></trkpt><trkpt lat="50.43538619364194" lon="3.947671140001178"><ele>57.0</ele><time>2026-04-30T13:31:20.999Z</time></trkpt><trkpt lat="50.435252082506324" lon="3.9476743451224285"><ele>57.0</ele><time>2026-04-30T13:31:21.999Z</time></trkpt><trkpt lat="50.4351137288804" lon="3.9476767524356187"><ele>57.5</ele><time>2026-04-30T13:31:22.999Z</time></trkpt><trkpt lat="50.434968308154204" lon="3.9476732535299806"><ele>58.0</ele><time>2026-04-30T13:31:23.999Z</time></trkpt><trkpt lat="50.434827979145034" lon="3.9476492024415544"><ele>58.5</ele><time>2026-04-30T13:31:24.998Z</time></trkpt><trkpt lat="50.43468634333327" lon="3.947621905858664"><ele>59.0</ele><time>2026-04-30T13:31:25.998Z</time></trkpt><trkpt lat="50.434545757102846" lon="3.947590325995076"><ele>59.25</ele><time>2026-04-30T13:31:26.998Z</time></trkpt><trkpt lat="50.43440260832788" lon="3.947557071261492"><ele>59.5</ele><time>2026-04-30T13:31:27.998Z</time></trkpt><trkpt lat="50.43425438577863" lon="3.9475224334148007"><ele>59.75</ele><time>2026-04-30T13:31:28.998Z</time></trkpt><trkpt lat="50.43410635310758" lon="3.947489557423458"><ele>60.0</ele><time>2026-04-30T13:31:29.998Z</time></trkpt><trkpt lat="50.433958326010476" lon="3.94745998131871"><ele>60.0</ele><time>2026-04-30T13:31:30.998Z</time></trkpt><trkpt lat="50.433813719551175" lon="3.9474309067658897"><ele>60.0</ele><time>2026-04-30T13:31:31.998Z</time></trkpt><trkpt lat="50.433665433130535" lon="3.9474067174829868"><ele>60.0</ele><time>2026-04-30T13:31:32.998Z</time></trkpt><trkpt lat="50.433513119218595" lon="3.947387104495522"><ele>60.0</ele><time>2026-04-30T13:31:33.998Z</time></trkpt><trkpt lat="50.43334602158232" lon="3.9473712153128866"><ele>60.33333333333333</ele><time>2026-04-30T13:31:34.998Z</time></trkpt><trkpt lat="50.4331654633584" lon="3.9473650932383397"><ele>60.666666666666664</ele><time>2026-04-30T13:31:35.998Z</time></trkpt><trkpt lat="50.432974845230184" lon="3.947364578054497"><ele>61.0</ele><time>2026-04-30T13:31:36.998Z</time></trkpt><trkpt lat="50.43278989179035" lon="3.9473599390064193"><ele>60.33333333333333</ele><time>2026-04-30T13:31:37.998Z</time></trkpt><trkpt lat="50.43262339852064" lon="3.9473578847249997"><ele>59.66666666666667</ele><time>2026-04-30T13:31:38.998Z</time></trkpt><trkpt lat="50.43246165397455" lon="3.9473631580652264"><ele>59.0</ele><time>2026-04-30T13:31:39.998Z</time></trkpt><trkpt lat="50.4323083635423" lon="3.9473618763398153"><ele>59.0</ele><time>2026-04-30T13:31:40.998Z</time></trkpt><trkpt lat="50.43215920408888" lon="3.9473537837954975"><ele>59.0</ele><time>2026-04-30T13:31:41.998Z</time></trkpt><trkpt lat="50.4320114727937" lon="3.9473382082687483"><ele>59.0</ele><time>2026-04-30T13:31:42.998Z</time></trkpt><trkpt lat="50.431864661415396" lon="3.947309563729737"><ele>59.0</ele><time>2026-04-30T13:31:43.998Z</time></trkpt><trkpt lat="50.43171570035314" lon="3.947261700275743"><ele>58.66666666666667</ele><time>2026-04-30T13:31:44.998Z</time></trkpt><trkpt lat="50.431569129335195" lon="3.9471882122513846"><ele>58.33333333333333</ele><time>2026-04-30T13:31:45.998Z</time></trkpt><trkpt lat="50.431425727918764" lon="3.947107324423023"><ele>58.0</ele><time>2026-04-30T13:31:46.998Z</time></trkpt><trkpt lat="50.43128888092643" lon="3.947020928719384"><ele>56.25</ele><time>2026-04-30T13:31:47.998Z</time></trkpt><trkpt lat="50.43115163528291" lon="3.9469384131898324"><ele>54.5</ele><time>2026-04-30T13:31:48.998Z</time></trkpt><trkpt lat="50.43101901481931" lon="3.9468718859548892"><ele>52.75</ele><time>2026-04-30T13:31:49.998Z</time></trkpt><trkpt lat="50.43088367756114" lon="3.94682597561646"><ele>51.0</ele><time>2026-04-30T13:31:50.998Z</time></trkpt><trkpt lat="50.43074583445965" lon="3.9468117214225273"><ele>51.0</ele><time>2026-04-30T13:31:51.998Z</time></trkpt><trkpt lat="50.430597685943425" lon="3.946828384949107"><ele>51.0</ele><time>2026-04-30T13:31:52.998Z</time></trkpt><trkpt lat="50.430450815595435" lon="3.9468594907577623"><ele>51.0</ele><time>2026-04-30T13:31:53.998Z</time></trkpt><trkpt lat="50.43030427707989" lon="3.9469201127869926"><ele>51.0</ele><time>2026-04-30T13:31:54.998Z</time></trkpt><trkpt lat="50.43015955862055" lon="3.9469843507036617"><ele>49.333333333333336</ele><time>2026-04-30T13:31:55.998Z</time></trkpt><trkpt lat="50.430010102694496" lon="3.9470520812931236"><ele>47.66666666666667</ele><time>2026-04-30T13:31:56.998Z</time></trkpt><trkpt lat="50.4298598488441" lon="3.9471321363319216"><ele>46.0</ele><time>2026-04-30T13:31:57.998Z</time></trkpt><trkpt lat="50.42970850705353" lon="3.9472169322236774"><ele>45.66666666666667</ele><time>2026-04-30T13:31:58.998Z</time></trkpt><trkpt lat="50.4295604967714" lon="3.9473060538614875"><ele>45.333333333333336</ele><time>2026-04-30T13:31:59.998Z</time></trkpt><trkpt lat="50.429410648373484" lon="3.9474073655878144"><ele>45.0</ele><time>2026-04-30T13:32:00.998Z</time></trkpt><trkpt lat="50.42926166410586" lon="3.9475089663642704"><ele>45.0</ele><time>2026-04-30T13:32:01.998Z</time></trkpt><trkpt lat="50.429118794528435" lon="3.9476065223013275"><ele>45.0</ele><time>2026-04-30T13:32:02.998Z</time></trkpt><trkpt lat="50.4289809493447" lon="3.9476990944214463"><ele>45.0</ele><time>2026-04-30T13:32:03.998Z</time></trkpt><trkpt lat="50.428847859500635" lon="3.947793954391096"><ele>44.75</ele><time>2026-04-30T13:32:04.998Z</time></trkpt><trkpt lat="50.42871841435989" lon="3.9478821298366005"><ele>44.5</ele><time>2026-04-30T13:32:05.998Z</time></trkpt><trkpt lat="50.42858956493275" lon="3.947965175710578"><ele>44.25</ele><time>2026-04-30T13:32:06.998Z</time></trkpt><trkpt lat="50.42846261492814" lon="3.9480435281039177"><ele>44.0</ele><time>2026-04-30T13:32:07.998Z</time></trkpt><trkpt lat="50.428334687593264" lon="3.948097784783055"><ele>44.0</ele><time>2026-04-30T13:32:08.998Z</time></trkpt><trkpt lat="50.428203483344" lon="3.948134092553046"><ele>44.0</ele><time>2026-04-30T13:32:09.998Z</time></trkpt><trkpt lat="50.428078565106944" lon="3.948187214790089"><ele>44.0</ele><time>2026-04-30T13:32:10.998Z</time></trkpt><trkpt lat="50.427959651277746" lon="3.948253185232014"><ele>44.0</ele><time>2026-04-30T13:32:11.998Z</time></trkpt><trkpt lat="50.427886311613626" lon="3.948408701236782"><ele>43.83333333333333</ele><time>2026-04-30T13:32:12.998Z</time></trkpt><trkpt lat="50.427794482476756" lon="3.9484501990931475"><ele>43.666666666666664</ele><time>2026-04-30T13:32:13.998Z</time></trkpt><trkpt lat="50.427713448869916" lon="3.9484805603141218"><ele>43.5</ele><time>2026-04-30T13:32:14.998Z</time></trkpt><trkpt lat="50.42764908192054" lon="3.9484997806804976"><ele>43.333333333333336</ele><time>2026-04-30T13:32:15.998Z</time></trkpt><trkpt lat="50.42754884934322" lon="3.9485321354417775"><ele>43.16666666666667</ele><time>2026-04-30T13:32:17.998Z</time></trkpt><trkpt lat="50.427471799342904" lon="3.948542734301476"><ele>43.0</ele><time>2026-04-30T13:32:20.998Z</time></trkpt><trkpt lat="50.42737976638001" lon="3.9485504140288157"><ele>43.0</ele><time>2026-04-30T13:32:43.999Z</time></trkpt><trkpt lat="50.42725018080868" lon="3.948568008271105"><ele>43.0</ele><time>2026-04-30T13:32:45.999Z</time></trkpt><trkpt lat="50.427165737664204" lon="3.9485713363542043"><ele>43.0</ele><time>2026-04-30T13:32:46.999Z</time></trkpt><trkpt lat="50.4270697893852" lon="3.948585694818837"><ele>43.0</ele><time>2026-04-30T13:32:47.999Z</time></trkpt><trkpt lat="50.4269598563772" lon="3.9486100354223606"><ele>43.0</ele><time>2026-04-30T13:32:48.999Z</time></trkpt><trkpt lat="50.42685662170181" lon="3.9486245062450456"><ele>43.0</ele><time>2026-04-30T13:32:49.999Z</time></trkpt><trkpt lat="50.426769957949446" lon="3.948649779985118"><ele>43.0</ele><time>2026-04-30T13:32:50.999Z</time></trkpt><trkpt lat="50.426676265717425" lon="3.9486769688549823"><ele>43.0</ele><time>2026-04-30T13:32:51.999Z</time></trkpt><trkpt lat="50.42657733722315" lon="3.9486984552685924"><ele>43.0</ele><time>2026-04-30T13:32:52.999Z</time></trkpt><trkpt lat="50.42646495136376" lon="3.948712157151483"><ele>43.0</ele><time>2026-04-30T13:32:53.999Z</time></trkpt><trkpt lat="50.42634541832301" lon="3.948723341874145"><ele>43.4</ele><time>2026-04-30T13:32:54.999Z</time></trkpt><trkpt lat="50.42622958997192" lon="3.9487356510913014"><ele>43.8</ele><time>2026-04-30T13:32:55.999Z</time></trkpt><trkpt lat="50.426123432203454" lon="3.9487386703918803"><ele>44.2</ele><time>2026-04-30T13:32:56.999Z</time></trkpt><trkpt lat="50.42602524809236" lon="3.9487489604540573"><ele>44.6</ele><time>2026-04-30T13:32:57.999Z</time></trkpt><trkpt lat="50.425929561450864" lon="3.94876494425783"><ele>45.0</ele><time>2026-04-30T13:32:58.999Z</time></trkpt><trkpt lat="50.42583380428165" lon="3.94876980925979"><ele>45.0</ele><time>2026-04-30T13:32:59.999Z</time></trkpt><trkpt lat="50.425727349542825" lon="3.9487789364149632"><ele>45.0</ele><time>2026-04-30T13:33:00.999Z</time></trkpt><trkpt lat="50.425618871653306" lon="3.9487620360904314"><ele>45.0</ele><time>2026-04-30T13:33:01.999Z</time></trkpt><trkpt lat="50.425510891630736" lon="3.9487421129613294"><ele>45.0</ele><time>2026-04-30T13:33:02.999Z</time></trkpt><trkpt lat="50.4254075521738" lon="3.9486934003342316"><ele>45.0</ele><time>2026-04-30T13:33:03.999Z</time></trkpt><trkpt lat="50.42531565496038" lon="3.9486214911355333"><ele>44.8</ele><time>2026-04-30T13:33:04.999Z</time></trkpt><trkpt lat="50.42521429135969" lon="3.9485727377279654"><ele>44.6</ele><time>2026-04-30T13:33:05.999Z</time></trkpt><trkpt lat="50.42510918829335" lon="3.9485102058036703"><ele>44.400000000000006</ele><time>2026-04-30T13:33:06.999Z</time></trkpt><trkpt lat="50.42500334971741" lon="3.9484523222642003"><ele>44.2</ele><time>2026-04-30T13:33:07.999Z</time></trkpt><trkpt lat="50.42490822511004" lon="3.948391158427145"><ele>44.0</ele><time>2026-04-30T13:33:08.999Z</time></trkpt><trkpt lat="50.42482967034303" lon="3.948329138512419"><ele>44.0</ele><time>2026-04-30T13:33:09.999Z</time></trkpt><trkpt lat="50.424727721205045" lon="3.9482735185641245"><ele>44.0</ele><time>2026-04-30T13:33:10.999Z</time></trkpt><trkpt lat="50.42464760576379" lon="3.9482297282241423"><ele>44.0</ele><time>2026-04-30T13:33:11.999Z</time></trkpt><trkpt lat="50.42456770077151" lon="3.948186090929062"><ele>44.0</ele><time>2026-04-30T13:33:12.999Z</time></trkpt><trkpt lat="50.42450494756349" lon="3.9481527010099158"><ele>44.0</ele><time>2026-04-30T13:33:13.999Z</time></trkpt><trkpt lat="50.42443519028969" lon="3.948106852128187"><ele>44.0</ele><time>2026-04-30T13:33:14.999Z</time></trkpt><trkpt lat="50.424368706020786" lon="3.9480633842674453"><ele>44.0</ele><time>2026-04-30T13:33:15.999Z</time></trkpt><trkpt lat="50.42430222022235" lon="3.9480277893935143"><ele>44.0</ele><time>2026-04-30T13:33:16.999Z</time></trkpt><trkpt lat="50.424230127820124" lon="3.9479842065378836"><ele>44.0</ele><time>2026-04-30T13:33:17.999Z</time></trkpt><trkpt lat="50.42415409308436" lon="3.9479433957346672"><ele>44.0</ele><time>2026-04-30T13:33:18.999Z</time></trkpt><trkpt lat="50.42407964684531" lon="3.947903330415426"><ele>44.0</ele><time>2026-04-30T13:33:19.999Z</time></trkpt><trkpt lat="50.424006629416276" lon="3.947862265704282"><ele>44.0</ele><time>2026-04-30T13:33:20.999Z</time></trkpt><trkpt lat="50.423932689389886" lon="3.9478187897406047"><ele>44.0</ele><time>2026-04-30T13:33:21.999Z</time></trkpt><trkpt lat="50.42385954157367" lon="3.947772925874755"><ele>44.0</ele><time>2026-04-30T13:33:22.999Z</time></trkpt><trkpt lat="50.42379324254247" lon="3.9477336914704315"><ele>44.0</ele><time>2026-04-30T13:33:23.999Z</time></trkpt><trkpt lat="50.42372397258433" lon="3.947693087007121"><ele>44.0</ele><time>2026-04-30T13:33:24.999Z</time></trkpt><trkpt lat="50.42365707714934" lon="3.947658011043649"><ele>44.0</ele><time>2026-04-30T13:33:25.999Z</time></trkpt><trkpt lat="50.423578840784465" lon="3.9476252873284614"><ele>44.0</ele><time>2026-04-30T13:33:26.999Z</time></trkpt><trkpt lat="50.42348975954168" lon="3.9476157914498704"><ele>43.2</ele><time>2026-04-30T13:33:27.999Z</time></trkpt><trkpt lat="50.423397257294475" lon="3.9476246280445917"><ele>42.400000000000006</ele><time>2026-04-30T13:33:28.999Z</time></trkpt><trkpt lat="50.423300613039146" lon="3.9476688171577767"><ele>41.6</ele><time>2026-04-30T13:33:29.999Z</time></trkpt><trkpt lat="50.42319580811247" lon="3.9477319163371445"><ele>40.8</ele><time>2026-04-30T13:33:30.999Z</time></trkpt><trkpt lat="50.42309001767797" lon="3.9478207146977207"><ele>40.0</ele><time>2026-04-30T13:33:31.999Z</time></trkpt><trkpt lat="50.42299668967534" lon="3.9479383487693758"><ele>40.4</ele><time>2026-04-30T13:33:32.999Z</time></trkpt><trkpt lat="50.4229236189257" lon="3.948051337751638"><ele>40.8</ele><time>2026-04-30T13:33:33.999Z</time></trkpt><trkpt lat="50.42285709227622" lon="3.9481518157553745"><ele>41.2</ele><time>2026-04-30T13:33:34.999Z</time></trkpt><trkpt lat="50.42280001842074" lon="3.948245807208705"><ele>41.6</ele><time>2026-04-30T13:33:35.999Z</time></trkpt><trkpt lat="50.42271717518093" lon="3.9483537147017254"><ele>42.0</ele><time>2026-04-30T13:33:36.999Z</time></trkpt><trkpt lat="50.422631680083285" lon="3.9484644050427264"><ele>42.5</ele><time>2026-04-30T13:33:37.999Z</time></trkpt><trkpt lat="50.42254196155061" lon="3.9485849940162576"><ele>43.0</ele><time>2026-04-30T13:33:38.999Z</time></trkpt><trkpt lat="50.42244323072578" lon="3.9487078286139212"><ele>43.5</ele><time>2026-04-30T13:33:39.999Z</time></trkpt><trkpt lat="50.42234346230283" lon="3.9488487052254593"><ele>44.0</ele><time>2026-04-30T13:33:40.999Z</time></trkpt><trkpt lat="50.42222794964373" lon="3.949000677358361"><ele>44.75</ele><time>2026-04-30T13:33:41.999Z</time></trkpt><trkpt lat="50.422106000579014" lon="3.9491602073902965"><ele>45.5</ele><time>2026-04-30T13:33:42.999Z</time></trkpt><trkpt lat="50.421985898311874" lon="3.949288020893266"><ele>46.25</ele><time>2026-04-30T13:33:43.999Z</time></trkpt><trkpt lat="50.42186999387343" lon="3.949405644657366"><ele>47.0</ele><time>2026-04-30T13:33:44.999Z</time></trkpt><trkpt lat="50.42175210118153" lon="3.9495185653145404"><ele>47.0</ele><time>2026-04-30T13:33:45.999Z</time></trkpt><trkpt lat="50.42163383550818" lon="3.9496179296764065"><ele>47.0</ele><time>2026-04-30T13:33:46.999Z</time></trkpt><trkpt lat="50.42150646734588" lon="3.949714671700202"><ele>47.0</ele><time>2026-04-30T13:33:47.998Z</time></trkpt><trkpt lat="50.421377665560684" lon="3.9498072482638675"><ele>47.0</ele><time>2026-04-30T13:33:48.998Z</time></trkpt><trkpt lat="50.42125009398692" lon="3.9498971340567595"><ele>48.5</ele><time>2026-04-30T13:33:49.998Z</time></trkpt><trkpt lat="50.421130498627754" lon="3.9499837318432185"><ele>50.0</ele><time>2026-04-30T13:33:50.998Z</time></trkpt><trkpt lat="50.42101872760764" lon="3.9500670274960155"><ele>51.5</ele><time>2026-04-30T13:33:51.998Z</time></trkpt><trkpt lat="50.420907349949665" lon="3.950150002962119"><ele>53.0</ele><time>2026-04-30T13:33:52.998Z</time></trkpt><trkpt lat="50.4207995669617" lon="3.9502242332284583"><ele>53.00000000000001</ele><time>2026-04-30T13:33:53.998Z</time></trkpt><trkpt lat="50.42070622811745" lon="3.9502915579567905"><ele>53.0</ele><time>2026-04-30T13:33:54.998Z</time></trkpt><trkpt lat="50.42062681622665" lon="3.9503530731652847"><ele>53.0</ele><time>2026-04-30T13:33:55.998Z</time></trkpt><trkpt lat="50.42055270703011" lon="3.95040734422331"><ele>53.0</ele><time>2026-04-30T13:33:56.998Z</time></trkpt><trkpt lat="50.42048495313011" lon="3.9504495250322904"><ele>53.00000000000001</ele><time>2026-04-30T13:33:57.998Z</time></trkpt><trkpt lat="50.42041161788905" lon="3.950504113846411"><ele>53.0</ele><time>2026-04-30T13:33:58.998Z</time></trkpt><trkpt lat="50.42033016319694" lon="3.950562761016006"><ele>53.4</ele><time>2026-04-30T13:33:59.998Z</time></trkpt><trkpt lat="50.42024943732072" lon="3.950621351912102"><ele>53.8</ele><time>2026-04-30T13:34:00.998Z</time></trkpt><trkpt lat="50.42016154334568" lon="3.950691559744494"><ele>54.2</ele><time>2026-04-30T13:34:01.998Z</time></trkpt><trkpt lat="50.42006832867132" lon="3.950748173821792"><ele>54.6</ele><time>2026-04-30T13:34:02.998Z</time></trkpt><trkpt lat="50.41997316289724" lon="3.9508223460232372"><ele>55.0</ele><time>2026-04-30T13:34:03.998Z</time></trkpt><trkpt lat="50.419867574690215" lon="3.9509062096410705"><ele>55.75</ele><time>2026-04-30T13:34:04.998Z</time></trkpt><trkpt lat="50.41975802619791" lon="3.9509754731858653"><ele>56.5</ele><time>2026-04-30T13:34:05.998Z</time></trkpt><trkpt lat="50.41964809769389" lon="3.9510621283834078"><ele>57.25</ele><time>2026-04-30T13:34:06.998Z</time></trkpt><trkpt lat="50.41952527565624" lon="3.9511471217330714"><ele>58.0</ele><time>2026-04-30T13:34:07.998Z</time></trkpt><trkpt lat="50.41939954655417" lon="3.9512367998545965"><ele>59.25</ele><time>2026-04-30T13:34:08.998Z</time></trkpt><trkpt lat="50.41927070387734" lon="3.951331539938841"><ele>60.5</ele><time>2026-04-30T13:34:09.998Z</time></trkpt><trkpt lat="50.41913742031799" lon="3.951431961056359"><ele>61.75</ele><time>2026-04-30T13:34:10.998Z</time></trkpt><trkpt lat="50.41900315169391" lon="3.9515287633837297"><ele>63.0</ele><time>2026-04-30T13:34:11.998Z</time></trkpt><trkpt lat="50.41886758128545" lon="3.9516235202809806"><ele>63.25</ele><time>2026-04-30T13:34:12.998Z</time></trkpt><trkpt lat="50.41873689431765" lon="3.9517151867796763"><ele>63.5</ele><time>2026-04-30T13:34:13.998Z</time></trkpt><trkpt lat="50.41860215585836" lon="3.9518086506742747"><ele>63.75</ele><time>2026-04-30T13:34:14.998Z</time></trkpt><trkpt lat="50.41846744707115" lon="3.951908273922798"><ele>64.0</ele><time>2026-04-30T13:34:15.998Z</time></trkpt><trkpt lat="50.41832949494211" lon="3.9520074708188146"><ele>64.0</ele><time>2026-04-30T13:34:16.998Z</time></trkpt><trkpt lat="50.41819023094356" lon="3.952109605897755"><ele>64.0</ele><time>2026-04-30T13:34:17.998Z</time></trkpt><trkpt lat="50.418048978260856" lon="3.9522103144493883"><ele>64.0</ele><time>2026-04-30T13:34:18.998Z</time></trkpt><trkpt lat="50.41790129877313" lon="3.952317878631264"><ele>64.0</ele><time>2026-04-30T13:34:19.998Z</time></trkpt><trkpt lat="50.41774980698263" lon="3.9524299541389523"><ele>64.0</ele><time>2026-04-30T13:34:20.998Z</time></trkpt><trkpt lat="50.41759209893066" lon="3.9525482501073523"><ele>64.0</ele><time>2026-04-30T13:34:21.998Z</time></trkpt><trkpt lat="50.417432887354806" lon="3.9526647488619466"><ele>64.0</ele><time>2026-04-30T13:34:22.998Z</time></trkpt><trkpt lat="50.417279190740686" lon="3.9527745978709605"><ele>64.0</ele><time>2026-04-30T13:34:23.998Z</time></trkpt><trkpt lat="50.4171317848839" lon="3.952881532272491"><ele>64.0</ele><time>2026-04-30T13:34:24.998Z</time></trkpt><trkpt lat="50.41698349157765" lon="3.9529933721574335"><ele>66.33333333333333</ele><time>2026-04-30T13:34:25.998Z</time></trkpt><trkpt lat="50.41683493887075" lon="3.9530975524902985"><ele>68.66666666666667</ele><time>2026-04-30T13:34:26.998Z</time></trkpt><trkpt lat="50.41668920209856" lon="3.9532015222195898"><ele>71.0</ele><time>2026-04-30T13:34:27.998Z</time></trkpt><trkpt lat="50.416544872384975" lon="3.9533062575317715"><ele>70.33333333333334</ele><time>2026-04-30T13:34:29Z</time></trkpt><trkpt lat="50.416400371262824" lon="3.953409354180957"><ele>69.66666666666667</ele><time>2026-04-30T13:34:30Z</time></trkpt><trkpt lat="50.41625376473843" lon="3.953517322949025"><ele>69.0</ele><time>2026-04-30T13:34:31Z</time></trkpt><trkpt lat="50.41610623061115" lon="3.953628811990167"><ele>71.0</ele><time>2026-04-30T13:34:32Z</time></trkpt><trkpt lat="50.41595293849903" lon="3.9537338747345885"><ele>73.0</ele><time>2026-04-30T13:34:33Z</time></trkpt><trkpt lat="50.4158022521507" lon="3.953837462334935"><ele>75.0</ele><time>2026-04-30T13:34:34Z</time></trkpt><trkpt lat="50.41564835439776" lon="3.953947737709645"><ele>75.0</ele><time>2026-04-30T13:34:35Z</time></trkpt><trkpt lat="50.41549198923707" lon="3.9540668689586442"><ele>75.0</ele><time>2026-04-30T13:34:36Z</time></trkpt><trkpt lat="50.415324075812045" lon="3.9541813083213455"><ele>75.0</ele><time>2026-04-30T13:34:37Z</time></trkpt><trkpt lat="50.4151648337635" lon="3.95429807086985"><ele>74.0</ele><time>2026-04-30T13:34:38Z</time></trkpt><trkpt lat="50.415002684868966" lon="3.9544136526770552"><ele>73.0</ele><time>2026-04-30T13:34:39Z</time></trkpt><trkpt lat="50.41483897879879" lon="3.954525270156569"><ele>72.0</ele><time>2026-04-30T13:34:40Z</time></trkpt><trkpt lat="50.414679509977276" lon="3.954632639210843"><ele>71.33333333333333</ele><time>2026-04-30T13:34:41Z</time></trkpt><trkpt lat="50.41452809711217" lon="3.9547375028139062"><ele>70.66666666666666</ele><time>2026-04-30T13:34:42Z</time></trkpt><trkpt lat="50.414377927680846" lon="3.954843264803156"><ele>70.0</ele><time>2026-04-30T13:34:43Z</time></trkpt><trkpt lat="50.41422145500124" lon="3.9549554349558527"><ele>70.33333333333333</ele><time>2026-04-30T13:34:44Z</time></trkpt><trkpt lat="50.414057807930774" lon="3.955070268437145"><ele>70.66666666666667</ele><time>2026-04-30T13:34:45Z</time></trkpt><trkpt lat="50.41388179884163" lon="3.955188589320573"><ele>71.0</ele><time>2026-04-30T13:34:46Z</time></trkpt><trkpt lat="50.413696265569484" lon="3.9553110698120406"><ele>69.66666666666667</ele><time>2026-04-30T13:34:47Z</time></trkpt><trkpt lat="50.41350478745604" lon="3.9554440748236086"><ele>68.33333333333333</ele><time>2026-04-30T13:34:48Z</time></trkpt><trkpt lat="50.41331232695853" lon="3.9555791902071844"><ele>67.0</ele><time>2026-04-30T13:34:49Z</time></trkpt><trkpt lat="50.413118437544306" lon="3.9557095478626945"><ele>65.33333333333333</ele><time>2026-04-30T13:34:50Z</time></trkpt><trkpt lat="50.41292347320482" lon="3.9558437199768277"><ele>63.66666666666667</ele><time>2026-04-30T13:34:51Z</time></trkpt><trkpt lat="50.41272878292313" lon="3.955979488975125"><ele>62.0</ele><time>2026-04-30T13:34:52Z</time></trkpt><trkpt lat="50.412521741845396" lon="3.956130876464161"><ele>62.0</ele><time>2026-04-30T13:34:53Z</time></trkpt><trkpt lat="50.41229274402518" lon="3.956301066113585"><ele>62.0</ele><time>2026-04-30T13:34:54Z</time></trkpt><trkpt lat="50.41204142912162" lon="3.956486616767799"><ele>59.0</ele><time>2026-04-30T13:34:55Z</time></trkpt><trkpt lat="50.41176217064179" lon="3.956650272078662"><ele>56.0</ele><time>2026-04-30T13:34:56Z</time></trkpt><trkpt lat="50.41148110946576" lon="3.95685827605741"><ele>53.5</ele><time>2026-04-30T13:34:57Z</time></trkpt><trkpt lat="50.41120094409925" lon="3.9570304081010725"><ele>51.0</ele><time>2026-04-30T13:34:58Z</time></trkpt><trkpt lat="50.41093576115169" lon="3.957210444585085"><ele>51.0</ele><time>2026-04-30T13:34:58.999Z</time></trkpt><trkpt lat="50.41068193585922" lon="3.957388756491428"><ele>51.0</ele><time>2026-04-30T13:34:59.999Z</time></trkpt><trkpt lat="50.41043236356515" lon="3.9575601456983227"><ele>49.5</ele><time>2026-04-30T13:35:00.999Z</time></trkpt><trkpt lat="50.41019197553139" lon="3.9577215535919343"><ele>48.0</ele><time>2026-04-30T13:35:01.999Z</time></trkpt><trkpt lat="50.4099566898631" lon="3.957889640934877"><ele>48.0</ele><time>2026-04-30T13:35:02.999Z</time></trkpt><trkpt lat="50.409721390452205" lon="3.95804774552057"><ele>48.0</ele><time>2026-04-30T13:35:03.999Z</time></trkpt><trkpt lat="50.40949325540951" lon="3.958205304301665"><ele>47.5</ele><time>2026-04-30T13:35:04.999Z</time></trkpt><trkpt lat="50.40926293417426" lon="3.9583622558534755"><ele>47.0</ele><time>2026-04-30T13:35:05.999Z</time></trkpt><trkpt lat="50.40904399966854" lon="3.958517695591401"><ele>47.0</ele><time>2026-04-30T13:35:06.999Z</time></trkpt><trkpt lat="50.40882971245813" lon="3.958673848870002"><ele>47.0</ele><time>2026-04-30T13:35:07.999Z</time></trkpt><trkpt lat="50.408623845589716" lon="3.9588146387350416"><ele>47.33333333333333</ele><time>2026-04-30T13:35:08.999Z</time></trkpt><trkpt lat="50.408418375256915" lon="3.9589525833055657"><ele>47.666666666666664</ele><time>2026-04-30T13:35:09.999Z</time></trkpt><trkpt lat="50.40821781455641" lon="3.959087974554376"><ele>48.0</ele><time>2026-04-30T13:35:10.999Z</time></trkpt><trkpt lat="50.408025882855306" lon="3.9592184752583055"><ele>47.333333333333336</ele><time>2026-04-30T13:35:11.999Z</time></trkpt><trkpt lat="50.407841241369766" lon="3.959347776348987"><ele>46.66666666666667</ele><time>2026-04-30T13:35:12.999Z</time></trkpt><trkpt lat="50.40766120178235" lon="3.9594704013442765"><ele>46.0</ele><time>2026-04-30T13:35:13.999Z</time></trkpt><trkpt lat="50.40748284670845" lon="3.959595371803181"><ele>46.0</ele><time>2026-04-30T13:35:14.999Z</time></trkpt><trkpt lat="50.407308867522275" lon="3.959714323639388"><ele>46.0</ele><time>2026-04-30T13:35:15.999Z</time></trkpt><trkpt lat="50.40713611955668" lon="3.959834559478353"><ele>46.0</ele><time>2026-04-30T13:35:16.999Z</time></trkpt><trkpt lat="50.40696625170733" lon="3.959949303571872"><ele>46.0</ele><time>2026-04-30T13:35:17.999Z</time></trkpt><trkpt lat="50.40679440825039" lon="3.960057803635809"><ele>46.0</ele><time>2026-04-30T13:35:18.999Z</time></trkpt><trkpt lat="50.40662592496845" lon="3.9601722804111286"><ele>46.0</ele><time>2026-04-30T13:35:19.999Z</time></trkpt><trkpt lat="50.40645441242977" lon="3.960288618610279"><ele>47.0</ele><time>2026-04-30T13:35:20.999Z</time></trkpt><trkpt lat="50.40628081951159" lon="3.960403912864213"><ele>48.0</ele><time>2026-04-30T13:35:21.999Z</time></trkpt><trkpt lat="50.40610500939245" lon="3.9605232457909922"><ele>49.0</ele><time>2026-04-30T13:35:22.999Z</time></trkpt><trkpt lat="50.40593367647327" lon="3.960635104370893"><ele>49.0</ele><time>2026-04-30T13:35:23.999Z</time></trkpt><trkpt lat="50.40577174147371" lon="3.960744461378924"><ele>49.0</ele><time>2026-04-30T13:35:24.999Z</time></trkpt><trkpt lat="50.40561795506761" lon="3.960859935080029"><ele>49.0</ele><time>2026-04-30T13:35:25.999Z</time></trkpt><trkpt lat="50.405465704911826" lon="3.9609776455965795"><ele>49.33333333333333</ele><time>2026-04-30T13:35:26.999Z</time></trkpt><trkpt lat="50.40530492322938" lon="3.9610819537322484"><ele>49.66666666666667</ele><time>2026-04-30T13:35:27.999Z</time></trkpt><trkpt lat="50.40514759641403" lon="3.9611940816603286"><ele>50.0</ele><time>2026-04-30T13:35:28.999Z</time></trkpt><trkpt lat="50.404994365150635" lon="3.9613031115305404"><ele>50.0</ele><time>2026-04-30T13:35:29.999Z</time></trkpt><trkpt lat="50.40484018480644" lon="3.961414049386844"><ele>50.0</ele><time>2026-04-30T13:35:30.999Z</time></trkpt><trkpt lat="50.404689203828426" lon="3.961528954268507"><ele>50.0</ele><time>2026-04-30T13:35:31.999Z</time></trkpt><trkpt lat="50.40453947148723" lon="3.9616455582074805"><ele>51.333333333333336</ele><time>2026-04-30T13:35:32.999Z</time></trkpt><trkpt lat="50.40439005902678" lon="3.9617698697263624"><ele>52.66666666666667</ele><time>2026-04-30T13:35:33.999Z</time></trkpt><trkpt lat="50.404239484380284" lon="3.9618726482330433"><ele>54.0</ele><time>2026-04-30T13:35:34.999Z</time></trkpt><trkpt lat="50.40408198613575" lon="3.961969308124961"><ele>54.0</ele><time>2026-04-30T13:35:35.999Z</time></trkpt><trkpt lat="50.40393044038965" lon="3.9620713432143226"><ele>54.0</ele><time>2026-04-30T13:35:36.999Z</time></trkpt><trkpt lat="50.403770330281674" lon="3.962172861252719"><ele>54.0</ele><time>2026-04-30T13:35:37.999Z</time></trkpt><trkpt lat="50.40360322602162" lon="3.962260883451397"><ele>55.0</ele><time>2026-04-30T13:35:38.999Z</time></trkpt><trkpt lat="50.40343537770407" lon="3.9623276765255966"><ele>56.0</ele><time>2026-04-30T13:35:39.999Z</time></trkpt><trkpt lat="50.40326454737447" lon="3.962375363256089"><ele>57.0</ele><time>2026-04-30T13:35:40.999Z</time></trkpt><trkpt lat="50.403092569997206" lon="3.962421015031537"><ele>58.66666666666667</ele><time>2026-04-30T13:35:41.999Z</time></trkpt><trkpt lat="50.40291846068224" lon="3.9624683363327944"><ele>60.333333333333336</ele><time>2026-04-30T13:35:42.999Z</time></trkpt><trkpt lat="50.40274209902361" lon="3.962515146713912"><ele>62.0</ele><time>2026-04-30T13:35:43.999Z</time></trkpt><trkpt lat="50.40257100489189" lon="3.9625688235986596"><ele>63.0</ele><time>2026-04-30T13:35:44.999Z</time></trkpt><trkpt lat="50.402408831010455" lon="3.96261804523599"><ele>64.0</ele><time>2026-04-30T13:35:45.999Z</time></trkpt><trkpt lat="50.40225332069878" lon="3.962662551094097"><ele>65.0</ele><time>2026-04-30T13:35:46.999Z</time></trkpt><trkpt lat="50.40209762380931" lon="3.96270886088495"><ele>66.66666666666667</ele><time>2026-04-30T13:35:47.999Z</time></trkpt><trkpt lat="50.4019430808045" lon="3.9627532789757964"><ele>68.33333333333333</ele><time>2026-04-30T13:35:48.999Z</time></trkpt><trkpt lat="50.401786281862805" lon="3.962796884812192"><ele>70.0</ele><time>2026-04-30T13:35:49.999Z</time></trkpt><trkpt lat="50.4016310979897" lon="3.9628460956425453"><ele>70.0</ele><time>2026-04-30T13:35:50.999Z</time></trkpt><trkpt lat="50.40147282797969" lon="3.962886561684458"><ele>70.0</ele><time>2026-04-30T13:35:51.999Z</time></trkpt><trkpt lat="50.40131311576343" lon="3.9629202249548343"><ele>70.0</ele><time>2026-04-30T13:35:52.999Z</time></trkpt><trkpt lat="50.40116444538019" lon="3.9629469032619995"><ele>69.6</ele><time>2026-04-30T13:35:53.999Z</time></trkpt><trkpt lat="50.401050256881305" lon="3.962977369336111"><ele>69.2</ele><time>2026-04-30T13:35:54.999Z</time></trkpt><trkpt lat="50.40096092118885" lon="3.962997182840711"><ele>68.8</ele><time>2026-04-30T13:35:55.999Z</time></trkpt><trkpt lat="50.40088087904221" lon="3.9630187062439663"><ele>68.4</ele><time>2026-04-30T13:35:56.999Z</time></trkpt><trkpt lat="50.40078569648918" lon="3.9630489413688617"><ele>68.0</ele><time>2026-04-30T13:35:57.999Z</time></trkpt><trkpt lat="50.400669412477654" lon="3.9630756281801287"><ele>68.0</ele><time>2026-04-30T13:35:58.999Z</time></trkpt><trkpt lat="50.40052744511324" lon="3.9631029993082563"><ele>68.0</ele><time>2026-04-30T13:35:59.999Z</time></trkpt><trkpt lat="50.400348735846094" lon="3.9631463426232783"><ele>68.0</ele><time>2026-04-30T13:36:00.999Z</time></trkpt><trkpt lat="50.40014902517777" lon="3.9632002901030017"><ele>67.5</ele><time>2026-04-30T13:36:01.999Z</time></trkpt><trkpt lat="50.39993162449208" lon="3.963257497867313"><ele>67.0</ele><time>2026-04-30T13:36:02.999Z</time></trkpt><trkpt lat="50.399685735780174" lon="3.963315910300376"><ele>69.0</ele><time>2026-04-30T13:36:03.999Z</time></trkpt><trkpt lat="50.39942088951382" lon="3.963376425468278"><ele>71.0</ele><time>2026-04-30T13:36:04.999Z</time></trkpt><trkpt lat="50.399147161321025" lon="3.9634443858766653"><ele>71.0</ele><time>2026-04-30T13:36:05.999Z</time></trkpt><trkpt lat="50.39885628425254" lon="3.9635115377440693"><ele>71.0</ele><time>2026-04-30T13:36:06.999Z</time></trkpt><trkpt lat="50.398568787705514" lon="3.9635794968292175"><ele>72.0</ele><time>2026-04-30T13:36:07.999Z</time></trkpt><trkpt lat="50.398311972746214" lon="3.9636386179723075"><ele>73.0</ele><time>2026-04-30T13:36:08.999Z</time></trkpt><trkpt lat="50.39807648331965" lon="3.9636966454595957"><ele>73.5</ele><time>2026-04-30T13:36:09.999Z</time></trkpt><trkpt lat="50.39785053278223" lon="3.9637558481266515"><ele>74.0</ele><time>2026-04-30T13:36:10.999Z</time></trkpt><trkpt lat="50.397621861760896" lon="3.963816556021921"><ele>74.0</ele><time>2026-04-30T13:36:11.999Z</time></trkpt><trkpt lat="50.397393448971066" lon="3.963870929134975"><ele>74.0</ele><time>2026-04-30T13:36:12.999Z</time></trkpt><trkpt lat="50.3971579254261" lon="3.963930583697864"><ele>75.5</ele><time>2026-04-30T13:36:13.999Z</time></trkpt><trkpt lat="50.396923032158824" lon="3.963987166135303"><ele>77.0</ele><time>2026-04-30T13:36:14.999Z</time></trkpt><trkpt lat="50.396685954630485" lon="3.964039755372883"><ele>77.0</ele><time>2026-04-30T13:36:15.999Z</time></trkpt><trkpt lat="50.396446334982315" lon="3.9640944759461623"><ele>77.0</ele><time>2026-04-30T13:36:16.999Z</time></trkpt><trkpt lat="50.39620323245512" lon="3.9641551491970115"><ele>77.5</ele><time>2026-04-30T13:36:17.999Z</time></trkpt><trkpt lat="50.39595709658638" lon="3.9642150039864763"><ele>78.0</ele><time>2026-04-30T13:36:18.999Z</time></trkpt><trkpt lat="50.395715426443964" lon="3.9642743765476345"><ele>79.0</ele><time>2026-04-30T13:36:19.998Z</time></trkpt><trkpt lat="50.39548568882643" lon="3.9643275028704186"><ele>80.0</ele><time>2026-04-30T13:36:20.998Z</time></trkpt><trkpt lat="50.39526154594059" lon="3.964381097025011"><ele>80.0</ele><time>2026-04-30T13:36:21.998Z</time></trkpt><trkpt lat="50.395052156794655" lon="3.9644351412631713"><ele>80.0</ele><time>2026-04-30T13:36:22.998Z</time></trkpt><trkpt lat="50.39485456709337" lon="3.964482967075333"><ele>80.0</ele><time>2026-04-30T13:36:23.998Z</time></trkpt><trkpt lat="50.39465952663802" lon="3.9645313128975017"><ele>81.0</ele><time>2026-04-30T13:36:24.998Z</time></trkpt><trkpt lat="50.39446239039257" lon="3.96458311876279"><ele>82.0</ele><time>2026-04-30T13:36:25.998Z</time></trkpt><trkpt lat="50.39426917091785" lon="3.9646342205821035"><ele>83.0</ele><time>2026-04-30T13:36:26.998Z</time></trkpt><trkpt lat="50.39408544695229" lon="3.9646751016002684"><ele>83.0</ele><time>2026-04-30T13:36:27.998Z</time></trkpt><trkpt lat="50.39391236174213" lon="3.9647169776036404"><ele>83.0</ele><time>2026-04-30T13:36:28.998Z</time></trkpt><trkpt lat="50.393741344950946" lon="3.9647570157828693"><ele>83.0</ele><time>2026-04-30T13:36:29.998Z</time></trkpt><trkpt lat="50.393582606833306" lon="3.964795864594042"><ele>83.0</ele><time>2026-04-30T13:36:30.998Z</time></trkpt><trkpt lat="50.39343715431309" lon="3.964831771120863"><ele>83.0</ele><time>2026-04-30T13:36:31.998Z</time></trkpt><trkpt lat="50.39330153764732" lon="3.9648641271047578"><ele>83.0</ele><time>2026-04-30T13:36:32.998Z</time></trkpt><trkpt lat="50.393172743446996" lon="3.96489876937118"><ele>83.0</ele><time>2026-04-30T13:36:33.998Z</time></trkpt><trkpt lat="50.39305488061058" lon="3.964926515681752"><ele>83.4</ele><time>2026-04-30T13:36:35Z</time></trkpt><trkpt lat="50.39294121305686" lon="3.964950576903455"><ele>83.80000000000001</ele><time>2026-04-30T13:36:36Z</time></trkpt><trkpt lat="50.392829697561275" lon="3.9649757923523894"><ele>84.2</ele><time>2026-04-30T13:36:37Z</time></trkpt><trkpt lat="50.39272931187517" lon="3.964998924673009"><ele>84.6</ele><time>2026-04-30T13:36:38Z</time></trkpt><trkpt lat="50.3926421300724" lon="3.965021710773679"><ele>85.0</ele><time>2026-04-30T13:36:39Z</time></trkpt><trkpt lat="50.392559732020786" lon="3.9650384008722552"><ele>85.0</ele><time>2026-04-30T13:36:40Z</time></trkpt><trkpt lat="50.39248884199093" lon="3.9650525707713866"><ele>85.0</ele><time>2026-04-30T13:36:41Z</time></trkpt><trkpt lat="50.392425087399076" lon="3.965074368627084"><ele>85.0</ele><time>2026-04-30T13:36:42Z</time></trkpt><trkpt lat="50.39235432029123" lon="3.9652445375074845"><ele>85.0</ele><time>2026-04-30T13:36:44Z</time></trkpt><trkpt lat="50.39233351495758" lon="3.9653795157836593"><ele>85.0</ele><time>2026-04-30T13:36:45Z</time></trkpt><trkpt lat="50.39229681174863" lon="3.9655266680134473"><ele>85.0</ele><time>2026-04-30T13:36:46Z</time></trkpt><trkpt lat="50.39225384618532" lon="3.9656894394951694"><ele>85.0</ele><time>2026-04-30T13:36:47Z</time></trkpt><trkpt lat="50.392211065342565" lon="3.965875181205509"><ele>85.0</ele><time>2026-04-30T13:36:48Z</time></trkpt><trkpt lat="50.39216521547262" lon="3.9660709072825133"><ele>85.0</ele><time>2026-04-30T13:36:49Z</time></trkpt><trkpt lat="50.39211470531428" lon="3.966277670930681"><ele>84.66666666666666</ele><time>2026-04-30T13:36:50Z</time></trkpt><trkpt lat="50.392065643309216" lon="3.9665004321749793"><ele>84.33333333333333</ele><time>2026-04-30T13:36:51Z</time></trkpt><trkpt lat="50.39201292022358" lon="3.96672784465616"><ele>84.0</ele><time>2026-04-30T13:36:52Z</time></trkpt><trkpt lat="50.39195635161815" lon="3.9669405458172453"><ele>83.0</ele><time>2026-04-30T13:36:53Z</time></trkpt><trkpt lat="50.39189880401596" lon="3.9671524839849686"><ele>82.0</ele><time>2026-04-30T13:36:54Z</time></trkpt><trkpt lat="50.391852000637044" lon="3.967365688154733"><ele>81.0</ele><time>2026-04-30T13:36:55Z</time></trkpt><trkpt lat="50.39179891089124" lon="3.9675805783122757"><ele>80.0</ele><time>2026-04-30T13:36:56Z</time></trkpt><trkpt lat="50.39173260062915" lon="3.967786342900711"><ele>79.0</ele><time>2026-04-30T13:36:57Z</time></trkpt><trkpt lat="50.391710440237276" lon="3.968049108958953"><ele>78.0</ele><time>2026-04-30T13:36:58Z</time></trkpt><trkpt lat="50.39164629051293" lon="3.9682940122114525"><ele>77.0</ele><time>2026-04-30T13:36:59Z</time></trkpt><trkpt lat="50.39157893862205" lon="3.968548022645048"><ele>76.0</ele><time>2026-04-30T13:37:00Z</time></trkpt><trkpt lat="50.391516526639656" lon="3.9687964131095477"><ele>75.0</ele><time>2026-04-30T13:37:01Z</time></trkpt><trkpt lat="50.39146087679534" lon="3.9690395327619985"><ele>74.0</ele><time>2026-04-30T13:37:02Z</time></trkpt><trkpt lat="50.39140701182558" lon="3.9692775966534497"><ele>73.66666666666667</ele><time>2026-04-30T13:37:03Z</time></trkpt><trkpt lat="50.391348242957555" lon="3.9695199892825666"><ele>73.33333333333333</ele><time>2026-04-30T13:37:04Z</time></trkpt><trkpt lat="50.39128954759511" lon="3.969768182292305"><ele>73.0</ele><time>2026-04-30T13:37:05Z</time></trkpt><trkpt lat="50.391227491152236" lon="3.970013678789315"><ele>71.66666666666666</ele><time>2026-04-30T13:37:06Z</time></trkpt><trkpt lat="50.39116853267164" lon="3.9702585102985517"><ele>70.33333333333333</ele><time>2026-04-30T13:37:07Z</time></trkpt><trkpt lat="50.391108784684505" lon="3.970505435047576"><ele>69.0</ele><time>2026-04-30T13:37:08Z</time></trkpt><trkpt lat="50.39105084964858" lon="3.9707474779700735"><ele>69.33333333333333</ele><time>2026-04-30T13:37:09Z</time></trkpt><trkpt lat="50.39099329782943" lon="3.9709808907471245"><ele>69.66666666666666</ele><time>2026-04-30T13:37:10Z</time></trkpt><trkpt lat="50.390934806301786" lon="3.971217173288477"><ele>70.0</ele><time>2026-04-30T13:37:11Z</time></trkpt><trkpt lat="50.390879010593196" lon="3.97146015760804"><ele>70.33333333333333</ele><time>2026-04-30T13:37:12Z</time></trkpt><trkpt lat="50.390822274137456" lon="3.9717124701202553"><ele>70.66666666666667</ele><time>2026-04-30T13:37:13Z</time></trkpt><trkpt lat="50.39076271075115" lon="3.9719615201226652"><ele>71.0</ele><time>2026-04-30T13:37:14Z</time></trkpt><trkpt lat="50.390702575528806" lon="3.9722139505926237"><ele>71.0</ele><time>2026-04-30T13:37:15Z</time></trkpt><trkpt lat="50.39063766843872" lon="3.9724719738010914"><ele>71.0</ele><time>2026-04-30T13:37:16Z</time></trkpt><trkpt lat="50.39057665193782" lon="3.972730513111546"><ele>71.0</ele><time>2026-04-30T13:37:17Z</time></trkpt><trkpt lat="50.390513719395685" lon="3.9729875450411876"><ele>70.66666666666667</ele><time>2026-04-30T13:37:18Z</time></trkpt><trkpt lat="50.390451291254365" lon="3.9732479797016285"><ele>70.33333333333333</ele><time>2026-04-30T13:37:19Z</time></trkpt><trkpt lat="50.390383015961945" lon="3.9735180925743645"><ele>70.0</ele><time>2026-04-30T13:37:20Z</time></trkpt><trkpt lat="50.39032092592086" lon="3.973779583691586"><ele>70.0</ele><time>2026-04-30T13:37:21Z</time></trkpt><trkpt lat="50.390255778667466" lon="3.974069839049277"><ele>70.0</ele><time>2026-04-30T13:37:22Z</time></trkpt><trkpt lat="50.39018681774111" lon="3.9743659742769806"><ele>70.0</ele><time>2026-04-30T13:37:23Z</time></trkpt><trkpt lat="50.39011297773549" lon="3.9746729875214974"><ele>70.0</ele><time>2026-04-30T13:37:24Z</time></trkpt><trkpt lat="50.390041316897864" lon="3.9749841682510065"><ele>70.0</ele><time>2026-04-30T13:37:25Z</time></trkpt><trkpt lat="50.38995799728144" lon="3.9753218920185107"><ele>70.0</ele><time>2026-04-30T13:37:26Z</time></trkpt><trkpt lat="50.389876602680204" lon="3.9756730276671464"><ele>69.0</ele><time>2026-04-30T13:37:26.999Z</time></trkpt><trkpt lat="50.38979468276576" lon="3.9760086070421843"><ele>68.0</ele><time>2026-04-30T13:37:27.999Z</time></trkpt><trkpt lat="50.38971675754991" lon="3.976333132230372"><ele>66.66666666666667</ele><time>2026-04-30T13:37:28.999Z</time></trkpt><trkpt lat="50.38964414547037" lon="3.976654992759282"><ele>65.33333333333333</ele><time>2026-04-30T13:37:29.999Z</time></trkpt><trkpt lat="50.38957106942721" lon="3.9769547175384625"><ele>64.0</ele><time>2026-04-30T13:37:30.999Z</time></trkpt><trkpt lat="50.38949954805705" lon="3.977262447987749"><ele>62.666666666666664</ele><time>2026-04-30T13:37:31.999Z</time></trkpt><trkpt lat="50.389432758092696" lon="3.9775434727369574"><ele>61.33333333333333</ele><time>2026-04-30T13:37:32.999Z</time></trkpt><trkpt lat="50.38936426781825" lon="3.9778247220834873"><ele>60.0</ele><time>2026-04-30T13:37:33.999Z</time></trkpt><trkpt lat="50.389303515082474" lon="3.97808320744661"><ele>60.0</ele><time>2026-04-30T13:37:34.999Z</time></trkpt><trkpt lat="50.38924210454345" lon="3.9783386447201092"><ele>60.0</ele><time>2026-04-30T13:37:35.999Z</time></trkpt><trkpt lat="50.38917766911745" lon="3.9786007491221316"><ele>60.0</ele><time>2026-04-30T13:37:36.999Z</time></trkpt><trkpt lat="50.389117430558706" lon="3.9788682766506507"><ele>59.66666666666667</ele><time>2026-04-30T13:37:37.999Z</time></trkpt><trkpt lat="50.38905237738038" lon="3.9791599899951993"><ele>59.333333333333336</ele><time>2026-04-30T13:37:38.999Z</time></trkpt><trkpt lat="50.38898355553288" lon="3.9794477290637604"><ele>59.0</ele><time>2026-04-30T13:37:39.999Z</time></trkpt><trkpt lat="50.388913018938126" lon="3.9797367341776404"><ele>60.66666666666667</ele><time>2026-04-30T13:37:40.999Z</time></trkpt><trkpt lat="50.38884207701895" lon="3.9800371823640415"><ele>62.33333333333333</ele><time>2026-04-30T13:37:41.999Z</time></trkpt><trkpt lat="50.388772268171344" lon="3.9803294565607183"><ele>64.0</ele><time>2026-04-30T13:37:42.999Z</time></trkpt><trkpt lat="50.388701179318495" lon="3.9806417369971006"><ele>63.666666666666664</ele><time>2026-04-30T13:37:43.999Z</time></trkpt><trkpt lat="50.38862619650847" lon="3.9809510618900994"><ele>63.33333333333333</ele><time>2026-04-30T13:37:44.999Z</time></trkpt><trkpt lat="50.388549779831116" lon="3.981262355858076"><ele>63.0</ele><time>2026-04-30T13:37:45.999Z</time></trkpt><trkpt lat="50.388476310192644" lon="3.981580377167462"><ele>62.0</ele><time>2026-04-30T13:37:46.999Z</time></trkpt><trkpt lat="50.388400887004586" lon="3.9818968232500627"><ele>61.0</ele><time>2026-04-30T13:37:47.999Z</time></trkpt><trkpt lat="50.38832242134565" lon="3.9822063267938064"><ele>60.0</ele><time>2026-04-30T13:37:48.999Z</time></trkpt><trkpt lat="50.38825437683108" lon="3.9825087005698943"><ele>60.0</ele><time>2026-04-30T13:37:49.999Z</time></trkpt><trkpt lat="50.38818585647283" lon="3.9828007382509627"><ele>60.0</ele><time>2026-04-30T13:37:50.999Z</time></trkpt><trkpt lat="50.38811991752157" lon="3.9830852960047363"><ele>60.0</ele><time>2026-04-30T13:37:51.999Z</time></trkpt><trkpt lat="50.388051268172575" lon="3.983365345139025"><ele>60.33333333333333</ele><time>2026-04-30T13:37:52.999Z</time></trkpt><trkpt lat="50.387984752562936" lon="3.9836487505170863"><ele>60.666666666666664</ele><time>2026-04-30T13:37:53.999Z</time></trkpt><trkpt lat="50.387916835395494" lon="3.9839317911280454"><ele>61.0</ele><time>2026-04-30T13:37:54.999Z</time></trkpt><trkpt lat="50.3878485760823" lon="3.984217876611479"><ele>61.33333333333333</ele><time>2026-04-30T13:37:55.999Z</time></trkpt><trkpt lat="50.387778481865844" lon="3.984512535910404"><ele>61.66666666666667</ele><time>2026-04-30T13:37:56.999Z</time></trkpt><trkpt lat="50.38770842202461" lon="3.9847981881450085"><ele>62.0</ele><time>2026-04-30T13:37:57.999Z</time></trkpt><trkpt lat="50.387638806243714" lon="3.9850826373907933"><ele>62.333333333333336</ele><time>2026-04-30T13:37:58.999Z</time></trkpt><trkpt lat="50.38757014488538" lon="3.985370610138223"><ele>62.66666666666667</ele><time>2026-04-30T13:37:59.999Z</time></trkpt><trkpt lat="50.38750329759562" lon="3.985653973855537"><ele>63.0</ele><time>2026-04-30T13:38:00.999Z</time></trkpt><trkpt lat="50.38743679332436" lon="3.985946655530908"><ele>63.66666666666667</ele><time>2026-04-30T13:38:01.999Z</time></trkpt><trkpt lat="50.38736563362062" lon="3.9862446243496383"><ele>64.33333333333334</ele><time>2026-04-30T13:38:02.999Z</time></trkpt><trkpt lat="50.387293240668846" lon="3.9865464481828123"><ele>65.0</ele><time>2026-04-30T13:38:03.999Z</time></trkpt><trkpt lat="50.38721703309931" lon="3.9868619963119825"><ele>65.0</ele><time>2026-04-30T13:38:04.999Z</time></trkpt><trkpt lat="50.38714367714045" lon="3.9871751673510984"><ele>65.0</ele><time>2026-04-30T13:38:05.999Z</time></trkpt><trkpt lat="50.38707163844911" lon="3.987449223107785"><ele>65.0</ele><time>2026-04-30T13:38:06.999Z</time></trkpt><trkpt lat="50.387007203809546" lon="3.987721187443698"><ele>65.33333333333334</ele><time>2026-04-30T13:38:07.999Z</time></trkpt><trkpt lat="50.38694189820449" lon="3.9879909018715383"><ele>65.66666666666667</ele><time>2026-04-30T13:38:08.999Z</time></trkpt><trkpt lat="50.38687613095474" lon="3.9882668620223702"><ele>66.0</ele><time>2026-04-30T13:38:09.999Z</time></trkpt><trkpt lat="50.38681335008134" lon="3.988544652637076"><ele>66.0</ele><time>2026-04-30T13:38:10.999Z</time></trkpt><trkpt lat="50.38674551477064" lon="3.988826681742376"><ele>66.0</ele><time>2026-04-30T13:38:11.999Z</time></trkpt><trkpt lat="50.38667769974191" lon="3.9891157197979017"><ele>66.0</ele><time>2026-04-30T13:38:12.999Z</time></trkpt><trkpt lat="50.38660807247649" lon="3.9894097139148283"><ele>66.0</ele><time>2026-04-30T13:38:13.999Z</time></trkpt><trkpt lat="50.38653628320355" lon="3.989706470541497"><ele>66.0</ele><time>2026-04-30T13:38:14.999Z</time></trkpt><trkpt lat="50.386463390972196" lon="3.9900090318080457"><ele>66.0</ele><time>2026-04-30T13:38:15.999Z</time></trkpt><trkpt lat="50.38638935948672" lon="3.990316375860542"><ele>67.33333333333333</ele><time>2026-04-30T13:38:16.999Z</time></trkpt><trkpt lat="50.38631265449352" lon="3.9906385885795754"><ele>68.66666666666666</ele><time>2026-04-30T13:38:17.999Z</time></trkpt><trkpt lat="50.38623722391396" lon="3.9909561070117117"><ele>70.0</ele><time>2026-04-30T13:38:18.999Z</time></trkpt><trkpt lat="50.38616309581527" lon="3.991269973820178"><ele>70.33333333333333</ele><time>2026-04-30T13:38:19.999Z</time></trkpt><trkpt lat="50.3860871577857" lon="3.99158005361995"><ele>70.66666666666667</ele><time>2026-04-30T13:38:20.999Z</time></trkpt><trkpt lat="50.38601402108858" lon="3.991889631597596"><ele>71.0</ele><time>2026-04-30T13:38:21.999Z</time></trkpt><trkpt lat="50.385939079015294" lon="3.9921999100794485"><ele>71.0</ele><time>2026-04-30T13:38:22.999Z</time></trkpt><trkpt lat="50.38586525657881" lon="3.9925034861448028"><ele>71.0</ele><time>2026-04-30T13:38:23.999Z</time></trkpt><trkpt lat="50.38579245431275" lon="3.992807529541814"><ele>71.0</ele><time>2026-04-30T13:38:24.999Z</time></trkpt><trkpt lat="50.38571641137514" lon="3.99311734175118"><ele>70.66666666666667</ele><time>2026-04-30T13:38:25.999Z</time></trkpt><trkpt lat="50.385642611894966" lon="3.9934272999516445"><ele>70.33333333333333</ele><time>2026-04-30T13:38:26.999Z</time></trkpt><trkpt lat="50.38556937369334" lon="3.993738657439864"><ele>70.0</ele><time>2026-04-30T13:38:27.999Z</time></trkpt><trkpt lat="50.38549711974529" lon="3.994032941174678"><ele>69.33333333333333</ele><time>2026-04-30T13:38:28.999Z</time></trkpt><trkpt lat="50.385430000660236" lon="3.9943337543327857"><ele>68.66666666666667</ele><time>2026-04-30T13:38:29.999Z</time></trkpt><trkpt lat="50.38536119211312" lon="3.994627644150744"><ele>68.0</ele><time>2026-04-30T13:38:30.999Z</time></trkpt><trkpt lat="50.38529054236949" lon="3.994915127463647"><ele>67.0</ele><time>2026-04-30T13:38:31.999Z</time></trkpt><trkpt lat="50.3852208161219" lon="3.995202521696488"><ele>66.0</ele><time>2026-04-30T13:38:32.999Z</time></trkpt><trkpt lat="50.385152650495435" lon="3.995491698068334"><ele>65.0</ele><time>2026-04-30T13:38:33.999Z</time></trkpt><trkpt lat="50.38508402054781" lon="3.995783033630165"><ele>64.33333333333334</ele><time>2026-04-30T13:38:34.999Z</time></trkpt><trkpt lat="50.38501234895031" lon="3.9960876652973845"><ele>63.66666666666667</ele><time>2026-04-30T13:38:35.999Z</time></trkpt><trkpt lat="50.38493853627845" lon="3.996381125984907"><ele>63.0</ele><time>2026-04-30T13:38:36.999Z</time></trkpt><trkpt lat="50.38486619324022" lon="3.9966938323692465"><ele>61.66666666666667</ele><time>2026-04-30T13:38:37.999Z</time></trkpt><trkpt lat="50.38479341588806" lon="3.9970061123140144"><ele>60.333333333333336</ele><time>2026-04-30T13:38:38.999Z</time></trkpt><trkpt lat="50.38471913986072" lon="3.9973302118458793"><ele>59.0</ele><time>2026-04-30T13:38:39.999Z</time></trkpt><trkpt lat="50.38464176747347" lon="3.9976495406289696"><ele>58.333333333333336</ele><time>2026-04-30T13:38:41Z</time></trkpt><trkpt lat="50.38456261466771" lon="3.9979818740820035"><ele>57.66666666666667</ele><time>2026-04-30T13:38:42Z</time></trkpt><trkpt lat="50.38448756112205" lon="3.9982994232426665"><ele>57.0</ele><time>2026-04-30T13:38:43Z</time></trkpt><trkpt lat="50.38440781948552" lon="3.9986246097189992"><ele>57.0</ele><time>2026-04-30T13:38:44Z</time></trkpt><trkpt lat="50.38433370849234" lon="3.9989343597059164"><ele>57.0</ele><time>2026-04-30T13:38:45Z</time></trkpt><trkpt lat="50.38426137783534" lon="3.9992356091121266"><ele>57.0</ele><time>2026-04-30T13:38:46Z</time></trkpt><trkpt lat="50.38419670303128" lon="3.999501282026907"><ele>57.5</ele><time>2026-04-30T13:38:47Z</time></trkpt><trkpt lat="50.384142486221286" lon="3.999735214540964"><ele>58.0</ele><time>2026-04-30T13:38:48Z</time></trkpt><trkpt lat="50.38408888482824" lon="3.9999442221093626"><ele>58.5</ele><time>2026-04-30T13:38:49Z</time></trkpt><trkpt lat="50.38404219757328" lon="4.000153140658777"><ele>59.0</ele><time>2026-04-30T13:38:50Z</time></trkpt><trkpt lat="50.38399680681528" lon="4.00034660641455"><ele>59.0</ele><time>2026-04-30T13:38:51Z</time></trkpt><trkpt lat="50.38396331534391" lon="4.000500164472359"><ele>59.0</ele><time>2026-04-30T13:38:52Z</time></trkpt><trkpt lat="50.383935631994355" lon="4.0006487165406694"><ele>59.0</ele><time>2026-04-30T13:38:53Z</time></trkpt><trkpt lat="50.383888832918984" lon="4.000874007491969"><ele>59.0</ele><time>2026-04-30T13:38:54Z</time></trkpt><trkpt lat="50.38381602249008" lon="4.0011421354829135"><ele>61.0</ele><time>2026-04-30T13:38:55Z</time></trkpt><trkpt lat="50.38372927314768" lon="4.001453534456017"><ele>63.0</ele><time>2026-04-30T13:38:56Z</time></trkpt><trkpt lat="50.38364797967565" lon="4.001804256079654"><ele>64.0</ele><time>2026-04-30T13:38:57Z</time></trkpt><trkpt lat="50.38356121622365" lon="4.002175706146963"><ele>65.0</ele><time>2026-04-30T13:38:58Z</time></trkpt><trkpt lat="50.38346099214291" lon="4.002575326394085"><ele>66.5</ele><time>2026-04-30T13:38:59Z</time></trkpt><trkpt lat="50.383361258484214" lon="4.002986226748568"><ele>68.0</ele><time>2026-04-30T13:39:00Z</time></trkpt><trkpt lat="50.38325878747991" lon="4.003419497770008"><ele>68.5</ele><time>2026-04-30T13:39:01Z</time></trkpt><trkpt lat="50.38315829409975" lon="4.003837644757943"><ele>69.0</ele><time>2026-04-30T13:39:02Z</time></trkpt><trkpt lat="50.383067710750375" lon="4.004204340872698"><ele>71.0</ele><time>2026-04-30T13:39:03Z</time></trkpt><trkpt lat="50.382986479669086" lon="4.004553258340549"><ele>73.0</ele><time>2026-04-30T13:39:04Z</time></trkpt><trkpt lat="50.38290443751405" lon="4.004902527745824"><ele>72.5</ele><time>2026-04-30T13:39:05Z</time></trkpt><trkpt lat="50.38282280613454" lon="4.005249151559722"><ele>72.0</ele><time>2026-04-30T13:39:06Z</time></trkpt><trkpt lat="50.382744177134676" lon="4.005572137749601"><ele>72.66666666666667</ele><time>2026-04-30T13:39:07Z</time></trkpt><trkpt lat="50.38266816156663" lon="4.005878312426541"><ele>73.33333333333334</ele><time>2026-04-30T13:39:08Z</time></trkpt><trkpt lat="50.38260043897341" lon="4.006164397951398"><ele>74.0</ele><time>2026-04-30T13:39:09Z</time></trkpt><trkpt lat="50.3825343927326" lon="4.006435230578185"><ele>73.66666666666667</ele><time>2026-04-30T13:39:10Z</time></trkpt><trkpt lat="50.382467042914804" lon="4.006713336511369"><ele>73.33333333333333</ele><time>2026-04-30T13:39:11Z</time></trkpt><trkpt lat="50.38239923057163" lon="4.006981511706197"><ele>73.0</ele><time>2026-04-30T13:39:12Z</time></trkpt><trkpt lat="50.38233368253329" lon="4.007269580092307"><ele>72.0</ele><time>2026-04-30T13:39:13Z</time></trkpt><trkpt lat="50.38226404797298" lon="4.007556926854184"><ele>71.0</ele><time>2026-04-30T13:39:14Z</time></trkpt><trkpt lat="50.382195020940756" lon="4.007839791153057"><ele>70.0</ele><time>2026-04-30T13:39:15Z</time></trkpt><trkpt lat="50.38212982247463" lon="4.008110645579226"><ele>70.33333333333333</ele><time>2026-04-30T13:39:16Z</time></trkpt><trkpt lat="50.382066852294" lon="4.008380135318954"><ele>70.66666666666667</ele><time>2026-04-30T13:39:17Z</time></trkpt><trkpt lat="50.38200439787104" lon="4.008641573405671"><ele>71.0</ele><time>2026-04-30T13:39:18Z</time></trkpt><trkpt lat="50.38194331235468" lon="4.0088996834801955"><ele>71.0</ele><time>2026-04-30T13:39:19Z</time></trkpt><trkpt lat="50.38188724774454" lon="4.00914207198484"><ele>71.0</ele><time>2026-04-30T13:39:20Z</time></trkpt><trkpt lat="50.38183855273545" lon="4.009384283387303"><ele>71.0</ele><time>2026-04-30T13:39:21Z</time></trkpt><trkpt lat="50.381777250447946" lon="4.009629994826731"><ele>70.66666666666667</ele><time>2026-04-30T13:39:22Z</time></trkpt><trkpt lat="50.38172639330573" lon="4.009883142177775"><ele>70.33333333333333</ele><time>2026-04-30T13:39:23Z</time></trkpt><trkpt lat="50.381665096933745" lon="4.010145652446225"><ele>70.0</ele><time>2026-04-30T13:39:24Z</time></trkpt><trkpt lat="50.381605751522365" lon="4.010399999565725"><ele>70.0</ele><time>2026-04-30T13:39:25Z</time></trkpt><trkpt lat="50.38154835319351" lon="4.010640634269284"><ele>70.0</ele><time>2026-04-30T13:39:26Z</time></trkpt><trkpt lat="50.381495254613064" lon="4.010882828061068"><ele>70.0</ele><time>2026-04-30T13:39:27Z</time></trkpt><trkpt lat="50.38144130465245" lon="4.011133009363356"><ele>69.33333333333333</ele><time>2026-04-30T13:39:28Z</time></trkpt><trkpt lat="50.38138484830615" lon="4.011395717817699"><ele>68.66666666666667</ele><time>2026-04-30T13:39:29Z</time></trkpt><trkpt lat="50.38132824549867" lon="4.011637915533946"><ele>68.0</ele><time>2026-04-30T13:39:30Z</time></trkpt><trkpt lat="50.381276804367246" lon="4.011845764115357"><ele>66.5</ele><time>2026-04-30T13:39:31Z</time></trkpt><trkpt lat="50.38123695267356" lon="4.012035247302479"><ele>65.0</ele><time>2026-04-30T13:39:32Z</time></trkpt><trkpt lat="50.381194872951525" lon="4.012210746705306"><ele>63.5</ele><time>2026-04-30T13:39:33Z</time></trkpt><trkpt lat="50.38115638953848" lon="4.0123844334036765"><ele>62.0</ele><time>2026-04-30T13:39:34Z</time></trkpt><trkpt lat="50.38111777121818" lon="4.012540767170367"><ele>61.2</ele><time>2026-04-30T13:39:35Z</time></trkpt><trkpt lat="50.38108350680844" lon="4.012693119497856"><ele>60.400000000000006</ele><time>2026-04-30T13:39:36Z</time></trkpt><trkpt lat="50.3810512029827" lon="4.012839979995922"><ele>59.599999999999994</ele><time>2026-04-30T13:39:37Z</time></trkpt><trkpt lat="50.38102103399135" lon="4.012978334173541"><ele>58.8</ele><time>2026-04-30T13:39:38Z</time></trkpt><trkpt lat="50.380993040629754" lon="4.013107351689765"><ele>58.0</ele><time>2026-04-30T13:39:39Z</time></trkpt><trkpt lat="50.38096696715469" lon="4.013221274556946"><ele>57.666666666666664</ele><time>2026-04-30T13:39:40Z</time></trkpt><trkpt lat="50.380933360372225" lon="4.0133711880720435"><ele>57.33333333333333</ele><time>2026-04-30T13:39:42Z</time></trkpt><trkpt lat="50.3809104901701" lon="4.0134716116306715"><ele>57.0</ele><time>2026-04-30T13:39:44Z</time></trkpt><trkpt lat="50.380890273092014" lon="4.0135754054269634"><ele>56.66666666666667</ele><time>2026-04-30T13:40:14.999Z</time></trkpt><trkpt lat="50.3808612685298" lon="4.01367617782932"><ele>56.333333333333336</ele><time>2026-04-30T13:40:18.999Z</time></trkpt><trkpt lat="50.380836539894624" lon="4.01379356111356"><ele>56.0</ele><time>2026-04-30T13:40:23.999Z</time></trkpt><trkpt lat="50.38081200374845" lon="4.013892339274576"><ele>56.00000000000001</ele><time>2026-04-30T13:40:27.999Z</time></trkpt><trkpt lat="50.38078637933189" lon="4.014008546734814"><ele>56.0</ele><time>2026-04-30T13:40:31.999Z</time></trkpt><trkpt lat="50.380764613674984" lon="4.0141014887008"><ele>56.0</ele><time>2026-04-30T13:40:34.999Z</time></trkpt><trkpt lat="50.38073960817254" lon="4.014211853058986"><ele>56.0</ele><time>2026-04-30T13:40:37.999Z</time></trkpt><trkpt lat="50.38071044336445" lon="4.014331441436795"><ele>56.00000000000001</ele><time>2026-04-30T13:40:40.999Z</time></trkpt><trkpt lat="50.380687155098144" lon="4.014453943218078"><ele>56.0</ele><time>2026-04-30T13:40:43.999Z</time></trkpt><trkpt lat="50.38065746968037" lon="4.0145595724166"><ele>55.857142857142854</ele><time>2026-04-30T13:40:47Z</time></trkpt><trkpt lat="50.380632110568634" lon="4.014652877142062"><ele>55.714285714285715</ele><time>2026-04-30T13:40:50Z</time></trkpt><trkpt lat="50.38061432711322" lon="4.01476503068383"><ele>55.57142857142857</ele><time>2026-04-30T13:40:53Z</time></trkpt><trkpt lat="50.38059644577133" lon="4.014862832166761"><ele>55.42857142857143</ele><time>2026-04-30T13:40:56Z</time></trkpt><trkpt lat="50.38057179712997" lon="4.014972229405188"><ele>55.285714285714285</ele><time>2026-04-30T13:41:01Z</time></trkpt><trkpt lat="50.380543977399114" lon="4.01507960177947"><ele>55.14285714285714</ele><time>2026-04-30T13:41:06Z</time></trkpt><trkpt lat="50.3805232156781" lon="4.015183094577431"><ele>55.0</ele><time>2026-04-30T13:41:13Z</time></trkpt><trkpt lat="50.38050145675115" lon="4.015284564089616"><ele>55.0</ele><time>2026-04-30T13:41:21Z</time></trkpt><trkpt lat="50.38047111396362" lon="4.015420123858579"><ele>55.0</ele><time>2026-04-30T13:41:24Z</time></trkpt><trkpt lat="50.3804382948747" lon="4.015530911343463"><ele>55.0</ele><time>2026-04-30T13:41:26Z</time></trkpt><trkpt lat="50.38040641356924" lon="4.015690701350354"><ele>55.0</ele><time>2026-04-30T13:41:28Z</time></trkpt><trkpt lat="50.38036995889602" lon="4.015853728310319"><ele>55.0</ele><time>2026-04-30T13:41:30Z</time></trkpt><trkpt lat="50.38034179504108" lon="4.015975533401577"><ele>54.57142857142857</ele><time>2026-04-30T13:41:32Z</time></trkpt><trkpt lat="50.38031600603899" lon="4.016087173408867"><ele>54.14285714285714</ele><time>2026-04-30T13:41:35Z</time></trkpt><trkpt lat="50.3802940835779" lon="4.016186514730269"><ele>53.71428571428571</ele><time>2026-04-30T13:41:38Z</time></trkpt><trkpt lat="50.3802737729224" lon="4.016282938339502"><ele>53.285714285714285</ele><time>2026-04-30T13:41:41Z</time></trkpt><trkpt lat="50.38024782893764" lon="4.016396757171603"><ele>52.85714285714286</ele><time>2026-04-30T13:41:44Z</time></trkpt><trkpt lat="50.38022812818775" lon="4.016491514458912"><ele>52.42857142857142</ele><time>2026-04-30T13:41:47Z</time></trkpt><trkpt lat="50.38019844667318" lon="4.016585119652884"><ele>52.0</ele><time>2026-04-30T13:41:50Z</time></trkpt><trkpt lat="50.380171843751164" lon="4.016689767345331"><ele>51.99999999999999</ele><time>2026-04-30T13:41:54Z</time></trkpt><trkpt lat="50.380151463835524" lon="4.01678405489082"><ele>52.0</ele><time>2026-04-30T13:42:42.998Z</time></trkpt><trkpt lat="50.38011628511827" lon="4.016932162972911"><ele>52.0</ele><time>2026-04-30T13:42:44.998Z</time></trkpt><trkpt lat="50.38008357054095" lon="4.0170885881539995"><ele>52.0</ele><time>2026-04-30T13:42:46.998Z</time></trkpt><trkpt lat="50.380058846621125" lon="4.0172127523172065"><ele>51.99999999999999</ele><time>2026-04-30T13:42:48.998Z</time></trkpt><trkpt lat="50.38003568595083" lon="4.017350086824014"><ele>52.0</ele><time>2026-04-30T13:42:50.998Z</time></trkpt><trkpt lat="50.380001258617106" lon="4.017508108462974"><ele>51.8</ele><time>2026-04-30T13:42:52.999Z</time></trkpt><trkpt lat="50.37996037148097" lon="4.017687459265241"><ele>51.6</ele><time>2026-04-30T13:42:54.999Z</time></trkpt><trkpt lat="50.37991027395983" lon="4.017833306588379"><ele>51.4</ele><time>2026-04-30T13:42:56.999Z</time></trkpt><trkpt lat="50.37989381031146" lon="4.017954041935149"><ele>51.199999999999996</ele><time>2026-04-30T13:42:58.999Z</time></trkpt><trkpt lat="50.37986426602391" lon="4.018085730470112"><ele>51.0</ele><time>2026-04-30T13:43:01.999Z</time></trkpt><trkpt lat="50.37984091851523" lon="4.018191169027078"><ele>51.166666666666664</ele><time>2026-04-30T13:43:53.999Z</time></trkpt><trkpt lat="50.37979820929986" lon="4.0183406753080115"><ele>51.33333333333333</ele><time>2026-04-30T13:44:03.999Z</time></trkpt><trkpt lat="50.37976705649284" lon="4.018503725182716"><ele>51.5</ele><time>2026-04-30T13:44:05.999Z</time></trkpt><trkpt lat="50.3797453672172" lon="4.018599325013751"><ele>51.666666666666664</ele><time>2026-04-30T13:44:06.999Z</time></trkpt><trkpt lat="50.37972092982462" lon="4.018701203780164"><ele>51.83333333333333</ele><time>2026-04-30T13:44:07.999Z</time></trkpt><trkpt lat="50.37969944505118" lon="4.0188117550495805"><ele>52.0</ele><time>2026-04-30T13:44:08.999Z</time></trkpt><trkpt lat="50.37966064586067" lon="4.018919116026512"><ele>52.0</ele><time>2026-04-30T13:44:09.999Z</time></trkpt><trkpt lat="50.37963224637187" lon="4.0190410737514215"><ele>52.0</ele><time>2026-04-30T13:44:10.999Z</time></trkpt><trkpt lat="50.37960244658088" lon="4.01917306313097"><ele>52.0</ele><time>2026-04-30T13:44:11.999Z</time></trkpt><trkpt lat="50.3795724948225" lon="4.0193051153752455"><ele>52.0</ele><time>2026-04-30T13:44:12.999Z</time></trkpt><trkpt lat="50.37953835232194" lon="4.0194556438792866"><ele>52.0</ele><time>2026-04-30T13:44:13.999Z</time></trkpt><trkpt lat="50.379501634300745" lon="4.019617860326073"><ele>52.0</ele><time>2026-04-30T13:44:14.999Z</time></trkpt><trkpt lat="50.37946133080625" lon="4.019798047259481"><ele>52.0</ele><time>2026-04-30T13:44:15.999Z</time></trkpt><trkpt lat="50.37943184581159" lon="4.0199308384676"><ele>52.0</ele><time>2026-04-30T13:44:16.999Z</time></trkpt><trkpt lat="50.37939877672445" lon="4.020079533529932"><ele>52.0</ele><time>2026-04-30T13:44:17.999Z</time></trkpt><trkpt lat="50.37936534211908" lon="4.020229890562685"><ele>52.0</ele><time>2026-04-30T13:44:18.999Z</time></trkpt><trkpt lat="50.37934497172313" lon="4.020383363834212"><ele>51.8</ele><time>2026-04-30T13:44:19.999Z</time></trkpt><trkpt lat="50.37930384043868" lon="4.020533941106911"><ele>51.6</ele><time>2026-04-30T13:44:20.999Z</time></trkpt><trkpt lat="50.37926722603724" lon="4.02069915675367"><ele>51.4</ele><time>2026-04-30T13:44:21.998Z</time></trkpt><trkpt lat="50.379234684219924" lon="4.0208706388915285"><ele>51.199999999999996</ele><time>2026-04-30T13:44:22.998Z</time></trkpt><trkpt lat="50.379198832881016" lon="4.021043300868217"><ele>51.0</ele><time>2026-04-30T13:44:23.998Z</time></trkpt><trkpt lat="50.37917557111247" lon="4.021216167303806"><ele>51.0</ele><time>2026-04-30T13:44:24.998Z</time></trkpt><trkpt lat="50.37915661168137" lon="4.021380243802501"><ele>51.0</ele><time>2026-04-30T13:44:25.998Z</time></trkpt><trkpt lat="50.37913599300282" lon="4.021527297151324"><ele>51.0</ele><time>2026-04-30T13:44:26.998Z</time></trkpt><trkpt lat="50.379118693850735" lon="4.021662947822916"><ele>51.0</ele><time>2026-04-30T13:44:27.998Z</time></trkpt><trkpt lat="50.37910308200178" lon="4.021790390441207"><ele>51.0</ele><time>2026-04-30T13:44:28.998Z</time></trkpt><trkpt lat="50.37908423877809" lon="4.0219222199471085"><ele>51.199999999999996</ele><time>2026-04-30T13:44:29.998Z</time></trkpt><trkpt lat="50.3790720519137" lon="4.022067763903137"><ele>51.4</ele><time>2026-04-30T13:44:30.998Z</time></trkpt><trkpt lat="50.37905402273454" lon="4.02222957387709"><ele>51.6</ele><time>2026-04-30T13:44:31.998Z</time></trkpt><trkpt lat="50.379037669173925" lon="4.022408220989163"><ele>51.8</ele><time>2026-04-30T13:44:32.998Z</time></trkpt><trkpt lat="50.37901837557899" lon="4.022596058371252"><ele>52.0</ele><time>2026-04-30T13:44:33.998Z</time></trkpt><trkpt lat="50.37900152433951" lon="4.022799411785457"><ele>52.25</ele><time>2026-04-30T13:44:34.998Z</time></trkpt><trkpt lat="50.3789894088562" lon="4.023001489902627"><ele>52.5</ele><time>2026-04-30T13:44:35.998Z</time></trkpt><trkpt lat="50.37898272218172" lon="4.023203327632028"><ele>52.75</ele><time>2026-04-30T13:44:36.998Z</time></trkpt><trkpt lat="50.3789793565093" lon="4.0233895268066915"><ele>53.0</ele><time>2026-04-30T13:44:37.998Z</time></trkpt><trkpt lat="50.378977887336184" lon="4.023568779683446"><ele>53.2</ele><time>2026-04-30T13:44:38.998Z</time></trkpt><trkpt lat="50.378980934695406" lon="4.023738782219791"><ele>53.4</ele><time>2026-04-30T13:44:39.998Z</time></trkpt><trkpt lat="50.37899269462981" lon="4.023906564620113"><ele>53.60000000000001</ele><time>2026-04-30T13:44:40.998Z</time></trkpt><trkpt lat="50.37900108928228" lon="4.024066067575677"><ele>53.800000000000004</ele><time>2026-04-30T13:44:41.998Z</time></trkpt><trkpt lat="50.379004728377055" lon="4.024223981614192"><ele>54.0</ele><time>2026-04-30T13:44:42.998Z</time></trkpt><trkpt lat="50.3790123243388" lon="4.024377696829841"><ele>54.2</ele><time>2026-04-30T13:44:43.998Z</time></trkpt><trkpt lat="50.37902126620745" lon="4.024531700425949"><ele>54.400000000000006</ele><time>2026-04-30T13:44:44.998Z</time></trkpt><trkpt lat="50.379032269270645" lon="4.024689339941827"><ele>54.6</ele><time>2026-04-30T13:44:45.998Z</time></trkpt><trkpt lat="50.37904815833768" lon="4.024857505193858"><ele>54.8</ele><time>2026-04-30T13:44:46.998Z</time></trkpt><trkpt lat="50.37906247558745" lon="4.025035864808301"><ele>55.0</ele><time>2026-04-30T13:44:47.998Z</time></trkpt><trkpt lat="50.379072527110594" lon="4.025217582910327"><ele>55.25</ele><time>2026-04-30T13:44:48.998Z</time></trkpt><trkpt lat="50.379082505077186" lon="4.025407105388916"><ele>55.5</ele><time>2026-04-30T13:44:49.998Z</time></trkpt><trkpt lat="50.37909256475568" lon="4.025598988828785"><ele>55.75</ele><time>2026-04-30T13:44:50.998Z</time></trkpt><trkpt lat="50.37909763827326" lon="4.025782267164548"><ele>56.0</ele><time>2026-04-30T13:44:51.998Z</time></trkpt><trkpt lat="50.37909685167676" lon="4.025955812996548"><ele>56.25</ele><time>2026-04-30T13:44:52.998Z</time></trkpt><trkpt lat="50.37909136239835" lon="4.026129637172917"><ele>56.5</ele><time>2026-04-30T13:44:53.998Z</time></trkpt><trkpt lat="50.37908309064747" lon="4.026304965175846"><ele>56.75</ele><time>2026-04-30T13:44:54.998Z</time></trkpt><trkpt lat="50.379075987719816" lon="4.026493651208653"><ele>57.0</ele><time>2026-04-30T13:44:55.998Z</time></trkpt><trkpt lat="50.37906522266914" lon="4.026675829482752"><ele>57.0</ele><time>2026-04-30T13:44:56.998Z</time></trkpt><trkpt lat="50.3790512797349" lon="4.026851464770595"><ele>57.0</ele><time>2026-04-30T13:44:57.999Z</time></trkpt><trkpt lat="50.379039772497784" lon="4.0270218049319455"><ele>57.0</ele><time>2026-04-30T13:44:58.999Z</time></trkpt><trkpt lat="50.37903115766971" lon="4.027193423113641"><ele>57.0</ele><time>2026-04-30T13:44:59.999Z</time></trkpt><trkpt lat="50.37902320092093" lon="4.027355057301909"><ele>57.0</ele><time>2026-04-30T13:45:00.999Z</time></trkpt><trkpt lat="50.379024094308605" lon="4.027513438025266"><ele>57.0</ele><time>2026-04-30T13:45:01.999Z</time></trkpt><trkpt lat="50.37904160583605" lon="4.027664944638172"><ele>57.0</ele><time>2026-04-30T13:45:02.999Z</time></trkpt><trkpt lat="50.379070334190395" lon="4.027817474122003"><ele>57.0</ele><time>2026-04-30T13:45:03.999Z</time></trkpt><trkpt lat="50.37910051361542" lon="4.0279630517262826"><ele>57.0</ele><time>2026-04-30T13:45:04.999Z</time></trkpt><trkpt lat="50.37913438722902" lon="4.028109658109966"><ele>57.0</ele><time>2026-04-30T13:45:05.999Z</time></trkpt><trkpt lat="50.37916064375872" lon="4.028253049740652"><ele>57.0</ele><time>2026-04-30T13:45:06.999Z</time></trkpt><trkpt lat="50.37918870990664" lon="4.0283975151219"><ele>57.0</ele><time>2026-04-30T13:45:07.999Z</time></trkpt><trkpt lat="50.3792162566886" lon="4.028543297818556"><ele>57.0</ele><time>2026-04-30T13:45:08.999Z</time></trkpt><trkpt lat="50.37924458753876" lon="4.028706532839709"><ele>57.0</ele><time>2026-04-30T13:45:09.999Z</time></trkpt><trkpt lat="50.37926764063072" lon="4.028880825645246"><ele>57.0</ele><time>2026-04-30T13:45:10.999Z</time></trkpt><trkpt lat="50.37926315774408" lon="4.029056552302529"><ele>57.166666666666664</ele><time>2026-04-30T13:45:11.999Z</time></trkpt><trkpt lat="50.37926956889913" lon="4.0292132624157215"><ele>57.33333333333333</ele><time>2026-04-30T13:45:12.999Z</time></trkpt><trkpt lat="50.379268071277416" lon="4.029353499394827"><ele>57.5</ele><time>2026-04-30T13:45:13.999Z</time></trkpt><trkpt lat="50.37926422812158" lon="4.029479501480098"><ele>57.666666666666664</ele><time>2026-04-30T13:45:14.999Z</time></trkpt><trkpt lat="50.379258064106885" lon="4.0295971290905115"><ele>57.83333333333333</ele><time>2026-04-30T13:45:15.999Z</time></trkpt><trkpt lat="50.37924828757518" lon="4.029722047503956"><ele>58.0</ele><time>2026-04-30T13:45:16.999Z</time></trkpt><trkpt lat="50.37923802202447" lon="4.029853214249142"><ele>58.2</ele><time>2026-04-30T13:45:17.999Z</time></trkpt><trkpt lat="50.37922810013256" lon="4.02998728947268"><ele>58.4</ele><time>2026-04-30T13:45:18.999Z</time></trkpt><trkpt lat="50.37921749842601" lon="4.030133232973663"><ele>58.60000000000001</ele><time>2026-04-30T13:45:19.999Z</time></trkpt><trkpt lat="50.37920596673365" lon="4.030291978324787"><ele>58.800000000000004</ele><time>2026-04-30T13:45:20.999Z</time></trkpt><trkpt lat="50.37919358634471" lon="4.030465296347905"><ele>59.0</ele><time>2026-04-30T13:45:21.999Z</time></trkpt><trkpt lat="50.37917598374893" lon="4.030637218956726"><ele>58.6</ele><time>2026-04-30T13:45:22.999Z</time></trkpt><trkpt lat="50.37915385672585" lon="4.030808781963872"><ele>58.2</ele><time>2026-04-30T13:45:23.999Z</time></trkpt><trkpt lat="50.37912587254804" lon="4.030979818063718"><ele>57.800000000000004</ele><time>2026-04-30T13:45:24.999Z</time></trkpt><trkpt lat="50.37910652614446" lon="4.03115518800333"><ele>57.400000000000006</ele><time>2026-04-30T13:45:25.999Z</time></trkpt><trkpt lat="50.379088032437956" lon="4.031321769389389"><ele>57.0</ele><time>2026-04-30T13:45:26.999Z</time></trkpt><trkpt lat="50.37909137691086" lon="4.03148383270118"><ele>57.0</ele><time>2026-04-30T13:45:27.999Z</time></trkpt><trkpt lat="50.37906635847817" lon="4.031630353416776"><ele>57.0</ele><time>2026-04-30T13:45:28.999Z</time></trkpt><trkpt lat="50.379058123265025" lon="4.031777272719758"><ele>57.0</ele><time>2026-04-30T13:45:29.999Z</time></trkpt><trkpt lat="50.37905655979874" lon="4.031938129674642"><ele>57.0</ele><time>2026-04-30T13:45:30.999Z</time></trkpt><trkpt lat="50.37905387234642" lon="4.0320961620203954"><ele>57.0</ele><time>2026-04-30T13:45:31.999Z</time></trkpt><trkpt lat="50.379051306453974" lon="4.032250530666897"><ele>56.8</ele><time>2026-04-30T13:45:32.999Z</time></trkpt><trkpt lat="50.37904877934718" lon="4.032407794343259"><ele>56.6</ele><time>2026-04-30T13:45:33.999Z</time></trkpt><trkpt lat="50.37904700874892" lon="4.0325621769183275"><ele>56.39999999999999</ele><time>2026-04-30T13:45:34.999Z</time></trkpt><trkpt lat="50.379045344090486" lon="4.032717731336627"><ele>56.199999999999996</ele><time>2026-04-30T13:45:35.999Z</time></trkpt><trkpt lat="50.37905863542617" lon="4.032883363602733"><ele>56.0</ele><time>2026-04-30T13:45:36.999Z</time></trkpt><trkpt lat="50.379041931655564" lon="4.033044532806916"><ele>55.8</ele><time>2026-04-30T13:45:37.999Z</time></trkpt><trkpt lat="50.379039119260575" lon="4.033212035741933"><ele>55.599999999999994</ele><time>2026-04-30T13:45:38.999Z</time></trkpt><trkpt lat="50.37905241767168" lon="4.033386582168509"><ele>55.4</ele><time>2026-04-30T13:45:39.999Z</time></trkpt><trkpt lat="50.37901900443676" lon="4.033561513242427"><ele>55.2</ele><time>2026-04-30T13:45:40.999Z</time></trkpt><trkpt lat="50.37901453433496" lon="4.033736165835889"><ele>55.0</ele><time>2026-04-30T13:45:41.999Z</time></trkpt><trkpt lat="50.37900892288238" lon="4.033911879696705"><ele>55.0</ele><time>2026-04-30T13:45:42.999Z</time></trkpt><trkpt lat="50.37901856602084" lon="4.034107595605587"><ele>55.0</ele><time>2026-04-30T13:45:43.999Z</time></trkpt><trkpt lat="50.37900785122081" lon="4.034306188761859"><ele>55.0</ele><time>2026-04-30T13:45:44.999Z</time></trkpt><trkpt lat="50.37899906687044" lon="4.034498355002298"><ele>55.0</ele><time>2026-04-30T13:45:45.999Z</time></trkpt><trkpt lat="50.37899235624407" lon="4.034672327490568"><ele>55.14285714285714</ele><time>2026-04-30T13:45:46.999Z</time></trkpt><trkpt lat="50.37898543645826" lon="4.034804486467269"><ele>55.285714285714285</ele><time>2026-04-30T13:45:47.999Z</time></trkpt><trkpt lat="50.3789774460826" lon="4.034902449426765"><ele>55.42857142857143</ele><time>2026-04-30T13:45:48.999Z</time></trkpt><trkpt lat="50.37898254193407" lon="4.0350050520208"><ele>55.57142857142857</ele><time>2026-04-30T13:45:57.999Z</time></trkpt><trkpt lat="50.37900068158219" lon="4.035116748477494"><ele>55.714285714285715</ele><time>2026-04-30T13:45:59.999Z</time></trkpt><trkpt lat="50.379020591351576" lon="4.035228748074214"><ele>55.857142857142854</ele><time>2026-04-30T13:46:01.999Z</time></trkpt><trkpt lat="50.37907365994044" lon="4.03531785654133"><ele>56.0</ele><time>2026-04-30T13:46:04.999Z</time></trkpt><trkpt lat="50.379118781773954" lon="4.0353904241898535"><ele>56.00000000000001</ele><time>2026-04-30T13:46:06.999Z</time></trkpt><trkpt lat="50.379170454088886" lon="4.0354668815018835"><ele>56.0</ele><time>2026-04-30T13:46:08.999Z</time></trkpt><trkpt lat="50.379222983148814" lon="4.03554944897861"><ele>56.0</ele><time>2026-04-30T13:46:11.999Z</time></trkpt><trkpt lat="50.37927087843492" lon="4.035630457735047"><ele>56.0</ele><time>2026-04-30T13:46:31.998Z</time></trkpt><trkpt lat="50.37932816442018" lon="4.035743789094116"><ele>56.00000000000001</ele><time>2026-04-30T13:46:36.998Z</time></trkpt><trkpt lat="50.379341141792665" lon="4.035862355377369"><ele>56.0</ele><time>2026-04-30T13:46:38.998Z</time></trkpt><trkpt lat="50.37924160202923" lon="4.035986153961341"><ele>56.199999999999996</ele><time>2026-04-30T13:46:40.998Z</time></trkpt><trkpt lat="50.37916939399657" lon="4.036062001026942"><ele>56.39999999999999</ele><time>2026-04-30T13:46:41.998Z</time></trkpt><trkpt lat="50.37908636934411" lon="4.0361424764057565"><ele>56.6</ele><time>2026-04-30T13:46:42.998Z</time></trkpt><trkpt lat="50.37900020485385" lon="4.03624318338686"><ele>56.8</ele><time>2026-04-30T13:46:43.998Z</time></trkpt><trkpt lat="50.37890814703879" lon="4.036348838712441"><ele>57.0</ele><time>2026-04-30T13:46:44.998Z</time></trkpt><trkpt lat="50.37880949426081" lon="4.036453722254782"><ele>57.25</ele><time>2026-04-30T13:46:45.998Z</time></trkpt><trkpt lat="50.3787174562699" lon="4.036560357569113"><ele>57.5</ele><time>2026-04-30T13:46:46.998Z</time></trkpt><trkpt lat="50.37862158269746" lon="4.036663424476053"><ele>57.75</ele><time>2026-04-30T13:46:47.998Z</time></trkpt><trkpt lat="50.37852153933507" lon="4.036768785419867"><ele>58.0</ele><time>2026-04-30T13:46:48.998Z</time></trkpt><trkpt lat="50.37841783028475" lon="4.036879335282178"><ele>58.75</ele><time>2026-04-30T13:46:49.998Z</time></trkpt><trkpt lat="50.378311731561595" lon="4.036986727313966"><ele>59.5</ele><time>2026-04-30T13:46:50.998Z</time></trkpt><trkpt lat="50.378201297145274" lon="4.037108642273102"><ele>60.25</ele><time>2026-04-30T13:46:51.998Z</time></trkpt><trkpt lat="50.37807672407974" lon="4.037233842088636"><ele>61.0</ele><time>2026-04-30T13:46:52.998Z</time></trkpt><trkpt lat="50.37795475259819" lon="4.037362505292214"><ele>62.5</ele><time>2026-04-30T13:46:53.998Z</time></trkpt><trkpt lat="50.37784411019089" lon="4.0374829944609445"><ele>64.0</ele><time>2026-04-30T13:46:54.998Z</time></trkpt><trkpt lat="50.37774146319612" lon="4.037592696690711"><ele>65.5</ele><time>2026-04-30T13:46:55.998Z</time></trkpt><trkpt lat="50.37763468094296" lon="4.037704940587233"><ele>67.0</ele><time>2026-04-30T13:46:56.998Z</time></trkpt><trkpt lat="50.37752631246403" lon="4.037821386496263"><ele>67.0</ele><time>2026-04-30T13:46:57.998Z</time></trkpt><trkpt lat="50.37742125177368" lon="4.037933574568996"><ele>67.0</ele><time>2026-04-30T13:46:58.998Z</time></trkpt><trkpt lat="50.377320474636406" lon="4.0380439626624"><ele>67.0</ele><time>2026-04-30T13:46:59.998Z</time></trkpt><trkpt lat="50.37721947949661" lon="4.038148410007756"><ele>67.0</ele><time>2026-04-30T13:47:00.998Z</time></trkpt><trkpt lat="50.37711829070495" lon="4.038253713916009"><ele>68.5</ele><time>2026-04-30T13:47:01.998Z</time></trkpt><trkpt lat="50.37701632783597" lon="4.038359784230198"><ele>70.0</ele><time>2026-04-30T13:47:02.998Z</time></trkpt><trkpt lat="50.376905023372366" lon="4.0384426608419695"><ele>71.5</ele><time>2026-04-30T13:47:03.999Z</time></trkpt><trkpt lat="50.37680624306766" lon="4.038538406208997"><ele>73.0</ele><time>2026-04-30T13:47:04.999Z</time></trkpt><trkpt lat="50.37671030191239" lon="4.038639051764132"><ele>73.0</ele><time>2026-04-30T13:47:05.999Z</time></trkpt><trkpt lat="50.37661483110858" lon="4.038738386490758"><ele>73.0</ele><time>2026-04-30T13:47:06.999Z</time></trkpt><trkpt lat="50.376529169330745" lon="4.038828996741338"><ele>73.0</ele><time>2026-04-30T13:47:07.999Z</time></trkpt><trkpt lat="50.37645683813129" lon="4.038913359572918"><ele>73.0</ele><time>2026-04-30T13:47:08.999Z</time></trkpt><trkpt lat="50.37640058223678" lon="4.039004755002896"><ele>73.0</ele><time>2026-04-30T13:47:09.999Z</time></trkpt><trkpt lat="50.37634669548051" lon="4.039059783116336"><ele>73.0</ele><time>2026-04-30T13:47:10.999Z</time></trkpt><trkpt lat="50.37626397199114" lon="4.039145472675302"><ele>73.0</ele><time>2026-04-30T13:47:12.999Z</time></trkpt><trkpt lat="50.37619011486357" lon="4.039226610660516"><ele>73.0</ele><time>2026-04-30T13:47:26.999Z</time></trkpt><trkpt lat="50.376133181535714" lon="4.0392900627247785"><ele>73.0</ele><time>2026-04-30T13:47:27.999Z</time></trkpt><trkpt lat="50.37605424796529" lon="4.039376313954402"><ele>73.0</ele><time>2026-04-30T13:47:28.999Z</time></trkpt><trkpt lat="50.3759545055812" lon="4.039477224467713"><ele>73.0</ele><time>2026-04-30T13:47:29.999Z</time></trkpt><trkpt lat="50.37584518142374" lon="4.039597523114646"><ele>73.0</ele><time>2026-04-30T13:47:30.999Z</time></trkpt><trkpt lat="50.37572446080276" lon="4.039727935589446"><ele>73.0</ele><time>2026-04-30T13:47:31.999Z</time></trkpt><trkpt lat="50.375590397992106" lon="4.039871675773379"><ele>73.0</ele><time>2026-04-30T13:47:32.999Z</time></trkpt><trkpt lat="50.37544502999109" lon="4.040026415337625"><ele>74.0</ele><time>2026-04-30T13:47:33.999Z</time></trkpt><trkpt lat="50.37528958715952" lon="4.04019612904386"><ele>75.0</ele><time>2026-04-30T13:47:34.999Z</time></trkpt><trkpt lat="50.37512823955445" lon="4.040363922251823"><ele>76.0</ele><time>2026-04-30T13:47:35.999Z</time></trkpt><trkpt lat="50.37495089719506" lon="4.040552998566419"><ele>76.0</ele><time>2026-04-30T13:47:36.999Z</time></trkpt><trkpt lat="50.374764128656" lon="4.040750366689156"><ele>76.0</ele><time>2026-04-30T13:47:37.999Z</time></trkpt><trkpt lat="50.37456875202887" lon="4.0409585143843625"><ele>78.5</ele><time>2026-04-30T13:47:38.999Z</time></trkpt><trkpt lat="50.37437261043835" lon="4.041164168323859"><ele>81.0</ele><time>2026-04-30T13:47:39.999Z</time></trkpt><trkpt lat="50.374178736315635" lon="4.041370652280104"><ele>81.0</ele><time>2026-04-30T13:47:40.999Z</time></trkpt><trkpt lat="50.37398689865724" lon="4.041577589375558"><ele>81.0</ele><time>2026-04-30T13:47:41.999Z</time></trkpt><trkpt lat="50.3737908380758" lon="4.041789040983147"><ele>82.0</ele><time>2026-04-30T13:47:42.999Z</time></trkpt><trkpt lat="50.37359331660548" lon="4.042002087264106"><ele>83.0</ele><time>2026-04-30T13:47:43.999Z</time></trkpt><trkpt lat="50.37339115965083" lon="4.042214608353384"><ele>83.0</ele><time>2026-04-30T13:47:44.999Z</time></trkpt><trkpt lat="50.37318771510516" lon="4.042428761725493"><ele>83.0</ele><time>2026-04-30T13:47:45.999Z</time></trkpt><trkpt lat="50.37298542346722" lon="4.042638664733605"><ele>85.5</ele><time>2026-04-30T13:47:46.999Z</time></trkpt><trkpt lat="50.37278468206359" lon="4.042855497359848"><ele>88.0</ele><time>2026-04-30T13:47:47.999Z</time></trkpt><trkpt lat="50.37257823838579" lon="4.043091388645045"><ele>89.0</ele><time>2026-04-30T13:47:48.999Z</time></trkpt><trkpt lat="50.37236292984403" lon="4.043310709850621"><ele>90.0</ele><time>2026-04-30T13:47:49.999Z</time></trkpt><trkpt lat="50.372167834999175" lon="4.0435171965859285"><ele>90.66666666666667</ele><time>2026-04-30T13:47:50.999Z</time></trkpt><trkpt lat="50.37198436675938" lon="4.04371076021333"><ele>91.33333333333334</ele><time>2026-04-30T13:47:51.999Z</time></trkpt><trkpt lat="50.3718069839489" lon="4.043904130669572"><ele>92.0</ele><time>2026-04-30T13:47:52.999Z</time></trkpt><trkpt lat="50.371628870776405" lon="4.04410276232752"><ele>92.0</ele><time>2026-04-30T13:47:53.999Z</time></trkpt><trkpt lat="50.37145087235945" lon="4.044297100160697"><ele>92.0</ele><time>2026-04-30T13:47:54.999Z</time></trkpt><trkpt lat="50.37125347867391" lon="4.0444843914646835"><ele>92.0</ele><time>2026-04-30T13:47:55.999Z</time></trkpt><trkpt lat="50.3710567098084" lon="4.044724135349861"><ele>93.0</ele><time>2026-04-30T13:47:56.999Z</time></trkpt><trkpt lat="50.37082943612145" lon="4.044936692891293"><ele>94.0</ele><time>2026-04-30T13:47:57.999Z</time></trkpt><trkpt lat="50.37060686834865" lon="4.045198179903127"><ele>96.5</ele><time>2026-04-30T13:47:58.999Z</time></trkpt><trkpt lat="50.37036241805981" lon="4.045438469819584"><ele>99.0</ele><time>2026-04-30T13:47:59.999Z</time></trkpt><trkpt lat="50.370113485960275" lon="4.045697562997122"><ele>100.0</ele><time>2026-04-30T13:48:00.999Z</time></trkpt><trkpt lat="50.36986344315609" lon="4.04596381618089"><ele>101.0</ele><time>2026-04-30T13:48:01.999Z</time></trkpt><trkpt lat="50.36960946125692" lon="4.0462344201303795"><ele>102.5</ele><time>2026-04-30T13:48:02.999Z</time></trkpt><trkpt lat="50.36936288846256" lon="4.046499844935383"><ele>104.0</ele><time>2026-04-30T13:48:03.999Z</time></trkpt><trkpt lat="50.369121312337896" lon="4.046759715853877"><ele>104.0</ele><time>2026-04-30T13:48:04.999Z</time></trkpt><trkpt lat="50.36887602226949" lon="4.047015855297247"><ele>104.0</ele><time>2026-04-30T13:48:05.999Z</time></trkpt><trkpt lat="50.36862755140522" lon="4.0472855258318985"><ele>106.0</ele><time>2026-04-30T13:48:06.999Z</time></trkpt><trkpt lat="50.36837286460401" lon="4.047554433344502"><ele>108.0</ele><time>2026-04-30T13:48:07.999Z</time></trkpt><trkpt lat="50.36811713009255" lon="4.047826001381025"><ele>109.0</ele><time>2026-04-30T13:48:08.999Z</time></trkpt><trkpt lat="50.36785834829659" lon="4.048100476966271"><ele>110.0</ele><time>2026-04-30T13:48:09.999Z</time></trkpt><trkpt lat="50.36760954363151" lon="4.0483636313368425"><ele>110.5</ele><time>2026-04-30T13:48:10.999Z</time></trkpt><trkpt lat="50.36738154708667" lon="4.048605299803978"><ele>111.0</ele><time>2026-04-30T13:48:11.999Z</time></trkpt><trkpt lat="50.36716627452624" lon="4.048835034744565"><ele>112.5</ele><time>2026-04-30T13:48:12.999Z</time></trkpt><trkpt lat="50.366947792037315" lon="4.049067921168909"><ele>114.0</ele><time>2026-04-30T13:48:13.999Z</time></trkpt><trkpt lat="50.366727389056095" lon="4.049303278765652"><ele>114.5</ele><time>2026-04-30T13:48:14.999Z</time></trkpt><trkpt lat="50.36649760224446" lon="4.049544049121128"><ele>115.0</ele><time>2026-04-30T13:48:15.999Z</time></trkpt><trkpt lat="50.3662657640704" lon="4.049793349281748"><ele>116.5</ele><time>2026-04-30T13:48:16.999Z</time></trkpt><trkpt lat="50.36602558202206" lon="4.050035400393125"><ele>118.0</ele><time>2026-04-30T13:48:17.999Z</time></trkpt><trkpt lat="50.36579803251128" lon="4.0503291938442025"><ele>118.0</ele><time>2026-04-30T13:48:18.999Z</time></trkpt><trkpt lat="50.36553957279659" lon="4.050562509057515"><ele>118.0</ele><time>2026-04-30T13:48:19.999Z</time></trkpt><trkpt lat="50.365309837828875" lon="4.050804247468693"><ele>119.5</ele><time>2026-04-30T13:48:20.999Z</time></trkpt><trkpt lat="50.3650987734694" lon="4.051030362711126"><ele>121.0</ele><time>2026-04-30T13:48:21.999Z</time></trkpt><trkpt lat="50.36488959671208" lon="4.051252686106258"><ele>122.0</ele><time>2026-04-30T13:48:22.999Z</time></trkpt><trkpt lat="50.36468994297051" lon="4.05148218836305"><ele>123.0</ele><time>2026-04-30T13:48:23.999Z</time></trkpt><trkpt lat="50.36447945532989" lon="4.051698899548999"><ele>123.0</ele><time>2026-04-30T13:48:24.999Z</time></trkpt><trkpt lat="50.36427363904601" lon="4.051915987958674"><ele>123.0</ele><time>2026-04-30T13:48:25.999Z</time></trkpt><trkpt lat="50.36407143694317" lon="4.052132362095101"><ele>123.0</ele><time>2026-04-30T13:48:26.999Z</time></trkpt><trkpt lat="50.3638638335593" lon="4.052354000751612"><ele>123.0</ele><time>2026-04-30T13:48:27.999Z</time></trkpt><trkpt lat="50.36364939027317" lon="4.052580307767702"><ele>123.5</ele><time>2026-04-30T13:48:28.999Z</time></trkpt><trkpt lat="50.3634291197203" lon="4.052811189379953"><ele>124.0</ele><time>2026-04-30T13:48:29.999Z</time></trkpt><trkpt lat="50.363205319711525" lon="4.053045986477914"><ele>124.5</ele><time>2026-04-30T13:48:30.999Z</time></trkpt><trkpt lat="50.36297691778776" lon="4.0532888288531765"><ele>125.0</ele><time>2026-04-30T13:48:31.999Z</time></trkpt><trkpt lat="50.36274745818564" lon="4.053534392840045"><ele>125.5</ele><time>2026-04-30T13:48:32.999Z</time></trkpt><trkpt lat="50.362513617930446" lon="4.05377602734121"><ele>126.0</ele><time>2026-04-30T13:48:33.999Z</time></trkpt><trkpt lat="50.36229243850772" lon="4.054003168866039"><ele>127.5</ele><time>2026-04-30T13:48:34.999Z</time></trkpt><trkpt lat="50.36209834532409" lon="4.054219182702293"><ele>129.0</ele><time>2026-04-30T13:48:35.999Z</time></trkpt><trkpt lat="50.36190446042936" lon="4.054427185822625"><ele>129.0</ele><time>2026-04-30T13:48:36.999Z</time></trkpt><trkpt lat="50.36171668321462" lon="4.054627655771333"><ele>129.0</ele><time>2026-04-30T13:48:37.999Z</time></trkpt><trkpt lat="50.36153308259326" lon="4.054823193250048"><ele>129.0</ele><time>2026-04-30T13:48:38.999Z</time></trkpt><trkpt lat="50.36134769059641" lon="4.0550193229673255"><ele>130.5</ele><time>2026-04-30T13:48:39.999Z</time></trkpt><trkpt lat="50.36116008302085" lon="4.055219775962752"><ele>132.0</ele><time>2026-04-30T13:48:40.999Z</time></trkpt><trkpt lat="50.36097023737748" lon="4.055424689340904"><ele>132.0</ele><time>2026-04-30T13:48:41.999Z</time></trkpt><trkpt lat="50.3607717987182" lon="4.0556370267358774"><ele>132.0</ele><time>2026-04-30T13:48:42.999Z</time></trkpt><trkpt lat="50.3605678232121" lon="4.055857267817058"><ele>133.0</ele><time>2026-04-30T13:48:43.999Z</time></trkpt><trkpt lat="50.36035112483673" lon="4.056082347596352"><ele>134.0</ele><time>2026-04-30T13:48:44.999Z</time></trkpt><trkpt lat="50.36013171952382" lon="4.056316970872441"><ele>134.0</ele><time>2026-04-30T13:48:45.999Z</time></trkpt><trkpt lat="50.35992965439665" lon="4.056532689681631"><ele>134.0</ele><time>2026-04-30T13:48:46.999Z</time></trkpt><trkpt lat="50.35973445979501" lon="4.056727707911816"><ele>135.5</ele><time>2026-04-30T13:48:47.999Z</time></trkpt><trkpt lat="50.35953979534309" lon="4.056924933214944"><ele>137.0</ele><time>2026-04-30T13:48:48.999Z</time></trkpt><trkpt lat="50.35935522763568" lon="4.0571211532544345"><ele>137.0</ele><time>2026-04-30T13:48:49.999Z</time></trkpt><trkpt lat="50.359172078862436" lon="4.057316744433328"><ele>137.0</ele><time>2026-04-30T13:48:50.999Z</time></trkpt><trkpt lat="50.35900022827254" lon="4.0575021678417675"><ele>137.0</ele><time>2026-04-30T13:48:51.999Z</time></trkpt><trkpt lat="50.35884152761667" lon="4.0576703554703935"><ele>137.66666666666666</ele><time>2026-04-30T13:48:52.999Z</time></trkpt><trkpt lat="50.35868173790487" lon="4.057838682246224"><ele>138.33333333333334</ele><time>2026-04-30T13:48:53.999Z</time></trkpt><trkpt lat="50.358525526002126" lon="4.058005002234832"><ele>139.0</ele><time>2026-04-30T13:48:54.999Z</time></trkpt><trkpt lat="50.3583794717926" lon="4.05816143357208"><ele>139.0</ele><time>2026-04-30T13:48:55.999Z</time></trkpt><trkpt lat="50.35824193008036" lon="4.05831028085789"><ele>139.0</ele><time>2026-04-30T13:48:56.999Z</time></trkpt><trkpt lat="50.35810673175389" lon="4.058454716910972"><ele>139.0</ele><time>2026-04-30T13:48:57.999Z</time></trkpt><trkpt lat="50.357973488995206" lon="4.058601481447966"><ele>138.66666666666669</ele><time>2026-04-30T13:48:58.999Z</time></trkpt><trkpt lat="50.35783907931886" lon="4.058758027332938"><ele>138.33333333333334</ele><time>2026-04-30T13:48:59.999Z</time></trkpt><trkpt lat="50.357705070793926" lon="4.058924987517891"><ele>138.0</ele><time>2026-04-30T13:49:00.999Z</time></trkpt><trkpt lat="50.357575103313046" lon="4.059107033969876"><ele>138.0</ele><time>2026-04-30T13:49:01.999Z</time></trkpt><trkpt lat="50.35744660929464" lon="4.059303823614808"><ele>138.0</ele><time>2026-04-30T13:49:02.999Z</time></trkpt><trkpt lat="50.3573174210663" lon="4.059502267312984"><ele>138.0</ele><time>2026-04-30T13:49:03.999Z</time></trkpt><trkpt lat="50.35719541907034" lon="4.059686371034468"><ele>138.0</ele><time>2026-04-30T13:49:04.999Z</time></trkpt><trkpt lat="50.35707948617002" lon="4.059856282780025"><ele>138.0</ele><time>2026-04-30T13:49:05.999Z</time></trkpt><trkpt lat="50.35696489051845" lon="4.060020489696943"><ele>138.0</ele><time>2026-04-30T13:49:06.999Z</time></trkpt><trkpt lat="50.35685335044285" lon="4.060189643463532"><ele>138.5</ele><time>2026-04-30T13:49:07.999Z</time></trkpt><trkpt lat="50.35674312604291" lon="4.060353097547214"><ele>139.0</ele><time>2026-04-30T13:49:08.999Z</time></trkpt><trkpt lat="50.356634942239296" lon="4.060510011581012"><ele>139.5</ele><time>2026-04-30T13:49:10Z</time></trkpt><trkpt lat="50.3565265237321" lon="4.060660266786975"><ele>140.0</ele><time>2026-04-30T13:49:11Z</time></trkpt><trkpt lat="50.356421916620974" lon="4.060797927480629"><ele>140.5</ele><time>2026-04-30T13:49:12Z</time></trkpt><trkpt lat="50.3563222696637" lon="4.060929398953841"><ele>141.0</ele><time>2026-04-30T13:49:13Z</time></trkpt><trkpt lat="50.356225736572966" lon="4.061061479805178"><ele>141.5</ele><time>2026-04-30T13:49:14Z</time></trkpt><trkpt lat="50.35612757801051" lon="4.061188264472942"><ele>142.0</ele><time>2026-04-30T13:49:15Z</time></trkpt><trkpt lat="50.35602603489231" lon="4.061309610746558"><ele>142.0</ele><time>2026-04-30T13:49:16Z</time></trkpt><trkpt lat="50.35592748344251" lon="4.061428542959879"><ele>142.0</ele><time>2026-04-30T13:49:17Z</time></trkpt><trkpt lat="50.355829153514854" lon="4.061550491199562"><ele>142.0</ele><time>2026-04-30T13:49:18Z</time></trkpt><trkpt lat="50.355730255118786" lon="4.061668129638283"><ele>142.0</ele><time>2026-04-30T13:49:19Z</time></trkpt><trkpt lat="50.355624011048086" lon="4.061783358037932"><ele>142.75</ele><time>2026-04-30T13:49:20Z</time></trkpt><trkpt lat="50.35551535777916" lon="4.061894440865222"><ele>143.5</ele><time>2026-04-30T13:49:21Z</time></trkpt><trkpt lat="50.355402456439556" lon="4.062004982115252"><ele>144.25</ele><time>2026-04-30T13:49:22Z</time></trkpt><trkpt lat="50.35528726062701" lon="4.062111996404948"><ele>145.0</ele><time>2026-04-30T13:49:23Z</time></trkpt><trkpt lat="50.35517057613638" lon="4.062218761036157"><ele>145.0</ele><time>2026-04-30T13:49:24Z</time></trkpt><trkpt lat="50.3550522822794" lon="4.062328098752508"><ele>145.0</ele><time>2026-04-30T13:49:25Z</time></trkpt><trkpt lat="50.35493568267786" lon="4.062439281713094"><ele>145.0</ele><time>2026-04-30T13:49:26Z</time></trkpt><trkpt lat="50.35481072710453" lon="4.0625372375779705"><ele>145.0</ele><time>2026-04-30T13:49:27Z</time></trkpt><trkpt lat="50.3546899923428" lon="4.06268240248803"><ele>145.25</ele><time>2026-04-30T13:49:28Z</time></trkpt><trkpt lat="50.354568219077805" lon="4.062804481483169"><ele>145.5</ele><time>2026-04-30T13:49:29Z</time></trkpt><trkpt lat="50.35445193678676" lon="4.062921798160384"><ele>145.75</ele><time>2026-04-30T13:49:30Z</time></trkpt><trkpt lat="50.3543312179677" lon="4.063046765569091"><ele>146.0</ele><time>2026-04-30T13:49:31Z</time></trkpt><trkpt lat="50.35421121928893" lon="4.063181355523176"><ele>146.66666666666666</ele><time>2026-04-30T13:49:32Z</time></trkpt><trkpt lat="50.35408782759749" lon="4.063319138086334"><ele>147.33333333333334</ele><time>2026-04-30T13:49:33Z</time></trkpt><trkpt lat="50.3539596626428" lon="4.063455682812049"><ele>148.0</ele><time>2026-04-30T13:49:34Z</time></trkpt><trkpt lat="50.35382831929637" lon="4.063596668267649"><ele>148.0</ele><time>2026-04-30T13:49:35Z</time></trkpt><trkpt lat="50.35369540167535" lon="4.063742403593864"><ele>148.0</ele><time>2026-04-30T13:49:36Z</time></trkpt><trkpt lat="50.35355868845096" lon="4.063882940573191"><ele>148.0</ele><time>2026-04-30T13:49:37Z</time></trkpt><trkpt lat="50.35342681309463" lon="4.064032323067347"><ele>148.33333333333334</ele><time>2026-04-30T13:49:38Z</time></trkpt><trkpt lat="50.35328929320951" lon="4.064179666904158"><ele>148.66666666666666</ele><time>2026-04-30T13:49:39Z</time></trkpt><trkpt lat="50.35315599537177" lon="4.06432448288841"><ele>149.0</ele><time>2026-04-30T13:49:40Z</time></trkpt><trkpt lat="50.35302012271942" lon="4.064473791783532"><ele>149.0</ele><time>2026-04-30T13:49:41Z</time></trkpt><trkpt lat="50.35288730547777" lon="4.064621806459575"><ele>149.0</ele><time>2026-04-30T13:49:42Z</time></trkpt><trkpt lat="50.35274938003645" lon="4.064775378148665"><ele>149.0</ele><time>2026-04-30T13:49:43Z</time></trkpt><trkpt lat="50.352609506531486" lon="4.064929212006227"><ele>149.33333333333331</ele><time>2026-04-30T13:49:44Z</time></trkpt><trkpt lat="50.352464187481374" lon="4.065084476747339"><ele>149.66666666666666</ele><time>2026-04-30T13:49:45Z</time></trkpt><trkpt lat="50.35231461677074" lon="4.065242401176023"><ele>150.0</ele><time>2026-04-30T13:49:46Z</time></trkpt><trkpt lat="50.35216461360817" lon="4.065399078457778"><ele>150.0</ele><time>2026-04-30T13:49:47Z</time></trkpt><trkpt lat="50.352015308369616" lon="4.065556951266225"><ele>150.0</ele><time>2026-04-30T13:49:48Z</time></trkpt><trkpt lat="50.351869499437186" lon="4.065707278026933"><ele>150.0</ele><time>2026-04-30T13:49:49Z</time></trkpt><trkpt lat="50.351741601921965" lon="4.065848029034642"><ele>150.0</ele><time>2026-04-30T13:49:50Z</time></trkpt><trkpt lat="50.35161691108631" lon="4.065988406353486"><ele>150.0</ele><time>2026-04-30T13:49:51Z</time></trkpt><trkpt lat="50.35149343984894" lon="4.066144574283658"><ele>150.0</ele><time>2026-04-30T13:49:52Z</time></trkpt><trkpt lat="50.351374523142894" lon="4.066316599267534"><ele>149.33333333333334</ele><time>2026-04-30T13:49:53Z</time></trkpt><trkpt lat="50.35126046871076" lon="4.066505542752324"><ele>148.66666666666669</ele><time>2026-04-30T13:49:54Z</time></trkpt><trkpt lat="50.35114684606206" lon="4.066709440413818"><ele>148.0</ele><time>2026-04-30T13:49:55Z</time></trkpt><trkpt lat="50.351031840880964" lon="4.0669217678715635"><ele>148.0</ele><time>2026-04-30T13:49:56Z</time></trkpt><trkpt lat="50.350913330123724" lon="4.067131310231089"><ele>148.0</ele><time>2026-04-30T13:49:57Z</time></trkpt><trkpt lat="50.35079537385809" lon="4.067323703273239"><ele>148.0</ele><time>2026-04-30T13:49:58Z</time></trkpt><trkpt lat="50.350685109788145" lon="4.067521271381781"><ele>148.0</ele><time>2026-04-30T13:49:59Z</time></trkpt><trkpt lat="50.350573848630255" lon="4.067715162564682"><ele>148.0</ele><time>2026-04-30T13:50:00Z</time></trkpt><trkpt lat="50.35046565609068" lon="4.067912609875436"><ele>148.0</ele><time>2026-04-30T13:50:01Z</time></trkpt><trkpt lat="50.350353580382645" lon="4.068109382785172"><ele>147.33333333333334</ele><time>2026-04-30T13:50:02Z</time></trkpt><trkpt lat="50.35024222284985" lon="4.068306040982215"><ele>146.66666666666666</ele><time>2026-04-30T13:50:03Z</time></trkpt><trkpt lat="50.35012662268521" lon="4.068501884035343"><ele>146.0</ele><time>2026-04-30T13:50:04Z</time></trkpt><trkpt lat="50.35001351063045" lon="4.068711565889031"><ele>146.0</ele><time>2026-04-30T13:50:05Z</time></trkpt><trkpt lat="50.3498983764706" lon="4.068907721148701"><ele>146.0</ele><time>2026-04-30T13:50:06Z</time></trkpt><trkpt lat="50.34978779161798" lon="4.069108705806645"><ele>146.0</ele><time>2026-04-30T13:50:07Z</time></trkpt><trkpt lat="50.349671429707605" lon="4.06931044080787"><ele>145.66666666666666</ele><time>2026-04-30T13:50:08Z</time></trkpt><trkpt lat="50.34955452618653" lon="4.069513381400455"><ele>145.33333333333334</ele><time>2026-04-30T13:50:09Z</time></trkpt><trkpt lat="50.3494388100563" lon="4.069719468615547"><ele>145.0</ele><time>2026-04-30T13:50:10Z</time></trkpt><trkpt lat="50.34931936203366" lon="4.069931104852268"><ele>144.33333333333334</ele><time>2026-04-30T13:50:11Z</time></trkpt><trkpt lat="50.34919693024874" lon="4.070142359549385"><ele>143.66666666666666</ele><time>2026-04-30T13:50:12Z</time></trkpt><trkpt lat="50.349070702858945" lon="4.070370661839299"><ele>143.0</ele><time>2026-04-30T13:50:13Z</time></trkpt><trkpt lat="50.34894648591619" lon="4.0705924044119834"><ele>142.33333333333331</ele><time>2026-04-30T13:50:14Z</time></trkpt><trkpt lat="50.34882230066711" lon="4.070817361886267"><ele>141.66666666666666</ele><time>2026-04-30T13:50:15Z</time></trkpt><trkpt lat="50.348697158809074" lon="4.071031472058064"><ele>141.0</ele><time>2026-04-30T13:50:16Z</time></trkpt><trkpt lat="50.34859803301694" lon="4.071216915488853"><ele>141.0</ele><time>2026-04-30T13:50:17Z</time></trkpt><trkpt lat="50.34845946781075" lon="4.071455415138312"><ele>141.0</ele><time>2026-04-30T13:50:18Z</time></trkpt><trkpt lat="50.348339198046574" lon="4.071668795905995"><ele>141.0</ele><time>2026-04-30T13:50:19Z</time></trkpt><trkpt lat="50.348215883640755" lon="4.0718841234667735"><ele>140.66666666666666</ele><time>2026-04-30T13:50:20Z</time></trkpt><trkpt lat="50.34808870212529" lon="4.072106935232861"><ele>140.33333333333331</ele><time>2026-04-30T13:50:21Z</time></trkpt><trkpt lat="50.3479669501449" lon="4.072324742537114"><ele>140.0</ele><time>2026-04-30T13:50:21.999Z</time></trkpt><trkpt lat="50.347848953425505" lon="4.072529664215653"><ele>140.0</ele><time>2026-04-30T13:50:22.999Z</time></trkpt><trkpt lat="50.34773389439534" lon="4.072737090324549"><ele>140.0</ele><time>2026-04-30T13:50:23.999Z</time></trkpt><trkpt lat="50.347616147313104" lon="4.072947517043253"><ele>140.0</ele><time>2026-04-30T13:50:24.999Z</time></trkpt><trkpt lat="50.34749539355375" lon="4.073162415360403"><ele>140.33333333333331</ele><time>2026-04-30T13:50:25.999Z</time></trkpt><trkpt lat="50.347371076462316" lon="4.073380703393333"><ele>140.66666666666666</ele><time>2026-04-30T13:50:26.999Z</time></trkpt><trkpt lat="50.34724546926723" lon="4.073603446725048"><ele>141.0</ele><time>2026-04-30T13:50:27.999Z</time></trkpt><trkpt lat="50.34712170695849" lon="4.073821304970552"><ele>141.66666666666666</ele><time>2026-04-30T13:50:28.999Z</time></trkpt><trkpt lat="50.34700323452074" lon="4.074029783336901"><ele>142.33333333333331</ele><time>2026-04-30T13:50:29.999Z</time></trkpt><trkpt lat="50.3468857656264" lon="4.074233942190702"><ele>143.0</ele><time>2026-04-30T13:50:30.999Z</time></trkpt><trkpt lat="50.34676828377069" lon="4.074443690175142"><ele>143.33333333333331</ele><time>2026-04-30T13:50:31.999Z</time></trkpt><trkpt lat="50.34664841289982" lon="4.074655257132665"><ele>143.66666666666666</ele><time>2026-04-30T13:50:32.999Z</time></trkpt><trkpt lat="50.34652545309807" lon="4.07486814457663"><ele>144.0</ele><time>2026-04-30T13:50:33.999Z</time></trkpt><trkpt lat="50.346402864439284" lon="4.075087871239961"><ele>143.33333333333334</ele><time>2026-04-30T13:50:34.999Z</time></trkpt><trkpt lat="50.3462748547591" lon="4.075312302928063"><ele>142.66666666666669</ele><time>2026-04-30T13:50:35.999Z</time></trkpt><trkpt lat="50.346142803487076" lon="4.075551472855642"><ele>142.0</ele><time>2026-04-30T13:50:36.999Z</time></trkpt><trkpt lat="50.34600450618422" lon="4.075806771724416"><ele>141.66666666666669</ele><time>2026-04-30T13:50:37.999Z</time></trkpt><trkpt lat="50.34585641811536" lon="4.076066682984017"><ele>141.33333333333334</ele><time>2026-04-30T13:50:38.999Z</time></trkpt><trkpt lat="50.34571277720398" lon="4.076321240709378"><ele>141.0</ele><time>2026-04-30T13:50:39.999Z</time></trkpt><trkpt lat="50.34557855697104" lon="4.076551128979902"><ele>140.33333333333334</ele><time>2026-04-30T13:50:40.999Z</time></trkpt><trkpt lat="50.34545230614691" lon="4.076766564473276"><ele>139.66666666666669</ele><time>2026-04-30T13:50:41.999Z</time></trkpt><trkpt lat="50.34532832708871" lon="4.0769879675230465"><ele>139.0</ele><time>2026-04-30T13:50:42.999Z</time></trkpt><trkpt lat="50.3452007882563" lon="4.077214645016773"><ele>138.33333333333334</ele><time>2026-04-30T13:50:43.999Z</time></trkpt><trkpt lat="50.345067972605285" lon="4.077447329969302"><ele>137.66666666666666</ele><time>2026-04-30T13:50:44.999Z</time></trkpt><trkpt lat="50.344931707867396" lon="4.077683707350068"><ele>137.0</ele><time>2026-04-30T13:50:45.999Z</time></trkpt><trkpt lat="50.34479560572937" lon="4.077924372312906"><ele>136.66666666666666</ele><time>2026-04-30T13:50:46.999Z</time></trkpt><trkpt lat="50.34466605199695" lon="4.078152584031653"><ele>136.33333333333334</ele><time>2026-04-30T13:50:47.999Z</time></trkpt><trkpt lat="50.344541818880444" lon="4.078375671347442"><ele>136.0</ele><time>2026-04-30T13:50:48.999Z</time></trkpt><trkpt lat="50.34441609121113" lon="4.078598257504923"><ele>136.0</ele><time>2026-04-30T13:50:49.999Z</time></trkpt><trkpt lat="50.34428765362189" lon="4.078821181305076"><ele>136.0</ele><time>2026-04-30T13:50:50.999Z</time></trkpt><trkpt lat="50.34415672405923" lon="4.079047046915225"><ele>136.0</ele><time>2026-04-30T13:50:51.999Z</time></trkpt><trkpt lat="50.34402486705481" lon="4.079280807195495"><ele>136.33333333333334</ele><time>2026-04-30T13:50:52.999Z</time></trkpt><trkpt lat="50.34389158261668" lon="4.079518717707863"><ele>136.66666666666666</ele><time>2026-04-30T13:50:53.999Z</time></trkpt><trkpt lat="50.34375929633051" lon="4.079759569987866"><ele>137.0</ele><time>2026-04-30T13:50:54.999Z</time></trkpt><trkpt lat="50.34362284374326" lon="4.080002748267988"><ele>137.0</ele><time>2026-04-30T13:50:55.999Z</time></trkpt><trkpt lat="50.343488366225984" lon="4.080237951500281"><ele>137.0</ele><time>2026-04-30T13:50:56.999Z</time></trkpt><trkpt lat="50.34335927819099" lon="4.080468750118896"><ele>137.0</ele><time>2026-04-30T13:50:57.999Z</time></trkpt><trkpt lat="50.34323310991053" lon="4.080689689894488"><ele>137.66666666666666</ele><time>2026-04-30T13:50:58.999Z</time></trkpt><trkpt lat="50.343109967256844" lon="4.080907608537891"><ele>138.33333333333334</ele><time>2026-04-30T13:50:59.999Z</time></trkpt><trkpt lat="50.342995316142385" lon="4.081118846664045"><ele>139.0</ele><time>2026-04-30T13:51:00.999Z</time></trkpt><trkpt lat="50.34287471554131" lon="4.081322783521582"><ele>139.0</ele><time>2026-04-30T13:51:01.999Z</time></trkpt><trkpt lat="50.342755772790916" lon="4.0815239101752026"><ele>139.0</ele><time>2026-04-30T13:51:02.999Z</time></trkpt><trkpt lat="50.342642854471805" lon="4.081732792494164"><ele>139.0</ele><time>2026-04-30T13:51:03.999Z</time></trkpt><trkpt lat="50.34252818895749" lon="4.0819363490421425"><ele>139.0</ele><time>2026-04-30T13:51:04.999Z</time></trkpt><trkpt lat="50.34241229784793" lon="4.082136414799144"><ele>139.0</ele><time>2026-04-30T13:51:05.999Z</time></trkpt><trkpt lat="50.342299554560796" lon="4.082338000696533"><ele>139.0</ele><time>2026-04-30T13:51:06.999Z</time></trkpt><trkpt lat="50.34218292039036" lon="4.082540489795805"><ele>139.33333333333334</ele><time>2026-04-30T13:51:07.999Z</time></trkpt><trkpt lat="50.34206818837577" lon="4.082742674294044"><ele>139.66666666666666</ele><time>2026-04-30T13:51:08.999Z</time></trkpt><trkpt lat="50.34195093909264" lon="4.082945426433573"><ele>140.0</ele><time>2026-04-30T13:51:09.999Z</time></trkpt><trkpt lat="50.341829141889285" lon="4.083144292530178"><ele>140.0</ele><time>2026-04-30T13:51:10.999Z</time></trkpt><trkpt lat="50.34171528535927" lon="4.0833542476439915"><ele>140.0</ele><time>2026-04-30T13:51:11.999Z</time></trkpt><trkpt lat="50.34159625654487" lon="4.083561348449476"><ele>140.0</ele><time>2026-04-30T13:51:12.999Z</time></trkpt><trkpt lat="50.34148059139827" lon="4.083765769709174"><ele>138.66666666666666</ele><time>2026-04-30T13:51:13.999Z</time></trkpt><trkpt lat="50.34136421988664" lon="4.083970717365652"><ele>137.33333333333334</ele><time>2026-04-30T13:51:14.999Z</time></trkpt><trkpt lat="50.34125068639399" lon="4.084172014149541"><ele>136.0</ele><time>2026-04-30T13:51:16Z</time></trkpt><trkpt lat="50.341136306226794" lon="4.084377969376226"><ele>136.0</ele><time>2026-04-30T13:51:17Z</time></trkpt><trkpt lat="50.34102220499011" lon="4.084585176727733"><ele>136.0</ele><time>2026-04-30T13:51:18Z</time></trkpt><trkpt lat="50.340907708585014" lon="4.084797411146424"><ele>136.0</ele><time>2026-04-30T13:51:19Z</time></trkpt><trkpt lat="50.34079061705484" lon="4.08501035991933"><ele>135.66666666666669</ele><time>2026-04-30T13:51:20Z</time></trkpt><trkpt lat="50.34067117089938" lon="4.0852251236720925"><ele>135.33333333333334</ele><time>2026-04-30T13:51:21Z</time></trkpt><trkpt lat="50.34055138355428" lon="4.085438596817897"><ele>135.0</ele><time>2026-04-30T13:51:22Z</time></trkpt><trkpt lat="50.34042838552726" lon="4.085650077289269"><ele>134.66666666666666</ele><time>2026-04-30T13:51:23Z</time></trkpt><trkpt lat="50.34030600884157" lon="4.085862226103531"><ele>134.33333333333331</ele><time>2026-04-30T13:51:24Z</time></trkpt><trkpt lat="50.34018088656444" lon="4.086084072675282"><ele>134.0</ele><time>2026-04-30T13:51:25Z</time></trkpt><trkpt lat="50.340056721423146" lon="4.086308180951673"><ele>134.0</ele><time>2026-04-30T13:51:26Z</time></trkpt><trkpt lat="50.33993127356423" lon="4.086534150165199"><ele>134.0</ele><time>2026-04-30T13:51:27Z</time></trkpt><trkpt lat="50.33980199116204" lon="4.086767005852579"><ele>134.0</ele><time>2026-04-30T13:51:28Z</time></trkpt><trkpt lat="50.33967544898338" lon="4.087000576681612"><ele>134.66666666666666</ele><time>2026-04-30T13:51:29Z</time></trkpt><trkpt lat="50.33954742576307" lon="4.087213364180521"><ele>135.33333333333334</ele><time>2026-04-30T13:51:30Z</time></trkpt><trkpt lat="50.33941658820157" lon="4.087430621546218"><ele>136.0</ele><time>2026-04-30T13:51:31Z</time></trkpt><trkpt lat="50.33928978470975" lon="4.087653445237852"><ele>136.33333333333334</ele><time>2026-04-30T13:51:32Z</time></trkpt><trkpt lat="50.33916326539441" lon="4.087874140817293"><ele>136.66666666666666</ele><time>2026-04-30T13:51:33Z</time></trkpt><trkpt lat="50.33903858097329" lon="4.088092744751001"><ele>137.0</ele><time>2026-04-30T13:51:34Z</time></trkpt><trkpt lat="50.338915777831" lon="4.088313167965487"><ele>138.0</ele><time>2026-04-30T13:51:35Z</time></trkpt><trkpt lat="50.33879760524393" lon="4.088525415448"><ele>139.0</ele><time>2026-04-30T13:51:36Z</time></trkpt><trkpt lat="50.33868111035535" lon="4.088730756416716"><ele>140.0</ele><time>2026-04-30T13:51:37Z</time></trkpt><trkpt lat="50.3385646048945" lon="4.088928579130087"><ele>141.0</ele><time>2026-04-30T13:51:38Z</time></trkpt><trkpt lat="50.33845036978126" lon="4.0891181512975825"><ele>142.0</ele><time>2026-04-30T13:51:39Z</time></trkpt><trkpt lat="50.33833719015673" lon="4.089307712833095"><ele>143.0</ele><time>2026-04-30T13:51:40Z</time></trkpt><trkpt lat="50.338225135551106" lon="4.089494137818233"><ele>143.0</ele><time>2026-04-30T13:51:41Z</time></trkpt><trkpt lat="50.33811905563965" lon="4.089679566097557"><ele>143.0</ele><time>2026-04-30T13:51:42Z</time></trkpt><trkpt lat="50.33801012071552" lon="4.08987678167212"><ele>143.0</ele><time>2026-04-30T13:51:43Z</time></trkpt><trkpt lat="50.3378964345019" lon="4.0900861893562155"><ele>143.0</ele><time>2026-04-30T13:51:44Z</time></trkpt><trkpt lat="50.33777117217839" lon="4.090315629280576"><ele>143.0</ele><time>2026-04-30T13:51:45Z</time></trkpt><trkpt lat="50.33764214444467" lon="4.09055039610461"><ele>143.0</ele><time>2026-04-30T13:51:46Z</time></trkpt><trkpt lat="50.33751437331526" lon="4.090783906281305"><ele>143.0</ele><time>2026-04-30T13:51:47Z</time></trkpt><trkpt lat="50.33738793673288" lon="4.091010477334887"><ele>143.0</ele><time>2026-04-30T13:51:48Z</time></trkpt><trkpt lat="50.337261734795746" lon="4.0912333450346985"><ele>143.0</ele><time>2026-04-30T13:51:49Z</time></trkpt><trkpt lat="50.337133355841196" lon="4.091453226278269"><ele>144.0</ele><time>2026-04-30T13:51:50Z</time></trkpt><trkpt lat="50.3370120794677" lon="4.091661691625447"><ele>145.0</ele><time>2026-04-30T13:51:51Z</time></trkpt><trkpt lat="50.336893461299766" lon="4.091862262802078"><ele>146.0</ele><time>2026-04-30T13:51:52Z</time></trkpt><trkpt lat="50.336780627023835" lon="4.092057641922061"><ele>146.0</ele><time>2026-04-30T13:51:53Z</time></trkpt><trkpt lat="50.336670575401214" lon="4.092259663728407"><ele>146.0</ele><time>2026-04-30T13:51:54Z</time></trkpt><trkpt lat="50.33656306641364" lon="4.092464078118028"><ele>146.0</ele><time>2026-04-30T13:51:55Z</time></trkpt><trkpt lat="50.336446998154564" lon="4.092669621523371"><ele>144.66666666666666</ele><time>2026-04-30T13:51:56Z</time></trkpt><trkpt lat="50.33633218930144" lon="4.0928699892047655"><ele>143.33333333333334</ele><time>2026-04-30T13:51:57Z</time></trkpt><trkpt lat="50.33622258633376" lon="4.093058735067214"><ele>142.0</ele><time>2026-04-30T13:51:58Z</time></trkpt><trkpt lat="50.33612045201178" lon="4.093233374040629"><ele>142.66666666666669</ele><time>2026-04-30T13:51:59Z</time></trkpt><trkpt lat="50.336019027149575" lon="4.093413624814471"><ele>143.33333333333334</ele><time>2026-04-30T13:52:00Z</time></trkpt><trkpt lat="50.33591340859008" lon="4.093598398060886"><ele>144.0</ele><time>2026-04-30T13:52:01Z</time></trkpt><trkpt lat="50.33580674992338" lon="4.0937910948490925"><ele>144.0</ele><time>2026-04-30T13:52:02Z</time></trkpt><trkpt lat="50.33570155941697" lon="4.0939779344972544"><ele>144.0</ele><time>2026-04-30T13:52:03Z</time></trkpt><trkpt lat="50.33559465121087" lon="4.094170235761038"><ele>144.0</ele><time>2026-04-30T13:52:04Z</time></trkpt><trkpt lat="50.335489422662484" lon="4.094360297181962"><ele>143.33333333333334</ele><time>2026-04-30T13:52:05Z</time></trkpt><trkpt lat="50.335384115586514" lon="4.094544702474944"><ele>142.66666666666669</ele><time>2026-04-30T13:52:06Z</time></trkpt><trkpt lat="50.33528044491161" lon="4.094726824421343"><ele>142.0</ele><time>2026-04-30T13:52:07Z</time></trkpt><trkpt lat="50.335173163012975" lon="4.0949108604040925"><ele>141.66666666666669</ele><time>2026-04-30T13:52:08Z</time></trkpt><trkpt lat="50.335065878212916" lon="4.0950992566212605"><ele>141.33333333333334</ele><time>2026-04-30T13:52:09Z</time></trkpt><trkpt lat="50.334957114596335" lon="4.0952914008041255"><ele>141.0</ele><time>2026-04-30T13:52:10Z</time></trkpt><trkpt lat="50.334845481175044" lon="4.095493993958547"><ele>141.0</ele><time>2026-04-30T13:52:11Z</time></trkpt><trkpt lat="50.334731728824366" lon="4.095698165706557"><ele>141.0</ele><time>2026-04-30T13:52:12Z</time></trkpt><trkpt lat="50.33461701554395" lon="4.095899139988394"><ele>141.0</ele><time>2026-04-30T13:52:13Z</time></trkpt><trkpt lat="50.334499542021625" lon="4.096100257015745"><ele>140.33333333333334</ele><time>2026-04-30T13:52:14Z</time></trkpt><trkpt lat="50.33438405117431" lon="4.096302151029496"><ele>139.66666666666669</ele><time>2026-04-30T13:52:15Z</time></trkpt><trkpt lat="50.334271684661786" lon="4.096504364735835"><ele>139.0</ele><time>2026-04-30T13:52:16Z</time></trkpt><trkpt lat="50.33415874990643" lon="4.0967028685988485"><ele>139.0</ele><time>2026-04-30T13:52:17Z</time></trkpt><trkpt lat="50.3340457358599" lon="4.096905366998926"><ele>139.0</ele><time>2026-04-30T13:52:18Z</time></trkpt><trkpt lat="50.33392731059586" lon="4.097113708745942"><ele>139.0</ele><time>2026-04-30T13:52:19Z</time></trkpt><trkpt lat="50.333811138107336" lon="4.09732335251281"><ele>139.66666666666669</ele><time>2026-04-30T13:52:20Z</time></trkpt><trkpt lat="50.33369460248187" lon="4.097529810617889"><ele>140.33333333333334</ele><time>2026-04-30T13:52:21Z</time></trkpt><trkpt lat="50.333577914902435" lon="4.097728137737098"><ele>141.0</ele><time>2026-04-30T13:52:22Z</time></trkpt><trkpt lat="50.33346232958258" lon="4.0979268702430645"><ele>141.0</ele><time>2026-04-30T13:52:23Z</time></trkpt><trkpt lat="50.33334662823049" lon="4.098130526368925"><ele>141.0</ele><time>2026-04-30T13:52:24Z</time></trkpt><trkpt lat="50.333234020672336" lon="4.098337548673004"><ele>141.0</ele><time>2026-04-30T13:52:25Z</time></trkpt><trkpt lat="50.333115985888185" lon="4.0985435633359275"><ele>141.33333333333334</ele><time>2026-04-30T13:52:26Z</time></trkpt><trkpt lat="50.332997168914844" lon="4.098750582962378"><ele>141.66666666666669</ele><time>2026-04-30T13:52:27Z</time></trkpt><trkpt lat="50.33287896248254" lon="4.098959709631166"><ele>142.0</ele><time>2026-04-30T13:52:28Z</time></trkpt><trkpt lat="50.33275841904092" lon="4.09917427488503"><ele>144.0</ele><time>2026-04-30T13:52:29Z</time></trkpt><trkpt lat="50.33263727411712" lon="4.099394001197815"><ele>146.0</ele><time>2026-04-30T13:52:30Z</time></trkpt><trkpt lat="50.33251345607316" lon="4.099619843424297"><ele>148.0</ele><time>2026-04-30T13:52:31Z</time></trkpt><trkpt lat="50.33238772164418" lon="4.099857002942348"><ele>148.0</ele><time>2026-04-30T13:52:32Z</time></trkpt><trkpt lat="50.332263885949615" lon="4.100044700982469"><ele>148.0</ele><time>2026-04-30T13:52:33Z</time></trkpt><trkpt lat="50.33214667608174" lon="4.100255350932839"><ele>148.0</ele><time>2026-04-30T13:52:34Z</time></trkpt><trkpt lat="50.33203084542051" lon="4.100456227959737"><ele>148.0</ele><time>2026-04-30T13:52:35Z</time></trkpt><trkpt lat="50.331919572899146" lon="4.10066099592924"><ele>148.0</ele><time>2026-04-30T13:52:36Z</time></trkpt><trkpt lat="50.33181335378787" lon="4.100858623056308"><ele>148.0</ele><time>2026-04-30T13:52:36.999Z</time></trkpt><trkpt lat="50.331705087988695" lon="4.101044729539289"><ele>148.33333333333334</ele><time>2026-04-30T13:52:37.999Z</time></trkpt><trkpt lat="50.33160192822723" lon="4.1012488275896875"><ele>148.66666666666666</ele><time>2026-04-30T13:52:38.999Z</time></trkpt><trkpt lat="50.331487495209004" lon="4.10144116667596"><ele>149.0</ele><time>2026-04-30T13:52:39.999Z</time></trkpt><trkpt lat="50.33136969713541" lon="4.101638708910464"><ele>149.0</ele><time>2026-04-30T13:52:40.999Z</time></trkpt><trkpt lat="50.331258070653995" lon="4.101839756753891"><ele>149.0</ele><time>2026-04-30T13:52:41.999Z</time></trkpt><trkpt lat="50.33114358076083" lon="4.10204061620603"><ele>149.0</ele><time>2026-04-30T13:52:42.999Z</time></trkpt><trkpt lat="50.331031163784054" lon="4.102243235052514"><ele>149.66666666666666</ele><time>2026-04-30T13:52:43.999Z</time></trkpt><trkpt lat="50.330917697728545" lon="4.102443387628171"><ele>150.33333333333334</ele><time>2026-04-30T13:52:44.999Z</time></trkpt><trkpt lat="50.330802486324075" lon="4.102638211281399"><ele>151.0</ele><time>2026-04-30T13:52:45.999Z</time></trkpt><trkpt lat="50.3306819601835" lon="4.102841831603342"><ele>151.0</ele><time>2026-04-30T13:52:46.999Z</time></trkpt><trkpt lat="50.33056159075819" lon="4.103050302748094"><ele>151.0</ele><time>2026-04-30T13:52:47.999Z</time></trkpt><trkpt lat="50.33044380003019" lon="4.103259368570438"><ele>151.0</ele><time>2026-04-30T13:52:48.999Z</time></trkpt><trkpt lat="50.33033492195621" lon="4.1034489157972835"><ele>150.0</ele><time>2026-04-30T13:52:49.999Z</time></trkpt><trkpt lat="50.330228312414526" lon="4.10364136111017"><ele>149.0</ele><time>2026-04-30T13:52:50.999Z</time></trkpt><trkpt lat="50.330116835259034" lon="4.103843123561847"><ele>148.0</ele><time>2026-04-30T13:52:51.999Z</time></trkpt><trkpt lat="50.32999850421239" lon="4.1040401940275535"><ele>148.0</ele><time>2026-04-30T13:52:52.999Z</time></trkpt><trkpt lat="50.329882544140865" lon="4.10424612978902"><ele>148.0</ele><time>2026-04-30T13:52:53.999Z</time></trkpt><trkpt lat="50.32976016445758" lon="4.104465253393937"><ele>148.0</ele><time>2026-04-30T13:52:54.999Z</time></trkpt><trkpt lat="50.32963556147955" lon="4.104671166461202"><ele>147.0</ele><time>2026-04-30T13:52:55.999Z</time></trkpt><trkpt lat="50.32951942247568" lon="4.104881959030049"><ele>146.0</ele><time>2026-04-30T13:52:56.999Z</time></trkpt><trkpt lat="50.329397052963074" lon="4.105095175385953"><ele>145.0</ele><time>2026-04-30T13:52:57.999Z</time></trkpt><trkpt lat="50.32927321510637" lon="4.105315425855933"><ele>145.0</ele><time>2026-04-30T13:52:58.999Z</time></trkpt><trkpt lat="50.32914174759133" lon="4.105543511813352"><ele>145.0</ele><time>2026-04-30T13:52:59.999Z</time></trkpt><trkpt lat="50.32901116198567" lon="4.105775597167166"><ele>145.0</ele><time>2026-04-30T13:53:00.999Z</time></trkpt><trkpt lat="50.32888645299974" lon="4.10599408496307"><ele>146.66666666666669</ele><time>2026-04-30T13:53:01.999Z</time></trkpt><trkpt lat="50.328769205586525" lon="4.106206964857851"><ele>148.33333333333334</ele><time>2026-04-30T13:53:02.999Z</time></trkpt><trkpt lat="50.328652194161016" lon="4.106411700095992"><ele>150.0</ele><time>2026-04-30T13:53:03.999Z</time></trkpt><trkpt lat="50.32853447164738" lon="4.106613794041867"><ele>150.33333333333334</ele><time>2026-04-30T13:53:04.999Z</time></trkpt><trkpt lat="50.32842111531568" lon="4.106815500223396"><ele>150.66666666666669</ele><time>2026-04-30T13:53:05.999Z</time></trkpt><trkpt lat="50.32830729478024" lon="4.107019401470459"><ele>151.0</ele><time>2026-04-30T13:53:06.999Z</time></trkpt><trkpt lat="50.32819502881926" lon="4.107225490152504"><ele>151.33333333333334</ele><time>2026-04-30T13:53:07.999Z</time></trkpt><trkpt lat="50.328081232583294" lon="4.107431563644781"><ele>151.66666666666666</ele><time>2026-04-30T13:53:08.999Z</time></trkpt><trkpt lat="50.32796622673398" lon="4.107633925439618"><ele>152.0</ele><time>2026-04-30T13:53:09.999Z</time></trkpt><trkpt lat="50.32784758975584" lon="4.107840643268086"><ele>151.66666666666666</ele><time>2026-04-30T13:53:10.999Z</time></trkpt><trkpt lat="50.32772481614594" lon="4.10804884299629"><ele>151.33333333333334</ele><time>2026-04-30T13:53:11.999Z</time></trkpt><trkpt lat="50.32760083781818" lon="4.108266910573845"><ele>151.0</ele><time>2026-04-30T13:53:12.999Z</time></trkpt><trkpt lat="50.32747755843763" lon="4.108488461424191"><ele>151.0</ele><time>2026-04-30T13:53:13.999Z</time></trkpt><trkpt lat="50.3273497050776" lon="4.108719047832067"><ele>151.0</ele><time>2026-04-30T13:53:14.999Z</time></trkpt><trkpt lat="50.327216307682484" lon="4.108951377924983"><ele>151.0</ele><time>2026-04-30T13:53:15.999Z</time></trkpt><trkpt lat="50.32706475013594" lon="4.109186045476525"><ele>150.66666666666669</ele><time>2026-04-30T13:53:16.999Z</time></trkpt><trkpt lat="50.326930542260534" lon="4.109444682986757"><ele>150.33333333333334</ele><time>2026-04-30T13:53:17.999Z</time></trkpt><trkpt lat="50.326792987546675" lon="4.1096783244900905"><ele>150.0</ele><time>2026-04-30T13:53:18.999Z</time></trkpt><trkpt lat="50.32666020676859" lon="4.109907545896918"><ele>151.0</ele><time>2026-04-30T13:53:19.999Z</time></trkpt><trkpt lat="50.32654258602051" lon="4.110119986277917"><ele>152.0</ele><time>2026-04-30T13:53:20.999Z</time></trkpt><trkpt lat="50.3264266848421" lon="4.110318106039412"><ele>153.0</ele><time>2026-04-30T13:53:22Z</time></trkpt><trkpt lat="50.326310044511196" lon="4.110531566441383"><ele>153.33333333333334</ele><time>2026-04-30T13:53:23Z</time></trkpt><trkpt lat="50.32618945794876" lon="4.11075059972448"><ele>153.66666666666669</ele><time>2026-04-30T13:53:24Z</time></trkpt><trkpt lat="50.326064891577914" lon="4.110967646952408"><ele>154.0</ele><time>2026-04-30T13:53:25Z</time></trkpt><trkpt lat="50.325932788082696" lon="4.111190894514166"><ele>154.0</ele><time>2026-04-30T13:53:26Z</time></trkpt><trkpt lat="50.325800218058674" lon="4.111415457103002"><ele>154.0</ele><time>2026-04-30T13:53:27Z</time></trkpt><trkpt lat="50.32567117659993" lon="4.1116425235105005"><ele>154.0</ele><time>2026-04-30T13:53:28Z</time></trkpt><trkpt lat="50.32555168336714" lon="4.111860549906001"><ele>154.0</ele><time>2026-04-30T13:53:29Z</time></trkpt><trkpt lat="50.3254361089667" lon="4.112068325917009"><ele>154.0</ele><time>2026-04-30T13:53:30Z</time></trkpt><trkpt lat="50.32532167550623" lon="4.112271831726842"><ele>154.0</ele><time>2026-04-30T13:53:31Z</time></trkpt><trkpt lat="50.32520731862737" lon="4.11247573928042"><ele>153.33333333333334</ele><time>2026-04-30T13:53:32Z</time></trkpt><trkpt lat="50.32509413014009" lon="4.112674343066298"><ele>152.66666666666666</ele><time>2026-04-30T13:53:33Z</time></trkpt><trkpt lat="50.32498065406392" lon="4.112866236604465"><ele>152.0</ele><time>2026-04-30T13:53:34Z</time></trkpt><trkpt lat="50.32486895044793" lon="4.113058801093652"><ele>152.0</ele><time>2026-04-30T13:53:35Z</time></trkpt><trkpt lat="50.32475882136859" lon="4.11325324052641"><ele>152.0</ele><time>2026-04-30T13:53:36Z</time></trkpt><trkpt lat="50.32464577131972" lon="4.113448738540083"><ele>152.0</ele><time>2026-04-30T13:53:37Z</time></trkpt><trkpt lat="50.3245334782359" lon="4.1136456366819685"><ele>151.33333333333331</ele><time>2026-04-30T13:53:38Z</time></trkpt><trkpt lat="50.32442162065264" lon="4.113846580206338"><ele>150.66666666666666</ele><time>2026-04-30T13:53:39Z</time></trkpt><trkpt lat="50.324306148713454" lon="4.11405317627314"><ele>150.0</ele><time>2026-04-30T13:53:40Z</time></trkpt><trkpt lat="50.32418545253657" lon="4.114262837080036"><ele>150.0</ele><time>2026-04-30T13:53:41Z</time></trkpt><trkpt lat="50.32406128552973" lon="4.114476202883404"><ele>150.0</ele><time>2026-04-30T13:53:42Z</time></trkpt><trkpt lat="50.32393045490236" lon="4.11470797660727"><ele>150.0</ele><time>2026-04-30T13:53:43Z</time></trkpt><trkpt lat="50.32379378999809" lon="4.114955610023914"><ele>148.66666666666666</ele><time>2026-04-30T13:53:44Z</time></trkpt><trkpt lat="50.32364794209965" lon="4.115216306739361"><ele>147.33333333333331</ele><time>2026-04-30T13:53:45Z</time></trkpt><trkpt lat="50.32349909218066" lon="4.115476505675564"><ele>146.0</ele><time>2026-04-30T13:53:46Z</time></trkpt><trkpt lat="50.32335271092465" lon="4.115735097290766"><ele>146.0</ele><time>2026-04-30T13:53:47Z</time></trkpt><trkpt lat="50.32321653208787" lon="4.115979758762879"><ele>146.0</ele><time>2026-04-30T13:53:48Z</time></trkpt><trkpt lat="50.32308709002665" lon="4.116203373018219"><ele>146.0</ele><time>2026-04-30T13:53:49Z</time></trkpt><trkpt lat="50.322964195926026" lon="4.1164150063356795"><ele>145.0</ele><time>2026-04-30T13:53:50Z</time></trkpt><trkpt lat="50.32285019513382" lon="4.1166201424251"><ele>144.0</ele><time>2026-04-30T13:53:51Z</time></trkpt><trkpt lat="50.32273525511107" lon="4.11682876169696"><ele>143.0</ele><time>2026-04-30T13:53:52Z</time></trkpt><trkpt lat="50.322625665444306" lon="4.1170341332194"><ele>143.0</ele><time>2026-04-30T13:53:53Z</time></trkpt><trkpt lat="50.32251123866843" lon="4.117236579141489"><ele>143.0</ele><time>2026-04-30T13:53:54Z</time></trkpt><trkpt lat="50.32239348171928" lon="4.117437206183276"><ele>143.0</ele><time>2026-04-30T13:53:55Z</time></trkpt><trkpt lat="50.3222740177254" lon="4.117641982907203"><ele>143.0</ele><time>2026-04-30T13:53:56Z</time></trkpt><trkpt lat="50.32215792821244" lon="4.117835240995122"><ele>143.0</ele><time>2026-04-30T13:53:57Z</time></trkpt><trkpt lat="50.32204997748406" lon="4.1180226145116885"><ele>143.0</ele><time>2026-04-30T13:53:58Z</time></trkpt><trkpt lat="50.321941963435634" lon="4.118205611056277"><ele>142.66666666666666</ele><time>2026-04-30T13:53:59Z</time></trkpt><trkpt lat="50.32183997646877" lon="4.118382630763446"><ele>142.33333333333334</ele><time>2026-04-30T13:54:00Z</time></trkpt><trkpt lat="50.321735082274735" lon="4.118568177897861"><ele>142.0</ele><time>2026-04-30T13:54:01Z</time></trkpt><trkpt lat="50.321630693074006" lon="4.1187634130023065"><ele>142.0</ele><time>2026-04-30T13:54:02Z</time></trkpt><trkpt lat="50.321525919420786" lon="4.118957414298706"><ele>142.0</ele><time>2026-04-30T13:54:03Z</time></trkpt><trkpt lat="50.321413327406326" lon="4.11915622017508"><ele>142.0</ele><time>2026-04-30T13:54:04Z</time></trkpt><trkpt lat="50.3213021042194" lon="4.119345285881939"><ele>141.0</ele><time>2026-04-30T13:54:05Z</time></trkpt><trkpt lat="50.32119778908885" lon="4.1195365966875315"><ele>140.0</ele><time>2026-04-30T13:54:06Z</time></trkpt><trkpt lat="50.32109347537774" lon="4.119720951162437"><ele>139.0</ele><time>2026-04-30T13:54:07Z</time></trkpt><trkpt lat="50.32099126543079" lon="4.1198900281920565"><ele>139.25</ele><time>2026-04-30T13:54:08Z</time></trkpt><trkpt lat="50.320896387410144" lon="4.120054400382345"><ele>139.5</ele><time>2026-04-30T13:54:09Z</time></trkpt><trkpt lat="50.32080639368864" lon="4.1202101349548315"><ele>139.75</ele><time>2026-04-30T13:54:10Z</time></trkpt><trkpt lat="50.32071422609889" lon="4.120371193270998"><ele>140.0</ele><time>2026-04-30T13:54:11Z</time></trkpt><trkpt lat="50.32062164988442" lon="4.120535935875934"><ele>139.75</ele><time>2026-04-30T13:54:12Z</time></trkpt><trkpt lat="50.32053129667324" lon="4.120693103726679"><ele>139.5</ele><time>2026-04-30T13:54:13Z</time></trkpt><trkpt lat="50.320440926340105" lon="4.120851695366007"><ele>139.25</ele><time>2026-04-30T13:54:14Z</time></trkpt><trkpt lat="50.320356368494544" lon="4.121014754960123"><ele>139.0</ele><time>2026-04-30T13:54:15Z</time></trkpt><trkpt lat="50.320276592184484" lon="4.121152351087238"><ele>139.25</ele><time>2026-04-30T13:54:16Z</time></trkpt><trkpt lat="50.32019805272667" lon="4.121283363236851"><ele>139.5</ele><time>2026-04-30T13:54:17Z</time></trkpt><trkpt lat="50.32010834481199" lon="4.121443586883287"><ele>139.75</ele><time>2026-04-30T13:54:18Z</time></trkpt><trkpt lat="50.320010394025886" lon="4.121622050960274"><ele>140.0</ele><time>2026-04-30T13:54:18.999Z</time></trkpt><trkpt lat="50.31990247099291" lon="4.121816458969862"><ele>140.0</ele><time>2026-04-30T13:54:19.999Z</time></trkpt><trkpt lat="50.31978667792729" lon="4.12201827596136"><ele>140.0</ele><time>2026-04-30T13:54:20.999Z</time></trkpt><trkpt lat="50.319662668259184" lon="4.122228924987275"><ele>140.0</ele><time>2026-04-30T13:54:21.999Z</time></trkpt><trkpt lat="50.31953541981054" lon="4.122450604509948"><ele>140.0</ele><time>2026-04-30T13:54:22.999Z</time></trkpt><trkpt lat="50.31940722048078" lon="4.122675659952867"><ele>140.0</ele><time>2026-04-30T13:54:23.999Z</time></trkpt><trkpt lat="50.319279997568266" lon="4.122901263828068"><ele>140.0</ele><time>2026-04-30T13:54:24.999Z</time></trkpt><trkpt lat="50.31915566995216" lon="4.123120729857908"><ele>140.0</ele><time>2026-04-30T13:54:25.999Z</time></trkpt><trkpt lat="50.31903661079054" lon="4.123330226419779"><ele>140.0</ele><time>2026-04-30T13:54:26.999Z</time></trkpt><trkpt lat="50.3189201589675" lon="4.123534986042929"><ele>140.0</ele><time>2026-04-30T13:54:27.999Z</time></trkpt><trkpt lat="50.31880346548243" lon="4.123739857178152"><ele>140.0</ele><time>2026-04-30T13:54:28.999Z</time></trkpt><trkpt lat="50.318683861364434" lon="4.123938556330559"><ele>140.0</ele><time>2026-04-30T13:54:29.999Z</time></trkpt><trkpt lat="50.318569355531885" lon="4.124139958109872"><ele>140.0</ele><time>2026-04-30T13:54:30.999Z</time></trkpt><trkpt lat="50.31845302565006" lon="4.124338972438393"><ele>140.0</ele><time>2026-04-30T13:54:31.999Z</time></trkpt><trkpt lat="50.31834138236684" lon="4.1245362683987725"><ele>140.0</ele><time>2026-04-30T13:54:32.999Z</time></trkpt><trkpt lat="50.318230160171744" lon="4.124732684084599"><ele>140.0</ele><time>2026-04-30T13:54:33.999Z</time></trkpt><trkpt lat="50.31812061002989" lon="4.124928960161446"><ele>139.66666666666666</ele><time>2026-04-30T13:54:34.999Z</time></trkpt><trkpt lat="50.31801268653501" lon="4.1251267203683355"><ele>139.33333333333334</ele><time>2026-04-30T13:54:35.999Z</time></trkpt><trkpt lat="50.31790852566757" lon="4.125321478463229"><ele>139.0</ele><time>2026-04-30T13:54:36.999Z</time></trkpt><trkpt lat="50.317802165724885" lon="4.125510960344709"><ele>139.0</ele><time>2026-04-30T13:54:37.999Z</time></trkpt><trkpt lat="50.31769558782603" lon="4.125698956451845"><ele>139.0</ele><time>2026-04-30T13:54:38.999Z</time></trkpt><trkpt lat="50.31758807926308" lon="4.125886414367619"><ele>139.0</ele><time>2026-04-30T13:54:39.999Z</time></trkpt><trkpt lat="50.31748024481333" lon="4.126073940483417"><ele>138.0</ele><time>2026-04-30T13:54:40.999Z</time></trkpt><trkpt lat="50.317372058024866" lon="4.126265254321284"><ele>137.0</ele><time>2026-04-30T13:54:41.999Z</time></trkpt><trkpt lat="50.31726477749216" lon="4.12645630888954"><ele>136.0</ele><time>2026-04-30T13:54:42.999Z</time></trkpt><trkpt lat="50.317159117919104" lon="4.126647041761897"><ele>134.0</ele><time>2026-04-30T13:54:43.999Z</time></trkpt><trkpt lat="50.31705308579165" lon="4.126834821336038"><ele>132.0</ele><time>2026-04-30T13:54:44.999Z</time></trkpt><trkpt lat="50.31694447660457" lon="4.127024575783363"><ele>130.0</ele><time>2026-04-30T13:54:45.999Z</time></trkpt><trkpt lat="50.31683429014127" lon="4.127212127426681"><ele>129.66666666666669</ele><time>2026-04-30T13:54:46.999Z</time></trkpt><trkpt lat="50.31672321307362" lon="4.127410868498904"><ele>129.33333333333334</ele><time>2026-04-30T13:54:47.999Z</time></trkpt><trkpt lat="50.31661021980984" lon="4.127608777578252"><ele>129.0</ele><time>2026-04-30T13:54:48.999Z</time></trkpt><trkpt lat="50.31649912098844" lon="4.127802966447444"><ele>129.66666666666666</ele><time>2026-04-30T13:54:49.999Z</time></trkpt><trkpt lat="50.31639452093156" lon="4.127986304055582"><ele>130.33333333333331</ele><time>2026-04-30T13:54:50.999Z</time></trkpt><trkpt lat="50.3162951960422" lon="4.128162393612819"><ele>131.0</ele><time>2026-04-30T13:54:51.999Z</time></trkpt><trkpt lat="50.31619864300923" lon="4.128330016464526"><ele>132.0</ele><time>2026-04-30T13:54:52.999Z</time></trkpt><trkpt lat="50.316105645196785" lon="4.128491120343741"><ele>133.0</ele><time>2026-04-30T13:54:53.999Z</time></trkpt><trkpt lat="50.31601261967121" lon="4.1286473115460245"><ele>134.0</ele><time>2026-04-30T13:54:54.999Z</time></trkpt><trkpt lat="50.315918335734445" lon="4.128800834990446"><ele>135.0</ele><time>2026-04-30T13:54:55.999Z</time></trkpt><trkpt lat="50.31583208081462" lon="4.128943105423924"><ele>135.0</ele><time>2026-04-30T13:54:56.999Z</time></trkpt><trkpt lat="50.31575446512812" lon="4.129077257814362"><ele>135.0</ele><time>2026-04-30T13:54:57.999Z</time></trkpt><trkpt lat="50.315684609661034" lon="4.129193865116602"><ele>135.0</ele><time>2026-04-30T13:54:58.999Z</time></trkpt><trkpt lat="50.31562606938764" lon="4.1293027160380555"><ele>135.0</ele><time>2026-04-30T13:54:59.999Z</time></trkpt><trkpt lat="50.31556906885583" lon="4.129413677099862"><ele>135.0</ele><time>2026-04-30T13:55:00.999Z</time></trkpt><trkpt lat="50.31551646151491" lon="4.129522452768335"><ele>135.0</ele><time>2026-04-30T13:55:01.999Z</time></trkpt><trkpt lat="50.31546479896488" lon="4.129622353466488"><ele>135.0</ele><time>2026-04-30T13:55:02.999Z</time></trkpt><trkpt lat="50.315416574847774" lon="4.129708261784379"><ele>135.0</ele><time>2026-04-30T13:55:03.999Z</time></trkpt><trkpt lat="50.315370541680316" lon="4.129784899657925"><ele>135.0</ele><time>2026-04-30T13:55:04.999Z</time></trkpt><trkpt lat="50.31528764777449" lon="4.129929619051597"><ele>135.0</ele><time>2026-04-30T13:55:06.999Z</time></trkpt><trkpt lat="50.31520597374002" lon="4.130071364056652"><ele>135.66666666666666</ele><time>2026-04-30T13:55:08.999Z</time></trkpt><trkpt lat="50.31513820925408" lon="4.1301878088156885"><ele>136.33333333333334</ele><time>2026-04-30T13:55:10.999Z</time></trkpt><trkpt lat="50.31507327687756" lon="4.130299317100006"><ele>137.0</ele><time>2026-04-30T13:55:12.999Z</time></trkpt><trkpt lat="50.31501581090651" lon="4.130410485214071"><ele>137.66666666666669</ele><time>2026-04-30T13:55:14.999Z</time></trkpt><trkpt lat="50.31496602321048" lon="4.130493994058162"><ele>138.33333333333334</ele><time>2026-04-30T13:55:16.999Z</time></trkpt><trkpt lat="50.31491266804561" lon="4.130587261681595"><ele>139.0</ele><time>2026-04-30T13:55:18.999Z</time></trkpt><trkpt lat="50.314858968426186" lon="4.130681781165526"><ele>139.16666666666669</ele><time>2026-04-30T13:55:20.999Z</time></trkpt><trkpt lat="50.31480559698444" lon="4.130774135316327"><ele>139.33333333333334</ele><time>2026-04-30T13:55:22.999Z</time></trkpt><trkpt lat="50.314757013558065" lon="4.130854805884441"><ele>139.5</ele><time>2026-04-30T13:55:24.999Z</time></trkpt><trkpt lat="50.314712859460826" lon="4.130937637663172"><ele>139.66666666666666</ele><time>2026-04-30T13:55:26.999Z</time></trkpt><trkpt lat="50.314667196633444" lon="4.131024495483225"><ele>139.83333333333331</ele><time>2026-04-30T13:55:29Z</time></trkpt><trkpt lat="50.31461393350496" lon="4.131114315353712"><ele>140.0</ele><time>2026-04-30T13:55:31Z</time></trkpt><trkpt lat="50.314554796900055" lon="4.1312111357521655"><ele>140.0</ele><time>2026-04-30T13:55:33Z</time></trkpt><trkpt lat="50.3145046731266" lon="4.131297562731801"><ele>140.0</ele><time>2026-04-30T13:55:35Z</time></trkpt><trkpt lat="50.31445288151638" lon="4.1313921872411825"><ele>140.0</ele><time>2026-04-30T13:55:37Z</time></trkpt><trkpt lat="50.31439323540569" lon="4.131494975926828"><ele>140.0</ele><time>2026-04-30T13:55:39Z</time></trkpt><trkpt lat="50.314330151537696" lon="4.131598300856531"><ele>140.0</ele><time>2026-04-30T13:55:41Z</time></trkpt><trkpt lat="50.31427573912503" lon="4.13169542207184"><ele>140.0</ele><time>2026-04-30T13:55:43Z</time></trkpt><trkpt lat="50.31422839970697" lon="4.131781986009492"><ele>140.14285714285714</ele><time>2026-04-30T13:55:45Z</time></trkpt><trkpt lat="50.31417867830775" lon="4.131867962839406"><ele>140.28571428571428</ele><time>2026-04-30T13:55:47Z</time></trkpt><trkpt lat="50.314125327339234" lon="4.131960282715602"><ele>140.42857142857144</ele><time>2026-04-30T13:55:49Z</time></trkpt><trkpt lat="50.314069746753724" lon="4.132059679459604"><ele>140.57142857142856</ele><time>2026-04-30T13:55:51Z</time></trkpt><trkpt lat="50.3140212541582" lon="4.132146698154709"><ele>140.71428571428572</ele><time>2026-04-30T13:55:53Z</time></trkpt><trkpt lat="50.313975353472124" lon="4.132230043540445"><ele>140.85714285714286</ele><time>2026-04-30T13:55:55Z</time></trkpt><trkpt lat="50.31393485849243" lon="4.13230791021482"><ele>141.0</ele><time>2026-04-30T13:55:57Z</time></trkpt><trkpt lat="50.3138897846927" lon="4.132379821386365"><ele>141.33333333333334</ele><time>2026-04-30T13:56:02Z</time></trkpt><trkpt lat="50.31383949972964" lon="4.132473365891816"><ele>141.66666666666666</ele><time>2026-04-30T13:56:06Z</time></trkpt><trkpt lat="50.313794460394035" lon="4.132556939011863"><ele>142.0</ele><time>2026-04-30T13:56:10Z</time></trkpt><trkpt lat="50.31374804774181" lon="4.132631332305111"><ele>142.33333333333331</ele><time>2026-04-30T13:56:14Z</time></trkpt><trkpt lat="50.313677217540636" lon="4.132733233664683"><ele>142.66666666666666</ele><time>2026-04-30T13:56:36Z</time></trkpt><trkpt lat="50.31362976573373" lon="4.132824830472991"><ele>143.0</ele><time>2026-04-30T13:56:38Z</time></trkpt><trkpt lat="50.3135833519278" lon="4.1329125244033404"><ele>142.99999999999997</ele><time>2026-04-30T13:56:41Z</time></trkpt><trkpt lat="50.313538872503315" lon="4.132991433347127"><ele>143.0</ele><time>2026-04-30T13:56:43Z</time></trkpt><trkpt lat="50.31349306357911" lon="4.13307038457512"><ele>143.0</ele><time>2026-04-30T13:56:45Z</time></trkpt><trkpt lat="50.31344024538259" lon="4.133167414502695"><ele>143.0</ele><time>2026-04-30T13:56:48Z</time></trkpt><trkpt lat="50.31339007425648" lon="4.133257140914297"><ele>143.0</ele><time>2026-04-30T13:56:51Z</time></trkpt><trkpt lat="50.3133436967585" lon="4.133333567180501"><ele>142.99999999999997</ele><time>2026-04-30T13:56:58Z</time></trkpt><trkpt lat="50.31329202609257" lon="4.13342441674061"><ele>143.0</ele><time>2026-04-30T13:57:01.999Z</time></trkpt><trkpt lat="50.31323349422387" lon="4.133542244042665"><ele>143.0</ele><time>2026-04-30T13:57:04.999Z</time></trkpt><trkpt lat="50.31314065994698" lon="4.1336999632885645"><ele>143.0</ele><time>2026-04-30T13:57:06.999Z</time></trkpt><trkpt lat="50.31308261891289" lon="4.133801742031805"><ele>143.0</ele><time>2026-04-30T13:57:07.999Z</time></trkpt><trkpt lat="50.31302093903511" lon="4.133911094703451"><ele>143.0</ele><time>2026-04-30T13:57:08.999Z</time></trkpt><trkpt lat="50.312961073467754" lon="4.134028111443543"><ele>143.0</ele><time>2026-04-30T13:57:09.999Z</time></trkpt><trkpt lat="50.31289344676284" lon="4.134151983237303"><ele>142.6</ele><time>2026-04-30T13:57:10.999Z</time></trkpt><trkpt lat="50.31282751829616" lon="4.134276562107819"><ele>142.20000000000002</ele><time>2026-04-30T13:57:11.999Z</time></trkpt><trkpt lat="50.31276276229047" lon="4.134384626654422"><ele>141.8</ele><time>2026-04-30T13:57:12.999Z</time></trkpt><trkpt lat="50.312704919278374" lon="4.134487124996237"><ele>141.4</ele><time>2026-04-30T13:57:13.999Z</time></trkpt><trkpt lat="50.312648617019526" lon="4.134587759003753"><ele>141.0</ele><time>2026-04-30T13:57:14.999Z</time></trkpt><trkpt lat="50.31259278591032" lon="4.134689472120905"><ele>141.0</ele><time>2026-04-30T13:57:15.999Z</time></trkpt><trkpt lat="50.31253666178032" lon="4.1347896805997815"><ele>141.0</ele><time>2026-04-30T13:57:16.999Z</time></trkpt><trkpt lat="50.312477560980085" lon="4.134899162213586"><ele>141.0</ele><time>2026-04-30T13:57:17.999Z</time></trkpt><trkpt lat="50.312413914762594" lon="4.135013420905337"><ele>141.0</ele><time>2026-04-30T13:57:18.999Z</time></trkpt><trkpt lat="50.31235844688221" lon="4.135107926960811"><ele>141.0</ele><time>2026-04-30T13:57:19.999Z</time></trkpt><trkpt lat="50.31228753832703" lon="4.135214402480629"><ele>140.16666666666666</ele><time>2026-04-30T13:57:21.999Z</time></trkpt><trkpt lat="50.31223177494477" lon="4.135306118296712"><ele>139.33333333333334</ele><time>2026-04-30T13:57:47Z</time></trkpt><trkpt lat="50.312188940663624" lon="4.1353819182241365"><ele>138.5</ele><time>2026-04-30T13:57:50Z</time></trkpt><trkpt lat="50.3121413322379" lon="4.13546400297945"><ele>137.66666666666669</ele><time>2026-04-30T13:57:57Z</time></trkpt><trkpt lat="50.31207194031754" lon="4.135547842871686"><ele>136.83333333333334</ele><time>2026-04-30T13:58:02Z</time></trkpt><trkpt lat="50.31195125024091" lon="4.135559366920802"><ele>136.0</ele><time>2026-04-30T13:58:04Z</time></trkpt><trkpt lat="50.31185545604656" lon="4.135657012186903"><ele>136.0</ele><time>2026-04-30T13:58:06Z</time></trkpt><trkpt lat="50.3118139517429" lon="4.135858646714087"><ele>136.0</ele><time>2026-04-30T13:58:08Z</time></trkpt><trkpt lat="50.31178564994608" lon="4.136008996315321"><ele>136.0</ele><time>2026-04-30T13:58:09Z</time></trkpt><trkpt lat="50.31172483598137" lon="4.136159164971572"><ele>136.0</ele><time>2026-04-30T13:58:10Z</time></trkpt><trkpt lat="50.31165876650212" lon="4.136298506943809"><ele>136.0</ele><time>2026-04-30T13:58:11Z</time></trkpt><trkpt lat="50.31155569739205" lon="4.136472459502865"><ele>136.0</ele><time>2026-04-30T13:58:12Z</time></trkpt><trkpt lat="50.31143952677906" lon="4.13667508052097"><ele>136.0</ele><time>2026-04-30T13:58:13Z</time></trkpt><trkpt lat="50.311315289718294" lon="4.136891368957392"><ele>134.33333333333334</ele><time>2026-04-30T13:58:14Z</time></trkpt><trkpt lat="50.3111992365836" lon="4.137092260417355"><ele>132.66666666666666</ele><time>2026-04-30T13:58:15Z</time></trkpt><trkpt lat="50.311094296876135" lon="4.137276499087777"><ele>131.0</ele><time>2026-04-30T13:58:16Z</time></trkpt><trkpt lat="50.310992402716" lon="4.1374648938880805"><ele>130.66666666666666</ele><time>2026-04-30T13:58:17Z</time></trkpt><trkpt lat="50.310885557928415" lon="4.1376515895674"><ele>130.33333333333334</ele><time>2026-04-30T13:58:18Z</time></trkpt><trkpt lat="50.3107752468746" lon="4.1378512994132155"><ele>130.0</ele><time>2026-04-30T13:58:19Z</time></trkpt><trkpt lat="50.31066210170475" lon="4.1380501281614634"><ele>129.0</ele><time>2026-04-30T13:58:20Z</time></trkpt><trkpt lat="50.31054418041005" lon="4.138251552075437"><ele>128.0</ele><time>2026-04-30T13:58:21Z</time></trkpt><trkpt lat="50.31042651916461" lon="4.138456957510537"><ele>127.0</ele><time>2026-04-30T13:58:22Z</time></trkpt><trkpt lat="50.310313062057254" lon="4.138662379889372"><ele>127.0</ele><time>2026-04-30T13:58:23Z</time></trkpt><trkpt lat="50.31019686318701" lon="4.13887449502039"><ele>127.0</ele><time>2026-04-30T13:58:24Z</time></trkpt><trkpt lat="50.31007573764938" lon="4.139077461463248"><ele>127.0</ele><time>2026-04-30T13:58:25Z</time></trkpt><trkpt lat="50.30995055561076" lon="4.139293171083009"><ele>127.0</ele><time>2026-04-30T13:58:26Z</time></trkpt><trkpt lat="50.309825276635586" lon="4.139509001135307"><ele>127.0</ele><time>2026-04-30T13:58:27Z</time></trkpt><trkpt lat="50.30969815738655" lon="4.1397358436571645"><ele>127.0</ele><time>2026-04-30T13:58:28Z</time></trkpt><trkpt lat="50.309565613945374" lon="4.1399654210488945"><ele>126.33333333333334</ele><time>2026-04-30T13:58:29Z</time></trkpt><trkpt lat="50.30943156666705" lon="4.140203617303121"><ele>125.66666666666666</ele><time>2026-04-30T13:58:30Z</time></trkpt><trkpt lat="50.30929966779094" lon="4.14044030309831"><ele>125.0</ele><time>2026-04-30T13:58:31Z</time></trkpt><trkpt lat="50.30917237130866" lon="4.140672418111259"><ele>125.0</ele><time>2026-04-30T13:58:32Z</time></trkpt><trkpt lat="50.309046050827476" lon="4.140895548214789"><ele>125.0</ele><time>2026-04-30T13:58:33Z</time></trkpt><trkpt lat="50.30892116926597" lon="4.141113404159889"><ele>125.0</ele><time>2026-04-30T13:58:34Z</time></trkpt><trkpt lat="50.30879533766831" lon="4.14133690620607"><ele>125.0</ele><time>2026-04-30T13:58:35Z</time></trkpt><trkpt lat="50.3086603725597" lon="4.141569329066736"><ele>125.0</ele><time>2026-04-30T13:58:36Z</time></trkpt><trkpt lat="50.30851920947689" lon="4.141808937999573"><ele>125.0</ele><time>2026-04-30T13:58:37Z</time></trkpt><trkpt lat="50.30837313880771" lon="4.142061016252389"><ele>125.0</ele><time>2026-04-30T13:58:38Z</time></trkpt><trkpt lat="50.30822414927693" lon="4.14232676554042"><ele>125.0</ele><time>2026-04-30T13:58:39Z</time></trkpt><trkpt lat="50.30807296791311" lon="4.1425966746037695"><ele>126.0</ele><time>2026-04-30T13:58:40Z</time></trkpt><trkpt lat="50.3079250272546" lon="4.142858074374405"><ele>127.0</ele><time>2026-04-30T13:58:41Z</time></trkpt><trkpt lat="50.30777842344359" lon="4.143115322062552"><ele>128.0</ele><time>2026-04-30T13:58:42Z</time></trkpt><trkpt lat="50.3076356053431" lon="4.143358170762341"><ele>128.0</ele><time>2026-04-30T13:58:43Z</time></trkpt><trkpt lat="50.30749793889748" lon="4.143597648395968"><ele>128.0</ele><time>2026-04-30T13:58:44Z</time></trkpt><trkpt lat="50.30735917612843" lon="4.143834286123583"><ele>128.0</ele><time>2026-04-30T13:58:45Z</time></trkpt><trkpt lat="50.30722828007893" lon="4.144061447400869"><ele>129.66666666666666</ele><time>2026-04-30T13:58:46Z</time></trkpt><trkpt lat="50.30710222837652" lon="4.144280991987216"><ele>131.33333333333334</ele><time>2026-04-30T13:58:47Z</time></trkpt><trkpt lat="50.30698734713035" lon="4.1444880852151025"><ele>133.0</ele><time>2026-04-30T13:58:48Z</time></trkpt><trkpt lat="50.30686651291918" lon="4.144708487895378"><ele>133.33333333333334</ele><time>2026-04-30T13:58:49Z</time></trkpt><trkpt lat="50.30674714093385" lon="4.144918367958565"><ele>133.66666666666666</ele><time>2026-04-30T13:58:50Z</time></trkpt><trkpt lat="50.30662407684982" lon="4.14512696799241"><ele>134.0</ele><time>2026-04-30T13:58:51Z</time></trkpt><trkpt lat="50.306500592796" lon="4.145341661553942"><ele>135.0</ele><time>2026-04-30T13:58:52Z</time></trkpt><trkpt lat="50.30637403553524" lon="4.145563671773304"><ele>136.0</ele><time>2026-04-30T13:58:53Z</time></trkpt><trkpt lat="50.30624172798847" lon="4.14579815516608"><ele>137.0</ele><time>2026-04-30T13:58:54Z</time></trkpt><trkpt lat="50.30610835001145" lon="4.146036415485713"><ele>137.33333333333331</ele><time>2026-04-30T13:58:55Z</time></trkpt><trkpt lat="50.305973220144175" lon="4.1462747397536095"><ele>137.66666666666666</ele><time>2026-04-30T13:58:56Z</time></trkpt><trkpt lat="50.3058283155773" lon="4.1465199648136"><ele>138.0</ele><time>2026-04-30T13:58:57Z</time></trkpt><trkpt lat="50.305685637248224" lon="4.146771762713875"><ele>139.66666666666666</ele><time>2026-04-30T13:58:58Z</time></trkpt><trkpt lat="50.30554595608576" lon="4.14702158841088"><ele>141.33333333333331</ele><time>2026-04-30T13:58:59Z</time></trkpt><trkpt lat="50.30541236235617" lon="4.147245209178681"><ele>143.0</ele><time>2026-04-30T13:59:00Z</time></trkpt><trkpt lat="50.30528634479774" lon="4.147460160658056"><ele>143.0</ele><time>2026-04-30T13:59:01Z</time></trkpt><trkpt lat="50.305167558640015" lon="4.1476731686160075"><ele>143.0</ele><time>2026-04-30T13:59:02Z</time></trkpt><trkpt lat="50.305046714122646" lon="4.147886086054852"><ele>143.0</ele><time>2026-04-30T13:59:03Z</time></trkpt><trkpt lat="50.30492491628825" lon="4.148100901060727"><ele>143.33333333333331</ele><time>2026-04-30T13:59:04Z</time></trkpt><trkpt lat="50.30480871281172" lon="4.148302935081016"><ele>143.66666666666666</ele><time>2026-04-30T13:59:05Z</time></trkpt><trkpt lat="50.3047005536484" lon="4.148487591830753"><ele>144.0</ele><time>2026-04-30T13:59:06Z</time></trkpt><trkpt lat="50.304597735684915" lon="4.148664000991121"><ele>144.5</ele><time>2026-04-30T13:59:07Z</time></trkpt><trkpt lat="50.30449967955061" lon="4.148842038110843"><ele>145.0</ele><time>2026-04-30T13:59:08Z</time></trkpt><trkpt lat="50.30443222731236" lon="4.1489569466191965"><ele>145.5</ele><time>2026-04-30T13:59:08.999Z</time></trkpt><trkpt lat="50.30435893111299" lon="4.14908883222287"><ele>146.0</ele><time>2026-04-30T13:59:09.999Z</time></trkpt><trkpt lat="50.30428921393997" lon="4.14921632077144"><ele>146.0</ele><time>2026-04-30T13:59:10.999Z</time></trkpt><trkpt lat="50.304215347256545" lon="4.149341152669613"><ele>146.0</ele><time>2026-04-30T13:59:11.999Z</time></trkpt><trkpt lat="50.304140641388784" lon="4.149470258345967"><ele>146.0</ele><time>2026-04-30T13:59:12.999Z</time></trkpt><trkpt lat="50.304066726284546" lon="4.1495994722178"><ele>146.0</ele><time>2026-04-30T13:59:13.999Z</time></trkpt><trkpt lat="50.303989650617254" lon="4.149734862268576"><ele>146.0</ele><time>2026-04-30T13:59:14.999Z</time></trkpt><trkpt lat="50.30390849379845" lon="4.149876006642858"><ele>144.25</ele><time>2026-04-30T13:59:15.999Z</time></trkpt><trkpt lat="50.303824098998035" lon="4.150021023674702"><ele>142.5</ele><time>2026-04-30T13:59:16.999Z</time></trkpt><trkpt lat="50.30373606901293" lon="4.1501739405039375"><ele>140.75</ele><time>2026-04-30T13:59:17.999Z</time></trkpt><trkpt lat="50.30365105614474" lon="4.150321580516344"><ele>139.0</ele><time>2026-04-30T13:59:18.999Z</time></trkpt><trkpt lat="50.3035697312766" lon="4.150466497658561"><ele>139.0</ele><time>2026-04-30T13:59:19.999Z</time></trkpt><trkpt lat="50.30348930015774" lon="4.150608380531891"><ele>139.0</ele><time>2026-04-30T13:59:20.999Z</time></trkpt><trkpt lat="50.30340996144564" lon="4.150744235956347"><ele>139.0</ele><time>2026-04-30T13:59:21.999Z</time></trkpt><trkpt lat="50.30333014598154" lon="4.150888894492708"><ele>139.0</ele><time>2026-04-30T13:59:22.999Z</time></trkpt><trkpt lat="50.30325070513062" lon="4.1510304708798405"><ele>139.0</ele><time>2026-04-30T13:59:23.999Z</time></trkpt><trkpt lat="50.30316923128956" lon="4.151180012067345"><ele>139.0</ele><time>2026-04-30T13:59:24.999Z</time></trkpt><trkpt lat="50.30308485950195" lon="4.151325174936777"><ele>139.0</ele><time>2026-04-30T13:59:25.999Z</time></trkpt><trkpt lat="50.302999886263265" lon="4.15147047512303"><ele>139.0</ele><time>2026-04-30T13:59:26.999Z</time></trkpt><trkpt lat="50.3029234650272" lon="4.15160507630886"><ele>139.25</ele><time>2026-04-30T13:59:27.999Z</time></trkpt><trkpt lat="50.302848431990476" lon="4.151739562244917"><ele>139.5</ele><time>2026-04-30T13:59:28.999Z</time></trkpt><trkpt lat="50.30277011822075" lon="4.151870452671791"><ele>139.75</ele><time>2026-04-30T13:59:29.999Z</time></trkpt><trkpt lat="50.30269096562642" lon="4.15200339771764"><ele>140.0</ele><time>2026-04-30T13:59:30.999Z</time></trkpt><trkpt lat="50.30261239103097" lon="4.152142525250149"><ele>140.0</ele><time>2026-04-30T13:59:31.999Z</time></trkpt><trkpt lat="50.30253383820905" lon="4.152283380232925"><ele>140.0</ele><time>2026-04-30T13:59:32.999Z</time></trkpt><trkpt lat="50.30245616388813" lon="4.152422139523623"><ele>140.0</ele><time>2026-04-30T13:59:33.999Z</time></trkpt><trkpt lat="50.30237785607263" lon="4.152561146342898"><ele>140.0</ele><time>2026-04-30T13:59:34.999Z</time></trkpt><trkpt lat="50.30229839538413" lon="4.152695590339289"><ele>140.25</ele><time>2026-04-30T13:59:35.999Z</time></trkpt><trkpt lat="50.302217585458244" lon="4.152836064434699"><ele>140.5</ele><time>2026-04-30T13:59:36.999Z</time></trkpt><trkpt lat="50.302135206697415" lon="4.152982938696776"><ele>140.75</ele><time>2026-04-30T13:59:37.999Z</time></trkpt><trkpt lat="50.3020488219673" lon="4.1531364002376705"><ele>141.0</ele><time>2026-04-30T13:59:39Z</time></trkpt><trkpt lat="50.30195925141446" lon="4.153292456991422"><ele>140.25</ele><time>2026-04-30T13:59:40Z</time></trkpt><trkpt lat="50.30186886026785" lon="4.153450115139146"><ele>139.5</ele><time>2026-04-30T13:59:41Z</time></trkpt><trkpt lat="50.30177833356783" lon="4.1536101061131685"><ele>138.75</ele><time>2026-04-30T13:59:42Z</time></trkpt><trkpt lat="50.30168564338509" lon="4.153759353603457"><ele>138.0</ele><time>2026-04-30T13:59:43Z</time></trkpt><trkpt lat="50.30159785477543" lon="4.153910606499837"><ele>137.5</ele><time>2026-04-30T13:59:44Z</time></trkpt><trkpt lat="50.30151704082704" lon="4.154050401129333"><ele>137.0</ele><time>2026-04-30T13:59:45Z</time></trkpt><trkpt lat="50.30144134170202" lon="4.154182836745651"><ele>136.5</ele><time>2026-04-30T13:59:46Z</time></trkpt><trkpt lat="50.3013689975417" lon="4.154311926195709"><ele>136.0</ele><time>2026-04-30T13:59:47Z</time></trkpt><trkpt lat="50.301294200882715" lon="4.154443317283944"><ele>136.0</ele><time>2026-04-30T13:59:48Z</time></trkpt><trkpt lat="50.30121582450545" lon="4.154587211110122"><ele>136.0</ele><time>2026-04-30T13:59:49Z</time></trkpt><trkpt lat="50.30113006422641" lon="4.154735298628607"><ele>136.0</ele><time>2026-04-30T13:59:50Z</time></trkpt><trkpt lat="50.30104663410983" lon="4.154881913132696"><ele>136.0</ele><time>2026-04-30T13:59:51Z</time></trkpt><trkpt lat="50.30096391340889" lon="4.155022969152588"><ele>135.0</ele><time>2026-04-30T13:59:52Z</time></trkpt><trkpt lat="50.30088221625046" lon="4.155164181390594"><ele>134.0</ele><time>2026-04-30T13:59:53Z</time></trkpt><trkpt lat="50.300799540963865" lon="4.155303783688587"><ele>133.0</ele><time>2026-04-30T13:59:54Z</time></trkpt><trkpt lat="50.30071876173359" lon="4.155447946620607"><ele>132.0</ele><time>2026-04-30T13:59:55Z</time></trkpt><trkpt lat="50.30063445203039" lon="4.155599167567148"><ele>131.5</ele><time>2026-04-30T13:59:56Z</time></trkpt><trkpt lat="50.3005435446322" lon="4.155751839814011"><ele>131.0</ele><time>2026-04-30T13:59:57Z</time></trkpt><trkpt lat="50.300448888721995" lon="4.1559106687482235"><ele>130.5</ele><time>2026-04-30T13:59:58Z</time></trkpt><trkpt lat="50.30035603741828" lon="4.156073481239087"><ele>130.0</ele><time>2026-04-30T13:59:59Z</time></trkpt><trkpt lat="50.300268890409356" lon="4.156230279996975"><ele>130.0</ele><time>2026-04-30T14:00:00Z</time></trkpt><trkpt lat="50.30019244081285" lon="4.156370478071051"><ele>130.0</ele><time>2026-04-30T14:00:01Z</time></trkpt><trkpt lat="50.300127722165726" lon="4.156480326931366"><ele>130.0</ele><time>2026-04-30T14:00:02Z</time></trkpt><trkpt lat="50.30007923189195" lon="4.15656033218198"><ele>130.0</ele><time>2026-04-30T14:00:03Z</time></trkpt><trkpt lat="50.30000196154393" lon="4.156710687030453"><ele>130.0</ele><time>2026-04-30T14:00:05Z</time></trkpt><trkpt lat="50.29992305254545" lon="4.156849526870991"><ele>130.5</ele><time>2026-04-30T14:00:07Z</time></trkpt><trkpt lat="50.29988065065409" lon="4.156923809346897"><ele>131.0</ele><time>2026-04-30T14:00:08Z</time></trkpt><trkpt lat="50.29983075970666" lon="4.157008001310726"><ele>131.5</ele><time>2026-04-30T14:00:09Z</time></trkpt><trkpt lat="50.29977200019786" lon="4.15710803799376"><ele>132.0</ele><time>2026-04-30T14:00:10Z</time></trkpt><trkpt lat="50.299709221669154" lon="4.157210966152058"><ele>132.5</ele><time>2026-04-30T14:00:11Z</time></trkpt><trkpt lat="50.29964758863614" lon="4.157314747731298"><ele>133.0</ele><time>2026-04-30T14:00:12Z</time></trkpt><trkpt lat="50.29959235693693" lon="4.157405353553625"><ele>133.83333333333334</ele><time>2026-04-30T14:00:13Z</time></trkpt><trkpt lat="50.29953870803752" lon="4.157495693697154"><ele>134.66666666666669</ele><time>2026-04-30T14:00:14Z</time></trkpt><trkpt lat="50.29948305480585" lon="4.15759532863352"><ele>135.5</ele><time>2026-04-30T14:00:15Z</time></trkpt><trkpt lat="50.29942548560835" lon="4.157689590403214"><ele>136.33333333333334</ele><time>2026-04-30T14:00:16Z</time></trkpt><trkpt lat="50.29936977938263" lon="4.157787390024583"><ele>137.16666666666666</ele><time>2026-04-30T14:00:17Z</time></trkpt><trkpt lat="50.299312896195175" lon="4.1578882166286695"><ele>138.0</ele><time>2026-04-30T14:00:18Z</time></trkpt><trkpt lat="50.29925731651792" lon="4.157989885316155"><ele>138.0</ele><time>2026-04-30T14:00:19Z</time></trkpt><trkpt lat="50.29919995220468" lon="4.158091354036152"><ele>138.0</ele><time>2026-04-30T14:00:20Z</time></trkpt><trkpt lat="50.29914049666904" lon="4.158195596404868"><ele>138.0</ele><time>2026-04-30T14:00:21Z</time></trkpt><trkpt lat="50.29907913524358" lon="4.1583035613014285"><ele>138.0</ele><time>2026-04-30T14:00:22Z</time></trkpt><trkpt lat="50.29902020246293" lon="4.158407970684067"><ele>138.0</ele><time>2026-04-30T14:00:23Z</time></trkpt><trkpt lat="50.2989643931252" lon="4.158506874274252"><ele>138.0</ele><time>2026-04-30T14:00:24Z</time></trkpt><trkpt lat="50.29890306955165" lon="4.158608437434563"><ele>138.6</ele><time>2026-04-30T14:00:25Z</time></trkpt><trkpt lat="50.29884416555154" lon="4.158717511412383"><ele>139.20000000000002</ele><time>2026-04-30T14:00:26Z</time></trkpt><trkpt lat="50.29878297036346" lon="4.158817658214127"><ele>139.8</ele><time>2026-04-30T14:00:27Z</time></trkpt><trkpt lat="50.298722138093325" lon="4.158925942190577"><ele>140.4</ele><time>2026-04-30T14:00:28Z</time></trkpt><trkpt lat="50.29866221331062" lon="4.159035783136436"><ele>141.0</ele><time>2026-04-30T14:00:29Z</time></trkpt><trkpt lat="50.29860143558656" lon="4.159143061405956"><ele>141.6</ele><time>2026-04-30T14:00:30Z</time></trkpt><trkpt lat="50.298554861863785" lon="4.159230520155988"><ele>142.2</ele><time>2026-04-30T14:00:31Z</time></trkpt><trkpt lat="50.29849129168845" lon="4.159348730158058"><ele>142.8</ele><time>2026-04-30T14:00:33Z</time></trkpt><trkpt lat="50.29844229560311" lon="4.159432363192892"><ele>143.4</ele><time>2026-04-30T14:00:35Z</time></trkpt><trkpt lat="50.29838047736544" lon="4.159552962096391"><ele>144.0</ele><time>2026-04-30T14:00:37Z</time></trkpt><trkpt lat="50.29830068096733" lon="4.159694234704295"><ele>144.00000000000003</ele><time>2026-04-30T14:00:39Z</time></trkpt><trkpt lat="50.29825794142586" lon="4.159772300369062"><ele>144.0</ele><time>2026-04-30T14:00:40Z</time></trkpt><trkpt lat="50.29820337084885" lon="4.159829664740166"><ele>144.0</ele><time>2026-04-30T14:00:41Z</time></trkpt><trkpt lat="50.298170749446584" lon="4.159926083867653"><ele>144.0</ele><time>2026-04-30T14:00:42Z</time></trkpt><trkpt lat="50.298112561493745" lon="4.159989447790925"><ele>144.0</ele><time>2026-04-30T14:00:43Z</time></trkpt><trkpt lat="50.298066773903855" lon="4.160069704786342"><ele>144.00000000000003</ele><time>2026-04-30T14:00:44Z</time></trkpt><trkpt lat="50.298034837493695" lon="4.160163255685182"><ele>144.0</ele><time>2026-04-30T14:00:45Z</time></trkpt><trkpt lat="50.29795538972043" lon="4.160294257274592"><ele>145.16666666666666</ele><time>2026-04-30T14:00:47Z</time></trkpt><trkpt lat="50.297873874100844" lon="4.160445401712666"><ele>146.33333333333334</ele><time>2026-04-30T14:00:49Z</time></trkpt><trkpt lat="50.29782985717421" lon="4.160520735522101"><ele>147.5</ele><time>2026-04-30T14:00:50Z</time></trkpt><trkpt lat="50.29778282086441" lon="4.160603386040125"><ele>148.66666666666669</ele><time>2026-04-30T14:00:51Z</time></trkpt><trkpt lat="50.297735783008726" lon="4.160687638780396"><ele>149.83333333333334</ele><time>2026-04-30T14:00:52Z</time></trkpt><trkpt lat="50.29768934053767" lon="4.160768974681895"><ele>151.0</ele><time>2026-04-30T14:00:53Z</time></trkpt><trkpt lat="50.29763234824481" lon="4.160831484730553"><ele>151.42857142857144</ele><time>2026-04-30T14:00:54Z</time></trkpt><trkpt lat="50.29759787700737" lon="4.160930412921612"><ele>151.85714285714286</ele><time>2026-04-30T14:00:55Z</time></trkpt><trkpt lat="50.297542859179636" lon="4.160988856643265"><ele>152.28571428571428</ele><time>2026-04-30T14:00:56Z</time></trkpt><trkpt lat="50.29749713407842" lon="4.161070446231343"><ele>152.71428571428572</ele><time>2026-04-30T14:00:57Z</time></trkpt><trkpt lat="50.29744923416427" lon="4.161154044648164"><ele>153.14285714285714</ele><time>2026-04-30T14:00:58Z</time></trkpt><trkpt lat="50.29739992515142" lon="4.161240212161703"><ele>153.57142857142858</ele><time>2026-04-30T14:00:59Z</time></trkpt><trkpt lat="50.29735664915054" lon="4.161348729867077"><ele>154.0</ele><time>2026-04-30T14:01:00Z</time></trkpt><trkpt lat="50.29729966390304" lon="4.1614380112068154"><ele>154.0</ele><time>2026-04-30T14:01:01Z</time></trkpt><trkpt lat="50.29725800308612" lon="4.161516764702561"><ele>154.0</ele><time>2026-04-30T14:01:02Z</time></trkpt><trkpt lat="50.29717591457762" lon="4.161672213459854"><ele>154.0</ele><time>2026-04-30T14:01:04Z</time></trkpt><trkpt lat="50.29711610163139" lon="4.161739047381204"><ele>154.0</ele><time>2026-04-30T14:01:05Z</time></trkpt><trkpt lat="50.297067151758306" lon="4.161825519302648"><ele>154.0</ele><time>2026-04-30T14:01:06Z</time></trkpt><trkpt lat="50.297019779658186" lon="4.16190881453694"><ele>154.0</ele><time>2026-04-30T14:01:07Z</time></trkpt><trkpt lat="50.29697423468737" lon="4.1619884793140285"><ele>154.2</ele><time>2026-04-30T14:01:08Z</time></trkpt><trkpt lat="50.29691089653402" lon="4.162136041564786"><ele>154.4</ele><time>2026-04-30T14:01:10Z</time></trkpt><trkpt lat="50.296826752873955" lon="4.162282026738045"><ele>154.6</ele><time>2026-04-30T14:01:12Z</time></trkpt><trkpt lat="50.296779127413004" lon="4.162366517028729"><ele>154.8</ele><time>2026-04-30T14:01:13Z</time></trkpt><trkpt lat="50.29673014811505" lon="4.162453448959878"><ele>155.0</ele><time>2026-04-30T14:01:13.999Z</time></trkpt><trkpt lat="50.296688721461244" lon="4.162537463329345"><ele>155.33333333333331</ele><time>2026-04-30T14:01:14.999Z</time></trkpt><trkpt lat="50.296628522392375" lon="4.162634756210994"><ele>155.66666666666666</ele><time>2026-04-30T14:01:15.999Z</time></trkpt><trkpt lat="50.29656651919727" lon="4.16274469679476"><ele>156.0</ele><time>2026-04-30T14:01:16.999Z</time></trkpt><trkpt lat="50.29651096744329" lon="4.162848534713601"><ele>156.33333333333334</ele><time>2026-04-30T14:01:17.999Z</time></trkpt><trkpt lat="50.29644012322029" lon="4.162922896467934"><ele>156.66666666666669</ele><time>2026-04-30T14:01:18.999Z</time></trkpt><trkpt lat="50.29639568632845" lon="4.163041113901494"><ele>157.0</ele><time>2026-04-30T14:01:19.999Z</time></trkpt><trkpt lat="50.29633740608098" lon="4.1631547982866515"><ele>157.5</ele><time>2026-04-30T14:01:20.999Z</time></trkpt><trkpt lat="50.296273589072186" lon="4.163267692365565"><ele>158.0</ele><time>2026-04-30T14:01:21.999Z</time></trkpt><trkpt lat="50.2961890305464" lon="4.163377360981851"><ele>158.5</ele><time>2026-04-30T14:01:22.999Z</time></trkpt><trkpt lat="50.296117082541876" lon="4.1635348110208"><ele>159.0</ele><time>2026-04-30T14:01:23.999Z</time></trkpt><trkpt lat="50.29602958241493" lon="4.163692468082553"><ele>159.0</ele><time>2026-04-30T14:01:24.999Z</time></trkpt><trkpt lat="50.29592401857999" lon="4.163841335261337"><ele>159.0</ele><time>2026-04-30T14:01:25.999Z</time></trkpt><trkpt lat="50.29580758782346" lon="4.1640469624582686"><ele>159.0</ele><time>2026-04-30T14:01:26.999Z</time></trkpt><trkpt lat="50.295670693009754" lon="4.164284982185218"><ele>159.0</ele><time>2026-04-30T14:01:27.999Z</time></trkpt><trkpt lat="50.29551746525393" lon="4.164550555513753"><ele>159.0</ele><time>2026-04-30T14:01:28.999Z</time></trkpt><trkpt lat="50.295350930621495" lon="4.1648427423015475"><ele>159.0</ele><time>2026-04-30T14:01:29.999Z</time></trkpt><trkpt lat="50.29517167719447" lon="4.165157228823562"><ele>159.0</ele><time>2026-04-30T14:01:30.999Z</time></trkpt><trkpt lat="50.29498391943574" lon="4.165486486750297"><ele>158.5</ele><time>2026-04-30T14:01:31.999Z</time></trkpt><trkpt lat="50.2947742972782" lon="4.165852701311888"><ele>158.0</ele><time>2026-04-30T14:01:32.999Z</time></trkpt><trkpt lat="50.29458458045586" lon="4.166182842581963"><ele>158.0</ele><time>2026-04-30T14:01:33.999Z</time></trkpt><trkpt lat="50.29437025572505" lon="4.166555773648596"><ele>158.0</ele><time>2026-04-30T14:01:34.999Z</time></trkpt><trkpt lat="50.294160260606496" lon="4.166925840488072"><ele>158.0</ele><time>2026-04-30T14:01:35.999Z</time></trkpt><trkpt lat="50.29397200022513" lon="4.167260229922438"><ele>158.0</ele><time>2026-04-30T14:01:36.999Z</time></trkpt><trkpt lat="50.29379458658283" lon="4.167571931410816"><ele>157.0</ele><time>2026-04-30T14:01:37.999Z</time></trkpt><trkpt lat="50.293635389852255" lon="4.16785130578621"><ele>156.0</ele><time>2026-04-30T14:01:38.999Z</time></trkpt><trkpt lat="50.293478118690246" lon="4.168126274985947"><ele>156.0</ele><time>2026-04-30T14:01:39.999Z</time></trkpt><trkpt lat="50.29333155790424" lon="4.168411457817597"><ele>156.0</ele><time>2026-04-30T14:01:40.999Z</time></trkpt><trkpt lat="50.29317306625977" lon="4.168673642577395"><ele>156.0</ele><time>2026-04-30T14:01:41.999Z</time></trkpt><trkpt lat="50.29301962132765" lon="4.16893984557913"><ele>156.0</ele><time>2026-04-30T14:01:42.999Z</time></trkpt><trkpt lat="50.29286611803487" lon="4.169205101177504"><ele>156.0</ele><time>2026-04-30T14:01:43.999Z</time></trkpt><trkpt lat="50.292715336034966" lon="4.169471686652852"><ele>156.0</ele><time>2026-04-30T14:01:45Z</time></trkpt><trkpt lat="50.29256445995361" lon="4.169736011180489"><ele>156.33333333333334</ele><time>2026-04-30T14:01:46Z</time></trkpt><trkpt lat="50.29241429463126" lon="4.169998702066533"><ele>156.66666666666669</ele><time>2026-04-30T14:01:47Z</time></trkpt><trkpt lat="50.29226829014239" lon="4.170252841606562"><ele>157.0</ele><time>2026-04-30T14:01:48Z</time></trkpt><trkpt lat="50.29213527234358" lon="4.170483517118253"><ele>157.66666666666669</ele><time>2026-04-30T14:01:49Z</time></trkpt><trkpt lat="50.29200348375131" lon="4.17071677575194"><ele>158.33333333333334</ele><time>2026-04-30T14:01:50Z</time></trkpt><trkpt lat="50.29187336525346" lon="4.170948673515916"><ele>159.0</ele><time>2026-04-30T14:01:51Z</time></trkpt><trkpt lat="50.29174376832362" lon="4.171177593739279"><ele>159.0</ele><time>2026-04-30T14:01:52Z</time></trkpt><trkpt lat="50.291611103492684" lon="4.171405451421203"><ele>159.0</ele><time>2026-04-30T14:01:53Z</time></trkpt><trkpt lat="50.29147376453754" lon="4.171633565502218"><ele>159.0</ele><time>2026-04-30T14:01:54Z</time></trkpt><trkpt lat="50.29133066549253" lon="4.171865102188365"><ele>159.33333333333334</ele><time>2026-04-30T14:01:55Z</time></trkpt><trkpt lat="50.291190254724064" lon="4.1720863222173765"><ele>159.66666666666669</ele><time>2026-04-30T14:01:56Z</time></trkpt><trkpt lat="50.29104704277627" lon="4.17229268594704"><ele>160.0</ele><time>2026-04-30T14:01:57Z</time></trkpt><trkpt lat="50.290916190122786" lon="4.172471624662504"><ele>160.0</ele><time>2026-04-30T14:01:58Z</time></trkpt><trkpt lat="50.29080079710363" lon="4.172632380780234"><ele>160.0</ele><time>2026-04-30T14:01:59Z</time></trkpt><trkpt lat="50.29068964272565" lon="4.172793628108441"><ele>160.0</ele><time>2026-04-30T14:02:00Z</time></trkpt><trkpt lat="50.290582425514295" lon="4.172945465297751"><ele>160.0</ele><time>2026-04-30T14:02:01Z</time></trkpt><trkpt lat="50.29047336281708" lon="4.173096294429455"><ele>160.0</ele><time>2026-04-30T14:02:02Z</time></trkpt><trkpt lat="50.29036653814517" lon="4.1732480420295195"><ele>160.0</ele><time>2026-04-30T14:02:03Z</time></trkpt><trkpt lat="50.2902585907069" lon="4.17340783912153"><ele>160.0</ele><time>2026-04-30T14:02:04Z</time></trkpt><trkpt lat="50.29013692597671" lon="4.173575789905572"><ele>160.0</ele><time>2026-04-30T14:02:05Z</time></trkpt><trkpt lat="50.2900015174492" lon="4.173754294433587"><ele>160.0</ele><time>2026-04-30T14:02:06Z</time></trkpt><trkpt lat="50.28985014071629" lon="4.1739603751870895"><ele>160.0</ele><time>2026-04-30T14:02:07Z</time></trkpt><trkpt lat="50.289684140747084" lon="4.1741844015296445"><ele>160.0</ele><time>2026-04-30T14:02:08Z</time></trkpt><trkpt lat="50.28950829765306" lon="4.174432387609455"><ele>160.0</ele><time>2026-04-30T14:02:09Z</time></trkpt><trkpt lat="50.289322291247736" lon="4.174698706308503"><ele>159.5</ele><time>2026-04-30T14:02:10Z</time></trkpt><trkpt lat="50.289123810834994" lon="4.174975270632226"><ele>159.0</ele><time>2026-04-30T14:02:11Z</time></trkpt><trkpt lat="50.28893208470113" lon="4.175244964526186"><ele>159.33333333333334</ele><time>2026-04-30T14:02:12Z</time></trkpt><trkpt lat="50.28875912467473" lon="4.175487422725134"><ele>159.66666666666669</ele><time>2026-04-30T14:02:13Z</time></trkpt><trkpt lat="50.28859776673163" lon="4.1757127189314955"><ele>160.0</ele><time>2026-04-30T14:02:14Z</time></trkpt><trkpt lat="50.28844382026141" lon="4.175925300101715"><ele>160.0</ele><time>2026-04-30T14:02:15Z</time></trkpt><trkpt lat="50.28829722669931" lon="4.176128545071724"><ele>160.0</ele><time>2026-04-30T14:02:16Z</time></trkpt><trkpt lat="50.28815419766541" lon="4.176330830890317"><ele>160.0</ele><time>2026-04-30T14:02:17Z</time></trkpt><trkpt lat="50.2880101937139" lon="4.176531891134831"><ele>160.0</ele><time>2026-04-30T14:02:18Z</time></trkpt><trkpt lat="50.28786545761817" lon="4.1767356125372705"><ele>160.0</ele><time>2026-04-30T14:02:19Z</time></trkpt><trkpt lat="50.28772292054716" lon="4.17693135453361"><ele>160.0</ele><time>2026-04-30T14:02:20Z</time></trkpt><trkpt lat="50.28758882136545" lon="4.177123768478129"><ele>160.0</ele><time>2026-04-30T14:02:21Z</time></trkpt><trkpt lat="50.28747651790804" lon="4.1773303878401835"><ele>160.0</ele><time>2026-04-30T14:02:22Z</time></trkpt><trkpt lat="50.28737010865331" lon="4.177566578915788"><ele>160.0</ele><time>2026-04-30T14:02:23Z</time></trkpt><trkpt lat="50.2872706433241" lon="4.1778523850499205"><ele>157.5</ele><time>2026-04-30T14:02:24Z</time></trkpt><trkpt lat="50.287161916084784" lon="4.178158307753149"><ele>155.0</ele><time>2026-04-30T14:02:25Z</time></trkpt><trkpt lat="50.28704615003073" lon="4.178464423845789"><ele>155.0</ele><time>2026-04-30T14:02:26Z</time></trkpt><trkpt lat="50.28693770267608" lon="4.178754329321552"><ele>155.0</ele><time>2026-04-30T14:02:27Z</time></trkpt><trkpt lat="50.2868393031578" lon="4.179028039626118"><ele>155.0</ele><time>2026-04-30T14:02:28Z</time></trkpt><trkpt lat="50.28674340656677" lon="4.179294360025519"><ele>154.66666666666666</ele><time>2026-04-30T14:02:29Z</time></trkpt><trkpt lat="50.28664732880622" lon="4.179565408945652"><ele>154.33333333333334</ele><time>2026-04-30T14:02:30Z</time></trkpt><trkpt lat="50.28654356181427" lon="4.1798459261931"><ele>154.0</ele><time>2026-04-30T14:02:31Z</time></trkpt><trkpt lat="50.286440549453395" lon="4.180136324258842"><ele>153.0</ele><time>2026-04-30T14:02:32Z</time></trkpt><trkpt lat="50.28632866157838" lon="4.1804247343513214"><ele>152.0</ele><time>2026-04-30T14:02:33Z</time></trkpt><trkpt lat="50.286222795334744" lon="4.180748169537373"><ele>151.0</ele><time>2026-04-30T14:02:34Z</time></trkpt><trkpt lat="50.28610910211841" lon="4.18106830641435"><ele>149.5</ele><time>2026-04-30T14:02:35Z</time></trkpt><trkpt lat="50.28598801125907" lon="4.181397862821588"><ele>148.0</ele><time>2026-04-30T14:02:36Z</time></trkpt><trkpt lat="50.28585785611859" lon="4.181745764687546"><ele>148.0</ele><time>2026-04-30T14:02:37Z</time></trkpt><trkpt lat="50.285712588067135" lon="4.182106604962385"><ele>148.0</ele><time>2026-04-30T14:02:38Z</time></trkpt><trkpt lat="50.28556499776784" lon="4.182479588563898"><ele>148.0</ele><time>2026-04-30T14:02:39Z</time></trkpt><trkpt lat="50.28542161912345" lon="4.182860491623145"><ele>148.0</ele><time>2026-04-30T14:02:40Z</time></trkpt><trkpt lat="50.28528355697426" lon="4.183232134673091"><ele>147.0</ele><time>2026-04-30T14:02:41Z</time></trkpt><trkpt lat="50.285155050993346" lon="4.18358236171218"><ele>146.0</ele><time>2026-04-30T14:02:42Z</time></trkpt><trkpt lat="50.285036168155656" lon="4.18391299349078"><ele>147.0</ele><time>2026-04-30T14:02:43Z</time></trkpt><trkpt lat="50.28491661837393" lon="4.184251770944452"><ele>148.0</ele><time>2026-04-30T14:02:44Z</time></trkpt><trkpt lat="50.28478568150534" lon="4.184588586862163"><ele>151.0</ele><time>2026-04-30T14:02:45Z</time></trkpt><trkpt lat="50.28465540464996" lon="4.184935865039255"><ele>154.0</ele><time>2026-04-30T14:02:46Z</time></trkpt><trkpt lat="50.2845282438471" lon="4.1852845787235955"><ele>154.0</ele><time>2026-04-30T14:02:47Z</time></trkpt><trkpt lat="50.28440325028904" lon="4.185626140395245"><ele>154.0</ele><time>2026-04-30T14:02:48Z</time></trkpt><trkpt lat="50.284287274515364" lon="4.185941129872648"><ele>153.66666666666669</ele><time>2026-04-30T14:02:49Z</time></trkpt><trkpt lat="50.28418254163199" lon="4.18622417463385"><ele>153.33333333333334</ele><time>2026-04-30T14:02:50Z</time></trkpt><trkpt lat="50.28409699389775" lon="4.186468814322243"><ele>153.0</ele><time>2026-04-30T14:02:51Z</time></trkpt><trkpt lat="50.28401382029683" lon="4.186698019722828"><ele>153.0</ele><time>2026-04-30T14:02:52Z</time></trkpt><trkpt lat="50.28393427079329" lon="4.186918590237332"><ele>153.0</ele><time>2026-04-30T14:02:53Z</time></trkpt><trkpt lat="50.28385453091275" lon="4.1871408998125"><ele>153.0</ele><time>2026-04-30T14:02:54Z</time></trkpt><trkpt lat="50.283773863934684" lon="4.187369662285168"><ele>153.33333333333334</ele><time>2026-04-30T14:02:55Z</time></trkpt><trkpt lat="50.28369056087518" lon="4.187605204954978"><ele>153.66666666666669</ele><time>2026-04-30T14:02:56Z</time></trkpt><trkpt lat="50.28360315001793" lon="4.18784049450623"><ele>154.0</ele><time>2026-04-30T14:02:57Z</time></trkpt><trkpt lat="50.28351026564262" lon="4.188089221402563"><ele>154.33333333333334</ele><time>2026-04-30T14:02:58Z</time></trkpt><trkpt lat="50.283409803107325" lon="4.188349174066604"><ele>154.66666666666666</ele><time>2026-04-30T14:02:59Z</time></trkpt><trkpt lat="50.28330356135312" lon="4.18861564528758"><ele>155.0</ele><time>2026-04-30T14:03:00Z</time></trkpt><trkpt lat="50.283197872828154" lon="4.188885958263128"><ele>155.66666666666666</ele><time>2026-04-30T14:03:01Z</time></trkpt><trkpt lat="50.28309752610084" lon="4.189157847106528"><ele>156.33333333333334</ele><time>2026-04-30T14:03:02Z</time></trkpt><trkpt lat="50.2829973231824" lon="4.189431155972205"><ele>157.0</ele><time>2026-04-30T14:03:03Z</time></trkpt><trkpt lat="50.28289435473724" lon="4.189703959168328"><ele>156.0</ele><time>2026-04-30T14:03:04Z</time></trkpt><trkpt lat="50.28279057802222" lon="4.189972292715056"><ele>155.0</ele><time>2026-04-30T14:03:05Z</time></trkpt><trkpt lat="50.28268704411505" lon="4.190229853864768"><ele>154.0</ele><time>2026-04-30T14:03:06Z</time></trkpt><trkpt lat="50.28258790051363" lon="4.190483361628199"><ele>154.66666666666669</ele><time>2026-04-30T14:03:07Z</time></trkpt><trkpt lat="50.28249132283609" lon="4.190738726020094"><ele>155.33333333333334</ele><time>2026-04-30T14:03:08Z</time></trkpt><trkpt lat="50.28239346857875" lon="4.190997688982326"><ele>156.0</ele><time>2026-04-30T14:03:09Z</time></trkpt><trkpt lat="50.28229104328824" lon="4.191259518959784"><ele>156.0</ele><time>2026-04-30T14:03:10Z</time></trkpt><trkpt lat="50.28218696123529" lon="4.191527209492568"><ele>156.0</ele><time>2026-04-30T14:03:11Z</time></trkpt><trkpt lat="50.28208372857663" lon="4.191804244219414"><ele>156.0</ele><time>2026-04-30T14:03:12Z</time></trkpt><trkpt lat="50.28197692157076" lon="4.192088384458999"><ele>156.33333333333334</ele><time>2026-04-30T14:03:13Z</time></trkpt><trkpt lat="50.28187044403652" lon="4.192365210797864"><ele>156.66666666666669</ele><time>2026-04-30T14:03:14Z</time></trkpt><trkpt lat="50.281770927526004" lon="4.192628616013139"><ele>157.0</ele><time>2026-04-30T14:03:15Z</time></trkpt><trkpt lat="50.28167356518359" lon="4.192882632087518"><ele>157.0</ele><time>2026-04-30T14:03:16Z</time></trkpt><trkpt lat="50.281572083573884" lon="4.1931264473671614"><ele>157.0</ele><time>2026-04-30T14:03:17Z</time></trkpt><trkpt lat="50.281478180321955" lon="4.193380545485819"><ele>157.0</ele><time>2026-04-30T14:03:17.999Z</time></trkpt><trkpt lat="50.28138509391156" lon="4.193633243818962"><ele>157.33333333333334</ele><time>2026-04-30T14:03:18.999Z</time></trkpt><trkpt lat="50.281287655307075" lon="4.193894829862526"><ele>157.66666666666666</ele><time>2026-04-30T14:03:19.999Z</time></trkpt><trkpt lat="50.281185826243274" lon="4.194157161909284"><ele>158.0</ele><time>2026-04-30T14:03:20.999Z</time></trkpt><trkpt lat="50.281082423261175" lon="4.194423440584538"><ele>157.0</ele><time>2026-04-30T14:03:21.999Z</time></trkpt><trkpt lat="50.28097638618482" lon="4.1947008182587275"><ele>156.0</ele><time>2026-04-30T14:03:22.999Z</time></trkpt><trkpt lat="50.28086315923924" lon="4.194984912743799"><ele>155.0</ele><time>2026-04-30T14:03:23.999Z</time></trkpt><trkpt lat="50.280746433871606" lon="4.1952810871051245"><ele>153.5</ele><time>2026-04-30T14:03:24.999Z</time></trkpt><trkpt lat="50.28062289199852" lon="4.19560333836493"><ele>152.0</ele><time>2026-04-30T14:03:25.999Z</time></trkpt><trkpt lat="50.28048815288572" lon="4.195948627151301"><ele>152.0</ele><time>2026-04-30T14:03:26.999Z</time></trkpt><trkpt lat="50.280342198754646" lon="4.196321242361614"><ele>152.0</ele><time>2026-04-30T14:03:27.999Z</time></trkpt><trkpt lat="50.280193625511366" lon="4.196704078394115"><ele>150.0</ele><time>2026-04-30T14:03:28.999Z</time></trkpt><trkpt lat="50.28003828722066" lon="4.197102969323862"><ele>148.0</ele><time>2026-04-30T14:03:29.999Z</time></trkpt><trkpt lat="50.27987959290165" lon="4.1975167799867865"><ele>149.0</ele><time>2026-04-30T14:03:30.999Z</time></trkpt><trkpt lat="50.27972355339912" lon="4.19793108030416"><ele>150.0</ele><time>2026-04-30T14:03:31.999Z</time></trkpt><trkpt lat="50.2795694589671" lon="4.198326976836933"><ele>150.0</ele><time>2026-04-30T14:03:32.998Z</time></trkpt><trkpt lat="50.279418434755534" lon="4.1987158809972644"><ele>150.0</ele><time>2026-04-30T14:03:33.998Z</time></trkpt><trkpt lat="50.279271640522936" lon="4.199098861292599"><ele>150.0</ele><time>2026-04-30T14:03:34.998Z</time></trkpt><trkpt lat="50.27912739321007" lon="4.199475254805577"><ele>150.0</ele><time>2026-04-30T14:03:35.998Z</time></trkpt><trkpt lat="50.27898210066624" lon="4.19984888606812"><ele>150.5</ele><time>2026-04-30T14:03:36.998Z</time></trkpt><trkpt lat="50.278836831980904" lon="4.200222564827595"><ele>151.0</ele><time>2026-04-30T14:03:37.998Z</time></trkpt><trkpt lat="50.278692367640716" lon="4.200593346308193"><ele>152.0</ele><time>2026-04-30T14:03:38.998Z</time></trkpt><trkpt lat="50.27854753457284" lon="4.200967123439276"><ele>153.0</ele><time>2026-04-30T14:03:39.998Z</time></trkpt><trkpt lat="50.27840228914383" lon="4.201345508674243"><ele>153.0</ele><time>2026-04-30T14:03:40.998Z</time></trkpt><trkpt lat="50.27825862092508" lon="4.201723416870392"><ele>153.0</ele><time>2026-04-30T14:03:41.998Z</time></trkpt><trkpt lat="50.278117127452646" lon="4.202103754911155"><ele>152.5</ele><time>2026-04-30T14:03:42.998Z</time></trkpt><trkpt lat="50.277969656143746" lon="4.202476197066975"><ele>152.0</ele><time>2026-04-30T14:03:43.998Z</time></trkpt><trkpt lat="50.277823917614676" lon="4.202845357240603"><ele>153.0</ele><time>2026-04-30T14:03:44.998Z</time></trkpt><trkpt lat="50.27767796819831" lon="4.203209186121856"><ele>154.0</ele><time>2026-04-30T14:03:45.998Z</time></trkpt><trkpt lat="50.2775361012723" lon="4.2035739233022245"><ele>154.0</ele><time>2026-04-30T14:03:46.998Z</time></trkpt><trkpt lat="50.27739637373656" lon="4.203938212362651"><ele>154.0</ele><time>2026-04-30T14:03:47.998Z</time></trkpt><trkpt lat="50.27725576520309" lon="4.204296712551724"><ele>156.5</ele><time>2026-04-30T14:03:48.998Z</time></trkpt><trkpt lat="50.27711397561385" lon="4.204651198301287"><ele>159.0</ele><time>2026-04-30T14:03:49.998Z</time></trkpt><trkpt lat="50.276977941403565" lon="4.205000294065254"><ele>161.0</ele><time>2026-04-30T14:03:51Z</time></trkpt><trkpt lat="50.276847148522585" lon="4.205331027582758"><ele>163.0</ele><time>2026-04-30T14:03:52Z</time></trkpt><trkpt lat="50.27672423431807" lon="4.205655413981402"><ele>166.0</ele><time>2026-04-30T14:03:53Z</time></trkpt><trkpt lat="50.27660255498875" lon="4.20597563092146"><ele>169.0</ele><time>2026-04-30T14:03:54Z</time></trkpt><trkpt lat="50.27648292756171" lon="4.206282158371181"><ele>171.0</ele><time>2026-04-30T14:03:55Z</time></trkpt><trkpt lat="50.27636670933149" lon="4.206586983053494"><ele>173.0</ele><time>2026-04-30T14:03:56Z</time></trkpt><trkpt lat="50.27625813196209" lon="4.20687630559376"><ele>175.0</ele><time>2026-04-30T14:03:57Z</time></trkpt><trkpt lat="50.276154713738265" lon="4.2071305575912685"><ele>175.0</ele><time>2026-04-30T14:03:58Z</time></trkpt><trkpt lat="50.27605955356079" lon="4.207362514945385"><ele>175.0</ele><time>2026-04-30T14:03:59Z</time></trkpt><trkpt lat="50.27597557002104" lon="4.207579696405539"><ele>175.0</ele><time>2026-04-30T14:04:00Z</time></trkpt><trkpt lat="50.27589900275925" lon="4.207784909686514"><ele>175.0</ele><time>2026-04-30T14:04:01Z</time></trkpt><trkpt lat="50.27582186305995" lon="4.207982443673219"><ele>175.0</ele><time>2026-04-30T14:04:02Z</time></trkpt><trkpt lat="50.275741544938306" lon="4.208185182605295"><ele>175.0</ele><time>2026-04-30T14:04:03Z</time></trkpt><trkpt lat="50.27566091422752" lon="4.20839800238551"><ele>174.0</ele><time>2026-04-30T14:04:04Z</time></trkpt><trkpt lat="50.275578183602015" lon="4.208615490938403"><ele>173.0</ele><time>2026-04-30T14:04:05Z</time></trkpt><trkpt lat="50.275499407030686" lon="4.208824676434597"><ele>172.0</ele><time>2026-04-30T14:04:06Z</time></trkpt><trkpt lat="50.27543010823778" lon="4.209007576170817"><ele>172.0</ele><time>2026-04-30T14:04:07Z</time></trkpt><trkpt lat="50.2753687306862" lon="4.209181400016309"><ele>172.0</ele><time>2026-04-30T14:04:08Z</time></trkpt><trkpt lat="50.27531813242287" lon="4.209345697468503"><ele>172.0</ele><time>2026-04-30T14:04:09Z</time></trkpt><trkpt lat="50.27528090235901" lon="4.209493999316286"><ele>172.0</ele><time>2026-04-30T14:04:10Z</time></trkpt><trkpt lat="50.275249438456505" lon="4.2096165851273755"><ele>172.0</ele><time>2026-04-30T14:04:11Z</time></trkpt><trkpt lat="50.2752174113155" lon="4.209704824910077"><ele>172.0</ele><time>2026-04-30T14:04:19Z</time></trkpt><trkpt lat="50.275131616633864" lon="4.209871757506683"><ele>172.0</ele><time>2026-04-30T14:04:20.999Z</time></trkpt><trkpt lat="50.275091465507735" lon="4.210011968931536"><ele>172.0</ele><time>2026-04-30T14:04:21.999Z</time></trkpt><trkpt lat="50.275042102580684" lon="4.2101757333869285"><ele>172.0</ele><time>2026-04-30T14:04:22.999Z</time></trkpt><trkpt lat="50.27496234844836" lon="4.210317957896906"><ele>172.0</ele><time>2026-04-30T14:04:23.999Z</time></trkpt><trkpt lat="50.2748651985458" lon="4.210440892219472"><ele>172.0</ele><time>2026-04-30T14:04:24.999Z</time></trkpt><trkpt lat="50.274756677552666" lon="4.2105470658443105"><ele>172.0</ele><time>2026-04-30T14:04:25.999Z</time></trkpt><trkpt lat="50.27463769009276" lon="4.210644950428895"><ele>172.0</ele><time>2026-04-30T14:04:26.999Z</time></trkpt><trkpt lat="50.27451234719943" lon="4.210750519538191"><ele>169.66666666666669</ele><time>2026-04-30T14:04:27.999Z</time></trkpt><trkpt lat="50.2743777503287" lon="4.210861247564199"><ele>167.33333333333334</ele><time>2026-04-30T14:04:28.999Z</time></trkpt><trkpt lat="50.27423197614483" lon="4.210967452608345"><ele>165.0</ele><time>2026-04-30T14:04:29.999Z</time></trkpt><trkpt lat="50.274075506652665" lon="4.211077159564618"><ele>163.66666666666666</ele><time>2026-04-30T14:04:30.999Z</time></trkpt><trkpt lat="50.27390856248642" lon="4.211197755716588"><ele>162.33333333333331</ele><time>2026-04-30T14:04:31.999Z</time></trkpt><trkpt lat="50.27373417497386" lon="4.211326748604653"><ele>161.0</ele><time>2026-04-30T14:04:32.999Z</time></trkpt><trkpt lat="50.273565187950844" lon="4.211438977775731"><ele>161.33333333333331</ele><time>2026-04-30T14:04:33.999Z</time></trkpt><trkpt lat="50.27338576171696" lon="4.211566426232673"><ele>161.66666666666666</ele><time>2026-04-30T14:04:34.999Z</time></trkpt><trkpt lat="50.27320823424628" lon="4.211692273502831"><ele>162.0</ele><time>2026-04-30T14:04:35.999Z</time></trkpt><trkpt lat="50.273035655932226" lon="4.21181252660629"><ele>160.66666666666666</ele><time>2026-04-30T14:04:36.999Z</time></trkpt><trkpt lat="50.272862287545685" lon="4.211931036009658"><ele>159.33333333333331</ele><time>2026-04-30T14:04:37.999Z</time></trkpt><trkpt lat="50.272685622623975" lon="4.212058060737433"><ele>158.0</ele><time>2026-04-30T14:04:38.999Z</time></trkpt><trkpt lat="50.27250951293346" lon="4.212178723844411"><ele>158.0</ele><time>2026-04-30T14:04:39.999Z</time></trkpt><trkpt lat="50.272333276401184" lon="4.212302963585735"><ele>158.0</ele><time>2026-04-30T14:04:40.999Z</time></trkpt><trkpt lat="50.272151933133124" lon="4.212435945789165"><ele>158.0</ele><time>2026-04-30T14:04:41.999Z</time></trkpt><trkpt lat="50.27197441303316" lon="4.212560938134759"><ele>159.0</ele><time>2026-04-30T14:04:42.999Z</time></trkpt><trkpt lat="50.27179467885529" lon="4.212685659535257"><ele>160.0</ele><time>2026-04-30T14:04:43.999Z</time></trkpt><trkpt lat="50.27161602458918" lon="4.212806023279922"><ele>161.0</ele><time>2026-04-30T14:04:44.999Z</time></trkpt><trkpt lat="50.271435578342675" lon="4.212929144777568"><ele>163.0</ele><time>2026-04-30T14:04:45.999Z</time></trkpt><trkpt lat="50.271258608197954" lon="4.213053535629738"><ele>165.0</ele><time>2026-04-30T14:04:46.999Z</time></trkpt><trkpt lat="50.27108243720232" lon="4.213182281815944"><ele>167.0</ele><time>2026-04-30T14:04:47.999Z</time></trkpt><trkpt lat="50.27090895367656" lon="4.213303715153076"><ele>167.66666666666666</ele><time>2026-04-30T14:04:48.999Z</time></trkpt><trkpt lat="50.27073335518753" lon="4.213427559714638"><ele>168.33333333333334</ele><time>2026-04-30T14:04:49.999Z</time></trkpt><trkpt lat="50.27055313692866" lon="4.213553172766489"><ele>169.0</ele><time>2026-04-30T14:04:50.999Z</time></trkpt><trkpt lat="50.27037299271148" lon="4.213677419869689"><ele>169.66666666666669</ele><time>2026-04-30T14:04:51.999Z</time></trkpt><trkpt lat="50.27018760691882" lon="4.213808743448029"><ele>170.33333333333334</ele><time>2026-04-30T14:04:52.999Z</time></trkpt><trkpt lat="50.26999960077525" lon="4.213938955164041"><ele>171.0</ele><time>2026-04-30T14:04:53.999Z</time></trkpt><trkpt lat="50.2698133216024" lon="4.21407247116731"><ele>172.0</ele><time>2026-04-30T14:04:54.999Z</time></trkpt><trkpt lat="50.269630867941814" lon="4.214206083269253"><ele>173.0</ele><time>2026-04-30T14:04:55.999Z</time></trkpt><trkpt lat="50.26943995393761" lon="4.214334828125822"><ele>174.0</ele><time>2026-04-30T14:04:56.999Z</time></trkpt><trkpt lat="50.26924851697935" lon="4.214468063968779"><ele>174.0</ele><time>2026-04-30T14:04:57.999Z</time></trkpt><trkpt lat="50.269055985245394" lon="4.214601066923849"><ele>174.0</ele><time>2026-04-30T14:04:58.999Z</time></trkpt><trkpt lat="50.26885926111173" lon="4.214736856330413"><ele>174.0</ele><time>2026-04-30T14:04:59.999Z</time></trkpt><trkpt lat="50.26864689565714" lon="4.214889845885475"><ele>175.5</ele><time>2026-04-30T14:05:00.999Z</time></trkpt><trkpt lat="50.268434332882975" lon="4.215045540033445"><ele>177.0</ele><time>2026-04-30T14:05:01.999Z</time></trkpt><trkpt lat="50.268193004418414" lon="4.215197568546282"><ele>177.0</ele><time>2026-04-30T14:05:02.999Z</time></trkpt><trkpt lat="50.26793694497237" lon="4.215376548250518"><ele>177.0</ele><time>2026-04-30T14:05:03.999Z</time></trkpt><trkpt lat="50.26767332300495" lon="4.215563529708317"><ele>178.5</ele><time>2026-04-30T14:05:04.999Z</time></trkpt><trkpt lat="50.26741627797785" lon="4.215745928850606"><ele>180.0</ele><time>2026-04-30T14:05:05.999Z</time></trkpt><trkpt lat="50.26717110486832" lon="4.215918728995354"><ele>182.0</ele><time>2026-04-30T14:05:06.999Z</time></trkpt><trkpt lat="50.26694233060485" lon="4.216092070755376"><ele>184.0</ele><time>2026-04-30T14:05:07.999Z</time></trkpt><trkpt lat="50.26672393960977" lon="4.216239660856159"><ele>184.0</ele><time>2026-04-30T14:05:08.999Z</time></trkpt><trkpt lat="50.266514700137215" lon="4.216384905557914"><ele>184.0</ele><time>2026-04-30T14:05:09.999Z</time></trkpt><trkpt lat="50.26632320969458" lon="4.216517389532559"><ele>184.0</ele><time>2026-04-30T14:05:10.999Z</time></trkpt><trkpt lat="50.2661468281139" lon="4.2166349904774725"><ele>186.0</ele><time>2026-04-30T14:05:11.999Z</time></trkpt><trkpt lat="50.26597439072208" lon="4.2167527058369325"><ele>188.0</ele><time>2026-04-30T14:05:12.999Z</time></trkpt><trkpt lat="50.265803139898324" lon="4.216877463651084"><ele>190.0</ele><time>2026-04-30T14:05:13.999Z</time></trkpt><trkpt lat="50.265629196094196" lon="4.217002442145732"><ele>192.0</ele><time>2026-04-30T14:05:14.999Z</time></trkpt><trkpt lat="50.26545438391594" lon="4.2171178635549555"><ele>194.0</ele><time>2026-04-30T14:05:15.999Z</time></trkpt><trkpt lat="50.26528084604029" lon="4.217236771609651"><ele>196.0</ele><time>2026-04-30T14:05:16.999Z</time></trkpt><trkpt lat="50.265107426593794" lon="4.217354073092035"><ele>196.33333333333331</ele><time>2026-04-30T14:05:17.999Z</time></trkpt><trkpt lat="50.26493485704243" lon="4.2174774987068435"><ele>196.66666666666669</ele><time>2026-04-30T14:05:18.999Z</time></trkpt><trkpt lat="50.264761936652384" lon="4.21760240042878"><ele>197.0</ele><time>2026-04-30T14:05:19.999Z</time></trkpt><trkpt lat="50.26459369005722" lon="4.217717270855794"><ele>198.33333333333334</ele><time>2026-04-30T14:05:20.999Z</time></trkpt><trkpt lat="50.26443215658288" lon="4.217829069705749"><ele>199.66666666666669</ele><time>2026-04-30T14:05:21.999Z</time></trkpt><trkpt lat="50.264288731534" lon="4.21792645045284"><ele>201.0</ele><time>2026-04-30T14:05:22.999Z</time></trkpt><trkpt lat="50.26416064256924" lon="4.218019582580085"><ele>201.0</ele><time>2026-04-30T14:05:23.999Z</time></trkpt><trkpt lat="50.264030899213374" lon="4.218112638050087"><ele>201.0</ele><time>2026-04-30T14:05:24.999Z</time></trkpt><trkpt lat="50.263899547201206" lon="4.218205529975618"><ele>201.0</ele><time>2026-04-30T14:05:25.999Z</time></trkpt><trkpt lat="50.26376368062951" lon="4.218299354976895"><ele>201.0</ele><time>2026-04-30T14:05:26.999Z</time></trkpt><trkpt lat="50.263635600748" lon="4.21839501426295"><ele>202.33333333333331</ele><time>2026-04-30T14:05:27.999Z</time></trkpt><trkpt lat="50.26350571207797" lon="4.218485331951039"><ele>203.66666666666666</ele><time>2026-04-30T14:05:28.999Z</time></trkpt><trkpt lat="50.26336765804895" lon="4.218577433017325"><ele>205.0</ele><time>2026-04-30T14:05:29.999Z</time></trkpt><trkpt lat="50.26321895636063" lon="4.218676761719116"><ele>205.0</ele><time>2026-04-30T14:05:30.999Z</time></trkpt><trkpt lat="50.26306072351077" lon="4.218790044307124"><ele>205.0</ele><time>2026-04-30T14:05:31.999Z</time></trkpt><trkpt lat="50.26289503904861" lon="4.218909728292167"><ele>205.0</ele><time>2026-04-30T14:05:32.999Z</time></trkpt><trkpt lat="50.26272762062314" lon="4.2190246733421475"><ele>205.0</ele><time>2026-04-30T14:05:33.999Z</time></trkpt><trkpt lat="50.26256568715176" lon="4.219135606228462"><ele>205.0</ele><time>2026-04-30T14:05:34.999Z</time></trkpt><trkpt lat="50.262404924502576" lon="4.219247940319394"><ele>205.0</ele><time>2026-04-30T14:05:35.999Z</time></trkpt><trkpt lat="50.26224200453934" lon="4.219361427419771"><ele>205.0</ele><time>2026-04-30T14:05:36.999Z</time></trkpt><trkpt lat="50.262073835636386" lon="4.2194786563081665"><ele>205.0</ele><time>2026-04-30T14:05:37.999Z</time></trkpt><trkpt lat="50.26189819560716" lon="4.219597890397541"><ele>205.0</ele><time>2026-04-30T14:05:38.999Z</time></trkpt><trkpt lat="50.26172140230543" lon="4.21972169639105"><ele>205.33333333333331</ele><time>2026-04-30T14:05:39.999Z</time></trkpt><trkpt lat="50.261538776042194" lon="4.219848573829618"><ele>205.66666666666669</ele><time>2026-04-30T14:05:40.999Z</time></trkpt><trkpt lat="50.26135095457852" lon="4.219980186792115"><ele>206.0</ele><time>2026-04-30T14:05:41.999Z</time></trkpt><trkpt lat="50.26115706706248" lon="4.220117917707089"><ele>205.33333333333334</ele><time>2026-04-30T14:05:42.999Z</time></trkpt><trkpt lat="50.26096206997076" lon="4.220251517520651"><ele>204.66666666666669</ele><time>2026-04-30T14:05:43.999Z</time></trkpt><trkpt lat="50.26076651140846" lon="4.220387044136277"><ele>204.0</ele><time>2026-04-30T14:05:44.999Z</time></trkpt><trkpt lat="50.26057070051515" lon="4.220523358157973"><ele>203.33333333333331</ele><time>2026-04-30T14:05:45.999Z</time></trkpt><trkpt lat="50.26037289883972" lon="4.220661157965742"><ele>202.66666666666666</ele><time>2026-04-30T14:05:46.999Z</time></trkpt><trkpt lat="50.260176803076924" lon="4.220794160179539"><ele>202.0</ele><time>2026-04-30T14:05:47.999Z</time></trkpt><trkpt lat="50.25998005148148" lon="4.220929058500395"><ele>202.0</ele><time>2026-04-30T14:05:48.999Z</time></trkpt><trkpt lat="50.25978570801388" lon="4.221062093420873"><ele>202.0</ele><time>2026-04-30T14:05:49.999Z</time></trkpt><trkpt lat="50.25958836821078" lon="4.221197201887651"><ele>202.0</ele><time>2026-04-30T14:05:50.999Z</time></trkpt><trkpt lat="50.25938611858096" lon="4.221341762424217"><ele>201.33333333333331</ele><time>2026-04-30T14:05:51.999Z</time></trkpt><trkpt lat="50.25918363469937" lon="4.221485995674632"><ele>200.66666666666669</ele><time>2026-04-30T14:05:52.999Z</time></trkpt><trkpt lat="50.25897978144577" lon="4.2216248999464"><ele>200.0</ele><time>2026-04-30T14:05:53.999Z</time></trkpt><trkpt lat="50.25877871246646" lon="4.22176048467501"><ele>200.0</ele><time>2026-04-30T14:05:54.999Z</time></trkpt><trkpt lat="50.2585795287171" lon="4.2218976778113895"><ele>200.0</ele><time>2026-04-30T14:05:55.999Z</time></trkpt><trkpt lat="50.25838437290354" lon="4.222037438156424"><ele>200.0</ele><time>2026-04-30T14:05:57Z</time></trkpt><trkpt lat="50.2581921433494" lon="4.222175337893635"><ele>200.33333333333334</ele><time>2026-04-30T14:05:58Z</time></trkpt><trkpt lat="50.25800255020863" lon="4.222308354908225"><ele>200.66666666666669</ele><time>2026-04-30T14:05:59Z</time></trkpt><trkpt lat="50.25781741869289" lon="4.222438882901539"><ele>201.0</ele><time>2026-04-30T14:06:00Z</time></trkpt><trkpt lat="50.25763232495951" lon="4.2225658978923"><ele>201.0</ele><time>2026-04-30T14:06:01Z</time></trkpt><trkpt lat="50.25744176790678" lon="4.222695102260737"><ele>201.0</ele><time>2026-04-30T14:06:02Z</time></trkpt><trkpt lat="50.25724394478118" lon="4.222825187313595"><ele>201.0</ele><time>2026-04-30T14:06:03Z</time></trkpt><trkpt lat="50.25704488012279" lon="4.222960518190004"><ele>201.0</ele><time>2026-04-30T14:06:04Z</time></trkpt><trkpt lat="50.25684124387601" lon="4.223102191746969"><ele>201.0</ele><time>2026-04-30T14:06:05Z</time></trkpt><trkpt lat="50.25663756840504" lon="4.223243225798926"><ele>201.0</ele><time>2026-04-30T14:06:06Z</time></trkpt><trkpt lat="50.25643627362956" lon="4.223383427597212"><ele>201.66666666666669</ele><time>2026-04-30T14:06:07Z</time></trkpt><trkpt lat="50.2562387047684" lon="4.223520818211567"><ele>202.33333333333334</ele><time>2026-04-30T14:06:08Z</time></trkpt><trkpt lat="50.256045622187855" lon="4.22365198979739"><ele>203.0</ele><time>2026-04-30T14:06:09Z</time></trkpt><trkpt lat="50.25585604735601" lon="4.223780793669537"><ele>203.0</ele><time>2026-04-30T14:06:10Z</time></trkpt><trkpt lat="50.25566890633957" lon="4.2239125957396695"><ele>203.0</ele><time>2026-04-30T14:06:11Z</time></trkpt><trkpt lat="50.255481670601" lon="4.22403939980039"><ele>203.0</ele><time>2026-04-30T14:06:12Z</time></trkpt><trkpt lat="50.255294424669195" lon="4.224166326514762"><ele>204.0</ele><time>2026-04-30T14:06:13Z</time></trkpt><trkpt lat="50.25510594154654" lon="4.224298249347679"><ele>205.0</ele><time>2026-04-30T14:06:14Z</time></trkpt><trkpt lat="50.25492012934563" lon="4.224425411841024"><ele>206.0</ele><time>2026-04-30T14:06:15Z</time></trkpt><trkpt lat="50.25473425221346" lon="4.224553356896398"><ele>207.66666666666669</ele><time>2026-04-30T14:06:16Z</time></trkpt><trkpt lat="50.25455411079872" lon="4.224680215961732"><ele>209.33333333333331</ele><time>2026-04-30T14:06:17Z</time></trkpt><trkpt lat="50.25436620796039" lon="4.224807722980037"><ele>211.0</ele><time>2026-04-30T14:06:18Z</time></trkpt><trkpt lat="50.2541781925224" lon="4.2249462145174626"><ele>211.33333333333331</ele><time>2026-04-30T14:06:19Z</time></trkpt><trkpt lat="50.25399101487006" lon="4.2250688128164375"><ele>211.66666666666669</ele><time>2026-04-30T14:06:20Z</time></trkpt><trkpt lat="50.25380004817244" lon="4.225196162454547"><ele>212.0</ele><time>2026-04-30T14:06:21Z</time></trkpt><trkpt lat="50.253609170786426" lon="4.225325469885143"><ele>213.66666666666669</ele><time>2026-04-30T14:06:22Z</time></trkpt><trkpt lat="50.253411920668654" lon="4.225470183711631"><ele>215.33333333333331</ele><time>2026-04-30T14:06:23Z</time></trkpt><trkpt lat="50.25321376771481" lon="4.22560567375823"><ele>217.0</ele><time>2026-04-30T14:06:24Z</time></trkpt><trkpt lat="50.25301167501537" lon="4.2257117249260725"><ele>217.66666666666666</ele><time>2026-04-30T14:06:25Z</time></trkpt><trkpt lat="50.25282558442483" lon="4.22584290337457"><ele>218.33333333333331</ele><time>2026-04-30T14:06:26Z</time></trkpt><trkpt lat="50.252629936583354" lon="4.225947753312314"><ele>219.0</ele><time>2026-04-30T14:06:27Z</time></trkpt><trkpt lat="50.25243701937955" lon="4.2261364143805835"><ele>219.33333333333331</ele><time>2026-04-30T14:06:28Z</time></trkpt><trkpt lat="50.25224171997759" lon="4.2262628091076415"><ele>219.66666666666666</ele><time>2026-04-30T14:06:29Z</time></trkpt><trkpt lat="50.252045527123684" lon="4.226397414666049"><ele>220.0</ele><time>2026-04-30T14:06:30Z</time></trkpt><trkpt lat="50.25184619094386" lon="4.226536528788107"><ele>220.0</ele><time>2026-04-30T14:06:31Z</time></trkpt><trkpt lat="50.25164676351088" lon="4.226669269108666"><ele>220.0</ele><time>2026-04-30T14:06:32Z</time></trkpt><trkpt lat="50.25144736292601" lon="4.226809728272653"><ele>220.0</ele><time>2026-04-30T14:06:33Z</time></trkpt><trkpt lat="50.251243145492836" lon="4.226959070832704"><ele>219.5</ele><time>2026-04-30T14:06:34Z</time></trkpt><trkpt lat="50.25103341997519" lon="4.2271007138389844"><ele>219.0</ele><time>2026-04-30T14:06:35Z</time></trkpt><trkpt lat="50.25082771125885" lon="4.227239440484853"><ele>219.66666666666669</ele><time>2026-04-30T14:06:36Z</time></trkpt><trkpt lat="50.25062391109512" lon="4.227375443387668"><ele>220.33333333333334</ele><time>2026-04-30T14:06:37Z</time></trkpt><trkpt lat="50.25041683996565" lon="4.227518968132017"><ele>221.0</ele><time>2026-04-30T14:06:38Z</time></trkpt><trkpt lat="50.250210272413995" lon="4.227663982554087"><ele>221.0</ele><time>2026-04-30T14:06:39Z</time></trkpt><trkpt lat="50.2500007687467" lon="4.227812703689656"><ele>221.0</ele><time>2026-04-30T14:06:40Z</time></trkpt><trkpt lat="50.24979189964774" lon="4.2279556835004675"><ele>222.0</ele><time>2026-04-30T14:06:41Z</time></trkpt><trkpt lat="50.24958737028326" lon="4.228095035286009"><ele>223.0</ele><time>2026-04-30T14:06:42Z</time></trkpt><trkpt lat="50.2493859018568" lon="4.228232992716671"><ele>224.0</ele><time>2026-04-30T14:06:43Z</time></trkpt><trkpt lat="50.24919057922934" lon="4.228365375438485"><ele>224.0</ele><time>2026-04-30T14:06:44Z</time></trkpt><trkpt lat="50.249002541272255" lon="4.228492866031608"><ele>224.0</ele><time>2026-04-30T14:06:45Z</time></trkpt><trkpt lat="50.24882696023275" lon="4.228616168331897"><ele>224.0</ele><time>2026-04-30T14:06:46Z</time></trkpt><trkpt lat="50.24865130152722" lon="4.228736588598747"><ele>224.33333333333334</ele><time>2026-04-30T14:06:47Z</time></trkpt><trkpt lat="50.248477834558436" lon="4.228851188009629"><ele>224.66666666666669</ele><time>2026-04-30T14:06:48Z</time></trkpt><trkpt lat="50.248310764681335" lon="4.228964912793564"><ele>225.0</ele><time>2026-04-30T14:06:49Z</time></trkpt><trkpt lat="50.248149304554396" lon="4.229081777079798"><ele>225.33333333333331</ele><time>2026-04-30T14:06:50Z</time></trkpt><trkpt lat="50.2479791612252" lon="4.229195832837448"><ele>225.66666666666666</ele><time>2026-04-30T14:06:51Z</time></trkpt><trkpt lat="50.24780430843154" lon="4.229312810416516"><ele>226.0</ele><time>2026-04-30T14:06:51.999Z</time></trkpt><trkpt lat="50.24763006199754" lon="4.229433127653957"><ele>226.0</ele><time>2026-04-30T14:06:52.999Z</time></trkpt><trkpt lat="50.247463068512474" lon="4.229550165109146"><ele>226.0</ele><time>2026-04-30T14:06:53.999Z</time></trkpt><trkpt lat="50.247303471656075" lon="4.2296614398925225"><ele>226.0</ele><time>2026-04-30T14:06:54.999Z</time></trkpt><trkpt lat="50.24714690565372" lon="4.229773694564573"><ele>225.33333333333331</ele><time>2026-04-30T14:06:55.999Z</time></trkpt><trkpt lat="50.246990821880374" lon="4.229896087897918"><ele>224.66666666666669</ele><time>2026-04-30T14:06:56.999Z</time></trkpt><trkpt lat="50.24683335169753" lon="4.2300265036102145"><ele>224.0</ele><time>2026-04-30T14:06:57.999Z</time></trkpt><trkpt lat="50.2466807655405" lon="4.230156251950805"><ele>224.0</ele><time>2026-04-30T14:06:58.999Z</time></trkpt><trkpt lat="50.246530576604016" lon="4.230287450171808"><ele>224.0</ele><time>2026-04-30T14:06:59.999Z</time></trkpt><trkpt lat="50.246381024166965" lon="4.230419119504371"><ele>224.0</ele><time>2026-04-30T14:07:00.999Z</time></trkpt><trkpt lat="50.24623341296937" lon="4.230558402444184"><ele>223.33333333333334</ele><time>2026-04-30T14:07:01.999Z</time></trkpt><trkpt lat="50.246081721663025" lon="4.230695149927596"><ele>222.66666666666669</ele><time>2026-04-30T14:07:02.999Z</time></trkpt><trkpt lat="50.24593078219373" lon="4.230828077402569"><ele>222.0</ele><time>2026-04-30T14:07:03.999Z</time></trkpt><trkpt lat="50.24578090846493" lon="4.230953690561829"><ele>222.0</ele><time>2026-04-30T14:07:04.999Z</time></trkpt><trkpt lat="50.245633983232" lon="4.231080330551245"><ele>222.0</ele><time>2026-04-30T14:07:05.999Z</time></trkpt><trkpt lat="50.24548686152139" lon="4.231207457844818"><ele>222.0</ele><time>2026-04-30T14:07:06.999Z</time></trkpt><trkpt lat="50.24533764897309" lon="4.231336360642359"><ele>222.0</ele><time>2026-04-30T14:07:07.999Z</time></trkpt><trkpt lat="50.24518244626753" lon="4.231462076643646"><ele>222.0</ele><time>2026-04-30T14:07:08.999Z</time></trkpt><trkpt lat="50.24503693297562" lon="4.23160119192186"><ele>222.0</ele><time>2026-04-30T14:07:09.999Z</time></trkpt><trkpt lat="50.24488985894071" lon="4.231733030405075"><ele>221.0</ele><time>2026-04-30T14:07:10.999Z</time></trkpt><trkpt lat="50.24473860018443" lon="4.231870541220589"><ele>220.0</ele><time>2026-04-30T14:07:11.999Z</time></trkpt><trkpt lat="50.24458587895754" lon="4.232011571526925"><ele>219.0</ele><time>2026-04-30T14:07:12.999Z</time></trkpt><trkpt lat="50.24442944881637" lon="4.232144583614309"><ele>219.0</ele><time>2026-04-30T14:07:13.999Z</time></trkpt><trkpt lat="50.24427649971567" lon="4.232280440307457"><ele>219.0</ele><time>2026-04-30T14:07:14.999Z</time></trkpt><trkpt lat="50.244131808904356" lon="4.232407485354444"><ele>219.0</ele><time>2026-04-30T14:07:15.999Z</time></trkpt><trkpt lat="50.24399794020752" lon="4.232508189297452"><ele>219.25</ele><time>2026-04-30T14:07:16.999Z</time></trkpt><trkpt lat="50.243883803632734" lon="4.232590031717206"><ele>219.5</ele><time>2026-04-30T14:07:17.999Z</time></trkpt><trkpt lat="50.24377884021216" lon="4.23271712711837"><ele>219.75</ele><time>2026-04-30T14:07:18.999Z</time></trkpt><trkpt lat="50.24365344981432" lon="4.232829323394567"><ele>220.0</ele><time>2026-04-30T14:07:19.999Z</time></trkpt><trkpt lat="50.24351078827466" lon="4.2329531258440465"><ele>220.0</ele><time>2026-04-30T14:07:20.999Z</time></trkpt><trkpt lat="50.24335368761583" lon="4.233084773372584"><ele>220.0</ele><time>2026-04-30T14:07:21.999Z</time></trkpt><trkpt lat="50.24318743206306" lon="4.233231826305008"><ele>220.0</ele><time>2026-04-30T14:07:22.999Z</time></trkpt><trkpt lat="50.243022597098225" lon="4.23338217353718"><ele>218.66666666666666</ele><time>2026-04-30T14:07:23.999Z</time></trkpt><trkpt lat="50.242864958505166" lon="4.233533062993658"><ele>217.33333333333331</ele><time>2026-04-30T14:07:24.999Z</time></trkpt><trkpt lat="50.242703006014125" lon="4.233691300807335"><ele>216.0</ele><time>2026-04-30T14:07:25.999Z</time></trkpt><trkpt lat="50.24254647512822" lon="4.233849634185137"><ele>215.66666666666669</ele><time>2026-04-30T14:07:26.999Z</time></trkpt><trkpt lat="50.24239366667861" lon="4.23401513476562"><ele>215.33333333333334</ele><time>2026-04-30T14:07:27.999Z</time></trkpt><trkpt lat="50.242247113455775" lon="4.234184587486628"><ele>215.0</ele><time>2026-04-30T14:07:28.999Z</time></trkpt><trkpt lat="50.2421000579808" lon="4.234359300370102"><ele>213.66666666666669</ele><time>2026-04-30T14:07:29.999Z</time></trkpt><trkpt lat="50.24195529772057" lon="4.234522768507246"><ele>212.33333333333331</ele><time>2026-04-30T14:07:30.999Z</time></trkpt><trkpt lat="50.24181568494228" lon="4.234680464839877"><ele>211.0</ele><time>2026-04-30T14:07:31.999Z</time></trkpt><trkpt lat="50.241678977072304" lon="4.234840340460101"><ele>210.66666666666666</ele><time>2026-04-30T14:07:32.999Z</time></trkpt><trkpt lat="50.24154499891416" lon="4.235004026987522"><ele>210.33333333333331</ele><time>2026-04-30T14:07:33.999Z</time></trkpt><trkpt lat="50.24140859741024" lon="4.235164855145002"><ele>210.0</ele><time>2026-04-30T14:07:34.999Z</time></trkpt><trkpt lat="50.24127203463432" lon="4.235324979553841"><ele>208.66666666666669</ele><time>2026-04-30T14:07:35.999Z</time></trkpt><trkpt lat="50.241133038086865" lon="4.235488440243302"><ele>207.33333333333334</ele><time>2026-04-30T14:07:36.999Z</time></trkpt><trkpt lat="50.240991027862385" lon="4.235653663134758"><ele>206.0</ele><time>2026-04-30T14:07:37.999Z</time></trkpt><trkpt lat="50.240853072239865" lon="4.235815972084553"><ele>205.33333333333334</ele><time>2026-04-30T14:07:38.999Z</time></trkpt><trkpt lat="50.240712029632235" lon="4.235980362779038"><ele>204.66666666666669</ele><time>2026-04-30T14:07:39.999Z</time></trkpt><trkpt lat="50.2405741574669" lon="4.236143168948044"><ele>204.0</ele><time>2026-04-30T14:07:40.999Z</time></trkpt><trkpt lat="50.240434897085706" lon="4.2363096809658405"><ele>202.0</ele><time>2026-04-30T14:07:41.999Z</time></trkpt><trkpt lat="50.24029313485384" lon="4.236477272812928"><ele>200.0</ele><time>2026-04-30T14:07:42.999Z</time></trkpt><trkpt lat="50.240152396860445" lon="4.236645643798456"><ele>198.0</ele><time>2026-04-30T14:07:43.999Z</time></trkpt><trkpt lat="50.24000990718445" lon="4.2368114046985665"><ele>198.0</ele><time>2026-04-30T14:07:44.999Z</time></trkpt><trkpt lat="50.2398706043451" lon="4.236960496980687"><ele>198.0</ele><time>2026-04-30T14:07:45.999Z</time></trkpt><trkpt lat="50.239736440747734" lon="4.237099730570639"><ele>198.0</ele><time>2026-04-30T14:07:46.999Z</time></trkpt><trkpt lat="50.23961753099247" lon="4.237220818763113"><ele>199.4</ele><time>2026-04-30T14:07:47.999Z</time></trkpt><trkpt lat="50.23952031111295" lon="4.237329660611511"><ele>200.8</ele><time>2026-04-30T14:07:48.999Z</time></trkpt><trkpt lat="50.239423655410796" lon="4.237405710886064"><ele>202.2</ele><time>2026-04-30T14:07:49.999Z</time></trkpt><trkpt lat="50.23935796348227" lon="4.23750516469265"><ele>203.6</ele><time>2026-04-30T14:07:50.999Z</time></trkpt><trkpt lat="50.23929387625735" lon="4.23760033222931"><ele>205.0</ele><time>2026-04-30T14:07:51.999Z</time></trkpt><trkpt lat="50.23922759811777" lon="4.237668858422177"><ele>205.0</ele><time>2026-04-30T14:07:52.999Z</time></trkpt><trkpt lat="50.23915663668995" lon="4.2376977036238435"><ele>205.0</ele><time>2026-04-30T14:07:53.999Z</time></trkpt><trkpt lat="50.23909085957968" lon="4.237686560746063"><ele>205.0</ele><time>2026-04-30T14:07:54.999Z</time></trkpt><trkpt lat="50.23903614070683" lon="4.237635011329635"><ele>205.0</ele><time>2026-04-30T14:07:55.999Z</time></trkpt><trkpt lat="50.23897177351453" lon="4.237593485590991"><ele>205.0</ele><time>2026-04-30T14:07:56.999Z</time></trkpt><trkpt lat="50.23891054404687" lon="4.23754146852207"><ele>205.0</ele><time>2026-04-30T14:07:57.999Z</time></trkpt><trkpt lat="50.2388499117852" lon="4.237431607105868"><ele>205.0</ele><time>2026-04-30T14:07:59.999Z</time></trkpt><trkpt lat="50.238831851820116" lon="4.237314096927307"><ele>207.2</ele><time>2026-04-30T14:08:01.999Z</time></trkpt><trkpt lat="50.238798053977064" lon="4.237196726826696"><ele>209.4</ele><time>2026-04-30T14:08:04Z</time></trkpt><trkpt lat="50.238778431713186" lon="4.237066995680347"><ele>211.60000000000002</ele><time>2026-04-30T14:08:06Z</time></trkpt><trkpt lat="50.23874645582101" lon="4.236949036970884"><ele>213.8</ele><time>2026-04-30T14:08:08Z</time></trkpt><trkpt lat="50.23872220965684" lon="4.23677669145205"><ele>216.0</ele><time>2026-04-30T14:08:10Z</time></trkpt><trkpt lat="50.238682704651616" lon="4.236587104405519"><ele>216.0</ele><time>2026-04-30T14:08:12Z</time></trkpt><trkpt lat="50.23864899062468" lon="4.236471422673021"><ele>216.0</ele><time>2026-04-30T14:08:13Z</time></trkpt><trkpt lat="50.238639037650074" lon="4.236338684587565"><ele>216.0</ele><time>2026-04-30T14:08:14Z</time></trkpt><trkpt lat="50.23861478320855" lon="4.236235026029885"><ele>216.0</ele><time>2026-04-30T14:08:15Z</time></trkpt><trkpt lat="50.238592505937845" lon="4.236097820754787"><ele>216.0</ele><time>2026-04-30T14:08:16Z</time></trkpt><trkpt lat="50.23856645876433" lon="4.235970492536111"><ele>216.0</ele><time>2026-04-30T14:08:17Z</time></trkpt><trkpt lat="50.23854317180852" lon="4.235835279723358"><ele>216.0</ele><time>2026-04-30T14:08:18Z</time></trkpt><trkpt lat="50.2385203569875" lon="4.235693896785728"><ele>216.0</ele><time>2026-04-30T14:08:19Z</time></trkpt><trkpt lat="50.23850247416315" lon="4.235559253000512"><ele>216.0</ele><time>2026-04-30T14:08:20Z</time></trkpt><trkpt lat="50.2384834664545" lon="4.235436187049513"><ele>216.0</ele><time>2026-04-30T14:08:21Z</time></trkpt><trkpt lat="50.23846563428574" lon="4.2353165790984795"><ele>216.0</ele><time>2026-04-30T14:08:21.999Z</time></trkpt><trkpt lat="50.23844637817792" lon="4.23518880603712"><ele>216.0</ele><time>2026-04-30T14:08:22.999Z</time></trkpt><trkpt lat="50.23842248205431" lon="4.235059544728031"><ele>215.66666666666666</ele><time>2026-04-30T14:08:23.999Z</time></trkpt><trkpt lat="50.238410405894825" lon="4.234932066439775"><ele>215.33333333333331</ele><time>2026-04-30T14:08:24.999Z</time></trkpt><trkpt lat="50.23837805190695" lon="4.234837825664456"><ele>215.0</ele><time>2026-04-30T14:08:25.999Z</time></trkpt><trkpt lat="50.23833810824384" lon="4.234723285681761"><ele>214.66666666666666</ele><time>2026-04-30T14:08:27.999Z</time></trkpt><trkpt lat="50.23829031024567" lon="4.234607457013326"><ele>214.33333333333331</ele><time>2026-04-30T14:08:29.998Z</time></trkpt><trkpt lat="50.238249077011844" lon="4.234527789015661"><ele>214.0</ele><time>2026-04-30T14:08:30.998Z</time></trkpt><trkpt lat="50.23817094300156" lon="4.234419483070652"><ele>214.16666666666666</ele><time>2026-04-30T14:08:32.998Z</time></trkpt><trkpt lat="50.2381128249647" lon="4.234380247519051"><ele>214.33333333333331</ele><time>2026-04-30T14:08:34.998Z</time></trkpt><trkpt lat="50.23804012653023" lon="4.234403816949831"><ele>214.5</ele><time>2026-04-30T14:08:36.998Z</time></trkpt><trkpt lat="50.237944523960856" lon="4.234437924931486"><ele>214.66666666666669</ele><time>2026-04-30T14:08:38.998Z</time></trkpt><trkpt lat="50.237898546584844" lon="4.234531118610415"><ele>214.83333333333334</ele><time>2026-04-30T14:08:40.998Z</time></trkpt><trkpt lat="50.23779848789542" lon="4.2346200442931154"><ele>215.0</ele><time>2026-04-30T14:08:42.998Z</time></trkpt><trkpt lat="50.23771008499799" lon="4.2347301127664565"><ele>215.50000000000003</ele><time>2026-04-30T14:08:44.998Z</time></trkpt><trkpt lat="50.23767650109278" lon="4.234821763266117"><ele>216.0</ele><time>2026-04-30T14:08:45.997Z</time></trkpt><trkpt lat="50.23761575302246" lon="4.2348848124822975"><ele>216.5</ele><time>2026-04-30T14:08:46.997Z</time></trkpt><trkpt lat="50.23755966370936" lon="4.234950489277265"><ele>217.0</ele><time>2026-04-30T14:08:47.997Z</time></trkpt><trkpt lat="50.237497566446194" lon="4.235023996095293"><ele>217.50000000000003</ele><time>2026-04-30T14:08:48.997Z</time></trkpt><trkpt lat="50.237416206415354" lon="4.235108928438464"><ele>218.0</ele><time>2026-04-30T14:08:50.997Z</time></trkpt><trkpt lat="50.23733457611622" lon="4.235214387007046"><ele>217.4</ele><time>2026-04-30T14:08:52.997Z</time></trkpt><trkpt lat="50.237252513266945" lon="4.2352652643415265"><ele>216.8</ele><time>2026-04-30T14:08:54.997Z</time></trkpt><trkpt lat="50.23719714933195" lon="4.235329113387564"><ele>216.2</ele><time>2026-04-30T14:08:56.997Z</time></trkpt><trkpt lat="50.23713802452931" lon="4.235399823102456"><ele>215.6</ele><time>2026-04-30T14:08:58.997Z</time></trkpt><trkpt lat="50.23705851767926" lon="4.235496840862273"><ele>215.0</ele><time>2026-04-30T14:09:00.997Z</time></trkpt><trkpt lat="50.23697449017661" lon="4.235626185788124"><ele>215.7142857142857</ele><time>2026-04-30T14:09:02.997Z</time></trkpt><trkpt lat="50.236923886795815" lon="4.235723082618446"><ele>216.42857142857144</ele><time>2026-04-30T14:09:04.997Z</time></trkpt><trkpt lat="50.23688194884334" lon="4.23580629311172"><ele>217.14285714285714</ele><time>2026-04-30T14:09:07.997Z</time></trkpt><trkpt lat="50.23684993297682" lon="4.235924587209189"><ele>217.85714285714283</ele><time>2026-04-30T14:09:11.997Z</time></trkpt><trkpt lat="50.23681968241652" lon="4.236027120688423"><ele>218.57142857142856</ele><time>2026-04-30T14:09:15.997Z</time></trkpt><trkpt lat="50.2367931663092" lon="4.236126374788609"><ele>219.28571428571428</ele><time>2026-04-30T14:09:20.997Z</time></trkpt><trkpt lat="50.236756109012894" lon="4.236219455684557"><ele>220.0</ele><time>2026-04-30T14:09:29.997Z</time></trkpt><trkpt lat="50.23672040647789" lon="4.236301809169485"><ele>220.0</ele><time>2026-04-30T14:10:05.996Z</time></trkpt><trkpt lat="50.236655180175255" lon="4.236409018358322"><ele>220.0</ele><time>2026-04-30T14:10:07.996Z</time></trkpt><trkpt lat="50.23658378324734" lon="4.236493049201748"><ele>220.0</ele><time>2026-04-30T14:10:10.998Z</time></trkpt><trkpt lat="50.236479386441424" lon="4.236577068783511"><ele>220.0</ele><time>2026-04-30T14:10:12.998Z</time></trkpt><trkpt lat="50.23641521213465" lon="4.236642454390512"><ele>220.0</ele><time>2026-04-30T14:10:13.998Z</time></trkpt><trkpt lat="50.236327948518024" lon="4.236705989173194"><ele>220.33333333333331</ele><time>2026-04-30T14:10:15.999Z</time></trkpt><trkpt lat="50.2362466041957" lon="4.236757573390348"><ele>220.66666666666666</ele><time>2026-04-30T14:10:17.999Z</time></trkpt><trkpt lat="50.2361503007662" lon="4.23681402846278"><ele>221.0</ele><time>2026-04-30T14:10:19.999Z</time></trkpt><trkpt lat="50.236053359287205" lon="4.236871448334452"><ele>221.33333333333331</ele><time>2026-04-30T14:10:21.999Z</time></trkpt><trkpt lat="50.235980326924384" lon="4.2369135402691"><ele>221.66666666666666</ele><time>2026-04-30T14:10:23.999Z</time></trkpt><trkpt lat="50.23591107508561" lon="4.236959423156717"><ele>222.0</ele><time>2026-04-30T14:10:25.999Z</time></trkpt><trkpt lat="50.23585310636765" lon="4.2370452948291755"><ele>222.0</ele><time>2026-04-30T14:10:28Z</time></trkpt><trkpt lat="50.23580562665597" lon="4.237148045836232"><ele>222.0</ele><time>2026-04-30T14:10:30Z</time></trkpt><trkpt lat="50.23576437758372" lon="4.237258448339071"><ele>222.0</ele><time>2026-04-30T14:10:32Z</time></trkpt><trkpt lat="50.23573513215943" lon="4.237350837298181"><ele>222.0</ele><time>2026-04-30T14:10:34Z</time></trkpt><trkpt lat="50.235705642523236" lon="4.237440457122181"><ele>222.0</ele><time>2026-04-30T14:10:36Z</time></trkpt><trkpt lat="50.235666800923326" lon="4.237537504799474"><ele>222.0</ele><time>2026-04-30T14:10:38Z</time></trkpt><trkpt lat="50.23562584022753" lon="4.237633754153788"><ele>222.0</ele><time>2026-04-30T14:10:40Z</time></trkpt><trkpt lat="50.23558601801866" lon="4.237733003569023"><ele>222.16666666666666</ele><time>2026-04-30T14:10:42Z</time></trkpt><trkpt lat="50.23554043525291" lon="4.237829539160798"><ele>222.33333333333331</ele><time>2026-04-30T14:10:44Z</time></trkpt><trkpt lat="50.23550469259949" lon="4.237949206927315"><ele>222.5</ele><time>2026-04-30T14:10:46Z</time></trkpt><trkpt lat="50.235468530483146" lon="4.238070837311998"><ele>222.66666666666666</ele><time>2026-04-30T14:10:48Z</time></trkpt><trkpt lat="50.23542734568344" lon="4.238204381454608"><ele>222.83333333333331</ele><time>2026-04-30T14:10:50Z</time></trkpt><trkpt lat="50.23537852827899" lon="4.2383464166254985"><ele>223.0</ele><time>2026-04-30T14:10:52Z</time></trkpt><trkpt lat="50.235337665755665" lon="4.238467900762877"><ele>223.0</ele><time>2026-04-30T14:10:54Z</time></trkpt><trkpt lat="50.23527476885794" lon="4.2385837780778886"><ele>223.0</ele><time>2026-04-30T14:10:56Z</time></trkpt><trkpt lat="50.23522207445533" lon="4.238639642488757"><ele>223.0</ele><time>2026-04-30T14:10:57Z</time></trkpt><trkpt lat="50.235161629230724" lon="4.238671370273543"><ele>223.0</ele><time>2026-04-30T14:10:58Z</time></trkpt><trkpt lat="50.23505071038115" lon="4.238690531839959"><ele>223.0</ele><time>2026-04-30T14:11:00Z</time></trkpt><trkpt lat="50.23498906390708" lon="4.238874411461203"><ele>222.49999999999997</ele><time>2026-04-30T14:11:02Z</time></trkpt><trkpt lat="50.23497048247211" lon="4.2389938340368"><ele>222.0</ele><time>2026-04-30T14:11:03Z</time></trkpt><trkpt lat="50.23496926038241" lon="4.239110058703734"><ele>221.5</ele><time>2026-04-30T14:11:04Z</time></trkpt><trkpt lat="50.23498840122693" lon="4.239228115246059"><ele>221.0</ele><time>2026-04-30T14:11:05Z</time></trkpt><trkpt lat="50.235028114606834" lon="4.239335119120999"><ele>220.49999999999997</ele><time>2026-04-30T14:11:06Z</time></trkpt><trkpt lat="50.23508656841821" lon="4.23941552457769"><ele>220.0</ele><time>2026-04-30T14:11:07Z</time></trkpt><trkpt lat="50.23516260229018" lon="4.239456583343194"><ele>220.0</ele><time>2026-04-30T14:11:08Z</time></trkpt><trkpt lat="50.235251554031436" lon="4.239464375160366"><ele>220.0</ele><time>2026-04-30T14:11:09Z</time></trkpt><trkpt lat="50.23534534535203" lon="4.2394502179504405"><ele>220.0</ele><time>2026-04-30T14:11:10Z</time></trkpt><trkpt lat="50.235445134002454" lon="4.239443869592701"><ele>220.0</ele><time>2026-04-30T14:11:11Z</time></trkpt><trkpt lat="50.23554074673786" lon="4.239440154067478"><ele>220.0</ele><time>2026-04-30T14:11:12Z</time></trkpt><trkpt lat="50.23563282922416" lon="4.239426168260513"><ele>220.0</ele><time>2026-04-30T14:11:13Z</time></trkpt><trkpt lat="50.235731310982466" lon="4.239374598440715"><ele>220.0</ele><time>2026-04-30T14:11:14Z</time></trkpt><trkpt lat="50.235838859324964" lon="4.239338881260871"><ele>220.0</ele><time>2026-04-30T14:11:15Z</time></trkpt><trkpt lat="50.23595926265147" lon="4.239310581176677"><ele>220.0</ele><time>2026-04-30T14:11:16Z</time></trkpt><trkpt lat="50.236078746614155" lon="4.239303283818083"><ele>220.0</ele><time>2026-04-30T14:11:17Z</time></trkpt><trkpt lat="50.236203718925644" lon="4.239321737701358"><ele>220.0</ele><time>2026-04-30T14:11:18Z</time></trkpt><trkpt lat="50.236329925070905" lon="4.239353025087315"><ele>220.0</ele><time>2026-04-30T14:11:19Z</time></trkpt><trkpt lat="50.23645849610219" lon="4.239356278325743"><ele>220.0</ele><time>2026-04-30T14:11:20Z</time></trkpt><trkpt lat="50.23658540882371" lon="4.239373828900129"><ele>220.4</ele><time>2026-04-30T14:11:21Z</time></trkpt><trkpt lat="50.23669783999592" lon="4.239378357777784"><ele>220.8</ele><time>2026-04-30T14:11:22Z</time></trkpt><trkpt lat="50.23680102209309" lon="4.2393686021368175"><ele>221.2</ele><time>2026-04-30T14:11:23Z</time></trkpt><trkpt lat="50.23689444551038" lon="4.2393589018795845"><ele>221.6</ele><time>2026-04-30T14:11:24Z</time></trkpt><trkpt lat="50.23697410908848" lon="4.239350316718768"><ele>222.0</ele><time>2026-04-30T14:11:25Z</time></trkpt><trkpt lat="50.237039362379626" lon="4.2393414929525335"><ele>222.0</ele><time>2026-04-30T14:11:26Z</time></trkpt><trkpt lat="50.2371411502243" lon="4.239370460926635"><ele>222.0</ele><time>2026-04-30T14:11:28Z</time></trkpt><trkpt lat="50.237180910032066" lon="4.23952264123555"><ele>222.0</ele><time>2026-04-30T14:11:30Z</time></trkpt><trkpt lat="50.23718123130139" lon="4.239644244389052"><ele>222.0</ele><time>2026-04-30T14:11:31Z</time></trkpt><trkpt lat="50.23718596495681" lon="4.239777507913133"><ele>222.0</ele><time>2026-04-30T14:11:32Z</time></trkpt><trkpt lat="50.23719035547844" lon="4.239935961019043"><ele>221.75</ele><time>2026-04-30T14:11:33Z</time></trkpt><trkpt lat="50.23719887375832" lon="4.240113314230848"><ele>221.5</ele><time>2026-04-30T14:11:34Z</time></trkpt><trkpt lat="50.23721574866898" lon="4.240309332823634"><ele>221.25</ele><time>2026-04-30T14:11:35Z</time></trkpt><trkpt lat="50.23722869479866" lon="4.240520872215206"><ele>221.0</ele><time>2026-04-30T14:11:36Z</time></trkpt><trkpt lat="50.237243870788774" lon="4.240746987287114"><ele>220.25</ele><time>2026-04-30T14:11:37Z</time></trkpt><trkpt lat="50.23726082020865" lon="4.240975150789325"><ele>219.5</ele><time>2026-04-30T14:11:38Z</time></trkpt><trkpt lat="50.23727356798781" lon="4.241198166006865"><ele>218.75</ele><time>2026-04-30T14:11:39Z</time></trkpt><trkpt lat="50.23728511663508" lon="4.241427148574547"><ele>218.0</ele><time>2026-04-30T14:11:40Z</time></trkpt><trkpt lat="50.23729702513024" lon="4.241656460154364"><ele>218.5</ele><time>2026-04-30T14:11:41Z</time></trkpt><trkpt lat="50.23731174091835" lon="4.241900690781955"><ele>219.0</ele><time>2026-04-30T14:11:42Z</time></trkpt><trkpt lat="50.23732617954427" lon="4.242126787952878"><ele>219.5</ele><time>2026-04-30T14:11:43Z</time></trkpt><trkpt lat="50.237339572692846" lon="4.242343595750303"><ele>220.0</ele><time>2026-04-30T14:11:44Z</time></trkpt><trkpt lat="50.237354720033885" lon="4.242553206937129"><ele>220.0</ele><time>2026-04-30T14:11:44.999Z</time></trkpt><trkpt lat="50.23735488133096" lon="4.242775078861301"><ele>220.0</ele><time>2026-04-30T14:11:45.999Z</time></trkpt><trkpt lat="50.237366903948626" lon="4.242995786026318"><ele>220.0</ele><time>2026-04-30T14:11:46.999Z</time></trkpt><trkpt lat="50.2373870790494" lon="4.243197198357818"><ele>220.0</ele><time>2026-04-30T14:11:47.999Z</time></trkpt><trkpt lat="50.23739808692786" lon="4.243407845737676"><ele>219.75</ele><time>2026-04-30T14:11:48.999Z</time></trkpt><trkpt lat="50.23740621553727" lon="4.243625044670314"><ele>219.5</ele><time>2026-04-30T14:11:49.999Z</time></trkpt><trkpt lat="50.23741807461839" lon="4.243841539124612"><ele>219.25</ele><time>2026-04-30T14:11:50.999Z</time></trkpt><trkpt lat="50.237429835820386" lon="4.244063162609249"><ele>219.0</ele><time>2026-04-30T14:11:51.999Z</time></trkpt><trkpt lat="50.23744120878741" lon="4.244290600532622"><ele>218.75</ele><time>2026-04-30T14:11:52.999Z</time></trkpt><trkpt lat="50.23745227105297" lon="4.244516450471248"><ele>218.5</ele><time>2026-04-30T14:11:53.999Z</time></trkpt><trkpt lat="50.23746521520236" lon="4.244754243567063"><ele>218.25</ele><time>2026-04-30T14:11:54.999Z</time></trkpt><trkpt lat="50.23747944132344" lon="4.244989104196042"><ele>218.0</ele><time>2026-04-30T14:11:55.999Z</time></trkpt><trkpt lat="50.237495749622624" lon="4.245229726324804"><ele>217.75</ele><time>2026-04-30T14:11:56.999Z</time></trkpt><trkpt lat="50.23750932335838" lon="4.245466365245182"><ele>217.5</ele><time>2026-04-30T14:11:57.999Z</time></trkpt><trkpt lat="50.23751937258842" lon="4.245700306808641"><ele>217.25</ele><time>2026-04-30T14:11:58.999Z</time></trkpt><trkpt lat="50.23753336780175" lon="4.245926158010477"><ele>217.0</ele><time>2026-04-30T14:11:59.999Z</time></trkpt><trkpt lat="50.23754437640374" lon="4.24615045842002"><ele>217.0</ele><time>2026-04-30T14:12:00.999Z</time></trkpt><trkpt lat="50.237556262129004" lon="4.2463603720183665"><ele>217.0</ele><time>2026-04-30T14:12:01.999Z</time></trkpt><trkpt lat="50.2375629363357" lon="4.24655593101252"><ele>217.0</ele><time>2026-04-30T14:12:02.999Z</time></trkpt><trkpt lat="50.23757735568582" lon="4.2467349334699245"><ele>217.0</ele><time>2026-04-30T14:12:03.999Z</time></trkpt><trkpt lat="50.237594131098824" lon="4.246931355983283"><ele>216.66666666666666</ele><time>2026-04-30T14:12:04.999Z</time></trkpt><trkpt lat="50.23761587082227" lon="4.247170188937218"><ele>216.33333333333331</ele><time>2026-04-30T14:12:05.999Z</time></trkpt><trkpt lat="50.23763460180525" lon="4.247422150113609"><ele>216.0</ele><time>2026-04-30T14:12:06.999Z</time></trkpt><trkpt lat="50.23761629093838" lon="4.247696337178298"><ele>216.0</ele><time>2026-04-30T14:12:07.999Z</time></trkpt><trkpt lat="50.23763120942247" lon="4.247980470683409"><ele>216.0</ele><time>2026-04-30T14:12:08.999Z</time></trkpt><trkpt lat="50.23765325882458" lon="4.248273803763447"><ele>216.0</ele><time>2026-04-30T14:12:09.999Z</time></trkpt><trkpt lat="50.237666136617946" lon="4.248570620531352"><ele>216.0</ele><time>2026-04-30T14:12:10.999Z</time></trkpt><trkpt lat="50.23768081356572" lon="4.248871786917468"><ele>216.0</ele><time>2026-04-30T14:12:11.999Z</time></trkpt><trkpt lat="50.23769557890442" lon="4.2491504631871475"><ele>216.0</ele><time>2026-04-30T14:12:12.999Z</time></trkpt><trkpt lat="50.237709439548276" lon="4.249425801315241"><ele>216.66666666666669</ele><time>2026-04-30T14:12:13.999Z</time></trkpt><trkpt lat="50.237726388910566" lon="4.249699073281818"><ele>217.33333333333334</ele><time>2026-04-30T14:12:15.001Z</time></trkpt><trkpt lat="50.2377450357063" lon="4.249973210406829"><ele>218.0</ele><time>2026-04-30T14:12:16.001Z</time></trkpt><trkpt lat="50.237759930387895" lon="4.25024606395869"><ele>218.0</ele><time>2026-04-30T14:12:17.001Z</time></trkpt><trkpt lat="50.237771634479" lon="4.25052379239657"><ele>218.0</ele><time>2026-04-30T14:12:18.001Z</time></trkpt><trkpt lat="50.237786158851286" lon="4.250808161938581"><ele>218.0</ele><time>2026-04-30T14:12:19.001Z</time></trkpt><trkpt lat="50.237801449812665" lon="4.251099597651725"><ele>218.0</ele><time>2026-04-30T14:12:20.001Z</time></trkpt><trkpt lat="50.237814823889934" lon="4.251384719752534"><ele>218.0</ele><time>2026-04-30T14:12:21.001Z</time></trkpt><trkpt lat="50.2378286740704" lon="4.2516665149912205"><ele>218.0</ele><time>2026-04-30T14:12:22.001Z</time></trkpt><trkpt lat="50.23784107084894" lon="4.251945726258144"><ele>218.0</ele><time>2026-04-30T14:12:23.001Z</time></trkpt><trkpt lat="50.237856004214414" lon="4.252220634160512"><ele>218.0</ele><time>2026-04-30T14:12:24.001Z</time></trkpt><trkpt lat="50.23786755597657" lon="4.252497609074055"><ele>218.0</ele><time>2026-04-30T14:12:25.001Z</time></trkpt><trkpt lat="50.23788048340148" lon="4.252772336354392"><ele>217.66666666666669</ele><time>2026-04-30T14:12:26.001Z</time></trkpt><trkpt lat="50.23789497933744" lon="4.253047293697506"><ele>217.33333333333331</ele><time>2026-04-30T14:12:27.001Z</time></trkpt><trkpt lat="50.23790857997552" lon="4.253326630071259"><ele>217.0</ele><time>2026-04-30T14:12:28.001Z</time></trkpt><trkpt lat="50.23792358415343" lon="4.25361216605665"><ele>217.66666666666666</ele><time>2026-04-30T14:12:29.001Z</time></trkpt><trkpt lat="50.237938962386615" lon="4.253906536806526"><ele>218.33333333333331</ele><time>2026-04-30T14:12:30.001Z</time></trkpt><trkpt lat="50.23795210229343" lon="4.254206913103186"><ele>219.0</ele><time>2026-04-30T14:12:31.001Z</time></trkpt><trkpt lat="50.23796773083143" lon="4.25452235688784"><ele>218.66666666666669</ele><time>2026-04-30T14:12:32.001Z</time></trkpt><trkpt lat="50.23798514322833" lon="4.2548419972017735"><ele>218.33333333333334</ele><time>2026-04-30T14:12:33.001Z</time></trkpt><trkpt lat="50.23800377780444" lon="4.255169587625272"><ele>218.0</ele><time>2026-04-30T14:12:34.001Z</time></trkpt><trkpt lat="50.23802089602491" lon="4.255487242348482"><ele>217.33333333333334</ele><time>2026-04-30T14:12:35.001Z</time></trkpt><trkpt lat="50.23803738100685" lon="4.255797010477214"><ele>216.66666666666669</ele><time>2026-04-30T14:12:36.001Z</time></trkpt><trkpt lat="50.23805150004073" lon="4.256102692018766"><ele>216.0</ele><time>2026-04-30T14:12:37.001Z</time></trkpt><trkpt lat="50.238060150460115" lon="4.256417140277796"><ele>216.0</ele><time>2026-04-30T14:12:38.001Z</time></trkpt><trkpt lat="50.23806099639376" lon="4.256734702379268"><ele>216.0</ele><time>2026-04-30T14:12:39Z</time></trkpt><trkpt lat="50.23803944657578" lon="4.257047859057653"><ele>216.0</ele><time>2026-04-30T14:12:40Z</time></trkpt><trkpt lat="50.238005802047866" lon="4.25735605239206"><ele>216.0</ele><time>2026-04-30T14:12:41Z</time></trkpt><trkpt lat="50.2379579475509" lon="4.257664192115574"><ele>216.0</ele><time>2026-04-30T14:12:42Z</time></trkpt><trkpt lat="50.237893489324385" lon="4.257966547903286"><ele>216.0</ele><time>2026-04-30T14:12:43Z</time></trkpt><trkpt lat="50.23781204128158" lon="4.2582650643725986"><ele>216.66666666666669</ele><time>2026-04-30T14:12:44Z</time></trkpt><trkpt lat="50.23771100749691" lon="4.258556211599987"><ele>217.33333333333334</ele><time>2026-04-30T14:12:45Z</time></trkpt><trkpt lat="50.23760277148437" lon="4.258849519542194"><ele>218.0</ele><time>2026-04-30T14:12:46Z</time></trkpt><trkpt lat="50.23747321167172" lon="4.259136137056551"><ele>220.0</ele><time>2026-04-30T14:12:47Z</time></trkpt><trkpt lat="50.237324614337396" lon="4.259406418879895"><ele>222.0</ele><time>2026-04-30T14:12:48Z</time></trkpt><trkpt lat="50.2371622094845" lon="4.259667474149562"><ele>223.5</ele><time>2026-04-30T14:12:49Z</time></trkpt><trkpt lat="50.236992671015734" lon="4.2599317557450265"><ele>225.0</ele><time>2026-04-30T14:12:50Z</time></trkpt><trkpt lat="50.23681924364005" lon="4.260205379174751"><ele>225.0</ele><time>2026-04-30T14:12:51Z</time></trkpt><trkpt lat="50.236644400394006" lon="4.260492567580475"><ele>225.0</ele><time>2026-04-30T14:12:52Z</time></trkpt><trkpt lat="50.236462684343664" lon="4.260802707608633"><ele>227.0</ele><time>2026-04-30T14:12:53Z</time></trkpt><trkpt lat="50.236276304831435" lon="4.26112171661423"><ele>229.0</ele><time>2026-04-30T14:12:54Z</time></trkpt><trkpt lat="50.236083087635436" lon="4.261448346928219"><ele>229.0</ele><time>2026-04-30T14:12:55Z</time></trkpt><trkpt lat="50.23589290582296" lon="4.261772188969565"><ele>229.0</ele><time>2026-04-30T14:12:56Z</time></trkpt><trkpt lat="50.23571891605635" lon="4.262053058647953"><ele>228.5</ele><time>2026-04-30T14:12:57Z</time></trkpt><trkpt lat="50.23555820446066" lon="4.262313575480844"><ele>228.0</ele><time>2026-04-30T14:12:58Z</time></trkpt><trkpt lat="50.2353990685658" lon="4.262575562072043"><ele>228.0</ele><time>2026-04-30T14:12:59Z</time></trkpt><trkpt lat="50.23523639783708" lon="4.262844874551063"><ele>228.0</ele><time>2026-04-30T14:13:00Z</time></trkpt><trkpt lat="50.235068911745074" lon="4.263123966033496"><ele>228.5</ele><time>2026-04-30T14:13:01Z</time></trkpt><trkpt lat="50.234894138188295" lon="4.26340982186341"><ele>229.0</ele><time>2026-04-30T14:13:02Z</time></trkpt><trkpt lat="50.234718372601705" lon="4.2637021562078985"><ele>227.0</ele><time>2026-04-30T14:13:03Z</time></trkpt><trkpt lat="50.23453863212911" lon="4.26399840520764"><ele>225.0</ele><time>2026-04-30T14:13:04Z</time></trkpt><trkpt lat="50.234352541863096" lon="4.264305210066122"><ele>225.0</ele><time>2026-04-30T14:13:05Z</time></trkpt><trkpt lat="50.23416554973024" lon="4.264611008544338"><ele>225.0</ele><time>2026-04-30T14:13:06Z</time></trkpt><trkpt lat="50.23397515096167" lon="4.264927683448363"><ele>223.0</ele><time>2026-04-30T14:13:07Z</time></trkpt><trkpt lat="50.23378437554749" lon="4.265247448130954"><ele>221.0</ele><time>2026-04-30T14:13:08Z</time></trkpt><trkpt lat="50.233594530704345" lon="4.265555623130918"><ele>221.5</ele><time>2026-04-30T14:13:09Z</time></trkpt><trkpt lat="50.2334180020315" lon="4.265855341985737"><ele>222.0</ele><time>2026-04-30T14:13:10Z</time></trkpt><trkpt lat="50.23324395918936" lon="4.266148155035723"><ele>220.0</ele><time>2026-04-30T14:13:11Z</time></trkpt><trkpt lat="50.233070042662014" lon="4.266436300850404"><ele>218.0</ele><time>2026-04-30T14:13:12Z</time></trkpt><trkpt lat="50.23289808616318" lon="4.266725685535212"><ele>218.0</ele><time>2026-04-30T14:13:13Z</time></trkpt><trkpt lat="50.232731564337456" lon="4.26699611395793"><ele>218.0</ele><time>2026-04-30T14:13:14Z</time></trkpt><trkpt lat="50.23256857367061" lon="4.267266838606961"><ele>219.0</ele><time>2026-04-30T14:13:15Z</time></trkpt><trkpt lat="50.23240843566329" lon="4.267528984177741"><ele>220.0</ele><time>2026-04-30T14:13:16Z</time></trkpt><trkpt lat="50.232250391153215" lon="4.267791143491831"><ele>220.0</ele><time>2026-04-30T14:13:17Z</time></trkpt><trkpt lat="50.23208689340756" lon="4.2680602261576"><ele>220.0</ele><time>2026-04-30T14:13:18Z</time></trkpt><trkpt lat="50.23191934114107" lon="4.268344589558999"><ele>220.0</ele><time>2026-04-30T14:13:19Z</time></trkpt><trkpt lat="50.23174124763559" lon="4.268646275530379"><ele>220.0</ele><time>2026-04-30T14:13:20Z</time></trkpt><trkpt lat="50.231552718554596" lon="4.268957883001635"><ele>219.0</ele><time>2026-04-30T14:13:21Z</time></trkpt><trkpt lat="50.23135106118665" lon="4.26928997063213"><ele>218.0</ele><time>2026-04-30T14:13:22Z</time></trkpt><trkpt lat="50.23114236055781" lon="4.269633582351806"><ele>218.0</ele><time>2026-04-30T14:13:23Z</time></trkpt><trkpt lat="50.23094463520777" lon="4.2699596688630415"><ele>218.0</ele><time>2026-04-30T14:13:24Z</time></trkpt><trkpt lat="50.230756493498326" lon="4.270272024514784"><ele>218.5</ele><time>2026-04-30T14:13:25Z</time></trkpt><trkpt lat="50.23057192091439" lon="4.270577664125342"><ele>219.0</ele><time>2026-04-30T14:13:26Z</time></trkpt><trkpt lat="50.23038724033476" lon="4.27088387237359"><ele>218.0</ele><time>2026-04-30T14:13:27Z</time></trkpt><trkpt lat="50.23020230498285" lon="4.271191028453713"><ele>217.0</ele><time>2026-04-30T14:13:28Z</time></trkpt><trkpt lat="50.23001613478762" lon="4.271504575238195"><ele>215.0</ele><time>2026-04-30T14:13:29Z</time></trkpt><trkpt lat="50.2298295054088" lon="4.27181774264944"><ele>213.0</ele><time>2026-04-30T14:13:30Z</time></trkpt><trkpt lat="50.22964071071539" lon="4.2721280861351145"><ele>210.0</ele><time>2026-04-30T14:13:31Z</time></trkpt><trkpt lat="50.22945302428702" lon="4.272435024370806"><ele>207.0</ele><time>2026-04-30T14:13:32Z</time></trkpt><trkpt lat="50.229269450957865" lon="4.272739947236812"><ele>207.0</ele><time>2026-04-30T14:13:33Z</time></trkpt><trkpt lat="50.22908577198624" lon="4.273048654749426"><ele>207.0</ele><time>2026-04-30T14:13:34Z</time></trkpt><trkpt lat="50.228904148425094" lon="4.273356764427957"><ele>204.5</ele><time>2026-04-30T14:13:35Z</time></trkpt><trkpt lat="50.22871898639923" lon="4.273660953428601"><ele>202.0</ele><time>2026-04-30T14:13:36Z</time></trkpt><trkpt lat="50.22853926574247" lon="4.2739588471607215"><ele>202.0</ele><time>2026-04-30T14:13:37Z</time></trkpt><trkpt lat="50.228359685646886" lon="4.274247601430872"><ele>202.0</ele><time>2026-04-30T14:13:38Z</time></trkpt><trkpt lat="50.228187561692906" lon="4.274524416087384"><ele>204.5</ele><time>2026-04-30T14:13:39Z</time></trkpt><trkpt lat="50.22802210729142" lon="4.274801449364047"><ele>207.0</ele><time>2026-04-30T14:13:40Z</time></trkpt><trkpt lat="50.22785884327047" lon="4.275071407540533"><ele>207.0</ele><time>2026-04-30T14:13:41Z</time></trkpt><trkpt lat="50.227698207464854" lon="4.275337105351118"><ele>207.0</ele><time>2026-04-30T14:13:42Z</time></trkpt><trkpt lat="50.2275411504106" lon="4.27560470658756"><ele>208.0</ele><time>2026-04-30T14:13:43Z</time></trkpt><trkpt lat="50.22738050588785" lon="4.275870695112118"><ele>209.0</ele><time>2026-04-30T14:13:44Z</time></trkpt><trkpt lat="50.22722115852384" lon="4.276131204607439"><ele>211.5</ele><time>2026-04-30T14:13:45Z</time></trkpt><trkpt lat="50.22706381653454" lon="4.276389117263568"><ele>214.0</ele><time>2026-04-30T14:13:46Z</time></trkpt><trkpt lat="50.226906660610496" lon="4.276650310175948"><ele>215.5</ele><time>2026-04-30T14:13:47Z</time></trkpt><trkpt lat="50.22674757371131" lon="4.276912306759762"><ele>217.0</ele><time>2026-04-30T14:13:48Z</time></trkpt><trkpt lat="50.226591619232416" lon="4.277176973939259"><ele>218.66666666666666</ele><time>2026-04-30T14:13:49Z</time></trkpt><trkpt lat="50.22644015865777" lon="4.277431807354785"><ele>220.33333333333331</ele><time>2026-04-30T14:13:50Z</time></trkpt><trkpt lat="50.22628661442719" lon="4.2776802429137195"><ele>222.0</ele><time>2026-04-30T14:13:50.999Z</time></trkpt><trkpt lat="50.226137998195505" lon="4.2779244410765935"><ele>222.0</ele><time>2026-04-30T14:13:51.999Z</time></trkpt><trkpt lat="50.225990595014835" lon="4.278174450461247"><ele>222.0</ele><time>2026-04-30T14:13:52.999Z</time></trkpt><trkpt lat="50.22584593437756" lon="4.278418758920147"><ele>222.0</ele><time>2026-04-30T14:13:53.999Z</time></trkpt><trkpt lat="50.225699598854426" lon="4.278660947699918"><ele>220.66666666666669</ele><time>2026-04-30T14:13:54.999Z</time></trkpt><trkpt lat="50.22556024635205" lon="4.278885980667751"><ele>219.33333333333334</ele><time>2026-04-30T14:13:55.999Z</time></trkpt><trkpt lat="50.225426813871145" lon="4.279107896746004"><ele>218.0</ele><time>2026-04-30T14:13:56.999Z</time></trkpt><trkpt lat="50.22530139691017" lon="4.279335108376647"><ele>218.0</ele><time>2026-04-30T14:13:57.999Z</time></trkpt><trkpt lat="50.22517969981949" lon="4.27957749381705"><ele>218.0</ele><time>2026-04-30T14:13:58.999Z</time></trkpt><trkpt lat="50.225065902890485" lon="4.279840258751501"><ele>218.0</ele><time>2026-04-30T14:13:59.999Z</time></trkpt><trkpt lat="50.224963343700644" lon="4.280127056125774"><ele>218.0</ele><time>2026-04-30T14:14:00.999Z</time></trkpt><trkpt lat="50.2248731782436" lon="4.280431005767246"><ele>218.0</ele><time>2026-04-30T14:14:01.999Z</time></trkpt><trkpt lat="50.224790460862735" lon="4.280748149993932"><ele>218.0</ele><time>2026-04-30T14:14:02.999Z</time></trkpt><trkpt lat="50.22472412748789" lon="4.281082565455544"><ele>215.5</ele><time>2026-04-30T14:14:03.999Z</time></trkpt><trkpt lat="50.224667724955204" lon="4.281436853295144"><ele>213.0</ele><time>2026-04-30T14:14:04.999Z</time></trkpt><trkpt lat="50.22462918929262" lon="4.281793530243096"><ele>213.0</ele><time>2026-04-30T14:14:05.999Z</time></trkpt><trkpt lat="50.22460291934293" lon="4.282157405314372"><ele>213.0</ele><time>2026-04-30T14:14:06.999Z</time></trkpt><trkpt lat="50.224600494282065" lon="4.282521110489562"><ele>212.5</ele><time>2026-04-30T14:14:07.999Z</time></trkpt><trkpt lat="50.224610524209616" lon="4.282882756177574"><ele>212.0</ele><time>2026-04-30T14:14:08.999Z</time></trkpt><trkpt lat="50.22462621455561" lon="4.283246127631398"><ele>212.0</ele><time>2026-04-30T14:14:09.999Z</time></trkpt><trkpt lat="50.22464236801117" lon="4.283602469672234"><ele>212.0</ele><time>2026-04-30T14:14:10.999Z</time></trkpt><trkpt lat="50.224656671493136" lon="4.2839547284706425"><ele>213.0</ele><time>2026-04-30T14:14:11.999Z</time></trkpt><trkpt lat="50.22466829226928" lon="4.284308568935514"><ele>214.0</ele><time>2026-04-30T14:14:12.999Z</time></trkpt><trkpt lat="50.22467874109194" lon="4.284658349373913"><ele>214.33333333333331</ele><time>2026-04-30T14:14:13.999Z</time></trkpt><trkpt lat="50.224691239774884" lon="4.285010315422439"><ele>214.66666666666669</ele><time>2026-04-30T14:14:14.999Z</time></trkpt><trkpt lat="50.224701577445174" lon="4.28535854463708"><ele>215.0</ele><time>2026-04-30T14:14:15.999Z</time></trkpt><trkpt lat="50.22471317293586" lon="4.285702812863107"><ele>215.0</ele><time>2026-04-30T14:14:16.998Z</time></trkpt><trkpt lat="50.22472448970964" lon="4.286051446672735"><ele>215.0</ele><time>2026-04-30T14:14:17.998Z</time></trkpt><trkpt lat="50.22473869782435" lon="4.286407409153614"><ele>215.0</ele><time>2026-04-30T14:14:18.998Z</time></trkpt><trkpt lat="50.224751520420725" lon="4.286764060420184"><ele>215.0</ele><time>2026-04-30T14:14:19.998Z</time></trkpt><trkpt lat="50.22476670459214" lon="4.287123529822859"><ele>215.33333333333334</ele><time>2026-04-30T14:14:21Z</time></trkpt><trkpt lat="50.22477827403614" lon="4.28747079822872"><ele>215.66666666666669</ele><time>2026-04-30T14:14:22Z</time></trkpt><trkpt lat="50.22479639524498" lon="4.287809552822079"><ele>216.0</ele><time>2026-04-30T14:14:23Z</time></trkpt><trkpt lat="50.224814195534705" lon="4.288135252351386"><ele>216.0</ele><time>2026-04-30T14:14:24Z</time></trkpt><trkpt lat="50.22484080013945" lon="4.288458993874172"><ele>216.0</ele><time>2026-04-30T14:14:25Z</time></trkpt><trkpt lat="50.22487917199703" lon="4.288782657699859"><ele>216.0</ele><time>2026-04-30T14:14:26Z</time></trkpt><trkpt lat="50.22493023529366" lon="4.28910243907877"><ele>215.33333333333331</ele><time>2026-04-30T14:14:27Z</time></trkpt><trkpt lat="50.22499291176656" lon="4.289421232873643"><ele>214.66666666666666</ele><time>2026-04-30T14:14:28Z</time></trkpt><trkpt lat="50.225064866179075" lon="4.289739079886454"><ele>214.0</ele><time>2026-04-30T14:14:29Z</time></trkpt><trkpt lat="50.22514863596199" lon="4.290056145126863"><ele>213.5</ele><time>2026-04-30T14:14:30Z</time></trkpt><trkpt lat="50.225252295793474" lon="4.29036776707273"><ele>213.0</ele><time>2026-04-30T14:14:31Z</time></trkpt><trkpt lat="50.2253546167768" lon="4.290685034653906"><ele>211.5</ele><time>2026-04-30T14:14:32Z</time></trkpt><trkpt lat="50.225452290759314" lon="4.29100048469462"><ele>210.0</ele><time>2026-04-30T14:14:33Z</time></trkpt><trkpt lat="50.22555260915717" lon="4.291321630549409"><ele>212.0</ele><time>2026-04-30T14:14:34Z</time></trkpt><trkpt lat="50.225654858079345" lon="4.291649852312611"><ele>214.0</ele><time>2026-04-30T14:14:35Z</time></trkpt><trkpt lat="50.22576114600926" lon="4.291990359811168"><ele>214.0</ele><time>2026-04-30T14:14:36Z</time></trkpt><trkpt lat="50.22587210106769" lon="4.29234053271139"><ele>214.0</ele><time>2026-04-30T14:14:37Z</time></trkpt><trkpt lat="50.225983624945336" lon="4.29269160128932"><ele>214.0</ele><time>2026-04-30T14:14:38Z</time></trkpt><trkpt lat="50.22609246842682" lon="4.293035882717548"><ele>214.0</ele><time>2026-04-30T14:14:39Z</time></trkpt><trkpt lat="50.22620046859294" lon="4.29337037548389"><ele>213.5</ele><time>2026-04-30T14:14:40Z</time></trkpt><trkpt lat="50.2263045822224" lon="4.293697163135117"><ele>213.0</ele><time>2026-04-30T14:14:41Z</time></trkpt><trkpt lat="50.22640832017786" lon="4.29402067079494"><ele>212.0</ele><time>2026-04-30T14:14:42Z</time></trkpt><trkpt lat="50.2265089878361" lon="4.2943474724815855"><ele>211.0</ele><time>2026-04-30T14:14:42.999Z</time></trkpt><trkpt lat="50.22661041103862" lon="4.294674777467133"><ele>210.0</ele><time>2026-04-30T14:14:43.999Z</time></trkpt><trkpt lat="50.22671612661153" lon="4.295008757903261"><ele>209.0</ele><time>2026-04-30T14:14:44.999Z</time></trkpt><trkpt lat="50.22682155918628" lon="4.295342741348447"><ele>208.0</ele><time>2026-04-30T14:14:45.999Z</time></trkpt><trkpt lat="50.22693140810291" lon="4.29568663064575"><ele>207.0</ele><time>2026-04-30T14:14:46.999Z</time></trkpt><trkpt lat="50.22703998416648" lon="4.296026451489694"><ele>207.0</ele><time>2026-04-30T14:14:47.999Z</time></trkpt><trkpt lat="50.22714971152463" lon="4.296368584524534"><ele>207.0</ele><time>2026-04-30T14:14:48.999Z</time></trkpt><trkpt lat="50.227258524131365" lon="4.29670616653792"><ele>206.5</ele><time>2026-04-30T14:14:49.999Z</time></trkpt><trkpt lat="50.22736627812039" lon="4.297043509170746"><ele>206.0</ele><time>2026-04-30T14:14:50.999Z</time></trkpt><trkpt lat="50.22747366527541" lon="4.297380404507761"><ele>206.0</ele><time>2026-04-30T14:14:51.999Z</time></trkpt><trkpt lat="50.22758209358673" lon="4.297717573683583"><ele>206.0</ele><time>2026-04-30T14:14:52.999Z</time></trkpt><trkpt lat="50.22768904019118" lon="4.29805315402064"><ele>207.0</ele><time>2026-04-30T14:14:53.999Z</time></trkpt><trkpt lat="50.227793004061574" lon="4.298387932544741"><ele>208.0</ele><time>2026-04-30T14:14:54.999Z</time></trkpt><trkpt lat="50.22789468471982" lon="4.298721404428672"><ele>209.0</ele><time>2026-04-30T14:14:55.999Z</time></trkpt><trkpt lat="50.22799846623825" lon="4.29905500857958"><ele>210.0</ele><time>2026-04-30T14:14:56.999Z</time></trkpt><trkpt lat="50.22810635427647" lon="4.29938563767517"><ele>211.0</ele><time>2026-04-30T14:14:57.999Z</time></trkpt><trkpt lat="50.228213939701604" lon="4.299715976223737"><ele>212.0</ele><time>2026-04-30T14:14:58.999Z</time></trkpt><trkpt lat="50.2283184206639" lon="4.300048931220552"><ele>212.0</ele><time>2026-04-30T14:14:59.999Z</time></trkpt><trkpt lat="50.22842321326197" lon="4.300379029118109"><ele>212.0</ele><time>2026-04-30T14:15:00.999Z</time></trkpt><trkpt lat="50.228521101805995" lon="4.300707987317557"><ele>212.33333333333334</ele><time>2026-04-30T14:15:01.999Z</time></trkpt><trkpt lat="50.22860060742197" lon="4.301037260952517"><ele>212.66666666666669</ele><time>2026-04-30T14:15:02.999Z</time></trkpt><trkpt lat="50.22864719441664" lon="4.3013556251179"><ele>213.0</ele><time>2026-04-30T14:15:03.999Z</time></trkpt><trkpt lat="50.228683301131674" lon="4.301667990230898"><ele>213.66666666666669</ele><time>2026-04-30T14:15:04.999Z</time></trkpt><trkpt lat="50.22870676215833" lon="4.301971890282794"><ele>214.33333333333334</ele><time>2026-04-30T14:15:05.999Z</time></trkpt><trkpt lat="50.22872070015602" lon="4.302266685477659"><ele>215.0</ele><time>2026-04-30T14:15:06.999Z</time></trkpt><trkpt lat="50.228722454254275" lon="4.3025631999007325"><ele>215.33333333333334</ele><time>2026-04-30T14:15:07.999Z</time></trkpt><trkpt lat="50.228708182434325" lon="4.302849875592908"><ele>215.66666666666669</ele><time>2026-04-30T14:15:08.999Z</time></trkpt><trkpt lat="50.228680401583276" lon="4.303137988677412"><ele>216.0</ele><time>2026-04-30T14:15:09.999Z</time></trkpt><trkpt lat="50.22863908002411" lon="4.303429399637884"><ele>215.33333333333331</ele><time>2026-04-30T14:15:10.999Z</time></trkpt><trkpt lat="50.228595826671196" lon="4.303730012402943"><ele>214.66666666666666</ele><time>2026-04-30T14:15:11.999Z</time></trkpt><trkpt lat="50.22855078884338" lon="4.304033854306491"><ele>214.0</ele><time>2026-04-30T14:15:12.999Z</time></trkpt><trkpt lat="50.22850503623237" lon="4.304337808295152"><ele>213.66666666666666</ele><time>2026-04-30T14:15:13.999Z</time></trkpt><trkpt lat="50.22846255873172" lon="4.304640477072303"><ele>213.33333333333331</ele><time>2026-04-30T14:15:14.999Z</time></trkpt><trkpt lat="50.22842072808514" lon="4.304932875280317"><ele>213.0</ele><time>2026-04-30T14:15:15.999Z</time></trkpt><trkpt lat="50.22837828985821" lon="4.305223171991459"><ele>212.66666666666669</ele><time>2026-04-30T14:15:16.999Z</time></trkpt><trkpt lat="50.228334055394356" lon="4.305517144287954"><ele>212.33333333333334</ele><time>2026-04-30T14:15:17.999Z</time></trkpt><trkpt lat="50.22829023671007" lon="4.305815158739122"><ele>212.0</ele><time>2026-04-30T14:15:18.999Z</time></trkpt><trkpt lat="50.228244887112204" lon="4.306111908618837"><ele>211.66666666666669</ele><time>2026-04-30T14:15:19.999Z</time></trkpt><trkpt lat="50.22819993602538" lon="4.306415246735588"><ele>211.33333333333331</ele><time>2026-04-30T14:15:20.999Z</time></trkpt><trkpt lat="50.22815506991047" lon="4.306725308903403"><ele>211.0</ele><time>2026-04-30T14:15:21.999Z</time></trkpt><trkpt lat="50.228111629243344" lon="4.30703429871375"><ele>211.66666666666666</ele><time>2026-04-30T14:15:22.999Z</time></trkpt><trkpt lat="50.228069621995026" lon="4.307337830463184"><ele>212.33333333333331</ele><time>2026-04-30T14:15:23.999Z</time></trkpt><trkpt lat="50.22802550399868" lon="4.307636369912223"><ele>213.0</ele><time>2026-04-30T14:15:24.999Z</time></trkpt><trkpt lat="50.22798245600873" lon="4.30793619399492"><ele>214.0</ele><time>2026-04-30T14:15:25.999Z</time></trkpt><trkpt lat="50.227936750240666" lon="4.308235265853338"><ele>215.0</ele><time>2026-04-30T14:15:26.999Z</time></trkpt><trkpt lat="50.2278899288833" lon="4.308534105050618"><ele>216.0</ele><time>2026-04-30T14:15:27.999Z</time></trkpt><trkpt lat="50.22784429989352" lon="4.308830953763083"><ele>216.66666666666669</ele><time>2026-04-30T14:15:28.999Z</time></trkpt><trkpt lat="50.22780237556152" lon="4.309126367151109"><ele>217.33333333333334</ele><time>2026-04-30T14:15:29.999Z</time></trkpt><trkpt lat="50.22776071786612" lon="4.309416015534665"><ele>218.0</ele><time>2026-04-30T14:15:30.999Z</time></trkpt><trkpt lat="50.227720160783605" lon="4.3097083378359535"><ele>218.33333333333334</ele><time>2026-04-30T14:15:31.999Z</time></trkpt><trkpt lat="50.22767667451593" lon="4.309999421520957"><ele>218.66666666666669</ele><time>2026-04-30T14:15:32.999Z</time></trkpt><trkpt lat="50.227632101683064" lon="4.310287295882286"><ele>219.0</ele><time>2026-04-30T14:15:33.999Z</time></trkpt><trkpt lat="50.22759039136136" lon="4.3105716037088975"><ele>219.0</ele><time>2026-04-30T14:15:34.999Z</time></trkpt><trkpt lat="50.227548531883265" lon="4.310849120552345"><ele>219.0</ele><time>2026-04-30T14:15:35.999Z</time></trkpt><trkpt lat="50.22750926847451" lon="4.3111217166707965"><ele>219.0</ele><time>2026-04-30T14:15:36.999Z</time></trkpt><trkpt lat="50.227468100045876" lon="4.311394295782204"><ele>218.33333333333331</ele><time>2026-04-30T14:15:37.999Z</time></trkpt><trkpt lat="50.22742864043155" lon="4.31166551030095"><ele>217.66666666666666</ele><time>2026-04-30T14:15:38.999Z</time></trkpt><trkpt lat="50.22738902303083" lon="4.311939508447337"><ele>217.0</ele><time>2026-04-30T14:15:39.999Z</time></trkpt><trkpt lat="50.22734798254508" lon="4.3122174064164716"><ele>217.66666666666666</ele><time>2026-04-30T14:15:40.999Z</time></trkpt><trkpt lat="50.227305436903286" lon="4.3125024921966135"><ele>218.33333333333331</ele><time>2026-04-30T14:15:41.999Z</time></trkpt><trkpt lat="50.22726385986853" lon="4.312795564287265"><ele>219.0</ele><time>2026-04-30T14:15:42.999Z</time></trkpt><trkpt lat="50.227222012606504" lon="4.313092304732655"><ele>219.33333333333331</ele><time>2026-04-30T14:15:43.999Z</time></trkpt><trkpt lat="50.22717944819138" lon="4.313387463650673"><ele>219.66666666666666</ele><time>2026-04-30T14:15:44.999Z</time></trkpt><trkpt lat="50.227137087729794" lon="4.313670711282406"><ele>220.0</ele><time>2026-04-30T14:15:45.999Z</time></trkpt><trkpt lat="50.22709401893092" lon="4.313949308964608"><ele>220.66666666666666</ele><time>2026-04-30T14:15:46.999Z</time></trkpt><trkpt lat="50.22705409440115" lon="4.314224030553622"><ele>221.33333333333331</ele><time>2026-04-30T14:15:47.999Z</time></trkpt><trkpt lat="50.22701447758569" lon="4.314500752890417"><ele>222.0</ele><time>2026-04-30T14:15:48.999Z</time></trkpt><trkpt lat="50.2269747513703" lon="4.314777448492501"><ele>222.33333333333331</ele><time>2026-04-30T14:15:49.999Z</time></trkpt><trkpt lat="50.22693461319009" lon="4.315059279460065"><ele>222.66666666666666</ele><time>2026-04-30T14:15:50.999Z</time></trkpt><trkpt lat="50.22689291433818" lon="4.315341345688764"><ele>223.0</ele><time>2026-04-30T14:15:51.999Z</time></trkpt><trkpt lat="50.22685005616242" lon="4.315625430604119"><ele>224.0</ele><time>2026-04-30T14:15:52.999Z</time></trkpt><trkpt lat="50.22680818506232" lon="4.315911514184249"><ele>225.0</ele><time>2026-04-30T14:15:53.999Z</time></trkpt><trkpt lat="50.22676378344279" lon="4.316199532887796"><ele>226.0</ele><time>2026-04-30T14:15:54.999Z</time></trkpt><trkpt lat="50.226720017164396" lon="4.3164977922653405"><ele>226.33333333333331</ele><time>2026-04-30T14:15:55.999Z</time></trkpt><trkpt lat="50.22667824533289" lon="4.316802265532196"><ele>226.66666666666669</ele><time>2026-04-30T14:15:56.999Z</time></trkpt><trkpt lat="50.22663229712159" lon="4.317111667648487"><ele>227.0</ele><time>2026-04-30T14:15:57.999Z</time></trkpt><trkpt lat="50.22658491181343" lon="4.3174302374738085"><ele>227.0</ele><time>2026-04-30T14:15:58.999Z</time></trkpt><trkpt lat="50.22653469363502" lon="4.317757712964998"><ele>227.0</ele><time>2026-04-30T14:15:59.999Z</time></trkpt><trkpt lat="50.2264852415851" lon="4.318093213684361"><ele>227.0</ele><time>2026-04-30T14:16:00.999Z</time></trkpt><trkpt lat="50.226440410530785" lon="4.318427395765115"><ele>226.66666666666669</ele><time>2026-04-30T14:16:01.999Z</time></trkpt><trkpt lat="50.22639081091884" lon="4.318739977930261"><ele>226.33333333333331</ele><time>2026-04-30T14:16:02.999Z</time></trkpt><trkpt lat="50.22634440267586" lon="4.319053351413971"><ele>226.0</ele><time>2026-04-30T14:16:03.999Z</time></trkpt><trkpt lat="50.2262981460294" lon="4.319361311510689"><ele>226.66666666666666</ele><time>2026-04-30T14:16:04.998Z</time></trkpt><trkpt lat="50.22625368653425" lon="4.31967101876227"><ele>227.33333333333331</ele><time>2026-04-30T14:16:05.998Z</time></trkpt><trkpt lat="50.22620709969526" lon="4.319978169702823"><ele>228.0</ele><time>2026-04-30T14:16:06.998Z</time></trkpt><trkpt lat="50.226161683401344" lon="4.3202866598049185"><ele>228.0</ele><time>2026-04-30T14:16:07.998Z</time></trkpt><trkpt lat="50.226116616978224" lon="4.320595030530323"><ele>228.0</ele><time>2026-04-30T14:16:08.998Z</time></trkpt><trkpt lat="50.22607397055372" lon="4.320896423800647"><ele>228.0</ele><time>2026-04-30T14:16:09.998Z</time></trkpt><trkpt lat="50.22603233029431" lon="4.321193297575001"><ele>228.33333333333331</ele><time>2026-04-30T14:16:10.998Z</time></trkpt><trkpt lat="50.2259876337582" lon="4.321486037854275"><ele>228.66666666666666</ele><time>2026-04-30T14:16:11.998Z</time></trkpt><trkpt lat="50.22594327272301" lon="4.321780456619065"><ele>229.0</ele><time>2026-04-30T14:16:12.998Z</time></trkpt><trkpt lat="50.22589950707342" lon="4.32207456699283"><ele>229.33333333333331</ele><time>2026-04-30T14:16:13.998Z</time></trkpt><trkpt lat="50.225855735448484" lon="4.3223678137281025"><ele>229.66666666666669</ele><time>2026-04-30T14:16:14.998Z</time></trkpt><trkpt lat="50.22581277210368" lon="4.32265742059234"><ele>230.0</ele><time>2026-04-30T14:16:15.998Z</time></trkpt><trkpt lat="50.225772359809945" lon="4.322929438826872"><ele>230.33333333333334</ele><time>2026-04-30T14:16:16.998Z</time></trkpt><trkpt lat="50.22573623963015" lon="4.323187249896732"><ele>230.66666666666669</ele><time>2026-04-30T14:16:17.998Z</time></trkpt><trkpt lat="50.2256971936217" lon="4.32344396671152"><ele>231.0</ele><time>2026-04-30T14:16:18.998Z</time></trkpt><trkpt lat="50.225657578023664" lon="4.323705163241659"><ele>231.0</ele><time>2026-04-30T14:16:19.998Z</time></trkpt><trkpt lat="50.22562007920973" lon="4.323975637189781"><ele>231.0</ele><time>2026-04-30T14:16:20.998Z</time></trkpt><trkpt lat="50.22558116813449" lon="4.32425256071505"><ele>231.0</ele><time>2026-04-30T14:16:21.998Z</time></trkpt><trkpt lat="50.22554127649604" lon="4.3245354598640295"><ele>230.66666666666669</ele><time>2026-04-30T14:16:22.998Z</time></trkpt><trkpt lat="50.22549669269667" lon="4.324825582906074"><ele>230.33333333333334</ele><time>2026-04-30T14:16:23.998Z</time></trkpt><trkpt lat="50.22544831265806" lon="4.32511703113185"><ele>230.0</ele><time>2026-04-30T14:16:24.998Z</time></trkpt><trkpt lat="50.225402176526984" lon="4.3254053229618235"><ele>230.0</ele><time>2026-04-30T14:16:25.998Z</time></trkpt><trkpt lat="50.22536063714679" lon="4.325688522727844"><ele>230.0</ele><time>2026-04-30T14:16:27Z</time></trkpt><trkpt lat="50.22532022127798" lon="4.325970293518819"><ele>230.0</ele><time>2026-04-30T14:16:28Z</time></trkpt><trkpt lat="50.225278586531374" lon="4.326249699000743"><ele>230.0</ele><time>2026-04-30T14:16:29Z</time></trkpt><trkpt lat="50.22523854790106" lon="4.326532562163965"><ele>230.0</ele><time>2026-04-30T14:16:30Z</time></trkpt><trkpt lat="50.225198187735735" lon="4.326815044938425"><ele>230.0</ele><time>2026-04-30T14:16:31Z</time></trkpt><trkpt lat="50.22516003826829" lon="4.327098552455195"><ele>230.33333333333334</ele><time>2026-04-30T14:16:32Z</time></trkpt><trkpt lat="50.225119327312385" lon="4.32738147180966"><ele>230.66666666666669</ele><time>2026-04-30T14:16:33Z</time></trkpt><trkpt lat="50.22507570425939" lon="4.327667758854087"><ele>231.0</ele><time>2026-04-30T14:16:34Z</time></trkpt><trkpt lat="50.2250336837665" lon="4.327958933377222"><ele>230.66666666666669</ele><time>2026-04-30T14:16:35Z</time></trkpt><trkpt lat="50.22499243956953" lon="4.328249418684043"><ele>230.33333333333334</ele><time>2026-04-30T14:16:36Z</time></trkpt><trkpt lat="50.224952784478496" lon="4.328540539207128"><ele>230.0</ele><time>2026-04-30T14:16:37Z</time></trkpt><trkpt lat="50.22491156163036" lon="4.328827639930536"><ele>230.33333333333334</ele><time>2026-04-30T14:16:38Z</time></trkpt><trkpt lat="50.22486742076701" lon="4.329112316024775"><ele>230.66666666666669</ele><time>2026-04-30T14:16:39Z</time></trkpt><trkpt lat="50.22482487983511" lon="4.329400480373296"><ele>231.0</ele><time>2026-04-30T14:16:40Z</time></trkpt><trkpt lat="50.22478255244275" lon="4.329691233403284"><ele>230.33333333333331</ele><time>2026-04-30T14:16:41Z</time></trkpt><trkpt lat="50.224739110343684" lon="4.329985767886763"><ele>229.66666666666666</ele><time>2026-04-30T14:16:42Z</time></trkpt><trkpt lat="50.22469472259981" lon="4.330287050323453"><ele>229.0</ele><time>2026-04-30T14:16:43Z</time></trkpt><trkpt lat="50.224650193549614" lon="4.330598923560324"><ele>229.0</ele><time>2026-04-30T14:16:44Z</time></trkpt><trkpt lat="50.22460363601812" lon="4.330918948424229"><ele>229.0</ele><time>2026-04-30T14:16:45Z</time></trkpt><trkpt lat="50.22455569584965" lon="4.331250387482129"><ele>229.0</ele><time>2026-04-30T14:16:46Z</time></trkpt><trkpt lat="50.22450400142585" lon="4.331584783867703"><ele>229.0</ele><time>2026-04-30T14:16:47Z</time></trkpt><trkpt lat="50.22444579657167" lon="4.331909166004171"><ele>229.0</ele><time>2026-04-30T14:16:48Z</time></trkpt><trkpt lat="50.22438916649938" lon="4.332218776710653"><ele>229.0</ele><time>2026-04-30T14:16:49Z</time></trkpt><trkpt lat="50.2243608038388" lon="4.332544600750404"><ele>229.0</ele><time>2026-04-30T14:16:50Z</time></trkpt><trkpt lat="50.22432273261357" lon="4.332817321461781"><ele>229.0</ele><time>2026-04-30T14:16:51Z</time></trkpt><trkpt lat="50.22427939220987" lon="4.333080944404795"><ele>229.0</ele><time>2026-04-30T14:16:52Z</time></trkpt><trkpt lat="50.224239397144295" lon="4.333335582215851"><ele>229.66666666666666</ele><time>2026-04-30T14:16:53Z</time></trkpt><trkpt lat="50.224196629915355" lon="4.333603654788759"><ele>230.33333333333331</ele><time>2026-04-30T14:16:54Z</time></trkpt><trkpt lat="50.22415800281986" lon="4.333875312806773"><ele>231.0</ele><time>2026-04-30T14:16:55Z</time></trkpt><trkpt lat="50.224120006599925" lon="4.334136217399061"><ele>232.33333333333331</ele><time>2026-04-30T14:16:56Z</time></trkpt><trkpt lat="50.22408297515689" lon="4.334400135920266"><ele>233.66666666666666</ele><time>2026-04-30T14:16:57Z</time></trkpt><trkpt lat="50.22404577131515" lon="4.334669011853843"><ele>235.0</ele><time>2026-04-30T14:16:58Z</time></trkpt><trkpt lat="50.22400310764548" lon="4.3349437301136104"><ele>234.0</ele><time>2026-04-30T14:16:59Z</time></trkpt><trkpt lat="50.22395968199812" lon="4.335218292105492"><ele>233.0</ele><time>2026-04-30T14:17:00Z</time></trkpt><trkpt lat="50.22391876488491" lon="4.335497583838127"><ele>232.0</ele><time>2026-04-30T14:17:01Z</time></trkpt><trkpt lat="50.223879720643666" lon="4.335795099091799"><ele>232.0</ele><time>2026-04-30T14:17:02Z</time></trkpt><trkpt lat="50.223843536783264" lon="4.336084431682104"><ele>232.0</ele><time>2026-04-30T14:17:02.999Z</time></trkpt><trkpt lat="50.22382735448738" lon="4.3363812028279645"><ele>232.0</ele><time>2026-04-30T14:17:03.999Z</time></trkpt><trkpt lat="50.22383272487703" lon="4.336671343089673"><ele>232.33333333333331</ele><time>2026-04-30T14:17:04.999Z</time></trkpt><trkpt lat="50.22386381394925" lon="4.336970255143065"><ele>232.66666666666669</ele><time>2026-04-30T14:17:05.999Z</time></trkpt><trkpt lat="50.22390854746482" lon="4.337269462404317"><ele>233.0</ele><time>2026-04-30T14:17:06.999Z</time></trkpt><trkpt lat="50.22395529582967" lon="4.337570443804416"><ele>233.66666666666669</ele><time>2026-04-30T14:17:07.999Z</time></trkpt><trkpt lat="50.22399947635186" lon="4.337865269079335"><ele>234.33333333333331</ele><time>2026-04-30T14:17:08.999Z</time></trkpt><trkpt lat="50.22403952886181" lon="4.3381538729252425"><ele>235.0</ele><time>2026-04-30T14:17:09.999Z</time></trkpt><trkpt lat="50.224078794927074" lon="4.338439371738098"><ele>235.33333333333331</ele><time>2026-04-30T14:17:10.999Z</time></trkpt><trkpt lat="50.224117756896405" lon="4.338720586024392"><ele>235.66666666666669</ele><time>2026-04-30T14:17:11.999Z</time></trkpt><trkpt lat="50.22415853062751" lon="4.3390089958113025"><ele>236.0</ele><time>2026-04-30T14:17:12.999Z</time></trkpt><trkpt lat="50.22419993376101" lon="4.339291909014575"><ele>236.0</ele><time>2026-04-30T14:17:13.999Z</time></trkpt><trkpt lat="50.22423585022509" lon="4.3395835282927395"><ele>236.0</ele><time>2026-04-30T14:17:14.999Z</time></trkpt><trkpt lat="50.224273593214846" lon="4.339878393253448"><ele>236.0</ele><time>2026-04-30T14:17:15.999Z</time></trkpt><trkpt lat="50.22431667206497" lon="4.34017738591022"><ele>236.0</ele><time>2026-04-30T14:17:16.999Z</time></trkpt><trkpt lat="50.22435627148836" lon="4.340471184438889"><ele>236.0</ele><time>2026-04-30T14:17:17.999Z</time></trkpt><trkpt lat="50.224394475687674" lon="4.34075733553555"><ele>236.0</ele><time>2026-04-30T14:17:18.999Z</time></trkpt><trkpt lat="50.22443216358653" lon="4.341040161717411"><ele>235.66666666666669</ele><time>2026-04-30T14:17:19.999Z</time></trkpt><trkpt lat="50.22446991872358" lon="4.341329712758959"><ele>235.33333333333331</ele><time>2026-04-30T14:17:20.999Z</time></trkpt><trkpt lat="50.224508453371186" lon="4.34162256053444"><ele>235.0</ele><time>2026-04-30T14:17:21.999Z</time></trkpt><trkpt lat="50.224550987831556" lon="4.341933511741556"><ele>235.33333333333331</ele><time>2026-04-30T14:17:22.999Z</time></trkpt><trkpt lat="50.224593016230905" lon="4.342250996304018"><ele>235.66666666666669</ele><time>2026-04-30T14:17:23.999Z</time></trkpt><trkpt lat="50.224636627787945" lon="4.342570284842797"><ele>236.0</ele><time>2026-04-30T14:17:24.999Z</time></trkpt><trkpt lat="50.2246793181164" lon="4.342882705249322"><ele>235.33333333333334</ele><time>2026-04-30T14:17:25.999Z</time></trkpt><trkpt lat="50.224716783072466" lon="4.3431697507893325"><ele>234.66666666666669</ele><time>2026-04-30T14:17:26.999Z</time></trkpt><trkpt lat="50.22475842034923" lon="4.343449729064505"><ele>234.0</ele><time>2026-04-30T14:17:27.999Z</time></trkpt><trkpt lat="50.22478634861732" lon="4.343758663394492"><ele>232.5</ele><time>2026-04-30T14:17:28.999Z</time></trkpt><trkpt lat="50.22483068965755" lon="4.344092627344754"><ele>231.0</ele><time>2026-04-30T14:17:29.999Z</time></trkpt><trkpt lat="50.224880400462524" lon="4.3444571661233855"><ele>231.5</ele><time>2026-04-30T14:17:30.999Z</time></trkpt><trkpt lat="50.22493178363649" lon="4.344836932466956"><ele>232.0</ele><time>2026-04-30T14:17:31.999Z</time></trkpt><trkpt lat="50.22498317324216" lon="4.345218407366064"><ele>230.5</ele><time>2026-04-30T14:17:32.999Z</time></trkpt><trkpt lat="50.22503424824434" lon="4.345592032165649"><ele>229.0</ele><time>2026-04-30T14:17:33.999Z</time></trkpt><trkpt lat="50.22508364531486" lon="4.345962337212109"><ele>229.0</ele><time>2026-04-30T14:17:34.999Z</time></trkpt><trkpt lat="50.22512969425076" lon="4.346316412509876"><ele>229.0</ele><time>2026-04-30T14:17:35.999Z</time></trkpt><trkpt lat="50.22517384301854" lon="4.346655281786818"><ele>229.66666666666666</ele><time>2026-04-30T14:17:36.999Z</time></trkpt><trkpt lat="50.22521958146383" lon="4.346994621394266"><ele>230.33333333333331</ele><time>2026-04-30T14:17:37.999Z</time></trkpt><trkpt lat="50.225265157744204" lon="4.347331830723091"><ele>231.0</ele><time>2026-04-30T14:17:38.999Z</time></trkpt><trkpt lat="50.22532557792239" lon="4.34765811197977"><ele>231.33333333333331</ele><time>2026-04-30T14:17:39.999Z</time></trkpt><trkpt lat="50.22536741877839" lon="4.347983723540002"><ele>231.66666666666666</ele><time>2026-04-30T14:17:40.999Z</time></trkpt><trkpt lat="50.22540777713528" lon="4.348293453668736"><ele>232.0</ele><time>2026-04-30T14:17:41.999Z</time></trkpt><trkpt lat="50.22544950783456" lon="4.348601326088718"><ele>232.33333333333331</ele><time>2026-04-30T14:17:42.999Z</time></trkpt><trkpt lat="50.22549087333145" lon="4.348908629409407"><ele>232.66666666666669</ele><time>2026-04-30T14:17:43.999Z</time></trkpt><trkpt lat="50.2255310302856" lon="4.3492199026225284"><ele>233.0</ele><time>2026-04-30T14:17:44.999Z</time></trkpt><trkpt lat="50.225570164775554" lon="4.3495337484660235"><ele>232.66666666666669</ele><time>2026-04-30T14:17:45.999Z</time></trkpt><trkpt lat="50.22561268827993" lon="4.349854967582693"><ele>232.33333333333331</ele><time>2026-04-30T14:17:46.999Z</time></trkpt><trkpt lat="50.22565557150743" lon="4.350182551090389"><ele>232.0</ele><time>2026-04-30T14:17:47.999Z</time></trkpt><trkpt lat="50.225699903813144" lon="4.350514394333188"><ele>233.0</ele><time>2026-04-30T14:17:48.999Z</time></trkpt><trkpt lat="50.22574231558002" lon="4.350837160838344"><ele>234.0</ele><time>2026-04-30T14:17:49.999Z</time></trkpt><trkpt lat="50.22578380677826" lon="4.351143093534178"><ele>235.0</ele><time>2026-04-30T14:17:50.999Z</time></trkpt><trkpt lat="50.225822544481666" lon="4.351431485275067"><ele>235.66666666666666</ele><time>2026-04-30T14:17:51.999Z</time></trkpt><trkpt lat="50.22585804938211" lon="4.351712171113127"><ele>236.33333333333331</ele><time>2026-04-30T14:17:52.999Z</time></trkpt><trkpt lat="50.225895441876744" lon="4.351999849104173"><ele>237.0</ele><time>2026-04-30T14:17:53.999Z</time></trkpt><trkpt lat="50.22593204992039" lon="4.352290660663721"><ele>237.0</ele><time>2026-04-30T14:17:54.999Z</time></trkpt><trkpt lat="50.22597114322698" lon="4.352577097499637"><ele>237.0</ele><time>2026-04-30T14:17:55.999Z</time></trkpt><trkpt lat="50.22601269453969" lon="4.3528617504599065"><ele>237.0</ele><time>2026-04-30T14:17:56.999Z</time></trkpt><trkpt lat="50.22605007141745" lon="4.353142927243867"><ele>237.0</ele><time>2026-04-30T14:17:57.999Z</time></trkpt><trkpt lat="50.226082723740994" lon="4.353419748611531"><ele>237.0</ele><time>2026-04-30T14:17:58.999Z</time></trkpt><trkpt lat="50.226116794721456" lon="4.353693364120595"><ele>237.0</ele><time>2026-04-30T14:17:59.999Z</time></trkpt><trkpt lat="50.226153441519486" lon="4.35396642479891"><ele>237.0</ele><time>2026-04-30T14:18:00.999Z</time></trkpt><trkpt lat="50.22619318131035" lon="4.3542352669195665"><ele>237.0</ele><time>2026-04-30T14:18:01.999Z</time></trkpt><trkpt lat="50.22623115897538" lon="4.3545051845984935"><ele>237.0</ele><time>2026-04-30T14:18:02.999Z</time></trkpt><trkpt lat="50.226268335753424" lon="4.354776331045756"><ele>237.66666666666669</ele><time>2026-04-30T14:18:03.999Z</time></trkpt><trkpt lat="50.22630321198581" lon="4.355053682701619"><ele>238.33333333333334</ele><time>2026-04-30T14:18:04.999Z</time></trkpt><trkpt lat="50.22633784575592" lon="4.355333945934322"><ele>239.0</ele><time>2026-04-30T14:18:05.999Z</time></trkpt><trkpt lat="50.22637777531967" lon="4.3556156704007964"><ele>239.33333333333334</ele><time>2026-04-30T14:18:06.999Z</time></trkpt><trkpt lat="50.226415365275344" lon="4.355896226729093"><ele>239.66666666666669</ele><time>2026-04-30T14:18:07.999Z</time></trkpt><trkpt lat="50.22645248401332" lon="4.356177823625562"><ele>240.0</ele><time>2026-04-30T14:18:08.999Z</time></trkpt><trkpt lat="50.22648525240981" lon="4.356445645407327"><ele>240.33333333333331</ele><time>2026-04-30T14:18:09.999Z</time></trkpt><trkpt lat="50.22652067286015" lon="4.356700732980248"><ele>240.66666666666666</ele><time>2026-04-30T14:18:10.999Z</time></trkpt><trkpt lat="50.22655517028669" lon="4.356966758525414"><ele>241.0</ele><time>2026-04-30T14:18:11.999Z</time></trkpt><trkpt lat="50.226592489335644" lon="4.357237969530189"><ele>241.0</ele><time>2026-04-30T14:18:12.999Z</time></trkpt><trkpt lat="50.226630428647645" lon="4.35752027467502"><ele>241.0</ele><time>2026-04-30T14:18:13.999Z</time></trkpt><trkpt lat="50.226667830154476" lon="4.357794571422829"><ele>241.0</ele><time>2026-04-30T14:18:14.999Z</time></trkpt><trkpt lat="50.2267061742229" lon="4.358063758527274"><ele>241.0</ele><time>2026-04-30T14:18:15.999Z</time></trkpt><trkpt lat="50.226741568139765" lon="4.358340331239027"><ele>241.0</ele><time>2026-04-30T14:18:16.999Z</time></trkpt><trkpt lat="50.22677767470867" lon="4.358625450279435"><ele>241.0</ele><time>2026-04-30T14:18:17.999Z</time></trkpt><trkpt lat="50.22681374032808" lon="4.35891004815418"><ele>241.0</ele><time>2026-04-30T14:18:18.998Z</time></trkpt><trkpt lat="50.22685247496593" lon="4.359205071615695"><ele>241.0</ele><time>2026-04-30T14:18:19.998Z</time></trkpt><trkpt lat="50.22689113394506" lon="4.359498704499604"><ele>241.0</ele><time>2026-04-30T14:18:20.998Z</time></trkpt><trkpt lat="50.22692930547438" lon="4.359787111219758"><ele>240.66666666666666</ele><time>2026-04-30T14:18:21.998Z</time></trkpt><trkpt lat="50.22697053220899" lon="4.360071440341814"><ele>240.33333333333331</ele><time>2026-04-30T14:18:22.998Z</time></trkpt><trkpt lat="50.22700911252687" lon="4.3603455304703775"><ele>240.0</ele><time>2026-04-30T14:18:23.998Z</time></trkpt><trkpt lat="50.22703953245263" lon="4.360603384396476"><ele>239.66666666666669</ele><time>2026-04-30T14:18:24.998Z</time></trkpt><trkpt lat="50.22707167592212" lon="4.360860988179058"><ele>239.33333333333334</ele><time>2026-04-30T14:18:25.998Z</time></trkpt><trkpt lat="50.227106656785374" lon="4.361117593836725"><ele>239.0</ele><time>2026-04-30T14:18:26.998Z</time></trkpt><trkpt lat="50.22714051168016" lon="4.361374054628144"><ele>238.66666666666669</ele><time>2026-04-30T14:18:27.998Z</time></trkpt><trkpt lat="50.227176842919846" lon="4.3616312478578845"><ele>238.33333333333331</ele><time>2026-04-30T14:18:28.998Z</time></trkpt><trkpt lat="50.22721078879158" lon="4.361885555234108"><ele>238.0</ele><time>2026-04-30T14:18:29.998Z</time></trkpt><trkpt lat="50.227244398021675" lon="4.362135252347596"><ele>238.66666666666666</ele><time>2026-04-30T14:18:30.998Z</time></trkpt><trkpt lat="50.22727616049059" lon="4.362376074170335"><ele>239.33333333333331</ele><time>2026-04-30T14:18:31.998Z</time></trkpt><trkpt lat="50.227307959378656" lon="4.3626164563873155"><ele>240.0</ele><time>2026-04-30T14:18:33Z</time></trkpt><trkpt lat="50.22733831263175" lon="4.3628498411712915"><ele>241.0</ele><time>2026-04-30T14:18:34Z</time></trkpt><trkpt lat="50.22736886165912" lon="4.363068890561517"><ele>242.0</ele><time>2026-04-30T14:18:35Z</time></trkpt><trkpt lat="50.22739971759716" lon="4.36328149576185"><ele>243.0</ele><time>2026-04-30T14:18:36Z</time></trkpt><trkpt lat="50.2274294445124" lon="4.363491062676123"><ele>244.0</ele><time>2026-04-30T14:18:37Z</time></trkpt><trkpt lat="50.2274524181007" lon="4.3636862507998115"><ele>244.0</ele><time>2026-04-30T14:18:38Z</time></trkpt><trkpt lat="50.22747592710998" lon="4.3638792734207525"><ele>244.0</ele><time>2026-04-30T14:18:39Z</time></trkpt><trkpt lat="50.22749858074114" lon="4.364073242937469"><ele>244.0</ele><time>2026-04-30T14:18:40Z</time></trkpt><trkpt lat="50.22752555956289" lon="4.3642645728004865"><ele>244.0</ele><time>2026-04-30T14:18:41Z</time></trkpt><trkpt lat="50.22755360957058" lon="4.364457584662039"><ele>244.0</ele><time>2026-04-30T14:18:42Z</time></trkpt><trkpt lat="50.2275804897348" lon="4.364650765844181"><ele>244.0</ele><time>2026-04-30T14:18:43Z</time></trkpt><trkpt lat="50.22760678464779" lon="4.364851438106939"><ele>244.0</ele><time>2026-04-30T14:18:44Z</time></trkpt><trkpt lat="50.22763446866861" lon="4.365060491254562"><ele>244.0</ele><time>2026-04-30T14:18:45Z</time></trkpt><trkpt lat="50.22766568345857" lon="4.365274796367249"><ele>243.5</ele><time>2026-04-30T14:18:46Z</time></trkpt><trkpt lat="50.22769274101826" lon="4.365476829207074"><ele>243.0</ele><time>2026-04-30T14:18:47Z</time></trkpt><trkpt lat="50.22771461582172" lon="4.365671569013815"><ele>242.5</ele><time>2026-04-30T14:18:48Z</time></trkpt><trkpt lat="50.2277406463398" lon="4.365846024983366"><ele>242.0</ele><time>2026-04-30T14:18:49Z</time></trkpt><trkpt lat="50.22775313724739" lon="4.366002634263828"><ele>242.0</ele><time>2026-04-30T14:18:50Z</time></trkpt><trkpt lat="50.22774050049245" lon="4.3661516780131056"><ele>242.0</ele><time>2026-04-30T14:18:51Z</time></trkpt><trkpt lat="50.227704274362175" lon="4.3663003115327275"><ele>242.0</ele><time>2026-04-30T14:18:52Z</time></trkpt><trkpt lat="50.2276572930132" lon="4.366470369199973"><ele>242.0</ele><time>2026-04-30T14:18:53Z</time></trkpt><trkpt lat="50.227612349114814" lon="4.366665628251032"><ele>242.0</ele><time>2026-04-30T14:18:54Z</time></trkpt><trkpt lat="50.227569874933636" lon="4.366846096049632"><ele>241.39999999999998</ele><time>2026-04-30T14:18:55Z</time></trkpt><trkpt lat="50.22753140613724" lon="4.367000230563875"><ele>240.79999999999998</ele><time>2026-04-30T14:18:56Z</time></trkpt><trkpt lat="50.22748987139089" lon="4.367130149246234"><ele>240.2</ele><time>2026-04-30T14:18:57Z</time></trkpt><trkpt lat="50.227438891216785" lon="4.36724387271018"><ele>239.6</ele><time>2026-04-30T14:18:58Z</time></trkpt><trkpt lat="50.227349146849754" lon="4.3673086505497"><ele>239.0</ele><time>2026-04-30T14:18:59Z</time></trkpt><trkpt lat="50.22725361624894" lon="4.36739175992345"><ele>238.0</ele><time>2026-04-30T14:19:00Z</time></trkpt><trkpt lat="50.22714258843554" lon="4.367476342936181"><ele>237.0</ele><time>2026-04-30T14:19:01Z</time></trkpt><trkpt lat="50.22702445389343" lon="4.367580421515726"><ele>236.0</ele><time>2026-04-30T14:19:02Z</time></trkpt><trkpt lat="50.226903400372315" lon="4.367667778224617"><ele>235.0</ele><time>2026-04-30T14:19:03Z</time></trkpt><trkpt lat="50.22678702960593" lon="4.367770171114737"><ele>235.0</ele><time>2026-04-30T14:19:04Z</time></trkpt><trkpt lat="50.22667032409114" lon="4.367899554172289"><ele>235.0</ele><time>2026-04-30T14:19:05Z</time></trkpt><trkpt lat="50.22654803233999" lon="4.368049170559028"><ele>235.0</ele><time>2026-04-30T14:19:06Z</time></trkpt><trkpt lat="50.22641225769815" lon="4.36815598181222"><ele>233.25</ele><time>2026-04-30T14:19:07Z</time></trkpt><trkpt lat="50.226299925091446" lon="4.368274712345748"><ele>231.5</ele><time>2026-04-30T14:19:08Z</time></trkpt><trkpt lat="50.226183538600836" lon="4.368366363970181"><ele>229.75</ele><time>2026-04-30T14:19:09Z</time></trkpt><trkpt lat="50.226075518811754" lon="4.368449621702985"><ele>228.0</ele><time>2026-04-30T14:19:10Z</time></trkpt><trkpt lat="50.22596521545368" lon="4.368526422740444"><ele>228.0</ele><time>2026-04-30T14:19:11Z</time></trkpt><trkpt lat="50.22586134775539" lon="4.368604277179807"><ele>228.0</ele><time>2026-04-30T14:19:12Z</time></trkpt><trkpt lat="50.225766052394" lon="4.368680239463389"><ele>228.0</ele><time>2026-04-30T14:19:13Z</time></trkpt><trkpt lat="50.22568999008308" lon="4.368759911188223"><ele>228.0</ele><time>2026-04-30T14:19:14Z</time></trkpt><trkpt lat="50.22563772916765" lon="4.368864203723385"><ele>228.0</ele><time>2026-04-30T14:19:15Z</time></trkpt><trkpt lat="50.22559188945113" lon="4.368990940202819"><ele>226.75</ele><time>2026-04-30T14:19:16Z</time></trkpt><trkpt lat="50.22556275220618" lon="4.369144768946213"><ele>225.5</ele><time>2026-04-30T14:19:16.999Z</time></trkpt><trkpt lat="50.22554426126191" lon="4.36932480859633"><ele>224.25</ele><time>2026-04-30T14:19:17.999Z</time></trkpt><trkpt lat="50.225538930701205" lon="4.369535340989951"><ele>223.0</ele><time>2026-04-30T14:19:18.999Z</time></trkpt><trkpt lat="50.225522659821245" lon="4.369764110531212"><ele>223.0</ele><time>2026-04-30T14:19:19.999Z</time></trkpt><trkpt lat="50.22549264731664" lon="4.3699969159248475"><ele>223.0</ele><time>2026-04-30T14:19:20.999Z</time></trkpt><trkpt lat="50.225455042936396" lon="4.370209869109486"><ele>223.0</ele><time>2026-04-30T14:19:21.999Z</time></trkpt><trkpt lat="50.225411595739935" lon="4.37039598373271"><ele>223.0</ele><time>2026-04-30T14:19:22.999Z</time></trkpt><trkpt lat="50.22535854405591" lon="4.370549678489812"><ele>223.0</ele><time>2026-04-30T14:19:23.999Z</time></trkpt><trkpt lat="50.22529626676706" lon="4.370682686157334"><ele>223.0</ele><time>2026-04-30T14:19:24.999Z</time></trkpt><trkpt lat="50.22525851074429" lon="4.370842102115413"><ele>223.0</ele><time>2026-04-30T14:19:25.999Z</time></trkpt><trkpt lat="50.22523461616767" lon="4.371021829704257"><ele>223.0</ele><time>2026-04-30T14:19:26.999Z</time></trkpt><trkpt lat="50.22519311169812" lon="4.371185353593261"><ele>223.0</ele><time>2026-04-30T14:19:27.999Z</time></trkpt><trkpt lat="50.22519543117694" lon="4.371375210056475"><ele>222.75</ele><time>2026-04-30T14:19:28.999Z</time></trkpt><trkpt lat="50.22520500689302" lon="4.371570106258821"><ele>222.5</ele><time>2026-04-30T14:19:29.999Z</time></trkpt><trkpt lat="50.22523261884722" lon="4.37176312989614"><ele>222.25</ele><time>2026-04-30T14:19:30.999Z</time></trkpt><trkpt lat="50.22527012898007" lon="4.371966872669463"><ele>222.0</ele><time>2026-04-30T14:19:31.999Z</time></trkpt><trkpt lat="50.22531863650828" lon="4.372171701623107"><ele>222.0</ele><time>2026-04-30T14:19:32.999Z</time></trkpt><trkpt lat="50.22537264363765" lon="4.37238210492904"><ele>222.0</ele><time>2026-04-30T14:19:33.999Z</time></trkpt><trkpt lat="50.225425487723356" lon="4.372601926518328"><ele>222.0</ele><time>2026-04-30T14:19:34.999Z</time></trkpt><trkpt lat="50.22547747823489" lon="4.372816073873452"><ele>222.0</ele><time>2026-04-30T14:19:35.999Z</time></trkpt><trkpt lat="50.22551833744911" lon="4.3730084610984195"><ele>221.5</ele><time>2026-04-30T14:19:36.999Z</time></trkpt><trkpt lat="50.22555195404025" lon="4.373177764562189"><ele>221.0</ele><time>2026-04-30T14:19:37.999Z</time></trkpt><trkpt lat="50.22558199630478" lon="4.373357679523063"><ele>220.5</ele><time>2026-04-30T14:19:38.999Z</time></trkpt><trkpt lat="50.22561293439901" lon="4.373536280380812"><ele>220.0</ele><time>2026-04-30T14:19:39.999Z</time></trkpt><trkpt lat="50.22564946433167" lon="4.373706813701365"><ele>222.0</ele><time>2026-04-30T14:19:40.999Z</time></trkpt><trkpt lat="50.22569005689983" lon="4.373872331666538"><ele>224.0</ele><time>2026-04-30T14:19:41.999Z</time></trkpt><trkpt lat="50.22572277103488" lon="4.374022412598389"><ele>226.0</ele><time>2026-04-30T14:19:42.999Z</time></trkpt><trkpt lat="50.22575221870437" lon="4.374156880384748"><ele>228.0</ele><time>2026-04-30T14:19:43.999Z</time></trkpt><trkpt lat="50.22575053410964" lon="4.374278895108326"><ele>230.0</ele><time>2026-04-30T14:19:44.999Z</time></trkpt><trkpt lat="50.22573523358296" lon="4.374389219467789"><ele>230.00000000000003</ele><time>2026-04-30T14:19:45.999Z</time></trkpt><trkpt lat="50.22572228498577" lon="4.374502837627919"><ele>230.0</ele><time>2026-04-30T14:19:46.999Z</time></trkpt><trkpt lat="50.22569081717484" lon="4.374641027940406"><ele>230.0</ele><time>2026-04-30T14:19:48.999Z</time></trkpt><trkpt lat="50.22560458797821" lon="4.374600956137973"><ele>230.0</ele><time>2026-04-30T14:19:49.999Z</time></trkpt><trkpt lat="50.22552239674408" lon="4.374641087878935"><ele>230.00000000000003</ele><time>2026-04-30T14:19:50.999Z</time></trkpt><trkpt lat="50.22543048264809" lon="4.374687061552539"><ele>230.0</ele><time>2026-04-30T14:19:51.999Z</time></trkpt><trkpt lat="50.22534527725262" lon="4.3747296796748545"><ele>228.33333333333334</ele><time>2026-04-30T14:19:52.999Z</time></trkpt><trkpt lat="50.22526877156101" lon="4.374771148203718"><ele>226.66666666666669</ele><time>2026-04-30T14:19:53.999Z</time></trkpt><trkpt lat="50.22520130288256" lon="4.374826604009116"><ele>225.0</ele><time>2026-04-30T14:19:54.999Z</time></trkpt><trkpt lat="50.22515278955285" lon="4.374910098344688"><ele>223.33333333333331</ele><time>2026-04-30T14:19:55.999Z</time></trkpt><trkpt lat="50.22511947558559" lon="4.3749940806427166"><ele>221.66666666666666</ele><time>2026-04-30T14:19:56.999Z</time></trkpt><trkpt lat="50.225136379117295" lon="4.375213389812818"><ele>220.0</ele><time>2026-04-30T14:19:58.999Z</time></trkpt><trkpt lat="50.225146552383144" lon="4.375350348091907"><ele>220.0</ele><time>2026-04-30T14:19:59.999Z</time></trkpt><trkpt lat="50.225150098511435" lon="4.375509105829836"><ele>220.0</ele><time>2026-04-30T14:20:00.999Z</time></trkpt><trkpt lat="50.22515690249318" lon="4.3756633659753605"><ele>220.0</ele><time>2026-04-30T14:20:01.999Z</time></trkpt><trkpt lat="50.22516063703316" lon="4.375782866769809"><ele>220.0</ele><time>2026-04-30T14:20:02.999Z</time></trkpt><trkpt lat="50.225154308782976" lon="4.375949390358219"><ele>220.0</ele><time>2026-04-30T14:20:04.999Z</time></trkpt><trkpt lat="50.22504137771448" lon="4.376060293800294"><ele>219.8</ele><time>2026-04-30T14:20:07.999Z</time></trkpt><trkpt lat="50.22497163453104" lon="4.376060476670315"><ele>219.6</ele><time>2026-04-30T14:20:08.999Z</time></trkpt><trkpt lat="50.22491249685883" lon="4.376096184669016"><ele>219.39999999999998</ele><time>2026-04-30T14:20:09.999Z</time></trkpt><trkpt lat="50.224827512211874" lon="4.3761118802067696"><ele>219.2</ele><time>2026-04-30T14:20:11.999Z</time></trkpt><trkpt lat="50.22484256578449" lon="4.376371839572521"><ele>219.0</ele><time>2026-04-30T14:20:12.999Z</time></trkpt><trkpt lat="50.224823410148666" lon="4.376527516274401"><ele>219.5</ele><time>2026-04-30T14:20:13.999Z</time></trkpt><trkpt lat="50.22481122271171" lon="4.376692579164921"><ele>220.0</ele><time>2026-04-30T14:20:14.999Z</time></trkpt><trkpt lat="50.22481525819644" lon="4.376872425338466"><ele>220.5</ele><time>2026-04-30T14:20:15.999Z</time></trkpt><trkpt lat="50.22480412524979" lon="4.377053754584163"><ele>221.0</ele><time>2026-04-30T14:20:16.999Z</time></trkpt><trkpt lat="50.22479621570301" lon="4.377248995785618"><ele>219.0</ele><time>2026-04-30T14:20:17.999Z</time></trkpt><trkpt lat="50.22478892117201" lon="4.377444312295099"><ele>217.0</ele><time>2026-04-30T14:20:18.999Z</time></trkpt><trkpt lat="50.22477619414978" lon="4.377620751418479"><ele>215.0</ele><time>2026-04-30T14:20:19.999Z</time></trkpt><trkpt lat="50.22476452520191" lon="4.377789814482557"><ele>213.0</ele><time>2026-04-30T14:20:20.999Z</time></trkpt><trkpt lat="50.22475380740269" lon="4.377964338537885"><ele>212.75</ele><time>2026-04-30T14:20:21.999Z</time></trkpt><trkpt lat="50.2247440730255" lon="4.3781467856331595"><ele>212.5</ele><time>2026-04-30T14:20:22.999Z</time></trkpt><trkpt lat="50.22471340108276" lon="4.37832402064574"><ele>212.25</ele><time>2026-04-30T14:20:23.999Z</time></trkpt><trkpt lat="50.224718656170204" lon="4.378513899559831"><ele>212.0</ele><time>2026-04-30T14:20:24.999Z</time></trkpt><trkpt lat="50.224714093944925" lon="4.378689442756597"><ele>212.0</ele><time>2026-04-30T14:20:25.999Z</time></trkpt><trkpt lat="50.2247171766704" lon="4.378849637852662"><ele>212.0</ele><time>2026-04-30T14:20:26.999Z</time></trkpt><trkpt lat="50.224745225331155" lon="4.3790073413888715"><ele>212.0</ele><time>2026-04-30T14:20:27.999Z</time></trkpt><trkpt lat="50.22478531898994" lon="4.379164111675096"><ele>212.0</ele><time>2026-04-30T14:20:28.999Z</time></trkpt><trkpt lat="50.22481563805243" lon="4.379307931474029"><ele>212.0</ele><time>2026-04-30T14:20:29.999Z</time></trkpt><trkpt lat="50.2248488264" lon="4.3794386586191685"><ele>211.83333333333334</ele><time>2026-04-30T14:20:30.999Z</time></trkpt><trkpt lat="50.22487197709467" lon="4.37957078465619"><ele>211.66666666666669</ele><time>2026-04-30T14:20:31.999Z</time></trkpt><trkpt lat="50.22488381648406" lon="4.379707710692184"><ele>211.5</ele><time>2026-04-30T14:20:32.999Z</time></trkpt><trkpt lat="50.22487990972197" lon="4.379827293276225"><ele>211.33333333333331</ele><time>2026-04-30T14:20:33.999Z</time></trkpt><trkpt lat="50.22486277624005" lon="4.379927718990948"><ele>211.16666666666666</ele><time>2026-04-30T14:20:34.998Z</time></trkpt><trkpt lat="50.22478023288997" lon="4.380061951770718"><ele>211.0</ele><time>2026-04-30T14:20:36.998Z</time></trkpt><trkpt lat="50.22471178002782" lon="4.380088032255432"><ele>211.0</ele><time>2026-04-30T14:20:37.998Z</time></trkpt><trkpt lat="50.224618213921396" lon="4.380090730439987"><ele>211.0</ele><time>2026-04-30T14:20:39Z</time></trkpt><trkpt lat="50.22450250455837" lon="4.380057584809647"><ele>211.0</ele><time>2026-04-30T14:20:40Z</time></trkpt><trkpt lat="50.22437328611811" lon="4.380071497996653"><ele>211.0</ele><time>2026-04-30T14:20:41Z</time></trkpt><trkpt lat="50.224258335099336" lon="4.380082343722344"><ele>211.0</ele><time>2026-04-30T14:20:42Z</time></trkpt><trkpt lat="50.22416108037707" lon="4.380078839086279"><ele>211.0</ele><time>2026-04-30T14:20:43Z</time></trkpt><trkpt lat="50.224073674761556" lon="4.380117685494759"><ele>211.0</ele><time>2026-04-30T14:20:44Z</time></trkpt><trkpt lat="50.22398122242514" lon="4.38015684386246"><ele>211.0</ele><time>2026-04-30T14:20:45Z</time></trkpt><trkpt lat="50.22387518372388" lon="4.380218125599126"><ele>211.0</ele><time>2026-04-30T14:20:46Z</time></trkpt><trkpt lat="50.22375868772777" lon="4.380279761795442"><ele>210.5</ele><time>2026-04-30T14:20:47Z</time></trkpt><trkpt lat="50.22363181554824" lon="4.380353095165239"><ele>210.0</ele><time>2026-04-30T14:20:48Z</time></trkpt><trkpt lat="50.223495798829454" lon="4.380428453067758"><ele>209.5</ele><time>2026-04-30T14:20:49Z</time></trkpt><trkpt lat="50.22337140402147" lon="4.380503327994812"><ele>209.0</ele><time>2026-04-30T14:20:50Z</time></trkpt><trkpt lat="50.223270862722586" lon="4.380576946737054"><ele>209.0</ele><time>2026-04-30T14:20:51Z</time></trkpt><trkpt lat="50.2231948215743" lon="4.380658934850504"><ele>209.0</ele><time>2026-04-30T14:20:52Z</time></trkpt><trkpt lat="50.22312842940111" lon="4.380778178233164"><ele>209.0</ele><time>2026-04-30T14:20:53Z</time></trkpt><trkpt lat="50.22306499335108" lon="4.3809246716414"><ele>209.0</ele><time>2026-04-30T14:20:54Z</time></trkpt><trkpt lat="50.2230100774635" lon="4.381088615266896"><ele>209.0</ele><time>2026-04-30T14:20:55Z</time></trkpt><trkpt lat="50.22296393134486" lon="4.381230427855214"><ele>209.0</ele><time>2026-04-30T14:20:56Z</time></trkpt><trkpt lat="50.22292920933734" lon="4.381338229288074"><ele>209.0</ele><time>2026-04-30T14:20:57Z</time></trkpt><trkpt lat="50.22288834226906" lon="4.381518100059682"><ele>209.0</ele><time>2026-04-30T14:21:00Z</time></trkpt><trkpt lat="50.222819777998026" lon="4.381644635324501"><ele>209.0</ele><time>2026-04-30T14:21:02Z</time></trkpt><trkpt lat="50.22274236398957" lon="4.381718757298912"><ele>209.0</ele><time>2026-04-30T14:21:03Z</time></trkpt><trkpt lat="50.22264786807598" lon="4.381811843176841"><ele>209.25</ele><time>2026-04-30T14:21:04Z</time></trkpt><trkpt lat="50.22252967692974" lon="4.381929258841345"><ele>209.5</ele><time>2026-04-30T14:21:05Z</time></trkpt><trkpt lat="50.2224088788765" lon="4.382062403124022"><ele>209.75</ele><time>2026-04-30T14:21:06Z</time></trkpt><trkpt lat="50.22228995861557" lon="4.38220985977551"><ele>210.0</ele><time>2026-04-30T14:21:06.999Z</time></trkpt><trkpt lat="50.222164394042245" lon="4.382367596227357"><ele>210.33333333333331</ele><time>2026-04-30T14:21:07.999Z</time></trkpt><trkpt lat="50.22203704512569" lon="4.382517234130132"><ele>210.66666666666666</ele><time>2026-04-30T14:21:08.999Z</time></trkpt><trkpt lat="50.221908926092304" lon="4.382649131951352"><ele>211.0</ele><time>2026-04-30T14:21:09.999Z</time></trkpt><trkpt lat="50.22177775791131" lon="4.382762101648022"><ele>211.0</ele><time>2026-04-30T14:21:10.999Z</time></trkpt><trkpt lat="50.2216383349515" lon="4.382855245842053"><ele>211.0</ele><time>2026-04-30T14:21:11.999Z</time></trkpt><trkpt lat="50.2214952329584" lon="4.382940266805962"><ele>211.0</ele><time>2026-04-30T14:21:12.999Z</time></trkpt><trkpt lat="50.22135111261826" lon="4.3830147846502285"><ele>211.0</ele><time>2026-04-30T14:21:13.999Z</time></trkpt><trkpt lat="50.22120536561628" lon="4.383079686249752"><ele>211.0</ele><time>2026-04-30T14:21:14.999Z</time></trkpt><trkpt lat="50.22105772797974" lon="4.38312186991011"><ele>211.0</ele><time>2026-04-30T14:21:15.999Z</time></trkpt><trkpt lat="50.220900977939316" lon="4.383161621072397"><ele>211.0</ele><time>2026-04-30T14:21:16.999Z</time></trkpt><trkpt lat="50.22072950290702" lon="4.383211787374351"><ele>211.0</ele><time>2026-04-30T14:21:17.999Z</time></trkpt><trkpt lat="50.2205452664506" lon="4.383271378617989"><ele>211.0</ele><time>2026-04-30T14:21:18.999Z</time></trkpt><trkpt lat="50.22034737353595" lon="4.383322794009258"><ele>211.0</ele><time>2026-04-30T14:21:19.999Z</time></trkpt><trkpt lat="50.220143901947786" lon="4.383308376550679"><ele>211.0</ele><time>2026-04-30T14:21:20.999Z</time></trkpt><trkpt lat="50.21994347325641" lon="4.383309581597455"><ele>211.0</ele><time>2026-04-30T14:21:21.999Z</time></trkpt><trkpt lat="50.21976150962492" lon="4.383267647485326"><ele>211.0</ele><time>2026-04-30T14:21:22.999Z</time></trkpt><trkpt lat="50.219590430767916" lon="4.383206265290584"><ele>211.0</ele><time>2026-04-30T14:21:23.999Z</time></trkpt><trkpt lat="50.21942335135736" lon="4.383118505397676"><ele>211.0</ele><time>2026-04-30T14:21:24.999Z</time></trkpt><trkpt lat="50.21925792408235" lon="4.383017411303901"><ele>211.0</ele><time>2026-04-30T14:21:25.999Z</time></trkpt><trkpt lat="50.2191020286526" lon="4.382914419571728"><ele>211.0</ele><time>2026-04-30T14:21:26.999Z</time></trkpt><trkpt lat="50.21895818212115" lon="4.382815352748506"><ele>211.0</ele><time>2026-04-30T14:21:27.999Z</time></trkpt><trkpt lat="50.21882489955961" lon="4.382729116716141"><ele>212.8</ele><time>2026-04-30T14:21:28.999Z</time></trkpt><trkpt lat="50.2186977997136" lon="4.382662529756605"><ele>214.60000000000002</ele><time>2026-04-30T14:21:29.999Z</time></trkpt><trkpt lat="50.21860125756606" lon="4.382576551701252"><ele>216.4</ele><time>2026-04-30T14:21:30.999Z</time></trkpt><trkpt lat="50.218520112501444" lon="4.382512166837771"><ele>218.2</ele><time>2026-04-30T14:21:31.999Z</time></trkpt><trkpt lat="50.21845825811189" lon="4.382459308109837"><ele>220.0</ele><time>2026-04-30T14:21:32.999Z</time></trkpt><trkpt lat="50.21838858869724" lon="4.382390377607219"><ele>220.0</ele><time>2026-04-30T14:21:35.999Z</time></trkpt><trkpt lat="50.218276967711944" lon="4.382614989564983"><ele>220.0</ele><time>2026-04-30T14:21:39.999Z</time></trkpt><trkpt lat="50.21830257298207" lon="4.3827643252092905"><ele>220.0</ele><time>2026-04-30T14:21:40.999Z</time></trkpt><trkpt lat="50.21835463641623" lon="4.382919552000352"><ele>220.0</ele><time>2026-04-30T14:21:41.999Z</time></trkpt><trkpt lat="50.21842360219094" lon="4.383091354181877"><ele>220.0</ele><time>2026-04-30T14:21:42.999Z</time></trkpt><trkpt lat="50.21849049523533" lon="4.383281369973285"><ele>220.0</ele><time>2026-04-30T14:21:43.999Z</time></trkpt><trkpt lat="50.218540055030346" lon="4.383481858519834"><ele>220.0</ele><time>2026-04-30T14:21:44.999Z</time></trkpt><trkpt lat="50.21854283298747" lon="4.383670484467612"><ele>220.0</ele><time>2026-04-30T14:21:45.999Z</time></trkpt><trkpt lat="50.21851420849574" lon="4.383854935387442"><ele>220.0</ele><time>2026-04-30T14:21:46.999Z</time></trkpt><trkpt lat="50.21846234518502" lon="4.384036002798956"><ele>220.0</ele><time>2026-04-30T14:21:47.999Z</time></trkpt><trkpt lat="50.21837380420208" lon="4.3841940744710595"><ele>220.0</ele><time>2026-04-30T14:21:48.999Z</time></trkpt><trkpt lat="50.21826149363713" lon="4.384300004885674"><ele>220.0</ele><time>2026-04-30T14:21:49.999Z</time></trkpt><trkpt lat="50.218141089699486" lon="4.384369282900918"><ele>222.33333333333331</ele><time>2026-04-30T14:21:50.999Z</time></trkpt><trkpt lat="50.21800421996168" lon="4.384395337811502"><ele>224.66666666666669</ele><time>2026-04-30T14:21:51.999Z</time></trkpt><trkpt lat="50.217857756033624" lon="4.384379045110358"><ele>227.0</ele><time>2026-04-30T14:21:52.999Z</time></trkpt><trkpt lat="50.21768683067287" lon="4.384334726986702"><ele>227.0</ele><time>2026-04-30T14:21:53.999Z</time></trkpt><trkpt lat="50.217506672294206" lon="4.384312975030556"><ele>227.0</ele><time>2026-04-30T14:21:54.999Z</time></trkpt><trkpt lat="50.21731556286299" lon="4.3842811869980425"><ele>227.0</ele><time>2026-04-30T14:21:55.999Z</time></trkpt><trkpt lat="50.217133374332676" lon="4.3842940568857705"><ele>230.0</ele><time>2026-04-30T14:21:56.999Z</time></trkpt><trkpt lat="50.21697030415083" lon="4.384345037114144"><ele>233.0</ele><time>2026-04-30T14:21:57.999Z</time></trkpt><trkpt lat="50.21680960564387" lon="4.384434366509647"><ele>236.0</ele><time>2026-04-30T14:21:58.999Z</time></trkpt><trkpt lat="50.216649792290404" lon="4.384553977330437"><ele>235.33333333333334</ele><time>2026-04-30T14:21:59.999Z</time></trkpt><trkpt lat="50.21649776571814" lon="4.384710797668038"><ele>234.66666666666669</ele><time>2026-04-30T14:22:00.999Z</time></trkpt><trkpt lat="50.21635560495145" lon="4.384908123193223"><ele>234.0</ele><time>2026-04-30T14:22:01.999Z</time></trkpt><trkpt lat="50.21621954090008" lon="4.385145352043746"><ele>234.0</ele><time>2026-04-30T14:22:02.999Z</time></trkpt><trkpt lat="50.21607842388702" lon="4.385409713967208"><ele>234.0</ele><time>2026-04-30T14:22:03.999Z</time></trkpt><trkpt lat="50.215932795709584" lon="4.385695042709414"><ele>234.33333333333331</ele><time>2026-04-30T14:22:04.999Z</time></trkpt><trkpt lat="50.21580059389612" lon="4.385957320246529"><ele>234.66666666666666</ele><time>2026-04-30T14:22:05.999Z</time></trkpt><trkpt lat="50.21569026880766" lon="4.386197020204499"><ele>235.0</ele><time>2026-04-30T14:22:06.999Z</time></trkpt><trkpt lat="50.21560040825997" lon="4.386440752549334"><ele>235.0</ele><time>2026-04-30T14:22:07.999Z</time></trkpt><trkpt lat="50.21552528491245" lon="4.386698545574867"><ele>235.0</ele><time>2026-04-30T14:22:08.999Z</time></trkpt><trkpt lat="50.215481929204316" lon="4.386977803369253"><ele>235.0</ele><time>2026-04-30T14:22:09.999Z</time></trkpt><trkpt lat="50.21545486783268" lon="4.387281602060372"><ele>234.0</ele><time>2026-04-30T14:22:10.999Z</time></trkpt><trkpt lat="50.21544078047169" lon="4.387622335916157"><ele>233.0</ele><time>2026-04-30T14:22:11.999Z</time></trkpt><trkpt lat="50.21541226305644" lon="4.387971372759956"><ele>232.0</ele><time>2026-04-30T14:22:12.999Z</time></trkpt><trkpt lat="50.215380880046624" lon="4.3883302824023325"><ele>230.66666666666666</ele><time>2026-04-30T14:22:13.999Z</time></trkpt><trkpt lat="50.2153593098192" lon="4.388677086410003"><ele>229.33333333333331</ele><time>2026-04-30T14:22:14.999Z</time></trkpt><trkpt lat="50.21534062712662" lon="4.38900102052401"><ele>228.0</ele><time>2026-04-30T14:22:15.999Z</time></trkpt><trkpt lat="50.21532115705215" lon="4.389300191429788"><ele>226.33333333333331</ele><time>2026-04-30T14:22:16.999Z</time></trkpt><trkpt lat="50.215308555400185" lon="4.389577454730469"><ele>224.66666666666666</ele><time>2026-04-30T14:22:17.999Z</time></trkpt><trkpt lat="50.21529950153739" lon="4.389837937661136"><ele>223.0</ele><time>2026-04-30T14:22:18.999Z</time></trkpt><trkpt lat="50.21529385573237" lon="4.390080670656587"><ele>220.5</ele><time>2026-04-30T14:22:19.999Z</time></trkpt><trkpt lat="50.215290822964164" lon="4.390312813797769"><ele>218.0</ele><time>2026-04-30T14:22:20.999Z</time></trkpt><trkpt lat="50.2152897990911" lon="4.390532514176876"><ele>215.5</ele><time>2026-04-30T14:22:21.999Z</time></trkpt><trkpt lat="50.215286894774415" lon="4.3907552367476725"><ele>213.0</ele><time>2026-04-30T14:22:22.999Z</time></trkpt><trkpt lat="50.215283460392506" lon="4.390978304606875"><ele>211.25</ele><time>2026-04-30T14:22:23.999Z</time></trkpt><trkpt lat="50.21527669281186" lon="4.391183599013962"><ele>209.5</ele><time>2026-04-30T14:22:24.999Z</time></trkpt><trkpt lat="50.21526926332801" lon="4.3913648309734565"><ele>207.75</ele><time>2026-04-30T14:22:25.998Z</time></trkpt><trkpt lat="50.21525218391968" lon="4.391534788218353"><ele>206.0</ele><time>2026-04-30T14:22:26.998Z</time></trkpt><trkpt lat="50.215236246867995" lon="4.391698377185765"><ele>205.8</ele><time>2026-04-30T14:22:27.998Z</time></trkpt><trkpt lat="50.21527907946605" lon="4.391854212406602"><ele>205.60000000000002</ele><time>2026-04-30T14:22:28.998Z</time></trkpt><trkpt lat="50.2152771457778" lon="4.391977027642368"><ele>205.4</ele><time>2026-04-30T14:22:29.998Z</time></trkpt><trkpt lat="50.21527312376525" lon="4.392109981471821"><ele>205.2</ele><time>2026-04-30T14:22:30.998Z</time></trkpt><trkpt lat="50.215265930218294" lon="4.392252794198772"><ele>205.0</ele><time>2026-04-30T14:22:31.998Z</time></trkpt><trkpt lat="50.21525446502285" lon="4.392414371778309"><ele>204.75</ele><time>2026-04-30T14:22:32.998Z</time></trkpt><trkpt lat="50.21524216051214" lon="4.392590444093592"><ele>204.5</ele><time>2026-04-30T14:22:33.998Z</time></trkpt><trkpt lat="50.21521891396927" lon="4.392779949271929"><ele>204.25</ele><time>2026-04-30T14:22:34.998Z</time></trkpt><trkpt lat="50.21519670997952" lon="4.392977700266469"><ele>204.0</ele><time>2026-04-30T14:22:35.998Z</time></trkpt><trkpt lat="50.21518613240244" lon="4.393188111926988"><ele>204.0</ele><time>2026-04-30T14:22:36.998Z</time></trkpt><trkpt lat="50.215185762334485" lon="4.393411846953598"><ele>204.0</ele><time>2026-04-30T14:22:37.998Z</time></trkpt><trkpt lat="50.21519651872724" lon="4.393661872765474"><ele>204.0</ele><time>2026-04-30T14:22:38.998Z</time></trkpt><trkpt lat="50.21521367327138" lon="4.393916810024474"><ele>204.0</ele><time>2026-04-30T14:22:39.998Z</time></trkpt><trkpt lat="50.21522993460889" lon="4.394176456389511"><ele>204.0</ele><time>2026-04-30T14:22:40.998Z</time></trkpt><trkpt lat="50.21523981747902" lon="4.394427607808523"><ele>204.0</ele><time>2026-04-30T14:22:41.998Z</time></trkpt><trkpt lat="50.215248541723234" lon="4.3946736372518185"><ele>204.0</ele><time>2026-04-30T14:22:42.998Z</time></trkpt><trkpt lat="50.21526012279213" lon="4.394920940808811"><ele>204.0</ele><time>2026-04-30T14:22:43.998Z</time></trkpt><trkpt lat="50.21527168574058" lon="4.395172760228815"><ele>204.0</ele><time>2026-04-30T14:22:45Z</time></trkpt><trkpt lat="50.215286806881515" lon="4.395421056291734"><ele>204.0</ele><time>2026-04-30T14:22:46Z</time></trkpt><trkpt lat="50.215296262509014" lon="4.395667533437483"><ele>204.0</ele><time>2026-04-30T14:22:47Z</time></trkpt><trkpt lat="50.215305888729" lon="4.395911545208161"><ele>204.0</ele><time>2026-04-30T14:22:48Z</time></trkpt><trkpt lat="50.215319162073705" lon="4.396159891094006"><ele>204.33333333333331</ele><time>2026-04-30T14:22:49Z</time></trkpt><trkpt lat="50.215331913013195" lon="4.396415124970432"><ele>204.66666666666666</ele><time>2026-04-30T14:22:50Z</time></trkpt><trkpt lat="50.215346139140514" lon="4.396673799064227"><ele>205.0</ele><time>2026-04-30T14:22:51Z</time></trkpt><trkpt lat="50.215359907213795" lon="4.396935303341142"><ele>205.33333333333331</ele><time>2026-04-30T14:22:52Z</time></trkpt><trkpt lat="50.21536693701948" lon="4.397194653837942"><ele>205.66666666666669</ele><time>2026-04-30T14:22:53Z</time></trkpt><trkpt lat="50.21538586794117" lon="4.397441036587923"><ele>206.0</ele><time>2026-04-30T14:22:54Z</time></trkpt><trkpt lat="50.21543093508157" lon="4.3976910791363775"><ele>206.0</ele><time>2026-04-30T14:22:55Z</time></trkpt><trkpt lat="50.21550424558011" lon="4.397958213304984"><ele>206.0</ele><time>2026-04-30T14:22:56Z</time></trkpt><trkpt lat="50.215557733319784" lon="4.398235338148789"><ele>206.0</ele><time>2026-04-30T14:22:57Z</time></trkpt><trkpt lat="50.215563103067936" lon="4.398518541819976"><ele>206.66666666666669</ele><time>2026-04-30T14:22:58Z</time></trkpt><trkpt lat="50.215570299021714" lon="4.398776207330639"><ele>207.33333333333331</ele><time>2026-04-30T14:22:59Z</time></trkpt><trkpt lat="50.21553328276638" lon="4.39903422138433"><ele>208.0</ele><time>2026-04-30T14:23:00Z</time></trkpt><trkpt lat="50.215474154464275" lon="4.399280312529412"><ele>212.0</ele><time>2026-04-30T14:23:01Z</time></trkpt><trkpt lat="50.21539060211318" lon="4.39952257490228"><ele>216.0</ele><time>2026-04-30T14:23:02Z</time></trkpt><trkpt lat="50.21526490883992" lon="4.399733577430907"><ele>220.0</ele><time>2026-04-30T14:23:03Z</time></trkpt><trkpt lat="50.21513522547148" lon="4.399969512638836"><ele>220.66666666666666</ele><time>2026-04-30T14:23:04Z</time></trkpt><trkpt lat="50.21497398963358" lon="4.400190930385904"><ele>221.33333333333331</ele><time>2026-04-30T14:23:05Z</time></trkpt><trkpt lat="50.214802480787824" lon="4.400433966623161"><ele>222.0</ele><time>2026-04-30T14:23:06Z</time></trkpt><trkpt lat="50.214640821720316" lon="4.400670283406199"><ele>223.66666666666669</ele><time>2026-04-30T14:23:07Z</time></trkpt><trkpt lat="50.21449959364894" lon="4.400903929134222"><ele>225.33333333333334</ele><time>2026-04-30T14:23:08Z</time></trkpt><trkpt lat="50.214376628008985" lon="4.401162567539699"><ele>227.0</ele><time>2026-04-30T14:23:09Z</time></trkpt><trkpt lat="50.21426396304496" lon="4.401433627436293"><ele>227.0</ele><time>2026-04-30T14:23:10Z</time></trkpt><trkpt lat="50.21416221879452" lon="4.401715270828635"><ele>227.0</ele><time>2026-04-30T14:23:11Z</time></trkpt><trkpt lat="50.21407656454393" lon="4.402018939098398"><ele>227.0</ele><time>2026-04-30T14:23:12Z</time></trkpt><trkpt lat="50.2140116576292" lon="4.40230534048029"><ele>229.33333333333334</ele><time>2026-04-30T14:23:13Z</time></trkpt><trkpt lat="50.2139626781163" lon="4.402568159284369"><ele>231.66666666666669</ele><time>2026-04-30T14:23:14Z</time></trkpt><trkpt lat="50.21392852644472" lon="4.402824893765923"><ele>234.0</ele><time>2026-04-30T14:23:15Z</time></trkpt><trkpt lat="50.21391080616282" lon="4.403082000731805"><ele>234.0</ele><time>2026-04-30T14:23:16Z</time></trkpt><trkpt lat="50.21389356826642" lon="4.403339465594416"><ele>234.0</ele><time>2026-04-30T14:23:17Z</time></trkpt><trkpt lat="50.2138891810902" lon="4.403576183297699"><ele>234.0</ele><time>2026-04-30T14:23:18Z</time></trkpt><trkpt lat="50.21388340641955" lon="4.403775129972264"><ele>234.0</ele><time>2026-04-30T14:23:19Z</time></trkpt><trkpt lat="50.213872336990775" lon="4.403952766077709"><ele>235.16666666666666</ele><time>2026-04-30T14:23:20Z</time></trkpt><trkpt lat="50.21386662242055" lon="4.4041113618248415"><ele>236.33333333333331</ele><time>2026-04-30T14:23:21Z</time></trkpt><trkpt lat="50.21386170152782" lon="4.404239648799411"><ele>237.5</ele><time>2026-04-30T14:23:22Z</time></trkpt><trkpt lat="50.213854866753124" lon="4.404342788386821"><ele>238.66666666666666</ele><time>2026-04-30T14:23:23Z</time></trkpt><trkpt lat="50.21386257351894" lon="4.4045205849936755"><ele>239.83333333333331</ele><time>2026-04-30T14:23:25Z</time></trkpt><trkpt lat="50.2138535811154" lon="4.404647091134447"><ele>241.0</ele><time>2026-04-30T14:23:26Z</time></trkpt><trkpt lat="50.213634254333925" lon="4.40463995252768"><ele>242.66666666666666</ele><time>2026-04-30T14:23:27Z</time></trkpt><trkpt lat="50.21351404541661" lon="4.4047204876656005"><ele>244.33333333333331</ele><time>2026-04-30T14:23:28Z</time></trkpt><trkpt lat="50.213366657146054" lon="4.404803504636901"><ele>246.0</ele><time>2026-04-30T14:23:29Z</time></trkpt><trkpt lat="50.213206079394624" lon="4.4048882909676745"><ele>247.33333333333331</ele><time>2026-04-30T14:23:30Z</time></trkpt><trkpt lat="50.213041602817725" lon="4.404990494100897"><ele>248.66666666666666</ele><time>2026-04-30T14:23:31Z</time></trkpt><trkpt lat="50.212875406965175" lon="4.405085256811528"><ele>250.0</ele><time>2026-04-30T14:23:32Z</time></trkpt><trkpt lat="50.21270072979964" lon="4.405188548637753"><ele>250.0</ele><time>2026-04-30T14:23:33Z</time></trkpt><trkpt lat="50.21252237634958" lon="4.405290002880089"><ele>250.0</ele><time>2026-04-30T14:23:34Z</time></trkpt><trkpt lat="50.212339783784266" lon="4.405393647249006"><ele>250.0</ele><time>2026-04-30T14:23:35Z</time></trkpt><trkpt lat="50.21216863445503" lon="4.405471704286778"><ele>252.66666666666666</ele><time>2026-04-30T14:23:36Z</time></trkpt><trkpt lat="50.21198806570753" lon="4.405487753277466"><ele>255.33333333333331</ele><time>2026-04-30T14:23:37Z</time></trkpt><trkpt lat="50.21178812823672" lon="4.405549251777687"><ele>258.0</ele><time>2026-04-30T14:23:38Z</time></trkpt><trkpt lat="50.211562028385266" lon="4.405563049557729"><ele>257.3333333333333</ele><time>2026-04-30T14:23:39Z</time></trkpt><trkpt lat="50.21134434579945" lon="4.4055422807377935"><ele>256.66666666666663</ele><time>2026-04-30T14:23:40Z</time></trkpt><trkpt lat="50.21113667456121" lon="4.405481839583027"><ele>256.0</ele><time>2026-04-30T14:23:41Z</time></trkpt><trkpt lat="50.21095350420408" lon="4.405364743884113"><ele>255.33333333333331</ele><time>2026-04-30T14:23:42Z</time></trkpt><trkpt lat="50.21077364320628" lon="4.40526882411702"><ele>254.66666666666669</ele><time>2026-04-30T14:23:43Z</time></trkpt><trkpt lat="50.21061571464778" lon="4.405090572401275"><ele>254.0</ele><time>2026-04-30T14:23:44Z</time></trkpt><trkpt lat="50.21045497451547" lon="4.404902828003846"><ele>254.0</ele><time>2026-04-30T14:23:45Z</time></trkpt><trkpt lat="50.21028596733692" lon="4.404687758346229"><ele>254.0</ele><time>2026-04-30T14:23:46Z</time></trkpt><trkpt lat="50.21010280046934" lon="4.404453210543928"><ele>255.0</ele><time>2026-04-30T14:23:47Z</time></trkpt><trkpt lat="50.209893542742634" lon="4.4042178845856546"><ele>256.0</ele><time>2026-04-30T14:23:48Z</time></trkpt><trkpt lat="50.20968240777981" lon="4.403949243623354"><ele>252.0</ele><time>2026-04-30T14:23:49Z</time></trkpt><trkpt lat="50.20948557158922" lon="4.403695822276736"><ele>248.0</ele><time>2026-04-30T14:23:50Z</time></trkpt><trkpt lat="50.20930563828922" lon="4.403466700123999"><ele>248.0</ele><time>2026-04-30T14:23:51Z</time></trkpt><trkpt lat="50.20914511561608" lon="4.403267660333971"><ele>248.0</ele><time>2026-04-30T14:23:51.999Z</time></trkpt><trkpt lat="50.2090121995917" lon="4.4031007565613995"><ele>248.0</ele><time>2026-04-30T14:23:52.999Z</time></trkpt><trkpt lat="50.20889436657987" lon="4.402978122971981"><ele>245.75</ele><time>2026-04-30T14:23:53.999Z</time></trkpt><trkpt lat="50.20877243860622" lon="4.402885753522412"><ele>243.5</ele><time>2026-04-30T14:23:54.999Z</time></trkpt><trkpt lat="50.20863445865159" lon="4.402851450420469"><ele>241.25</ele><time>2026-04-30T14:23:55.999Z</time></trkpt><trkpt lat="50.20848619883151" lon="4.402866471398432"><ele>239.0</ele><time>2026-04-30T14:23:56.999Z</time></trkpt><trkpt lat="50.20833916030527" lon="4.40294305995812"><ele>238.66666666666669</ele><time>2026-04-30T14:23:57.999Z</time></trkpt><trkpt lat="50.2082069679858" lon="4.403083694423491"><ele>238.33333333333331</ele><time>2026-04-30T14:23:58.999Z</time></trkpt><trkpt lat="50.20810230523444" lon="4.4032597857055285"><ele>238.0</ele><time>2026-04-30T14:23:59.999Z</time></trkpt><trkpt lat="50.20803703656402" lon="4.403466045654183"><ele>234.0</ele><time>2026-04-30T14:24:00.999Z</time></trkpt><trkpt lat="50.20800651884936" lon="4.403694914607657"><ele>230.0</ele><time>2026-04-30T14:24:01.999Z</time></trkpt><trkpt lat="50.20801476739146" lon="4.403937119975396"><ele>226.0</ele><time>2026-04-30T14:24:02.999Z</time></trkpt><trkpt lat="50.20805086337426" lon="4.404192463703863"><ele>224.0</ele><time>2026-04-30T14:24:03.999Z</time></trkpt><trkpt lat="50.20810369623231" lon="4.404480221911275"><ele>222.0</ele><time>2026-04-30T14:24:04.999Z</time></trkpt><trkpt lat="50.20814391195791" lon="4.40476956640498"><ele>220.0</ele><time>2026-04-30T14:24:05.999Z</time></trkpt><trkpt lat="50.208155708552155" lon="4.40501204806074"><ele>219.25</ele><time>2026-04-30T14:24:06.999Z</time></trkpt><trkpt lat="50.20813587999533" lon="4.405227174427292"><ele>218.5</ele><time>2026-04-30T14:24:07.999Z</time></trkpt><trkpt lat="50.20807680399598" lon="4.405417850572123"><ele>217.75</ele><time>2026-04-30T14:24:08.999Z</time></trkpt><trkpt lat="50.20799276241234" lon="4.405562612993636"><ele>217.0</ele><time>2026-04-30T14:24:09.999Z</time></trkpt><trkpt lat="50.207891786648354" lon="4.405673939172139"><ele>216.5</ele><time>2026-04-30T14:24:10.999Z</time></trkpt><trkpt lat="50.20776464161095" lon="4.40574906544639"><ele>216.0</ele><time>2026-04-30T14:24:11.999Z</time></trkpt><trkpt lat="50.20761687844355" lon="4.405767231015282"><ele>215.5</ele><time>2026-04-30T14:24:12.999Z</time></trkpt><trkpt lat="50.207456619937304" lon="4.405769385533615"><ele>215.0</ele><time>2026-04-30T14:24:13.999Z</time></trkpt><trkpt lat="50.207285543696344" lon="4.405771442671841"><ele>211.33333333333334</ele><time>2026-04-30T14:24:14.999Z</time></trkpt><trkpt lat="50.20709453014298" lon="4.405792727288909"><ele>207.66666666666669</ele><time>2026-04-30T14:24:15.999Z</time></trkpt><trkpt lat="50.206891450958466" lon="4.405793782532202"><ele>204.0</ele><time>2026-04-30T14:24:16.999Z</time></trkpt><trkpt lat="50.20668691188908" lon="4.405795609218659"><ele>205.33333333333331</ele><time>2026-04-30T14:24:17.999Z</time></trkpt><trkpt lat="50.20647948669932" lon="4.405795245828168"><ele>206.66666666666666</ele><time>2026-04-30T14:24:18.999Z</time></trkpt><trkpt lat="50.20627249743502" lon="4.405798238186288"><ele>208.0</ele><time>2026-04-30T14:24:19.999Z</time></trkpt><trkpt lat="50.206070038185636" lon="4.4058021874539275"><ele>208.0</ele><time>2026-04-30T14:24:20.999Z</time></trkpt><trkpt lat="50.205871964139156" lon="4.4058049063283065"><ele>208.0</ele><time>2026-04-30T14:24:21.999Z</time></trkpt><trkpt lat="50.20567143198291" lon="4.405812888906173"><ele>208.0</ele><time>2026-04-30T14:24:22.999Z</time></trkpt><trkpt lat="50.20547315547876" lon="4.405820889452619"><ele>210.0</ele><time>2026-04-30T14:24:23.999Z</time></trkpt><trkpt lat="50.205276420353314" lon="4.405823616626099"><ele>212.0</ele><time>2026-04-30T14:24:24.999Z</time></trkpt><trkpt lat="50.20508570765174" lon="4.4058267474259365"><ele>214.0</ele><time>2026-04-30T14:24:25.999Z</time></trkpt><trkpt lat="50.204899004203284" lon="4.405823918707748"><ele>215.0</ele><time>2026-04-30T14:24:26.999Z</time></trkpt><trkpt lat="50.20470836357506" lon="4.405815675811171"><ele>216.0</ele><time>2026-04-30T14:24:27.999Z</time></trkpt><trkpt lat="50.20450989766919" lon="4.405807365174248"><ele>217.0</ele><time>2026-04-30T14:24:28.999Z</time></trkpt><trkpt lat="50.20429655554227" lon="4.405804532859554"><ele>217.0</ele><time>2026-04-30T14:24:29.999Z</time></trkpt><trkpt lat="50.204081860188836" lon="4.405800032046445"><ele>217.0</ele><time>2026-04-30T14:24:30.999Z</time></trkpt><trkpt lat="50.203862809591875" lon="4.405802851642785"><ele>217.0</ele><time>2026-04-30T14:24:31.999Z</time></trkpt><trkpt lat="50.2036384299129" lon="4.4058106717981635"><ele>220.5</ele><time>2026-04-30T14:24:32.999Z</time></trkpt><trkpt lat="50.20340742242756" lon="4.405834047672401"><ele>224.0</ele><time>2026-04-30T14:24:33.999Z</time></trkpt><trkpt lat="50.203169241041444" lon="4.405851456496786"><ele>229.5</ele><time>2026-04-30T14:24:34.999Z</time></trkpt><trkpt lat="50.202926919515306" lon="4.405858688528252"><ele>235.0</ele><time>2026-04-30T14:24:35.999Z</time></trkpt><trkpt lat="50.20267804133365" lon="4.405856004532722"><ele>235.0</ele><time>2026-04-30T14:24:36.999Z</time></trkpt><trkpt lat="50.20243986148562" lon="4.405855265534204"><ele>235.0</ele><time>2026-04-30T14:24:37.999Z</time></trkpt><trkpt lat="50.202225420808716" lon="4.405855213695691"><ele>239.33333333333331</ele><time>2026-04-30T14:24:38.999Z</time></trkpt><trkpt lat="50.20202829112399" lon="4.405875980602455"><ele>243.66666666666669</ele><time>2026-04-30T14:24:39.999Z</time></trkpt><trkpt lat="50.201834579360906" lon="4.405912222950537"><ele>248.0</ele><time>2026-04-30T14:24:40.999Z</time></trkpt><trkpt lat="50.20164573009243" lon="4.405991291665859"><ele>251.0</ele><time>2026-04-30T14:24:41.999Z</time></trkpt><trkpt lat="50.201460257491455" lon="4.406109936836474"><ele>254.0</ele><time>2026-04-30T14:24:42.999Z</time></trkpt><trkpt lat="50.20126978965354" lon="4.406252338166686"><ele>257.0</ele><time>2026-04-30T14:24:43.999Z</time></trkpt><trkpt lat="50.20107039138489" lon="4.406387016889182"><ele>257.0</ele><time>2026-04-30T14:24:44.999Z</time></trkpt><trkpt lat="50.20085387514772" lon="4.40646014887689"><ele>257.0</ele><time>2026-04-30T14:24:45.999Z</time></trkpt><trkpt lat="50.20063514864359" lon="4.406507018798757"><ele>257.0</ele><time>2026-04-30T14:24:46.999Z</time></trkpt><trkpt lat="50.20041030580587" lon="4.4065662980227716"><ele>260.0</ele><time>2026-04-30T14:24:47.999Z</time></trkpt><trkpt lat="50.20017253848589" lon="4.406600111923797"><ele>263.0</ele><time>2026-04-30T14:24:48.999Z</time></trkpt><trkpt lat="50.19992331328994" lon="4.4066405334511005"><ele>263.5</ele><time>2026-04-30T14:24:49.999Z</time></trkpt><trkpt lat="50.199664134943035" lon="4.406686694393503"><ele>264.0</ele><time>2026-04-30T14:24:51Z</time></trkpt><trkpt lat="50.199397405631494" lon="4.406728225246144"><ele>264.0</ele><time>2026-04-30T14:24:52Z</time></trkpt><trkpt lat="50.199142328146785" lon="4.406771244177063"><ele>264.0</ele><time>2026-04-30T14:24:53Z</time></trkpt><trkpt lat="50.19890490289466" lon="4.406810726417581"><ele>262.6666666666667</ele><time>2026-04-30T14:24:54Z</time></trkpt><trkpt lat="50.19868326608999" lon="4.406854684464092"><ele>261.33333333333337</ele><time>2026-04-30T14:24:55Z</time></trkpt><trkpt lat="50.19847672202874" lon="4.406914404755068"><ele>260.0</ele><time>2026-04-30T14:24:56Z</time></trkpt><trkpt lat="50.19828361568972" lon="4.406991735711989"><ele>259.0</ele><time>2026-04-30T14:24:57Z</time></trkpt><trkpt lat="50.19810215612576" lon="4.407091982581983"><ele>258.0</ele><time>2026-04-30T14:24:58Z</time></trkpt><trkpt lat="50.19791805515822" lon="4.407214362514249"><ele>257.0</ele><time>2026-04-30T14:24:59Z</time></trkpt><trkpt lat="50.1977203694615" lon="4.4073562774210515"><ele>257.0</ele><time>2026-04-30T14:25:00Z</time></trkpt><trkpt lat="50.19751061898726" lon="4.407470008731957"><ele>257.0</ele><time>2026-04-30T14:25:01Z</time></trkpt><trkpt lat="50.1973056118798" lon="4.4075956765977"><ele>257.0</ele><time>2026-04-30T14:25:02Z</time></trkpt><trkpt lat="50.19708702695458" lon="4.407672354717725"><ele>256.5</ele><time>2026-04-30T14:25:03Z</time></trkpt><trkpt lat="50.19685147700038" lon="4.407750627628884"><ele>256.0</ele><time>2026-04-30T14:25:04Z</time></trkpt><trkpt lat="50.19662403405633" lon="4.407830629121996"><ele>257.0</ele><time>2026-04-30T14:25:05Z</time></trkpt><trkpt lat="50.196424062139045" lon="4.407915207487968"><ele>258.0</ele><time>2026-04-30T14:25:05.999Z</time></trkpt><trkpt lat="50.196240935359995" lon="4.408015667861244"><ele>259.0</ele><time>2026-04-30T14:25:06.999Z</time></trkpt><trkpt lat="50.19606223649034" lon="4.408143325548822"><ele>259.3333333333333</ele><time>2026-04-30T14:25:07.999Z</time></trkpt><trkpt lat="50.19588403299559" lon="4.4082978086173235"><ele>259.6666666666667</ele><time>2026-04-30T14:25:08.999Z</time></trkpt><trkpt lat="50.19570858415979" lon="4.408475007191548"><ele>260.0</ele><time>2026-04-30T14:25:09.999Z</time></trkpt><trkpt lat="50.1955358734271" lon="4.408680355890047"><ele>260.33333333333337</ele><time>2026-04-30T14:25:10.999Z</time></trkpt><trkpt lat="50.195386521569" lon="4.408883802373111"><ele>260.6666666666667</ele><time>2026-04-30T14:25:11.999Z</time></trkpt><trkpt lat="50.19525696605465" lon="4.409075021311992"><ele>261.0</ele><time>2026-04-30T14:25:12.999Z</time></trkpt><trkpt lat="50.195133193182386" lon="4.409256711179065"><ele>261.0</ele><time>2026-04-30T14:25:13.999Z</time></trkpt><trkpt lat="50.195004452040585" lon="4.4094388489624405"><ele>261.0</ele><time>2026-04-30T14:25:14.999Z</time></trkpt><trkpt lat="50.19487169395193" lon="4.409616922704744"><ele>261.0</ele><time>2026-04-30T14:25:15.999Z</time></trkpt><trkpt lat="50.19473451944245" lon="4.409781459162594"><ele>260.0</ele><time>2026-04-30T14:25:16.999Z</time></trkpt><trkpt lat="50.19458438557863" lon="4.409936612673329"><ele>259.0</ele><time>2026-04-30T14:25:17.999Z</time></trkpt><trkpt lat="50.194415924957944" lon="4.41008222434162"><ele>258.0</ele><time>2026-04-30T14:25:18.999Z</time></trkpt><trkpt lat="50.194230206950905" lon="4.410213280893112"><ele>258.0</ele><time>2026-04-30T14:25:19.999Z</time></trkpt><trkpt lat="50.19403257509639" lon="4.410304705583027"><ele>258.0</ele><time>2026-04-30T14:25:20.999Z</time></trkpt><trkpt lat="50.193844103301274" lon="4.410385390906715"><ele>258.0</ele><time>2026-04-30T14:25:21.999Z</time></trkpt><trkpt lat="50.19364663259232" lon="4.410440338544783"><ele>255.0</ele><time>2026-04-30T14:25:22.999Z</time></trkpt><trkpt lat="50.19343964438978" lon="4.410490714820341"><ele>252.0</ele><time>2026-04-30T14:25:23.999Z</time></trkpt><trkpt lat="50.193223922696305" lon="4.410549006770527"><ele>249.0</ele><time>2026-04-30T14:25:24.999Z</time></trkpt><trkpt lat="50.19299512891568" lon="4.41060681166632"><ele>245.33333333333331</ele><time>2026-04-30T14:25:25.999Z</time></trkpt><trkpt lat="50.192778891650356" lon="4.41065459907917"><ele>241.66666666666666</ele><time>2026-04-30T14:25:26.999Z</time></trkpt><trkpt lat="50.1925681440721" lon="4.410706779623746"><ele>238.0</ele><time>2026-04-30T14:25:27.999Z</time></trkpt><trkpt lat="50.19237432269829" lon="4.410762128851407"><ele>235.33333333333331</ele><time>2026-04-30T14:25:28.999Z</time></trkpt><trkpt lat="50.19219188470221" lon="4.410812878485871"><ele>232.66666666666669</ele><time>2026-04-30T14:25:29.999Z</time></trkpt><trkpt lat="50.19201271995841" lon="4.410840511210412"><ele>230.0</ele><time>2026-04-30T14:25:30.999Z</time></trkpt><trkpt lat="50.1918258676671" lon="4.41082047109051"><ele>230.0</ele><time>2026-04-30T14:25:31.999Z</time></trkpt><trkpt lat="50.19162911802402" lon="4.410759602114533"><ele>230.0</ele><time>2026-04-30T14:25:32.999Z</time></trkpt><trkpt lat="50.19142892460479" lon="4.410672987089655"><ele>230.0</ele><time>2026-04-30T14:25:33.999Z</time></trkpt><trkpt lat="50.19122291938249" lon="4.4105840138800385"><ele>227.66666666666669</ele><time>2026-04-30T14:25:34.999Z</time></trkpt><trkpt lat="50.19101995283985" lon="4.410496117027589"><ele>225.33333333333331</ele><time>2026-04-30T14:25:35.999Z</time></trkpt><trkpt lat="50.19082374688037" lon="4.410424591053009"><ele>223.0</ele><time>2026-04-30T14:25:36.999Z</time></trkpt><trkpt lat="50.190616649385824" lon="4.410380906389266"><ele>220.0</ele><time>2026-04-30T14:25:37.999Z</time></trkpt><trkpt lat="50.19039489217668" lon="4.410372137656349"><ele>217.0</ele><time>2026-04-30T14:25:38.999Z</time></trkpt><trkpt lat="50.19016012756792" lon="4.410377252271093"><ele>217.0</ele><time>2026-04-30T14:25:39.999Z</time></trkpt><trkpt lat="50.18992824905036" lon="4.410395007528643"><ele>217.0</ele><time>2026-04-30T14:25:40.999Z</time></trkpt><trkpt lat="50.1897075612838" lon="4.4104076677972"><ele>216.0</ele><time>2026-04-30T14:25:41.999Z</time></trkpt><trkpt lat="50.189497522537174" lon="4.410416689897251"><ele>215.0</ele><time>2026-04-30T14:25:42.999Z</time></trkpt><trkpt lat="50.18929604976991" lon="4.410433872469791"><ele>214.0</ele><time>2026-04-30T14:25:43.999Z</time></trkpt><trkpt lat="50.189097683027846" lon="4.410445721443873"><ele>212.66666666666666</ele><time>2026-04-30T14:25:44.999Z</time></trkpt><trkpt lat="50.18890051116171" lon="4.410451230959393"><ele>211.33333333333331</ele><time>2026-04-30T14:25:45.999Z</time></trkpt><trkpt lat="50.18871148437484" lon="4.410455859597103"><ele>210.0</ele><time>2026-04-30T14:25:46.999Z</time></trkpt><trkpt lat="50.18853205306851" lon="4.410442923531465"><ele>210.0</ele><time>2026-04-30T14:25:47.999Z</time></trkpt><trkpt lat="50.1883557445257" lon="4.410382947701682"><ele>210.0</ele><time>2026-04-30T14:25:48.999Z</time></trkpt><trkpt lat="50.18818054566642" lon="4.410279966562777"><ele>210.0</ele><time>2026-04-30T14:25:49.999Z</time></trkpt><trkpt lat="50.18801368139876" lon="4.4101376764332825"><ele>209.66666666666669</ele><time>2026-04-30T14:25:50.999Z</time></trkpt><trkpt lat="50.187856065077675" lon="4.409952834760299"><ele>209.33333333333334</ele><time>2026-04-30T14:25:51.999Z</time></trkpt><trkpt lat="50.18769742998731" lon="4.409737870746556"><ele>209.0</ele><time>2026-04-30T14:25:52.999Z</time></trkpt><trkpt lat="50.18753446126253" lon="4.409504386878813"><ele>209.0</ele><time>2026-04-30T14:25:53.999Z</time></trkpt><trkpt lat="50.18736454861903" lon="4.409260624584646"><ele>209.0</ele><time>2026-04-30T14:25:54.999Z</time></trkpt><trkpt lat="50.18717994060239" lon="4.409006893774073"><ele>211.0</ele><time>2026-04-30T14:25:55.999Z</time></trkpt><trkpt lat="50.186993027824414" lon="4.408741541612749"><ele>213.0</ele><time>2026-04-30T14:25:56.999Z</time></trkpt><trkpt lat="50.186822354787765" lon="4.408495987041115"><ele>213.0</ele><time>2026-04-30T14:25:57.999Z</time></trkpt><trkpt lat="50.18666130133057" lon="4.408273669385571"><ele>213.0</ele><time>2026-04-30T14:25:58.999Z</time></trkpt><trkpt lat="50.186514308771706" lon="4.408064733226198"><ele>213.0</ele><time>2026-04-30T14:25:59.999Z</time></trkpt><trkpt lat="50.18639638526611" lon="4.407853118647927"><ele>211.33333333333331</ele><time>2026-04-30T14:26:00.999Z</time></trkpt><trkpt lat="50.18630441693547" lon="4.40762454209689"><ele>209.66666666666666</ele><time>2026-04-30T14:26:01.999Z</time></trkpt><trkpt lat="50.18623247549855" lon="4.407369703667"><ele>208.0</ele><time>2026-04-30T14:26:02.999Z</time></trkpt><trkpt lat="50.18618266338262" lon="4.407082257588511"><ele>207.66666666666666</ele><time>2026-04-30T14:26:03.999Z</time></trkpt><trkpt lat="50.1861370473827" lon="4.406762875629345"><ele>207.33333333333331</ele><time>2026-04-30T14:26:04.999Z</time></trkpt><trkpt lat="50.18608409926579" lon="4.406435253125005"><ele>207.0</ele><time>2026-04-30T14:26:05.999Z</time></trkpt><trkpt lat="50.186075803664195" lon="4.406055401717385"><ele>205.5</ele><time>2026-04-30T14:26:06.999Z</time></trkpt><trkpt lat="50.186024339576626" lon="4.40564891018389"><ele>204.0</ele><time>2026-04-30T14:26:07.999Z</time></trkpt><trkpt lat="50.18597667041302" lon="4.405214845389534"><ele>204.0</ele><time>2026-04-30T14:26:08.999Z</time></trkpt><trkpt lat="50.18593022871812" lon="4.404794119632834"><ele>204.0</ele><time>2026-04-30T14:26:09.999Z</time></trkpt><trkpt lat="50.18589050729808" lon="4.40440551381967"><ele>204.5</ele><time>2026-04-30T14:26:10.999Z</time></trkpt><trkpt lat="50.18584735671589" lon="4.404034657603681"><ele>205.0</ele><time>2026-04-30T14:26:11.999Z</time></trkpt><trkpt lat="50.18580555251381" lon="4.403682696741658"><ele>206.0</ele><time>2026-04-30T14:26:12.999Z</time></trkpt><trkpt lat="50.185764236768954" lon="4.403324853867528"><ele>207.0</ele><time>2026-04-30T14:26:13.999Z</time></trkpt><trkpt lat="50.185726120468125" lon="4.402968712780081"><ele>208.33333333333331</ele><time>2026-04-30T14:26:14.999Z</time></trkpt><trkpt lat="50.185693207394806" lon="4.402630516508473"><ele>209.66666666666666</ele><time>2026-04-30T14:26:15.999Z</time></trkpt><trkpt lat="50.185660288426426" lon="4.402313906664721"><ele>211.0</ele><time>2026-04-30T14:26:16.999Z</time></trkpt><trkpt lat="50.185631296059086" lon="4.402018998326227"><ele>215.66666666666666</ele><time>2026-04-30T14:26:17.999Z</time></trkpt><trkpt lat="50.18559940725019" lon="4.401749581422035"><ele>220.33333333333331</ele><time>2026-04-30T14:26:18.999Z</time></trkpt><trkpt lat="50.185546187642395" lon="4.401497525589763"><ele>225.0</ele><time>2026-04-30T14:26:19.999Z</time></trkpt><trkpt lat="50.18545590847469" lon="4.401242426947895"><ele>226.0</ele><time>2026-04-30T14:26:20.999Z</time></trkpt><trkpt lat="50.185334468848666" lon="4.40099870349199"><ele>227.0</ele><time>2026-04-30T14:26:21.999Z</time></trkpt><trkpt lat="50.18517434829413" lon="4.40077202322122"><ele>228.0</ele><time>2026-04-30T14:26:22.999Z</time></trkpt><trkpt lat="50.18499503540262" lon="4.4005376909240175"><ele>229.5</ele><time>2026-04-30T14:26:23.999Z</time></trkpt><trkpt lat="50.18480459300609" lon="4.400277771296015"><ele>231.0</ele><time>2026-04-30T14:26:24.999Z</time></trkpt><trkpt lat="50.1846154213677" lon="4.400007881730717"><ele>231.0</ele><time>2026-04-30T14:26:25.999Z</time></trkpt><trkpt lat="50.18443370709918" lon="4.399752448059991"><ele>231.0</ele><time>2026-04-30T14:26:26.998Z</time></trkpt><trkpt lat="50.18426765069104" lon="4.399526385201429"><ele>232.33333333333331</ele><time>2026-04-30T14:26:27.998Z</time></trkpt><trkpt lat="50.18411819528778" lon="4.3993386310210365"><ele>233.66666666666666</ele><time>2026-04-30T14:26:28.998Z</time></trkpt><trkpt lat="50.183988683431" lon="4.399159862659583"><ele>235.0</ele><time>2026-04-30T14:26:29.998Z</time></trkpt><trkpt lat="50.1838477544166" lon="4.399009987498479"><ele>235.33333333333331</ele><time>2026-04-30T14:26:30.998Z</time></trkpt><trkpt lat="50.18369216549327" lon="4.398904984717541"><ele>235.66666666666669</ele><time>2026-04-30T14:26:31.998Z</time></trkpt><trkpt lat="50.183525094270635" lon="4.398833657882563"><ele>236.0</ele><time>2026-04-30T14:26:32.998Z</time></trkpt><trkpt lat="50.18335334830399" lon="4.398797276684479"><ele>238.33333333333334</ele><time>2026-04-30T14:26:33.998Z</time></trkpt><trkpt lat="50.18318259463698" lon="4.3988055964213375"><ele>240.66666666666669</ele><time>2026-04-30T14:26:34.998Z</time></trkpt><trkpt lat="50.18301835344509" lon="4.398872151953612"><ele>243.0</ele><time>2026-04-30T14:26:35.998Z</time></trkpt><trkpt lat="50.18285293038411" lon="4.398962173452096"><ele>243.0</ele><time>2026-04-30T14:26:36.998Z</time></trkpt><trkpt lat="50.182694278472205" lon="4.399079636594286"><ele>243.0</ele><time>2026-04-30T14:26:37.998Z</time></trkpt><trkpt lat="50.18255472254759" lon="4.3991837691510245"><ele>243.0</ele><time>2026-04-30T14:26:38.998Z</time></trkpt><trkpt lat="50.18243358914865" lon="4.3992805358460405"><ele>244.0</ele><time>2026-04-30T14:26:39.998Z</time></trkpt><trkpt lat="50.182324417536684" lon="4.3993635698101645"><ele>245.0</ele><time>2026-04-30T14:26:40.998Z</time></trkpt><trkpt lat="50.18223182585961" lon="4.399432321022576"><ele>246.0</ele><time>2026-04-30T14:26:41.998Z</time></trkpt><trkpt lat="50.182151551887216" lon="4.399499328324946"><ele>247.0</ele><time>2026-04-30T14:26:42.998Z</time></trkpt><trkpt lat="50.18207186813791" lon="4.399548535899561"><ele>248.0</ele><time>2026-04-30T14:26:43.998Z</time></trkpt><trkpt lat="50.18198765753087" lon="4.3996024053359735"><ele>248.0</ele><time>2026-04-30T14:26:44.998Z</time></trkpt><trkpt lat="50.18190436564509" lon="4.399655958061938"><ele>248.0</ele><time>2026-04-30T14:26:45.998Z</time></trkpt><trkpt lat="50.18181447453505" lon="4.399727431169051"><ele>248.0</ele><time>2026-04-30T14:26:46.998Z</time></trkpt><trkpt lat="50.18172208676744" lon="4.399803649347554"><ele>248.0</ele><time>2026-04-30T14:26:47.998Z</time></trkpt><trkpt lat="50.18161953329065" lon="4.399886134618524"><ele>248.0</ele><time>2026-04-30T14:26:48.998Z</time></trkpt><trkpt lat="50.18150245354139" lon="4.399965149649033"><ele>241.33333333333334</ele><time>2026-04-30T14:26:49.998Z</time></trkpt><trkpt lat="50.18137433611679" lon="4.400050753519954"><ele>234.66666666666669</ele><time>2026-04-30T14:26:50.998Z</time></trkpt><trkpt lat="50.18123450637422" lon="4.400153489887437"><ele>228.0</ele><time>2026-04-30T14:26:51.998Z</time></trkpt><trkpt lat="50.18108441757752" lon="4.400261332460325"><ele>228.0</ele><time>2026-04-30T14:26:52.998Z</time></trkpt><trkpt lat="50.180934036376904" lon="4.400370875626384"><ele>228.0</ele><time>2026-04-30T14:26:53.998Z</time></trkpt><trkpt lat="50.18078506483551" lon="4.400478280508102"><ele>228.0</ele><time>2026-04-30T14:26:54.998Z</time></trkpt><trkpt lat="50.18064128305517" lon="4.400580826557999"><ele>228.33333333333331</ele><time>2026-04-30T14:26:55.998Z</time></trkpt><trkpt lat="50.18050864580201" lon="4.400689585974797"><ele>228.66666666666666</ele><time>2026-04-30T14:26:57Z</time></trkpt><trkpt lat="50.180387504972664" lon="4.400833336833743"><ele>229.0</ele><time>2026-04-30T14:26:58Z</time></trkpt><trkpt lat="50.180276901471245" lon="4.401016528880468"><ele>229.0</ele><time>2026-04-30T14:26:59Z</time></trkpt><trkpt lat="50.1801696601333" lon="4.401230769121217"><ele>229.0</ele><time>2026-04-30T14:27:00Z</time></trkpt><trkpt lat="50.18007372945152" lon="4.401485204050817"><ele>229.0</ele><time>2026-04-30T14:27:01Z</time></trkpt><trkpt lat="50.17998500448935" lon="4.401763019491914"><ele>228.0</ele><time>2026-04-30T14:27:02Z</time></trkpt><trkpt lat="50.17989164328336" lon="4.402038503230423"><ele>227.0</ele><time>2026-04-30T14:27:03Z</time></trkpt><trkpt lat="50.17980212154293" lon="4.402286272566213"><ele>226.0</ele><time>2026-04-30T14:27:04Z</time></trkpt><trkpt lat="50.17971521115946" lon="4.4025276987743895"><ele>226.33333333333331</ele><time>2026-04-30T14:27:05Z</time></trkpt><trkpt lat="50.17962813693263" lon="4.402767351975654"><ele>226.66666666666669</ele><time>2026-04-30T14:27:06Z</time></trkpt><trkpt lat="50.179546790724736" lon="4.403013498678397"><ele>227.0</ele><time>2026-04-30T14:27:07Z</time></trkpt><trkpt lat="50.179456783462285" lon="4.403245822973913"><ele>227.0</ele><time>2026-04-30T14:27:08Z</time></trkpt><trkpt lat="50.17936089114304" lon="4.40346204078919"><ele>227.0</ele><time>2026-04-30T14:27:09Z</time></trkpt><trkpt lat="50.17924938159818" lon="4.403638019366593"><ele>227.0</ele><time>2026-04-30T14:27:10Z</time></trkpt><trkpt lat="50.179110189412754" lon="4.403796754885597"><ele>225.66666666666669</ele><time>2026-04-30T14:27:11Z</time></trkpt><trkpt lat="50.17894707157713" lon="4.40394327479541"><ele>224.33333333333331</ele><time>2026-04-30T14:27:12Z</time></trkpt><trkpt lat="50.17876953743943" lon="4.404100682536513"><ele>223.0</ele><time>2026-04-30T14:27:13Z</time></trkpt><trkpt lat="50.1785860663267" lon="4.404258963582737"><ele>223.0</ele><time>2026-04-30T14:27:14Z</time></trkpt><trkpt lat="50.17840953774027" lon="4.404427025241898"><ele>223.0</ele><time>2026-04-30T14:27:15Z</time></trkpt><trkpt lat="50.17822990345996" lon="4.404588916204489"><ele>223.0</ele><time>2026-04-30T14:27:16Z</time></trkpt><trkpt lat="50.17806105848155" lon="4.404748690542997"><ele>219.33333333333331</ele><time>2026-04-30T14:27:17Z</time></trkpt><trkpt lat="50.17789251804025" lon="4.4048678734276345"><ele>215.66666666666669</ele><time>2026-04-30T14:27:18Z</time></trkpt><trkpt lat="50.17773611916434" lon="4.405035793012822"><ele>212.0</ele><time>2026-04-30T14:27:19Z</time></trkpt><trkpt lat="50.17757259282739" lon="4.405184629089188"><ele>212.0</ele><time>2026-04-30T14:27:20Z</time></trkpt><trkpt lat="50.17740698461134" lon="4.405344348476623"><ele>212.0</ele><time>2026-04-30T14:27:21Z</time></trkpt><trkpt lat="50.17723585811133" lon="4.4055016677902845"><ele>212.0</ele><time>2026-04-30T14:27:22Z</time></trkpt><trkpt lat="50.177058925966236" lon="4.405659556729407"><ele>211.66666666666669</ele><time>2026-04-30T14:27:23Z</time></trkpt><trkpt lat="50.17687794954989" lon="4.405817580770115"><ele>211.33333333333331</ele><time>2026-04-30T14:27:24Z</time></trkpt><trkpt lat="50.17669624325692" lon="4.405982613312339"><ele>211.0</ele><time>2026-04-30T14:27:25Z</time></trkpt><trkpt lat="50.17651232808199" lon="4.406156077395411"><ele>212.66666666666666</ele><time>2026-04-30T14:27:26Z</time></trkpt><trkpt lat="50.176328658732366" lon="4.406325623383837"><ele>214.33333333333331</ele><time>2026-04-30T14:27:27Z</time></trkpt><trkpt lat="50.17614815598831" lon="4.4064862846573565"><ele>216.0</ele><time>2026-04-30T14:27:28Z</time></trkpt><trkpt lat="50.17597577075674" lon="4.406626908587666"><ele>216.0</ele><time>2026-04-30T14:27:29Z</time></trkpt><trkpt lat="50.17580612582343" lon="4.406748748181012"><ele>216.0</ele><time>2026-04-30T14:27:30Z</time></trkpt><trkpt lat="50.175642803253346" lon="4.406847625539891"><ele>216.0</ele><time>2026-04-30T14:27:31Z</time></trkpt><trkpt lat="50.17548389801122" lon="4.406943868853874"><ele>215.33333333333331</ele><time>2026-04-30T14:27:32Z</time></trkpt><trkpt lat="50.17532834682304" lon="4.407044302108985"><ele>214.66666666666666</ele><time>2026-04-30T14:27:33Z</time></trkpt><trkpt lat="50.17517649983971" lon="4.407144192252026"><ele>214.0</ele><time>2026-04-30T14:27:34Z</time></trkpt><trkpt lat="50.175022619705466" lon="4.40724104276797"><ele>214.0</ele><time>2026-04-30T14:27:35Z</time></trkpt><trkpt lat="50.17487405199971" lon="4.407332769954142"><ele>214.0</ele><time>2026-04-30T14:27:36Z</time></trkpt><trkpt lat="50.17472801829492" lon="4.4074284053081305"><ele>214.0</ele><time>2026-04-30T14:27:37Z</time></trkpt><trkpt lat="50.174592833114204" lon="4.407533708626279"><ele>213.5</ele><time>2026-04-30T14:27:38Z</time></trkpt><trkpt lat="50.17446326240458" lon="4.407657539509014"><ele>213.0</ele><time>2026-04-30T14:27:39Z</time></trkpt><trkpt lat="50.17434974566909" lon="4.4077851299363076"><ele>212.5</ele><time>2026-04-30T14:27:40Z</time></trkpt><trkpt lat="50.17425428774103" lon="4.407896696561254"><ele>212.0</ele><time>2026-04-30T14:27:41Z</time></trkpt><trkpt lat="50.174179431224545" lon="4.407994895691268"><ele>212.16666666666669</ele><time>2026-04-30T14:27:42Z</time></trkpt><trkpt lat="50.17411116038637" lon="4.408057722362765"><ele>212.33333333333334</ele><time>2026-04-30T14:27:43Z</time></trkpt><trkpt lat="50.17404997781356" lon="4.408103730792058"><ele>212.5</ele><time>2026-04-30T14:27:44Z</time></trkpt><trkpt lat="50.17398488493381" lon="4.408115543595967"><ele>212.66666666666669</ele><time>2026-04-30T14:27:44.999Z</time></trkpt><trkpt lat="50.173868920785736" lon="4.4080437674175155"><ele>212.83333333333334</ele><time>2026-04-30T14:27:46.999Z</time></trkpt><trkpt lat="50.173798905496355" lon="4.407984216133965"><ele>213.0</ele><time>2026-04-30T14:27:47.999Z</time></trkpt><trkpt lat="50.17370641084148" lon="4.407941531200281"><ele>213.5</ele><time>2026-04-30T14:27:48.999Z</time></trkpt><trkpt lat="50.17360618840944" lon="4.4078961113788235"><ele>214.0</ele><time>2026-04-30T14:27:49.999Z</time></trkpt><trkpt lat="50.17364041932402" lon="4.407613100016916"><ele>214.5</ele><time>2026-04-30T14:27:50.999Z</time></trkpt><trkpt lat="50.17359170386309" lon="4.4074127001653425"><ele>215.0</ele><time>2026-04-30T14:27:51.999Z</time></trkpt><trkpt lat="50.17355738892267" lon="4.407170574478455"><ele>215.33333333333334</ele><time>2026-04-30T14:27:52.999Z</time></trkpt><trkpt lat="50.17350393078813" lon="4.406882414638677"><ele>215.66666666666669</ele><time>2026-04-30T14:27:53.999Z</time></trkpt><trkpt lat="50.17342260790113" lon="4.406569346736171"><ele>216.0</ele><time>2026-04-30T14:27:54.999Z</time></trkpt><trkpt lat="50.17330284863817" lon="4.406237248710141"><ele>217.5</ele><time>2026-04-30T14:27:55.999Z</time></trkpt><trkpt lat="50.17314814271095" lon="4.40591439036394"><ele>219.0</ele><time>2026-04-30T14:27:56.999Z</time></trkpt><trkpt lat="50.17296259577084" lon="4.4056184040859385"><ele>218.0</ele><time>2026-04-30T14:27:57.999Z</time></trkpt><trkpt lat="50.172741598292056" lon="4.405347477318828"><ele>217.0</ele><time>2026-04-30T14:27:58.999Z</time></trkpt><trkpt lat="50.17252588082434" lon="4.405106890204692"><ele>216.0</ele><time>2026-04-30T14:27:59.999Z</time></trkpt><trkpt lat="50.1723042998084" lon="4.404920367726647"><ele>215.0</ele><time>2026-04-30T14:28:00.999Z</time></trkpt><trkpt lat="50.172063308650586" lon="4.404768277098205"><ele>214.0</ele><time>2026-04-30T14:28:01.999Z</time></trkpt><trkpt lat="50.17180184966408" lon="4.404629800693058"><ele>213.0</ele><time>2026-04-30T14:28:02.999Z</time></trkpt><trkpt lat="50.171542997333496" lon="4.404440028884383"><ele>212.5</ele><time>2026-04-30T14:28:03.999Z</time></trkpt><trkpt lat="50.17128275575534" lon="4.404263294275486"><ele>212.0</ele><time>2026-04-30T14:28:04.999Z</time></trkpt><trkpt lat="50.171070825329714" lon="4.404042835294156"><ele>211.5</ele><time>2026-04-30T14:28:05.999Z</time></trkpt><trkpt lat="50.17088337049211" lon="4.403816632596443"><ele>211.0</ele><time>2026-04-30T14:28:06.999Z</time></trkpt><trkpt lat="50.170705834048405" lon="4.403571291997305"><ele>211.0</ele><time>2026-04-30T14:28:07.999Z</time></trkpt><trkpt lat="50.17053559650467" lon="4.403317713271222"><ele>211.0</ele><time>2026-04-30T14:28:08.999Z</time></trkpt><trkpt lat="50.17037341133975" lon="4.403077180482708"><ele>211.0</ele><time>2026-04-30T14:28:09.999Z</time></trkpt><trkpt lat="50.1702090085267" lon="4.402839395599558"><ele>211.0</ele><time>2026-04-30T14:28:10.999Z</time></trkpt><trkpt lat="50.17004400549792" lon="4.402603896556093"><ele>211.0</ele><time>2026-04-30T14:28:11.999Z</time></trkpt><trkpt lat="50.169883661273936" lon="4.402373997847644"><ele>212.0</ele><time>2026-04-30T14:28:12.999Z</time></trkpt><trkpt lat="50.16972846469777" lon="4.402148093403763"><ele>213.0</ele><time>2026-04-30T14:28:13.999Z</time></trkpt><trkpt lat="50.16958230483196" lon="4.401933011781993"><ele>214.0</ele><time>2026-04-30T14:28:14.999Z</time></trkpt><trkpt lat="50.16944225191527" lon="4.401731147914514"><ele>214.0</ele><time>2026-04-30T14:28:15.999Z</time></trkpt><trkpt lat="50.169309201704166" lon="4.401539496600149"><ele>214.0</ele><time>2026-04-30T14:28:16.999Z</time></trkpt><trkpt lat="50.169177619866836" lon="4.401349999187589"><ele>214.0</ele><time>2026-04-30T14:28:17.999Z</time></trkpt><trkpt lat="50.169045293532115" lon="4.401163674962681"><ele>214.33333333333331</ele><time>2026-04-30T14:28:18.999Z</time></trkpt><trkpt lat="50.16891324890526" lon="4.4009874586172835"><ele>214.66666666666669</ele><time>2026-04-30T14:28:19.999Z</time></trkpt><trkpt lat="50.168787792238845" lon="4.4008208839524485"><ele>215.0</ele><time>2026-04-30T14:28:20.999Z</time></trkpt><trkpt lat="50.16867370084738" lon="4.400714313140254"><ele>215.0</ele><time>2026-04-30T14:28:21.999Z</time></trkpt><trkpt lat="50.168571739290485" lon="4.400616619438138"><ele>215.0</ele><time>2026-04-30T14:28:22.999Z</time></trkpt><trkpt lat="50.168488623573026" lon="4.4005363014838705"><ele>215.0</ele><time>2026-04-30T14:28:23.999Z</time></trkpt><trkpt lat="50.16842009618839" lon="4.400478515808647"><ele>215.0</ele><time>2026-04-30T14:28:24.999Z</time></trkpt><trkpt lat="50.16833890920264" lon="4.4004171775846785"><ele>215.0</ele><time>2026-04-30T14:28:26.999Z</time></trkpt><trkpt lat="50.16825874673641" lon="4.400370072518445"><ele>216.0</ele><time>2026-04-30T14:28:28.999Z</time></trkpt><trkpt lat="50.16818407307181" lon="4.400322966438563"><ele>217.0</ele><time>2026-04-30T14:28:29.999Z</time></trkpt><trkpt lat="50.168084021892845" lon="4.400253341546567"><ele>218.0</ele><time>2026-04-30T14:28:30.999Z</time></trkpt><trkpt lat="50.16795839841264" lon="4.400174679077661"><ele>219.0</ele><time>2026-04-30T14:28:31.999Z</time></trkpt><trkpt lat="50.16781188902132" lon="4.400099680354591"><ele>219.0</ele><time>2026-04-30T14:28:32.999Z</time></trkpt><trkpt lat="50.167638786608414" lon="4.400038634472836"><ele>219.0</ele><time>2026-04-30T14:28:33.999Z</time></trkpt><trkpt lat="50.16744870301919" lon="4.399987074940022"><ele>219.0</ele><time>2026-04-30T14:28:34.999Z</time></trkpt><trkpt lat="50.167246160231244" lon="4.39994505213456"><ele>220.5</ele><time>2026-04-30T14:28:35.999Z</time></trkpt><trkpt lat="50.16702476225921" lon="4.399920150793049"><ele>222.0</ele><time>2026-04-30T14:28:36.999Z</time></trkpt><trkpt lat="50.166783109344706" lon="4.399920462597589"><ele>223.5</ele><time>2026-04-30T14:28:37.999Z</time></trkpt><trkpt lat="50.166524001045275" lon="4.399977584652282"><ele>225.0</ele><time>2026-04-30T14:28:38.999Z</time></trkpt><trkpt lat="50.166260385431755" lon="4.400056861120359"><ele>225.0</ele><time>2026-04-30T14:28:39.999Z</time></trkpt><trkpt lat="50.16599319803548" lon="4.400165879081043"><ele>225.0</ele><time>2026-04-30T14:28:40.999Z</time></trkpt><trkpt lat="50.16573114679932" lon="4.400284256813994"><ele>226.0</ele><time>2026-04-30T14:28:41.999Z</time></trkpt><trkpt lat="50.16547462075468" lon="4.4003944267697666"><ele>227.0</ele><time>2026-04-30T14:28:42.999Z</time></trkpt><trkpt lat="50.16522112970885" lon="4.4005044536696305"><ele>227.0</ele><time>2026-04-30T14:28:43.999Z</time></trkpt><trkpt lat="50.16497033583234" lon="4.400618844221106"><ele>227.0</ele><time>2026-04-30T14:28:44.999Z</time></trkpt><trkpt lat="50.164726062783615" lon="4.40073361743547"><ele>228.0</ele><time>2026-04-30T14:28:45.999Z</time></trkpt><trkpt lat="50.164493253583785" lon="4.400845579398913"><ele>229.0</ele><time>2026-04-30T14:28:46.999Z</time></trkpt><trkpt lat="50.16427493948189" lon="4.400948991843648"><ele>229.0</ele><time>2026-04-30T14:28:47.999Z</time></trkpt><trkpt lat="50.164059619535585" lon="4.401034391843989"><ele>229.0</ele><time>2026-04-30T14:28:48.999Z</time></trkpt><trkpt lat="50.163842686304065" lon="4.4010965664262205"><ele>229.0</ele><time>2026-04-30T14:28:49.999Z</time></trkpt><trkpt lat="50.16362510621887" lon="4.401144427006361"><ele>229.0</ele><time>2026-04-30T14:28:50.999Z</time></trkpt><trkpt lat="50.163401855459206" lon="4.401180205295915"><ele>229.0</ele><time>2026-04-30T14:28:51.999Z</time></trkpt><trkpt lat="50.163171653484106" lon="4.401203404835567"><ele>229.0</ele><time>2026-04-30T14:28:52.999Z</time></trkpt><trkpt lat="50.16293094830428" lon="4.401212477127239"><ele>229.0</ele><time>2026-04-30T14:28:53.999Z</time></trkpt><trkpt lat="50.16268184192071" lon="4.401209335376785"><ele>229.0</ele><time>2026-04-30T14:28:54.999Z</time></trkpt><trkpt lat="50.1624812278576" lon="4.401087356075069"><ele>229.0</ele><time>2026-04-30T14:28:55.999Z</time></trkpt><trkpt lat="50.1622434032748" lon="4.400990466456553"><ele>231.0</ele><time>2026-04-30T14:28:56.999Z</time></trkpt><trkpt lat="50.162010170761675" lon="4.400872827337632"><ele>233.0</ele><time>2026-04-30T14:28:57.999Z</time></trkpt><trkpt lat="50.16177447808398" lon="4.400730930676967"><ele>233.0</ele><time>2026-04-30T14:28:58.999Z</time></trkpt><trkpt lat="50.16154591943699" lon="4.400567642323857"><ele>233.0</ele><time>2026-04-30T14:28:59.999Z</time></trkpt><trkpt lat="50.161314944335544" lon="4.4003593597391975"><ele>239.0</ele><time>2026-04-30T14:29:00.999Z</time></trkpt><trkpt lat="50.16108318331668" lon="4.400121046999375"><ele>245.0</ele><time>2026-04-30T14:29:01.999Z</time></trkpt><trkpt lat="50.16084562740967" lon="4.399872726892491"><ele>249.5</ele><time>2026-04-30T14:29:03Z</time></trkpt><trkpt lat="50.160597609146734" lon="4.399631099057407"><ele>254.0</ele><time>2026-04-30T14:29:04Z</time></trkpt><trkpt lat="50.16034192611084" lon="4.399379952724679"><ele>254.0</ele><time>2026-04-30T14:29:05Z</time></trkpt><trkpt lat="50.16007998733955" lon="4.399113924161267"><ele>254.0</ele><time>2026-04-30T14:29:06Z</time></trkpt><trkpt lat="50.15981757985021" lon="4.39885494564115"><ele>258.5</ele><time>2026-04-30T14:29:07Z</time></trkpt><trkpt lat="50.15956469838728" lon="4.398607691963745"><ele>263.0</ele><time>2026-04-30T14:29:08Z</time></trkpt><trkpt lat="50.159321682533516" lon="4.398372247346003"><ele>263.0</ele><time>2026-04-30T14:29:09Z</time></trkpt><trkpt lat="50.15907929028721" lon="4.3981528542232775"><ele>263.0</ele><time>2026-04-30T14:29:10Z</time></trkpt><trkpt lat="50.15883354015497" lon="4.397943250140198"><ele>265.5</ele><time>2026-04-30T14:29:11Z</time></trkpt><trkpt lat="50.15858520971402" lon="4.3977488632754795"><ele>268.0</ele><time>2026-04-30T14:29:12Z</time></trkpt><trkpt lat="50.158331844122074" lon="4.397564615158532"><ele>269.0</ele><time>2026-04-30T14:29:13Z</time></trkpt><trkpt lat="50.15807673732115" lon="4.397390085291067"><ele>270.0</ele><time>2026-04-30T14:29:14Z</time></trkpt><trkpt lat="50.157818717914715" lon="4.39722465368436"><ele>269.5</ele><time>2026-04-30T14:29:15Z</time></trkpt><trkpt lat="50.15756749823785" lon="4.3970754328614925"><ele>269.0</ele><time>2026-04-30T14:29:16Z</time></trkpt><trkpt lat="50.15732618320593" lon="4.3969469647963635"><ele>270.0</ele><time>2026-04-30T14:29:17Z</time></trkpt><trkpt lat="50.157091418453966" lon="4.396833490652694"><ele>271.0</ele><time>2026-04-30T14:29:18Z</time></trkpt><trkpt lat="50.15684606571523" lon="4.396721624237422"><ele>271.0</ele><time>2026-04-30T14:29:19Z</time></trkpt><trkpt lat="50.15658857541571" lon="4.396606332598525"><ele>271.0</ele><time>2026-04-30T14:29:20Z</time></trkpt><trkpt lat="50.15632759269138" lon="4.396488997043722"><ele>273.0</ele><time>2026-04-30T14:29:21Z</time></trkpt><trkpt lat="50.15605747282773" lon="4.396367567092343"><ele>275.0</ele><time>2026-04-30T14:29:22Z</time></trkpt><trkpt lat="50.15578363279611" lon="4.396240502145839"><ele>276.5</ele><time>2026-04-30T14:29:23Z</time></trkpt><trkpt lat="50.155499787749875" lon="4.396109766736587"><ele>278.0</ele><time>2026-04-30T14:29:24Z</time></trkpt><trkpt lat="50.155211756028535" lon="4.3959751523155735"><ele>278.0</ele><time>2026-04-30T14:29:25Z</time></trkpt><trkpt lat="50.15491647687971" lon="4.395841380319048"><ele>278.0</ele><time>2026-04-30T14:29:26Z</time></trkpt><trkpt lat="50.154614582620106" lon="4.395706437732482"><ele>280.0</ele><time>2026-04-30T14:29:27Z</time></trkpt><trkpt lat="50.15431666415637" lon="4.395566613450223"><ele>282.0</ele><time>2026-04-30T14:29:28Z</time></trkpt><trkpt lat="50.154026062943814" lon="4.395427485027151"><ele>284.0</ele><time>2026-04-30T14:29:29Z</time></trkpt><trkpt lat="50.15374903975136" lon="4.395297831177291"><ele>286.0</ele><time>2026-04-30T14:29:30Z</time></trkpt><trkpt lat="50.15349253823654" lon="4.395179624064114"><ele>286.0</ele><time>2026-04-30T14:29:31Z</time></trkpt><trkpt lat="50.15324189880577" lon="4.395065435713122"><ele>286.0</ele><time>2026-04-30T14:29:32Z</time></trkpt><trkpt lat="50.15299802893522" lon="4.3949528362152455"><ele>287.0</ele><time>2026-04-30T14:29:33Z</time></trkpt><trkpt lat="50.15275636568501" lon="4.394845359110806"><ele>288.0</ele><time>2026-04-30T14:29:34Z</time></trkpt><trkpt lat="50.15251348113048" lon="4.394742260257147"><ele>288.0</ele><time>2026-04-30T14:29:35Z</time></trkpt><trkpt lat="50.15226682999483" lon="4.394646239679182"><ele>288.0</ele><time>2026-04-30T14:29:36Z</time></trkpt><trkpt lat="50.15202002902486" lon="4.394544183669773"><ele>288.0</ele><time>2026-04-30T14:29:37Z</time></trkpt><trkpt lat="50.15177288201135" lon="4.394444006195306"><ele>288.0</ele><time>2026-04-30T14:29:38Z</time></trkpt><trkpt lat="50.151530516177644" lon="4.394342775669368"><ele>287.5</ele><time>2026-04-30T14:29:39Z</time></trkpt><trkpt lat="50.15130058078625" lon="4.394241568372615"><ele>287.0</ele><time>2026-04-30T14:29:40Z</time></trkpt><trkpt lat="50.15108881879691" lon="4.394144270068762"><ele>287.0</ele><time>2026-04-30T14:29:41Z</time></trkpt><trkpt lat="50.150883852633996" lon="4.394032712185513"><ele>287.0</ele><time>2026-04-30T14:29:42Z</time></trkpt><trkpt lat="50.150689828174" lon="4.393868498359994"><ele>287.0</ele><time>2026-04-30T14:29:43Z</time></trkpt><trkpt lat="50.150478818399776" lon="4.3937133741675884"><ele>286.0</ele><time>2026-04-30T14:29:44Z</time></trkpt><trkpt lat="50.15027566204113" lon="4.393500469817086"><ele>285.0</ele><time>2026-04-30T14:29:45Z</time></trkpt><trkpt lat="50.15007211080077" lon="4.393249885222557"><ele>288.0</ele><time>2026-04-30T14:29:46Z</time></trkpt><trkpt lat="50.14986126233315" lon="4.392968797349362"><ele>291.0</ele><time>2026-04-30T14:29:47Z</time></trkpt><trkpt lat="50.14964440446752" lon="4.392674748601281"><ele>291.0</ele><time>2026-04-30T14:29:48Z</time></trkpt><trkpt lat="50.149412524750986" lon="4.392366654629413"><ele>291.0</ele><time>2026-04-30T14:29:49Z</time></trkpt><trkpt lat="50.1491701724251" lon="4.392049175216776"><ele>292.5</ele><time>2026-04-30T14:29:50Z</time></trkpt><trkpt lat="50.14892136948219" lon="4.39171388323565"><ele>294.0</ele><time>2026-04-30T14:29:51Z</time></trkpt><trkpt lat="50.148677967186956" lon="4.391387306009175"><ele>291.0</ele><time>2026-04-30T14:29:52Z</time></trkpt><trkpt lat="50.148443076154855" lon="4.391079498624883"><ele>288.0</ele><time>2026-04-30T14:29:53Z</time></trkpt><trkpt lat="50.14822792747515" lon="4.390757397408268"><ele>290.0</ele><time>2026-04-30T14:29:54Z</time></trkpt><trkpt lat="50.148006572849084" lon="4.390451437258454"><ele>292.0</ele><time>2026-04-30T14:29:55Z</time></trkpt><trkpt lat="50.14779306600736" lon="4.390144981027434"><ele>292.0</ele><time>2026-04-30T14:29:56Z</time></trkpt><trkpt lat="50.147594977598516" lon="4.3898142778887115"><ele>292.0</ele><time>2026-04-30T14:29:57Z</time></trkpt><trkpt lat="50.1473974647694" lon="4.389486541246087"><ele>291.5</ele><time>2026-04-30T14:29:58Z</time></trkpt><trkpt lat="50.147196503019664" lon="4.389156154814144"><ele>291.0</ele><time>2026-04-30T14:29:59Z</time></trkpt><trkpt lat="50.1469958244061" lon="4.388823087637228"><ele>291.0</ele><time>2026-04-30T14:30:00Z</time></trkpt><trkpt lat="50.14680003789834" lon="4.388496596752845"><ele>291.0</ele><time>2026-04-30T14:30:01Z</time></trkpt><trkpt lat="50.146620502653754" lon="4.388201746023146"><ele>293.0</ele><time>2026-04-30T14:30:02Z</time></trkpt><trkpt lat="50.14644345020201" lon="4.387925438193157"><ele>295.0</ele><time>2026-04-30T14:30:03Z</time></trkpt><trkpt lat="50.14625575561241" lon="4.3876627908583075"><ele>295.0</ele><time>2026-04-30T14:30:04Z</time></trkpt><trkpt lat="50.146057006426624" lon="4.3874096583897675"><ele>295.0</ele><time>2026-04-30T14:30:05Z</time></trkpt><trkpt lat="50.145849874823355" lon="4.38715854508633"><ele>294.5</ele><time>2026-04-30T14:30:06Z</time></trkpt><trkpt lat="50.14563750856505" lon="4.3869175477092055"><ele>294.0</ele><time>2026-04-30T14:30:07Z</time></trkpt><trkpt lat="50.14541627452146" lon="4.386687341736408"><ele>294.0</ele><time>2026-04-30T14:30:07.999Z</time></trkpt><trkpt lat="50.145185183406895" lon="4.386467819204534"><ele>294.0</ele><time>2026-04-30T14:30:08.999Z</time></trkpt><trkpt lat="50.14494236774693" lon="4.386257341890554"><ele>293.0</ele><time>2026-04-30T14:30:09.999Z</time></trkpt><trkpt lat="50.144689807258736" lon="4.386056978714069"><ele>292.0</ele><time>2026-04-30T14:30:10.999Z</time></trkpt><trkpt lat="50.14444193500146" lon="4.385853130586636"><ele>292.0</ele><time>2026-04-30T14:30:11.999Z</time></trkpt><trkpt lat="50.14419965178289" lon="4.385650254914661"><ele>292.0</ele><time>2026-04-30T14:30:12.999Z</time></trkpt><trkpt lat="50.14396866488118" lon="4.385444580479931"><ele>291.0</ele><time>2026-04-30T14:30:13.999Z</time></trkpt><trkpt lat="50.14374219995183" lon="4.385256969536295"><ele>290.0</ele><time>2026-04-30T14:30:14.999Z</time></trkpt><trkpt lat="50.143515521155415" lon="4.385062710208517"><ele>290.0</ele><time>2026-04-30T14:30:15.999Z</time></trkpt><trkpt lat="50.143292347924" lon="4.384872266423944"><ele>290.0</ele><time>2026-04-30T14:30:16.999Z</time></trkpt><trkpt lat="50.14306336428774" lon="4.384684932611308"><ele>287.5</ele><time>2026-04-30T14:30:17.999Z</time></trkpt><trkpt lat="50.142823185938404" lon="4.3844788591455055"><ele>285.0</ele><time>2026-04-30T14:30:18.999Z</time></trkpt><trkpt lat="50.14257648751852" lon="4.384247295003184"><ele>283.5</ele><time>2026-04-30T14:30:19.999Z</time></trkpt><trkpt lat="50.14231515204833" lon="4.383988092470454"><ele>282.0</ele><time>2026-04-30T14:30:20.999Z</time></trkpt><trkpt lat="50.14203572296238" lon="4.383717378613857"><ele>282.0</ele><time>2026-04-30T14:30:21.999Z</time></trkpt><trkpt lat="50.14175070012516" lon="4.383447981229341"><ele>282.0</ele><time>2026-04-30T14:30:22.999Z</time></trkpt><trkpt lat="50.14147158789848" lon="4.383184361682192"><ele>280.0</ele><time>2026-04-30T14:30:23.999Z</time></trkpt><trkpt lat="50.14120119759317" lon="4.382926727992743"><ele>278.0</ele><time>2026-04-30T14:30:24.999Z</time></trkpt><trkpt lat="50.14094049826054" lon="4.382676387931308"><ele>277.5</ele><time>2026-04-30T14:30:25.999Z</time></trkpt><trkpt lat="50.14069149800247" lon="4.382431057017005"><ele>277.0</ele><time>2026-04-30T14:30:26.999Z</time></trkpt><trkpt lat="50.1404460766565" lon="4.382192587082975"><ele>276.0</ele><time>2026-04-30T14:30:27.999Z</time></trkpt><trkpt lat="50.1401989157669" lon="4.381947571591945"><ele>275.0</ele><time>2026-04-30T14:30:28.999Z</time></trkpt><trkpt lat="50.139958390840576" lon="4.381693626994251"><ele>275.0</ele><time>2026-04-30T14:30:29.999Z</time></trkpt><trkpt lat="50.13972047216358" lon="4.381427698253526"><ele>275.0</ele><time>2026-04-30T14:30:30.999Z</time></trkpt><trkpt lat="50.13948654922596" lon="4.381157376064591"><ele>274.5</ele><time>2026-04-30T14:30:31.999Z</time></trkpt><trkpt lat="50.13925378861033" lon="4.380880071844601"><ele>274.0</ele><time>2026-04-30T14:30:32.999Z</time></trkpt><trkpt lat="50.13902310981616" lon="4.380593256974552"><ele>273.0</ele><time>2026-04-30T14:30:33.999Z</time></trkpt><trkpt lat="50.13878703226333" lon="4.380306055243186"><ele>272.0</ele><time>2026-04-30T14:30:34.999Z</time></trkpt><trkpt lat="50.13855074958059" lon="4.380012618047135"><ele>272.0</ele><time>2026-04-30T14:30:35.999Z</time></trkpt><trkpt lat="50.138314924953626" lon="4.379715286589154"><ele>272.0</ele><time>2026-04-30T14:30:36.999Z</time></trkpt><trkpt lat="50.13807345226401" lon="4.37941800307418"><ele>268.5</ele><time>2026-04-30T14:30:37.999Z</time></trkpt><trkpt lat="50.13782957949876" lon="4.379124202422911"><ele>265.0</ele><time>2026-04-30T14:30:38.999Z</time></trkpt><trkpt lat="50.137598511057256" lon="4.378837380688377"><ele>265.5</ele><time>2026-04-30T14:30:39.999Z</time></trkpt><trkpt lat="50.13737844534886" lon="4.378562972890876"><ele>266.0</ele><time>2026-04-30T14:30:40.999Z</time></trkpt><trkpt lat="50.13716555622341" lon="4.378288187611116"><ele>263.0</ele><time>2026-04-30T14:30:41.999Z</time></trkpt><trkpt lat="50.1369532618782" lon="4.377997538189462"><ele>260.0</ele><time>2026-04-30T14:30:42.999Z</time></trkpt><trkpt lat="50.13674682522582" lon="4.377686851718081"><ele>262.0</ele><time>2026-04-30T14:30:43.999Z</time></trkpt><trkpt lat="50.1365421585899" lon="4.377364855569929"><ele>264.0</ele><time>2026-04-30T14:30:44.999Z</time></trkpt><trkpt lat="50.136338099728846" lon="4.377042074113622"><ele>264.0</ele><time>2026-04-30T14:30:45.999Z</time></trkpt><trkpt lat="50.1361270195927" lon="4.376735067956937"><ele>264.0</ele><time>2026-04-30T14:30:46.999Z</time></trkpt><trkpt lat="50.13590988689884" lon="4.376439795696962"><ele>265.0</ele><time>2026-04-30T14:30:47.999Z</time></trkpt><trkpt lat="50.135685151961916" lon="4.376157829118541"><ele>266.0</ele><time>2026-04-30T14:30:48.999Z</time></trkpt><trkpt lat="50.13547240683486" lon="4.375895511694025"><ele>266.0</ele><time>2026-04-30T14:30:49.999Z</time></trkpt><trkpt lat="50.13527143787808" lon="4.375654668387207"><ele>266.0</ele><time>2026-04-30T14:30:50.999Z</time></trkpt><trkpt lat="50.1350779563697" lon="4.375420598092677"><ele>263.5</ele><time>2026-04-30T14:30:51.999Z</time></trkpt><trkpt lat="50.13488900667846" lon="4.375182100551221"><ele>261.0</ele><time>2026-04-30T14:30:52.999Z</time></trkpt><trkpt lat="50.13470119203289" lon="4.374938531569073"><ele>261.0</ele><time>2026-04-30T14:30:53.999Z</time></trkpt><trkpt lat="50.134511833777395" lon="4.374698652201024"><ele>261.0</ele><time>2026-04-30T14:30:54.999Z</time></trkpt><trkpt lat="50.13431309613359" lon="4.374460496013975"><ele>259.5</ele><time>2026-04-30T14:30:55.999Z</time></trkpt><trkpt lat="50.13410415342365" lon="4.3742154688294566"><ele>258.0</ele><time>2026-04-30T14:30:56.999Z</time></trkpt><trkpt lat="50.13388873929159" lon="4.373963091501165"><ele>255.5</ele><time>2026-04-30T14:30:57.999Z</time></trkpt><trkpt lat="50.13367266517874" lon="4.373705349368365"><ele>253.0</ele><time>2026-04-30T14:30:58.999Z</time></trkpt><trkpt lat="50.13344697076347" lon="4.373434200516469"><ele>252.5</ele><time>2026-04-30T14:30:59.999Z</time></trkpt><trkpt lat="50.13321725024712" lon="4.373140771324208"><ele>252.0</ele><time>2026-04-30T14:31:00.999Z</time></trkpt><trkpt lat="50.13298410944033" lon="4.372823147967701"><ele>252.0</ele><time>2026-04-30T14:31:01.999Z</time></trkpt><trkpt lat="50.13274357029109" lon="4.372509424333363"><ele>252.0</ele><time>2026-04-30T14:31:02.999Z</time></trkpt><trkpt lat="50.13250898414035" lon="4.372223296431568"><ele>253.5</ele><time>2026-04-30T14:31:03.999Z</time></trkpt><trkpt lat="50.13229150775985" lon="4.371955095288704"><ele>255.0</ele><time>2026-04-30T14:31:04.999Z</time></trkpt><trkpt lat="50.132095393933675" lon="4.371678183872858"><ele>255.0</ele><time>2026-04-30T14:31:05.999Z</time></trkpt><trkpt lat="50.13191528297562" lon="4.371371123382098"><ele>255.0</ele><time>2026-04-30T14:31:06.999Z</time></trkpt><trkpt lat="50.131744539615774" lon="4.371036940897311"><ele>253.0</ele><time>2026-04-30T14:31:07.999Z</time></trkpt><trkpt lat="50.13158156573148" lon="4.370682077018108"><ele>251.0</ele><time>2026-04-30T14:31:09.001Z</time></trkpt><trkpt lat="50.13143128242152" lon="4.370317446153346"><ele>255.5</ele><time>2026-04-30T14:31:10.001Z</time></trkpt><trkpt lat="50.13129149419295" lon="4.36997316872159"><ele>260.0</ele><time>2026-04-30T14:31:11.001Z</time></trkpt><trkpt lat="50.13116093375736" lon="4.369666651268317"><ele>260.0</ele><time>2026-04-30T14:31:12.001Z</time></trkpt><trkpt lat="50.131031302903835" lon="4.369399438961564"><ele>260.0</ele><time>2026-04-30T14:31:13.001Z</time></trkpt><trkpt lat="50.1308924825704" lon="4.36914276468391"><ele>260.0</ele><time>2026-04-30T14:31:14.001Z</time></trkpt><trkpt lat="50.13074069857162" lon="4.368912519638018"><ele>262.0</ele><time>2026-04-30T14:31:15.001Z</time></trkpt><trkpt lat="50.13057577482708" lon="4.36869894168013"><ele>264.0</ele><time>2026-04-30T14:31:16.001Z</time></trkpt><trkpt lat="50.13039837415636" lon="4.3685105222035086"><ele>266.0</ele><time>2026-04-30T14:31:17.001Z</time></trkpt><trkpt lat="50.13021493677388" lon="4.368338645370195"><ele>266.0</ele><time>2026-04-30T14:31:18.001Z</time></trkpt><trkpt lat="50.13002851612886" lon="4.368190463775514"><ele>266.0</ele><time>2026-04-30T14:31:19.001Z</time></trkpt><trkpt lat="50.12983856148315" lon="4.36807142120235"><ele>266.0</ele><time>2026-04-30T14:31:20.001Z</time></trkpt><trkpt lat="50.129655717281395" lon="4.367983055382612"><ele>265.6666666666667</ele><time>2026-04-30T14:31:21.001Z</time></trkpt><trkpt lat="50.129480500777156" lon="4.367916208341023"><ele>265.3333333333333</ele><time>2026-04-30T14:31:22.001Z</time></trkpt><trkpt lat="50.12930336886894" lon="4.367870114771036"><ele>265.0</ele><time>2026-04-30T14:31:23.001Z</time></trkpt><trkpt lat="50.12913042534231" lon="4.367839294460707"><ele>264.66666666666663</ele><time>2026-04-30T14:31:24Z</time></trkpt><trkpt lat="50.1289539520424" lon="4.367825881872935"><ele>264.3333333333333</ele><time>2026-04-30T14:31:25Z</time></trkpt><trkpt lat="50.12876166647577" lon="4.36783523464525"><ele>264.0</ele><time>2026-04-30T14:31:26Z</time></trkpt><trkpt lat="50.128562064298066" lon="4.367846911096172"><ele>264.0</ele><time>2026-04-30T14:31:27Z</time></trkpt><trkpt lat="50.12835164268693" lon="4.3678575736792125"><ele>264.0</ele><time>2026-04-30T14:31:28Z</time></trkpt><trkpt lat="50.128142640153364" lon="4.367833853309815"><ele>264.0</ele><time>2026-04-30T14:31:29Z</time></trkpt><trkpt lat="50.127932533511945" lon="4.367863820479001"><ele>262.0</ele><time>2026-04-30T14:31:30Z</time></trkpt><trkpt lat="50.12772089817665" lon="4.36786611824383"><ele>260.0</ele><time>2026-04-30T14:31:31Z</time></trkpt><trkpt lat="50.12750480490524" lon="4.36787545848266"><ele>258.0</ele><time>2026-04-30T14:31:32Z</time></trkpt><trkpt lat="50.127283073545286" lon="4.367856429230731"><ele>252.0</ele><time>2026-04-30T14:31:33Z</time></trkpt><trkpt lat="50.127043757923616" lon="4.3678609457258775"><ele>246.0</ele><time>2026-04-30T14:31:34Z</time></trkpt><trkpt lat="50.12677373121966" lon="4.367854428242119"><ele>242.5</ele><time>2026-04-30T14:31:35Z</time></trkpt><trkpt lat="50.126486987201204" lon="4.367839261694948"><ele>239.0</ele><time>2026-04-30T14:31:36Z</time></trkpt><trkpt lat="50.12618587063027" lon="4.367805748776463"><ele>239.0</ele><time>2026-04-30T14:31:37Z</time></trkpt><trkpt lat="50.12588263357476" lon="4.367757150350327"><ele>239.0</ele><time>2026-04-30T14:31:38Z</time></trkpt><trkpt lat="50.125581149293204" lon="4.367730191736544"><ele>242.5</ele><time>2026-04-30T14:31:39Z</time></trkpt><trkpt lat="50.125289291503805" lon="4.367671448914459"><ele>246.0</ele><time>2026-04-30T14:31:40Z</time></trkpt><trkpt lat="50.12500339327097" lon="4.367622125877422"><ele>247.0</ele><time>2026-04-30T14:31:41Z</time></trkpt><trkpt lat="50.12471463025558" lon="4.367584208568542"><ele>248.0</ele><time>2026-04-30T14:31:42Z</time></trkpt><trkpt lat="50.1244507233577" lon="4.367574153220436"><ele>248.0</ele><time>2026-04-30T14:31:43Z</time></trkpt><trkpt lat="50.12421655390823" lon="4.367551341187575"><ele>248.0</ele><time>2026-04-30T14:31:44Z</time></trkpt><trkpt lat="50.12400174926082" lon="4.367563694086306"><ele>250.66666666666669</ele><time>2026-04-30T14:31:45Z</time></trkpt><trkpt lat="50.12378455274845" lon="4.367515637581408"><ele>253.33333333333331</ele><time>2026-04-30T14:31:46Z</time></trkpt><trkpt lat="50.12356504397978" lon="4.367435372134752"><ele>256.0</ele><time>2026-04-30T14:31:47Z</time></trkpt><trkpt lat="50.123350321281364" lon="4.367312287983451"><ele>260.5</ele><time>2026-04-30T14:31:48Z</time></trkpt><trkpt lat="50.1231450264911" lon="4.367163601771561"><ele>265.0</ele><time>2026-04-30T14:31:49Z</time></trkpt><trkpt lat="50.122948445176576" lon="4.366976297597754"><ele>265.0</ele><time>2026-04-30T14:31:50Z</time></trkpt><trkpt lat="50.122757945326306" lon="4.366758850192709"><ele>265.0</ele><time>2026-04-30T14:31:51Z</time></trkpt><trkpt lat="50.12257746401408" lon="4.366520820800981"><ele>265.3333333333333</ele><time>2026-04-30T14:31:52Z</time></trkpt><trkpt lat="50.12240424000943" lon="4.366305224424426"><ele>265.6666666666667</ele><time>2026-04-30T14:31:53Z</time></trkpt><trkpt lat="50.12226135592188" lon="4.3660830384827385"><ele>266.0</ele><time>2026-04-30T14:31:54Z</time></trkpt><trkpt lat="50.12212245551026" lon="4.365906535546657"><ele>266.6666666666667</ele><time>2026-04-30T14:31:55Z</time></trkpt><trkpt lat="50.1219752699479" lon="4.365765174541335"><ele>267.3333333333333</ele><time>2026-04-30T14:31:56Z</time></trkpt><trkpt lat="50.12181780332487" lon="4.36565006520959"><ele>268.0</ele><time>2026-04-30T14:31:57Z</time></trkpt><trkpt lat="50.121645922739035" lon="4.3655777148647"><ele>268.3333333333333</ele><time>2026-04-30T14:31:58Z</time></trkpt><trkpt lat="50.12145834219588" lon="4.365530283611613"><ele>268.6666666666667</ele><time>2026-04-30T14:31:59Z</time></trkpt><trkpt lat="50.1212403674386" lon="4.3654978720585405"><ele>269.0</ele><time>2026-04-30T14:32:00Z</time></trkpt><trkpt lat="50.12100598478075" lon="4.3654696223872955"><ele>269.0</ele><time>2026-04-30T14:32:01Z</time></trkpt><trkpt lat="50.12076505534188" lon="4.3654458098544975"><ele>269.0</ele><time>2026-04-30T14:32:02Z</time></trkpt><trkpt lat="50.1205216759441" lon="4.365451790768608"><ele>267.0</ele><time>2026-04-30T14:32:03Z</time></trkpt><trkpt lat="50.1202778877353" lon="4.365508058582655"><ele>265.0</ele><time>2026-04-30T14:32:04Z</time></trkpt><trkpt lat="50.1200314041018" lon="4.365594559646474"><ele>266.5</ele><time>2026-04-30T14:32:05Z</time></trkpt><trkpt lat="50.11978859535029" lon="4.365702192640045"><ele>268.0</ele><time>2026-04-30T14:32:06Z</time></trkpt><trkpt lat="50.119567201647314" lon="4.36580358843347"><ele>268.0</ele><time>2026-04-30T14:32:07Z</time></trkpt><trkpt lat="50.11936068709968" lon="4.365878615166007"><ele>268.0</ele><time>2026-04-30T14:32:08Z</time></trkpt><trkpt lat="50.119167387572396" lon="4.365953789760635"><ele>268.0</ele><time>2026-04-30T14:32:09Z</time></trkpt><trkpt lat="50.11897008343729" lon="4.366066115932082"><ele>269.0</ele><time>2026-04-30T14:32:10Z</time></trkpt><trkpt lat="50.118761274304816" lon="4.366221502938724"><ele>270.0</ele><time>2026-04-30T14:32:11Z</time></trkpt><trkpt lat="50.118542882626826" lon="4.366437924461385"><ele>271.5</ele><time>2026-04-30T14:32:12Z</time></trkpt><trkpt lat="50.11831606607169" lon="4.366695616324413"><ele>273.0</ele><time>2026-04-30T14:32:13Z</time></trkpt><trkpt lat="50.11808671151576" lon="4.366975794999748"><ele>274.0</ele><time>2026-04-30T14:32:14Z</time></trkpt><trkpt lat="50.11784711519338" lon="4.367259796205752"><ele>275.0</ele><time>2026-04-30T14:32:15Z</time></trkpt><trkpt lat="50.11761256556609" lon="4.367523649044834"><ele>275.0</ele><time>2026-04-30T14:32:16Z</time></trkpt><trkpt lat="50.117402727903" lon="4.367756311345756"><ele>275.0</ele><time>2026-04-30T14:32:17Z</time></trkpt><trkpt lat="50.11719100017895" lon="4.367919872964472"><ele>274.5</ele><time>2026-04-30T14:32:18Z</time></trkpt><trkpt lat="50.116984018023274" lon="4.368085515983276"><ele>274.0</ele><time>2026-04-30T14:32:19Z</time></trkpt><trkpt lat="50.1167661571383" lon="4.368253274173586"><ele>272.5</ele><time>2026-04-30T14:32:19.999Z</time></trkpt><trkpt lat="50.11651116894029" lon="4.368374353595625"><ele>271.0</ele><time>2026-04-30T14:32:20.999Z</time></trkpt><trkpt lat="50.116251383592584" lon="4.368524481211883"><ele>271.0</ele><time>2026-04-30T14:32:21.999Z</time></trkpt><trkpt lat="50.11597863124278" lon="4.368704120459493"><ele>271.0</ele><time>2026-04-30T14:32:22.999Z</time></trkpt><trkpt lat="50.1156900957141" lon="4.368869000835214"><ele>272.0</ele><time>2026-04-30T14:32:23.999Z</time></trkpt><trkpt lat="50.11539080403297" lon="4.369016692823555"><ele>273.0</ele><time>2026-04-30T14:32:24.999Z</time></trkpt><trkpt lat="50.11511033775703" lon="4.3692073492081445"><ele>270.0</ele><time>2026-04-30T14:32:25.999Z</time></trkpt><trkpt lat="50.11483472497418" lon="4.369360894423637"><ele>267.0</ele><time>2026-04-30T14:32:26.999Z</time></trkpt><trkpt lat="50.11455422495981" lon="4.369514610175215"><ele>267.0</ele><time>2026-04-30T14:32:27.999Z</time></trkpt><trkpt lat="50.114293456112634" lon="4.369650538581495"><ele>267.0</ele><time>2026-04-30T14:32:28.999Z</time></trkpt><trkpt lat="50.11400648476882" lon="4.369819832911349"><ele>266.5</ele><time>2026-04-30T14:32:29.999Z</time></trkpt><trkpt lat="50.1137290404972" lon="4.369984167721489"><ele>266.0</ele><time>2026-04-30T14:32:30.999Z</time></trkpt><trkpt lat="50.1134541087343" lon="4.3701422751680905"><ele>263.5</ele><time>2026-04-30T14:32:31.999Z</time></trkpt><trkpt lat="50.11319865140849" lon="4.370287043233326"><ele>261.0</ele><time>2026-04-30T14:32:32.999Z</time></trkpt><trkpt lat="50.11296706024908" lon="4.370420593033308"><ele>263.0</ele><time>2026-04-30T14:32:33.999Z</time></trkpt><trkpt lat="50.112728695965224" lon="4.370548395000457"><ele>265.0</ele><time>2026-04-30T14:32:34.999Z</time></trkpt><trkpt lat="50.11247608456125" lon="4.3706550205861765"><ele>263.5</ele><time>2026-04-30T14:32:35.999Z</time></trkpt><trkpt lat="50.112220118815216" lon="4.37074244430239"><ele>262.0</ele><time>2026-04-30T14:32:36.999Z</time></trkpt><trkpt lat="50.11194999610747" lon="4.370808790918502"><ele>262.0</ele><time>2026-04-30T14:32:37.999Z</time></trkpt><trkpt lat="50.11166512647754" lon="4.370871264059809"><ele>262.0</ele><time>2026-04-30T14:32:38.999Z</time></trkpt><trkpt lat="50.11140088294613" lon="4.37093960166337"><ele>262.0</ele><time>2026-04-30T14:32:39.999Z</time></trkpt><trkpt lat="50.111123794190554" lon="4.371000478655862"><ele>262.0</ele><time>2026-04-30T14:32:40.999Z</time></trkpt><trkpt lat="50.11097443402072" lon="4.371057428840628"><ele>262.0</ele><time>2026-04-30T14:32:41.999Z</time></trkpt><trkpt lat="50.11078091792356" lon="4.3711055997602974"><ele>265.3333333333333</ele><time>2026-04-30T14:32:42.999Z</time></trkpt><trkpt lat="50.11060118133545" lon="4.371144201633611"><ele>268.6666666666667</ele><time>2026-04-30T14:32:43.999Z</time></trkpt><trkpt lat="50.110428891412255" lon="4.371185871055185"><ele>272.0</ele><time>2026-04-30T14:32:44.999Z</time></trkpt><trkpt lat="50.11026054577744" lon="4.3712296005571085"><ele>272.0</ele><time>2026-04-30T14:32:45.999Z</time></trkpt><trkpt lat="50.11008865456245" lon="4.371277693739558"><ele>272.0</ele><time>2026-04-30T14:32:46.999Z</time></trkpt><trkpt lat="50.10990564810913" lon="4.371325347550146"><ele>272.0</ele><time>2026-04-30T14:32:47.999Z</time></trkpt><trkpt lat="50.10971645541151" lon="4.371365857014489"><ele>271.6666666666667</ele><time>2026-04-30T14:32:48.999Z</time></trkpt><trkpt lat="50.10953080679659" lon="4.371411422736069"><ele>271.3333333333333</ele><time>2026-04-30T14:32:49.999Z</time></trkpt><trkpt lat="50.109347406969206" lon="4.37145554616174"><ele>271.0</ele><time>2026-04-30T14:32:50.999Z</time></trkpt><trkpt lat="50.1091660897196" lon="4.3714780722402935"><ele>271.0</ele><time>2026-04-30T14:32:51.999Z</time></trkpt><trkpt lat="50.10897824412575" lon="4.371461932781429"><ele>271.0</ele><time>2026-04-30T14:32:52.999Z</time></trkpt><trkpt lat="50.10878916675777" lon="4.371415602893567"><ele>271.0</ele><time>2026-04-30T14:32:53.999Z</time></trkpt><trkpt lat="50.10860291010927" lon="4.371347505669498"><ele>271.3333333333333</ele><time>2026-04-30T14:32:54.999Z</time></trkpt><trkpt lat="50.10840977719893" lon="4.371262367364612"><ele>271.6666666666667</ele><time>2026-04-30T14:32:55.999Z</time></trkpt><trkpt lat="50.108212909886596" lon="4.3711637824241185"><ele>272.0</ele><time>2026-04-30T14:32:56.999Z</time></trkpt><trkpt lat="50.108012367110746" lon="4.37103645532612"><ele>272.0</ele><time>2026-04-30T14:32:57.999Z</time></trkpt><trkpt lat="50.107811021723926" lon="4.370870697586485"><ele>272.0</ele><time>2026-04-30T14:32:58.999Z</time></trkpt><trkpt lat="50.10760778310074" lon="4.37069396800466"><ele>272.0</ele><time>2026-04-30T14:32:59.999Z</time></trkpt><trkpt lat="50.10740073795717" lon="4.370512595913613"><ele>272.0</ele><time>2026-04-30T14:33:00.999Z</time></trkpt><trkpt lat="50.107196493625324" lon="4.370342053102194"><ele>272.0</ele><time>2026-04-30T14:33:01.999Z</time></trkpt><trkpt lat="50.107002411243215" lon="4.370191287014074"><ele>272.0</ele><time>2026-04-30T14:33:02.999Z</time></trkpt><trkpt lat="50.10681756763635" lon="4.370032984909249"><ele>272.0</ele><time>2026-04-30T14:33:03.999Z</time></trkpt><trkpt lat="50.10663140887199" lon="4.369871256661182"><ele>272.0</ele><time>2026-04-30T14:33:04.999Z</time></trkpt><trkpt lat="50.106443782783536" lon="4.3697202904126815"><ele>272.0</ele><time>2026-04-30T14:33:05.999Z</time></trkpt><trkpt lat="50.10625471050065" lon="4.369574255193623"><ele>272.0</ele><time>2026-04-30T14:33:06.999Z</time></trkpt><trkpt lat="50.10606381935823" lon="4.369424226247085"><ele>272.0</ele><time>2026-04-30T14:33:07.999Z</time></trkpt><trkpt lat="50.105881024605765" lon="4.3692676021747126"><ele>272.0</ele><time>2026-04-30T14:33:08.999Z</time></trkpt><trkpt lat="50.105706864111816" lon="4.369117039235538"><ele>272.0</ele><time>2026-04-30T14:33:09.999Z</time></trkpt><trkpt lat="50.105537252856564" lon="4.368976653997546"><ele>271.0</ele><time>2026-04-30T14:33:10.999Z</time></trkpt><trkpt lat="50.10536376722855" lon="4.368840086054944"><ele>270.0</ele><time>2026-04-30T14:33:11.999Z</time></trkpt><trkpt lat="50.1051913141501" lon="4.368705438697563"><ele>269.0</ele><time>2026-04-30T14:33:12.999Z</time></trkpt><trkpt lat="50.10502141472952" lon="4.368562415090158"><ele>268.6666666666667</ele><time>2026-04-30T14:33:13.999Z</time></trkpt><trkpt lat="50.10485297540877" lon="4.368414588042939"><ele>268.3333333333333</ele><time>2026-04-30T14:33:15.001Z</time></trkpt><trkpt lat="50.10468731453607" lon="4.368261242123753"><ele>268.0</ele><time>2026-04-30T14:33:16.001Z</time></trkpt><trkpt lat="50.10452402181395" lon="4.368090566041604"><ele>266.66666666666663</ele><time>2026-04-30T14:33:17.001Z</time></trkpt><trkpt lat="50.104368015354396" lon="4.367899233881071"><ele>265.3333333333333</ele><time>2026-04-30T14:33:18.001Z</time></trkpt><trkpt lat="50.10422038782911" lon="4.367689953193674"><ele>264.0</ele><time>2026-04-30T14:33:19.001Z</time></trkpt><trkpt lat="50.10408388325285" lon="4.367474499059693"><ele>264.0</ele><time>2026-04-30T14:33:20.001Z</time></trkpt><trkpt lat="50.103951911002106" lon="4.367267966341401"><ele>264.0</ele><time>2026-04-30T14:33:21.001Z</time></trkpt><trkpt lat="50.103819055640564" lon="4.367062867706168"><ele>264.0</ele><time>2026-04-30T14:33:22.001Z</time></trkpt><trkpt lat="50.10368340521928" lon="4.366854378997146"><ele>263.3333333333333</ele><time>2026-04-30T14:33:23.001Z</time></trkpt><trkpt lat="50.10354979223629" lon="4.366636004069592"><ele>262.66666666666663</ele><time>2026-04-30T14:33:24.001Z</time></trkpt><trkpt lat="50.1034187521345" lon="4.366403704528352"><ele>262.0</ele><time>2026-04-30T14:33:25.001Z</time></trkpt><trkpt lat="50.10329337865906" lon="4.366172578918973"><ele>261.66666666666663</ele><time>2026-04-30T14:33:26.001Z</time></trkpt><trkpt lat="50.10316581097915" lon="4.365947163615163"><ele>261.3333333333333</ele><time>2026-04-30T14:33:27.001Z</time></trkpt><trkpt lat="50.10303810045057" lon="4.365734106560754"><ele>261.0</ele><time>2026-04-30T14:33:28.001Z</time></trkpt><trkpt lat="50.10290762487012" lon="4.365514987665496"><ele>261.0</ele><time>2026-04-30T14:33:29.001Z</time></trkpt><trkpt lat="50.10278129208107" lon="4.36528826379796"><ele>261.0</ele><time>2026-04-30T14:33:30.001Z</time></trkpt><trkpt lat="50.10265783711232" lon="4.365065321654428"><ele>261.0</ele><time>2026-04-30T14:33:31.001Z</time></trkpt><trkpt lat="50.10252745208744" lon="4.364849112868645"><ele>262.6666666666667</ele><time>2026-04-30T14:33:32.001Z</time></trkpt><trkpt lat="50.102390984889965" lon="4.364642254345272"><ele>264.33333333333337</ele><time>2026-04-30T14:33:33.001Z</time></trkpt><trkpt lat="50.1022476259651" lon="4.364441301122034"><ele>266.0</ele><time>2026-04-30T14:33:34Z</time></trkpt><trkpt lat="50.10210183484807" lon="4.364242042174456"><ele>266.0</ele><time>2026-04-30T14:33:35Z</time></trkpt><trkpt lat="50.101952090289764" lon="4.364041334450183"><ele>266.0</ele><time>2026-04-30T14:33:36Z</time></trkpt><trkpt lat="50.1018039411524" lon="4.36384326709419"><ele>266.0</ele><time>2026-04-30T14:33:37Z</time></trkpt><trkpt lat="50.10166063016574" lon="4.363656458422854"><ele>265.6666666666667</ele><time>2026-04-30T14:33:38Z</time></trkpt><trkpt lat="50.10152152368854" lon="4.363481531358996"><ele>265.3333333333333</ele><time>2026-04-30T14:33:39Z</time></trkpt><trkpt lat="50.10138113639776" lon="4.363308886866306"><ele>265.0</ele><time>2026-04-30T14:33:40Z</time></trkpt><trkpt lat="50.10124865393793" lon="4.363132417775339"><ele>263.0</ele><time>2026-04-30T14:33:41Z</time></trkpt><trkpt lat="50.10111571831898" lon="4.362959076065796"><ele>261.0</ele><time>2026-04-30T14:33:42Z</time></trkpt><trkpt lat="50.100977537203875" lon="4.3627883491034325"><ele>259.0</ele><time>2026-04-30T14:33:43Z</time></trkpt><trkpt lat="50.10083391820442" lon="4.362608533813939"><ele>259.0</ele><time>2026-04-30T14:33:44Z</time></trkpt><trkpt lat="50.10069381272388" lon="4.362423833538482"><ele>259.0</ele><time>2026-04-30T14:33:45Z</time></trkpt><trkpt lat="50.10055883215161" lon="4.362243083732581"><ele>259.0</ele><time>2026-04-30T14:33:46Z</time></trkpt><trkpt lat="50.10042144900311" lon="4.362066168563502"><ele>259.0</ele><time>2026-04-30T14:33:47Z</time></trkpt><trkpt lat="50.10028314543982" lon="4.361893636988014"><ele>259.0</ele><time>2026-04-30T14:33:48Z</time></trkpt><trkpt lat="50.10014755544075" lon="4.36173199528394"><ele>259.0</ele><time>2026-04-30T14:33:49Z</time></trkpt><trkpt lat="50.10001275952759" lon="4.361595149324653"><ele>257.3333333333333</ele><time>2026-04-30T14:33:50Z</time></trkpt><trkpt lat="50.09987203084424" lon="4.361487399506991"><ele>255.66666666666669</ele><time>2026-04-30T14:33:51Z</time></trkpt><trkpt lat="50.09972723822938" lon="4.361407784716"><ele>254.0</ele><time>2026-04-30T14:33:52Z</time></trkpt><trkpt lat="50.099580750666426" lon="4.361344643722701"><ele>253.33333333333334</ele><time>2026-04-30T14:33:53Z</time></trkpt><trkpt lat="50.099426469599706" lon="4.361296071278426"><ele>252.66666666666669</ele><time>2026-04-30T14:33:54Z</time></trkpt><trkpt lat="50.09925941608957" lon="4.3612620669409905"><ele>252.0</ele><time>2026-04-30T14:33:55Z</time></trkpt><trkpt lat="50.09908729829655" lon="4.361254171736572"><ele>252.0</ele><time>2026-04-30T14:33:56Z</time></trkpt><trkpt lat="50.098907850566015" lon="4.361277661646474"><ele>252.0</ele><time>2026-04-30T14:33:57Z</time></trkpt><trkpt lat="50.09872807823855" lon="4.361331508377649"><ele>252.0</ele><time>2026-04-30T14:33:58Z</time></trkpt><trkpt lat="50.09854875545639" lon="4.3614155180714365"><ele>250.66666666666669</ele><time>2026-04-30T14:33:59Z</time></trkpt><trkpt lat="50.09836924541113" lon="4.361529920219458"><ele>249.33333333333334</ele><time>2026-04-30T14:34:00Z</time></trkpt><trkpt lat="50.0982015054409" lon="4.361672001948395"><ele>248.0</ele><time>2026-04-30T14:34:01Z</time></trkpt><trkpt lat="50.09803951914141" lon="4.361832301035278"><ele>248.0</ele><time>2026-04-30T14:34:02Z</time></trkpt><trkpt lat="50.09787182630358" lon="4.361955637072385"><ele>248.0</ele><time>2026-04-30T14:34:03Z</time></trkpt><trkpt lat="50.097716448333216" lon="4.362110327140666"><ele>248.0</ele><time>2026-04-30T14:34:04Z</time></trkpt><trkpt lat="50.09754558341733" lon="4.362231043811128"><ele>243.33333333333334</ele><time>2026-04-30T14:34:05Z</time></trkpt><trkpt lat="50.09735791075081" lon="4.362321977858187"><ele>238.66666666666669</ele><time>2026-04-30T14:34:06Z</time></trkpt><trkpt lat="50.09716458826101" lon="4.362415469406025"><ele>234.0</ele><time>2026-04-30T14:34:07Z</time></trkpt><trkpt lat="50.096968132882964" lon="4.362517585928645"><ele>234.0</ele><time>2026-04-30T14:34:08Z</time></trkpt><trkpt lat="50.096755767738905" lon="4.362585222972552"><ele>234.0</ele><time>2026-04-30T14:34:09Z</time></trkpt><trkpt lat="50.09654565708276" lon="4.362650589742999"><ele>234.0</ele><time>2026-04-30T14:34:10Z</time></trkpt><trkpt lat="50.09634468711918" lon="4.362725921240973"><ele>231.33333333333331</ele><time>2026-04-30T14:34:11Z</time></trkpt><trkpt lat="50.096157810282804" lon="4.362817758330895"><ele>228.66666666666666</ele><time>2026-04-30T14:34:12Z</time></trkpt><trkpt lat="50.09597709179652" lon="4.362942864413595"><ele>226.0</ele><time>2026-04-30T14:34:13Z</time></trkpt><trkpt lat="50.0958021062213" lon="4.363103507412799"><ele>227.33333333333331</ele><time>2026-04-30T14:34:14Z</time></trkpt><trkpt lat="50.095631720821096" lon="4.363292008287981"><ele>228.66666666666669</ele><time>2026-04-30T14:34:15Z</time></trkpt><trkpt lat="50.09547670078479" lon="4.36352291472543"><ele>230.0</ele><time>2026-04-30T14:34:16Z</time></trkpt><trkpt lat="50.09533516974351" lon="4.3637904379120505"><ele>230.33333333333334</ele><time>2026-04-30T14:34:17Z</time></trkpt><trkpt lat="50.09520542209242" lon="4.364076960558153"><ele>230.66666666666669</ele><time>2026-04-30T14:34:18Z</time></trkpt><trkpt lat="50.09509300565112" lon="4.36434643232689"><ele>231.0</ele><time>2026-04-30T14:34:19Z</time></trkpt><trkpt lat="50.09498016045686" lon="4.3645753068000195"><ele>233.66666666666669</ele><time>2026-04-30T14:34:20Z</time></trkpt><trkpt lat="50.094873070305994" lon="4.364790216479127"><ele>236.33333333333334</ele><time>2026-04-30T14:34:21Z</time></trkpt><trkpt lat="50.09474526942944" lon="4.364975683286406"><ele>239.0</ele><time>2026-04-30T14:34:22Z</time></trkpt><trkpt lat="50.09461384386857" lon="4.365144660675822"><ele>239.0</ele><time>2026-04-30T14:34:23Z</time></trkpt><trkpt lat="50.0944777113583" lon="4.365294509330706"><ele>239.0</ele><time>2026-04-30T14:34:24Z</time></trkpt><trkpt lat="50.09433399993609" lon="4.365423813355079"><ele>239.0</ele><time>2026-04-30T14:34:25Z</time></trkpt><trkpt lat="50.09418399391642" lon="4.3655310268252085"><ele>237.66666666666669</ele><time>2026-04-30T14:34:26Z</time></trkpt><trkpt lat="50.09403617564039" lon="4.365610688224025"><ele>236.33333333333331</ele><time>2026-04-30T14:34:27Z</time></trkpt><trkpt lat="50.09388342980617" lon="4.365675434711908"><ele>235.0</ele><time>2026-04-30T14:34:28Z</time></trkpt><trkpt lat="50.09373006803344" lon="4.365729973433245"><ele>235.0</ele><time>2026-04-30T14:34:29Z</time></trkpt><trkpt lat="50.093573301638685" lon="4.365787238434112"><ele>235.0</ele><time>2026-04-30T14:34:30Z</time></trkpt><trkpt lat="50.09339288187405" lon="4.365854293979706"><ele>235.0</ele><time>2026-04-30T14:34:31Z</time></trkpt><trkpt lat="50.09320076517052" lon="4.365924111463048"><ele>232.66666666666666</ele><time>2026-04-30T14:34:32Z</time></trkpt><trkpt lat="50.092999631526915" lon="4.365997522888207"><ele>230.33333333333331</ele><time>2026-04-30T14:34:33Z</time></trkpt><trkpt lat="50.092794631502045" lon="4.366072142587462"><ele>228.0</ele><time>2026-04-30T14:34:34Z</time></trkpt><trkpt lat="50.092584779069206" lon="4.366171847824667"><ele>227.66666666666669</ele><time>2026-04-30T14:34:35Z</time></trkpt><trkpt lat="50.09236424388563" lon="4.366226082517954"><ele>227.33333333333334</ele><time>2026-04-30T14:34:36Z</time></trkpt><trkpt lat="50.09214970355841" lon="4.366328175638305"><ele>227.0</ele><time>2026-04-30T14:34:37Z</time></trkpt><trkpt lat="50.0919349506637" lon="4.366400316015569"><ele>227.66666666666669</ele><time>2026-04-30T14:34:38Z</time></trkpt><trkpt lat="50.09173533502926" lon="4.366473949561547"><ele>228.33333333333331</ele><time>2026-04-30T14:34:39Z</time></trkpt><trkpt lat="50.0915394115891" lon="4.366545379514787"><ele>229.0</ele><time>2026-04-30T14:34:39.999Z</time></trkpt><trkpt lat="50.09135351326395" lon="4.366611613837895"><ele>229.0</ele><time>2026-04-30T14:34:40.999Z</time></trkpt><trkpt lat="50.09116906560875" lon="4.366674070598791"><ele>229.0</ele><time>2026-04-30T14:34:41.999Z</time></trkpt><trkpt lat="50.09098388103763" lon="4.366727186351735"><ele>229.0</ele><time>2026-04-30T14:34:42.999Z</time></trkpt><trkpt lat="50.09079964292521" lon="4.3667418631649255"><ele>228.0</ele><time>2026-04-30T14:34:43.999Z</time></trkpt><trkpt lat="50.090621767070566" lon="4.366801285850486"><ele>227.0</ele><time>2026-04-30T14:34:44.999Z</time></trkpt><trkpt lat="50.090435698925575" lon="4.366822988994092"><ele>226.0</ele><time>2026-04-30T14:34:45.999Z</time></trkpt><trkpt lat="50.0902379475665" lon="4.3668165611721355"><ele>226.0</ele><time>2026-04-30T14:34:46.999Z</time></trkpt><trkpt lat="50.090036853664344" lon="4.3668545723135255"><ele>226.0</ele><time>2026-04-30T14:34:47.999Z</time></trkpt><trkpt lat="50.08982788712086" lon="4.366867425633966"><ele>226.0</ele><time>2026-04-30T14:34:48.999Z</time></trkpt><trkpt lat="50.08961272106658" lon="4.366884543108124"><ele>225.66666666666666</ele><time>2026-04-30T14:34:49.999Z</time></trkpt><trkpt lat="50.08940721510074" lon="4.3669029119972596"><ele>225.33333333333331</ele><time>2026-04-30T14:34:50.999Z</time></trkpt><trkpt lat="50.089212912370215" lon="4.366920992201586"><ele>225.0</ele><time>2026-04-30T14:34:51.999Z</time></trkpt><trkpt lat="50.08903374120905" lon="4.366935279334966"><ele>226.33333333333331</ele><time>2026-04-30T14:34:52.999Z</time></trkpt><trkpt lat="50.08885949681635" lon="4.366949191911841"><ele>227.66666666666666</ele><time>2026-04-30T14:34:53.999Z</time></trkpt><trkpt lat="50.088686756148526" lon="4.366968297024351"><ele>229.0</ele><time>2026-04-30T14:34:54.999Z</time></trkpt><trkpt lat="50.08851198573783" lon="4.366986462535759"><ele>229.0</ele><time>2026-04-30T14:34:55.999Z</time></trkpt><trkpt lat="50.088341452384945" lon="4.367001251551633"><ele>229.0</ele><time>2026-04-30T14:34:56.999Z</time></trkpt><trkpt lat="50.088177766024465" lon="4.367017404116969"><ele>229.0</ele><time>2026-04-30T14:34:57.999Z</time></trkpt><trkpt lat="50.0880196437842" lon="4.36703124406201"><ele>229.66666666666666</ele><time>2026-04-30T14:34:58.999Z</time></trkpt><trkpt lat="50.08786267634898" lon="4.3670480751492"><ele>230.33333333333331</ele><time>2026-04-30T14:34:59.999Z</time></trkpt><trkpt lat="50.08770557839721" lon="4.367059828359165"><ele>231.0</ele><time>2026-04-30T14:35:00.999Z</time></trkpt><trkpt lat="50.087541420339285" lon="4.367067309582612"><ele>230.0</ele><time>2026-04-30T14:35:01.999Z</time></trkpt><trkpt lat="50.08735906097753" lon="4.367083337525349"><ele>229.0</ele><time>2026-04-30T14:35:02.999Z</time></trkpt><trkpt lat="50.08717559180966" lon="4.367091983995662"><ele>228.0</ele><time>2026-04-30T14:35:03.999Z</time></trkpt><trkpt lat="50.08697859788827" lon="4.367108610136349"><ele>228.0</ele><time>2026-04-30T14:35:04.999Z</time></trkpt><trkpt lat="50.086773735673944" lon="4.367128479247963"><ele>228.0</ele><time>2026-04-30T14:35:05.999Z</time></trkpt><trkpt lat="50.08657699848863" lon="4.3671447935492225"><ele>228.0</ele><time>2026-04-30T14:35:06.999Z</time></trkpt><trkpt lat="50.086387924557805" lon="4.367158210139838"><ele>227.66666666666669</ele><time>2026-04-30T14:35:07.999Z</time></trkpt><trkpt lat="50.08619551047079" lon="4.36717457557157"><ele>227.33333333333334</ele><time>2026-04-30T14:35:08.999Z</time></trkpt><trkpt lat="50.086005799341336" lon="4.367191432184188"><ele>227.0</ele><time>2026-04-30T14:35:09.999Z</time></trkpt><trkpt lat="50.0858252948029" lon="4.3672390723366075"><ele>226.33333333333334</ele><time>2026-04-30T14:35:10.999Z</time></trkpt><trkpt lat="50.085651196028806" lon="4.367319880383324"><ele>225.66666666666669</ele><time>2026-04-30T14:35:11.999Z</time></trkpt><trkpt lat="50.085476803559196" lon="4.3674180996254774"><ele>225.0</ele><time>2026-04-30T14:35:12.999Z</time></trkpt><trkpt lat="50.08529438821632" lon="4.367536013285823"><ele>225.0</ele><time>2026-04-30T14:35:13.999Z</time></trkpt><trkpt lat="50.0851084443484" lon="4.367674693622815"><ele>225.0</ele><time>2026-04-30T14:35:14.999Z</time></trkpt><trkpt lat="50.08491709725447" lon="4.367811354418769"><ele>225.0</ele><time>2026-04-30T14:35:15.999Z</time></trkpt><trkpt lat="50.084732897441455" lon="4.367938912941745"><ele>223.66666666666669</ele><time>2026-04-30T14:35:16.999Z</time></trkpt><trkpt lat="50.084550617192555" lon="4.368055032513213"><ele>222.33333333333334</ele><time>2026-04-30T14:35:17.999Z</time></trkpt><trkpt lat="50.08436774387649" lon="4.368181421930264"><ele>221.0</ele><time>2026-04-30T14:35:18.999Z</time></trkpt><trkpt lat="50.08419088302142" lon="4.368314293532039"><ele>221.66666666666669</ele><time>2026-04-30T14:35:19.999Z</time></trkpt><trkpt lat="50.08400874623081" lon="4.368443363917034"><ele>222.33333333333331</ele><time>2026-04-30T14:35:21.001Z</time></trkpt><trkpt lat="50.083822704962245" lon="4.368571894142292"><ele>223.0</ele><time>2026-04-30T14:35:22.001Z</time></trkpt><trkpt lat="50.08363494818562" lon="4.368706197675205"><ele>223.0</ele><time>2026-04-30T14:35:23.001Z</time></trkpt><trkpt lat="50.0834487523854" lon="4.368839655437624"><ele>223.0</ele><time>2026-04-30T14:35:24.001Z</time></trkpt><trkpt lat="50.083267863286444" lon="4.368963942232521"><ele>223.0</ele><time>2026-04-30T14:35:25.001Z</time></trkpt><trkpt lat="50.083090148635115" lon="4.36908367381722"><ele>223.0</ele><time>2026-04-30T14:35:26.001Z</time></trkpt><trkpt lat="50.08292041539545" lon="4.36921905194417"><ele>223.0</ele><time>2026-04-30T14:35:27.001Z</time></trkpt><trkpt lat="50.082752916859235" lon="4.3693675781416506"><ele>223.0</ele><time>2026-04-30T14:35:28.001Z</time></trkpt><trkpt lat="50.082594806857266" lon="4.369529036711454"><ele>223.0</ele><time>2026-04-30T14:35:29.001Z</time></trkpt><trkpt lat="50.08244092348464" lon="4.369710932834758"><ele>223.0</ele><time>2026-04-30T14:35:30.001Z</time></trkpt><trkpt lat="50.082287711046476" lon="4.36990825778993"><ele>223.0</ele><time>2026-04-30T14:35:31.001Z</time></trkpt><trkpt lat="50.082142335764026" lon="4.3701094346418445"><ele>223.0</ele><time>2026-04-30T14:35:32.001Z</time></trkpt><trkpt lat="50.0820053569798" lon="4.370312526278656"><ele>223.0</ele><time>2026-04-30T14:35:33.001Z</time></trkpt><trkpt lat="50.08187106633034" lon="4.37051697432753"><ele>223.0</ele><time>2026-04-30T14:35:34.001Z</time></trkpt><trkpt lat="50.0817380275157" lon="4.370720618632306"><ele>222.33333333333331</ele><time>2026-04-30T14:35:35.001Z</time></trkpt><trkpt lat="50.08160195981314" lon="4.370923785237897"><ele>221.66666666666669</ele><time>2026-04-30T14:35:36.001Z</time></trkpt><trkpt lat="50.08146798008411" lon="4.371126975083269"><ele>221.0</ele><time>2026-04-30T14:35:37.001Z</time></trkpt><trkpt lat="50.08133666799142" lon="4.371338935993042"><ele>217.33333333333334</ele><time>2026-04-30T14:35:38.001Z</time></trkpt><trkpt lat="50.08120567101467" lon="4.3715467611717855"><ele>213.66666666666669</ele><time>2026-04-30T14:35:39.001Z</time></trkpt><trkpt lat="50.08107864519089" lon="4.371735939797985"><ele>210.0</ele><time>2026-04-30T14:35:40.001Z</time></trkpt><trkpt lat="50.080956272332635" lon="4.371914417983716"><ele>210.0</ele><time>2026-04-30T14:35:41.001Z</time></trkpt><trkpt lat="50.080838130612754" lon="4.372091316968744"><ele>210.0</ele><time>2026-04-30T14:35:42.001Z</time></trkpt><trkpt lat="50.08071986618843" lon="4.3722648609143535"><ele>210.0</ele><time>2026-04-30T14:35:43.001Z</time></trkpt><trkpt lat="50.0805823607115" lon="4.372405228095244"><ele>209.33333333333331</ele><time>2026-04-30T14:35:44.001Z</time></trkpt><trkpt lat="50.08045032971377" lon="4.372561090223387"><ele>208.66666666666666</ele><time>2026-04-30T14:35:45.001Z</time></trkpt><trkpt lat="50.08029209566896" lon="4.37267126787623"><ele>208.0</ele><time>2026-04-30T14:35:46.001Z</time></trkpt><trkpt lat="50.08012593729879" lon="4.37276222248178"><ele>208.0</ele><time>2026-04-30T14:35:47Z</time></trkpt><trkpt lat="50.07995708700194" lon="4.3728402141123865"><ele>208.0</ele><time>2026-04-30T14:35:48Z</time></trkpt><trkpt lat="50.07977911120622" lon="4.372895736281327"><ele>208.0</ele><time>2026-04-30T14:35:49Z</time></trkpt><trkpt lat="50.07959000450493" lon="4.372934204841403"><ele>209.0</ele><time>2026-04-30T14:35:50Z</time></trkpt><trkpt lat="50.07940319971161" lon="4.372969263117862"><ele>210.0</ele><time>2026-04-30T14:35:51Z</time></trkpt><trkpt lat="50.079223638151205" lon="4.373005533961828"><ele>211.0</ele><time>2026-04-30T14:35:52Z</time></trkpt><trkpt lat="50.079045728067875" lon="4.373050517347482"><ele>213.0</ele><time>2026-04-30T14:35:53Z</time></trkpt><trkpt lat="50.078862434467815" lon="4.373075492792181"><ele>215.0</ele><time>2026-04-30T14:35:54Z</time></trkpt><trkpt lat="50.07868295627074" lon="4.373085674810448"><ele>217.0</ele><time>2026-04-30T14:35:55Z</time></trkpt><trkpt lat="50.07849740062962" lon="4.3730815152251115"><ele>217.0</ele><time>2026-04-30T14:35:56Z</time></trkpt><trkpt lat="50.07831038156038" lon="4.3730542258549905"><ele>217.0</ele><time>2026-04-30T14:35:57Z</time></trkpt><trkpt lat="50.07812073325493" lon="4.373005842685183"><ele>217.0</ele><time>2026-04-30T14:35:58Z</time></trkpt><trkpt lat="50.077925768857114" lon="4.372930791361795"><ele>218.33333333333331</ele><time>2026-04-30T14:35:59Z</time></trkpt><trkpt lat="50.07773305613596" lon="4.372834521507466"><ele>219.66666666666669</ele><time>2026-04-30T14:36:00Z</time></trkpt><trkpt lat="50.07753800569781" lon="4.372714804781029"><ele>221.0</ele><time>2026-04-30T14:36:01Z</time></trkpt><trkpt lat="50.077339634809846" lon="4.372576902615754"><ele>221.0</ele><time>2026-04-30T14:36:02Z</time></trkpt><trkpt lat="50.077132981779066" lon="4.3724295792778465"><ele>221.0</ele><time>2026-04-30T14:36:03Z</time></trkpt><trkpt lat="50.07692931356551" lon="4.372285608148929"><ele>220.0</ele><time>2026-04-30T14:36:04Z</time></trkpt><trkpt lat="50.07673238410474" lon="4.37214872134997"><ele>219.0</ele><time>2026-04-30T14:36:05Z</time></trkpt><trkpt lat="50.076539831152786" lon="4.3720146125025074"><ele>218.0</ele><time>2026-04-30T14:36:06Z</time></trkpt><trkpt lat="50.07633798602162" lon="4.371900662463685"><ele>215.66666666666669</ele><time>2026-04-30T14:36:07Z</time></trkpt><trkpt lat="50.07615768882948" lon="4.371746586159424"><ele>213.33333333333331</ele><time>2026-04-30T14:36:08Z</time></trkpt><trkpt lat="50.0759701335307" lon="4.371612151012089"><ele>211.0</ele><time>2026-04-30T14:36:09Z</time></trkpt><trkpt lat="50.075776850394085" lon="4.371493561014093"><ele>209.66666666666666</ele><time>2026-04-30T14:36:10Z</time></trkpt><trkpt lat="50.07558615178225" lon="4.371356885555194"><ele>208.33333333333331</ele><time>2026-04-30T14:36:11Z</time></trkpt><trkpt lat="50.07539772513422" lon="4.371225053072026"><ele>207.0</ele><time>2026-04-30T14:36:12Z</time></trkpt><trkpt lat="50.0752118947257" lon="4.3711093980497076"><ele>207.0</ele><time>2026-04-30T14:36:13Z</time></trkpt><trkpt lat="50.0750264987617" lon="4.3709914121618025"><ele>207.0</ele><time>2026-04-30T14:36:14Z</time></trkpt><trkpt lat="50.074841686947586" lon="4.37088555898658"><ele>207.0</ele><time>2026-04-30T14:36:15Z</time></trkpt><trkpt lat="50.07466447382831" lon="4.370788176323595"><ele>206.33333333333331</ele><time>2026-04-30T14:36:16Z</time></trkpt><trkpt lat="50.07447638971465" lon="4.37075401697128"><ele>205.66666666666666</ele><time>2026-04-30T14:36:17Z</time></trkpt><trkpt lat="50.074297140346616" lon="4.370688689535842"><ele>205.0</ele><time>2026-04-30T14:36:18Z</time></trkpt><trkpt lat="50.074120990707335" lon="4.370626720272178"><ele>205.66666666666666</ele><time>2026-04-30T14:36:19Z</time></trkpt><trkpt lat="50.07395428655456" lon="4.370568431916777"><ele>206.33333333333331</ele><time>2026-04-30T14:36:20Z</time></trkpt><trkpt lat="50.07380546941019" lon="4.3705111955123845"><ele>207.0</ele><time>2026-04-30T14:36:21Z</time></trkpt><trkpt lat="50.07367152650534" lon="4.37045591191954"><ele>207.0</ele><time>2026-04-30T14:36:22Z</time></trkpt><trkpt lat="50.07354710718067" lon="4.370406612271941"><ele>207.0</ele><time>2026-04-30T14:36:23Z</time></trkpt><trkpt lat="50.073421205373684" lon="4.370353447885496"><ele>207.0</ele><time>2026-04-30T14:36:23.999Z</time></trkpt><trkpt lat="50.07330261807817" lon="4.370282699547258"><ele>207.0</ele><time>2026-04-30T14:36:24.999Z</time></trkpt><trkpt lat="50.07319042250949" lon="4.370192992944741"><ele>209.2</ele><time>2026-04-30T14:36:25.999Z</time></trkpt><trkpt lat="50.07309443870843" lon="4.370101276079813"><ele>211.39999999999998</ele><time>2026-04-30T14:36:26.999Z</time></trkpt><trkpt lat="50.07301142950348" lon="4.3700144911263905"><ele>213.60000000000002</ele><time>2026-04-30T14:36:27.999Z</time></trkpt><trkpt lat="50.07293693728528" lon="4.369917048900449"><ele>215.8</ele><time>2026-04-30T14:36:28.999Z</time></trkpt><trkpt lat="50.0728666265905" lon="4.369826599021884"><ele>218.0</ele><time>2026-04-30T14:36:29.999Z</time></trkpt><trkpt lat="50.072805193776986" lon="4.369741408064721"><ele>217.83333333333334</ele><time>2026-04-30T14:36:30.999Z</time></trkpt><trkpt lat="50.072752859149524" lon="4.369662711448284"><ele>217.66666666666669</ele><time>2026-04-30T14:36:31.999Z</time></trkpt><trkpt lat="50.07270511677586" lon="4.369595620009672"><ele>217.5</ele><time>2026-04-30T14:36:32.999Z</time></trkpt><trkpt lat="50.07261483431142" lon="4.369466467223761"><ele>217.33333333333331</ele><time>2026-04-30T14:36:34.999Z</time></trkpt><trkpt lat="50.072559313903085" lon="4.369394935604489"><ele>217.16666666666666</ele><time>2026-04-30T14:36:35.999Z</time></trkpt><trkpt lat="50.072507448818094" lon="4.3693272174191256"><ele>217.0</ele><time>2026-04-30T14:36:36.999Z</time></trkpt><trkpt lat="50.07244063215988" lon="4.369230058997408"><ele>218.6</ele><time>2026-04-30T14:36:38.999Z</time></trkpt><trkpt lat="50.07238820185082" lon="4.369155257242804"><ele>220.2</ele><time>2026-04-30T14:36:40.999Z</time></trkpt><trkpt lat="50.072323917594424" lon="4.369062023803756"><ele>221.8</ele><time>2026-04-30T14:36:42.999Z</time></trkpt><trkpt lat="50.07226530296963" lon="4.368915353529436"><ele>223.4</ele><time>2026-04-30T14:36:44.999Z</time></trkpt><trkpt lat="50.072288895290015" lon="4.368721364176072"><ele>225.0</ele><time>2026-04-30T14:36:45.999Z</time></trkpt><trkpt lat="50.07229693248195" lon="4.3685109431129225"><ele>225.0</ele><time>2026-04-30T14:36:46.999Z</time></trkpt><trkpt lat="50.07230413460496" lon="4.368274629103997"><ele>225.0</ele><time>2026-04-30T14:36:47.999Z</time></trkpt><trkpt lat="50.07230934574217" lon="4.368031522077119"><ele>225.0</ele><time>2026-04-30T14:36:48.999Z</time></trkpt><trkpt lat="50.0723093566626" lon="4.367781065900706"><ele>225.66666666666669</ele><time>2026-04-30T14:36:49.999Z</time></trkpt><trkpt lat="50.072309802917815" lon="4.367515824798138"><ele>226.33333333333334</ele><time>2026-04-30T14:36:50.999Z</time></trkpt><trkpt lat="50.07231645127665" lon="4.367218733844477"><ele>227.0</ele><time>2026-04-30T14:36:51.998Z</time></trkpt><trkpt lat="50.07233473389605" lon="4.3669072424396385"><ele>227.0</ele><time>2026-04-30T14:36:52.998Z</time></trkpt><trkpt lat="50.07236883964082" lon="4.366600989643938"><ele>227.0</ele><time>2026-04-30T14:36:53.998Z</time></trkpt><trkpt lat="50.07241568103736" lon="4.366296099267174"><ele>227.0</ele><time>2026-04-30T14:36:54.998Z</time></trkpt><trkpt lat="50.0724697382143" lon="4.365990024129992"><ele>223.33333333333334</ele><time>2026-04-30T14:36:55.998Z</time></trkpt><trkpt lat="50.07252948140872" lon="4.365676944710591"><ele>219.66666666666669</ele><time>2026-04-30T14:36:56.998Z</time></trkpt><trkpt lat="50.072597863334416" lon="4.365366435969434"><ele>216.0</ele><time>2026-04-30T14:36:57.998Z</time></trkpt><trkpt lat="50.07267229017079" lon="4.365081022269663"><ele>216.0</ele><time>2026-04-30T14:36:58.998Z</time></trkpt><trkpt lat="50.072737366899766" lon="4.364802778443788"><ele>216.0</ele><time>2026-04-30T14:36:59.998Z</time></trkpt><trkpt lat="50.07279606227748" lon="4.364529983328746"><ele>216.0</ele><time>2026-04-30T14:37:00.998Z</time></trkpt><trkpt lat="50.07285887767178" lon="4.364272152032592"><ele>216.0</ele><time>2026-04-30T14:37:01.998Z</time></trkpt><trkpt lat="50.07292038098684" lon="4.364011534402182"><ele>216.0</ele><time>2026-04-30T14:37:02.998Z</time></trkpt><trkpt lat="50.0729790095231" lon="4.363763425285633"><ele>216.0</ele><time>2026-04-30T14:37:03.998Z</time></trkpt><trkpt lat="50.07303610461495" lon="4.36352507586672"><ele>216.0</ele><time>2026-04-30T14:37:04.998Z</time></trkpt><trkpt lat="50.07309245463917" lon="4.363298164333822"><ele>216.0</ele><time>2026-04-30T14:37:05.998Z</time></trkpt><trkpt lat="50.073146083109684" lon="4.363070633252168"><ele>216.0</ele><time>2026-04-30T14:37:06.998Z</time></trkpt><trkpt lat="50.07319404675527" lon="4.362844883096192"><ele>217.0</ele><time>2026-04-30T14:37:07.998Z</time></trkpt><trkpt lat="50.073234066320154" lon="4.3626125602039245"><ele>218.0</ele><time>2026-04-30T14:37:08.998Z</time></trkpt><trkpt lat="50.07325684330471" lon="4.362371540834733"><ele>219.0</ele><time>2026-04-30T14:37:09.998Z</time></trkpt><trkpt lat="50.073258968645625" lon="4.362124187057821"><ele>219.66666666666669</ele><time>2026-04-30T14:37:10.998Z</time></trkpt><trkpt lat="50.07329359468554" lon="4.36188237493012"><ele>220.33333333333334</ele><time>2026-04-30T14:37:11.998Z</time></trkpt><trkpt lat="50.073312350816686" lon="4.361648931109589"><ele>221.0</ele><time>2026-04-30T14:37:12.998Z</time></trkpt><trkpt lat="50.07315541822269" lon="4.361408084348547"><ele>220.75</ele><time>2026-04-30T14:37:13.998Z</time></trkpt><trkpt lat="50.07311343132967" lon="4.361204761470688"><ele>220.5</ele><time>2026-04-30T14:37:14.998Z</time></trkpt><trkpt lat="50.073077295728126" lon="4.361014377356982"><ele>220.25</ele><time>2026-04-30T14:37:15.998Z</time></trkpt><trkpt lat="50.07304660369913" lon="4.360828905553901"><ele>220.0</ele><time>2026-04-30T14:37:16.998Z</time></trkpt><trkpt lat="50.07301474844771" lon="4.36064876282623"><ele>219.75</ele><time>2026-04-30T14:37:17.998Z</time></trkpt><trkpt lat="50.07297918586079" lon="4.360463600862449"><ele>219.5</ele><time>2026-04-30T14:37:18.998Z</time></trkpt><trkpt lat="50.07294156580585" lon="4.3602667239236474"><ele>219.25</ele><time>2026-04-30T14:37:19.998Z</time></trkpt><trkpt lat="50.07290634636475" lon="4.360060263571124"><ele>219.0</ele><time>2026-04-30T14:37:20.998Z</time></trkpt><trkpt lat="50.07287062971694" lon="4.359859507846568"><ele>218.75</ele><time>2026-04-30T14:37:21.998Z</time></trkpt><trkpt lat="50.07283620030431" lon="4.359669068414177"><ele>218.5</ele><time>2026-04-30T14:37:22.998Z</time></trkpt><trkpt lat="50.072800604644335" lon="4.359477675823724"><ele>218.25</ele><time>2026-04-30T14:37:23.998Z</time></trkpt><trkpt lat="50.072769906805824" lon="4.359277906507696"><ele>218.0</ele><time>2026-04-30T14:37:24.998Z</time></trkpt><trkpt lat="50.07273654732401" lon="4.359086061710842"><ele>218.0</ele><time>2026-04-30T14:37:25.998Z</time></trkpt><trkpt lat="50.07270452013696" lon="4.358913955071532"><ele>218.0</ele><time>2026-04-30T14:37:27Z</time></trkpt><trkpt lat="50.072673117155084" lon="4.358753409519538"><ele>218.0</ele><time>2026-04-30T14:37:28Z</time></trkpt><trkpt lat="50.07264275391252" lon="4.3585827379465725"><ele>218.0</ele><time>2026-04-30T14:37:29Z</time></trkpt><trkpt lat="50.0726091735917" lon="4.3584003734257895"><ele>217.75</ele><time>2026-04-30T14:37:30Z</time></trkpt><trkpt lat="50.072573006587675" lon="4.358213478010878"><ele>217.5</ele><time>2026-04-30T14:37:31Z</time></trkpt><trkpt lat="50.07254146289494" lon="4.358039620319223"><ele>217.25</ele><time>2026-04-30T14:37:32Z</time></trkpt><trkpt lat="50.072509221465424" lon="4.357868661279056"><ele>217.0</ele><time>2026-04-30T14:37:33Z</time></trkpt><trkpt lat="50.0724751058218" lon="4.357697347590642"><ele>221.39999999999998</ele><time>2026-04-30T14:37:34Z</time></trkpt><trkpt lat="50.072437702209584" lon="4.357530425371839"><ele>225.79999999999998</ele><time>2026-04-30T14:37:35Z</time></trkpt><trkpt lat="50.07240342824727" lon="4.357377272260391"><ele>230.2</ele><time>2026-04-30T14:37:36Z</time></trkpt><trkpt lat="50.07236720759914" lon="4.357232936201899"><ele>234.6</ele><time>2026-04-30T14:37:37Z</time></trkpt><trkpt lat="50.072327662172626" lon="4.357084303861344"><ele>239.0</ele><time>2026-04-30T14:37:38Z</time></trkpt><trkpt lat="50.072297033576255" lon="4.356928221171173"><ele>239.0</ele><time>2026-04-30T14:37:39Z</time></trkpt><trkpt lat="50.07224149752057" lon="4.3567651946328"><ele>239.0</ele><time>2026-04-30T14:37:40Z</time></trkpt><trkpt lat="50.07219259458552" lon="4.35659173733639"><ele>239.0</ele><time>2026-04-30T14:37:41Z</time></trkpt><trkpt lat="50.072147818740845" lon="4.3564044165246765"><ele>239.0</ele><time>2026-04-30T14:37:42Z</time></trkpt><trkpt lat="50.07209555572598" lon="4.3562263042730685"><ele>236.0</ele><time>2026-04-30T14:37:43Z</time></trkpt><trkpt lat="50.072045644773645" lon="4.3560449867588735"><ele>233.0</ele><time>2026-04-30T14:37:44Z</time></trkpt><trkpt lat="50.07199758976364" lon="4.355868958680993"><ele>230.0</ele><time>2026-04-30T14:37:45Z</time></trkpt><trkpt lat="50.071943079147864" lon="4.355689039807612"><ele>227.0</ele><time>2026-04-30T14:37:46Z</time></trkpt><trkpt lat="50.07188981645933" lon="4.355509351749067"><ele>223.75</ele><time>2026-04-30T14:37:47Z</time></trkpt><trkpt lat="50.07183129742613" lon="4.355331298727164"><ele>220.5</ele><time>2026-04-30T14:37:48Z</time></trkpt><trkpt lat="50.071767054688195" lon="4.35516093621598"><ele>217.25</ele><time>2026-04-30T14:37:49Z</time></trkpt><trkpt lat="50.07170066130587" lon="4.355004894086974"><ele>214.0</ele><time>2026-04-30T14:37:50Z</time></trkpt><trkpt lat="50.071632070179156" lon="4.354855673603545"><ele>216.39999999999998</ele><time>2026-04-30T14:37:51Z</time></trkpt><trkpt lat="50.07156353692181" lon="4.354721824200331"><ele>218.79999999999998</ele><time>2026-04-30T14:37:52Z</time></trkpt><trkpt lat="50.07149390510102" lon="4.354591424597694"><ele>221.20000000000002</ele><time>2026-04-30T14:37:53Z</time></trkpt><trkpt lat="50.07142501392723" lon="4.3544579160903965"><ele>223.60000000000002</ele><time>2026-04-30T14:37:54Z</time></trkpt><trkpt lat="50.071349055738594" lon="4.354318584990474"><ele>226.0</ele><time>2026-04-30T14:37:55Z</time></trkpt><trkpt lat="50.071271106416326" lon="4.354169756460414"><ele>226.0</ele><time>2026-04-30T14:37:55.999Z</time></trkpt><trkpt lat="50.07118963952926" lon="4.3540146202732615"><ele>226.0</ele><time>2026-04-30T14:37:56.999Z</time></trkpt><trkpt lat="50.07110534115233" lon="4.353849302860128"><ele>226.0</ele><time>2026-04-30T14:37:57.999Z</time></trkpt><trkpt lat="50.07102278231505" lon="4.353688047022688"><ele>226.0</ele><time>2026-04-30T14:37:58.999Z</time></trkpt><trkpt lat="50.07093812350032" lon="4.353530297649794"><ele>227.25</ele><time>2026-04-30T14:37:59.999Z</time></trkpt><trkpt lat="50.0708431674467" lon="4.353381527097501"><ele>228.5</ele><time>2026-04-30T14:38:00.999Z</time></trkpt><trkpt lat="50.07074074153709" lon="4.3532426543924"><ele>229.75</ele><time>2026-04-30T14:38:01.999Z</time></trkpt><trkpt lat="50.07063516109631" lon="4.353116136816087"><ele>231.0</ele><time>2026-04-30T14:38:02.999Z</time></trkpt><trkpt lat="50.07052823456871" lon="4.353002851950765"><ele>226.75</ele><time>2026-04-30T14:38:03.999Z</time></trkpt><trkpt lat="50.07042435803241" lon="4.352894203946349"><ele>222.5</ele><time>2026-04-30T14:38:04.999Z</time></trkpt><trkpt lat="50.070325035872145" lon="4.352777761602146"><ele>218.25</ele><time>2026-04-30T14:38:05.999Z</time></trkpt><trkpt lat="50.07023260721747" lon="4.352674518425214"><ele>214.0</ele><time>2026-04-30T14:38:06.999Z</time></trkpt><trkpt lat="50.07015030996407" lon="4.352579770065697"><ele>213.99999999999997</ele><time>2026-04-30T14:38:07.999Z</time></trkpt><trkpt lat="50.07007279816031" lon="4.352493403625926"><ele>214.0</ele><time>2026-04-30T14:38:08.999Z</time></trkpt><trkpt lat="50.07000714598832" lon="4.352415366230532"><ele>214.0</ele><time>2026-04-30T14:38:09.999Z</time></trkpt><trkpt lat="50.06994977735437" lon="4.3523373983692215"><ele>214.0</ele><time>2026-04-30T14:38:10.999Z</time></trkpt><trkpt lat="50.06990328576755" lon="4.352253290291392"><ele>213.99999999999997</ele><time>2026-04-30T14:38:11.999Z</time></trkpt><trkpt lat="50.06987796480933" lon="4.352158668647269"><ele>214.0</ele><time>2026-04-30T14:38:12.999Z</time></trkpt><trkpt lat="50.069872362697616" lon="4.351978966243122"><ele>211.6</ele><time>2026-04-30T14:38:14.999Z</time></trkpt><trkpt lat="50.069949406127535" lon="4.351839690296306"><ele>209.2</ele><time>2026-04-30T14:38:16.999Z</time></trkpt><trkpt lat="50.07000914364329" lon="4.351778336251917"><ele>206.79999999999998</ele><time>2026-04-30T14:38:17.999Z</time></trkpt><trkpt lat="50.070078308526234" lon="4.351716483476743"><ele>204.39999999999998</ele><time>2026-04-30T14:38:18.999Z</time></trkpt><trkpt lat="50.07015716044228" lon="4.351648875143638"><ele>202.0</ele><time>2026-04-30T14:38:19.999Z</time></trkpt><trkpt lat="50.07023590125365" lon="4.351575906344122"><ele>202.0</ele><time>2026-04-30T14:38:20.999Z</time></trkpt><trkpt lat="50.070302585610996" lon="4.351484095437562"><ele>202.0</ele><time>2026-04-30T14:38:21.999Z</time></trkpt><trkpt lat="50.070372460165245" lon="4.351386405660692"><ele>202.0</ele><time>2026-04-30T14:38:22.999Z</time></trkpt><trkpt lat="50.07043866961641" lon="4.351282787621117"><ele>202.0</ele><time>2026-04-30T14:38:23.999Z</time></trkpt><trkpt lat="50.0705062766634" lon="4.351161385012547"><ele>202.0</ele><time>2026-04-30T14:38:24.999Z</time></trkpt><trkpt lat="50.070580843609626" lon="4.351043156677858"><ele>202.8</ele><time>2026-04-30T14:38:25.999Z</time></trkpt><trkpt lat="50.07065542641148" lon="4.350912874673698"><ele>203.6</ele><time>2026-04-30T14:38:26.999Z</time></trkpt><trkpt lat="50.07072134211352" lon="4.35077766212184"><ele>204.4</ele><time>2026-04-30T14:38:27.999Z</time></trkpt><trkpt lat="50.0707810227563" lon="4.350643539006448"><ele>205.20000000000002</ele><time>2026-04-30T14:38:28.999Z</time></trkpt><trkpt lat="50.07083543084922" lon="4.350512655543771"><ele>206.0</ele><time>2026-04-30T14:38:29.999Z</time></trkpt><trkpt lat="50.07090240480014" lon="4.350393158699445"><ele>206.75</ele><time>2026-04-30T14:38:30.999Z</time></trkpt><trkpt lat="50.07093315049177" lon="4.3502366347947605"><ele>207.5</ele><time>2026-04-30T14:38:31.999Z</time></trkpt><trkpt lat="50.07094617569198" lon="4.350065881990383"><ele>208.25</ele><time>2026-04-30T14:38:32.999Z</time></trkpt><trkpt lat="50.07093296674243" lon="4.349886889417804"><ele>209.0</ele><time>2026-04-30T14:38:33.999Z</time></trkpt><trkpt lat="50.07089630722891" lon="4.349710756955004"><ele>208.5</ele><time>2026-04-30T14:38:34.999Z</time></trkpt><trkpt lat="50.07084031488436" lon="4.34955208439021"><ele>208.0</ele><time>2026-04-30T14:38:35.999Z</time></trkpt><trkpt lat="50.07076261987344" lon="4.349398151466173"><ele>207.5</ele><time>2026-04-30T14:38:36.999Z</time></trkpt><trkpt lat="50.07067170088328" lon="4.349247737550295"><ele>207.0</ele><time>2026-04-30T14:38:37.999Z</time></trkpt><trkpt lat="50.070589520684074" lon="4.3490932059010685"><ele>207.5</ele><time>2026-04-30T14:38:38.999Z</time></trkpt><trkpt lat="50.07050676194711" lon="4.348937002633128"><ele>208.0</ele><time>2026-04-30T14:38:39.999Z</time></trkpt><trkpt lat="50.0704249970698" lon="4.348779438274665"><ele>208.5</ele><time>2026-04-30T14:38:40.999Z</time></trkpt><trkpt lat="50.070336622365026" lon="4.348623257629746"><ele>209.0</ele><time>2026-04-30T14:38:41.999Z</time></trkpt><trkpt lat="50.07024487750541" lon="4.348457699369082"><ele>209.0</ele><time>2026-04-30T14:38:42.999Z</time></trkpt><trkpt lat="50.070149550412175" lon="4.348269062775202"><ele>209.0</ele><time>2026-04-30T14:38:43.999Z</time></trkpt><trkpt lat="50.07004612390212" lon="4.348082359892759"><ele>209.0</ele><time>2026-04-30T14:38:44.999Z</time></trkpt><trkpt lat="50.06994774132451" lon="4.34790148598638"><ele>209.75</ele><time>2026-04-30T14:38:45.999Z</time></trkpt><trkpt lat="50.06986775754568" lon="4.347745967045989"><ele>210.5</ele><time>2026-04-30T14:38:46.999Z</time></trkpt><trkpt lat="50.06978136135618" lon="4.347591701965788"><ele>211.25</ele><time>2026-04-30T14:38:47.999Z</time></trkpt><trkpt lat="50.06970791368848" lon="4.347448997250107"><ele>212.0</ele><time>2026-04-30T14:38:48.999Z</time></trkpt><trkpt lat="50.06964028096513" lon="4.347316009377125"><ele>212.25</ele><time>2026-04-30T14:38:49.999Z</time></trkpt><trkpt lat="50.069567434353914" lon="4.347178412999658"><ele>212.5</ele><time>2026-04-30T14:38:50.999Z</time></trkpt><trkpt lat="50.06949359102717" lon="4.347036831737926"><ele>212.75</ele><time>2026-04-30T14:38:51.999Z</time></trkpt><trkpt lat="50.06942180859337" lon="4.3468991820714935"><ele>213.0</ele><time>2026-04-30T14:38:52.999Z</time></trkpt><trkpt lat="50.069354859671904" lon="4.3467681379448"><ele>213.0</ele><time>2026-04-30T14:38:53.999Z</time></trkpt><trkpt lat="50.06928149790847" lon="4.346630219913729"><ele>213.0</ele><time>2026-04-30T14:38:54.999Z</time></trkpt><trkpt lat="50.069210772070775" lon="4.346496571924593"><ele>213.0</ele><time>2026-04-30T14:38:55.999Z</time></trkpt><trkpt lat="50.06913785795558" lon="4.3463536888168655"><ele>213.0</ele><time>2026-04-30T14:38:56.999Z</time></trkpt><trkpt lat="50.069062512077075" lon="4.346211929459065"><ele>212.0</ele><time>2026-04-30T14:38:57.999Z</time></trkpt><trkpt lat="50.068986447795744" lon="4.3460767906741795"><ele>211.0</ele><time>2026-04-30T14:38:58.999Z</time></trkpt><trkpt lat="50.06891533142181" lon="4.345938678869122"><ele>210.0</ele><time>2026-04-30T14:38:59.999Z</time></trkpt><trkpt lat="50.068848117827386" lon="4.3457945356042815"><ele>209.0</ele><time>2026-04-30T14:39:00.999Z</time></trkpt><trkpt lat="50.06878199590439" lon="4.345651912024293"><ele>209.0</ele><time>2026-04-30T14:39:01.998Z</time></trkpt><trkpt lat="50.0687151808044" lon="4.345505516405962"><ele>209.0</ele><time>2026-04-30T14:39:02.998Z</time></trkpt><trkpt lat="50.068649118281066" lon="4.345357174616156"><ele>209.0</ele><time>2026-04-30T14:39:03.998Z</time></trkpt><trkpt lat="50.06858516614995" lon="4.345203206961879"><ele>209.0</ele><time>2026-04-30T14:39:04.998Z</time></trkpt><trkpt lat="50.06852167461901" lon="4.34504521420658"><ele>209.0</ele><time>2026-04-30T14:39:05.998Z</time></trkpt><trkpt lat="50.06845921968458" lon="4.344885621331917"><ele>209.0</ele><time>2026-04-30T14:39:06.998Z</time></trkpt><trkpt lat="50.068400868267766" lon="4.344717962969797"><ele>209.0</ele><time>2026-04-30T14:39:07.998Z</time></trkpt><trkpt lat="50.06834686945374" lon="4.3445446941299215"><ele>209.0</ele><time>2026-04-30T14:39:08.998Z</time></trkpt><trkpt lat="50.06830150252432" lon="4.344368502904165"><ele>209.25</ele><time>2026-04-30T14:39:09.998Z</time></trkpt><trkpt lat="50.06826039297176" lon="4.344190867077409"><ele>209.5</ele><time>2026-04-30T14:39:10.998Z</time></trkpt><trkpt lat="50.068220109223" lon="4.34401423560752"><ele>209.75</ele><time>2026-04-30T14:39:11.998Z</time></trkpt><trkpt lat="50.06818184950953" lon="4.343834054155154"><ele>210.0</ele><time>2026-04-30T14:39:12.998Z</time></trkpt><trkpt lat="50.06814297167271" lon="4.343650624268356"><ele>210.0</ele><time>2026-04-30T14:39:13.998Z</time></trkpt><trkpt lat="50.068099755931" lon="4.3434558585909055"><ele>210.0</ele><time>2026-04-30T14:39:14.998Z</time></trkpt><trkpt lat="50.068051448200556" lon="4.343259476274147"><ele>210.0</ele><time>2026-04-30T14:39:15.998Z</time></trkpt><trkpt lat="50.06800031688523" lon="4.343049235594031"><ele>210.0</ele><time>2026-04-30T14:39:16.998Z</time></trkpt><trkpt lat="50.06794587720142" lon="4.342824615418016"><ele>210.25</ele><time>2026-04-30T14:39:17.998Z</time></trkpt><trkpt lat="50.06790373623683" lon="4.342610510454672"><ele>210.5</ele><time>2026-04-30T14:39:18.998Z</time></trkpt><trkpt lat="50.06785876685661" lon="4.342414680631808"><ele>210.75</ele><time>2026-04-30T14:39:19.998Z</time></trkpt><trkpt lat="50.06781003011239" lon="4.34223122294538"><ele>211.0</ele><time>2026-04-30T14:39:20.998Z</time></trkpt><trkpt lat="50.06777161954717" lon="4.342059543291895"><ele>211.75</ele><time>2026-04-30T14:39:21.998Z</time></trkpt><trkpt lat="50.06774029741212" lon="4.341891121901065"><ele>212.5</ele><time>2026-04-30T14:39:22.998Z</time></trkpt><trkpt lat="50.06770292233254" lon="4.341721274861336"><ele>213.25</ele><time>2026-04-30T14:39:23.998Z</time></trkpt><trkpt lat="50.06765921041014" lon="4.34154325087787"><ele>214.0</ele><time>2026-04-30T14:39:24.998Z</time></trkpt><trkpt lat="50.06761686648983" lon="4.3413559112794005"><ele>214.25</ele><time>2026-04-30T14:39:25.998Z</time></trkpt><trkpt lat="50.06757230613568" lon="4.3411766300423285"><ele>214.5</ele><time>2026-04-30T14:39:26.998Z</time></trkpt><trkpt lat="50.06752817348336" lon="4.340997638975847"><ele>214.75</ele><time>2026-04-30T14:39:27.998Z</time></trkpt><trkpt lat="50.067489806744135" lon="4.340819735876554"><ele>215.0</ele><time>2026-04-30T14:39:28.998Z</time></trkpt><trkpt lat="50.06745714380618" lon="4.340654809384577"><ele>213.4</ele><time>2026-04-30T14:39:29.998Z</time></trkpt><trkpt lat="50.06742207016988" lon="4.340494472719042"><ele>211.8</ele><time>2026-04-30T14:39:30.998Z</time></trkpt><trkpt lat="50.06738934600289" lon="4.340331249435319"><ele>210.2</ele><time>2026-04-30T14:39:31.998Z</time></trkpt><trkpt lat="50.067342476800825" lon="4.340167580398273"><ele>208.6</ele><time>2026-04-30T14:39:33Z</time></trkpt><trkpt lat="50.0673016801657" lon="4.340002395977066"><ele>207.0</ele><time>2026-04-30T14:39:34Z</time></trkpt><trkpt lat="50.06725919873853" lon="4.339844975323966"><ele>207.75</ele><time>2026-04-30T14:39:35Z</time></trkpt><trkpt lat="50.0672155343555" lon="4.33968483416015"><ele>208.5</ele><time>2026-04-30T14:39:36Z</time></trkpt><trkpt lat="50.06716244470016" lon="4.339515265402423"><ele>209.25</ele><time>2026-04-30T14:39:37Z</time></trkpt><trkpt lat="50.067102697625096" lon="4.33934842586753"><ele>210.0</ele><time>2026-04-30T14:39:38Z</time></trkpt><trkpt lat="50.06704720916826" lon="4.339189535468859"><ele>210.0</ele><time>2026-04-30T14:39:39Z</time></trkpt><trkpt lat="50.066997896734016" lon="4.339039352855941"><ele>210.0</ele><time>2026-04-30T14:39:40Z</time></trkpt><trkpt lat="50.06695413871194" lon="4.338904575465027"><ele>210.0</ele><time>2026-04-30T14:39:41Z</time></trkpt><trkpt lat="50.06691201834419" lon="4.338778453033168"><ele>210.0</ele><time>2026-04-30T14:39:42Z</time></trkpt><trkpt lat="50.06687466474555" lon="4.338662844588619"><ele>210.0</ele><time>2026-04-30T14:39:43Z</time></trkpt><trkpt lat="50.06684064997031" lon="4.338554159111004"><ele>210.16666666666666</ele><time>2026-04-30T14:39:44Z</time></trkpt><trkpt lat="50.0668051659499" lon="4.338446367197883"><ele>210.33333333333331</ele><time>2026-04-30T14:39:45Z</time></trkpt><trkpt lat="50.0667650340354" lon="4.338331747061949"><ele>210.5</ele><time>2026-04-30T14:39:46Z</time></trkpt><trkpt lat="50.06672402618528" lon="4.338209723969762"><ele>210.66666666666666</ele><time>2026-04-30T14:39:47Z</time></trkpt><trkpt lat="50.06668294966161" lon="4.338082829812561"><ele>210.83333333333331</ele><time>2026-04-30T14:39:48Z</time></trkpt><trkpt lat="50.066639634801454" lon="4.337952208381501"><ele>211.0</ele><time>2026-04-30T14:39:49Z</time></trkpt><trkpt lat="50.06659536082839" lon="4.3378074955310595"><ele>210.60000000000002</ele><time>2026-04-30T14:39:50Z</time></trkpt><trkpt lat="50.0665457641504" lon="4.337655103194688"><ele>210.2</ele><time>2026-04-30T14:39:51Z</time></trkpt><trkpt lat="50.066499357413484" lon="4.337503930582097"><ele>209.8</ele><time>2026-04-30T14:39:52Z</time></trkpt><trkpt lat="50.066456593656255" lon="4.337353940007498"><ele>209.39999999999998</ele><time>2026-04-30T14:39:53Z</time></trkpt><trkpt lat="50.06641618395238" lon="4.337208105719711"><ele>209.0</ele><time>2026-04-30T14:39:54Z</time></trkpt><trkpt lat="50.06637259238602" lon="4.337067920170499"><ele>209.00000000000003</ele><time>2026-04-30T14:39:55Z</time></trkpt><trkpt lat="50.066329505765815" lon="4.33693320624851"><ele>209.0</ele><time>2026-04-30T14:39:56Z</time></trkpt><trkpt lat="50.06629259352748" lon="4.336803807484979"><ele>209.0</ele><time>2026-04-30T14:39:57Z</time></trkpt><trkpt lat="50.06625608637993" lon="4.3366789707309294"><ele>209.0</ele><time>2026-04-30T14:39:58Z</time></trkpt><trkpt lat="50.066224397984755" lon="4.3365715082504135"><ele>209.00000000000003</ele><time>2026-04-30T14:39:59Z</time></trkpt><trkpt lat="50.06619430752747" lon="4.336466841029682"><ele>209.0</ele><time>2026-04-30T14:40:00Z</time></trkpt><trkpt lat="50.06616407718848" lon="4.336355258111683"><ele>209.16666666666669</ele><time>2026-04-30T14:40:00.999Z</time></trkpt><trkpt lat="50.066131757959475" lon="4.336245901797161"><ele>209.33333333333334</ele><time>2026-04-30T14:40:01.999Z</time></trkpt><trkpt lat="50.06609614515831" lon="4.3361318372193125"><ele>209.5</ele><time>2026-04-30T14:40:02.999Z</time></trkpt><trkpt lat="50.06605839372674" lon="4.3360200529206425"><ele>209.66666666666669</ele><time>2026-04-30T14:40:03.999Z</time></trkpt><trkpt lat="50.06602424200929" lon="4.3358983069062935"><ele>209.83333333333334</ele><time>2026-04-30T14:40:04.999Z</time></trkpt><trkpt lat="50.06598206012542" lon="4.335778616556983"><ele>210.0</ele><time>2026-04-30T14:40:05.999Z</time></trkpt><trkpt lat="50.06593182786602" lon="4.335650770992949"><ele>209.8</ele><time>2026-04-30T14:40:06.999Z</time></trkpt><trkpt lat="50.06588299541632" lon="4.335515215749916"><ele>209.6</ele><time>2026-04-30T14:40:07.999Z</time></trkpt><trkpt lat="50.06582999636856" lon="4.335387449863399"><ele>209.39999999999998</ele><time>2026-04-30T14:40:08.999Z</time></trkpt><trkpt lat="50.065775091333215" lon="4.33526701318469"><ele>209.2</ele><time>2026-04-30T14:40:09.999Z</time></trkpt><trkpt lat="50.06572144858018" lon="4.335152071499486"><ele>209.0</ele><time>2026-04-30T14:40:10.999Z</time></trkpt><trkpt lat="50.065666357696784" lon="4.335039154904301"><ele>209.0</ele><time>2026-04-30T14:40:11.999Z</time></trkpt><trkpt lat="50.06561095659529" lon="4.3349322563553505"><ele>209.0</ele><time>2026-04-30T14:40:12.999Z</time></trkpt><trkpt lat="50.06555277144088" lon="4.334825465199243"><ele>209.0</ele><time>2026-04-30T14:40:13.999Z</time></trkpt><trkpt lat="50.06549442821872" lon="4.334715490578001"><ele>209.0</ele><time>2026-04-30T14:40:14.999Z</time></trkpt><trkpt lat="50.06542854364913" lon="4.334606172013082"><ele>209.0</ele><time>2026-04-30T14:40:15.999Z</time></trkpt><trkpt lat="50.06536246146243" lon="4.3345015659762876"><ele>209.16666666666669</ele><time>2026-04-30T14:40:16.999Z</time></trkpt><trkpt lat="50.06530081410195" lon="4.334416385841815"><ele>209.33333333333334</ele><time>2026-04-30T14:40:17.999Z</time></trkpt><trkpt lat="50.06524736396037" lon="4.334351575124224"><ele>209.5</ele><time>2026-04-30T14:40:18.999Z</time></trkpt><trkpt lat="50.06516041734601" lon="4.334230889241731"><ele>209.66666666666669</ele><time>2026-04-30T14:40:20.999Z</time></trkpt><trkpt lat="50.06510335580232" lon="4.334152885289897"><ele>209.83333333333334</ele><time>2026-04-30T14:40:22.999Z</time></trkpt><trkpt lat="50.065040685918525" lon="4.33407369030521"><ele>210.0</ele><time>2026-04-30T14:40:28.999Z</time></trkpt><trkpt lat="50.06498054761646" lon="4.333996524901994"><ele>210.0</ele><time>2026-04-30T14:40:32.999Z</time></trkpt><trkpt lat="50.064902086846246" lon="4.333895091125766"><ele>210.0</ele><time>2026-04-30T14:40:37.999Z</time></trkpt><trkpt lat="50.06480627941434" lon="4.333982924197721"><ele>210.0</ele><time>2026-04-30T14:40:38.999Z</time></trkpt><trkpt lat="50.064716251028024" lon="4.334059984093208"><ele>210.0</ele><time>2026-04-30T14:40:39.999Z</time></trkpt><trkpt lat="50.06461246294205" lon="4.334153855790405"><ele>210.0</ele><time>2026-04-30T14:40:40.999Z</time></trkpt><trkpt lat="50.06448308003259" lon="4.334279706764851"><ele>210.0</ele><time>2026-04-30T14:40:41.999Z</time></trkpt><trkpt lat="50.0643385146777" lon="4.334429082130764"><ele>210.0</ele><time>2026-04-30T14:40:42.999Z</time></trkpt><trkpt lat="50.06417360365537" lon="4.334587481098059"><ele>210.0</ele><time>2026-04-30T14:40:43.999Z</time></trkpt><trkpt lat="50.064000407299396" lon="4.334770927405931"><ele>207.33333333333331</ele><time>2026-04-30T14:40:44.999Z</time></trkpt><trkpt lat="50.06384054812396" lon="4.334948483156938"><ele>204.66666666666666</ele><time>2026-04-30T14:40:45.999Z</time></trkpt><trkpt lat="50.06369169605299" lon="4.335100385782853"><ele>202.0</ele><time>2026-04-30T14:40:46.999Z</time></trkpt><trkpt lat="50.063552713733934" lon="4.335247964266987"><ele>202.0</ele><time>2026-04-30T14:40:47.999Z</time></trkpt><trkpt lat="50.06344061239014" lon="4.335368177568165"><ele>202.0</ele><time>2026-04-30T14:40:48.999Z</time></trkpt><trkpt lat="50.06334063919821" lon="4.335474021859835"><ele>202.0</ele><time>2026-04-30T14:40:49.999Z</time></trkpt><trkpt lat="50.06323605996566" lon="4.335601326357342"><ele>202.0</ele><time>2026-04-30T14:40:50.999Z</time></trkpt><trkpt lat="50.063117690862605" lon="4.335719201672102"><ele>203.33333333333331</ele><time>2026-04-30T14:40:51.999Z</time></trkpt><trkpt lat="50.062986920288736" lon="4.335844538217866"><ele>204.66666666666669</ele><time>2026-04-30T14:40:52.999Z</time></trkpt><trkpt lat="50.062851795575206" lon="4.335981568810856"><ele>206.0</ele><time>2026-04-30T14:40:53.999Z</time></trkpt><trkpt lat="50.06272102326944" lon="4.336112795109586"><ele>206.0</ele><time>2026-04-30T14:40:54.999Z</time></trkpt><trkpt lat="50.06260547584122" lon="4.33621884720932"><ele>206.0</ele><time>2026-04-30T14:40:55.999Z</time></trkpt><trkpt lat="50.062496713824956" lon="4.33628352737207"><ele>206.0</ele><time>2026-04-30T14:40:56.999Z</time></trkpt><trkpt lat="50.06238379941417" lon="4.336286303287575"><ele>206.0</ele><time>2026-04-30T14:40:57.999Z</time></trkpt><trkpt lat="50.062266971182375" lon="4.336232377924834"><ele>208.25</ele><time>2026-04-30T14:40:58.999Z</time></trkpt><trkpt lat="50.062175799503684" lon="4.336084726075497"><ele>210.5</ele><time>2026-04-30T14:40:59.999Z</time></trkpt><trkpt lat="50.0620903978639" lon="4.335921521246513"><ele>212.75</ele><time>2026-04-30T14:41:00.999Z</time></trkpt><trkpt lat="50.06201323868889" lon="4.335728319978817"><ele>215.0</ele><time>2026-04-30T14:41:01.999Z</time></trkpt><trkpt lat="50.0619217780726" lon="4.335546492441053"><ele>215.0</ele><time>2026-04-30T14:41:02.999Z</time></trkpt><trkpt lat="50.06185358614804" lon="4.3353830581878405"><ele>215.0</ele><time>2026-04-30T14:41:03.999Z</time></trkpt><trkpt lat="50.061790901104246" lon="4.335227022499551"><ele>215.0</ele><time>2026-04-30T14:41:04.999Z</time></trkpt><trkpt lat="50.06173378154608" lon="4.335079424650058"><ele>215.0</ele><time>2026-04-30T14:41:05.999Z</time></trkpt><trkpt lat="50.06167302312452" lon="4.334939455885059"><ele>217.75</ele><time>2026-04-30T14:41:06.999Z</time></trkpt><trkpt lat="50.0616115334743" lon="4.334796706968831"><ele>220.5</ele><time>2026-04-30T14:41:07.999Z</time></trkpt><trkpt lat="50.06154993440904" lon="4.334649340167788"><ele>223.25</ele><time>2026-04-30T14:41:08.999Z</time></trkpt><trkpt lat="50.06148469081736" lon="4.334502990983388"><ele>226.0</ele><time>2026-04-30T14:41:09.999Z</time></trkpt><trkpt lat="50.06141474023129" lon="4.334350176448152"><ele>226.0</ele><time>2026-04-30T14:41:10.999Z</time></trkpt><trkpt lat="50.06134083346386" lon="4.334198070845162"><ele>226.0</ele><time>2026-04-30T14:41:11.998Z</time></trkpt><trkpt lat="50.06125635859658" lon="4.334047530710175"><ele>226.0</ele><time>2026-04-30T14:41:12.998Z</time></trkpt><trkpt lat="50.061170072617664" lon="4.333898166345663"><ele>226.0</ele><time>2026-04-30T14:41:13.998Z</time></trkpt><trkpt lat="50.06108256922796" lon="4.333740311464756"><ele>225.0</ele><time>2026-04-30T14:41:14.998Z</time></trkpt><trkpt lat="50.060990026790066" lon="4.333579974298131"><ele>224.0</ele><time>2026-04-30T14:41:15.998Z</time></trkpt><trkpt lat="50.06089764102876" lon="4.333419872821193"><ele>223.0</ele><time>2026-04-30T14:41:16.998Z</time></trkpt><trkpt lat="50.06080430110567" lon="4.333263851317625"><ele>222.0</ele><time>2026-04-30T14:41:17.998Z</time></trkpt><trkpt lat="50.06071177550144" lon="4.333107194087644"><ele>223.5</ele><time>2026-04-30T14:41:18.998Z</time></trkpt><trkpt lat="50.06061863183182" lon="4.332944707223157"><ele>225.0</ele><time>2026-04-30T14:41:19.998Z</time></trkpt><trkpt lat="50.0605243092185" lon="4.332783364527346"><ele>226.5</ele><time>2026-04-30T14:41:20.998Z</time></trkpt><trkpt lat="50.060430425494275" lon="4.332616414224461"><ele>228.0</ele><time>2026-04-30T14:41:21.998Z</time></trkpt><trkpt lat="50.060334858635535" lon="4.332449697642297"><ele>228.0</ele><time>2026-04-30T14:41:22.998Z</time></trkpt><trkpt lat="50.0602333061221" lon="4.332279464856295"><ele>228.0</ele><time>2026-04-30T14:41:23.998Z</time></trkpt><trkpt lat="50.06012916521784" lon="4.332118822399027"><ele>228.0</ele><time>2026-04-30T14:41:24.998Z</time></trkpt><trkpt lat="50.06002361682252" lon="4.3319792574858935"><ele>228.0</ele><time>2026-04-30T14:41:25.998Z</time></trkpt><trkpt lat="50.059924612879605" lon="4.331879541800662"><ele>229.2</ele><time>2026-04-30T14:41:26.998Z</time></trkpt><trkpt lat="50.05983910073381" lon="4.331818167704898"><ele>230.4</ele><time>2026-04-30T14:41:27.998Z</time></trkpt><trkpt lat="50.059755757753216" lon="4.3317732810750025"><ele>231.59999999999997</ele><time>2026-04-30T14:41:28.998Z</time></trkpt><trkpt lat="50.059655909941675" lon="4.331722012160022"><ele>232.79999999999998</ele><time>2026-04-30T14:41:29.998Z</time></trkpt><trkpt lat="50.05954294820484" lon="4.331674259088032"><ele>234.0</ele><time>2026-04-30T14:41:30.998Z</time></trkpt><trkpt lat="50.05942162595262" lon="4.331657471081215"><ele>234.0</ele><time>2026-04-30T14:41:31.998Z</time></trkpt><trkpt lat="50.05930744477444" lon="4.331605924975233"><ele>234.0</ele><time>2026-04-30T14:41:32.998Z</time></trkpt><trkpt lat="50.05922308132381" lon="4.331587840478941"><ele>234.0</ele><time>2026-04-30T14:41:33.998Z</time></trkpt><trkpt lat="50.05913988918681" lon="4.331571224527243"><ele>234.0</ele><time>2026-04-30T14:41:35.998Z</time></trkpt><trkpt lat="50.05913294666322" lon="4.331924971294781"><ele>235.33333333333331</ele><time>2026-04-30T14:41:36.998Z</time></trkpt><trkpt lat="50.0591114719738" lon="4.332122110520045"><ele>236.66666666666666</ele><time>2026-04-30T14:41:37.998Z</time></trkpt><trkpt lat="50.05910042470117" lon="4.332370074740951"><ele>238.0</ele><time>2026-04-30T14:41:39Z</time></trkpt><trkpt lat="50.059078429872926" lon="4.332652055607568"><ele>238.0</ele><time>2026-04-30T14:41:40Z</time></trkpt><trkpt lat="50.0590511230424" lon="4.332973790687191"><ele>238.0</ele><time>2026-04-30T14:41:41Z</time></trkpt><trkpt lat="50.05902270505769" lon="4.333313961148744"><ele>238.0</ele><time>2026-04-30T14:41:42Z</time></trkpt><trkpt lat="50.0589917229128" lon="4.33367208772523"><ele>238.66666666666666</ele><time>2026-04-30T14:41:43Z</time></trkpt><trkpt lat="50.05895797798647" lon="4.333984658373874"><ele>239.33333333333331</ele><time>2026-04-30T14:41:44Z</time></trkpt><trkpt lat="50.0589414104184" lon="4.334325383607"><ele>240.0</ele><time>2026-04-30T14:41:45Z</time></trkpt><trkpt lat="50.05891568085804" lon="4.3346563804960745"><ele>240.0</ele><time>2026-04-30T14:41:46Z</time></trkpt><trkpt lat="50.058882478989155" lon="4.335011277381633"><ele>240.0</ele><time>2026-04-30T14:41:47Z</time></trkpt><trkpt lat="50.05885108070487" lon="4.335383328490942"><ele>240.5</ele><time>2026-04-30T14:41:48Z</time></trkpt><trkpt lat="50.05882364497252" lon="4.3357745564120345"><ele>241.0</ele><time>2026-04-30T14:41:49Z</time></trkpt><trkpt lat="50.058784178079264" lon="4.336157521089433"><ele>241.33333333333331</ele><time>2026-04-30T14:41:50Z</time></trkpt><trkpt lat="50.05872977527374" lon="4.33649215550679"><ele>241.66666666666669</ele><time>2026-04-30T14:41:51Z</time></trkpt><trkpt lat="50.05864176258075" lon="4.336800496580627"><ele>242.0</ele><time>2026-04-30T14:41:52Z</time></trkpt><trkpt lat="50.05856473277416" lon="4.337125008933839"><ele>243.0</ele><time>2026-04-30T14:41:53Z</time></trkpt><trkpt lat="50.058448787169525" lon="4.3374403162520645"><ele>244.0</ele><time>2026-04-30T14:41:54Z</time></trkpt><trkpt lat="50.05829919468169" lon="4.337734225060464"><ele>245.5</ele><time>2026-04-30T14:41:55Z</time></trkpt><trkpt lat="50.05816357537306" lon="4.3380335279730975"><ele>247.0</ele><time>2026-04-30T14:41:56Z</time></trkpt><trkpt lat="50.05800404226355" lon="4.338293390428224"><ele>247.0</ele><time>2026-04-30T14:41:57Z</time></trkpt><trkpt lat="50.05782336265067" lon="4.3384951567859495"><ele>247.0</ele><time>2026-04-30T14:41:58Z</time></trkpt><trkpt lat="50.05765370495192" lon="4.338679610392123"><ele>247.0</ele><time>2026-04-30T14:41:59Z</time></trkpt><trkpt lat="50.05747218162744" lon="4.338852106520131"><ele>246.5</ele><time>2026-04-30T14:42:00Z</time></trkpt><trkpt lat="50.05728372742839" lon="4.339032703828074"><ele>246.0</ele><time>2026-04-30T14:42:01Z</time></trkpt><trkpt lat="50.05707302320235" lon="4.339190462740575"><ele>246.0</ele><time>2026-04-30T14:42:02Z</time></trkpt><trkpt lat="50.05683399967477" lon="4.33933023342366"><ele>246.0</ele><time>2026-04-30T14:42:03Z</time></trkpt><trkpt lat="50.05660305596083" lon="4.33949728678616"><ele>247.0</ele><time>2026-04-30T14:42:04Z</time></trkpt><trkpt lat="50.056361615202874" lon="4.339676431475555"><ele>248.0</ele><time>2026-04-30T14:42:05Z</time></trkpt><trkpt lat="50.05611028544471" lon="4.339870461992756"><ele>251.0</ele><time>2026-04-30T14:42:06Z</time></trkpt><trkpt lat="50.05562761808991" lon="4.3402230990627855"><ele>251.0</ele><time>2026-04-30T14:42:08Z</time></trkpt><trkpt lat="50.05541949340155" lon="4.340386152447583"><ele>251.0</ele><time>2026-04-30T14:42:09Z</time></trkpt><trkpt lat="50.05521610826278" lon="4.340541466525476"><ele>251.33333333333334</ele><time>2026-04-30T14:42:10Z</time></trkpt><trkpt lat="50.05501219895963" lon="4.340684490785554"><ele>251.66666666666669</ele><time>2026-04-30T14:42:11Z</time></trkpt><trkpt lat="50.05481702680924" lon="4.340823877909633"><ele>252.0</ele><time>2026-04-30T14:42:12Z</time></trkpt><trkpt lat="50.05463831525769" lon="4.34094948606687"><ele>252.33333333333331</ele><time>2026-04-30T14:42:13Z</time></trkpt><trkpt lat="50.054466124204154" lon="4.341059220573258"><ele>252.66666666666666</ele><time>2026-04-30T14:42:14Z</time></trkpt><trkpt lat="50.05429495255006" lon="4.34115862351762"><ele>253.0</ele><time>2026-04-30T14:42:15Z</time></trkpt><trkpt lat="50.05412406493968" lon="4.341247852565619"><ele>253.66666666666666</ele><time>2026-04-30T14:42:16Z</time></trkpt><trkpt lat="50.05395754571103" lon="4.341320337813101"><ele>254.33333333333331</ele><time>2026-04-30T14:42:17Z</time></trkpt><trkpt lat="50.053801453780345" lon="4.341379522618936"><ele>255.0</ele><time>2026-04-30T14:42:18Z</time></trkpt><trkpt lat="50.05366665588292" lon="4.341425082454932"><ele>255.0</ele><time>2026-04-30T14:42:19Z</time></trkpt><trkpt lat="50.053559395817516" lon="4.3414275557464705"><ele>255.0</ele><time>2026-04-30T14:42:19.999Z</time></trkpt><trkpt lat="50.0534857078587" lon="4.341448592053913"><ele>255.0</ele><time>2026-04-30T14:42:20.999Z</time></trkpt><trkpt lat="50.053417365371175" lon="4.341418885293685"><ele>255.0</ele><time>2026-04-30T14:42:22.999Z</time></trkpt><trkpt lat="50.053425116268414" lon="4.341178465394692"><ele>255.0</ele><time>2026-04-30T14:42:23.999Z</time></trkpt><trkpt lat="50.05343558447849" lon="4.341027690175373"><ele>255.0</ele><time>2026-04-30T14:42:24.999Z</time></trkpt><trkpt lat="50.05344856391043" lon="4.340847555082693"><ele>255.0</ele><time>2026-04-30T14:42:25.999Z</time></trkpt><trkpt lat="50.05344676247663" lon="4.340647567944264"><ele>255.0</ele><time>2026-04-30T14:42:26.999Z</time></trkpt><trkpt lat="50.05346726957154" lon="4.340426438599298"><ele>255.0</ele><time>2026-04-30T14:42:27.999Z</time></trkpt><trkpt lat="50.05348006535823" lon="4.340200481685001"><ele>254.0</ele><time>2026-04-30T14:42:28.999Z</time></trkpt><trkpt lat="50.05351117045836" lon="4.339987478995166"><ele>253.0</ele><time>2026-04-30T14:42:29.999Z</time></trkpt><trkpt lat="50.05350781002467" lon="4.339753380132748"><ele>252.0</ele><time>2026-04-30T14:42:30.999Z</time></trkpt><trkpt lat="50.05350904081482" lon="4.339506244400302"><ele>251.0</ele><time>2026-04-30T14:42:31.999Z</time></trkpt><trkpt lat="50.05348111135667" lon="4.339259150263916"><ele>250.33333333333334</ele><time>2026-04-30T14:42:32.999Z</time></trkpt><trkpt lat="50.05343050714404" lon="4.339008647658324"><ele>249.66666666666669</ele><time>2026-04-30T14:42:33.999Z</time></trkpt><trkpt lat="50.05336817687255" lon="4.33874886888653"><ele>249.0</ele><time>2026-04-30T14:42:34.999Z</time></trkpt><trkpt lat="50.05333320364786" lon="4.338490592351447"><ele>248.0</ele><time>2026-04-30T14:42:35.999Z</time></trkpt><trkpt lat="50.05327848951155" lon="4.338264189885005"><ele>247.0</ele><time>2026-04-30T14:42:36.999Z</time></trkpt><trkpt lat="50.053264499324" lon="4.338005242847201"><ele>246.0</ele><time>2026-04-30T14:42:37.999Z</time></trkpt><trkpt lat="50.05324442515783" lon="4.337719732378415"><ele>245.33333333333331</ele><time>2026-04-30T14:42:38.999Z</time></trkpt><trkpt lat="50.05322340662553" lon="4.33741290110071"><ele>244.66666666666666</ele><time>2026-04-30T14:42:39.999Z</time></trkpt><trkpt lat="50.05318177865407" lon="4.337098357909534"><ele>244.0</ele><time>2026-04-30T14:42:40.999Z</time></trkpt><trkpt lat="50.05314653133199" lon="4.336771690470686"><ele>243.66666666666666</ele><time>2026-04-30T14:42:41.999Z</time></trkpt><trkpt lat="50.05310881397465" lon="4.3364548967206575"><ele>243.33333333333331</ele><time>2026-04-30T14:42:42.999Z</time></trkpt><trkpt lat="50.05307337672315" lon="4.336159150040278"><ele>243.0</ele><time>2026-04-30T14:42:43.999Z</time></trkpt><trkpt lat="50.05303991816013" lon="4.335876769223975"><ele>243.0</ele><time>2026-04-30T14:42:44.999Z</time></trkpt><trkpt lat="50.05300764810646" lon="4.335604853679484"><ele>243.0</ele><time>2026-04-30T14:42:45.999Z</time></trkpt><trkpt lat="50.0529658467095" lon="4.3353454848923825"><ele>243.0</ele><time>2026-04-30T14:42:46.999Z</time></trkpt><trkpt lat="50.05292487094109" lon="4.335111859941831"><ele>243.0</ele><time>2026-04-30T14:42:47.999Z</time></trkpt><trkpt lat="50.052873775850344" lon="4.3348753927817"><ele>243.0</ele><time>2026-04-30T14:42:48.999Z</time></trkpt><trkpt lat="50.05281112193847" lon="4.334632924105407"><ele>243.0</ele><time>2026-04-30T14:42:49.999Z</time></trkpt><trkpt lat="50.05273725562924" lon="4.334383611383029"><ele>243.0</ele><time>2026-04-30T14:42:50.999Z</time></trkpt><trkpt lat="50.05266185683606" lon="4.334128488221974"><ele>243.0</ele><time>2026-04-30T14:42:51.999Z</time></trkpt><trkpt lat="50.052588189385226" lon="4.333863407052856"><ele>243.0</ele><time>2026-04-30T14:42:52.999Z</time></trkpt><trkpt lat="50.052523640196604" lon="4.333609616222895"><ele>243.0</ele><time>2026-04-30T14:42:53.999Z</time></trkpt><trkpt lat="50.05248462728238" lon="4.33336411382569"><ele>243.0</ele><time>2026-04-30T14:42:54.999Z</time></trkpt><trkpt lat="50.05242311452927" lon="4.333151339097166"><ele>243.0</ele><time>2026-04-30T14:42:55.999Z</time></trkpt><trkpt lat="50.052385285970566" lon="4.332948434786507"><ele>243.0</ele><time>2026-04-30T14:42:56.999Z</time></trkpt><trkpt lat="50.052351156786635" lon="4.33275787480611"><ele>242.5</ele><time>2026-04-30T14:42:57.999Z</time></trkpt><trkpt lat="50.052320625416336" lon="4.332583838447039"><ele>242.0</ele><time>2026-04-30T14:42:58.999Z</time></trkpt><trkpt lat="50.05228190829124" lon="4.332415672359013"><ele>241.5</ele><time>2026-04-30T14:42:59.999Z</time></trkpt><trkpt lat="50.05225835451751" lon="4.332227325941478"><ele>241.0</ele><time>2026-04-30T14:43:00.999Z</time></trkpt><trkpt lat="50.05222359253636" lon="4.332035733448591"><ele>240.75</ele><time>2026-04-30T14:43:01.999Z</time></trkpt><trkpt lat="50.05219242576085" lon="4.331847999856421"><ele>240.5</ele><time>2026-04-30T14:43:02.999Z</time></trkpt><trkpt lat="50.052150176954854" lon="4.331672616685268"><ele>240.25</ele><time>2026-04-30T14:43:03.999Z</time></trkpt><trkpt lat="50.052137323497796" lon="4.331488218294068"><ele>240.0</ele><time>2026-04-30T14:43:04.999Z</time></trkpt><trkpt lat="50.052108545976814" lon="4.331305911207964"><ele>239.75</ele><time>2026-04-30T14:43:05.999Z</time></trkpt><trkpt lat="50.052068323659896" lon="4.3311259210596464"><ele>239.5</ele><time>2026-04-30T14:43:06.999Z</time></trkpt><trkpt lat="50.0520218316007" lon="4.330947244737062"><ele>239.25</ele><time>2026-04-30T14:43:07.999Z</time></trkpt><trkpt lat="50.05199317872608" lon="4.330764744800596"><ele>239.0</ele><time>2026-04-30T14:43:08.999Z</time></trkpt><trkpt lat="50.051938182673986" lon="4.330598847631735"><ele>239.0</ele><time>2026-04-30T14:43:09.999Z</time></trkpt><trkpt lat="50.05189897908127" lon="4.330422142785433"><ele>239.0</ele><time>2026-04-30T14:43:10.999Z</time></trkpt><trkpt lat="50.05184607901569" lon="4.330257488813858"><ele>239.0</ele><time>2026-04-30T14:43:11.999Z</time></trkpt><trkpt lat="50.05180109700782" lon="4.3300850362066265"><ele>239.0</ele><time>2026-04-30T14:43:12.999Z</time></trkpt><trkpt lat="50.051765272190934" lon="4.329913776971419"><ele>239.0</ele><time>2026-04-30T14:43:13.999Z</time></trkpt><trkpt lat="50.05172460168888" lon="4.329752416397419"><ele>239.0</ele><time>2026-04-30T14:43:14.999Z</time></trkpt><trkpt lat="50.05168499457163" lon="4.3295835744756745"><ele>239.0</ele><time>2026-04-30T14:43:15.999Z</time></trkpt><trkpt lat="50.05163866639972" lon="4.329414436478279"><ele>239.0</ele><time>2026-04-30T14:43:16.999Z</time></trkpt><trkpt lat="50.051606409015776" lon="4.329233902063262"><ele>238.25</ele><time>2026-04-30T14:43:17.999Z</time></trkpt><trkpt lat="50.05155963144155" lon="4.329053358441518"><ele>237.5</ele><time>2026-04-30T14:43:18.999Z</time></trkpt><trkpt lat="50.05151572298293" lon="4.328866535230968"><ele>236.75</ele><time>2026-04-30T14:43:19.999Z</time></trkpt><trkpt lat="50.05146999191033" lon="4.328679060840105"><ele>236.0</ele><time>2026-04-30T14:43:20.999Z</time></trkpt><trkpt lat="50.05142476248997" lon="4.328500941442943"><ele>235.4</ele><time>2026-04-30T14:43:21.999Z</time></trkpt><trkpt lat="50.05138192320347" lon="4.328331903240095"><ele>234.8</ele><time>2026-04-30T14:43:22.999Z</time></trkpt><trkpt lat="50.05134769800029" lon="4.328173208575566"><ele>234.20000000000002</ele><time>2026-04-30T14:43:23.999Z</time></trkpt><trkpt lat="50.05133029236571" lon="4.328041631782691"><ele>233.60000000000002</ele><time>2026-04-30T14:43:24.999Z</time></trkpt><trkpt lat="50.0513016139267" lon="4.327944846057382"><ele>233.0</ele><time>2026-04-30T14:43:25.999Z</time></trkpt><trkpt lat="50.05132565738389" lon="4.327829680849319"><ele>233.0</ele><time>2026-04-30T14:43:27.998Z</time></trkpt><trkpt lat="50.05131963638394" lon="4.327654184833788"><ele>233.0</ele><time>2026-04-30T14:43:32.998Z</time></trkpt><trkpt lat="50.0512258138723" lon="4.327522986597844"><ele>233.0</ele><time>2026-04-30T14:43:33.998Z</time></trkpt><trkpt lat="50.05113328387192" lon="4.327396519476074"><ele>233.0</ele><time>2026-04-30T14:43:34.998Z</time></trkpt><trkpt lat="50.0510250291968" lon="4.327240667113479"><ele>233.0</ele><time>2026-04-30T14:43:35.998Z</time></trkpt><trkpt lat="50.05091276775999" lon="4.327071034543784"><ele>233.0</ele><time>2026-04-30T14:43:36.998Z</time></trkpt><trkpt lat="50.050803098303206" lon="4.326884366459424"><ele>233.0</ele><time>2026-04-30T14:43:37.998Z</time></trkpt><trkpt lat="50.05069937661509" lon="4.326700027549621"><ele>233.0</ele><time>2026-04-30T14:43:38.998Z</time></trkpt><trkpt lat="50.050615054750686" lon="4.326521346711163"><ele>233.0</ele><time>2026-04-30T14:43:39.998Z</time></trkpt><trkpt lat="50.05054116759201" lon="4.326327186767014"><ele>233.0</ele><time>2026-04-30T14:43:40.998Z</time></trkpt><trkpt lat="50.05044672724129" lon="4.3261417134940325"><ele>233.0</ele><time>2026-04-30T14:43:41.998Z</time></trkpt><trkpt lat="50.05031458722008" lon="4.326002828494403"><ele>233.0</ele><time>2026-04-30T14:43:42.998Z</time></trkpt><trkpt lat="50.05015868810612" lon="4.325899888504767"><ele>233.0</ele><time>2026-04-30T14:43:43.998Z</time></trkpt><trkpt lat="50.049978391834784" lon="4.325838015682683"><ele>233.0</ele><time>2026-04-30T14:43:45Z</time></trkpt><trkpt lat="50.0497800138679" lon="4.32576952824231"><ele>233.66666666666669</ele><time>2026-04-30T14:43:46Z</time></trkpt><trkpt lat="50.04958950306725" lon="4.325674953732811"><ele>234.33333333333331</ele><time>2026-04-30T14:43:47Z</time></trkpt><trkpt lat="50.04941159608418" lon="4.325546228420518"><ele>235.0</ele><time>2026-04-30T14:43:48Z</time></trkpt><trkpt lat="50.0492464554611" lon="4.325428345010104"><ele>236.0</ele><time>2026-04-30T14:43:49Z</time></trkpt><trkpt lat="50.04908159019499" lon="4.325320697718309"><ele>237.0</ele><time>2026-04-30T14:43:50Z</time></trkpt><trkpt lat="50.04892980699992" lon="4.325179743952297"><ele>238.0</ele><time>2026-04-30T14:43:51Z</time></trkpt><trkpt lat="50.04878456162303" lon="4.325027982540389"><ele>238.0</ele><time>2026-04-30T14:43:52Z</time></trkpt><trkpt lat="50.04865124526467" lon="4.324864811041907"><ele>238.0</ele><time>2026-04-30T14:43:53Z</time></trkpt><trkpt lat="50.04852241506544" lon="4.324700428035534"><ele>238.0</ele><time>2026-04-30T14:43:54Z</time></trkpt><trkpt lat="50.04840139356516" lon="4.324522730431311"><ele>241.0</ele><time>2026-04-30T14:43:55Z</time></trkpt><trkpt lat="50.04829036353164" lon="4.324333440907708"><ele>244.0</ele><time>2026-04-30T14:43:56Z</time></trkpt><trkpt lat="50.04817784184197" lon="4.324135182966985"><ele>247.0</ele><time>2026-04-30T14:43:57Z</time></trkpt><trkpt lat="50.0480732001445" lon="4.323935408472317"><ele>246.66666666666666</ele><time>2026-04-30T14:43:58Z</time></trkpt><trkpt lat="50.04797849228615" lon="4.323747174427514"><ele>246.33333333333331</ele><time>2026-04-30T14:43:59Z</time></trkpt><trkpt lat="50.047881746726695" lon="4.323567413377176"><ele>246.0</ele><time>2026-04-30T14:44:00Z</time></trkpt><trkpt lat="50.04778337849196" lon="4.323383903226478"><ele>246.0</ele><time>2026-04-30T14:44:01Z</time></trkpt><trkpt lat="50.04768449544609" lon="4.323195893485778"><ele>246.0</ele><time>2026-04-30T14:44:02Z</time></trkpt><trkpt lat="50.04759048793277" lon="4.323025171128483"><ele>246.0</ele><time>2026-04-30T14:44:03Z</time></trkpt><trkpt lat="50.047505900716544" lon="4.3228699145100045"><ele>246.0</ele><time>2026-04-30T14:44:04Z</time></trkpt><trkpt lat="50.04744005741513" lon="4.322745976932002"><ele>246.60000000000002</ele><time>2026-04-30T14:44:05Z</time></trkpt><trkpt lat="50.04738327704407" lon="4.3226402597919655"><ele>247.20000000000002</ele><time>2026-04-30T14:44:06Z</time></trkpt><trkpt lat="50.047338870317056" lon="4.322542779389832"><ele>247.79999999999998</ele><time>2026-04-30T14:44:07Z</time></trkpt><trkpt lat="50.04726356290318" lon="4.322418483560425"><ele>248.39999999999998</ele><time>2026-04-30T14:44:09Z</time></trkpt><trkpt lat="50.04721869524077" lon="4.322313329023811"><ele>249.0</ele><time>2026-04-30T14:44:11Z</time></trkpt><trkpt lat="50.04716203927854" lon="4.322197190352634"><ele>249.0</ele><time>2026-04-30T14:44:19Z</time></trkpt><trkpt lat="50.04707687105465" lon="4.32207861274664"><ele>248.99999999999997</ele><time>2026-04-30T14:44:21Z</time></trkpt><trkpt lat="50.04702399851134" lon="4.321987223867045"><ele>248.99999999999997</ele><time>2026-04-30T14:44:22Z</time></trkpt><trkpt lat="50.04698287543652" lon="4.3218621342287395"><ele>249.0</ele><time>2026-04-30T14:44:23Z</time></trkpt><trkpt lat="50.04692982906647" lon="4.321786592330988"><ele>249.0</ele><time>2026-04-30T14:44:24Z</time></trkpt><trkpt lat="50.04698362403313" lon="4.321598931140015"><ele>249.0</ele><time>2026-04-30T14:44:25Z</time></trkpt><trkpt lat="50.047019813014806" lon="4.321439333965257"><ele>248.99999999999997</ele><time>2026-04-30T14:44:26Z</time></trkpt><trkpt lat="50.04704556873671" lon="4.321276030843042"><ele>248.99999999999997</ele><time>2026-04-30T14:44:27Z</time></trkpt><trkpt lat="50.047067346612344" lon="4.321131892181112"><ele>249.0</ele><time>2026-04-30T14:44:28Z</time></trkpt><trkpt lat="50.0470918942697" lon="4.320969422465298"><ele>249.0</ele><time>2026-04-30T14:44:29Z</time></trkpt><trkpt lat="50.047063936117894" lon="4.320870363569781"><ele>249.16666666666666</ele><time>2026-04-30T14:44:31Z</time></trkpt><trkpt lat="50.04708261282719" lon="4.320746051064089"><ele>249.33333333333331</ele><time>2026-04-30T14:44:32Z</time></trkpt><trkpt lat="50.0471020508842" lon="4.320614437820549"><ele>249.5</ele><time>2026-04-30T14:44:33Z</time></trkpt><trkpt lat="50.0471200364963" lon="4.320481554608632"><ele>249.66666666666666</ele><time>2026-04-30T14:44:34Z</time></trkpt><trkpt lat="50.04713674170958" lon="4.320347894238855"><ele>249.83333333333331</ele><time>2026-04-30T14:44:35Z</time></trkpt><trkpt lat="50.047157293294525" lon="4.320220861386108"><ele>250.0</ele><time>2026-04-30T14:44:36Z</time></trkpt><trkpt lat="50.047172615219814" lon="4.320103127089747"><ele>250.0</ele><time>2026-04-30T14:44:37Z</time></trkpt><trkpt lat="50.047194430521365" lon="4.319970413085887"><ele>250.0</ele><time>2026-04-30T14:44:38.999Z</time></trkpt><trkpt lat="50.04720219000612" lon="4.319861726050408"><ele>250.0</ele><time>2026-04-30T14:44:41.999Z</time></trkpt><trkpt lat="50.04722130207769" lon="4.3197403258340925"><ele>250.0</ele><time>2026-04-30T14:44:43.999Z</time></trkpt><trkpt lat="50.047274166332194" lon="4.319465079687302"><ele>250.0</ele><time>2026-04-30T14:44:46.999Z</time></trkpt><trkpt lat="50.047308436191145" lon="4.319295576361705"><ele>249.8</ele><time>2026-04-30T14:44:48.999Z</time></trkpt><trkpt lat="50.04732277839882" lon="4.319170474913376"><ele>249.6</ele><time>2026-04-30T14:44:50.999Z</time></trkpt><trkpt lat="50.04733043823732" lon="4.319004477984553"><ele>249.39999999999998</ele><time>2026-04-30T14:44:52.999Z</time></trkpt><trkpt lat="50.04737897820056" lon="4.318840110435102"><ele>249.2</ele><time>2026-04-30T14:44:54.999Z</time></trkpt><trkpt lat="50.047461451792664" lon="4.318723703755358"><ele>249.0</ele><time>2026-04-30T14:44:56.999Z</time></trkpt><trkpt lat="50.04755486178221" lon="4.318634034721738"><ele>247.6</ele><time>2026-04-30T14:44:58.999Z</time></trkpt><trkpt lat="50.04763028065605" lon="4.318477699957258"><ele>246.2</ele><time>2026-04-30T14:45:00.999Z</time></trkpt><trkpt lat="50.04764762448123" lon="4.318377359239342"><ele>244.79999999999998</ele><time>2026-04-30T14:45:01.999Z</time></trkpt><trkpt lat="50.04760669604889" lon="4.318197049224168"><ele>243.39999999999998</ele><time>2026-04-30T14:45:03.999Z</time></trkpt><trkpt lat="50.047580484341914" lon="4.31810638397717"><ele>242.0</ele><time>2026-04-30T14:45:04.999Z</time></trkpt><trkpt lat="50.04752361690911" lon="4.317939715881782"><ele>242.0</ele><time>2026-04-30T14:45:06.999Z</time></trkpt><trkpt lat="50.047462603950294" lon="4.3177749762290425"><ele>242.0</ele><time>2026-04-30T14:45:08.999Z</time></trkpt><trkpt lat="50.047413396983266" lon="4.317598036316598"><ele>242.0</ele><time>2026-04-30T14:45:10.999Z</time></trkpt><trkpt lat="50.04734919184353" lon="4.317427489629177"><ele>242.0</ele><time>2026-04-30T14:45:12.999Z</time></trkpt><trkpt lat="50.047325873438986" lon="4.317334134578981"><ele>242.0</ele><time>2026-04-30T14:45:13.999Z</time></trkpt><trkpt lat="50.047334739311644" lon="4.317125020051229"><ele>242.00000000000003</ele><time>2026-04-30T14:45:15.999Z</time></trkpt><trkpt lat="50.04737532983718" lon="4.317018097721361"><ele>242.0</ele><time>2026-04-30T14:45:16.999Z</time></trkpt><trkpt lat="50.04742276158464" lon="4.3169072994516196"><ele>242.0</ele><time>2026-04-30T14:45:17.999Z</time></trkpt><trkpt lat="50.04746620297188" lon="4.31680345864671"><ele>242.0</ele><time>2026-04-30T14:45:18.999Z</time></trkpt><trkpt lat="50.04751594085723" lon="4.316684741150374"><ele>242.00000000000003</ele><time>2026-04-30T14:45:19.999Z</time></trkpt><trkpt lat="50.047563378581124" lon="4.316567220069453"><ele>242.0</ele><time>2026-04-30T14:45:20.999Z</time></trkpt><trkpt lat="50.04760978200881" lon="4.316440623341316"><ele>241.2</ele><time>2026-04-30T14:45:21.999Z</time></trkpt><trkpt lat="50.047647512203284" lon="4.316301929903159"><ele>240.39999999999998</ele><time>2026-04-30T14:45:22.999Z</time></trkpt><trkpt lat="50.0476796461284" lon="4.316152058408785"><ele>239.60000000000002</ele><time>2026-04-30T14:45:23.999Z</time></trkpt><trkpt lat="50.047706394846855" lon="4.315997637987494"><ele>238.8</ele><time>2026-04-30T14:45:24.999Z</time></trkpt><trkpt lat="50.04772857946979" lon="4.315862041781268"><ele>238.0</ele><time>2026-04-30T14:45:25.999Z</time></trkpt><trkpt lat="50.047737686051356" lon="4.3157323407180295"><ele>237.99999999999997</ele><time>2026-04-30T14:45:26.999Z</time></trkpt><trkpt lat="50.04774341604593" lon="4.3156235618964045"><ele>238.0</ele><time>2026-04-30T14:45:27.999Z</time></trkpt><trkpt lat="50.0477272297089" lon="4.315472179348787"><ele>238.0</ele><time>2026-04-30T14:45:29.999Z</time></trkpt><trkpt lat="50.04769992276326" lon="4.3153808386612065"><ele>238.0</ele><time>2026-04-30T14:45:31.999Z</time></trkpt><trkpt lat="50.04767078346126" lon="4.315263936711683"><ele>237.99999999999997</ele><time>2026-04-30T14:45:34.999Z</time></trkpt><trkpt lat="50.04764889310049" lon="4.315122173904423"><ele>238.0</ele><time>2026-04-30T14:45:37.999Z</time></trkpt><trkpt lat="50.04766462134946" lon="4.314980047464753"><ele>237.49999999999997</ele><time>2026-04-30T14:45:41.999Z</time></trkpt><trkpt lat="50.04770362117615" lon="4.314813427186827"><ele>237.0</ele><time>2026-04-30T14:45:43.999Z</time></trkpt><trkpt lat="50.0476959272127" lon="4.314614991726718"><ele>236.5</ele><time>2026-04-30T14:45:45.999Z</time></trkpt><trkpt lat="50.04767323781311" lon="4.314508919367359"><ele>236.0</ele><time>2026-04-30T14:45:46.998Z</time></trkpt><trkpt lat="50.04766095041183" lon="4.3144118708729255"><ele>235.49999999999997</ele><time>2026-04-30T14:45:47.998Z</time></trkpt><trkpt lat="50.047607460584395" lon="4.31434937014269"><ele>235.0</ele><time>2026-04-30T14:45:48.998Z</time></trkpt><trkpt lat="50.04756489472822" lon="4.314274958222142"><ele>234.99999999999997</ele><time>2026-04-30T14:45:49.998Z</time></trkpt><trkpt lat="50.04751149109879" lon="4.314098086468652"><ele>235.0</ele><time>2026-04-30T14:45:52Z</time></trkpt><trkpt lat="50.04748330752107" lon="4.313993442393177"><ele>235.0</ele><time>2026-04-30T14:45:53Z</time></trkpt><trkpt lat="50.04746266476594" lon="4.313890991050757"><ele>235.0</ele><time>2026-04-30T14:45:54Z</time></trkpt><trkpt lat="50.047441792943815" lon="4.31378186520478"><ele>234.99999999999997</ele><time>2026-04-30T14:45:55Z</time></trkpt><trkpt lat="50.04742383105035" lon="4.313673406680769"><ele>235.0</ele><time>2026-04-30T14:45:56Z</time></trkpt><trkpt lat="50.04740063862104" lon="4.313566917947727"><ele>235.0</ele><time>2026-04-30T14:45:57Z</time></trkpt><trkpt lat="50.04738284353108" lon="4.313467696904988"><ele>235.0</ele><time>2026-04-30T14:45:58Z</time></trkpt><trkpt lat="50.0473609489017" lon="4.313357048043618"><ele>235.0</ele><time>2026-04-30T14:46:00Z</time></trkpt><trkpt lat="50.04733062612615" lon="4.313220304850677"><ele>235.0</ele><time>2026-04-30T14:46:03Z</time></trkpt><trkpt lat="50.04729732275795" lon="4.313025701033251"><ele>235.0</ele><time>2026-04-30T14:46:05Z</time></trkpt><trkpt lat="50.047267578951136" lon="4.312897767562597"><ele>234.49999999999997</ele><time>2026-04-30T14:46:06Z</time></trkpt><trkpt lat="50.04724481981911" lon="4.31276806595845"><ele>234.0</ele><time>2026-04-30T14:46:07Z</time></trkpt><trkpt lat="50.04721234178117" lon="4.312627082824957"><ele>233.5</ele><time>2026-04-30T14:46:08Z</time></trkpt><trkpt lat="50.04718576382117" lon="4.312499034078642"><ele>233.0</ele><time>2026-04-30T14:46:09Z</time></trkpt><trkpt lat="50.047160921921424" lon="4.312386678013918"><ele>232.49999999999997</ele><time>2026-04-30T14:46:10Z</time></trkpt><trkpt lat="50.04713433320043" lon="4.312279650374927"><ele>232.0</ele><time>2026-04-30T14:46:11Z</time></trkpt><trkpt lat="50.04711091813612" lon="4.3121782819705246"><ele>231.2</ele><time>2026-04-30T14:46:12Z</time></trkpt><trkpt lat="50.04708930522714" lon="4.312082204164224"><ele>230.39999999999998</ele><time>2026-04-30T14:46:13Z</time></trkpt><trkpt lat="50.04703921360837" lon="4.311854555201365"><ele>229.60000000000002</ele><time>2026-04-30T14:46:15Z</time></trkpt><trkpt lat="50.04701645838679" lon="4.311731984887759"><ele>228.8</ele><time>2026-04-30T14:46:16Z</time></trkpt><trkpt lat="50.047005196401884" lon="4.311606410063404"><ele>228.0</ele><time>2026-04-30T14:46:17Z</time></trkpt><trkpt lat="50.04702041889736" lon="4.311494548691383"><ele>227.4</ele><time>2026-04-30T14:46:18Z</time></trkpt><trkpt lat="50.04705591752658" lon="4.311378816939326"><ele>226.8</ele><time>2026-04-30T14:46:19Z</time></trkpt><trkpt lat="50.047110976055215" lon="4.311268771241622"><ele>226.2</ele><time>2026-04-30T14:46:20Z</time></trkpt><trkpt lat="50.04718498512835" lon="4.311164463427556"><ele>225.6</ele><time>2026-04-30T14:46:21Z</time></trkpt><trkpt lat="50.04729517789119" lon="4.311082463502521"><ele>225.0</ele><time>2026-04-30T14:46:22Z</time></trkpt><trkpt lat="50.04741954739332" lon="4.310989906830933"><ele>224.0</ele><time>2026-04-30T14:46:23Z</time></trkpt><trkpt lat="50.047546459991906" lon="4.310890881198349"><ele>223.0</ele><time>2026-04-30T14:46:24Z</time></trkpt><trkpt lat="50.04766364763553" lon="4.310790851330007"><ele>222.0</ele><time>2026-04-30T14:46:25Z</time></trkpt><trkpt lat="50.0477719222733" lon="4.310698804150323"><ele>221.0</ele><time>2026-04-30T14:46:26Z</time></trkpt><trkpt lat="50.04788410711299" lon="4.310605749176314"><ele>220.60000000000002</ele><time>2026-04-30T14:46:27Z</time></trkpt><trkpt lat="50.04798525590678" lon="4.310514648293457"><ele>220.20000000000002</ele><time>2026-04-30T14:46:28Z</time></trkpt><trkpt lat="50.04807414868941" lon="4.310447750730844"><ele>219.79999999999998</ele><time>2026-04-30T14:46:29Z</time></trkpt><trkpt lat="50.04814782468668" lon="4.310391353677669"><ele>219.39999999999998</ele><time>2026-04-30T14:46:30Z</time></trkpt><trkpt lat="50.04821660167867" lon="4.310333041218112"><ele>219.0</ele><time>2026-04-30T14:46:31Z</time></trkpt><trkpt lat="50.04828679243865" lon="4.310275905100117"><ele>220.79999999999998</ele><time>2026-04-30T14:46:32Z</time></trkpt><trkpt lat="50.04836103519631" lon="4.310217416690696"><ele>222.59999999999997</ele><time>2026-04-30T14:46:33Z</time></trkpt><trkpt lat="50.04844192615622" lon="4.310165389428737"><ele>224.4</ele><time>2026-04-30T14:46:34Z</time></trkpt><trkpt lat="50.04852689413437" lon="4.310112052547685"><ele>226.2</ele><time>2026-04-30T14:46:35Z</time></trkpt><trkpt lat="50.048629211082655" lon="4.3100667654553515"><ele>228.0</ele><time>2026-04-30T14:46:36Z</time></trkpt><trkpt lat="50.04873746767491" lon="4.31003301226689"><ele>228.0</ele><time>2026-04-30T14:46:37Z</time></trkpt><trkpt lat="50.048840851107286" lon="4.309986716706153"><ele>228.0</ele><time>2026-04-30T14:46:38Z</time></trkpt><trkpt lat="50.048933511415896" lon="4.309941643520682"><ele>228.0</ele><time>2026-04-30T14:46:39Z</time></trkpt><trkpt lat="50.04902269815835" lon="4.309905794432384"><ele>228.0</ele><time>2026-04-30T14:46:40Z</time></trkpt><trkpt lat="50.04911495036182" lon="4.309865386425629"><ele>228.0</ele><time>2026-04-30T14:46:41Z</time></trkpt><trkpt lat="50.04920625886627" lon="4.309821411060996"><ele>228.33333333333334</ele><time>2026-04-30T14:46:42Z</time></trkpt><trkpt lat="50.049295346525334" lon="4.30978694261817"><ele>228.66666666666669</ele><time>2026-04-30T14:46:43Z</time></trkpt><trkpt lat="50.049377975024136" lon="4.309751911602366"><ele>229.0</ele><time>2026-04-30T14:46:44Z</time></trkpt><trkpt lat="50.049455667034934" lon="4.309727152775626"><ele>229.33333333333334</ele><time>2026-04-30T14:46:45Z</time></trkpt><trkpt lat="50.04953294026152" lon="4.30972351216729"><ele>229.66666666666669</ele><time>2026-04-30T14:46:46Z</time></trkpt><trkpt lat="50.04960724202673" lon="4.3097340939615165"><ele>230.0</ele><time>2026-04-30T14:46:47Z</time></trkpt><trkpt lat="50.04968553256504" lon="4.309756404206061"><ele>230.0</ele><time>2026-04-30T14:46:48Z</time></trkpt><trkpt lat="50.04975631455234" lon="4.3097758478853665"><ele>230.0</ele><time>2026-04-30T14:46:49Z</time></trkpt><trkpt lat="50.04982371853097" lon="4.309801789227833"><ele>230.0</ele><time>2026-04-30T14:46:50Z</time></trkpt><trkpt lat="50.049881207631884" lon="4.30984280604034"><ele>230.0</ele><time>2026-04-30T14:46:51Z</time></trkpt><trkpt lat="50.04998996243465" lon="4.309584310353351"><ele>230.0</ele><time>2026-04-30T14:46:53Z</time></trkpt><trkpt lat="50.05002405500207" lon="4.309451022369336"><ele>231.75</ele><time>2026-04-30T14:46:54Z</time></trkpt><trkpt lat="50.0500653122357" lon="4.309297852274631"><ele>233.5</ele><time>2026-04-30T14:46:55Z</time></trkpt><trkpt lat="50.050110383312095" lon="4.309117420408764"><ele>235.25</ele><time>2026-04-30T14:46:56Z</time></trkpt><trkpt lat="50.05016123623893" lon="4.308914599961758"><ele>237.0</ele><time>2026-04-30T14:46:57Z</time></trkpt><trkpt lat="50.05020807939379" lon="4.308691834423679"><ele>237.66666666666669</ele><time>2026-04-30T14:46:58Z</time></trkpt><trkpt lat="50.05024205292018" lon="4.308464126226539"><ele>238.33333333333334</ele><time>2026-04-30T14:46:58.999Z</time></trkpt><trkpt lat="50.050257567439786" lon="4.308208603023299"><ele>239.0</ele><time>2026-04-30T14:46:59.999Z</time></trkpt><trkpt lat="50.050258188447906" lon="4.307918462153403"><ele>239.0</ele><time>2026-04-30T14:47:00.999Z</time></trkpt><trkpt lat="50.05025327157037" lon="4.307600226542084"><ele>239.0</ele><time>2026-04-30T14:47:01.999Z</time></trkpt><trkpt lat="50.05025311820117" lon="4.307311177590415"><ele>239.0</ele><time>2026-04-30T14:47:02.999Z</time></trkpt><trkpt lat="50.0502553999513" lon="4.307051547156026"><ele>239.0</ele><time>2026-04-30T14:47:03.999Z</time></trkpt><trkpt lat="50.05025124138082" lon="4.3067855075665324"><ele>239.0</ele><time>2026-04-30T14:47:04.999Z</time></trkpt><trkpt lat="50.05025940567627" lon="4.306524345547496"><ele>239.0</ele><time>2026-04-30T14:47:05.999Z</time></trkpt><trkpt lat="50.050300317316996" lon="4.306266785752798"><ele>239.66666666666669</ele><time>2026-04-30T14:47:06.999Z</time></trkpt><trkpt lat="50.05036526589705" lon="4.305993202886666"><ele>240.33333333333331</ele><time>2026-04-30T14:47:07.999Z</time></trkpt><trkpt lat="50.0504446426242" lon="4.305708341049302"><ele>241.0</ele><time>2026-04-30T14:47:08.999Z</time></trkpt><trkpt lat="50.05053422947624" lon="4.305404453753551"><ele>241.5</ele><time>2026-04-30T14:47:09.999Z</time></trkpt><trkpt lat="50.050630998865884" lon="4.305083242593587"><ele>242.0</ele><time>2026-04-30T14:47:10.999Z</time></trkpt><trkpt lat="50.050731823585366" lon="4.304747260278117"><ele>243.5</ele><time>2026-04-30T14:47:11.999Z</time></trkpt><trkpt lat="50.05083114406385" lon="4.304396167646725"><ele>245.0</ele><time>2026-04-30T14:47:12.999Z</time></trkpt><trkpt lat="50.05093537082178" lon="4.304034055393654"><ele>245.5</ele><time>2026-04-30T14:47:13.999Z</time></trkpt><trkpt lat="50.051046476012345" lon="4.303654900408463"><ele>246.0</ele><time>2026-04-30T14:47:14.999Z</time></trkpt><trkpt lat="50.05114990624476" lon="4.303299179654964"><ele>245.5</ele><time>2026-04-30T14:47:15.999Z</time></trkpt><trkpt lat="50.051247328968735" lon="4.302944910232579"><ele>245.0</ele><time>2026-04-30T14:47:16.999Z</time></trkpt><trkpt lat="50.051348408955924" lon="4.302592573458596"><ele>245.0</ele><time>2026-04-30T14:47:17.999Z</time></trkpt><trkpt lat="50.051449029327536" lon="4.302257261928341"><ele>245.0</ele><time>2026-04-30T14:47:18.999Z</time></trkpt><trkpt lat="50.0515418159092" lon="4.301938557330733"><ele>245.0</ele><time>2026-04-30T14:47:19.999Z</time></trkpt><trkpt lat="50.05163168806029" lon="4.301626281006578"><ele>245.0</ele><time>2026-04-30T14:47:20.999Z</time></trkpt><trkpt lat="50.05172055411734" lon="4.301318128661552"><ele>245.0</ele><time>2026-04-30T14:47:21.999Z</time></trkpt><trkpt lat="50.051803146368144" lon="4.301011803418889"><ele>245.0</ele><time>2026-04-30T14:47:22.999Z</time></trkpt><trkpt lat="50.05187807387731" lon="4.300706407882975"><ele>245.0</ele><time>2026-04-30T14:47:23.999Z</time></trkpt><trkpt lat="50.05195365285452" lon="4.300352434537614"><ele>245.0</ele><time>2026-04-30T14:47:24.999Z</time></trkpt><trkpt lat="50.05202298674804" lon="4.300022133613634"><ele>245.0</ele><time>2026-04-30T14:47:25.999Z</time></trkpt><trkpt lat="50.052095508645635" lon="4.299681017199417"><ele>245.0</ele><time>2026-04-30T14:47:26.999Z</time></trkpt><trkpt lat="50.0521631571062" lon="4.299347310577381"><ele>245.0</ele><time>2026-04-30T14:47:27.999Z</time></trkpt><trkpt lat="50.052227578736684" lon="4.2990256534693625"><ele>245.0</ele><time>2026-04-30T14:47:28.999Z</time></trkpt><trkpt lat="50.0522825621358" lon="4.298768130212843"><ele>245.0</ele><time>2026-04-30T14:47:29.999Z</time></trkpt><trkpt lat="50.0523341703583" lon="4.298505064390674"><ele>245.33333333333334</ele><time>2026-04-30T14:47:30.999Z</time></trkpt><trkpt lat="50.052389027939654" lon="4.2982522760680295"><ele>245.66666666666669</ele><time>2026-04-30T14:47:31.999Z</time></trkpt><trkpt lat="50.05244145212737" lon="4.297995680462731"><ele>246.0</ele><time>2026-04-30T14:47:32.998Z</time></trkpt><trkpt lat="50.05249505767665" lon="4.297741947563779"><ele>246.33333333333331</ele><time>2026-04-30T14:47:33.998Z</time></trkpt><trkpt lat="50.05254874655233" lon="4.297493170032738"><ele>246.66666666666666</ele><time>2026-04-30T14:47:34.998Z</time></trkpt><trkpt lat="50.052597441332395" lon="4.297264575535697"><ele>247.0</ele><time>2026-04-30T14:47:35.998Z</time></trkpt><trkpt lat="50.05264418098989" lon="4.297051528535415"><ele>247.0</ele><time>2026-04-30T14:47:36.998Z</time></trkpt><trkpt lat="50.05268483290795" lon="4.296858409874543"><ele>247.0</ele><time>2026-04-30T14:47:37.998Z</time></trkpt><trkpt lat="50.05273113924274" lon="4.296684974875011"><ele>247.0</ele><time>2026-04-30T14:47:38.998Z</time></trkpt><trkpt lat="50.0527885657933" lon="4.296546118802564"><ele>247.0</ele><time>2026-04-30T14:47:39.998Z</time></trkpt><trkpt lat="50.05285522327861" lon="4.296441936070432"><ele>247.33333333333331</ele><time>2026-04-30T14:47:40.998Z</time></trkpt><trkpt lat="50.05289128820694" lon="4.296336600035453"><ele>247.66666666666666</ele><time>2026-04-30T14:47:41.998Z</time></trkpt><trkpt lat="50.052929262041" lon="4.296236489256488"><ele>248.0</ele><time>2026-04-30T14:47:42.998Z</time></trkpt><trkpt lat="50.05297241855617" lon="4.296122715319217"><ele>248.33333333333331</ele><time>2026-04-30T14:47:43.998Z</time></trkpt><trkpt lat="50.0530188855422" lon="4.296000213958329"><ele>248.66666666666666</ele><time>2026-04-30T14:47:44.998Z</time></trkpt><trkpt lat="50.05310140991146" lon="4.295941540668102"><ele>249.0</ele><time>2026-04-30T14:47:45.998Z</time></trkpt><trkpt lat="50.05305017717328" lon="4.2958108344453745"><ele>249.0</ele><time>2026-04-30T14:47:46.998Z</time></trkpt><trkpt lat="50.053000884731325" lon="4.295670818406978"><ele>249.0</ele><time>2026-04-30T14:47:47.998Z</time></trkpt><trkpt lat="50.05298622687538" lon="4.295500602866307"><ele>249.0</ele><time>2026-04-30T14:47:48.998Z</time></trkpt><trkpt lat="50.053005886581786" lon="4.295295549430954"><ele>249.0</ele><time>2026-04-30T14:47:49.998Z</time></trkpt><trkpt lat="50.0530441172371" lon="4.2950583581132875"><ele>249.33333333333331</ele><time>2026-04-30T14:47:50.998Z</time></trkpt><trkpt lat="50.05307695973299" lon="4.294826386615937"><ele>249.66666666666666</ele><time>2026-04-30T14:47:51.998Z</time></trkpt><trkpt lat="50.053119184049564" lon="4.2945053467685685"><ele>250.0</ele><time>2026-04-30T14:47:52.998Z</time></trkpt><trkpt lat="50.0531625286372" lon="4.294149180303303"><ele>250.5</ele><time>2026-04-30T14:47:53.998Z</time></trkpt><trkpt lat="50.05321275555345" lon="4.293765435673236"><ele>251.0</ele><time>2026-04-30T14:47:54.998Z</time></trkpt><trkpt lat="50.053265629016515" lon="4.293357982355669"><ele>251.0</ele><time>2026-04-30T14:47:55.998Z</time></trkpt><trkpt lat="50.05332074118466" lon="4.292919647445392"><ele>251.0</ele><time>2026-04-30T14:47:56.999Z</time></trkpt><trkpt lat="50.05337377580163" lon="4.292455252117623"><ele>251.0</ele><time>2026-04-30T14:47:57.999Z</time></trkpt><trkpt lat="50.05342961489896" lon="4.29199917229536"><ele>251.0</ele><time>2026-04-30T14:47:58.999Z</time></trkpt><trkpt lat="50.05348444590289" lon="4.291558757138447"><ele>251.5</ele><time>2026-04-30T14:47:59.999Z</time></trkpt><trkpt lat="50.053541757331246" lon="4.2911194247178415"><ele>252.0</ele><time>2026-04-30T14:48:00.999Z</time></trkpt><trkpt lat="50.05359410491198" lon="4.290670504868723"><ele>253.0</ele><time>2026-04-30T14:48:01.999Z</time></trkpt><trkpt lat="50.053653043643806" lon="4.290215084651477"><ele>254.0</ele><time>2026-04-30T14:48:02.999Z</time></trkpt><trkpt lat="50.05370875361216" lon="4.289761500669551"><ele>254.0</ele><time>2026-04-30T14:48:03.999Z</time></trkpt><trkpt lat="50.05377130361304" lon="4.289292318978927"><ele>254.0</ele><time>2026-04-30T14:48:04.999Z</time></trkpt><trkpt lat="50.05383642200319" lon="4.288803903353166"><ele>254.0</ele><time>2026-04-30T14:48:05.999Z</time></trkpt><trkpt lat="50.053903433162745" lon="4.28830003665031"><ele>254.0</ele><time>2026-04-30T14:48:06.999Z</time></trkpt><trkpt lat="50.05397504040176" lon="4.287784257017036"><ele>253.5</ele><time>2026-04-30T14:48:07.999Z</time></trkpt><trkpt lat="50.05404953576414" lon="4.287275989528468"><ele>253.0</ele><time>2026-04-30T14:48:08.999Z</time></trkpt><trkpt lat="50.05412648568308" lon="4.286781849247369"><ele>253.0</ele><time>2026-04-30T14:48:09.999Z</time></trkpt><trkpt lat="50.05420510190479" lon="4.286287806825129"><ele>253.0</ele><time>2026-04-30T14:48:10.999Z</time></trkpt><trkpt lat="50.054280138088664" lon="4.285786917498489"><ele>253.0</ele><time>2026-04-30T14:48:11.999Z</time></trkpt><trkpt lat="50.054357528613934" lon="4.285284172035473"><ele>253.0</ele><time>2026-04-30T14:48:12.999Z</time></trkpt><trkpt lat="50.05443596618017" lon="4.284778452055136"><ele>253.0</ele><time>2026-04-30T14:48:13.999Z</time></trkpt><trkpt lat="50.05451663257495" lon="4.284273917598684"><ele>253.0</ele><time>2026-04-30T14:48:14.999Z</time></trkpt><trkpt lat="50.05459316755792" lon="4.283775136329168"><ele>253.5</ele><time>2026-04-30T14:48:15.999Z</time></trkpt><trkpt lat="50.0546672027375" lon="4.283280231846895"><ele>254.0</ele><time>2026-04-30T14:48:16.999Z</time></trkpt><trkpt lat="50.05474151774236" lon="4.282785583987808"><ele>255.0</ele><time>2026-04-30T14:48:17.999Z</time></trkpt><trkpt lat="50.054815896207955" lon="4.28228891587579"><ele>256.0</ele><time>2026-04-30T14:48:18.999Z</time></trkpt><trkpt lat="50.05489222533734" lon="4.281788302555499"><ele>256.0</ele><time>2026-04-30T14:48:19.999Z</time></trkpt><trkpt lat="50.054971946163" lon="4.281286223969188"><ele>256.0</ele><time>2026-04-30T14:48:20.999Z</time></trkpt><trkpt lat="50.05504992364191" lon="4.280775684921868"><ele>256.5</ele><time>2026-04-30T14:48:21.999Z</time></trkpt><trkpt lat="50.05512778030976" lon="4.280264183111261"><ele>257.0</ele><time>2026-04-30T14:48:22.999Z</time></trkpt><trkpt lat="50.0552075154877" lon="4.279755524675011"><ele>257.5</ele><time>2026-04-30T14:48:23.999Z</time></trkpt><trkpt lat="50.05528490337758" lon="4.279250730266478"><ele>258.0</ele><time>2026-04-30T14:48:24.999Z</time></trkpt><trkpt lat="50.05536411172994" lon="4.2787468229933925"><ele>258.0</ele><time>2026-04-30T14:48:25.999Z</time></trkpt><trkpt lat="50.05544232973558" lon="4.278239842430115"><ele>258.0</ele><time>2026-04-30T14:48:26.999Z</time></trkpt><trkpt lat="50.05551800189004" lon="4.277747861168872"><ele>258.5</ele><time>2026-04-30T14:48:27.999Z</time></trkpt><trkpt lat="50.05558884193721" lon="4.277284938694547"><ele>259.0</ele><time>2026-04-30T14:48:28.999Z</time></trkpt><trkpt lat="50.05565563563225" lon="4.27684613180761"><ele>259.5</ele><time>2026-04-30T14:48:29.999Z</time></trkpt><trkpt lat="50.05571647369547" lon="4.2764208814558735"><ele>260.0</ele><time>2026-04-30T14:48:30.999Z</time></trkpt><trkpt lat="50.055786218663215" lon="4.275999426575718"><ele>260.5</ele><time>2026-04-30T14:48:31.999Z</time></trkpt><trkpt lat="50.05586242862052" lon="4.275574510468207"><ele>261.0</ele><time>2026-04-30T14:48:32.999Z</time></trkpt><trkpt lat="50.055960164773815" lon="4.275156292738966"><ele>261.5</ele><time>2026-04-30T14:48:33.999Z</time></trkpt><trkpt lat="50.05607784072538" lon="4.2747434543531995"><ele>262.0</ele><time>2026-04-30T14:48:34.999Z</time></trkpt><trkpt lat="50.056197994381876" lon="4.274313042796584"><ele>262.5</ele><time>2026-04-30T14:48:35.999Z</time></trkpt><trkpt lat="50.056316501511205" lon="4.273863677897198"><ele>263.0</ele><time>2026-04-30T14:48:36.999Z</time></trkpt><trkpt lat="50.05643836534985" lon="4.273404843097587"><ele>263.0</ele><time>2026-04-30T14:48:37.999Z</time></trkpt><trkpt lat="50.05655697681898" lon="4.272958436584414"><ele>263.0</ele><time>2026-04-30T14:48:38.999Z</time></trkpt><trkpt lat="50.05666542104072" lon="4.272537592570964"><ele>263.0</ele><time>2026-04-30T14:48:39.999Z</time></trkpt><trkpt lat="50.056771650332216" lon="4.272129465108675"><ele>263.0</ele><time>2026-04-30T14:48:40.999Z</time></trkpt><trkpt lat="50.05687952866862" lon="4.271721732449299"><ele>262.5</ele><time>2026-04-30T14:48:41.999Z</time></trkpt><trkpt lat="50.05698793397375" lon="4.271307859688228"><ele>262.0</ele><time>2026-04-30T14:48:42.999Z</time></trkpt><trkpt lat="50.05709575225397" lon="4.270883458328939"><ele>261.0</ele><time>2026-04-30T14:48:43.999Z</time></trkpt><trkpt lat="50.05720849097515" lon="4.270451575889769"><ele>260.0</ele><time>2026-04-30T14:48:44.999Z</time></trkpt><trkpt lat="50.0573256581958" lon="4.270013409564088"><ele>260.0</ele><time>2026-04-30T14:48:45.999Z</time></trkpt><trkpt lat="50.05744107458222" lon="4.269577224196447"><ele>260.0</ele><time>2026-04-30T14:48:46.999Z</time></trkpt><trkpt lat="50.05755581981756" lon="4.269165548315848"><ele>260.0</ele><time>2026-04-30T14:48:47.999Z</time></trkpt><trkpt lat="50.05765822802451" lon="4.268775716633804"><ele>260.0</ele><time>2026-04-30T14:48:48.999Z</time></trkpt><trkpt lat="50.0577612198467" lon="4.268387195566425"><ele>259.0</ele><time>2026-04-30T14:48:49.999Z</time></trkpt><trkpt lat="50.05786237154709" lon="4.26800793306532"><ele>258.0</ele><time>2026-04-30T14:48:50.999Z</time></trkpt><trkpt lat="50.057961087932874" lon="4.2676361420068245"><ele>258.0</ele><time>2026-04-30T14:48:51.999Z</time></trkpt><trkpt lat="50.058047677743424" lon="4.26726739765541"><ele>258.0</ele><time>2026-04-30T14:48:52.999Z</time></trkpt><trkpt lat="50.0581190668394" lon="4.266886626010582"><ele>258.0</ele><time>2026-04-30T14:48:53.999Z</time></trkpt><trkpt lat="50.05817164184197" lon="4.266493489268943"><ele>258.0</ele><time>2026-04-30T14:48:54.999Z</time></trkpt><trkpt lat="50.05820651644401" lon="4.2660869267411154"><ele>257.5</ele><time>2026-04-30T14:48:55.999Z</time></trkpt><trkpt lat="50.05821831751723" lon="4.265672942228186"><ele>257.0</ele><time>2026-04-30T14:48:56.999Z</time></trkpt><trkpt lat="50.058211892991416" lon="4.2652512806435965"><ele>257.0</ele><time>2026-04-30T14:48:57.999Z</time></trkpt><trkpt lat="50.05817379779643" lon="4.264835852767903"><ele>257.0</ele><time>2026-04-30T14:48:58.999Z</time></trkpt><trkpt lat="50.058119663371514" lon="4.264419231760034"><ele>257.0</ele><time>2026-04-30T14:48:59.999Z</time></trkpt><trkpt lat="50.058042616742064" lon="4.26400438236019"><ele>257.0</ele><time>2026-04-30T14:49:00.999Z</time></trkpt><trkpt lat="50.057951226933426" lon="4.263593761297173"><ele>257.0</ele><time>2026-04-30T14:49:01.999Z</time></trkpt><trkpt lat="50.05784534530141" lon="4.263181370189066"><ele>257.0</ele><time>2026-04-30T14:49:02.999Z</time></trkpt><trkpt lat="50.05773319568335" lon="4.2627729645503285"><ele>257.0</ele><time>2026-04-30T14:49:03.999Z</time></trkpt><trkpt lat="50.057628241249205" lon="4.262370833723786"><ele>257.0</ele><time>2026-04-30T14:49:04.999Z</time></trkpt><trkpt lat="50.05752781100716" lon="4.26197411253604"><ele>257.5</ele><time>2026-04-30T14:49:05.999Z</time></trkpt><trkpt lat="50.057429766374256" lon="4.261575667945516"><ele>258.0</ele><time>2026-04-30T14:49:06.999Z</time></trkpt><trkpt lat="50.05733326317681" lon="4.261174538848834"><ele>258.5</ele><time>2026-04-30T14:49:07.999Z</time></trkpt><trkpt lat="50.05723721580481" lon="4.260774732570358"><ele>259.0</ele><time>2026-04-30T14:49:08.999Z</time></trkpt><trkpt lat="50.05714274441636" lon="4.260366570877391"><ele>260.0</ele><time>2026-04-30T14:49:09.999Z</time></trkpt><trkpt lat="50.05706410791102" lon="4.259965426457561"><ele>261.0</ele><time>2026-04-30T14:49:10.999Z</time></trkpt><trkpt lat="50.05700163250061" lon="4.259568185384406"><ele>261.5</ele><time>2026-04-30T14:49:11.999Z</time></trkpt><trkpt lat="50.05695101118264" lon="4.2591700613859915"><ele>262.0</ele><time>2026-04-30T14:49:12.999Z</time></trkpt><trkpt lat="50.05690438733422" lon="4.258774175441886"><ele>262.0</ele><time>2026-04-30T14:49:13.999Z</time></trkpt><trkpt lat="50.05686331596714" lon="4.258372025099201"><ele>262.0</ele><time>2026-04-30T14:49:14.999Z</time></trkpt><trkpt lat="50.05683178173769" lon="4.257967466785968"><ele>262.0</ele><time>2026-04-30T14:49:15.999Z</time></trkpt><trkpt lat="50.05680661940585" lon="4.257555736033319"><ele>262.0</ele><time>2026-04-30T14:49:16.999Z</time></trkpt><trkpt lat="50.05678808080913" lon="4.25713188803092"><ele>262.5</ele><time>2026-04-30T14:49:17.998Z</time></trkpt><trkpt lat="50.05677183467357" lon="4.256705206673095"><ele>263.0</ele><time>2026-04-30T14:49:18.998Z</time></trkpt><trkpt lat="50.05675532428048" lon="4.256296659685292"><ele>263.0</ele><time>2026-04-30T14:49:19.998Z</time></trkpt><trkpt lat="50.05674142538384" lon="4.255917485796621"><ele>263.0</ele><time>2026-04-30T14:49:20.998Z</time></trkpt><trkpt lat="50.05672501307916" lon="4.255546747120169"><ele>261.0</ele><time>2026-04-30T14:49:21.998Z</time></trkpt><trkpt lat="50.05670852305788" lon="4.255176986243595"><ele>259.0</ele><time>2026-04-30T14:49:22.998Z</time></trkpt><trkpt lat="50.05669309844935" lon="4.254801531179548"><ele>258.66666666666663</ele><time>2026-04-30T14:49:23.998Z</time></trkpt><trkpt lat="50.05667834125999" lon="4.254445628903951"><ele>258.3333333333333</ele><time>2026-04-30T14:49:24.998Z</time></trkpt><trkpt lat="50.05666591107578" lon="4.254115153936053"><ele>258.0</ele><time>2026-04-30T14:49:25.998Z</time></trkpt><trkpt lat="50.05665728855077" lon="4.253813335599365"><ele>257.6666666666667</ele><time>2026-04-30T14:49:26.998Z</time></trkpt><trkpt lat="50.056649553514916" lon="4.253536697811691"><ele>257.33333333333337</ele><time>2026-04-30T14:49:27.998Z</time></trkpt><trkpt lat="50.056642325914495" lon="4.253265108034711"><ele>257.0</ele><time>2026-04-30T14:49:28.998Z</time></trkpt><trkpt lat="50.05663573864752" lon="4.253010324331188"><ele>257.0</ele><time>2026-04-30T14:49:29.998Z</time></trkpt><trkpt lat="50.05663156637701" lon="4.252766311676559"><ele>257.0</ele><time>2026-04-30T14:49:30.998Z</time></trkpt><trkpt lat="50.056628357698834" lon="4.2525205036731215"><ele>257.0</ele><time>2026-04-30T14:49:31.998Z</time></trkpt><trkpt lat="50.05662726106516" lon="4.252260289289342"><ele>255.0</ele><time>2026-04-30T14:49:32.998Z</time></trkpt><trkpt lat="50.05661745242553" lon="4.251980176188913"><ele>253.0</ele><time>2026-04-30T14:49:33.998Z</time></trkpt><trkpt lat="50.05660912850387" lon="4.251694759790271"><ele>251.0</ele><time>2026-04-30T14:49:34.998Z</time></trkpt><trkpt lat="50.056597925727466" lon="4.251413851430781"><ele>251.0</ele><time>2026-04-30T14:49:35.998Z</time></trkpt><trkpt lat="50.05658926297968" lon="4.251133288862813"><ele>251.0</ele><time>2026-04-30T14:49:36.998Z</time></trkpt><trkpt lat="50.05658538723242" lon="4.250843743276426"><ele>251.0</ele><time>2026-04-30T14:49:37.998Z</time></trkpt><trkpt lat="50.056582666256105" lon="4.250546347817679"><ele>251.33333333333334</ele><time>2026-04-30T14:49:38.998Z</time></trkpt><trkpt lat="50.05657690666599" lon="4.250257884309694"><ele>251.66666666666669</ele><time>2026-04-30T14:49:39.998Z</time></trkpt><trkpt lat="50.05656954168286" lon="4.249973173836582"><ele>252.0</ele><time>2026-04-30T14:49:40.998Z</time></trkpt><trkpt lat="50.05656780794854" lon="4.249698113522397"><ele>251.33333333333331</ele><time>2026-04-30T14:49:41.998Z</time></trkpt><trkpt lat="50.056563489478435" lon="4.24944063256969"><ele>250.66666666666666</ele><time>2026-04-30T14:49:42.998Z</time></trkpt><trkpt lat="50.05655336747216" lon="4.2491918433737625"><ele>250.0</ele><time>2026-04-30T14:49:43.998Z</time></trkpt><trkpt lat="50.056545584627436" lon="4.248954949839059"><ele>249.75</ele><time>2026-04-30T14:49:44.998Z</time></trkpt><trkpt lat="50.05654067833055" lon="4.2487249719252"><ele>249.5</ele><time>2026-04-30T14:49:45.998Z</time></trkpt><trkpt lat="50.05652627656387" lon="4.248509569847847"><ele>249.25</ele><time>2026-04-30T14:49:46.998Z</time></trkpt><trkpt lat="50.0565003821021" lon="4.248307996229384"><ele>249.0</ele><time>2026-04-30T14:49:47.998Z</time></trkpt><trkpt lat="50.05645630352846" lon="4.248117022747994"><ele>249.0</ele><time>2026-04-30T14:49:48.998Z</time></trkpt><trkpt lat="50.05641165585888" lon="4.2479401240796895"><ele>249.0</ele><time>2026-04-30T14:49:49.998Z</time></trkpt><trkpt lat="50.05637327445266" lon="4.247769691059655"><ele>249.0</ele><time>2026-04-30T14:49:50.998Z</time></trkpt><trkpt lat="50.05633960520526" lon="4.247606396937828"><ele>249.0</ele><time>2026-04-30T14:49:51.998Z</time></trkpt><trkpt lat="50.05630233101902" lon="4.247444728364241"><ele>249.0</ele><time>2026-04-30T14:49:52.998Z</time></trkpt><trkpt lat="50.05626827681522" lon="4.2472775825356175"><ele>249.0</ele><time>2026-04-30T14:49:53.998Z</time></trkpt><trkpt lat="50.05623054626466" lon="4.247104249333529"><ele>249.0</ele><time>2026-04-30T14:49:54.998Z</time></trkpt><trkpt lat="50.05618648105981" lon="4.24692729277308"><ele>249.0</ele><time>2026-04-30T14:49:55.998Z</time></trkpt><trkpt lat="50.05613872937107" lon="4.246748441836633"><ele>249.0</ele><time>2026-04-30T14:49:56.998Z</time></trkpt><trkpt lat="50.056087625979224" lon="4.246569961077006"><ele>249.0</ele><time>2026-04-30T14:49:57.998Z</time></trkpt><trkpt lat="50.0560347333213" lon="4.246390873736591"><ele>249.0</ele><time>2026-04-30T14:49:58.998Z</time></trkpt><trkpt lat="50.05597998213213" lon="4.24621085609033"><ele>249.0</ele><time>2026-04-30T14:49:59.998Z</time></trkpt><trkpt lat="50.05592272489291" lon="4.246032568928177"><ele>249.0</ele><time>2026-04-30T14:50:00.998Z</time></trkpt><trkpt lat="50.05586577114495" lon="4.245850212546958"><ele>249.0</ele><time>2026-04-30T14:50:01.998Z</time></trkpt><trkpt lat="50.05580687539983" lon="4.2456653260014035"><ele>249.0</ele><time>2026-04-30T14:50:03Z</time></trkpt><trkpt lat="50.05574070040289" lon="4.245477932636185"><ele>249.0</ele><time>2026-04-30T14:50:04Z</time></trkpt><trkpt lat="50.05567320704462" lon="4.24528139747068"><ele>248.25</ele><time>2026-04-30T14:50:05Z</time></trkpt><trkpt lat="50.055602654459335" lon="4.245082977792672"><ele>247.5</ele><time>2026-04-30T14:50:06Z</time></trkpt><trkpt lat="50.05552928822268" lon="4.244884112875173"><ele>246.75</ele><time>2026-04-30T14:50:07Z</time></trkpt><trkpt lat="50.05547202262105" lon="4.244672525490129"><ele>246.0</ele><time>2026-04-30T14:50:08Z</time></trkpt><trkpt lat="50.0554378621267" lon="4.244443272895547"><ele>245.33333333333331</ele><time>2026-04-30T14:50:09Z</time></trkpt><trkpt lat="50.05543282286352" lon="4.244185404141866"><ele>244.66666666666666</ele><time>2026-04-30T14:50:10Z</time></trkpt><trkpt lat="50.055449656642445" lon="4.243907260509758"><ele>244.0</ele><time>2026-04-30T14:50:11Z</time></trkpt><trkpt lat="50.0554885851514" lon="4.243623764808905"><ele>243.33333333333331</ele><time>2026-04-30T14:50:12Z</time></trkpt><trkpt lat="50.05556115585177" lon="4.243341392397166"><ele>242.66666666666669</ele><time>2026-04-30T14:50:13Z</time></trkpt><trkpt lat="50.055651040139374" lon="4.243051225623702"><ele>242.0</ele><time>2026-04-30T14:50:14Z</time></trkpt><trkpt lat="50.055731452529784" lon="4.242765949961056"><ele>243.33333333333334</ele><time>2026-04-30T14:50:15Z</time></trkpt><trkpt lat="50.055800797827516" lon="4.24250329375902"><ele>244.66666666666669</ele><time>2026-04-30T14:50:16Z</time></trkpt><trkpt lat="50.05586974512862" lon="4.242262992095542"><ele>246.0</ele><time>2026-04-30T14:50:17Z</time></trkpt><trkpt lat="50.05593387952887" lon="4.242027137866546"><ele>246.0</ele><time>2026-04-30T14:50:18Z</time></trkpt><trkpt lat="50.05599679625713" lon="4.241786695095196"><ele>246.0</ele><time>2026-04-30T14:50:19Z</time></trkpt><trkpt lat="50.056060648733066" lon="4.241544724913705"><ele>246.0</ele><time>2026-04-30T14:50:20Z</time></trkpt><trkpt lat="50.056124046744216" lon="4.241312755636019"><ele>245.33333333333331</ele><time>2026-04-30T14:50:21Z</time></trkpt><trkpt lat="50.05618669578611" lon="4.241079897508291"><ele>244.66666666666666</ele><time>2026-04-30T14:50:22Z</time></trkpt><trkpt lat="50.05624904295121" lon="4.240849820619493"><ele>244.0</ele><time>2026-04-30T14:50:23Z</time></trkpt><trkpt lat="50.05631109073759" lon="4.240619476569106"><ele>243.66666666666666</ele><time>2026-04-30T14:50:24Z</time></trkpt><trkpt lat="50.05637343095239" lon="4.240389747153662"><ele>243.33333333333331</ele><time>2026-04-30T14:50:25Z</time></trkpt><trkpt lat="50.056433029966115" lon="4.240147976138478"><ele>243.0</ele><time>2026-04-30T14:50:26Z</time></trkpt><trkpt lat="50.056503111985485" lon="4.23990718304878"><ele>243.33333333333331</ele><time>2026-04-30T14:50:27Z</time></trkpt><trkpt lat="50.05657261950126" lon="4.23965891724725"><ele>243.66666666666666</ele><time>2026-04-30T14:50:28Z</time></trkpt><trkpt lat="50.05664344745115" lon="4.239406129151924"><ele>244.0</ele><time>2026-04-30T14:50:29Z</time></trkpt><trkpt lat="50.05671527276996" lon="4.239151186584681"><ele>244.0</ele><time>2026-04-30T14:50:30Z</time></trkpt><trkpt lat="50.05678574358535" lon="4.238895696683779"><ele>244.0</ele><time>2026-04-30T14:50:30.999Z</time></trkpt><trkpt lat="50.05685601494259" lon="4.23863724076047"><ele>244.0</ele><time>2026-04-30T14:50:31.999Z</time></trkpt><trkpt lat="50.05692790278046" lon="4.238373555317078"><ele>243.33333333333331</ele><time>2026-04-30T14:50:32.999Z</time></trkpt><trkpt lat="50.057000815026974" lon="4.238103633463164"><ele>242.66666666666669</ele><time>2026-04-30T14:50:33.999Z</time></trkpt><trkpt lat="50.0570701547793" lon="4.23783451946562"><ele>242.0</ele><time>2026-04-30T14:50:34.999Z</time></trkpt><trkpt lat="50.05711899504598" lon="4.237557371429742"><ele>241.33333333333334</ele><time>2026-04-30T14:50:35.999Z</time></trkpt><trkpt lat="50.05715039644067" lon="4.2372486779763525"><ele>240.66666666666669</ele><time>2026-04-30T14:50:36.999Z</time></trkpt><trkpt lat="50.057168631430926" lon="4.236921104923699"><ele>240.0</ele><time>2026-04-30T14:50:37.999Z</time></trkpt><trkpt lat="50.05718333584913" lon="4.236589452970559"><ele>240.0</ele><time>2026-04-30T14:50:38.999Z</time></trkpt><trkpt lat="50.05719775365249" lon="4.236272022891519"><ele>240.0</ele><time>2026-04-30T14:50:39.999Z</time></trkpt><trkpt lat="50.057213977202075" lon="4.235974631858011"><ele>240.0</ele><time>2026-04-30T14:50:40.999Z</time></trkpt><trkpt lat="50.05722882767969" lon="4.235690718765412"><ele>240.0</ele><time>2026-04-30T14:50:41.999Z</time></trkpt><trkpt lat="50.05723874373728" lon="4.235420704807749"><ele>240.0</ele><time>2026-04-30T14:50:42.999Z</time></trkpt><trkpt lat="50.0572502615883" lon="4.235152083432712"><ele>240.0</ele><time>2026-04-30T14:50:43.999Z</time></trkpt><trkpt lat="50.05726297588464" lon="4.234882041063052"><ele>240.33333333333331</ele><time>2026-04-30T14:50:44.999Z</time></trkpt><trkpt lat="50.057274458518755" lon="4.234611589540653"><ele>240.66666666666666</ele><time>2026-04-30T14:50:45.999Z</time></trkpt><trkpt lat="50.057288047756984" lon="4.234336559379647"><ele>241.0</ele><time>2026-04-30T14:50:46.999Z</time></trkpt><trkpt lat="50.05730250891627" lon="4.234058804198563"><ele>241.0</ele><time>2026-04-30T14:50:47.999Z</time></trkpt><trkpt lat="50.057317902620746" lon="4.233782766043218"><ele>241.0</ele><time>2026-04-30T14:50:48.999Z</time></trkpt><trkpt lat="50.05733129558824" lon="4.233512727914232"><ele>241.0</ele><time>2026-04-30T14:50:49.999Z</time></trkpt><trkpt lat="50.05733734773972" lon="4.233248612190606"><ele>241.33333333333331</ele><time>2026-04-30T14:50:50.999Z</time></trkpt><trkpt lat="50.05733006804861" lon="4.232981701350676"><ele>241.66666666666669</ele><time>2026-04-30T14:50:51.999Z</time></trkpt><trkpt lat="50.057305299309576" lon="4.232708609205832"><ele>242.0</ele><time>2026-04-30T14:50:52.999Z</time></trkpt><trkpt lat="50.05726618526935" lon="4.232427101998116"><ele>242.0</ele><time>2026-04-30T14:50:53.999Z</time></trkpt><trkpt lat="50.05722533166598" lon="4.232150705135507"><ele>242.0</ele><time>2026-04-30T14:50:54.999Z</time></trkpt><trkpt lat="50.05718392783487" lon="4.231880268923961"><ele>242.0</ele><time>2026-04-30T14:50:55.999Z</time></trkpt><trkpt lat="50.05714209422639" lon="4.231609125152552"><ele>242.0</ele><time>2026-04-30T14:50:56.999Z</time></trkpt><trkpt lat="50.05710042452214" lon="4.231330715802018"><ele>242.0</ele><time>2026-04-30T14:50:57.999Z</time></trkpt><trkpt lat="50.05705419924824" lon="4.231041021853683"><ele>242.0</ele><time>2026-04-30T14:50:58.999Z</time></trkpt><trkpt lat="50.057004174883055" lon="4.230744005244545"><ele>242.5</ele><time>2026-04-30T14:50:59.999Z</time></trkpt><trkpt lat="50.0569596148669" lon="4.230385054400161"><ele>243.0</ele><time>2026-04-30T14:51:00.999Z</time></trkpt><trkpt lat="50.056899779739496" lon="4.22998555288669"><ele>243.5</ele><time>2026-04-30T14:51:01.999Z</time></trkpt><trkpt lat="50.05683526895974" lon="4.229557524122527"><ele>244.0</ele><time>2026-04-30T14:51:02.999Z</time></trkpt><trkpt lat="50.056756582321086" lon="4.229105178877359"><ele>244.0</ele><time>2026-04-30T14:51:03.999Z</time></trkpt><trkpt lat="50.05669700838421" lon="4.228632304976602"><ele>244.0</ele><time>2026-04-30T14:51:04.999Z</time></trkpt><trkpt lat="50.05662621668737" lon="4.228145203022433"><ele>244.0</ele><time>2026-04-30T14:51:05.999Z</time></trkpt><trkpt lat="50.05655436978092" lon="4.2276708052871586"><ele>244.0</ele><time>2026-04-30T14:51:06.999Z</time></trkpt><trkpt lat="50.05648697773842" lon="4.227242998648743"><ele>244.5</ele><time>2026-04-30T14:51:07.999Z</time></trkpt><trkpt lat="50.05642693351409" lon="4.2268262605167015"><ele>245.0</ele><time>2026-04-30T14:51:08.999Z</time></trkpt><trkpt lat="50.05636756924246" lon="4.226417106102547"><ele>245.0</ele><time>2026-04-30T14:51:09.999Z</time></trkpt><trkpt lat="50.05630763212549" lon="4.226006944233859"><ele>245.0</ele><time>2026-04-30T14:51:10.999Z</time></trkpt><trkpt lat="50.05624801823977" lon="4.2256180025105285"><ele>244.5</ele><time>2026-04-30T14:51:11.999Z</time></trkpt><trkpt lat="50.056192376623514" lon="4.225253584026929"><ele>244.0</ele><time>2026-04-30T14:51:12.999Z</time></trkpt><trkpt lat="50.05614077603939" lon="4.224906128152036"><ele>243.0</ele><time>2026-04-30T14:51:13.999Z</time></trkpt><trkpt lat="50.05608899804611" lon="4.224558759097593"><ele>242.0</ele><time>2026-04-30T14:51:14.999Z</time></trkpt><trkpt lat="50.056035334100635" lon="4.224203345612792"><ele>241.33333333333334</ele><time>2026-04-30T14:51:15.999Z</time></trkpt><trkpt lat="50.05598314241951" lon="4.223849723868585"><ele>240.66666666666669</ele><time>2026-04-30T14:51:16.999Z</time></trkpt><trkpt lat="50.05593843280637" lon="4.223527114937963"><ele>240.0</ele><time>2026-04-30T14:51:17.999Z</time></trkpt><trkpt lat="50.05589480646265" lon="4.223217712954224"><ele>239.33333333333331</ele><time>2026-04-30T14:51:18.999Z</time></trkpt><trkpt lat="50.05585172981908" lon="4.2229158893641054"><ele>238.66666666666666</ele><time>2026-04-30T14:51:19.999Z</time></trkpt><trkpt lat="50.05581018115595" lon="4.222605874099959"><ele>238.0</ele><time>2026-04-30T14:51:20.999Z</time></trkpt><trkpt lat="50.055765827909404" lon="4.222306391998668"><ele>237.66666666666666</ele><time>2026-04-30T14:51:21.999Z</time></trkpt><trkpt lat="50.05570946985226" lon="4.222039109866747"><ele>237.33333333333331</ele><time>2026-04-30T14:51:22.999Z</time></trkpt><trkpt lat="50.055641256125604" lon="4.221753317328826"><ele>237.0</ele><time>2026-04-30T14:51:23.999Z</time></trkpt><trkpt lat="50.055557852061" lon="4.221454025077472"><ele>236.5</ele><time>2026-04-30T14:51:24.999Z</time></trkpt><trkpt lat="50.05546139441017" lon="4.221133956422422"><ele>236.0</ele><time>2026-04-30T14:51:25.999Z</time></trkpt><trkpt lat="50.055364874185535" lon="4.220813560914349"><ele>236.0</ele><time>2026-04-30T14:51:26.999Z</time></trkpt><trkpt lat="50.055277825690695" lon="4.220518771022409"><ele>236.0</ele><time>2026-04-30T14:51:27.999Z</time></trkpt><trkpt lat="50.05519571516534" lon="4.220237031959501"><ele>236.0</ele><time>2026-04-30T14:51:28.999Z</time></trkpt><trkpt lat="50.05511639660464" lon="4.2199674065183075"><ele>235.33333333333334</ele><time>2026-04-30T14:51:29.999Z</time></trkpt><trkpt lat="50.05503458485296" lon="4.219693083592596"><ele>234.66666666666669</ele><time>2026-04-30T14:51:30.999Z</time></trkpt><trkpt lat="50.054954821846735" lon="4.219417658430542"><ele>234.0</ele><time>2026-04-30T14:51:31.999Z</time></trkpt><trkpt lat="50.054874206738155" lon="4.219143140283681"><ele>232.0</ele><time>2026-04-30T14:51:32.999Z</time></trkpt><trkpt lat="50.05479930821829" lon="4.218882432516816"><ele>230.0</ele><time>2026-04-30T14:51:33.999Z</time></trkpt><trkpt lat="50.05472204101258" lon="4.218614998736418"><ele>228.0</ele><time>2026-04-30T14:51:34.999Z</time></trkpt><trkpt lat="50.054639435314975" lon="4.21833683558677"><ele>227.66666666666669</ele><time>2026-04-30T14:51:35.999Z</time></trkpt><trkpt lat="50.054558157704165" lon="4.218051646762328"><ele>227.33333333333334</ele><time>2026-04-30T14:51:36.999Z</time></trkpt><trkpt lat="50.05447606092551" lon="4.217767381793177"><ele>227.0</ele><time>2026-04-30T14:51:37.999Z</time></trkpt><trkpt lat="50.05438890597971" lon="4.217501487700105"><ele>226.66666666666669</ele><time>2026-04-30T14:51:38.999Z</time></trkpt><trkpt lat="50.05429143716934" lon="4.217236051146885"><ele>226.33333333333331</ele><time>2026-04-30T14:51:39.999Z</time></trkpt><trkpt lat="50.05418189881247" lon="4.216979767925867"><ele>226.0</ele><time>2026-04-30T14:51:40.999Z</time></trkpt><trkpt lat="50.054062052528835" lon="4.216729013822438"><ele>225.33333333333331</ele><time>2026-04-30T14:51:41.999Z</time></trkpt><trkpt lat="50.05393955548578" lon="4.216486099709874"><ele>224.66666666666669</ele><time>2026-04-30T14:51:42.999Z</time></trkpt><trkpt lat="50.053827385032434" lon="4.216258954417031"><ele>224.0</ele><time>2026-04-30T14:51:43.999Z</time></trkpt><trkpt lat="50.053725399618365" lon="4.2160433810667595"><ele>224.0</ele><time>2026-04-30T14:51:44.999Z</time></trkpt><trkpt lat="50.05363075809043" lon="4.2158418150965185"><ele>224.0</ele><time>2026-04-30T14:51:45.998Z</time></trkpt><trkpt lat="50.05353759144666" lon="4.215655000212626"><ele>224.0</ele><time>2026-04-30T14:51:46.998Z</time></trkpt><trkpt lat="50.05345795916925" lon="4.215485529450259"><ele>224.0</ele><time>2026-04-30T14:51:47.998Z</time></trkpt><trkpt lat="50.05337964331069" lon="4.215320986050019"><ele>224.5</ele><time>2026-04-30T14:51:48.998Z</time></trkpt><trkpt lat="50.05329731584536" lon="4.215152428545578"><ele>225.0</ele><time>2026-04-30T14:51:49.998Z</time></trkpt><trkpt lat="50.053209906803914" lon="4.214981280443647"><ele>225.5</ele><time>2026-04-30T14:51:50.998Z</time></trkpt><trkpt lat="50.05313065273085" lon="4.214812814883697"><ele>226.0</ele><time>2026-04-30T14:51:51.998Z</time></trkpt><trkpt lat="50.05305314207418" lon="4.214651628260531"><ele>224.75</ele><time>2026-04-30T14:51:52.998Z</time></trkpt><trkpt lat="50.05297112289291" lon="4.214486933975355"><ele>223.5</ele><time>2026-04-30T14:51:53.998Z</time></trkpt><trkpt lat="50.052890452041126" lon="4.214317106121782"><ele>222.25</ele><time>2026-04-30T14:51:54.998Z</time></trkpt><trkpt lat="50.05282083471925" lon="4.214134758302026"><ele>221.0</ele><time>2026-04-30T14:51:55.998Z</time></trkpt><trkpt lat="50.052773729718844" lon="4.213940608498752"><ele>220.60000000000002</ele><time>2026-04-30T14:51:56.998Z</time></trkpt><trkpt lat="50.05273563801859" lon="4.213765955760097"><ele>220.20000000000002</ele><time>2026-04-30T14:51:57.998Z</time></trkpt><trkpt lat="50.052705898649904" lon="4.213613915357891"><ele>219.79999999999998</ele><time>2026-04-30T14:51:58.998Z</time></trkpt><trkpt lat="50.05268981763078" lon="4.213457806886894"><ele>219.39999999999998</ele><time>2026-04-30T14:51:59.998Z</time></trkpt><trkpt lat="50.05267537876395" lon="4.213306415899447"><ele>219.0</ele><time>2026-04-30T14:52:00.998Z</time></trkpt><trkpt lat="50.052664769705665" lon="4.213162779352815"><ele>218.66666666666666</ele><time>2026-04-30T14:52:01.998Z</time></trkpt><trkpt lat="50.052654701970276" lon="4.213035731667376"><ele>218.33333333333331</ele><time>2026-04-30T14:52:02.998Z</time></trkpt><trkpt lat="50.05264133494371" lon="4.21290954485234"><ele>218.0</ele><time>2026-04-30T14:52:03.998Z</time></trkpt><trkpt lat="50.05263028534072" lon="4.212783883620935"><ele>217.66666666666666</ele><time>2026-04-30T14:52:04.998Z</time></trkpt><trkpt lat="50.05261699615725" lon="4.212656584710893"><ele>217.33333333333331</ele><time>2026-04-30T14:52:05.998Z</time></trkpt><trkpt lat="50.052605678058995" lon="4.212524003222799"><ele>217.0</ele><time>2026-04-30T14:52:06.998Z</time></trkpt><trkpt lat="50.05259252838807" lon="4.21237529375199"><ele>216.5</ele><time>2026-04-30T14:52:07.998Z</time></trkpt><trkpt lat="50.05257605282912" lon="4.212211667485272"><ele>216.0</ele><time>2026-04-30T14:52:09Z</time></trkpt><trkpt lat="50.052552160237035" lon="4.21202669588633"><ele>215.5</ele><time>2026-04-30T14:52:10Z</time></trkpt><trkpt lat="50.05253095669246" lon="4.2118278862948975"><ele>215.0</ele><time>2026-04-30T14:52:11Z</time></trkpt><trkpt lat="50.052509375495866" lon="4.211623642371482"><ele>215.25</ele><time>2026-04-30T14:52:12Z</time></trkpt><trkpt lat="50.052486203470906" lon="4.211420681925574"><ele>215.5</ele><time>2026-04-30T14:52:13Z</time></trkpt><trkpt lat="50.05246602550011" lon="4.211228261311304"><ele>215.75</ele><time>2026-04-30T14:52:14Z</time></trkpt><trkpt lat="50.0524427284063" lon="4.211053216319619"><ele>216.0</ele><time>2026-04-30T14:52:15Z</time></trkpt><trkpt lat="50.05241745310894" lon="4.210893153003219"><ele>215.4</ele><time>2026-04-30T14:52:16Z</time></trkpt><trkpt lat="50.05239362675534" lon="4.210742950764682"><ele>214.8</ele><time>2026-04-30T14:52:17Z</time></trkpt><trkpt lat="50.05237556361192" lon="4.210600435120584"><ele>214.20000000000002</ele><time>2026-04-30T14:52:18Z</time></trkpt><trkpt lat="50.05235823351508" lon="4.210449369812067"><ele>213.60000000000002</ele><time>2026-04-30T14:52:19Z</time></trkpt><trkpt lat="50.05233975560984" lon="4.2103105218437085"><ele>213.0</ele><time>2026-04-30T14:52:20Z</time></trkpt><trkpt lat="50.052311437909694" lon="4.210186630402066"><ele>213.0</ele><time>2026-04-30T14:52:21Z</time></trkpt><trkpt lat="50.05227359348134" lon="4.210097332702594"><ele>213.0</ele><time>2026-04-30T14:52:22Z</time></trkpt><trkpt lat="50.05221361371963" lon="4.210044319413337"><ele>213.0</ele><time>2026-04-30T14:52:23Z</time></trkpt><trkpt lat="50.05214312924484" lon="4.210036742312895"><ele>213.0</ele><time>2026-04-30T14:52:24Z</time></trkpt><trkpt lat="50.05205776494098" lon="4.210057244780502"><ele>213.0</ele><time>2026-04-30T14:52:25Z</time></trkpt><trkpt lat="50.051961569798294" lon="4.210075820832305"><ele>213.0</ele><time>2026-04-30T14:52:26Z</time></trkpt><trkpt lat="50.05185447586826" lon="4.210078567567802"><ele>213.0</ele><time>2026-04-30T14:52:27Z</time></trkpt><trkpt lat="50.051741667581126" lon="4.210060723375569"><ele>213.0</ele><time>2026-04-30T14:52:28Z</time></trkpt><trkpt lat="50.05162895893495" lon="4.2100133785444385"><ele>213.0</ele><time>2026-04-30T14:52:29Z</time></trkpt><trkpt lat="50.05151568460428" lon="4.209920529855817"><ele>213.0</ele><time>2026-04-30T14:52:30Z</time></trkpt><trkpt lat="50.05141542708507" lon="4.209821125552499"><ele>212.25</ele><time>2026-04-30T14:52:31Z</time></trkpt><trkpt lat="50.05131501460146" lon="4.209717595362959"><ele>211.5</ele><time>2026-04-30T14:52:32Z</time></trkpt><trkpt lat="50.051217135331136" lon="4.209611496395384"><ele>210.75</ele><time>2026-04-30T14:52:33Z</time></trkpt><trkpt lat="50.051119633649776" lon="4.209505078191886"><ele>210.0</ele><time>2026-04-30T14:52:34Z</time></trkpt><trkpt lat="50.05101996026346" lon="4.209394573340739"><ele>210.0</ele><time>2026-04-30T14:52:35Z</time></trkpt><trkpt lat="50.05093185996935" lon="4.209270785224139"><ele>210.0</ele><time>2026-04-30T14:52:36Z</time></trkpt><trkpt lat="50.05086417597722" lon="4.20911414378651"><ele>210.0</ele><time>2026-04-30T14:52:37Z</time></trkpt><trkpt lat="50.05082377649477" lon="4.208927559784514"><ele>210.0</ele><time>2026-04-30T14:52:38Z</time></trkpt><trkpt lat="50.050816128257075" lon="4.208728267828026"><ele>210.25</ele><time>2026-04-30T14:52:39Z</time></trkpt><trkpt lat="50.05084675610313" lon="4.208541156086374"><ele>210.5</ele><time>2026-04-30T14:52:40Z</time></trkpt><trkpt lat="50.050901451333914" lon="4.208366948102198"><ele>210.75</ele><time>2026-04-30T14:52:41Z</time></trkpt><trkpt lat="50.05098431385604" lon="4.208200741553849"><ele>211.0</ele><time>2026-04-30T14:52:42Z</time></trkpt><trkpt lat="50.05106128539804" lon="4.208023744718636"><ele>211.33333333333331</ele><time>2026-04-30T14:52:43Z</time></trkpt><trkpt lat="50.05114266501282" lon="4.207828374838284"><ele>211.66666666666669</ele><time>2026-04-30T14:52:44Z</time></trkpt><trkpt lat="50.05123239799719" lon="4.207636543665481"><ele>212.0</ele><time>2026-04-30T14:52:45Z</time></trkpt><trkpt lat="50.0513397582517" lon="4.207443847091849"><ele>212.33333333333334</ele><time>2026-04-30T14:52:46Z</time></trkpt><trkpt lat="50.05144887931592" lon="4.207264652014642"><ele>212.66666666666669</ele><time>2026-04-30T14:52:47Z</time></trkpt><trkpt lat="50.0515513728142" lon="4.207089402823781"><ele>213.0</ele><time>2026-04-30T14:52:48Z</time></trkpt><trkpt lat="50.05165174484076" lon="4.206923498598812"><ele>213.5</ele><time>2026-04-30T14:52:49Z</time></trkpt><trkpt lat="50.05174734975522" lon="4.206766993979894"><ele>214.0</ele><time>2026-04-30T14:52:50Z</time></trkpt><trkpt lat="50.05183434199906" lon="4.206615575703295"><ele>214.5</ele><time>2026-04-30T14:52:51Z</time></trkpt><trkpt lat="50.051899919642864" lon="4.206464784255831"><ele>215.0</ele><time>2026-04-30T14:52:52Z</time></trkpt><trkpt lat="50.05194569930756" lon="4.206292971419619"><ele>216.5</ele><time>2026-04-30T14:52:53Z</time></trkpt><trkpt lat="50.051970882698825" lon="4.206103692985775"><ele>218.0</ele><time>2026-04-30T14:52:54Z</time></trkpt><trkpt lat="50.05197491080487" lon="4.205898764711504"><ele>219.5</ele><time>2026-04-30T14:52:55Z</time></trkpt><trkpt lat="50.0519708627181" lon="4.2056921539900145"><ele>221.0</ele><time>2026-04-30T14:52:56Z</time></trkpt><trkpt lat="50.05195639944419" lon="4.205500132648263"><ele>221.5</ele><time>2026-04-30T14:52:57Z</time></trkpt><trkpt lat="50.05193569968645" lon="4.2052962512301875"><ele>222.0</ele><time>2026-04-30T14:52:58Z</time></trkpt><trkpt lat="50.05191037018826" lon="4.205070886585482"><ele>222.5</ele><time>2026-04-30T14:52:59Z</time></trkpt><trkpt lat="50.05187448731999" lon="4.204814964735947"><ele>223.0</ele><time>2026-04-30T14:53:00Z</time></trkpt><trkpt lat="50.051835114274645" lon="4.204520986941208"><ele>223.33333333333331</ele><time>2026-04-30T14:53:01Z</time></trkpt><trkpt lat="50.05179282483949" lon="4.20420387609807"><ele>223.66666666666669</ele><time>2026-04-30T14:53:02Z</time></trkpt><trkpt lat="50.05175303851178" lon="4.2038691635664724"><ele>224.0</ele><time>2026-04-30T14:53:03Z</time></trkpt><trkpt lat="50.05170777598613" lon="4.203531999816715"><ele>224.5</ele><time>2026-04-30T14:53:04Z</time></trkpt><trkpt lat="50.05165595215296" lon="4.203175169413438"><ele>225.0</ele><time>2026-04-30T14:53:05Z</time></trkpt><trkpt lat="50.05160392305584" lon="4.2028032444524355"><ele>225.5</ele><time>2026-04-30T14:53:06Z</time></trkpt><trkpt lat="50.051555564078875" lon="4.202438413792732"><ele>226.0</ele><time>2026-04-30T14:53:07Z</time></trkpt><trkpt lat="50.0515081379812" lon="4.2020971935334375"><ele>226.33333333333331</ele><time>2026-04-30T14:53:08Z</time></trkpt><trkpt lat="50.05146292796878" lon="4.201787152033661"><ele>226.66666666666669</ele><time>2026-04-30T14:53:09Z</time></trkpt><trkpt lat="50.05142487379906" lon="4.201496701417013"><ele>227.0</ele><time>2026-04-30T14:53:10Z</time></trkpt><trkpt lat="50.051399976481584" lon="4.201216132854973"><ele>227.0</ele><time>2026-04-30T14:53:11Z</time></trkpt><trkpt lat="50.05138862692751" lon="4.200926717007495"><ele>227.0</ele><time>2026-04-30T14:53:11.999Z</time></trkpt><trkpt lat="50.051404580622034" lon="4.200620264420003"><ele>227.0</ele><time>2026-04-30T14:53:12.999Z</time></trkpt><trkpt lat="50.05144099187167" lon="4.20029583353232"><ele>227.5</ele><time>2026-04-30T14:53:13.999Z</time></trkpt><trkpt lat="50.051486007818966" lon="4.199944149779106"><ele>228.0</ele><time>2026-04-30T14:53:14.999Z</time></trkpt><trkpt lat="50.05154897376587" lon="4.19957182670061"><ele>228.0</ele><time>2026-04-30T14:53:15.999Z</time></trkpt><trkpt lat="50.05162806375528" lon="4.199180668290785"><ele>228.0</ele><time>2026-04-30T14:53:16.999Z</time></trkpt><trkpt lat="50.05172306158787" lon="4.198759890356385"><ele>228.0</ele><time>2026-04-30T14:53:17.999Z</time></trkpt><trkpt lat="50.05182628524987" lon="4.198327031108867"><ele>228.0</ele><time>2026-04-30T14:53:18.999Z</time></trkpt><trkpt lat="50.05192910521515" lon="4.197870023553046"><ele>227.0</ele><time>2026-04-30T14:53:19.999Z</time></trkpt><trkpt lat="50.052029339799525" lon="4.197416388452519"><ele>226.0</ele><time>2026-04-30T14:53:20.999Z</time></trkpt><trkpt lat="50.052123155973376" lon="4.196981265992855"><ele>225.5</ele><time>2026-04-30T14:53:21.999Z</time></trkpt><trkpt lat="50.05221232987366" lon="4.196568608811961"><ele>225.0</ele><time>2026-04-30T14:53:22.999Z</time></trkpt><trkpt lat="50.05230252528148" lon="4.196159617361708"><ele>225.0</ele><time>2026-04-30T14:53:23.999Z</time></trkpt><trkpt lat="50.052391152025955" lon="4.195766640866439"><ele>225.0</ele><time>2026-04-30T14:53:24.999Z</time></trkpt><trkpt lat="50.052479237732726" lon="4.195386601195495"><ele>223.5</ele><time>2026-04-30T14:53:25.999Z</time></trkpt><trkpt lat="50.05255803630669" lon="4.19502671795402"><ele>222.0</ele><time>2026-04-30T14:53:26.999Z</time></trkpt><trkpt lat="50.05262845867429" lon="4.194681567525481"><ele>222.0</ele><time>2026-04-30T14:53:27.999Z</time></trkpt><trkpt lat="50.05268881321477" lon="4.1943452275020965"><ele>222.0</ele><time>2026-04-30T14:53:28.999Z</time></trkpt><trkpt lat="50.052736133977014" lon="4.194004356051465"><ele>222.0</ele><time>2026-04-30T14:53:29.999Z</time></trkpt><trkpt lat="50.052770248475625" lon="4.19365549036079"><ele>222.66666666666669</ele><time>2026-04-30T14:53:30.999Z</time></trkpt><trkpt lat="50.052793536848135" lon="4.193305557180045"><ele>223.33333333333334</ele><time>2026-04-30T14:53:31.999Z</time></trkpt><trkpt lat="50.052816404128265" lon="4.192961279239614"><ele>224.0</ele><time>2026-04-30T14:53:32.999Z</time></trkpt><trkpt lat="50.05284060245145" lon="4.19262841765383"><ele>225.33333333333334</ele><time>2026-04-30T14:53:33.999Z</time></trkpt><trkpt lat="50.052859030986774" lon="4.192320559672458"><ele>226.66666666666669</ele><time>2026-04-30T14:53:34.999Z</time></trkpt><trkpt lat="50.052880202857736" lon="4.192040478379049"><ele>228.0</ele><time>2026-04-30T14:53:35.999Z</time></trkpt><trkpt lat="50.05290460650739" lon="4.191771065425712"><ele>228.0</ele><time>2026-04-30T14:53:36.999Z</time></trkpt><trkpt lat="50.05292268630698" lon="4.191526509950893"><ele>228.0</ele><time>2026-04-30T14:53:37.999Z</time></trkpt><trkpt lat="50.052934891122625" lon="4.191325330815893"><ele>228.0</ele><time>2026-04-30T14:53:38.999Z</time></trkpt><trkpt lat="50.052941387611014" lon="4.19115037847714"><ele>228.0</ele><time>2026-04-30T14:53:39.999Z</time></trkpt><trkpt lat="50.0529403327011" lon="4.191001591932868"><ele>228.0</ele><time>2026-04-30T14:53:40.999Z</time></trkpt><trkpt lat="50.052933847664725" lon="4.190864458766998"><ele>228.0</ele><time>2026-04-30T14:53:41.999Z</time></trkpt><trkpt lat="50.05292559292774" lon="4.190750406734468"><ele>228.0</ele><time>2026-04-30T14:53:42.999Z</time></trkpt><trkpt lat="50.05291958868059" lon="4.190640346252137"><ele>228.0</ele><time>2026-04-30T14:53:43.999Z</time></trkpt><trkpt lat="50.05294200978933" lon="4.1904607153962425"><ele>228.0</ele><time>2026-04-30T14:53:45.999Z</time></trkpt><trkpt lat="50.05294629726793" lon="4.190312295088374"><ele>228.0</ele><time>2026-04-30T14:53:47.999Z</time></trkpt><trkpt lat="50.052914701620125" lon="4.190173770903392"><ele>228.66666666666666</ele><time>2026-04-30T14:53:49.999Z</time></trkpt><trkpt lat="50.05282250718566" lon="4.190097665913606"><ele>229.33333333333331</ele><time>2026-04-30T14:53:51.999Z</time></trkpt><trkpt lat="50.052759231912944" lon="4.190084400105064"><ele>230.0</ele><time>2026-04-30T14:53:52.999Z</time></trkpt><trkpt lat="50.052692449805754" lon="4.190106061690844"><ele>230.66666666666666</ele><time>2026-04-30T14:53:53.999Z</time></trkpt><trkpt lat="50.052626890414196" lon="4.190154917801929"><ele>231.33333333333331</ele><time>2026-04-30T14:53:54.999Z</time></trkpt><trkpt lat="50.05257263900688" lon="4.190234783486646"><ele>232.0</ele><time>2026-04-30T14:53:55.999Z</time></trkpt><trkpt lat="50.052480039438215" lon="4.190226295683055"><ele>232.0</ele><time>2026-04-30T14:53:56.999Z</time></trkpt><trkpt lat="50.05238468442239" lon="4.19020857403057"><ele>232.0</ele><time>2026-04-30T14:53:57.999Z</time></trkpt><trkpt lat="50.05228445674765" lon="4.190157283648015"><ele>232.0</ele><time>2026-04-30T14:53:58.999Z</time></trkpt><trkpt lat="50.05219136538888" lon="4.190110507134773"><ele>232.0</ele><time>2026-04-30T14:53:59.999Z</time></trkpt><trkpt lat="50.05209966960224" lon="4.19004704468622"><ele>232.0</ele><time>2026-04-30T14:54:00.999Z</time></trkpt><trkpt lat="50.05200026965564" lon="4.190005105912252"><ele>232.0</ele><time>2026-04-30T14:54:01.999Z</time></trkpt><trkpt lat="50.05190217572125" lon="4.189937781230167"><ele>232.0</ele><time>2026-04-30T14:54:02.999Z</time></trkpt><trkpt lat="50.05179494709322" lon="4.189862270013417"><ele>232.0</ele><time>2026-04-30T14:54:03.999Z</time></trkpt><trkpt lat="50.05168366158403" lon="4.189777158511411"><ele>232.0</ele><time>2026-04-30T14:54:04.999Z</time></trkpt><trkpt lat="50.051574726028576" lon="4.189689910047132"><ele>232.0</ele><time>2026-04-30T14:54:05.999Z</time></trkpt><trkpt lat="50.05146602665186" lon="4.189587768125611"><ele>232.0</ele><time>2026-04-30T14:54:06.999Z</time></trkpt><trkpt lat="50.05134842807154" lon="4.189477617664655"><ele>232.0</ele><time>2026-04-30T14:54:07.999Z</time></trkpt><trkpt lat="50.05122559074384" lon="4.189344577434808"><ele>232.0</ele><time>2026-04-30T14:54:08.999Z</time></trkpt><trkpt lat="50.05109525478299" lon="4.189196587310849"><ele>232.0</ele><time>2026-04-30T14:54:09.999Z</time></trkpt><trkpt lat="50.05095467211758" lon="4.189037607451615"><ele>232.0</ele><time>2026-04-30T14:54:10.999Z</time></trkpt><trkpt lat="50.05081493961608" lon="4.188859469349265"><ele>232.0</ele><time>2026-04-30T14:54:11.999Z</time></trkpt><trkpt lat="50.0506923037802" lon="4.188676177080581"><ele>231.0</ele><time>2026-04-30T14:54:12.999Z</time></trkpt><trkpt lat="50.05057985398188" lon="4.188491178588732"><ele>230.0</ele><time>2026-04-30T14:54:13.999Z</time></trkpt><trkpt lat="50.05047222168144" lon="4.18829372354119"><ele>229.0</ele><time>2026-04-30T14:54:15.001Z</time></trkpt><trkpt lat="50.05035468095425" lon="4.188074965685571"><ele>229.0</ele><time>2026-04-30T14:54:16.001Z</time></trkpt><trkpt lat="50.050247239733245" lon="4.187800228467863"><ele>229.0</ele><time>2026-04-30T14:54:17.001Z</time></trkpt><trkpt lat="50.050119235367056" lon="4.187490875656587"><ele>229.0</ele><time>2026-04-30T14:54:18.001Z</time></trkpt><trkpt lat="50.049975486460376" lon="4.1871347839472115"><ele>227.5</ele><time>2026-04-30T14:54:19.001Z</time></trkpt><trkpt lat="50.04980208688049" lon="4.186752526489521"><ele>226.0</ele><time>2026-04-30T14:54:20.001Z</time></trkpt><trkpt lat="50.049651520517095" lon="4.1863437769890055"><ele>225.5</ele><time>2026-04-30T14:54:21.001Z</time></trkpt><trkpt lat="50.04948486675797" lon="4.185927234635364"><ele>225.0</ele><time>2026-04-30T14:54:22.001Z</time></trkpt><trkpt lat="50.049309639994206" lon="4.1854999127238885"><ele>225.0</ele><time>2026-04-30T14:54:23.001Z</time></trkpt><trkpt lat="50.049147634448076" lon="4.185100704186304"><ele>225.0</ele><time>2026-04-30T14:54:24.001Z</time></trkpt><trkpt lat="50.04899659239078" lon="4.184727257353386"><ele>224.0</ele><time>2026-04-30T14:54:25.001Z</time></trkpt><trkpt lat="50.04884533511837" lon="4.1843604774864955"><ele>223.0</ele><time>2026-04-30T14:54:26.001Z</time></trkpt><trkpt lat="50.04869832514248" lon="4.183998488103048"><ele>223.0</ele><time>2026-04-30T14:54:27.001Z</time></trkpt><trkpt lat="50.048560553051324" lon="4.183653805083686"><ele>223.0</ele><time>2026-04-30T14:54:28.001Z</time></trkpt><trkpt lat="50.04843311245456" lon="4.183325708052428"><ele>223.0</ele><time>2026-04-30T14:54:29Z</time></trkpt><trkpt lat="50.0483169538275" lon="4.182978338608194"><ele>223.0</ele><time>2026-04-30T14:54:30Z</time></trkpt><trkpt lat="50.048214975358526" lon="4.182599980985379"><ele>221.5</ele><time>2026-04-30T14:54:31Z</time></trkpt><trkpt lat="50.048125862313" lon="4.182206240383512"><ele>220.0</ele><time>2026-04-30T14:54:32Z</time></trkpt><trkpt lat="50.04805618786214" lon="4.181809006626122"><ele>220.0</ele><time>2026-04-30T14:54:33Z</time></trkpt><trkpt lat="50.04800625088627" lon="4.181405110791953"><ele>220.0</ele><time>2026-04-30T14:54:34Z</time></trkpt><trkpt lat="50.04797500288557" lon="4.180996340378828"><ele>219.5</ele><time>2026-04-30T14:54:35Z</time></trkpt><trkpt lat="50.047962181562426" lon="4.180582990713315"><ele>219.0</ele><time>2026-04-30T14:54:36Z</time></trkpt><trkpt lat="50.04796399836762" lon="4.180159870085993"><ele>219.0</ele><time>2026-04-30T14:54:37Z</time></trkpt><trkpt lat="50.04797989605871" lon="4.17972311811527"><ele>219.0</ele><time>2026-04-30T14:54:38Z</time></trkpt><trkpt lat="50.048019021406084" lon="4.179264622344749"><ele>219.0</ele><time>2026-04-30T14:54:39Z</time></trkpt><trkpt lat="50.04806860588136" lon="4.1787948278480505"><ele>219.0</ele><time>2026-04-30T14:54:40Z</time></trkpt><trkpt lat="50.048111106022056" lon="4.178319267098515"><ele>219.5</ele><time>2026-04-30T14:54:41Z</time></trkpt><trkpt lat="50.04815064011856" lon="4.1778543396926935"><ele>220.0</ele><time>2026-04-30T14:54:42Z</time></trkpt><trkpt lat="50.04818920646673" lon="4.177398504819995"><ele>220.0</ele><time>2026-04-30T14:54:43Z</time></trkpt><trkpt lat="50.048229573172144" lon="4.17695862180007"><ele>220.0</ele><time>2026-04-30T14:54:44Z</time></trkpt><trkpt lat="50.04826421973652" lon="4.176516230921448"><ele>225.5</ele><time>2026-04-30T14:54:45Z</time></trkpt><trkpt lat="50.04829813222979" lon="4.176072096233244"><ele>231.0</ele><time>2026-04-30T14:54:46Z</time></trkpt><trkpt lat="50.04833431539344" lon="4.175624806544267"><ele>231.0</ele><time>2026-04-30T14:54:47Z</time></trkpt><trkpt lat="50.048371667583076" lon="4.175170988536402"><ele>231.0</ele><time>2026-04-30T14:54:48Z</time></trkpt><trkpt lat="50.04841009910135" lon="4.1747128923267285"><ele>231.5</ele><time>2026-04-30T14:54:49Z</time></trkpt><trkpt lat="50.04845023583218" lon="4.17424762473889"><ele>232.0</ele><time>2026-04-30T14:54:50Z</time></trkpt><trkpt lat="50.048488012546684" lon="4.173790090402467"><ele>232.5</ele><time>2026-04-30T14:54:51Z</time></trkpt><trkpt lat="50.04852500165438" lon="4.173339058164981"><ele>233.0</ele><time>2026-04-30T14:54:52Z</time></trkpt><trkpt lat="50.04856148979059" lon="4.172895148521665"><ele>233.0</ele><time>2026-04-30T14:54:53Z</time></trkpt><trkpt lat="50.04859387918505" lon="4.172466212244254"><ele>233.0</ele><time>2026-04-30T14:54:54Z</time></trkpt><trkpt lat="50.04862538493048" lon="4.1720514060949"><ele>232.0</ele><time>2026-04-30T14:54:55Z</time></trkpt><trkpt lat="50.048654500269656" lon="4.1716569253181985"><ele>231.0</ele><time>2026-04-30T14:54:56Z</time></trkpt><trkpt lat="50.04869016147489" lon="4.171283662971347"><ele>230.5</ele><time>2026-04-30T14:54:57Z</time></trkpt><trkpt lat="50.04873423878734" lon="4.170912192604417"><ele>230.0</ele><time>2026-04-30T14:54:58Z</time></trkpt><trkpt lat="50.048793583940366" lon="4.170527980892655"><ele>229.0</ele><time>2026-04-30T14:54:59Z</time></trkpt><trkpt lat="50.04886342939578" lon="4.170126696193715"><ele>228.0</ele><time>2026-04-30T14:55:00Z</time></trkpt><trkpt lat="50.04892802796324" lon="4.169724352846886"><ele>228.0</ele><time>2026-04-30T14:55:01Z</time></trkpt><trkpt lat="50.04898801334523" lon="4.169323210978124"><ele>228.0</ele><time>2026-04-30T14:55:02Z</time></trkpt><trkpt lat="50.04904548158221" lon="4.1689351789805125"><ele>226.5</ele><time>2026-04-30T14:55:03Z</time></trkpt><trkpt lat="50.04910993362356" lon="4.16855133519453"><ele>225.0</ele><time>2026-04-30T14:55:04Z</time></trkpt><trkpt lat="50.049188477111045" lon="4.168165655315744"><ele>225.0</ele><time>2026-04-30T14:55:05Z</time></trkpt><trkpt lat="50.04928665579836" lon="4.16778255303235"><ele>225.0</ele><time>2026-04-30T14:55:06Z</time></trkpt><trkpt lat="50.0494035349455" lon="4.167406826895527"><ele>224.0</ele><time>2026-04-30T14:55:07Z</time></trkpt><trkpt lat="50.04953403315533" lon="4.167053172915465"><ele>223.0</ele><time>2026-04-30T14:55:08Z</time></trkpt><trkpt lat="50.04967760503935" lon="4.166721254807293"><ele>222.0</ele><time>2026-04-30T14:55:09Z</time></trkpt><trkpt lat="50.049844076651375" lon="4.166420671404575"><ele>221.0</ele><time>2026-04-30T14:55:10Z</time></trkpt><trkpt lat="50.049999521539554" lon="4.166109113665729"><ele>218.5</ele><time>2026-04-30T14:55:11Z</time></trkpt><trkpt lat="50.0501768578706" lon="4.165833423903154"><ele>216.0</ele><time>2026-04-30T14:55:12Z</time></trkpt><trkpt lat="50.050363385110806" lon="4.16558129438797"><ele>214.0</ele><time>2026-04-30T14:55:13Z</time></trkpt><trkpt lat="50.05056314763285" lon="4.165359196343175"><ele>212.0</ele><time>2026-04-30T14:55:14Z</time></trkpt><trkpt lat="50.05077651722431" lon="4.1651427904030625"><ele>212.0</ele><time>2026-04-30T14:55:15Z</time></trkpt><trkpt lat="50.05099443799016" lon="4.164942117823887"><ele>212.0</ele><time>2026-04-30T14:55:16Z</time></trkpt><trkpt lat="50.05121907202933" lon="4.164766510040692"><ele>212.0</ele><time>2026-04-30T14:55:17Z</time></trkpt><trkpt lat="50.05144015247713" lon="4.164630030718167"><ele>212.0</ele><time>2026-04-30T14:55:18Z</time></trkpt><trkpt lat="50.05164718845327" lon="4.164530471606697"><ele>212.66666666666669</ele><time>2026-04-30T14:55:19Z</time></trkpt><trkpt lat="50.05183296782656" lon="4.1644522693051345"><ele>213.33333333333331</ele><time>2026-04-30T14:55:20Z</time></trkpt><trkpt lat="50.05200912091785" lon="4.164384463771189"><ele>214.0</ele><time>2026-04-30T14:55:21Z</time></trkpt><trkpt lat="50.05218220480446" lon="4.164330996874951"><ele>214.0</ele><time>2026-04-30T14:55:22Z</time></trkpt><trkpt lat="50.0523571783343" lon="4.1642934730187955"><ele>214.0</ele><time>2026-04-30T14:55:23Z</time></trkpt><trkpt lat="50.05252648399124" lon="4.1642727683774075"><ele>214.0</ele><time>2026-04-30T14:55:24Z</time></trkpt><trkpt lat="50.05269949476895" lon="4.1642618998938925"><ele>213.66666666666666</ele><time>2026-04-30T14:55:24.999Z</time></trkpt><trkpt lat="50.05287242727173" lon="4.164263976015519"><ele>213.33333333333331</ele><time>2026-04-30T14:55:25.999Z</time></trkpt><trkpt lat="50.05302788493708" lon="4.164268705942547"><ele>213.0</ele><time>2026-04-30T14:55:26.999Z</time></trkpt><trkpt lat="50.05316047829327" lon="4.164287863057053"><ele>213.0</ele><time>2026-04-30T14:55:27.999Z</time></trkpt><trkpt lat="50.05327004133055" lon="4.1643265667976666"><ele>213.0</ele><time>2026-04-30T14:55:28.999Z</time></trkpt><trkpt lat="50.05336123353474" lon="4.164390746204699"><ele>213.0</ele><time>2026-04-30T14:55:29.999Z</time></trkpt><trkpt lat="50.053432271805676" lon="4.164481327856592"><ele>213.0</ele><time>2026-04-30T14:55:30.999Z</time></trkpt><trkpt lat="50.05349596029709" lon="4.164575305469039"><ele>213.0</ele><time>2026-04-30T14:55:31.999Z</time></trkpt><trkpt lat="50.05357612842161" lon="4.164608051156656"><ele>212.4</ele><time>2026-04-30T14:55:32.999Z</time></trkpt><trkpt lat="50.05365722232594" lon="4.1645499763315"><ele>211.8</ele><time>2026-04-30T14:55:33.999Z</time></trkpt><trkpt lat="50.05373931374863" lon="4.164483190775818"><ele>211.2</ele><time>2026-04-30T14:55:34.999Z</time></trkpt><trkpt lat="50.05372985154606" lon="4.164286000802818"><ele>210.6</ele><time>2026-04-30T14:55:35.999Z</time></trkpt><trkpt lat="50.05370841992166" lon="4.16413659774154"><ele>210.0</ele><time>2026-04-30T14:55:36.999Z</time></trkpt><trkpt lat="50.053666371744086" lon="4.163973463998217"><ele>210.0</ele><time>2026-04-30T14:55:37.999Z</time></trkpt><trkpt lat="50.05365210946261" lon="4.16376743328202"><ele>210.0</ele><time>2026-04-30T14:55:38.999Z</time></trkpt><trkpt lat="50.05367930717017" lon="4.163504591975876"><ele>210.0</ele><time>2026-04-30T14:55:39.999Z</time></trkpt><trkpt lat="50.053729985492716" lon="4.163186916975916"><ele>209.0</ele><time>2026-04-30T14:55:40.999Z</time></trkpt><trkpt lat="50.05378771509321" lon="4.162844351330819"><ele>208.0</ele><time>2026-04-30T14:55:41.999Z</time></trkpt><trkpt lat="50.053847076601606" lon="4.162493717153206"><ele>206.33333333333331</ele><time>2026-04-30T14:55:42.999Z</time></trkpt><trkpt lat="50.053897985521054" lon="4.162180131424405"><ele>204.66666666666669</ele><time>2026-04-30T14:55:43.999Z</time></trkpt><trkpt lat="50.053933415333304" lon="4.161913624212853"><ele>203.0</ele><time>2026-04-30T14:55:44.999Z</time></trkpt><trkpt lat="50.053949203752204" lon="4.161655263992851"><ele>203.0</ele><time>2026-04-30T14:55:45.999Z</time></trkpt><trkpt lat="50.053922578346594" lon="4.161372395252593"><ele>203.0</ele><time>2026-04-30T14:55:46.999Z</time></trkpt><trkpt lat="50.05386400273118" lon="4.161072255530199"><ele>203.0</ele><time>2026-04-30T14:55:47.999Z</time></trkpt><trkpt lat="50.05378227190549" lon="4.160743749470501"><ele>203.0</ele><time>2026-04-30T14:55:48.999Z</time></trkpt><trkpt lat="50.053710291324855" lon="4.160396045049101"><ele>203.0</ele><time>2026-04-30T14:55:49.999Z</time></trkpt><trkpt lat="50.0536546760485" lon="4.1600726946719675"><ele>203.0</ele><time>2026-04-30T14:55:50.999Z</time></trkpt><trkpt lat="50.053611044445326" lon="4.15978970316207"><ele>203.33333333333334</ele><time>2026-04-30T14:55:51.999Z</time></trkpt><trkpt lat="50.05360710204979" lon="4.159521102244882"><ele>203.66666666666669</ele><time>2026-04-30T14:55:52.999Z</time></trkpt><trkpt lat="50.05361964059187" lon="4.159256413660946"><ele>204.0</ele><time>2026-04-30T14:55:53.999Z</time></trkpt><trkpt lat="50.05365029420228" lon="4.15895062141562"><ele>205.0</ele><time>2026-04-30T14:55:54.999Z</time></trkpt><trkpt lat="50.0537104813082" lon="4.158620305898669"><ele>206.0</ele><time>2026-04-30T14:55:55.999Z</time></trkpt><trkpt lat="50.053782371913066" lon="4.15825810288345"><ele>208.5</ele><time>2026-04-30T14:55:56.999Z</time></trkpt><trkpt lat="50.0538539410345" lon="4.157875379360319"><ele>211.0</ele><time>2026-04-30T14:55:57.999Z</time></trkpt><trkpt lat="50.05392420726392" lon="4.157480155708881"><ele>212.5</ele><time>2026-04-30T14:55:58.999Z</time></trkpt><trkpt lat="50.05399228182968" lon="4.157099958189652"><ele>214.0</ele><time>2026-04-30T14:55:59.999Z</time></trkpt><trkpt lat="50.05405783472843" lon="4.1567365981777575"><ele>213.5</ele><time>2026-04-30T14:56:00.999Z</time></trkpt><trkpt lat="50.054125724105575" lon="4.156362966023728"><ele>213.0</ele><time>2026-04-30T14:56:01.999Z</time></trkpt><trkpt lat="50.05419627303549" lon="4.1559631178661105"><ele>213.5</ele><time>2026-04-30T14:56:02.999Z</time></trkpt><trkpt lat="50.0542691976881" lon="4.155557193161597"><ele>214.0</ele><time>2026-04-30T14:56:03.999Z</time></trkpt><trkpt lat="50.05434075763782" lon="4.15516293945709"><ele>214.0</ele><time>2026-04-30T14:56:04.999Z</time></trkpt><trkpt lat="50.05440790817522" lon="4.1547882823649624"><ele>214.0</ele><time>2026-04-30T14:56:05.999Z</time></trkpt><trkpt lat="50.05446994451267" lon="4.154432017192225"><ele>214.0</ele><time>2026-04-30T14:56:06.999Z</time></trkpt><trkpt lat="50.05453134757527" lon="4.154080562989239"><ele>214.0</ele><time>2026-04-30T14:56:07.999Z</time></trkpt><trkpt lat="50.054593580430684" lon="4.153732961676675"><ele>212.5</ele><time>2026-04-30T14:56:08.999Z</time></trkpt><trkpt lat="50.05465783629382" lon="4.153384305836172"><ele>211.0</ele><time>2026-04-30T14:56:09.999Z</time></trkpt><trkpt lat="50.054720029008045" lon="4.153039505154427"><ele>211.0</ele><time>2026-04-30T14:56:10.999Z</time></trkpt><trkpt lat="50.05478017994336" lon="4.152723268995383"><ele>211.0</ele><time>2026-04-30T14:56:11.999Z</time></trkpt><trkpt lat="50.05483503136467" lon="4.152432589851543"><ele>211.0</ele><time>2026-04-30T14:56:12.999Z</time></trkpt><trkpt lat="50.054884743350705" lon="4.152152906448319"><ele>211.0</ele><time>2026-04-30T14:56:13.999Z</time></trkpt><trkpt lat="50.05493463355962" lon="4.1518792780895915"><ele>211.0</ele><time>2026-04-30T14:56:14.999Z</time></trkpt><trkpt lat="50.05498615397484" lon="4.151603229337597"><ele>211.0</ele><time>2026-04-30T14:56:15.999Z</time></trkpt><trkpt lat="50.05503628455365" lon="4.151322275489655"><ele>213.33333333333331</ele><time>2026-04-30T14:56:16.999Z</time></trkpt><trkpt lat="50.055087889520564" lon="4.151023324675499"><ele>215.66666666666669</ele><time>2026-04-30T14:56:17.999Z</time></trkpt><trkpt lat="50.055146363524344" lon="4.1507054031656585"><ele>218.0</ele><time>2026-04-30T14:56:18.999Z</time></trkpt><trkpt lat="50.05521157194347" lon="4.150365054035072"><ele>218.0</ele><time>2026-04-30T14:56:20.001Z</time></trkpt><trkpt lat="50.055277646902255" lon="4.149997461478158"><ele>218.0</ele><time>2026-04-30T14:56:21.001Z</time></trkpt><trkpt lat="50.0553466651335" lon="4.149615958622077"><ele>219.0</ele><time>2026-04-30T14:56:22.001Z</time></trkpt><trkpt lat="50.055419723520984" lon="4.14921771213861"><ele>220.0</ele><time>2026-04-30T14:56:23.001Z</time></trkpt><trkpt lat="50.05549316313746" lon="4.148812331371711"><ele>220.0</ele><time>2026-04-30T14:56:24.001Z</time></trkpt><trkpt lat="50.055566685868236" lon="4.148412384555978"><ele>220.0</ele><time>2026-04-30T14:56:25.001Z</time></trkpt><trkpt lat="50.055640757115604" lon="4.148015739019086"><ele>220.0</ele><time>2026-04-30T14:56:26.001Z</time></trkpt><trkpt lat="50.05571388395198" lon="4.147629126792282"><ele>220.0</ele><time>2026-04-30T14:56:27.001Z</time></trkpt><trkpt lat="50.05578606049644" lon="4.147246250829432"><ele>222.5</ele><time>2026-04-30T14:56:28.001Z</time></trkpt><trkpt lat="50.055855875860516" lon="4.146865310355755"><ele>225.0</ele><time>2026-04-30T14:56:29.001Z</time></trkpt><trkpt lat="50.05592618486427" lon="4.146486152814644"><ele>225.5</ele><time>2026-04-30T14:56:30.001Z</time></trkpt><trkpt lat="50.05599292136006" lon="4.1461028748866635"><ele>226.0</ele><time>2026-04-30T14:56:31.001Z</time></trkpt><trkpt lat="50.056049758117744" lon="4.145708417746649"><ele>226.5</ele><time>2026-04-30T14:56:32.001Z</time></trkpt><trkpt lat="50.05610107850995" lon="4.145309777929012"><ele>227.0</ele><time>2026-04-30T14:56:33.001Z</time></trkpt><trkpt lat="50.05614121058984" lon="4.144888741921599"><ele>228.0</ele><time>2026-04-30T14:56:34.001Z</time></trkpt><trkpt lat="50.056175359094816" lon="4.144459802564706"><ele>229.0</ele><time>2026-04-30T14:56:35.001Z</time></trkpt><trkpt lat="50.05620792124724" lon="4.144024359479259"><ele>229.0</ele><time>2026-04-30T14:56:36Z</time></trkpt><trkpt lat="50.05624183427416" lon="4.143587082023681"><ele>229.0</ele><time>2026-04-30T14:56:37Z</time></trkpt><trkpt lat="50.05627349578916" lon="4.1431373831287015"><ele>229.0</ele><time>2026-04-30T14:56:38Z</time></trkpt><trkpt lat="50.05630792370577" lon="4.142680830750064"><ele>229.0</ele><time>2026-04-30T14:56:39Z</time></trkpt><trkpt lat="50.056344636921914" lon="4.1422244670486315"><ele>229.5</ele><time>2026-04-30T14:56:40Z</time></trkpt><trkpt lat="50.05638037432091" lon="4.141773919128173"><ele>230.0</ele><time>2026-04-30T14:56:41Z</time></trkpt><trkpt lat="50.05641415075825" lon="4.14132306822863"><ele>231.0</ele><time>2026-04-30T14:56:42Z</time></trkpt><trkpt lat="50.0564487770969" lon="4.140872654181976"><ele>232.0</ele><time>2026-04-30T14:56:43Z</time></trkpt><trkpt lat="50.05648568837337" lon="4.140421782478864"><ele>232.0</ele><time>2026-04-30T14:56:44Z</time></trkpt><trkpt lat="50.05652216160031" lon="4.139975964994707"><ele>232.0</ele><time>2026-04-30T14:56:45Z</time></trkpt><trkpt lat="50.05655690735783" lon="4.139536739645642"><ele>232.0</ele><time>2026-04-30T14:56:46Z</time></trkpt><trkpt lat="50.05659116409239" lon="4.139108591483884"><ele>232.0</ele><time>2026-04-30T14:56:47Z</time></trkpt><trkpt lat="50.05662444890277" lon="4.138682895308421"><ele>232.5</ele><time>2026-04-30T14:56:48Z</time></trkpt><trkpt lat="50.05665956048921" lon="4.138262050914939"><ele>233.0</ele><time>2026-04-30T14:56:49Z</time></trkpt><trkpt lat="50.05669594570545" lon="4.137849140713258"><ele>234.0</ele><time>2026-04-30T14:56:50Z</time></trkpt><trkpt lat="50.05673066877429" lon="4.137433730441273"><ele>235.0</ele><time>2026-04-30T14:56:51Z</time></trkpt><trkpt lat="50.056762509823194" lon="4.137028898200621"><ele>235.5</ele><time>2026-04-30T14:56:52Z</time></trkpt><trkpt lat="50.056788002720964" lon="4.136633663972008"><ele>236.0</ele><time>2026-04-30T14:56:53Z</time></trkpt><trkpt lat="50.05681505362212" lon="4.136262114042553"><ele>236.0</ele><time>2026-04-30T14:56:54Z</time></trkpt><trkpt lat="50.056845874306696" lon="4.135913748954591"><ele>236.0</ele><time>2026-04-30T14:56:55Z</time></trkpt><trkpt lat="50.05687445671769" lon="4.135581452232283"><ele>236.0</ele><time>2026-04-30T14:56:56Z</time></trkpt><trkpt lat="50.05689991203043" lon="4.135245189473095"><ele>235.5</ele><time>2026-04-30T14:56:57Z</time></trkpt><trkpt lat="50.0569295710012" lon="4.134870202618405"><ele>235.0</ele><time>2026-04-30T14:56:58Z</time></trkpt><trkpt lat="50.05696554153332" lon="4.1344548640898715"><ele>235.5</ele><time>2026-04-30T14:56:59Z</time></trkpt><trkpt lat="50.057021885770546" lon="4.134036770045949"><ele>236.0</ele><time>2026-04-30T14:57:00Z</time></trkpt><trkpt lat="50.057038530966175" lon="4.133634898287395"><ele>236.0</ele><time>2026-04-30T14:57:01Z</time></trkpt><trkpt lat="50.05706575350246" lon="4.133252483679352"><ele>236.0</ele><time>2026-04-30T14:57:02Z</time></trkpt><trkpt lat="50.057071497538196" lon="4.132869921807094"><ele>237.0</ele><time>2026-04-30T14:57:03Z</time></trkpt><trkpt lat="50.05704923963395" lon="4.132470686353005"><ele>238.0</ele><time>2026-04-30T14:57:04Z</time></trkpt><trkpt lat="50.05700447188983" lon="4.132060534055865"><ele>238.5</ele><time>2026-04-30T14:57:05Z</time></trkpt><trkpt lat="50.05694949234275" lon="4.131632136519442"><ele>239.0</ele><time>2026-04-30T14:57:06Z</time></trkpt><trkpt lat="50.05689999259967" lon="4.131201604785648"><ele>239.0</ele><time>2026-04-30T14:57:07Z</time></trkpt><trkpt lat="50.05685557431854" lon="4.130789478103537"><ele>239.0</ele><time>2026-04-30T14:57:08Z</time></trkpt><trkpt lat="50.05681139571817" lon="4.1304113448624005"><ele>239.0</ele><time>2026-04-30T14:57:09Z</time></trkpt><trkpt lat="50.05677189508778" lon="4.130071830672927"><ele>239.0</ele><time>2026-04-30T14:57:10Z</time></trkpt><trkpt lat="50.05673447382926" lon="4.129760369837938"><ele>239.0</ele><time>2026-04-30T14:57:11Z</time></trkpt><trkpt lat="50.0566983725829" lon="4.129471643735476"><ele>239.0</ele><time>2026-04-30T14:57:12Z</time></trkpt><trkpt lat="50.05666550314116" lon="4.129198109783237"><ele>239.0</ele><time>2026-04-30T14:57:13Z</time></trkpt><trkpt lat="50.05663769909589" lon="4.128944508494889"><ele>239.0</ele><time>2026-04-30T14:57:14Z</time></trkpt><trkpt lat="50.05661132587602" lon="4.128714055945181"><ele>239.33333333333334</ele><time>2026-04-30T14:57:15Z</time></trkpt><trkpt lat="50.05658680574231" lon="4.128477977871264"><ele>239.66666666666669</ele><time>2026-04-30T14:57:16Z</time></trkpt><trkpt lat="50.05656766720182" lon="4.128227453449393"><ele>240.0</ele><time>2026-04-30T14:57:17Z</time></trkpt><trkpt lat="50.05656690140777" lon="4.1280081868900025"><ele>240.2</ele><time>2026-04-30T14:57:18Z</time></trkpt><trkpt lat="50.0565747928587" lon="4.127834922629847"><ele>240.4</ele><time>2026-04-30T14:57:19Z</time></trkpt><trkpt lat="50.056584936681084" lon="4.1276892367759785"><ele>240.60000000000002</ele><time>2026-04-30T14:57:20Z</time></trkpt><trkpt lat="50.05659212235869" lon="4.1275449866301965"><ele>240.8</ele><time>2026-04-30T14:57:21Z</time></trkpt><trkpt lat="50.0566109237611" lon="4.127388224614923"><ele>241.0</ele><time>2026-04-30T14:57:22Z</time></trkpt><trkpt lat="50.05662114532073" lon="4.127199340503407"><ele>241.0</ele><time>2026-04-30T14:57:23Z</time></trkpt><trkpt lat="50.05666386481781" lon="4.126981168262472"><ele>241.0</ele><time>2026-04-30T14:57:24Z</time></trkpt><trkpt lat="50.056693626057154" lon="4.126736578620966"><ele>241.0</ele><time>2026-04-30T14:57:25Z</time></trkpt><trkpt lat="50.056728249076464" lon="4.1264788852779635"><ele>241.0</ele><time>2026-04-30T14:57:26Z</time></trkpt><trkpt lat="50.056767790728664" lon="4.1262122336864495"><ele>241.0</ele><time>2026-04-30T14:57:27Z</time></trkpt><trkpt lat="50.056798735209604" lon="4.125936285781515"><ele>241.0</ele><time>2026-04-30T14:57:28Z</time></trkpt><trkpt lat="50.056829785484666" lon="4.125660376180697"><ele>241.0</ele><time>2026-04-30T14:57:29Z</time></trkpt><trkpt lat="50.05686481374242" lon="4.12539461469903"><ele>241.0</ele><time>2026-04-30T14:57:30Z</time></trkpt><trkpt lat="50.056887301701565" lon="4.12512898047669"><ele>241.0</ele><time>2026-04-30T14:57:31Z</time></trkpt><trkpt lat="50.05693754256354" lon="4.124868718324565"><ele>241.0</ele><time>2026-04-30T14:57:32Z</time></trkpt><trkpt lat="50.056973292959036" lon="4.12459492221262"><ele>241.0</ele><time>2026-04-30T14:57:33Z</time></trkpt><trkpt lat="50.05700144042413" lon="4.12430296066798"><ele>241.0</ele><time>2026-04-30T14:57:34Z</time></trkpt><trkpt lat="50.05705066219935" lon="4.123992787586683"><ele>241.0</ele><time>2026-04-30T14:57:35Z</time></trkpt><trkpt lat="50.05709583965332" lon="4.12364294998442"><ele>241.0</ele><time>2026-04-30T14:57:35.999Z</time></trkpt><trkpt lat="50.05713920314251" lon="4.123285536784937"><ele>239.0</ele><time>2026-04-30T14:57:36.999Z</time></trkpt><trkpt lat="50.057184461871955" lon="4.122931376596615"><ele>237.0</ele><time>2026-04-30T14:57:37.999Z</time></trkpt><trkpt lat="50.0572318150259" lon="4.12257808194767"><ele>235.0</ele><time>2026-04-30T14:57:38.999Z</time></trkpt><trkpt lat="50.05727815910441" lon="4.1222205679349955"><ele>233.0</ele><time>2026-04-30T14:57:39.999Z</time></trkpt><trkpt lat="50.05732617541849" lon="4.1218444268168675"><ele>231.5</ele><time>2026-04-30T14:57:40.999Z</time></trkpt><trkpt lat="50.0573777049038" lon="4.121440415256545"><ele>230.0</ele><time>2026-04-30T14:57:41.999Z</time></trkpt><trkpt lat="50.057428209086545" lon="4.121011524392588"><ele>228.5</ele><time>2026-04-30T14:57:42.999Z</time></trkpt><trkpt lat="50.0574830868047" lon="4.120564758134252"><ele>227.0</ele><time>2026-04-30T14:57:43.999Z</time></trkpt><trkpt lat="50.05754356827841" lon="4.120101604945277"><ele>227.0</ele><time>2026-04-30T14:57:44.999Z</time></trkpt><trkpt lat="50.05760358995491" lon="4.119633121232437"><ele>227.0</ele><time>2026-04-30T14:57:45.999Z</time></trkpt><trkpt lat="50.05766071486371" lon="4.119190385669474"><ele>227.5</ele><time>2026-04-30T14:57:46.999Z</time></trkpt><trkpt lat="50.057717849806295" lon="4.118765913676578"><ele>228.0</ele><time>2026-04-30T14:57:47.999Z</time></trkpt><trkpt lat="50.0577787991037" lon="4.118347180122925"><ele>227.5</ele><time>2026-04-30T14:57:48.999Z</time></trkpt><trkpt lat="50.057843372997866" lon="4.1179383069080515"><ele>227.0</ele><time>2026-04-30T14:57:49.999Z</time></trkpt><trkpt lat="50.057911643345875" lon="4.117540235194626"><ele>227.0</ele><time>2026-04-30T14:57:50.999Z</time></trkpt><trkpt lat="50.05797648987137" lon="4.117145278777636"><ele>227.0</ele><time>2026-04-30T14:57:51.999Z</time></trkpt><trkpt lat="50.05803825445133" lon="4.116759498052194"><ele>228.0</ele><time>2026-04-30T14:57:52.999Z</time></trkpt><trkpt lat="50.05809320578795" lon="4.116379822310447"><ele>229.0</ele><time>2026-04-30T14:57:53.999Z</time></trkpt><trkpt lat="50.058146340847294" lon="4.116017353345891"><ele>229.33333333333331</ele><time>2026-04-30T14:57:54.999Z</time></trkpt><trkpt lat="50.05820447757692" lon="4.115675338861055"><ele>229.66666666666669</ele><time>2026-04-30T14:57:55.999Z</time></trkpt><trkpt lat="50.058261993340835" lon="4.115356522352073"><ele>230.0</ele><time>2026-04-30T14:57:56.999Z</time></trkpt><trkpt lat="50.05832230732655" lon="4.115038307992132"><ele>229.66666666666669</ele><time>2026-04-30T14:57:57.999Z</time></trkpt><trkpt lat="50.058469148605845" lon="4.1148296831737055"><ele>229.33333333333331</ele><time>2026-04-30T14:57:58.999Z</time></trkpt><trkpt lat="50.05856084782281" lon="4.114548850751944"><ele>229.0</ele><time>2026-04-30T14:57:59.999Z</time></trkpt><trkpt lat="50.05864966398406" lon="4.114298576664398"><ele>229.0</ele><time>2026-04-30T14:58:00.999Z</time></trkpt><trkpt lat="50.05873419414243" lon="4.114072243572323"><ele>229.0</ele><time>2026-04-30T14:58:01.999Z</time></trkpt><trkpt lat="50.058813127826234" lon="4.113859167982942"><ele>229.0</ele><time>2026-04-30T14:58:02.999Z</time></trkpt><trkpt lat="50.058885123895514" lon="4.113660034278942"><ele>228.75</ele><time>2026-04-30T14:58:03.999Z</time></trkpt><trkpt lat="50.058951869242456" lon="4.113473086250315"><ele>228.5</ele><time>2026-04-30T14:58:04.999Z</time></trkpt><trkpt lat="50.059020116662396" lon="4.113293107664383"><ele>228.25</ele><time>2026-04-30T14:58:05.999Z</time></trkpt><trkpt lat="50.05908423933045" lon="4.113109542347558"><ele>228.0</ele><time>2026-04-30T14:58:06.999Z</time></trkpt><trkpt lat="50.05914985267551" lon="4.112931482530326"><ele>228.0</ele><time>2026-04-30T14:58:07.999Z</time></trkpt><trkpt lat="50.059219841360964" lon="4.112758352054818"><ele>228.0</ele><time>2026-04-30T14:58:08.999Z</time></trkpt><trkpt lat="50.05928908524531" lon="4.112580115771427"><ele>228.0</ele><time>2026-04-30T14:58:09.999Z</time></trkpt><trkpt lat="50.059356688840474" lon="4.112399510482141"><ele>228.0</ele><time>2026-04-30T14:58:10.999Z</time></trkpt><trkpt lat="50.05942385379719" lon="4.1122190855686975"><ele>228.25</ele><time>2026-04-30T14:58:11.999Z</time></trkpt><trkpt lat="50.05948834691257" lon="4.112040326164828"><ele>228.5</ele><time>2026-04-30T14:58:12.999Z</time></trkpt><trkpt lat="50.059538219807926" lon="4.111852446328501"><ele>228.75</ele><time>2026-04-30T14:58:13.999Z</time></trkpt><trkpt lat="50.0595759103703" lon="4.1116575600859"><ele>229.0</ele><time>2026-04-30T14:58:14.999Z</time></trkpt><trkpt lat="50.05960209862397" lon="4.111462337686159"><ele>228.5</ele><time>2026-04-30T14:58:15.999Z</time></trkpt><trkpt lat="50.059617123375" lon="4.111266634906891"><ele>228.0</ele><time>2026-04-30T14:58:16.999Z</time></trkpt><trkpt lat="50.05961926620891" lon="4.11108365699011"><ele>227.5</ele><time>2026-04-30T14:58:17.999Z</time></trkpt><trkpt lat="50.05961048177336" lon="4.110912438835855"><ele>227.0</ele><time>2026-04-30T14:58:18.999Z</time></trkpt><trkpt lat="50.059594871628036" lon="4.110752099800439"><ele>226.83333333333334</ele><time>2026-04-30T14:58:19.999Z</time></trkpt><trkpt lat="50.05957586888122" lon="4.110597215762917"><ele>226.66666666666669</ele><time>2026-04-30T14:58:20.999Z</time></trkpt><trkpt lat="50.05955168095177" lon="4.110452206897943"><ele>226.5</ele><time>2026-04-30T14:58:21.999Z</time></trkpt><trkpt lat="50.0595278408483" lon="4.110337707619457"><ele>226.33333333333331</ele><time>2026-04-30T14:58:22.999Z</time></trkpt><trkpt lat="50.059489220248835" lon="4.110185878738167"><ele>226.16666666666666</ele><time>2026-04-30T14:58:25.001Z</time></trkpt><trkpt lat="50.05945831671941" lon="4.110089471440004"><ele>226.0</ele><time>2026-04-30T14:58:27.001Z</time></trkpt><trkpt lat="50.059421597096396" lon="4.109987404381042"><ele>225.66666666666666</ele><time>2026-04-30T14:58:30.001Z</time></trkpt><trkpt lat="50.05937375151402" lon="4.109876692600356"><ele>225.33333333333331</ele><time>2026-04-30T14:59:03.999Z</time></trkpt><trkpt lat="50.05932382822603" lon="4.109773583202524"><ele>225.0</ele><time>2026-04-30T14:59:05.999Z</time></trkpt><trkpt lat="50.05928048018461" lon="4.109687535081389"><ele>224.66666666666669</ele><time>2026-04-30T14:59:07.999Z</time></trkpt><trkpt lat="50.059212930729416" lon="4.109548934243373"><ele>224.33333333333334</ele><time>2026-04-30T14:59:09.999Z</time></trkpt><trkpt lat="50.059170997090206" lon="4.109448462951685"><ele>224.0</ele><time>2026-04-30T14:59:10.999Z</time></trkpt><trkpt lat="50.05913958519558" lon="4.109325491825486"><ele>224.00000000000003</ele><time>2026-04-30T14:59:11.999Z</time></trkpt><trkpt lat="50.05912158895119" lon="4.109186519743698"><ele>224.0</ele><time>2026-04-30T14:59:12.999Z</time></trkpt><trkpt lat="50.05907142670712" lon="4.1091257098268175"><ele>224.0</ele><time>2026-04-30T14:59:13.999Z</time></trkpt><trkpt lat="50.05906040122473" lon="4.109003207352223"><ele>224.0</ele><time>2026-04-30T14:59:14.999Z</time></trkpt><trkpt lat="50.05904873610527" lon="4.108896163488337"><ele>224.00000000000003</ele><time>2026-04-30T14:59:15.999Z</time></trkpt><trkpt lat="50.059041831442386" lon="4.108774521812809"><ele>224.0</ele><time>2026-04-30T14:59:16.999Z</time></trkpt><trkpt lat="50.05906876544582" lon="4.108642667788243"><ele>223.66666666666669</ele><time>2026-04-30T14:59:17.999Z</time></trkpt><trkpt lat="50.05906909799844" lon="4.1085047165535755"><ele>223.33333333333334</ele><time>2026-04-30T14:59:18.999Z</time></trkpt><trkpt lat="50.059088089957655" lon="4.10837277928446"><ele>223.0</ele><time>2026-04-30T14:59:19.999Z</time></trkpt><trkpt lat="50.059111507620386" lon="4.108236696364967"><ele>222.66666666666669</ele><time>2026-04-30T14:59:20.999Z</time></trkpt><trkpt lat="50.05913197087408" lon="4.108099614630851"><ele>222.33333333333334</ele><time>2026-04-30T14:59:21.999Z</time></trkpt><trkpt lat="50.05915119694463" lon="4.107963419570258"><ele>222.0</ele><time>2026-04-30T14:59:22.999Z</time></trkpt><trkpt lat="50.05917396632503" lon="4.107835408452478"><ele>221.6</ele><time>2026-04-30T14:59:23.999Z</time></trkpt><trkpt lat="50.059201090093794" lon="4.107710721340759"><ele>221.2</ele><time>2026-04-30T14:59:24.999Z</time></trkpt><trkpt lat="50.05923491457249" lon="4.107585311527739"><ele>220.8</ele><time>2026-04-30T14:59:25.999Z</time></trkpt><trkpt lat="50.059257352762444" lon="4.107440447220983"><ele>220.4</ele><time>2026-04-30T14:59:26.999Z</time></trkpt><trkpt lat="50.05927980861864" lon="4.107294705296671"><ele>220.0</ele><time>2026-04-30T14:59:27.999Z</time></trkpt><trkpt lat="50.05929756880178" lon="4.107149251201042"><ele>219.83333333333331</ele><time>2026-04-30T14:59:28.999Z</time></trkpt><trkpt lat="50.0593038837588" lon="4.107016706629014"><ele>219.66666666666666</ele><time>2026-04-30T14:59:29.999Z</time></trkpt><trkpt lat="50.05930692076193" lon="4.106890008158795"><ele>219.5</ele><time>2026-04-30T14:59:30.999Z</time></trkpt><trkpt lat="50.05930373419724" lon="4.1067834422338665"><ele>219.33333333333331</ele><time>2026-04-30T14:59:31.999Z</time></trkpt><trkpt lat="50.05930412559054" lon="4.10661864942722"><ele>219.16666666666666</ele><time>2026-04-30T14:59:33.999Z</time></trkpt><trkpt lat="50.05929818429967" lon="4.106510184054178"><ele>219.0</ele><time>2026-04-30T14:59:36.999Z</time></trkpt><trkpt lat="50.05928357043096" lon="4.106388706814295"><ele>219.0</ele><time>2026-04-30T14:59:43.999Z</time></trkpt><trkpt lat="50.0592736820212" lon="4.106267042377321"><ele>219.0</ele><time>2026-04-30T14:59:45.999Z</time></trkpt><trkpt lat="50.05926052655505" lon="4.106169956966634"><ele>219.0</ele><time>2026-04-30T14:59:47.999Z</time></trkpt><trkpt lat="50.05923494489047" lon="4.106028527959132"><ele>219.0</ele><time>2026-04-30T14:59:49.999Z</time></trkpt><trkpt lat="50.05920408658165" lon="4.105846538671507"><ele>219.0</ele><time>2026-04-30T14:59:51.998Z</time></trkpt><trkpt lat="50.05919226312081" lon="4.105746663514229"><ele>219.0</ele><time>2026-04-30T14:59:52.998Z</time></trkpt><trkpt lat="50.059187060968085" lon="4.105628505030926"><ele>219.0</ele><time>2026-04-30T14:59:53.998Z</time></trkpt><trkpt lat="50.05918053720867" lon="4.105499455569285"><ele>219.0</ele><time>2026-04-30T14:59:54.998Z</time></trkpt><trkpt lat="50.05918939132564" lon="4.105369589266935"><ele>219.0</ele><time>2026-04-30T14:59:55.998Z</time></trkpt><trkpt lat="50.05919660056264" lon="4.105240729269274"><ele>219.0</ele><time>2026-04-30T14:59:56.998Z</time></trkpt><trkpt lat="50.05919903491762" lon="4.105112054600949"><ele>219.0</ele><time>2026-04-30T14:59:57.998Z</time></trkpt><trkpt lat="50.059204626647315" lon="4.1049805135640325"><ele>219.0</ele><time>2026-04-30T14:59:58.998Z</time></trkpt><trkpt lat="50.059200450206895" lon="4.1048426974005"><ele>218.66666666666666</ele><time>2026-04-30T14:59:59.998Z</time></trkpt><trkpt lat="50.05918307472067" lon="4.104727539208985"><ele>218.33333333333331</ele><time>2026-04-30T15:00:00.998Z</time></trkpt><trkpt lat="50.059168418413186" lon="4.104572986185395"><ele>218.0</ele><time>2026-04-30T15:00:01.998Z</time></trkpt><trkpt lat="50.05915148982032" lon="4.104446254451721"><ele>217.66666666666666</ele><time>2026-04-30T15:00:02.998Z</time></trkpt><trkpt lat="50.05914002530547" lon="4.104329685693228"><ele>217.33333333333331</ele><time>2026-04-30T15:00:03.998Z</time></trkpt><trkpt lat="50.059128449166025" lon="4.104226918269664"><ele>217.0</ele><time>2026-04-30T15:00:04.998Z</time></trkpt><trkpt lat="50.059113839654614" lon="4.1041076111542125"><ele>216.57142857142858</ele><time>2026-04-30T15:00:05.998Z</time></trkpt><trkpt lat="50.059099030971446" lon="4.104003627980135"><ele>216.14285714285714</ele><time>2026-04-30T15:00:06.998Z</time></trkpt><trkpt lat="50.05908723616993" lon="4.103868208862749"><ele>215.71428571428572</ele><time>2026-04-30T15:00:07.998Z</time></trkpt><trkpt lat="50.059070295469326" lon="4.103752736914694"><ele>215.28571428571428</ele><time>2026-04-30T15:00:08.998Z</time></trkpt><trkpt lat="50.05905248724352" lon="4.103649601106181"><ele>214.85714285714286</ele><time>2026-04-30T15:00:09.998Z</time></trkpt><trkpt lat="50.05903226375451" lon="4.103546049168954"><ele>214.42857142857144</ele><time>2026-04-30T15:00:10.998Z</time></trkpt><trkpt lat="50.059005984864505" lon="4.103436483700187"><ele>214.0</ele><time>2026-04-30T15:00:11.998Z</time></trkpt><trkpt lat="50.05897349261107" lon="4.103330081894722"><ele>213.39999999999998</ele><time>2026-04-30T15:00:12.998Z</time></trkpt><trkpt lat="50.058947757039114" lon="4.103237081126012"><ele>212.79999999999998</ele><time>2026-04-30T15:00:13.998Z</time></trkpt><trkpt lat="50.0588934019774" lon="4.103054862528626"><ele>212.2</ele><time>2026-04-30T15:00:15.998Z</time></trkpt><trkpt lat="50.058871230729444" lon="4.1029524791059355"><ele>211.60000000000002</ele><time>2026-04-30T15:00:16.998Z</time></trkpt><trkpt lat="50.05882872424828" lon="4.102784511791551"><ele>211.0</ele><time>2026-04-30T15:00:18.998Z</time></trkpt><trkpt lat="50.05877922046867" lon="4.102645381070988"><ele>210.99999999999997</ele><time>2026-04-30T15:00:20.998Z</time></trkpt><trkpt lat="50.058731685931136" lon="4.102538099385555"><ele>211.0</ele><time>2026-04-30T15:00:22.998Z</time></trkpt><trkpt lat="50.0586498879497" lon="4.102446937527775"><ele>211.0</ele><time>2026-04-30T15:00:27.998Z</time></trkpt><trkpt lat="50.05858496324521" lon="4.102374329167975"><ele>211.0</ele><time>2026-04-30T15:00:29.998Z</time></trkpt><trkpt lat="50.058518916322235" lon="4.102396852388207"><ele>210.99999999999997</ele><time>2026-04-30T15:00:31Z</time></trkpt><trkpt lat="50.0584491330005" lon="4.102373167232814"><ele>211.0</ele><time>2026-04-30T15:00:32Z</time></trkpt><trkpt lat="50.058382813164314" lon="4.102376353637596"><ele>211.14285714285714</ele><time>2026-04-30T15:00:33Z</time></trkpt><trkpt lat="50.058313213636694" lon="4.10238384482948"><ele>211.28571428571428</ele><time>2026-04-30T15:00:34Z</time></trkpt><trkpt lat="50.05824897409182" lon="4.102392094165912"><ele>211.42857142857144</ele><time>2026-04-30T15:00:35Z</time></trkpt><trkpt lat="50.058166965296195" lon="4.102420473110442"><ele>211.57142857142856</ele><time>2026-04-30T15:00:36Z</time></trkpt><trkpt lat="50.05809569890631" lon="4.1023976955443855"><ele>211.7142857142857</ele><time>2026-04-30T15:00:37Z</time></trkpt><trkpt lat="50.0580200426404" lon="4.102408607594072"><ele>211.85714285714286</ele><time>2026-04-30T15:00:38Z</time></trkpt><trkpt lat="50.057945454833245" lon="4.1023693696792085"><ele>212.0</ele><time>2026-04-30T15:00:39Z</time></trkpt><trkpt lat="50.05788584153483" lon="4.102320077417385"><ele>212.00000000000003</ele><time>2026-04-30T15:00:40Z</time></trkpt><trkpt lat="50.05783220604912" lon="4.102254799031017"><ele>212.0</ele><time>2026-04-30T15:00:41Z</time></trkpt><trkpt lat="50.05779805063473" lon="4.102169080335372"><ele>212.0</ele><time>2026-04-30T15:00:42Z</time></trkpt><trkpt lat="50.05776127726884" lon="4.101995784304144"><ele>212.0</ele><time>2026-04-30T15:00:44Z</time></trkpt><trkpt lat="50.05775935290628" lon="4.101801980658814"><ele>212.00000000000003</ele><time>2026-04-30T15:00:46Z</time></trkpt><trkpt lat="50.057775889830744" lon="4.1017002828456555"><ele>212.0</ele><time>2026-04-30T15:00:47Z</time></trkpt><trkpt lat="50.05781122266048" lon="4.101601708321583"><ele>212.50000000000003</ele><time>2026-04-30T15:00:48Z</time></trkpt><trkpt lat="50.057856950179634" lon="4.1015023522419085"><ele>213.0</ele><time>2026-04-30T15:00:49Z</time></trkpt><trkpt lat="50.057904904677386" lon="4.101423263914595"><ele>213.5</ele><time>2026-04-30T15:00:50Z</time></trkpt><trkpt lat="50.05798957382261" lon="4.101305151611587"><ele>214.0</ele><time>2026-04-30T15:00:52Z</time></trkpt><trkpt lat="50.05806234872268" lon="4.101219390951313"><ele>214.50000000000003</ele><time>2026-04-30T15:00:54Z</time></trkpt><trkpt lat="50.05812695885616" lon="4.101117074319062"><ele>215.0</ele><time>2026-04-30T15:00:56.999Z</time></trkpt><trkpt lat="50.05817800882135" lon="4.101048785316998"><ele>215.0</ele><time>2026-04-30T15:00:59.999Z</time></trkpt><trkpt lat="50.05824655777729" lon="4.1009602173897175"><ele>215.0</ele><time>2026-04-30T15:01:02.999Z</time></trkpt><trkpt lat="50.0583029242121" lon="4.1008729143843174"><ele>215.0</ele><time>2026-04-30T15:01:04.999Z</time></trkpt><trkpt lat="50.05835778443916" lon="4.100782393398081"><ele>215.0</ele><time>2026-04-30T15:01:06.999Z</time></trkpt><trkpt lat="50.058441406393" lon="4.100672910091475"><ele>215.0</ele><time>2026-04-30T15:01:08.999Z</time></trkpt><trkpt lat="50.05853076204402" lon="4.100566758181153"><ele>215.00000000000003</ele><time>2026-04-30T15:01:10.999Z</time></trkpt><trkpt lat="50.05860243836779" lon="4.100469127501163"><ele>215.0</ele><time>2026-04-30T15:01:12.999Z</time></trkpt><trkpt lat="50.05867075978259" lon="4.100370371091987"><ele>215.0</ele><time>2026-04-30T15:01:14.999Z</time></trkpt><trkpt lat="50.058738846339644" lon="4.100219323805047"><ele>215.0</ele><time>2026-04-30T15:01:16.999Z</time></trkpt><trkpt lat="50.0587531399775" lon="4.100121266539665"><ele>215.00000000000003</ele><time>2026-04-30T15:01:17.999Z</time></trkpt><trkpt lat="50.05875739236421" lon="4.10001659743727"><ele>215.0</ele><time>2026-04-30T15:01:18.999Z</time></trkpt><trkpt lat="50.05875254091433" lon="4.099905389771678"><ele>215.00000000000003</ele><time>2026-04-30T15:01:19.999Z</time></trkpt><trkpt lat="50.05874035342162" lon="4.099784586717323"><ele>215.0</ele><time>2026-04-30T15:01:20.999Z</time></trkpt><trkpt lat="50.05873744279035" lon="4.0996570087664725"><ele>215.0</ele><time>2026-04-30T15:01:21.999Z</time></trkpt><trkpt lat="50.058723500635935" lon="4.099536078539928"><ele>215.0</ele><time>2026-04-30T15:01:22.999Z</time></trkpt><trkpt lat="50.058717008407825" lon="4.099405102701686"><ele>215.00000000000003</ele><time>2026-04-30T15:01:23.999Z</time></trkpt><trkpt lat="50.058713429606975" lon="4.099289086591985"><ele>215.0</ele><time>2026-04-30T15:01:24.999Z</time></trkpt><trkpt lat="50.058714383379616" lon="4.099188002478103"><ele>215.0</ele><time>2026-04-30T15:01:25.999Z</time></trkpt><trkpt lat="50.05886186129137" lon="4.099112028554982"><ele>215.0</ele><time>2026-04-30T15:01:28.999Z</time></trkpt><trkpt lat="50.05889913699701" lon="4.099223075754485"><ele>215.0</ele><time>2026-04-30T15:01:29.999Z</time></trkpt><trkpt lat="50.05896828164891" lon="4.099331801273575"><ele>215.0</ele><time>2026-04-30T15:01:30.999Z</time></trkpt><trkpt lat="50.059038420007866" lon="4.099476817226337"><ele>213.5</ele><time>2026-04-30T15:01:31.999Z</time></trkpt><trkpt lat="50.05913953158037" lon="4.099603739305754"><ele>212.0</ele><time>2026-04-30T15:01:32.999Z</time></trkpt><trkpt lat="50.05924202051579" lon="4.099746380279964"><ele>210.5</ele><time>2026-04-30T15:01:33.999Z</time></trkpt><trkpt lat="50.05933239378333" lon="4.099870331377959"><ele>209.0</ele><time>2026-04-30T15:01:34.999Z</time></trkpt><trkpt lat="50.059404477818745" lon="4.099985711881936"><ele>208.6</ele><time>2026-04-30T15:01:35.999Z</time></trkpt><trkpt lat="50.059454304011695" lon="4.100124627449766"><ele>208.2</ele><time>2026-04-30T15:01:36.999Z</time></trkpt><trkpt lat="50.0594495893366" lon="4.100292115374304"><ele>207.79999999999998</ele><time>2026-04-30T15:01:37.999Z</time></trkpt><trkpt lat="50.05945560663642" lon="4.100472688559236"><ele>207.39999999999998</ele><time>2026-04-30T15:01:38.999Z</time></trkpt><trkpt lat="50.05943092945055" lon="4.100629866201862"><ele>207.0</ele><time>2026-04-30T15:01:39.999Z</time></trkpt><trkpt lat="50.05942586020611" lon="4.100803192647564"><ele>206.2</ele><time>2026-04-30T15:01:40.999Z</time></trkpt><trkpt lat="50.05940899231039" lon="4.100960904250255"><ele>205.39999999999998</ele><time>2026-04-30T15:01:41.999Z</time></trkpt><trkpt lat="50.05942831691021" lon="4.101124204168562"><ele>204.60000000000002</ele><time>2026-04-30T15:01:42.999Z</time></trkpt><trkpt lat="50.059480946456546" lon="4.101284915747717"><ele>203.8</ele><time>2026-04-30T15:01:43.999Z</time></trkpt><trkpt lat="50.059550976650165" lon="4.101424275020724"><ele>203.0</ele><time>2026-04-30T15:01:44.999Z</time></trkpt><trkpt lat="50.05964042919342" lon="4.101527114980125"><ele>203.4</ele><time>2026-04-30T15:01:45.999Z</time></trkpt><trkpt lat="50.05974052370137" lon="4.10160021785765"><ele>203.8</ele><time>2026-04-30T15:01:46.999Z</time></trkpt><trkpt lat="50.059837073854425" lon="4.10167997335721"><ele>204.2</ele><time>2026-04-30T15:01:47.999Z</time></trkpt><trkpt lat="50.059943834544875" lon="4.101735396471624"><ele>204.6</ele><time>2026-04-30T15:01:48.999Z</time></trkpt><trkpt lat="50.060053057522175" lon="4.101764324353017"><ele>205.0</ele><time>2026-04-30T15:01:49.999Z</time></trkpt><trkpt lat="50.060139647679215" lon="4.101760519882319"><ele>203.0</ele><time>2026-04-30T15:01:50.999Z</time></trkpt><trkpt lat="50.06023946185829" lon="4.101731104955687"><ele>201.0</ele><time>2026-04-30T15:01:51.999Z</time></trkpt><trkpt lat="50.06035855950144" lon="4.1015807797192885"><ele>199.0</ele><time>2026-04-30T15:01:52.999Z</time></trkpt><trkpt lat="50.06046972507373" lon="4.101436289975724"><ele>197.0</ele><time>2026-04-30T15:01:53.999Z</time></trkpt><trkpt lat="50.0605973123091" lon="4.1013512739564595"><ele>197.0</ele><time>2026-04-30T15:01:54.999Z</time></trkpt><trkpt lat="50.060736862314855" lon="4.101334861794542"><ele>197.0</ele><time>2026-04-30T15:01:55.999Z</time></trkpt><trkpt lat="50.06088638496424" lon="4.101398737875279"><ele>197.0</ele><time>2026-04-30T15:01:56.999Z</time></trkpt><trkpt lat="50.06105360631511" lon="4.101434448885958"><ele>196.0</ele><time>2026-04-30T15:01:57.999Z</time></trkpt><trkpt lat="50.06123008161293" lon="4.101473136683454"><ele>195.0</ele><time>2026-04-30T15:01:58.999Z</time></trkpt><trkpt lat="50.0614028002738" lon="4.101510747565323"><ele>194.0</ele><time>2026-04-30T15:01:59.999Z</time></trkpt><trkpt lat="50.061556682609464" lon="4.1015340490198815"><ele>193.33333333333334</ele><time>2026-04-30T15:02:00.999Z</time></trkpt><trkpt lat="50.0617010363695" lon="4.101537450269612"><ele>192.66666666666669</ele><time>2026-04-30T15:02:01.999Z</time></trkpt><trkpt lat="50.06185303418098" lon="4.101554778167746"><ele>192.0</ele><time>2026-04-30T15:02:02.999Z</time></trkpt><trkpt lat="50.062008935976884" lon="4.1015754256369155"><ele>192.0</ele><time>2026-04-30T15:02:03.999Z</time></trkpt><trkpt lat="50.06216413572728" lon="4.101587108090324"><ele>192.0</ele><time>2026-04-30T15:02:04.999Z</time></trkpt><trkpt lat="50.06230731927623" lon="4.101633752666953"><ele>192.0</ele><time>2026-04-30T15:02:05.999Z</time></trkpt><trkpt lat="50.06242927121882" lon="4.101695026818288"><ele>192.0</ele><time>2026-04-30T15:02:06.998Z</time></trkpt><trkpt lat="50.06253909598731" lon="4.101779447051856"><ele>191.5</ele><time>2026-04-30T15:02:07.998Z</time></trkpt><trkpt lat="50.06264992936361" lon="4.101870606165638"><ele>191.0</ele><time>2026-04-30T15:02:08.998Z</time></trkpt><trkpt lat="50.06277808445119" lon="4.101943247023458"><ele>190.5</ele><time>2026-04-30T15:02:09.998Z</time></trkpt><trkpt lat="50.06289908026082" lon="4.102020604460636"><ele>190.0</ele><time>2026-04-30T15:02:10.998Z</time></trkpt><trkpt lat="50.063017408489465" lon="4.102045946147179"><ele>190.0</ele><time>2026-04-30T15:02:11.998Z</time></trkpt><trkpt lat="50.06314485653537" lon="4.102001324088005"><ele>190.0</ele><time>2026-04-30T15:02:12.998Z</time></trkpt><trkpt lat="50.06326607567998" lon="4.101939045180732"><ele>190.0</ele><time>2026-04-30T15:02:13.998Z</time></trkpt><trkpt lat="50.06337375664749" lon="4.101830322671073"><ele>190.0</ele><time>2026-04-30T15:02:14.998Z</time></trkpt><trkpt lat="50.06345453527361" lon="4.101665157364221"><ele>189.75</ele><time>2026-04-30T15:02:15.998Z</time></trkpt><trkpt lat="50.063517896025765" lon="4.101468379456936"><ele>189.5</ele><time>2026-04-30T15:02:16.998Z</time></trkpt><trkpt lat="50.063572081084274" lon="4.10125023597019"><ele>189.25</ele><time>2026-04-30T15:02:17.998Z</time></trkpt><trkpt lat="50.06361782959003" lon="4.101038070457232"><ele>189.0</ele><time>2026-04-30T15:02:18.998Z</time></trkpt><trkpt lat="50.063684434893844" lon="4.100865341400405"><ele>189.0</ele><time>2026-04-30T15:02:19.998Z</time></trkpt><trkpt lat="50.06375112858072" lon="4.100713158745762"><ele>189.0</ele><time>2026-04-30T15:02:20.998Z</time></trkpt><trkpt lat="50.06384068933425" lon="4.100585828679488"><ele>189.0</ele><time>2026-04-30T15:02:21.998Z</time></trkpt><trkpt lat="50.06393916448794" lon="4.100442835852419"><ele>189.0</ele><time>2026-04-30T15:02:22.998Z</time></trkpt><trkpt lat="50.064062575219396" lon="4.100305195976236"><ele>189.0</ele><time>2026-04-30T15:02:23.998Z</time></trkpt><trkpt lat="50.06418487195148" lon="4.100151527066155"><ele>189.0</ele><time>2026-04-30T15:02:24.998Z</time></trkpt><trkpt lat="50.0643115185882" lon="4.099996075967256"><ele>189.0</ele><time>2026-04-30T15:02:25.998Z</time></trkpt><trkpt lat="50.064440678350415" lon="4.099835688549964"><ele>189.0</ele><time>2026-04-30T15:02:26.998Z</time></trkpt><trkpt lat="50.064570889502214" lon="4.099681174795337"><ele>189.0</ele><time>2026-04-30T15:02:27.998Z</time></trkpt><trkpt lat="50.06469515399052" lon="4.0995287725241845"><ele>189.0</ele><time>2026-04-30T15:02:28.998Z</time></trkpt><trkpt lat="50.064823046655796" lon="4.0993718119719285"><ele>189.33333333333334</ele><time>2026-04-30T15:02:29.998Z</time></trkpt><trkpt lat="50.06494888975121" lon="4.099210369551774"><ele>189.66666666666669</ele><time>2026-04-30T15:02:30.998Z</time></trkpt><trkpt lat="50.06507473074221" lon="4.09906787104569"><ele>190.0</ele><time>2026-04-30T15:02:31.998Z</time></trkpt><trkpt lat="50.065220660552846" lon="4.098973404910641"><ele>190.0</ele><time>2026-04-30T15:02:32.998Z</time></trkpt><trkpt lat="50.0653690879072" lon="4.098903620779211"><ele>190.0</ele><time>2026-04-30T15:02:33.998Z</time></trkpt><trkpt lat="50.065526267484394" lon="4.098893486240957"><ele>190.0</ele><time>2026-04-30T15:02:34.998Z</time></trkpt><trkpt lat="50.06567819732375" lon="4.098933142119497"><ele>189.33333333333334</ele><time>2026-04-30T15:02:35.998Z</time></trkpt><trkpt lat="50.0658296527272" lon="4.099016471234085"><ele>188.66666666666666</ele><time>2026-04-30T15:02:37Z</time></trkpt><trkpt lat="50.06598406909838" lon="4.099124352665838"><ele>188.0</ele><time>2026-04-30T15:02:38Z</time></trkpt><trkpt lat="50.06614369219979" lon="4.099246958993972"><ele>188.0</ele><time>2026-04-30T15:02:39Z</time></trkpt><trkpt lat="50.06628958168629" lon="4.099358948754656"><ele>188.0</ele><time>2026-04-30T15:02:40Z</time></trkpt><trkpt lat="50.06641545328774" lon="4.09945446536022"><ele>188.0</ele><time>2026-04-30T15:02:41Z</time></trkpt><trkpt lat="50.066559821557654" lon="4.099561351627209"><ele>188.0</ele><time>2026-04-30T15:02:42Z</time></trkpt><trkpt lat="50.066694683723895" lon="4.099661199830916"><ele>188.0</ele><time>2026-04-30T15:02:43Z</time></trkpt><trkpt lat="50.06681260970217" lon="4.099769237123001"><ele>188.0</ele><time>2026-04-30T15:02:44Z</time></trkpt><trkpt lat="50.0669385594277" lon="4.099865860999026"><ele>188.0</ele><time>2026-04-30T15:02:45Z</time></trkpt><trkpt lat="50.06706658238615" lon="4.099957797956552"><ele>188.33333333333331</ele><time>2026-04-30T15:02:46Z</time></trkpt><trkpt lat="50.06720046390421" lon="4.100054802570029"><ele>188.66666666666666</ele><time>2026-04-30T15:02:47Z</time></trkpt><trkpt lat="50.06734474676579" lon="4.1001642519474455"><ele>189.0</ele><time>2026-04-30T15:02:48Z</time></trkpt><trkpt lat="50.06749747012094" lon="4.10029842097226"><ele>189.0</ele><time>2026-04-30T15:02:49Z</time></trkpt><trkpt lat="50.06765522426922" lon="4.1004670310840785"><ele>189.0</ele><time>2026-04-30T15:02:50Z</time></trkpt><trkpt lat="50.06781110190347" lon="4.100655643118665"><ele>189.0</ele><time>2026-04-30T15:02:51Z</time></trkpt><trkpt lat="50.067951953116754" lon="4.100834001592823"><ele>190.0</ele><time>2026-04-30T15:02:52Z</time></trkpt><trkpt lat="50.068082250529784" lon="4.101001645184735"><ele>191.0</ele><time>2026-04-30T15:02:53Z</time></trkpt><trkpt lat="50.068225138379795" lon="4.101185487907443"><ele>192.0</ele><time>2026-04-30T15:02:54Z</time></trkpt><trkpt lat="50.06837965943824" lon="4.101374699672075"><ele>190.0</ele><time>2026-04-30T15:02:55Z</time></trkpt><trkpt lat="50.06854010804482" lon="4.101589669377698"><ele>188.0</ele><time>2026-04-30T15:02:56Z</time></trkpt><trkpt lat="50.0686667160769" lon="4.101756796659175"><ele>186.0</ele><time>2026-04-30T15:02:57Z</time></trkpt><trkpt lat="50.068804924210966" lon="4.101906402442518"><ele>186.0</ele><time>2026-04-30T15:02:58Z</time></trkpt><trkpt lat="50.068936366862495" lon="4.102089039492763"><ele>186.0</ele><time>2026-04-30T15:02:59Z</time></trkpt><trkpt lat="50.06905318446463" lon="4.102262899279451"><ele>186.0</ele><time>2026-04-30T15:03:00Z</time></trkpt><trkpt lat="50.06918482597561" lon="4.102414852296349"><ele>185.0</ele><time>2026-04-30T15:03:00.999Z</time></trkpt><trkpt lat="50.069291853066844" lon="4.102603074151877"><ele>184.0</ele><time>2026-04-30T15:03:01.999Z</time></trkpt><trkpt lat="50.06939436705581" lon="4.102786422355688"><ele>183.0</ele><time>2026-04-30T15:03:02.999Z</time></trkpt><trkpt lat="50.06948407040944" lon="4.102992398363466"><ele>183.0</ele><time>2026-04-30T15:03:03.999Z</time></trkpt><trkpt lat="50.06955868277526" lon="4.103237583097117"><ele>183.0</ele><time>2026-04-30T15:03:04.999Z</time></trkpt><trkpt lat="50.069577326378266" lon="4.103479522111527"><ele>183.0</ele><time>2026-04-30T15:03:05.999Z</time></trkpt><trkpt lat="50.069585206730814" lon="4.103746263803285"><ele>182.66666666666666</ele><time>2026-04-30T15:03:06.999Z</time></trkpt><trkpt lat="50.06957420335474" lon="4.104020266599328"><ele>182.33333333333331</ele><time>2026-04-30T15:03:07.999Z</time></trkpt><trkpt lat="50.06954667483933" lon="4.104300045612829"><ele>182.0</ele><time>2026-04-30T15:03:08.999Z</time></trkpt><trkpt lat="50.06950920355419" lon="4.104591537348179"><ele>182.33333333333331</ele><time>2026-04-30T15:03:09.999Z</time></trkpt><trkpt lat="50.06948195867814" lon="4.104863977708226"><ele>182.66666666666666</ele><time>2026-04-30T15:03:10.999Z</time></trkpt><trkpt lat="50.06946018195787" lon="4.105113112972296"><ele>183.0</ele><time>2026-04-30T15:03:11.999Z</time></trkpt><trkpt lat="50.06943892669325" lon="4.1053502007040725"><ele>183.0</ele><time>2026-04-30T15:03:12.999Z</time></trkpt><trkpt lat="50.069455711453166" lon="4.105565834944019"><ele>183.0</ele><time>2026-04-30T15:03:13.999Z</time></trkpt><trkpt lat="50.06948453074317" lon="4.105787723242035"><ele>183.0</ele><time>2026-04-30T15:03:14.999Z</time></trkpt><trkpt lat="50.06954679696091" lon="4.106006495804789"><ele>183.0</ele><time>2026-04-30T15:03:15.999Z</time></trkpt><trkpt lat="50.069628256123444" lon="4.106215531821921"><ele>183.33333333333334</ele><time>2026-04-30T15:03:16.999Z</time></trkpt><trkpt lat="50.06973430133063" lon="4.106394733107538"><ele>183.66666666666669</ele><time>2026-04-30T15:03:17.999Z</time></trkpt><trkpt lat="50.06985655042974" lon="4.106530330008248"><ele>184.0</ele><time>2026-04-30T15:03:18.999Z</time></trkpt><trkpt lat="50.06999816481307" lon="4.106643462161299"><ele>184.0</ele><time>2026-04-30T15:03:19.999Z</time></trkpt><trkpt lat="50.07015479501431" lon="4.106732372695312"><ele>184.0</ele><time>2026-04-30T15:03:20.999Z</time></trkpt><trkpt lat="50.070327040608255" lon="4.106808266956837"><ele>184.0</ele><time>2026-04-30T15:03:21.999Z</time></trkpt><trkpt lat="50.070498952241564" lon="4.106902803390329"><ele>184.0</ele><time>2026-04-30T15:03:22.999Z</time></trkpt><trkpt lat="50.07066610053785" lon="4.107018480827268"><ele>184.0</ele><time>2026-04-30T15:03:23.999Z</time></trkpt><trkpt lat="50.0708259092402" lon="4.107148548007122"><ele>184.0</ele><time>2026-04-30T15:03:24.999Z</time></trkpt><trkpt lat="50.070988397462784" lon="4.107307467903367"><ele>184.5</ele><time>2026-04-30T15:03:25.999Z</time></trkpt><trkpt lat="50.07112350314987" lon="4.107463399922934"><ele>185.0</ele><time>2026-04-30T15:03:26.999Z</time></trkpt><trkpt lat="50.0712317067932" lon="4.107597783989094"><ele>185.5</ele><time>2026-04-30T15:03:27.999Z</time></trkpt><trkpt lat="50.071330892508996" lon="4.107732527996243"><ele>186.0</ele><time>2026-04-30T15:03:28.999Z</time></trkpt><trkpt lat="50.07143422816936" lon="4.107857245924661"><ele>186.0</ele><time>2026-04-30T15:03:29.999Z</time></trkpt><trkpt lat="50.07151476562426" lon="4.107964955130769"><ele>186.0</ele><time>2026-04-30T15:03:30.999Z</time></trkpt><trkpt lat="50.07162139607498" lon="4.108048790425387"><ele>186.0</ele><time>2026-04-30T15:03:31.999Z</time></trkpt><trkpt lat="50.07173916243211" lon="4.108144609104496"><ele>186.0</ele><time>2026-04-30T15:03:32.999Z</time></trkpt><trkpt lat="50.071891499915594" lon="4.108225144437646"><ele>188.33333333333331</ele><time>2026-04-30T15:03:33.999Z</time></trkpt><trkpt lat="50.07207377594912" lon="4.1082951636510625"><ele>190.66666666666666</ele><time>2026-04-30T15:03:34.999Z</time></trkpt><trkpt lat="50.0722730000879" lon="4.1083227712742"><ele>193.0</ele><time>2026-04-30T15:03:35.999Z</time></trkpt><trkpt lat="50.07247224402946" lon="4.108302154247098"><ele>195.0</ele><time>2026-04-30T15:03:36.999Z</time></trkpt><trkpt lat="50.07267181763602" lon="4.108229372088186"><ele>197.0</ele><time>2026-04-30T15:03:37.999Z</time></trkpt><trkpt lat="50.07287207184272" lon="4.108131169916637"><ele>199.0</ele><time>2026-04-30T15:03:38.999Z</time></trkpt><trkpt lat="50.073071468702345" lon="4.108013740899464"><ele>198.5</ele><time>2026-04-30T15:03:39.999Z</time></trkpt><trkpt lat="50.0732794684105" lon="4.107869378848674"><ele>198.0</ele><time>2026-04-30T15:03:40.999Z</time></trkpt><trkpt lat="50.07350172059065" lon="4.107738089613448"><ele>198.0</ele><time>2026-04-30T15:03:41.999Z</time></trkpt><trkpt lat="50.07372512589969" lon="4.107611187868934"><ele>198.0</ele><time>2026-04-30T15:03:42.999Z</time></trkpt><trkpt lat="50.07393530827338" lon="4.107490453618365"><ele>197.66666666666669</ele><time>2026-04-30T15:03:43.999Z</time></trkpt><trkpt lat="50.07414189308094" lon="4.107370922648927"><ele>197.33333333333334</ele><time>2026-04-30T15:03:44.999Z</time></trkpt><trkpt lat="50.07433864392158" lon="4.107251184780372"><ele>197.0</ele><time>2026-04-30T15:03:45.999Z</time></trkpt><trkpt lat="50.07454119112391" lon="4.10713142859355"><ele>197.0</ele><time>2026-04-30T15:03:46.999Z</time></trkpt><trkpt lat="50.07474593569561" lon="4.1070065979234816"><ele>197.0</ele><time>2026-04-30T15:03:47.999Z</time></trkpt><trkpt lat="50.07494935125007" lon="4.106883763209025"><ele>197.0</ele><time>2026-04-30T15:03:48.999Z</time></trkpt><trkpt lat="50.07515185915091" lon="4.106765331873089"><ele>196.66666666666669</ele><time>2026-04-30T15:03:49.999Z</time></trkpt><trkpt lat="50.07535504778023" lon="4.106649899409706"><ele>196.33333333333331</ele><time>2026-04-30T15:03:50.999Z</time></trkpt><trkpt lat="50.07556270138795" lon="4.1065318391088335"><ele>196.0</ele><time>2026-04-30T15:03:51.999Z</time></trkpt><trkpt lat="50.07577812607182" lon="4.106410465698307"><ele>195.5</ele><time>2026-04-30T15:03:52.999Z</time></trkpt><trkpt lat="50.076003306468735" lon="4.106283161674684"><ele>195.0</ele><time>2026-04-30T15:03:53.999Z</time></trkpt><trkpt lat="50.0762348800127" lon="4.106150631472856"><ele>195.0</ele><time>2026-04-30T15:03:54.999Z</time></trkpt><trkpt lat="50.07647753464398" lon="4.1060116498731425"><ele>195.0</ele><time>2026-04-30T15:03:55.999Z</time></trkpt><trkpt lat="50.076726217234494" lon="4.10586772300625"><ele>193.0</ele><time>2026-04-30T15:03:56.999Z</time></trkpt><trkpt lat="50.07697706533143" lon="4.105719346930554"><ele>191.0</ele><time>2026-04-30T15:03:57.999Z</time></trkpt><trkpt lat="50.077227924124166" lon="4.105568221476438"><ele>190.0</ele><time>2026-04-30T15:03:58.999Z</time></trkpt><trkpt lat="50.07747756197939" lon="4.105421610183065"><ele>189.0</ele><time>2026-04-30T15:03:59.999Z</time></trkpt><trkpt lat="50.07772207744599" lon="4.105283207728413"><ele>189.0</ele><time>2026-04-30T15:04:00.999Z</time></trkpt><trkpt lat="50.077960962262" lon="4.105150814025733"><ele>189.0</ele><time>2026-04-30T15:04:01.999Z</time></trkpt><trkpt lat="50.07820064722095" lon="4.105014092718181"><ele>189.5</ele><time>2026-04-30T15:04:02.999Z</time></trkpt><trkpt lat="50.078440890766586" lon="4.104875747653631"><ele>190.0</ele><time>2026-04-30T15:04:03.999Z</time></trkpt><trkpt lat="50.078678265258624" lon="4.104740478817449"><ele>190.0</ele><time>2026-04-30T15:04:04.999Z</time></trkpt><trkpt lat="50.078915380522076" lon="4.104603736247829"><ele>190.0</ele><time>2026-04-30T15:04:05.999Z</time></trkpt><trkpt lat="50.07915621275694" lon="4.104462495284734"><ele>192.0</ele><time>2026-04-30T15:04:06.999Z</time></trkpt><trkpt lat="50.07939245644081" lon="4.10432493456662"><ele>194.0</ele><time>2026-04-30T15:04:07.999Z</time></trkpt><trkpt lat="50.079626097962745" lon="4.1041905475602665"><ele>194.0</ele><time>2026-04-30T15:04:08.999Z</time></trkpt><trkpt lat="50.079859692351725" lon="4.104051513686522"><ele>194.0</ele><time>2026-04-30T15:04:09.999Z</time></trkpt><trkpt lat="50.08009800765407" lon="4.103917082008322"><ele>195.0</ele><time>2026-04-30T15:04:10.999Z</time></trkpt><trkpt lat="50.080341050053875" lon="4.1037788814923415"><ele>196.0</ele><time>2026-04-30T15:04:11.999Z</time></trkpt><trkpt lat="50.08058758128251" lon="4.103641099329898"><ele>196.5</ele><time>2026-04-30T15:04:12.999Z</time></trkpt><trkpt lat="50.08083421198501" lon="4.103498453138138"><ele>197.0</ele><time>2026-04-30T15:04:13.998Z</time></trkpt><trkpt lat="50.08107731431991" lon="4.103358170094549"><ele>198.5</ele><time>2026-04-30T15:04:14.998Z</time></trkpt><trkpt lat="50.08131660346387" lon="4.103219272112211"><ele>200.0</ele><time>2026-04-30T15:04:15.998Z</time></trkpt><trkpt lat="50.081553502769694" lon="4.1030823559950935"><ele>201.0</ele><time>2026-04-30T15:04:16.998Z</time></trkpt><trkpt lat="50.0817903462617" lon="4.102945256413933"><ele>202.0</ele><time>2026-04-30T15:04:17.998Z</time></trkpt><trkpt lat="50.082015470409665" lon="4.102816525806575"><ele>202.0</ele><time>2026-04-30T15:04:18.998Z</time></trkpt><trkpt lat="50.08224028794535" lon="4.1026909651920365"><ele>202.0</ele><time>2026-04-30T15:04:19.998Z</time></trkpt><trkpt lat="50.08246379475686" lon="4.102564693278043"><ele>203.0</ele><time>2026-04-30T15:04:20.998Z</time></trkpt><trkpt lat="50.082687230758594" lon="4.102436363681161"><ele>204.0</ele><time>2026-04-30T15:04:21.998Z</time></trkpt><trkpt lat="50.08290357959287" lon="4.102313030880906"><ele>205.0</ele><time>2026-04-30T15:04:22.998Z</time></trkpt><trkpt lat="50.083113582193086" lon="4.102190620776071"><ele>206.0</ele><time>2026-04-30T15:04:23.998Z</time></trkpt><trkpt lat="50.08332568531401" lon="4.102067899596217"><ele>206.0</ele><time>2026-04-30T15:04:24.998Z</time></trkpt><trkpt lat="50.08353977583136" lon="4.101949198524244"><ele>206.0</ele><time>2026-04-30T15:04:25.998Z</time></trkpt><trkpt lat="50.08375631435135" lon="4.101832882899131"><ele>206.0</ele><time>2026-04-30T15:04:26.998Z</time></trkpt><trkpt lat="50.08397597649679" lon="4.1017072440608215"><ele>206.0</ele><time>2026-04-30T15:04:27.998Z</time></trkpt><trkpt lat="50.08419863558031" lon="4.101579496042048"><ele>206.0</ele><time>2026-04-30T15:04:28.998Z</time></trkpt><trkpt lat="50.084428139211575" lon="4.101447646090486"><ele>206.0</ele><time>2026-04-30T15:04:29.998Z</time></trkpt><trkpt lat="50.08466030963527" lon="4.101314927290186"><ele>206.0</ele><time>2026-04-30T15:04:30.998Z</time></trkpt><trkpt lat="50.08489571293342" lon="4.101183558351047"><ele>206.0</ele><time>2026-04-30T15:04:31.998Z</time></trkpt><trkpt lat="50.08513365338915" lon="4.101053399253246"><ele>203.0</ele><time>2026-04-30T15:04:32.998Z</time></trkpt><trkpt lat="50.08536970022454" lon="4.100918956740579"><ele>200.0</ele><time>2026-04-30T15:04:33.998Z</time></trkpt><trkpt lat="50.08560722697932" lon="4.100776470400465"><ele>199.0</ele><time>2026-04-30T15:04:34.998Z</time></trkpt><trkpt lat="50.08584755416165" lon="4.100635055673262"><ele>198.0</ele><time>2026-04-30T15:04:35.998Z</time></trkpt><trkpt lat="50.0860904857374" lon="4.100494522042315"><ele>198.0</ele><time>2026-04-30T15:04:36.998Z</time></trkpt><trkpt lat="50.08634636021106" lon="4.100341648090096"><ele>198.0</ele><time>2026-04-30T15:04:37.998Z</time></trkpt><trkpt lat="50.08660710691387" lon="4.100188297174676"><ele>196.5</ele><time>2026-04-30T15:04:38.998Z</time></trkpt><trkpt lat="50.086873540690775" lon="4.100034720231324"><ele>195.0</ele><time>2026-04-30T15:04:39.998Z</time></trkpt><trkpt lat="50.08714270435598" lon="4.09988616343377"><ele>194.0</ele><time>2026-04-30T15:04:40.998Z</time></trkpt><trkpt lat="50.08741298245416" lon="4.099742927053603"><ele>193.0</ele><time>2026-04-30T15:04:41.998Z</time></trkpt><trkpt lat="50.087680617435254" lon="4.099602122222145"><ele>193.0</ele><time>2026-04-30T15:04:43Z</time></trkpt><trkpt lat="50.08794556634149" lon="4.0994564923711545"><ele>193.0</ele><time>2026-04-30T15:04:44Z</time></trkpt><trkpt lat="50.088205967449724" lon="4.099312460900256"><ele>195.5</ele><time>2026-04-30T15:04:45Z</time></trkpt><trkpt lat="50.08846207956373" lon="4.099168441253065"><ele>198.0</ele><time>2026-04-30T15:04:46Z</time></trkpt><trkpt lat="50.088705791908154" lon="4.099028526257954"><ele>198.0</ele><time>2026-04-30T15:04:47Z</time></trkpt><trkpt lat="50.08893240182286" lon="4.098897540189334"><ele>198.0</ele><time>2026-04-30T15:04:48Z</time></trkpt><trkpt lat="50.08915450340575" lon="4.09877509550762"><ele>202.0</ele><time>2026-04-30T15:04:49Z</time></trkpt><trkpt lat="50.08937597955519" lon="4.09865229038574"><ele>206.0</ele><time>2026-04-30T15:04:50Z</time></trkpt><trkpt lat="50.08959775360445" lon="4.098529700796219"><ele>206.0</ele><time>2026-04-30T15:04:51Z</time></trkpt><trkpt lat="50.089819543250144" lon="4.098407706795642"><ele>206.0</ele><time>2026-04-30T15:04:52Z</time></trkpt><trkpt lat="50.09004539802524" lon="4.098281010945041"><ele>211.5</ele><time>2026-04-30T15:04:53Z</time></trkpt><trkpt lat="50.090268173163224" lon="4.098158857919073"><ele>217.0</ele><time>2026-04-30T15:04:54Z</time></trkpt><trkpt lat="50.09048333554541" lon="4.098040539804465"><ele>217.0</ele><time>2026-04-30T15:04:55Z</time></trkpt><trkpt lat="50.0906934033885" lon="4.097927588255113"><ele>217.0</ele><time>2026-04-30T15:04:56Z</time></trkpt><trkpt lat="50.090899485092976" lon="4.09781923648736"><ele>217.0</ele><time>2026-04-30T15:04:57Z</time></trkpt><trkpt lat="50.091097801476636" lon="4.097705287567334"><ele>217.0</ele><time>2026-04-30T15:04:58Z</time></trkpt><trkpt lat="50.0912952884342" lon="4.097573590327999"><ele>217.0</ele><time>2026-04-30T15:04:59Z</time></trkpt><trkpt lat="50.09149494858143" lon="4.097426941630759"><ele>217.0</ele><time>2026-04-30T15:05:00Z</time></trkpt><trkpt lat="50.091701611758786" lon="4.09727473991608"><ele>216.0</ele><time>2026-04-30T15:05:01Z</time></trkpt><trkpt lat="50.09191369950655" lon="4.097121938391171"><ele>215.0</ele><time>2026-04-30T15:05:02Z</time></trkpt><trkpt lat="50.09212763374326" lon="4.096958767723495"><ele>215.0</ele><time>2026-04-30T15:05:03Z</time></trkpt><trkpt lat="50.092340493887534" lon="4.096793896034366"><ele>215.0</ele><time>2026-04-30T15:05:04Z</time></trkpt><trkpt lat="50.092553511987504" lon="4.096625835285866"><ele>213.5</ele><time>2026-04-30T15:05:05Z</time></trkpt><trkpt lat="50.092768294165865" lon="4.096456252020043"><ele>212.0</ele><time>2026-04-30T15:05:06Z</time></trkpt><trkpt lat="50.0929867583554" lon="4.09628499187713"><ele>212.0</ele><time>2026-04-30T15:05:07Z</time></trkpt><trkpt lat="50.093206922959986" lon="4.096108673365935"><ele>212.0</ele><time>2026-04-30T15:05:08Z</time></trkpt><trkpt lat="50.093433051755746" lon="4.0959337937564255"><ele>211.0</ele><time>2026-04-30T15:05:09Z</time></trkpt><trkpt lat="50.09366108925933" lon="4.095757307910082"><ele>210.0</ele><time>2026-04-30T15:05:10Z</time></trkpt><trkpt lat="50.09388627946132" lon="4.095580736220976"><ele>213.0</ele><time>2026-04-30T15:05:11Z</time></trkpt><trkpt lat="50.09410962762069" lon="4.095400848313625"><ele>216.0</ele><time>2026-04-30T15:05:12Z</time></trkpt><trkpt lat="50.09433137783627" lon="4.0952221606730586"><ele>216.0</ele><time>2026-04-30T15:05:13Z</time></trkpt><trkpt lat="50.09455081540484" lon="4.095044397941524"><ele>216.0</ele><time>2026-04-30T15:05:14Z</time></trkpt><trkpt lat="50.09476849095977" lon="4.09487076421638"><ele>219.5</ele><time>2026-04-30T15:05:15Z</time></trkpt><trkpt lat="50.09498403106197" lon="4.094700162009249"><ele>223.0</ele><time>2026-04-30T15:05:16Z</time></trkpt><trkpt lat="50.09519827456537" lon="4.094530594107841"><ele>223.0</ele><time>2026-04-30T15:05:17Z</time></trkpt><trkpt lat="50.09540977100867" lon="4.09436346232105"><ele>223.0</ele><time>2026-04-30T15:05:18Z</time></trkpt><trkpt lat="50.095615781129325" lon="4.094200144565623"><ele>225.0</ele><time>2026-04-30T15:05:19Z</time></trkpt><trkpt lat="50.09581997061278" lon="4.0940380261190965"><ele>227.0</ele><time>2026-04-30T15:05:20Z</time></trkpt><trkpt lat="50.09602285118725" lon="4.093877659525507"><ele>227.0</ele><time>2026-04-30T15:05:21Z</time></trkpt><trkpt lat="50.09622095789521" lon="4.093723125131615"><ele>227.0</ele><time>2026-04-30T15:05:22Z</time></trkpt><trkpt lat="50.09641755572711" lon="4.093566856948586"><ele>227.0</ele><time>2026-04-30T15:05:23Z</time></trkpt><trkpt lat="50.09661358966124" lon="4.093413477921377"><ele>228.33333333333334</ele><time>2026-04-30T15:05:23.999Z</time></trkpt><trkpt lat="50.09680754198513" lon="4.093257683799888"><ele>229.66666666666669</ele><time>2026-04-30T15:05:24.999Z</time></trkpt><trkpt lat="50.097002712550726" lon="4.093099837389149"><ele>231.0</ele><time>2026-04-30T15:05:25.999Z</time></trkpt><trkpt lat="50.09719778079983" lon="4.09293785699178"><ele>232.5</ele><time>2026-04-30T15:05:26.999Z</time></trkpt><trkpt lat="50.09739876105903" lon="4.092773263667755"><ele>234.0</ele><time>2026-04-30T15:05:27.999Z</time></trkpt><trkpt lat="50.097602355087034" lon="4.092608951594831"><ele>234.5</ele><time>2026-04-30T15:05:28.999Z</time></trkpt><trkpt lat="50.0978099509128" lon="4.092440800663754"><ele>235.0</ele><time>2026-04-30T15:05:29.999Z</time></trkpt><trkpt lat="50.098021630273664" lon="4.092263997305317"><ele>235.5</ele><time>2026-04-30T15:05:30.999Z</time></trkpt><trkpt lat="50.098232266121634" lon="4.092083857937954"><ele>236.0</ele><time>2026-04-30T15:05:31.999Z</time></trkpt><trkpt lat="50.09843883547522" lon="4.091906241336769"><ele>236.0</ele><time>2026-04-30T15:05:32.999Z</time></trkpt><trkpt lat="50.098639889243486" lon="4.09173323676101"><ele>236.0</ele><time>2026-04-30T15:05:33.999Z</time></trkpt><trkpt lat="50.09883836198213" lon="4.0915652162688305"><ele>235.66666666666669</ele><time>2026-04-30T15:05:34.999Z</time></trkpt><trkpt lat="50.09904116521784" lon="4.091414932954332"><ele>235.33333333333331</ele><time>2026-04-30T15:05:35.999Z</time></trkpt><trkpt lat="50.09924313221298" lon="4.091284519982969"><ele>235.0</ele><time>2026-04-30T15:05:36.999Z</time></trkpt><trkpt lat="50.09945402585482" lon="4.091173123963375"><ele>232.0</ele><time>2026-04-30T15:05:37.999Z</time></trkpt><trkpt lat="50.099671874878574" lon="4.091073531708529"><ele>229.0</ele><time>2026-04-30T15:05:38.999Z</time></trkpt><trkpt lat="50.0998891423429" lon="4.0909811698098055"><ele>229.66666666666666</ele><time>2026-04-30T15:05:39.999Z</time></trkpt><trkpt lat="50.10010343269415" lon="4.090882507429824"><ele>230.33333333333331</ele><time>2026-04-30T15:05:40.999Z</time></trkpt><trkpt lat="50.10031655525311" lon="4.090782987993108"><ele>231.0</ele><time>2026-04-30T15:05:41.999Z</time></trkpt><trkpt lat="50.100529361422474" lon="4.090681038335085"><ele>231.33333333333331</ele><time>2026-04-30T15:05:42.999Z</time></trkpt><trkpt lat="50.10074241080428" lon="4.09057676328625"><ele>231.66666666666666</ele><time>2026-04-30T15:05:43.999Z</time></trkpt><trkpt lat="50.10095194171591" lon="4.0904628456388865"><ele>232.0</ele><time>2026-04-30T15:05:44.999Z</time></trkpt><trkpt lat="50.10115514545791" lon="4.090336969982631"><ele>231.0</ele><time>2026-04-30T15:05:45.999Z</time></trkpt><trkpt lat="50.10135582087829" lon="4.0901979764538385"><ele>230.0</ele><time>2026-04-30T15:05:46.999Z</time></trkpt><trkpt lat="50.10155208543503" lon="4.090048921961827"><ele>229.0</ele><time>2026-04-30T15:05:47.999Z</time></trkpt><trkpt lat="50.101745074564576" lon="4.089885144635182"><ele>228.0</ele><time>2026-04-30T15:05:48.999Z</time></trkpt><trkpt lat="50.10193612438519" lon="4.089711254250812"><ele>227.0</ele><time>2026-04-30T15:05:49.999Z</time></trkpt><trkpt lat="50.102124944517385" lon="4.089541481521276"><ele>226.0</ele><time>2026-04-30T15:05:50.999Z</time></trkpt><trkpt lat="50.102313406296645" lon="4.089373307059681"><ele>225.33333333333331</ele><time>2026-04-30T15:05:51.999Z</time></trkpt><trkpt lat="50.10250013005214" lon="4.089207028971422"><ele>224.66666666666669</ele><time>2026-04-30T15:05:52.999Z</time></trkpt><trkpt lat="50.102683518261344" lon="4.089044032062093"><ele>224.0</ele><time>2026-04-30T15:05:53.999Z</time></trkpt><trkpt lat="50.10286144965033" lon="4.088886715739512"><ele>224.0</ele><time>2026-04-30T15:05:54.999Z</time></trkpt><trkpt lat="50.10303380875541" lon="4.0887383593262525"><ele>224.0</ele><time>2026-04-30T15:05:55.999Z</time></trkpt><trkpt lat="50.10320396447745" lon="4.088584893371574"><ele>224.0</ele><time>2026-04-30T15:05:56.999Z</time></trkpt><trkpt lat="50.1033782582496" lon="4.088430931422823"><ele>224.0</ele><time>2026-04-30T15:05:57.999Z</time></trkpt><trkpt lat="50.10355315841383" lon="4.088278353576713"><ele>224.0</ele><time>2026-04-30T15:05:58.999Z</time></trkpt><trkpt lat="50.1037313856484" lon="4.08812152974617"><ele>224.0</ele><time>2026-04-30T15:05:59.999Z</time></trkpt><trkpt lat="50.10391151138079" lon="4.087973783982158"><ele>222.33333333333334</ele><time>2026-04-30T15:06:00.999Z</time></trkpt><trkpt lat="50.104093825676735" lon="4.08785870697902"><ele>220.66666666666669</ele><time>2026-04-30T15:06:01.999Z</time></trkpt><trkpt lat="50.10428035463391" lon="4.0877710520012025"><ele>219.0</ele><time>2026-04-30T15:06:02.999Z</time></trkpt><trkpt lat="50.104467584351084" lon="4.087713242717659"><ele>219.0</ele><time>2026-04-30T15:06:03.999Z</time></trkpt><trkpt lat="50.10464413567477" lon="4.08764977524221"><ele>219.0</ele><time>2026-04-30T15:06:04.999Z</time></trkpt><trkpt lat="50.10482329502032" lon="4.087551723137758"><ele>219.0</ele><time>2026-04-30T15:06:05.999Z</time></trkpt><trkpt lat="50.105001825056014" lon="4.087440741028847"><ele>219.66666666666669</ele><time>2026-04-30T15:06:06.999Z</time></trkpt><trkpt lat="50.10518074618738" lon="4.087301050211429"><ele>220.33333333333334</ele><time>2026-04-30T15:06:07.999Z</time></trkpt><trkpt lat="50.10535780880597" lon="4.087140534296735"><ele>221.0</ele><time>2026-04-30T15:06:08.999Z</time></trkpt><trkpt lat="50.105527905819955" lon="4.086981504293711"><ele>221.0</ele><time>2026-04-30T15:06:09.999Z</time></trkpt><trkpt lat="50.10570852292567" lon="4.0869078322384285"><ele>221.0</ele><time>2026-04-30T15:06:10.999Z</time></trkpt><trkpt lat="50.10587791394177" lon="4.086775909986343"><ele>221.0</ele><time>2026-04-30T15:06:11.999Z</time></trkpt><trkpt lat="50.106037195728796" lon="4.086651620811288"><ele>222.33333333333334</ele><time>2026-04-30T15:06:12.999Z</time></trkpt><trkpt lat="50.10619578336352" lon="4.08653216684521"><ele>223.66666666666669</ele><time>2026-04-30T15:06:13.999Z</time></trkpt><trkpt lat="50.10635539758666" lon="4.086404909377723"><ele>225.0</ele><time>2026-04-30T15:06:14.999Z</time></trkpt><trkpt lat="50.10651804369935" lon="4.086287288078083"><ele>224.0</ele><time>2026-04-30T15:06:15.999Z</time></trkpt><trkpt lat="50.10669171220737" lon="4.086208028703056"><ele>223.0</ele><time>2026-04-30T15:06:16.999Z</time></trkpt><trkpt lat="50.106875963513424" lon="4.086170321945264"><ele>222.0</ele><time>2026-04-30T15:06:17.999Z</time></trkpt><trkpt lat="50.1070671780016" lon="4.08615019816428"><ele>222.0</ele><time>2026-04-30T15:06:18.999Z</time></trkpt><trkpt lat="50.10724517100934" lon="4.086127989110109"><ele>222.0</ele><time>2026-04-30T15:06:19.999Z</time></trkpt><trkpt lat="50.107423724805585" lon="4.08609210188913"><ele>222.0</ele><time>2026-04-30T15:06:20.999Z</time></trkpt><trkpt lat="50.107603291307186" lon="4.086038113105712"><ele>221.33333333333331</ele><time>2026-04-30T15:06:21.999Z</time></trkpt><trkpt lat="50.10776973876697" lon="4.08597631254912"><ele>220.66666666666666</ele><time>2026-04-30T15:06:22.999Z</time></trkpt><trkpt lat="50.10792686148828" lon="4.085889124704108"><ele>220.0</ele><time>2026-04-30T15:06:23.999Z</time></trkpt><trkpt lat="50.10808126222482" lon="4.085792695648861"><ele>219.33333333333331</ele><time>2026-04-30T15:06:24.999Z</time></trkpt><trkpt lat="50.10823890469872" lon="4.085703571274978"><ele>218.66666666666669</ele><time>2026-04-30T15:06:25.999Z</time></trkpt><trkpt lat="50.10839205212972" lon="4.085618003599646"><ele>218.0</ele><time>2026-04-30T15:06:26.999Z</time></trkpt><trkpt lat="50.108555284723394" lon="4.08553359954925"><ele>218.0</ele><time>2026-04-30T15:06:27.999Z</time></trkpt><trkpt lat="50.10871891614335" lon="4.08545720172853"><ele>218.0</ele><time>2026-04-30T15:06:28.999Z</time></trkpt><trkpt lat="50.10888748754402" lon="4.08538980433509"><ele>218.0</ele><time>2026-04-30T15:06:29.999Z</time></trkpt><trkpt lat="50.10905210719791" lon="4.085335118511009"><ele>215.66666666666669</ele><time>2026-04-30T15:06:30.999Z</time></trkpt><trkpt lat="50.10921266000363" lon="4.085284337947668"><ele>213.33333333333331</ele><time>2026-04-30T15:06:31.999Z</time></trkpt><trkpt lat="50.10936617030381" lon="4.0852302136062155"><ele>211.0</ele><time>2026-04-30T15:06:32.999Z</time></trkpt><trkpt lat="50.1095214891958" lon="4.085181429389979"><ele>211.0</ele><time>2026-04-30T15:06:33.999Z</time></trkpt><trkpt lat="50.1096755503979" lon="4.085129335392576"><ele>211.0</ele><time>2026-04-30T15:06:34.999Z</time></trkpt><trkpt lat="50.10983211731082" lon="4.085075684775944"><ele>211.0</ele><time>2026-04-30T15:06:35.999Z</time></trkpt><trkpt lat="50.109972246289644" lon="4.085022183693814"><ele>209.25</ele><time>2026-04-30T15:06:36.999Z</time></trkpt><trkpt lat="50.11010548267886" lon="4.0849762113658254"><ele>207.5</ele><time>2026-04-30T15:06:37.999Z</time></trkpt><trkpt lat="50.11024384564421" lon="4.084933635572551"><ele>205.75</ele><time>2026-04-30T15:06:38.999Z</time></trkpt><trkpt lat="50.11038725322588" lon="4.0848820215248995"><ele>204.0</ele><time>2026-04-30T15:06:39.999Z</time></trkpt><trkpt lat="50.11053228659781" lon="4.084824757652324"><ele>203.0</ele><time>2026-04-30T15:06:40.998Z</time></trkpt><trkpt lat="50.11067379108095" lon="4.0847757178165"><ele>202.0</ele><time>2026-04-30T15:06:41.998Z</time></trkpt><trkpt lat="50.110809562777284" lon="4.084732143698565"><ele>201.0</ele><time>2026-04-30T15:06:42.998Z</time></trkpt><trkpt lat="50.110940028971285" lon="4.084692423441925"><ele>200.0</ele><time>2026-04-30T15:06:43.998Z</time></trkpt><trkpt lat="50.11107022318224" lon="4.08464094118233"><ele>199.25</ele><time>2026-04-30T15:06:44.998Z</time></trkpt><trkpt lat="50.111206433044906" lon="4.084592770484949"><ele>198.5</ele><time>2026-04-30T15:06:45.998Z</time></trkpt><trkpt lat="50.11134223058676" lon="4.08455613125878"><ele>197.75</ele><time>2026-04-30T15:06:46.998Z</time></trkpt><trkpt lat="50.11147662237539" lon="4.084517782811361"><ele>197.0</ele><time>2026-04-30T15:06:47.998Z</time></trkpt><trkpt lat="50.11161220726306" lon="4.084472409149938"><ele>197.0</ele><time>2026-04-30T15:06:49Z</time></trkpt><trkpt lat="50.11174459261527" lon="4.084423715542118"><ele>197.0</ele><time>2026-04-30T15:06:50Z</time></trkpt><trkpt lat="50.11188035521246" lon="4.084369807325191"><ele>197.0</ele><time>2026-04-30T15:06:51Z</time></trkpt><trkpt lat="50.11202137726651" lon="4.084305655562061"><ele>197.0</ele><time>2026-04-30T15:06:52Z</time></trkpt><trkpt lat="50.112163092000664" lon="4.084242854438711"><ele>197.0</ele><time>2026-04-30T15:06:53Z</time></trkpt><trkpt lat="50.112303921088284" lon="4.084170987244183"><ele>197.0</ele><time>2026-04-30T15:06:54Z</time></trkpt><trkpt lat="50.11244638357634" lon="4.084090394629492"><ele>197.0</ele><time>2026-04-30T15:06:55Z</time></trkpt><trkpt lat="50.11258700203201" lon="4.084015791614018"><ele>197.0</ele><time>2026-04-30T15:06:56Z</time></trkpt><trkpt lat="50.11272016710454" lon="4.083934172189062"><ele>196.0</ele><time>2026-04-30T15:06:57Z</time></trkpt><trkpt lat="50.11285292775291" lon="4.083852299440291"><ele>195.0</ele><time>2026-04-30T15:06:58Z</time></trkpt><trkpt lat="50.112996063715016" lon="4.083777051987908"><ele>194.0</ele><time>2026-04-30T15:06:59Z</time></trkpt><trkpt lat="50.11314281605553" lon="4.083710139175586"><ele>193.0</ele><time>2026-04-30T15:07:00Z</time></trkpt><trkpt lat="50.11329128449684" lon="4.083649626857583"><ele>190.0</ele><time>2026-04-30T15:07:01Z</time></trkpt><trkpt lat="50.113442449070185" lon="4.083589516969401"><ele>187.0</ele><time>2026-04-30T15:07:02Z</time></trkpt><trkpt lat="50.1135974687927" lon="4.083524308118505"><ele>184.0</ele><time>2026-04-30T15:07:03Z</time></trkpt><trkpt lat="50.11375555395944" lon="4.083462695572008"><ele>184.0</ele><time>2026-04-30T15:07:04Z</time></trkpt><trkpt lat="50.113915258797384" lon="4.083400151732373"><ele>184.0</ele><time>2026-04-30T15:07:05Z</time></trkpt><trkpt lat="50.11406972579268" lon="4.083335582832121"><ele>184.0</ele><time>2026-04-30T15:07:06Z</time></trkpt><trkpt lat="50.11422085205598" lon="4.083269729593406"><ele>182.0</ele><time>2026-04-30T15:07:07Z</time></trkpt><trkpt lat="50.114369292887325" lon="4.083212362805415"><ele>180.0</ele><time>2026-04-30T15:07:08Z</time></trkpt><trkpt lat="50.11451661381098" lon="4.083145412355986"><ele>178.0</ele><time>2026-04-30T15:07:09Z</time></trkpt><trkpt lat="50.11466971447637" lon="4.083084304170934"><ele>178.0</ele><time>2026-04-30T15:07:10Z</time></trkpt><trkpt lat="50.11482369347176" lon="4.083026448991894"><ele>178.0</ele><time>2026-04-30T15:07:11Z</time></trkpt><trkpt lat="50.114977957236064" lon="4.082966558808842"><ele>178.0</ele><time>2026-04-30T15:07:12Z</time></trkpt><trkpt lat="50.115125246044904" lon="4.082914298974376"><ele>177.25</ele><time>2026-04-30T15:07:13Z</time></trkpt><trkpt lat="50.11526665824792" lon="4.082865988712819"><ele>176.5</ele><time>2026-04-30T15:07:14Z</time></trkpt><trkpt lat="50.11539928984099" lon="4.082826385341744"><ele>175.75</ele><time>2026-04-30T15:07:15Z</time></trkpt><trkpt lat="50.11552736924611" lon="4.082787539364776"><ele>175.0</ele><time>2026-04-30T15:07:16Z</time></trkpt><trkpt lat="50.11565412055163" lon="4.08273684168572"><ele>174.2</ele><time>2026-04-30T15:07:17Z</time></trkpt><trkpt lat="50.11576623139182" lon="4.082674127419203"><ele>173.4</ele><time>2026-04-30T15:07:18Z</time></trkpt><trkpt lat="50.115857974680544" lon="4.082608820883676"><ele>172.60000000000002</ele><time>2026-04-30T15:07:19Z</time></trkpt><trkpt lat="50.11593098903266" lon="4.082551782368682"><ele>171.8</ele><time>2026-04-30T15:07:20Z</time></trkpt><trkpt lat="50.11601558552596" lon="4.08248595266751"><ele>171.0</ele><time>2026-04-30T15:07:22Z</time></trkpt><trkpt lat="50.116112069049194" lon="4.082414908643317"><ele>170.8</ele><time>2026-04-30T15:07:26Z</time></trkpt><trkpt lat="50.11616181820162" lon="4.082286715287969"><ele>170.60000000000002</ele><time>2026-04-30T15:07:28Z</time></trkpt><trkpt lat="50.116141331148896" lon="4.082188117028092"><ele>170.4</ele><time>2026-04-30T15:07:29Z</time></trkpt><trkpt lat="50.11608497364652" lon="4.082080391111734"><ele>170.2</ele><time>2026-04-30T15:07:30Z</time></trkpt><trkpt lat="50.11602148951256" lon="4.081955632656572"><ele>170.0</ele><time>2026-04-30T15:07:31Z</time></trkpt><trkpt lat="50.115971610541266" lon="4.081790347231742"><ele>170.0</ele><time>2026-04-30T15:07:32Z</time></trkpt><trkpt lat="50.115942477073006" lon="4.081599294753608"><ele>170.0</ele><time>2026-04-30T15:07:33Z</time></trkpt><trkpt lat="50.11594344697769" lon="4.081423363718587"><ele>170.0</ele><time>2026-04-30T15:07:34Z</time></trkpt><trkpt lat="50.11596737710377" lon="4.081227883493988"><ele>170.0</ele><time>2026-04-30T15:07:35Z</time></trkpt><trkpt lat="50.116011917934685" lon="4.081002851126577"><ele>168.75</ele><time>2026-04-30T15:07:36Z</time></trkpt><trkpt lat="50.11606615475368" lon="4.08075728525531"><ele>167.5</ele><time>2026-04-30T15:07:37Z</time></trkpt><trkpt lat="50.11610525438418" lon="4.0805299542683775"><ele>166.25</ele><time>2026-04-30T15:07:38Z</time></trkpt><trkpt lat="50.11610057026249" lon="4.080337001534513"><ele>165.0</ele><time>2026-04-30T15:07:39Z</time></trkpt><trkpt lat="50.11607063734254" lon="4.080149424619889"><ele>165.0</ele><time>2026-04-30T15:07:40Z</time></trkpt><trkpt lat="50.11602012737177" lon="4.079962760767651"><ele>165.0</ele><time>2026-04-30T15:07:41Z</time></trkpt><trkpt lat="50.11592616681323" lon="4.079777905282708"><ele>165.0</ele><time>2026-04-30T15:07:42Z</time></trkpt><trkpt lat="50.11580415534827" lon="4.079581788437912"><ele>165.66666666666666</ele><time>2026-04-30T15:07:43Z</time></trkpt><trkpt lat="50.115677940060614" lon="4.079368270194665"><ele>166.33333333333331</ele><time>2026-04-30T15:07:44Z</time></trkpt><trkpt lat="50.115571353729884" lon="4.079149303983143"><ele>167.0</ele><time>2026-04-30T15:07:45Z</time></trkpt><trkpt lat="50.11547376754458" lon="4.078948363177223"><ele>167.0</ele><time>2026-04-30T15:07:46Z</time></trkpt><trkpt lat="50.11538430239533" lon="4.078742160372604"><ele>167.0</ele><time>2026-04-30T15:07:47Z</time></trkpt><trkpt lat="50.11529683843499" lon="4.078520710380053"><ele>167.0</ele><time>2026-04-30T15:07:48Z</time></trkpt><trkpt lat="50.11518943177255" lon="4.078289544249714"><ele>167.0</ele><time>2026-04-30T15:07:48.999Z</time></trkpt><trkpt lat="50.11510102463472" lon="4.078067760734059"><ele>167.0</ele><time>2026-04-30T15:07:49.999Z</time></trkpt><trkpt lat="50.115023790889495" lon="4.077863235316679"><ele>167.0</ele><time>2026-04-30T15:07:50.999Z</time></trkpt><trkpt lat="50.11495401404646" lon="4.077666138833693"><ele>167.0</ele><time>2026-04-30T15:07:51.999Z</time></trkpt><trkpt lat="50.11490760820606" lon="4.077446719189544"><ele>167.0</ele><time>2026-04-30T15:07:52.999Z</time></trkpt><trkpt lat="50.11486724374246" lon="4.0772085865862255"><ele>167.0</ele><time>2026-04-30T15:07:53.999Z</time></trkpt><trkpt lat="50.11482544441282" lon="4.076944785270215"><ele>168.33333333333331</ele><time>2026-04-30T15:07:54.999Z</time></trkpt><trkpt lat="50.11478918777225" lon="4.076642729672192"><ele>169.66666666666666</ele><time>2026-04-30T15:07:55.999Z</time></trkpt><trkpt lat="50.11475606044633" lon="4.076359639217966"><ele>171.0</ele><time>2026-04-30T15:07:56.999Z</time></trkpt><trkpt lat="50.11472707965015" lon="4.076068285740274"><ele>172.0</ele><time>2026-04-30T15:07:57.999Z</time></trkpt><trkpt lat="50.114705461534925" lon="4.075792715188252"><ele>173.0</ele><time>2026-04-30T15:07:58.999Z</time></trkpt><trkpt lat="50.114684890213624" lon="4.075547751310986"><ele>174.0</ele><time>2026-04-30T15:07:59.999Z</time></trkpt><trkpt lat="50.114677284207794" lon="4.07529390701003"><ele>175.0</ele><time>2026-04-30T15:08:00.999Z</time></trkpt><trkpt lat="50.114671682121056" lon="4.075031306167529"><ele>176.0</ele><time>2026-04-30T15:08:01.999Z</time></trkpt><trkpt lat="50.11464177812421" lon="4.074790651606673"><ele>177.0</ele><time>2026-04-30T15:08:02.999Z</time></trkpt><trkpt lat="50.11460936560893" lon="4.074555189485024"><ele>178.33333333333334</ele><time>2026-04-30T15:08:03.999Z</time></trkpt><trkpt lat="50.114554069385385" lon="4.074335495735746"><ele>179.66666666666669</ele><time>2026-04-30T15:08:04.999Z</time></trkpt><trkpt lat="50.11450682026811" lon="4.074110585427686"><ele>181.0</ele><time>2026-04-30T15:08:05.999Z</time></trkpt><trkpt lat="50.11445732976513" lon="4.073880531306651"><ele>181.25</ele><time>2026-04-30T15:08:06.999Z</time></trkpt><trkpt lat="50.114412959391174" lon="4.073655554006308"><ele>181.5</ele><time>2026-04-30T15:08:07.999Z</time></trkpt><trkpt lat="50.11437867253056" lon="4.073427560742872"><ele>181.75</ele><time>2026-04-30T15:08:08.999Z</time></trkpt><trkpt lat="50.11433912516637" lon="4.073210112549895"><ele>182.0</ele><time>2026-04-30T15:08:09.999Z</time></trkpt><trkpt lat="50.11429661972721" lon="4.07299566753762"><ele>181.33333333333331</ele><time>2026-04-30T15:08:10.999Z</time></trkpt><trkpt lat="50.1142530221029" lon="4.072780762224241"><ele>180.66666666666666</ele><time>2026-04-30T15:08:11.999Z</time></trkpt><trkpt lat="50.11419494584775" lon="4.072561638186654"><ele>180.0</ele><time>2026-04-30T15:08:12.999Z</time></trkpt><trkpt lat="50.114120112927594" lon="4.072343116824161"><ele>180.66666666666666</ele><time>2026-04-30T15:08:13.999Z</time></trkpt><trkpt lat="50.11403640731918" lon="4.072121239062018"><ele>181.33333333333331</ele><time>2026-04-30T15:08:14.999Z</time></trkpt><trkpt lat="50.113944305322875" lon="4.071891808572251"><ele>182.0</ele><time>2026-04-30T15:08:15.999Z</time></trkpt><trkpt lat="50.11385301746207" lon="4.071672133643542"><ele>182.33333333333331</ele><time>2026-04-30T15:08:16.999Z</time></trkpt><trkpt lat="50.113783239195016" lon="4.071459532709267"><ele>182.66666666666666</ele><time>2026-04-30T15:08:17.999Z</time></trkpt><trkpt lat="50.1137393429884" lon="4.071238390329121"><ele>183.0</ele><time>2026-04-30T15:08:18.999Z</time></trkpt><trkpt lat="50.11371726683399" lon="4.07099713902102"><ele>182.33333333333334</ele><time>2026-04-30T15:08:19.999Z</time></trkpt><trkpt lat="50.113717959657635" lon="4.070738214386379"><ele>181.66666666666669</ele><time>2026-04-30T15:08:20.999Z</time></trkpt><trkpt lat="50.113745490715544" lon="4.070469855039937"><ele>181.0</ele><time>2026-04-30T15:08:21.999Z</time></trkpt><trkpt lat="50.11379982909514" lon="4.070190495229894"><ele>181.0</ele><time>2026-04-30T15:08:22.999Z</time></trkpt><trkpt lat="50.113862357193995" lon="4.069897075020073"><ele>181.0</ele><time>2026-04-30T15:08:23.999Z</time></trkpt><trkpt lat="50.11392679668769" lon="4.069587387827698"><ele>181.0</ele><time>2026-04-30T15:08:24.999Z</time></trkpt><trkpt lat="50.113984014374154" lon="4.069243478159242"><ele>180.5</ele><time>2026-04-30T15:08:25.999Z</time></trkpt><trkpt lat="50.114033066982785" lon="4.068857534910606"><ele>180.0</ele><time>2026-04-30T15:08:26.999Z</time></trkpt><trkpt lat="50.114071984018295" lon="4.068443386483784"><ele>177.0</ele><time>2026-04-30T15:08:27.999Z</time></trkpt><trkpt lat="50.114108454644736" lon="4.0680191322964445"><ele>174.0</ele><time>2026-04-30T15:08:28.999Z</time></trkpt><trkpt lat="50.1141408515301" lon="4.067632895237469"><ele>173.5</ele><time>2026-04-30T15:08:29.999Z</time></trkpt><trkpt lat="50.11417634592232" lon="4.06725260374015"><ele>173.0</ele><time>2026-04-30T15:08:30.999Z</time></trkpt><trkpt lat="50.11420816024128" lon="4.066872965330127"><ele>172.5</ele><time>2026-04-30T15:08:31.999Z</time></trkpt><trkpt lat="50.11423552823142" lon="4.066494193611168"><ele>172.0</ele><time>2026-04-30T15:08:32.999Z</time></trkpt><trkpt lat="50.11425512027336" lon="4.06609462653831"><ele>172.0</ele><time>2026-04-30T15:08:33.999Z</time></trkpt><trkpt lat="50.1142724722384" lon="4.065688032524296"><ele>172.0</ele><time>2026-04-30T15:08:34.999Z</time></trkpt><trkpt lat="50.11429494701918" lon="4.065261366234279"><ele>172.0</ele><time>2026-04-30T15:08:35.999Z</time></trkpt><trkpt lat="50.11432574434452" lon="4.064822136873683"><ele>172.0</ele><time>2026-04-30T15:08:36.999Z</time></trkpt><trkpt lat="50.114365036363694" lon="4.0643721562607"><ele>173.0</ele><time>2026-04-30T15:08:37.999Z</time></trkpt><trkpt lat="50.114406805427" lon="4.063925100576483"><ele>174.0</ele><time>2026-04-30T15:08:38.999Z</time></trkpt><trkpt lat="50.11444574593631" lon="4.063498436080711"><ele>175.0</ele><time>2026-04-30T15:08:39.999Z</time></trkpt><trkpt lat="50.11448179312018" lon="4.063086219830999"><ele>176.0</ele><time>2026-04-30T15:08:40.999Z</time></trkpt><trkpt lat="50.11451804547867" lon="4.062679075301381"><ele>177.0</ele><time>2026-04-30T15:08:41.999Z</time></trkpt><trkpt lat="50.11455114958458" lon="4.062275781807821"><ele>178.0</ele><time>2026-04-30T15:08:42.999Z</time></trkpt><trkpt lat="50.114574956813776" lon="4.061882948934615"><ele>179.5</ele><time>2026-04-30T15:08:43.999Z</time></trkpt><trkpt lat="50.11462579020797" lon="4.061479187111749"><ele>181.0</ele><time>2026-04-30T15:08:44.999Z</time></trkpt><trkpt lat="50.11464696733358" lon="4.061085959118599"><ele>183.0</ele><time>2026-04-30T15:08:45.999Z</time></trkpt><trkpt lat="50.1146793395291" lon="4.060709076493039"><ele>185.0</ele><time>2026-04-30T15:08:46.999Z</time></trkpt><trkpt lat="50.114713235746834" lon="4.06034781368546"><ele>185.0</ele><time>2026-04-30T15:08:47.999Z</time></trkpt><trkpt lat="50.11474529996763" lon="4.060015282113183"><ele>185.0</ele><time>2026-04-30T15:08:48.999Z</time></trkpt><trkpt lat="50.11478401187452" lon="4.059703003478427"><ele>185.0</ele><time>2026-04-30T15:08:49.999Z</time></trkpt><trkpt lat="50.114833358084674" lon="4.059411250320244"><ele>185.66666666666666</ele><time>2026-04-30T15:08:50.999Z</time></trkpt><trkpt lat="50.114887875426646" lon="4.059115548972612"><ele>186.33333333333334</ele><time>2026-04-30T15:08:51.999Z</time></trkpt><trkpt lat="50.11494177909002" lon="4.0588052551679805"><ele>187.0</ele><time>2026-04-30T15:08:52.999Z</time></trkpt><trkpt lat="50.11499725599679" lon="4.0584972724515405"><ele>187.33333333333334</ele><time>2026-04-30T15:08:53.999Z</time></trkpt><trkpt lat="50.115049273878554" lon="4.058214305209996"><ele>187.66666666666666</ele><time>2026-04-30T15:08:55Z</time></trkpt><trkpt lat="50.11509084138611" lon="4.057946553942409"><ele>188.0</ele><time>2026-04-30T15:08:56Z</time></trkpt><trkpt lat="50.11510903888618" lon="4.0576566156609415"><ele>187.0</ele><time>2026-04-30T15:08:57Z</time></trkpt><trkpt lat="50.11509940918666" lon="4.057354878179842"><ele>186.0</ele><time>2026-04-30T15:08:58Z</time></trkpt><trkpt lat="50.11507788697407" lon="4.057042339263923"><ele>185.0</ele><time>2026-04-30T15:08:59Z</time></trkpt><trkpt lat="50.115043426493294" lon="4.0567352956245815"><ele>183.5</ele><time>2026-04-30T15:09:00Z</time></trkpt><trkpt lat="50.114974982748194" lon="4.056373176320673"><ele>182.0</ele><time>2026-04-30T15:09:01Z</time></trkpt><trkpt lat="50.11491706476229" lon="4.055978190694595"><ele>180.5</ele><time>2026-04-30T15:09:02Z</time></trkpt><trkpt lat="50.11485572651563" lon="4.055558688682358"><ele>179.0</ele><time>2026-04-30T15:09:03Z</time></trkpt><trkpt lat="50.11479024235084" lon="4.0551148986206345"><ele>178.0</ele><time>2026-04-30T15:09:04Z</time></trkpt><trkpt lat="50.114729869018674" lon="4.054664988959353"><ele>177.0</ele><time>2026-04-30T15:09:05Z</time></trkpt><trkpt lat="50.114677062890706" lon="4.054221791757138"><ele>177.5</ele><time>2026-04-30T15:09:06Z</time></trkpt><trkpt lat="50.11463670719213" lon="4.053785648210388"><ele>178.0</ele><time>2026-04-30T15:09:07Z</time></trkpt><trkpt lat="50.11459743816672" lon="4.053352992319118"><ele>178.5</ele><time>2026-04-30T15:09:08Z</time></trkpt><trkpt lat="50.11455660336962" lon="4.052969577893223"><ele>179.0</ele><time>2026-04-30T15:09:09Z</time></trkpt><trkpt lat="50.11450641711154" lon="4.052563028588671"><ele>178.66666666666666</ele><time>2026-04-30T15:09:10Z</time></trkpt><trkpt lat="50.11447357435795" lon="4.052250743892723"><ele>178.33333333333334</ele><time>2026-04-30T15:09:11Z</time></trkpt><trkpt lat="50.11444344738049" lon="4.051926162637761"><ele>178.0</ele><time>2026-04-30T15:09:12Z</time></trkpt><trkpt lat="50.114423889752054" lon="4.051591730634976"><ele>177.33333333333334</ele><time>2026-04-30T15:09:13Z</time></trkpt><trkpt lat="50.114417686224954" lon="4.051260941463505"><ele>176.66666666666666</ele><time>2026-04-30T15:09:14Z</time></trkpt><trkpt lat="50.11441412733331" lon="4.0509206135351405"><ele>176.0</ele><time>2026-04-30T15:09:15Z</time></trkpt><trkpt lat="50.11440399480929" lon="4.050569640035722"><ele>175.0</ele><time>2026-04-30T15:09:16Z</time></trkpt><trkpt lat="50.11438903853895" lon="4.0502093946438835"><ele>174.0</ele><time>2026-04-30T15:09:17Z</time></trkpt><trkpt lat="50.11437798739578" lon="4.049827306992394"><ele>172.5</ele><time>2026-04-30T15:09:18Z</time></trkpt><trkpt lat="50.114367626756916" lon="4.0494301682564275"><ele>171.0</ele><time>2026-04-30T15:09:19Z</time></trkpt><trkpt lat="50.11435790427946" lon="4.0490337772368905"><ele>170.0</ele><time>2026-04-30T15:09:20Z</time></trkpt><trkpt lat="50.11434760967472" lon="4.04864598242313"><ele>169.0</ele><time>2026-04-30T15:09:21Z</time></trkpt><trkpt lat="50.11433527356091" lon="4.048288457505621"><ele>169.0</ele><time>2026-04-30T15:09:22Z</time></trkpt><trkpt lat="50.11433628096803" lon="4.047961644176815"><ele>169.0</ele><time>2026-04-30T15:09:23Z</time></trkpt><trkpt lat="50.11436325890206" lon="4.047666415473148"><ele>169.0</ele><time>2026-04-30T15:09:24Z</time></trkpt><trkpt lat="50.11441447368942" lon="4.047383141522859"><ele>171.33333333333334</ele><time>2026-04-30T15:09:25Z</time></trkpt><trkpt lat="50.114468942782" lon="4.047089946442488"><ele>173.66666666666666</ele><time>2026-04-30T15:09:26Z</time></trkpt><trkpt lat="50.1145047629445" lon="4.046778512039408"><ele>176.0</ele><time>2026-04-30T15:09:27Z</time></trkpt><trkpt lat="50.11451519300018" lon="4.046427055490323"><ele>177.33333333333331</ele><time>2026-04-30T15:09:28Z</time></trkpt><trkpt lat="50.11449254861124" lon="4.046098215826779"><ele>178.66666666666666</ele><time>2026-04-30T15:09:29Z</time></trkpt><trkpt lat="50.114467223004695" lon="4.045746497477942"><ele>180.0</ele><time>2026-04-30T15:09:30Z</time></trkpt><trkpt lat="50.11441637056573" lon="4.045403849180396"><ele>181.0</ele><time>2026-04-30T15:09:31Z</time></trkpt><trkpt lat="50.11440214648065" lon="4.0450517234109284"><ele>182.0</ele><time>2026-04-30T15:09:32Z</time></trkpt><trkpt lat="50.11435303100191" lon="4.044797539934226"><ele>183.0</ele><time>2026-04-30T15:09:33Z</time></trkpt><trkpt lat="50.11432810044658" lon="4.044542003116642"><ele>183.33333333333334</ele><time>2026-04-30T15:09:34Z</time></trkpt><trkpt lat="50.11430550554767" lon="4.044328447243083"><ele>183.66666666666669</ele><time>2026-04-30T15:09:35Z</time></trkpt><trkpt lat="50.11429438229954" lon="4.0440799662475255"><ele>184.0</ele><time>2026-04-30T15:09:36Z</time></trkpt><trkpt lat="50.114312440740584" lon="4.043845863967552"><ele>183.5</ele><time>2026-04-30T15:09:37Z</time></trkpt><trkpt lat="50.11434407954024" lon="4.043634465843012"><ele>183.0</ele><time>2026-04-30T15:09:38Z</time></trkpt><trkpt lat="50.11437351751786" lon="4.043414029148944"><ele>182.5</ele><time>2026-04-30T15:09:39Z</time></trkpt><trkpt lat="50.1143954305194" lon="4.043215083968673"><ele>182.0</ele><time>2026-04-30T15:09:40Z</time></trkpt><trkpt lat="50.11441780751671" lon="4.0430050220434"><ele>181.5</ele><time>2026-04-30T15:09:41Z</time></trkpt><trkpt lat="50.11443113333934" lon="4.042814632110949"><ele>181.0</ele><time>2026-04-30T15:09:42Z</time></trkpt><trkpt lat="50.11440698828052" lon="4.042615745515145"><ele>180.5</ele><time>2026-04-30T15:09:43Z</time></trkpt><trkpt lat="50.11435140638702" lon="4.042430200871836"><ele>180.0</ele><time>2026-04-30T15:09:44Z</time></trkpt><trkpt lat="50.11427453849947" lon="4.042235759327667"><ele>179.25</ele><time>2026-04-30T15:09:45Z</time></trkpt><trkpt lat="50.114215677336844" lon="4.042032385350792"><ele>178.5</ele><time>2026-04-30T15:09:46Z</time></trkpt><trkpt lat="50.114179179818116" lon="4.041824334288859"><ele>177.75</ele><time>2026-04-30T15:09:47Z</time></trkpt><trkpt lat="50.114162336658666" lon="4.0416186125004065"><ele>177.0</ele><time>2026-04-30T15:09:48Z</time></trkpt><trkpt lat="50.114173330847365" lon="4.041434378961211"><ele>176.25</ele><time>2026-04-30T15:09:49Z</time></trkpt><trkpt lat="50.11418247732948" lon="4.041226712312829"><ele>175.5</ele><time>2026-04-30T15:09:50Z</time></trkpt><trkpt lat="50.1141813507949" lon="4.041023307368533"><ele>174.75</ele><time>2026-04-30T15:09:50.999Z</time></trkpt><trkpt lat="50.11418745882041" lon="4.040822290889826"><ele>174.0</ele><time>2026-04-30T15:09:51.999Z</time></trkpt><trkpt lat="50.11418423966181" lon="4.040628385938778"><ele>173.25</ele><time>2026-04-30T15:09:52.999Z</time></trkpt><trkpt lat="50.11417757124101" lon="4.040420866662249"><ele>172.5</ele><time>2026-04-30T15:09:53.999Z</time></trkpt><trkpt lat="50.11416690946499" lon="4.04021070755424"><ele>171.75</ele><time>2026-04-30T15:09:54.999Z</time></trkpt><trkpt lat="50.11416068201757" lon="4.040014589703269"><ele>171.0</ele><time>2026-04-30T15:09:55.999Z</time></trkpt><trkpt lat="50.114144100330975" lon="4.03982944329127"><ele>171.4</ele><time>2026-04-30T15:09:56.999Z</time></trkpt><trkpt lat="50.11412237324495" lon="4.039640609991891"><ele>171.8</ele><time>2026-04-30T15:09:57.999Z</time></trkpt><trkpt lat="50.11410492664964" lon="4.039453989954624"><ele>172.20000000000002</ele><time>2026-04-30T15:09:58.999Z</time></trkpt><trkpt lat="50.11408464625889" lon="4.03928690979365"><ele>172.60000000000002</ele><time>2026-04-30T15:09:59.999Z</time></trkpt><trkpt lat="50.1140638349026" lon="4.039142274650266"><ele>173.0</ele><time>2026-04-30T15:10:00.999Z</time></trkpt><trkpt lat="50.11406308498154" lon="4.039022298883164"><ele>172.2</ele><time>2026-04-30T15:10:01.999Z</time></trkpt><trkpt lat="50.11409333620258" lon="4.038921186220025"><ele>171.4</ele><time>2026-04-30T15:10:02.999Z</time></trkpt><trkpt lat="50.114157581494744" lon="4.038861530833913"><ele>170.6</ele><time>2026-04-30T15:10:03.999Z</time></trkpt><trkpt lat="50.114240256655386" lon="4.038860529709171"><ele>169.79999999999998</ele><time>2026-04-30T15:10:04.999Z</time></trkpt><trkpt lat="50.11433798220481" lon="4.038906913346649"><ele>169.0</ele><time>2026-04-30T15:10:05.999Z</time></trkpt><trkpt lat="50.11445372745253" lon="4.038971463594264"><ele>169.0</ele><time>2026-04-30T15:10:06.999Z</time></trkpt><trkpt lat="50.11457985481907" lon="4.039059326292114"><ele>169.0</ele><time>2026-04-30T15:10:07.999Z</time></trkpt><trkpt lat="50.114722011296" lon="4.039158401967077"><ele>169.0</ele><time>2026-04-30T15:10:08.999Z</time></trkpt><trkpt lat="50.11486252362056" lon="4.039244065912657"><ele>169.0</ele><time>2026-04-30T15:10:09.999Z</time></trkpt><trkpt lat="50.11499210189035" lon="4.039315318389747"><ele>168.39999999999998</ele><time>2026-04-30T15:10:10.999Z</time></trkpt><trkpt lat="50.11511529036924" lon="4.03937044307704"><ele>167.8</ele><time>2026-04-30T15:10:11.999Z</time></trkpt><trkpt lat="50.11519423188864" lon="4.039419647918893"><ele>167.2</ele><time>2026-04-30T15:10:12.999Z</time></trkpt><trkpt lat="50.115282659959554" lon="4.039464914372074"><ele>166.60000000000002</ele><time>2026-04-30T15:10:13.999Z</time></trkpt><trkpt lat="50.11535989495682" lon="4.039500064270794"><ele>166.0</ele><time>2026-04-30T15:10:14.999Z</time></trkpt><trkpt lat="50.11545470614131" lon="4.039557652652147"><ele>166.0</ele><time>2026-04-30T15:10:15.999Z</time></trkpt><trkpt lat="50.11556237112133" lon="4.039618104426145"><ele>166.0</ele><time>2026-04-30T15:10:16.999Z</time></trkpt><trkpt lat="50.11565988761437" lon="4.039685517782388"><ele>166.0</ele><time>2026-04-30T15:10:17.999Z</time></trkpt><trkpt lat="50.115793613193986" lon="4.039764422720183"><ele>166.0</ele><time>2026-04-30T15:10:18.999Z</time></trkpt><trkpt lat="50.115937246830725" lon="4.039838270845095"><ele>166.0</ele><time>2026-04-30T15:10:19.999Z</time></trkpt><trkpt lat="50.11606367098413" lon="4.039912741484554"><ele>166.0</ele><time>2026-04-30T15:10:20.999Z</time></trkpt><trkpt lat="50.116179767990864" lon="4.039985697562107"><ele>166.0</ele><time>2026-04-30T15:10:21.998Z</time></trkpt><trkpt lat="50.11629542555438" lon="4.040067894538294"><ele>166.0</ele><time>2026-04-30T15:10:22.998Z</time></trkpt><trkpt lat="50.11641067593355" lon="4.040144658856256"><ele>166.25</ele><time>2026-04-30T15:10:23.998Z</time></trkpt><trkpt lat="50.116530184850184" lon="4.040210466306937"><ele>166.5</ele><time>2026-04-30T15:10:24.998Z</time></trkpt><trkpt lat="50.11665274122188" lon="4.040259450988781"><ele>166.75</ele><time>2026-04-30T15:10:25.998Z</time></trkpt><trkpt lat="50.11677359394782" lon="4.040271826365939"><ele>167.0</ele><time>2026-04-30T15:10:26.998Z</time></trkpt><trkpt lat="50.11690061685093" lon="4.040253131058093"><ele>166.5</ele><time>2026-04-30T15:10:27.998Z</time></trkpt><trkpt lat="50.11702751340398" lon="4.0401932261892135"><ele>166.0</ele><time>2026-04-30T15:10:28.998Z</time></trkpt><trkpt lat="50.11715070871417" lon="4.0401014957998465"><ele>165.5</ele><time>2026-04-30T15:10:29.998Z</time></trkpt><trkpt lat="50.11726779981574" lon="4.040001181516906"><ele>165.0</ele><time>2026-04-30T15:10:30.998Z</time></trkpt><trkpt lat="50.11737667485211" lon="4.039923241541276"><ele>164.5</ele><time>2026-04-30T15:10:31.998Z</time></trkpt><trkpt lat="50.117456161159375" lon="4.039859613225915"><ele>164.0</ele><time>2026-04-30T15:10:32.998Z</time></trkpt><trkpt lat="50.11752993620633" lon="4.0398031044420915"><ele>163.5</ele><time>2026-04-30T15:10:33.998Z</time></trkpt><trkpt lat="50.11759552241355" lon="4.039764752977219"><ele>163.0</ele><time>2026-04-30T15:10:34.998Z</time></trkpt><trkpt lat="50.117657897779395" lon="4.039730800038069"><ele>162.5</ele><time>2026-04-30T15:10:35.998Z</time></trkpt><trkpt lat="50.11774141081565" lon="4.039685879638541"><ele>162.0</ele><time>2026-04-30T15:10:39.998Z</time></trkpt><trkpt lat="50.117717180457" lon="4.03949773238285"><ele>162.0</ele><time>2026-04-30T15:10:40.998Z</time></trkpt><trkpt lat="50.117689068278096" lon="4.039361819701747"><ele>162.0</ele><time>2026-04-30T15:10:41.998Z</time></trkpt><trkpt lat="50.11765446268294" lon="4.039192029566274"><ele>162.0</ele><time>2026-04-30T15:10:42.998Z</time></trkpt><trkpt lat="50.11761914121459" lon="4.038974995966169"><ele>162.0</ele><time>2026-04-30T15:10:43.998Z</time></trkpt><trkpt lat="50.11757538517463" lon="4.03869089795005"><ele>162.0</ele><time>2026-04-30T15:10:44.998Z</time></trkpt><trkpt lat="50.11754558506261" lon="4.038406488718708"><ele>162.0</ele><time>2026-04-30T15:10:45.998Z</time></trkpt><trkpt lat="50.11754361336696" lon="4.038174873137268"><ele>162.0</ele><time>2026-04-30T15:10:46.998Z</time></trkpt><trkpt lat="50.11758017843145" lon="4.037953332292436"><ele>163.33333333333334</ele><time>2026-04-30T15:10:47.998Z</time></trkpt><trkpt lat="50.11763264306486" lon="4.037684051332064"><ele>164.66666666666669</ele><time>2026-04-30T15:10:48.998Z</time></trkpt><trkpt lat="50.11768307983817" lon="4.037393122617069"><ele>166.0</ele><time>2026-04-30T15:10:49.998Z</time></trkpt><trkpt lat="50.117727161313745" lon="4.037134599937565"><ele>166.25</ele><time>2026-04-30T15:10:50.998Z</time></trkpt><trkpt lat="50.11776661625639" lon="4.036899816443655"><ele>166.5</ele><time>2026-04-30T15:10:51.998Z</time></trkpt><trkpt lat="50.117801988539114" lon="4.036708969681211"><ele>166.75</ele><time>2026-04-30T15:10:52.998Z</time></trkpt><trkpt lat="50.11787276840498" lon="4.03650379075438"><ele>167.0</ele><time>2026-04-30T15:10:53.998Z</time></trkpt><trkpt lat="50.11795090697555" lon="4.036305696502996"><ele>167.0</ele><time>2026-04-30T15:10:54.998Z</time></trkpt><trkpt lat="50.118039253334835" lon="4.036098816637447"><ele>167.0</ele><time>2026-04-30T15:10:55.998Z</time></trkpt><trkpt lat="50.118123217950696" lon="4.035879493280918"><ele>167.0</ele><time>2026-04-30T15:10:56.998Z</time></trkpt><trkpt lat="50.1181912958067" lon="4.035653912667581"><ele>165.0</ele><time>2026-04-30T15:10:57.998Z</time></trkpt><trkpt lat="50.11824877000053" lon="4.035424142503797"><ele>163.0</ele><time>2026-04-30T15:10:58.998Z</time></trkpt><trkpt lat="50.1182779060457" lon="4.035209162542304"><ele>161.0</ele><time>2026-04-30T15:10:59.998Z</time></trkpt><trkpt lat="50.1182917176712" lon="4.034975068233386"><ele>160.66666666666666</ele><time>2026-04-30T15:11:01Z</time></trkpt><trkpt lat="50.11827885443713" lon="4.034737164688209"><ele>160.33333333333334</ele><time>2026-04-30T15:11:02Z</time></trkpt><trkpt lat="50.11824275043944" lon="4.034485654060939"><ele>160.0</ele><time>2026-04-30T15:11:03Z</time></trkpt><trkpt lat="50.11818271898318" lon="4.034224597354796"><ele>161.0</ele><time>2026-04-30T15:11:04Z</time></trkpt><trkpt lat="50.11810775998933" lon="4.0339453921792385"><ele>162.0</ele><time>2026-04-30T15:11:05Z</time></trkpt><trkpt lat="50.11804626659005" lon="4.0336751850031725"><ele>163.0</ele><time>2026-04-30T15:11:06Z</time></trkpt><trkpt lat="50.11803697888327" lon="4.033415819982428"><ele>162.0</ele><time>2026-04-30T15:11:07Z</time></trkpt><trkpt lat="50.11804014668382" lon="4.033164480573875"><ele>161.0</ele><time>2026-04-30T15:11:08Z</time></trkpt><trkpt lat="50.11806194096937" lon="4.0329013466077495"><ele>160.0</ele><time>2026-04-30T15:11:09Z</time></trkpt><trkpt lat="50.11809240685193" lon="4.032626445275189"><ele>159.66666666666669</ele><time>2026-04-30T15:11:10Z</time></trkpt><trkpt lat="50.11817133021283" lon="4.032381864971944"><ele>159.33333333333334</ele><time>2026-04-30T15:11:11Z</time></trkpt><trkpt lat="50.118273836679094" lon="4.032155057490048"><ele>159.0</ele><time>2026-04-30T15:11:12Z</time></trkpt><trkpt lat="50.11840404477202" lon="4.0319545834312285"><ele>158.0</ele><time>2026-04-30T15:11:13Z</time></trkpt><trkpt lat="50.1185544224981" lon="4.031772548607443"><ele>157.0</ele><time>2026-04-30T15:11:14Z</time></trkpt><trkpt lat="50.11871454102657" lon="4.031591109304682"><ele>156.0</ele><time>2026-04-30T15:11:15Z</time></trkpt><trkpt lat="50.11886626943506" lon="4.031385343233278"><ele>156.0</ele><time>2026-04-30T15:11:16Z</time></trkpt><trkpt lat="50.11900874218429" lon="4.031161520650378"><ele>156.0</ele><time>2026-04-30T15:11:17Z</time></trkpt><trkpt lat="50.1191632971256" lon="4.030989163549057"><ele>156.0</ele><time>2026-04-30T15:11:18Z</time></trkpt><trkpt lat="50.11932975931855" lon="4.03085423909189"><ele>157.5</ele><time>2026-04-30T15:11:19Z</time></trkpt><trkpt lat="50.11954277617754" lon="4.030685577555809"><ele>159.0</ele><time>2026-04-30T15:11:20Z</time></trkpt><trkpt lat="50.1197555990439" lon="4.030503417047753"><ele>158.66666666666666</ele><time>2026-04-30T15:11:21Z</time></trkpt><trkpt lat="50.11995661671659" lon="4.030341012199281"><ele>158.33333333333331</ele><time>2026-04-30T15:11:22Z</time></trkpt><trkpt lat="50.12015975371437" lon="4.030197715089537"><ele>158.0</ele><time>2026-04-30T15:11:23Z</time></trkpt><trkpt lat="50.120368727326856" lon="4.030058614611682"><ele>158.33333333333331</ele><time>2026-04-30T15:11:24Z</time></trkpt><trkpt lat="50.12057135783493" lon="4.029939697222544"><ele>158.66666666666666</ele><time>2026-04-30T15:11:25Z</time></trkpt><trkpt lat="50.120756594696616" lon="4.029844373378584"><ele>159.0</ele><time>2026-04-30T15:11:26Z</time></trkpt><trkpt lat="50.12092806967377" lon="4.029732464900176"><ele>160.0</ele><time>2026-04-30T15:11:27Z</time></trkpt><trkpt lat="50.12108802634675" lon="4.02959174173425"><ele>161.0</ele><time>2026-04-30T15:11:28Z</time></trkpt><trkpt lat="50.12121708415247" lon="4.029423865163454"><ele>162.0</ele><time>2026-04-30T15:11:29Z</time></trkpt><trkpt lat="50.121328196238586" lon="4.0292226269142155"><ele>162.0</ele><time>2026-04-30T15:11:30Z</time></trkpt><trkpt lat="50.12142532284225" lon="4.028996708738881"><ele>162.0</ele><time>2026-04-30T15:11:31Z</time></trkpt><trkpt lat="50.121502481488136" lon="4.028737645309564"><ele>162.0</ele><time>2026-04-30T15:11:32Z</time></trkpt><trkpt lat="50.121561665356104" lon="4.028445411765181"><ele>162.33333333333334</ele><time>2026-04-30T15:11:33Z</time></trkpt><trkpt lat="50.121621695478595" lon="4.028123808219938"><ele>162.66666666666669</ele><time>2026-04-30T15:11:33.999Z</time></trkpt><trkpt lat="50.12170989243142" lon="4.027816351363067"><ele>163.0</ele><time>2026-04-30T15:11:34.999Z</time></trkpt><trkpt lat="50.1217807661759" lon="4.027512777698275"><ele>162.66666666666669</ele><time>2026-04-30T15:11:35.999Z</time></trkpt><trkpt lat="50.12186425986571" lon="4.027226994548207"><ele>162.33333333333334</ele><time>2026-04-30T15:11:36.999Z</time></trkpt><trkpt lat="50.12194088548291" lon="4.026914166721686"><ele>162.0</ele><time>2026-04-30T15:11:37.999Z</time></trkpt><trkpt lat="50.12202739498774" lon="4.026608961719795"><ele>161.33333333333334</ele><time>2026-04-30T15:11:38.999Z</time></trkpt><trkpt lat="50.122118673892665" lon="4.0263376980926315"><ele>160.66666666666669</ele><time>2026-04-30T15:11:39.999Z</time></trkpt><trkpt lat="50.12223741800447" lon="4.026138310189866"><ele>160.0</ele><time>2026-04-30T15:11:40.999Z</time></trkpt><trkpt lat="50.12233582318851" lon="4.025922996425054"><ele>160.0</ele><time>2026-04-30T15:11:41.999Z</time></trkpt><trkpt lat="50.122450572663574" lon="4.025733739191212"><ele>160.0</ele><time>2026-04-30T15:11:42.999Z</time></trkpt><trkpt lat="50.12254216997295" lon="4.025507186390559"><ele>160.0</ele><time>2026-04-30T15:11:43.999Z</time></trkpt><trkpt lat="50.122599622161324" lon="4.025245179911795"><ele>159.33333333333334</ele><time>2026-04-30T15:11:44.999Z</time></trkpt><trkpt lat="50.122631016333365" lon="4.0249728767151565"><ele>158.66666666666666</ele><time>2026-04-30T15:11:45.999Z</time></trkpt><trkpt lat="50.12263336685828" lon="4.024689830722407"><ele>158.0</ele><time>2026-04-30T15:11:46.999Z</time></trkpt><trkpt lat="50.12260431149706" lon="4.0244049599002105"><ele>158.0</ele><time>2026-04-30T15:11:47.999Z</time></trkpt><trkpt lat="50.1225428823476" lon="4.0241251897023025"><ele>158.0</ele><time>2026-04-30T15:11:48.999Z</time></trkpt><trkpt lat="50.122471103301734" lon="4.02387573233974"><ele>158.0</ele><time>2026-04-30T15:11:49.999Z</time></trkpt><trkpt lat="50.122458192784144" lon="4.023637206845628"><ele>158.0</ele><time>2026-04-30T15:11:50.999Z</time></trkpt><trkpt lat="50.12247238422871" lon="4.023425098312029"><ele>158.0</ele><time>2026-04-30T15:11:51.999Z</time></trkpt><trkpt lat="50.12251562601984" lon="4.023208237938412"><ele>158.0</ele><time>2026-04-30T15:11:52.999Z</time></trkpt><trkpt lat="50.122584449569146" lon="4.022992739182704"><ele>158.0</ele><time>2026-04-30T15:11:53.999Z</time></trkpt><trkpt lat="50.12267914422445" lon="4.022760952162087"><ele>157.66666666666666</ele><time>2026-04-30T15:11:54.999Z</time></trkpt><trkpt lat="50.122787600028985" lon="4.022489144689521"><ele>157.33333333333334</ele><time>2026-04-30T15:11:55.999Z</time></trkpt><trkpt lat="50.122902219079165" lon="4.022242993916952"><ele>157.0</ele><time>2026-04-30T15:11:56.999Z</time></trkpt><trkpt lat="50.123006764679026" lon="4.0220217737594"><ele>156.66666666666669</ele><time>2026-04-30T15:11:57.999Z</time></trkpt><trkpt lat="50.123112138167514" lon="4.021803916509087"><ele>156.33333333333334</ele><time>2026-04-30T15:11:58.999Z</time></trkpt><trkpt lat="50.12321738316316" lon="4.0215840028767085"><ele>156.0</ele><time>2026-04-30T15:11:59.999Z</time></trkpt><trkpt lat="50.12332015259517" lon="4.0213678743231736"><ele>157.0</ele><time>2026-04-30T15:12:00.999Z</time></trkpt><trkpt lat="50.12342674759461" lon="4.021155039021029"><ele>158.0</ele><time>2026-04-30T15:12:01.999Z</time></trkpt><trkpt lat="50.12354184495526" lon="4.020954542716809"><ele>159.0</ele><time>2026-04-30T15:12:02.999Z</time></trkpt><trkpt lat="50.12366170721653" lon="4.020764335231306"><ele>159.25</ele><time>2026-04-30T15:12:03.999Z</time></trkpt><trkpt lat="50.12377639300252" lon="4.020583177320778"><ele>159.5</ele><time>2026-04-30T15:12:04.999Z</time></trkpt><trkpt lat="50.12386613734977" lon="4.020426884037174"><ele>159.75</ele><time>2026-04-30T15:12:05.999Z</time></trkpt><trkpt lat="50.12393644903589" lon="4.020278814457314"><ele>160.0</ele><time>2026-04-30T15:12:06.999Z</time></trkpt><trkpt lat="50.123995959844045" lon="4.020108859479378"><ele>160.25</ele><time>2026-04-30T15:12:07.999Z</time></trkpt><trkpt lat="50.124041725387954" lon="4.019928694591273"><ele>160.5</ele><time>2026-04-30T15:12:08.999Z</time></trkpt><trkpt lat="50.12407953823038" lon="4.019729028287021"><ele>160.75</ele><time>2026-04-30T15:12:09.999Z</time></trkpt><trkpt lat="50.12410251071221" lon="4.01950852674083"><ele>161.0</ele><time>2026-04-30T15:12:10.999Z</time></trkpt><trkpt lat="50.124111959869296" lon="4.01926045388128"><ele>160.33333333333331</ele><time>2026-04-30T15:12:11.999Z</time></trkpt><trkpt lat="50.12411238267238" lon="4.0189921431623015"><ele>159.66666666666666</ele><time>2026-04-30T15:12:12.999Z</time></trkpt><trkpt lat="50.1241160625925" lon="4.018711509238749"><ele>159.0</ele><time>2026-04-30T15:12:13.999Z</time></trkpt><trkpt lat="50.124114981072175" lon="4.018421633879442"><ele>159.33333333333334</ele><time>2026-04-30T15:12:14.999Z</time></trkpt><trkpt lat="50.12410984703053" lon="4.018147172432683"><ele>159.66666666666669</ele><time>2026-04-30T15:12:15.999Z</time></trkpt><trkpt lat="50.12410566194806" lon="4.017884436072174"><ele>160.0</ele><time>2026-04-30T15:12:16.999Z</time></trkpt><trkpt lat="50.124092587211116" lon="4.017616933013264"><ele>159.66666666666669</ele><time>2026-04-30T15:12:17.999Z</time></trkpt><trkpt lat="50.124073735335934" lon="4.017341724364635"><ele>159.33333333333334</ele><time>2026-04-30T15:12:18.999Z</time></trkpt><trkpt lat="50.1240524521181" lon="4.017074924491004"><ele>159.0</ele><time>2026-04-30T15:12:19.999Z</time></trkpt><trkpt lat="50.124035746378404" lon="4.016811620339851"><ele>158.66666666666666</ele><time>2026-04-30T15:12:20.999Z</time></trkpt><trkpt lat="50.12402664230153" lon="4.016544213445683"><ele>158.33333333333331</ele><time>2026-04-30T15:12:21.999Z</time></trkpt><trkpt lat="50.12402096553061" lon="4.016277638129782"><ele>158.0</ele><time>2026-04-30T15:12:22.999Z</time></trkpt><trkpt lat="50.12401437102509" lon="4.016000956948813"><ele>158.66666666666666</ele><time>2026-04-30T15:12:23.999Z</time></trkpt><trkpt lat="50.12400482263525" lon="4.015719691481517"><ele>159.33333333333334</ele><time>2026-04-30T15:12:24.999Z</time></trkpt><trkpt lat="50.12398774876708" lon="4.015430845703054"><ele>160.0</ele><time>2026-04-30T15:12:25.999Z</time></trkpt><trkpt lat="50.1239613293211" lon="4.015141607070836"><ele>160.33333333333334</ele><time>2026-04-30T15:12:26.999Z</time></trkpt><trkpt lat="50.123920163672835" lon="4.014860733953601"><ele>160.66666666666666</ele><time>2026-04-30T15:12:27.999Z</time></trkpt><trkpt lat="50.12394220886022" lon="4.014650120948889"><ele>161.0</ele><time>2026-04-30T15:12:28.999Z</time></trkpt><trkpt lat="50.12389299641715" lon="4.0144055857692855"><ele>161.0</ele><time>2026-04-30T15:12:29.999Z</time></trkpt><trkpt lat="50.12382349406808" lon="4.014188496967165"><ele>161.0</ele><time>2026-04-30T15:12:30.999Z</time></trkpt><trkpt lat="50.12373933438311" lon="4.013994850038768"><ele>161.0</ele><time>2026-04-30T15:12:31.999Z</time></trkpt><trkpt lat="50.12363668181774" lon="4.013823941142763"><ele>161.33333333333331</ele><time>2026-04-30T15:12:32.999Z</time></trkpt><trkpt lat="50.12351808231402" lon="4.013666156960006"><ele>161.66666666666666</ele><time>2026-04-30T15:12:33.999Z</time></trkpt><trkpt lat="50.123429964102954" lon="4.013453271540113"><ele>162.0</ele><time>2026-04-30T15:12:34.999Z</time></trkpt><trkpt lat="50.12320468089285" lon="4.013434569633339"><ele>160.66666666666666</ele><time>2026-04-30T15:12:35.999Z</time></trkpt><trkpt lat="50.123022573734495" lon="4.013302240767649"><ele>159.33333333333331</ele><time>2026-04-30T15:12:36.999Z</time></trkpt><trkpt lat="50.12281478742156" lon="4.013155613046009"><ele>158.0</ele><time>2026-04-30T15:12:37.999Z</time></trkpt><trkpt lat="50.12262513188737" lon="4.013036555171088"><ele>158.0</ele><time>2026-04-30T15:12:38.999Z</time></trkpt><trkpt lat="50.122439802763346" lon="4.012916478874714"><ele>158.0</ele><time>2026-04-30T15:12:39.999Z</time></trkpt><trkpt lat="50.122254206486005" lon="4.01280592220815"><ele>158.0</ele><time>2026-04-30T15:12:40.999Z</time></trkpt><trkpt lat="50.122082414155784" lon="4.012692558750976"><ele>158.0</ele><time>2026-04-30T15:12:41.999Z</time></trkpt><trkpt lat="50.1219097830291" lon="4.012575340875811"><ele>158.0</ele><time>2026-04-30T15:12:42.999Z</time></trkpt><trkpt lat="50.12173446018288" lon="4.0124621360191455"><ele>158.0</ele><time>2026-04-30T15:12:43.999Z</time></trkpt><trkpt lat="50.12157313990646" lon="4.012362167866103"><ele>156.66666666666666</ele><time>2026-04-30T15:12:44.999Z</time></trkpt><trkpt lat="50.12142648598356" lon="4.012271928603331"><ele>155.33333333333334</ele><time>2026-04-30T15:12:45.999Z</time></trkpt><trkpt lat="50.121288437895764" lon="4.012170885451911"><ele>154.0</ele><time>2026-04-30T15:12:46.999Z</time></trkpt><trkpt lat="50.12116629121358" lon="4.012040439120713"><ele>154.0</ele><time>2026-04-30T15:12:47.999Z</time></trkpt><trkpt lat="50.12104664981582" lon="4.011857818986367"><ele>154.0</ele><time>2026-04-30T15:12:48.998Z</time></trkpt><trkpt lat="50.12094861919928" lon="4.0116585504881055"><ele>154.0</ele><time>2026-04-30T15:12:49.998Z</time></trkpt><trkpt lat="50.120882049363395" lon="4.011418159080027"><ele>154.0</ele><time>2026-04-30T15:12:50.998Z</time></trkpt><trkpt lat="50.12083803182316" lon="4.011179190394807"><ele>154.0</ele><time>2026-04-30T15:12:51.998Z</time></trkpt><trkpt lat="50.12081366147714" lon="4.010952214874063"><ele>154.0</ele><time>2026-04-30T15:12:52.998Z</time></trkpt><trkpt lat="50.12081108941959" lon="4.010712481540223"><ele>154.0</ele><time>2026-04-30T15:12:53.998Z</time></trkpt><trkpt lat="50.12080845263844" lon="4.010456356666082"><ele>154.0</ele><time>2026-04-30T15:12:54.998Z</time></trkpt><trkpt lat="50.120863500822715" lon="4.010194341316496"><ele>154.0</ele><time>2026-04-30T15:12:55.998Z</time></trkpt><trkpt lat="50.120907194831055" lon="4.0099617655638955"><ele>153.66666666666669</ele><time>2026-04-30T15:12:56.998Z</time></trkpt><trkpt lat="50.120941808211384" lon="4.009744382211989"><ele>153.33333333333334</ele><time>2026-04-30T15:12:57.998Z</time></trkpt><trkpt lat="50.120979443392365" lon="4.00950570224805"><ele>153.0</ele><time>2026-04-30T15:12:58.998Z</time></trkpt><trkpt lat="50.12102812851512" lon="4.009268695862602"><ele>153.25</ele><time>2026-04-30T15:12:59.998Z</time></trkpt><trkpt lat="50.12107679840996" lon="4.009043534731849"><ele>153.5</ele><time>2026-04-30T15:13:00.998Z</time></trkpt><trkpt lat="50.12112543352462" lon="4.008840375531214"><ele>153.75</ele><time>2026-04-30T15:13:01.998Z</time></trkpt><trkpt lat="50.121148337435855" lon="4.008664408581425"><ele>154.0</ele><time>2026-04-30T15:13:02.998Z</time></trkpt><trkpt lat="50.12116566314435" lon="4.008469193131553"><ele>153.5</ele><time>2026-04-30T15:13:03.998Z</time></trkpt><trkpt lat="50.121149812791984" lon="4.008254800996112"><ele>153.0</ele><time>2026-04-30T15:13:04.998Z</time></trkpt><trkpt lat="50.12111923430251" lon="4.008043887761572"><ele>152.5</ele><time>2026-04-30T15:13:05.998Z</time></trkpt><trkpt lat="50.12110613782659" lon="4.007850404738714"><ele>152.0</ele><time>2026-04-30T15:13:07Z</time></trkpt><trkpt lat="50.12110487675435" lon="4.007682746980256"><ele>152.0</ele><time>2026-04-30T15:13:08Z</time></trkpt><trkpt lat="50.12109905212558" lon="4.007520147792574"><ele>152.0</ele><time>2026-04-30T15:13:09Z</time></trkpt><trkpt lat="50.12107911848519" lon="4.007358058089608"><ele>152.0</ele><time>2026-04-30T15:13:10Z</time></trkpt><trkpt lat="50.12104554159772" lon="4.007207824025195"><ele>152.0</ele><time>2026-04-30T15:13:11Z</time></trkpt><trkpt lat="50.12101123012782" lon="4.00708013073519"><ele>152.0</ele><time>2026-04-30T15:13:12Z</time></trkpt><trkpt lat="50.120981343245525" lon="4.00698479761318"><ele>152.4</ele><time>2026-04-30T15:13:13Z</time></trkpt><trkpt lat="50.1209543485837" lon="4.006841616018029"><ele>152.79999999999998</ele><time>2026-04-30T15:13:15Z</time></trkpt><trkpt lat="50.120914058537934" lon="4.006718846909927"><ele>153.2</ele><time>2026-04-30T15:13:17Z</time></trkpt><trkpt lat="50.12086643599396" lon="4.006528681679075"><ele>153.6</ele><time>2026-04-30T15:13:19Z</time></trkpt><trkpt lat="50.12083587046824" lon="4.006397279681479"><ele>154.0</ele><time>2026-04-30T15:13:20Z</time></trkpt><trkpt lat="50.12080627938992" lon="4.0062513885728785"><ele>154.25</ele><time>2026-04-30T15:13:21Z</time></trkpt><trkpt lat="50.120780341464155" lon="4.006077218871904"><ele>154.5</ele><time>2026-04-30T15:13:22Z</time></trkpt><trkpt lat="50.1207610669643" lon="4.00586759499724"><ele>154.75</ele><time>2026-04-30T15:13:23Z</time></trkpt><trkpt lat="50.12074940666787" lon="4.005617840055581"><ele>155.0</ele><time>2026-04-30T15:13:24Z</time></trkpt><trkpt lat="50.12074677870461" lon="4.005377014806224"><ele>155.5</ele><time>2026-04-30T15:13:25Z</time></trkpt><trkpt lat="50.12074805738635" lon="4.005165743264763"><ele>156.0</ele><time>2026-04-30T15:13:26Z</time></trkpt><trkpt lat="50.120746129000764" lon="4.004955103427708"><ele>156.5</ele><time>2026-04-30T15:13:27Z</time></trkpt><trkpt lat="50.12072328625771" lon="4.004729561316283"><ele>157.0</ele><time>2026-04-30T15:13:28Z</time></trkpt><trkpt lat="50.12068203301399" lon="4.004483749049642"><ele>156.25</ele><time>2026-04-30T15:13:29Z</time></trkpt><trkpt lat="50.120639779924595" lon="4.004241134012693"><ele>155.5</ele><time>2026-04-30T15:13:30Z</time></trkpt><trkpt lat="50.12060403101696" lon="4.0040331763990435"><ele>154.75</ele><time>2026-04-30T15:13:31Z</time></trkpt><trkpt lat="50.12057027430757" lon="4.003845551073865"><ele>154.0</ele><time>2026-04-30T15:13:32Z</time></trkpt><trkpt lat="50.120538991660105" lon="4.003670335598511"><ele>154.0</ele><time>2026-04-30T15:13:33Z</time></trkpt><trkpt lat="50.120513415633944" lon="4.003497564682747"><ele>154.0</ele><time>2026-04-30T15:13:34Z</time></trkpt><trkpt lat="50.120499953868354" lon="4.0033037702198255"><ele>154.0</ele><time>2026-04-30T15:13:35Z</time></trkpt><trkpt lat="50.12046210730338" lon="4.003107426728773"><ele>154.0</ele><time>2026-04-30T15:13:36Z</time></trkpt><trkpt lat="50.12043741925208" lon="4.002889831930231"><ele>154.0</ele><time>2026-04-30T15:13:37Z</time></trkpt><trkpt lat="50.120404336977415" lon="4.00266740362166"><ele>154.0</ele><time>2026-04-30T15:13:38Z</time></trkpt><trkpt lat="50.12038513419872" lon="4.002433798224536"><ele>154.0</ele><time>2026-04-30T15:13:39Z</time></trkpt><trkpt lat="50.1203577252365" lon="4.002216602279302"><ele>154.0</ele><time>2026-04-30T15:13:40Z</time></trkpt><trkpt lat="50.120322068355776" lon="4.002007171826451"><ele>153.75</ele><time>2026-04-30T15:13:41Z</time></trkpt><trkpt lat="50.12030338861789" lon="4.001810848337597"><ele>153.5</ele><time>2026-04-30T15:13:42Z</time></trkpt><trkpt lat="50.1202927501594" lon="4.001628070637164"><ele>153.25</ele><time>2026-04-30T15:13:43Z</time></trkpt><trkpt lat="50.120277996796766" lon="4.001454832818205"><ele>153.0</ele><time>2026-04-30T15:13:44Z</time></trkpt><trkpt lat="50.120275303147736" lon="4.001288039459489"><ele>153.0</ele><time>2026-04-30T15:13:45Z</time></trkpt><trkpt lat="50.12026394470829" lon="4.0011447690582"><ele>153.0</ele><time>2026-04-30T15:13:46Z</time></trkpt><trkpt lat="50.120335242619035" lon="4.000975222498906"><ele>153.0</ele><time>2026-04-30T15:13:47Z</time></trkpt><trkpt lat="50.120382054157105" lon="4.000821669444085"><ele>153.0</ele><time>2026-04-30T15:13:48Z</time></trkpt><trkpt lat="50.12042140339166" lon="4.000668064116127"><ele>153.0</ele><time>2026-04-30T15:13:49Z</time></trkpt><trkpt lat="50.120449629706464" lon="4.000525051785159"><ele>153.5</ele><time>2026-04-30T15:13:50Z</time></trkpt><trkpt lat="50.120469558401226" lon="4.000408233069365"><ele>154.0</ele><time>2026-04-30T15:13:51Z</time></trkpt><trkpt lat="50.120488011227444" lon="4.00030937685597"><ele>154.5</ele><time>2026-04-30T15:13:53Z</time></trkpt><trkpt lat="50.12051683363964" lon="4.000221557178207"><ele>155.0</ele><time>2026-04-30T15:13:56.999Z</time></trkpt><trkpt lat="50.12053738343272" lon="4.0000983858092685"><ele>155.5</ele><time>2026-04-30T15:14:00.999Z</time></trkpt><trkpt lat="50.120534451723344" lon="3.999966401986045"><ele>156.0</ele><time>2026-04-30T15:14:01.999Z</time></trkpt><trkpt lat="50.120532634086345" lon="3.9997923965816766"><ele>156.0</ele><time>2026-04-30T15:14:02.999Z</time></trkpt><trkpt lat="50.12050624706253" lon="3.999585404202821"><ele>156.0</ele><time>2026-04-30T15:14:03.999Z</time></trkpt><trkpt lat="50.12049026786963" lon="3.9993460421017515"><ele>156.0</ele><time>2026-04-30T15:14:04.999Z</time></trkpt><trkpt lat="50.12046424376743" lon="3.9990624313490155"><ele>156.0</ele><time>2026-04-30T15:14:05.999Z</time></trkpt><trkpt lat="50.120430861422065" lon="3.998747554472141"><ele>156.0</ele><time>2026-04-30T15:14:06.999Z</time></trkpt><trkpt lat="50.12037974569342" lon="3.9984304637446333"><ele>156.0</ele><time>2026-04-30T15:14:07.999Z</time></trkpt><trkpt lat="50.12031712405417" lon="3.9981356649230007"><ele>156.0</ele><time>2026-04-30T15:14:08.999Z</time></trkpt><trkpt lat="50.120266078953996" lon="3.997868798752936"><ele>156.0</ele><time>2026-04-30T15:14:09.999Z</time></trkpt><trkpt lat="50.120217764479925" lon="3.99761423852995"><ele>156.0</ele><time>2026-04-30T15:14:10.999Z</time></trkpt><trkpt lat="50.12017581523639" lon="3.9973673144138084"><ele>156.25</ele><time>2026-04-30T15:14:11.999Z</time></trkpt><trkpt lat="50.120147629672125" lon="3.9971332034167903"><ele>156.5</ele><time>2026-04-30T15:14:12.999Z</time></trkpt><trkpt lat="50.12013010254703" lon="3.9969345737135256"><ele>156.75</ele><time>2026-04-30T15:14:13.999Z</time></trkpt><trkpt lat="50.1201385854563" lon="3.996752584652431"><ele>157.0</ele><time>2026-04-30T15:14:14.999Z</time></trkpt><trkpt lat="50.120145304973754" lon="3.996563695259468"><ele>157.0</ele><time>2026-04-30T15:14:15.999Z</time></trkpt><trkpt lat="50.120182096408904" lon="3.9963404843795547"><ele>157.0</ele><time>2026-04-30T15:14:16.999Z</time></trkpt><trkpt lat="50.120216264178076" lon="3.9960913077116205"><ele>157.0</ele><time>2026-04-30T15:14:17.999Z</time></trkpt><trkpt lat="50.12026684848005" lon="3.995838569056635"><ele>157.0</ele><time>2026-04-30T15:14:18.999Z</time></trkpt><trkpt lat="50.12030110637082" lon="3.99559611543994"><ele>157.0</ele><time>2026-04-30T15:14:19.999Z</time></trkpt><trkpt lat="50.12034679467929" lon="3.9953783097086584"><ele>157.0</ele><time>2026-04-30T15:14:20.999Z</time></trkpt><trkpt lat="50.12043604524135" lon="3.9951989646840196"><ele>156.33333333333334</ele><time>2026-04-30T15:14:21.999Z</time></trkpt><trkpt lat="50.12051638632041" lon="3.9949761602205878"><ele>155.66666666666666</ele><time>2026-04-30T15:14:22.999Z</time></trkpt><trkpt lat="50.12060131755975" lon="3.994729977277613"><ele>155.0</ele><time>2026-04-30T15:14:23.999Z</time></trkpt><trkpt lat="50.120675193882214" lon="3.9944651801891604"><ele>156.33333333333331</ele><time>2026-04-30T15:14:24.999Z</time></trkpt><trkpt lat="50.12073893033418" lon="3.9942006381539787"><ele>157.66666666666666</ele><time>2026-04-30T15:14:25.999Z</time></trkpt><trkpt lat="50.12079135252845" lon="3.993966833970012"><ele>159.0</ele><time>2026-04-30T15:14:26.999Z</time></trkpt><trkpt lat="50.120838853983884" lon="3.993736655625821"><ele>159.0</ele><time>2026-04-30T15:14:27.999Z</time></trkpt><trkpt lat="50.120881739281415" lon="3.993480798597552"><ele>159.0</ele><time>2026-04-30T15:14:28.999Z</time></trkpt><trkpt lat="50.120920931112884" lon="3.9932003278479646"><ele>159.0</ele><time>2026-04-30T15:14:29.999Z</time></trkpt><trkpt lat="50.12096006303718" lon="3.9928994115193066"><ele>159.0</ele><time>2026-04-30T15:14:30.999Z</time></trkpt><trkpt lat="50.12101959668632" lon="3.992569767345557"><ele>159.0</ele><time>2026-04-30T15:14:31.999Z</time></trkpt><trkpt lat="50.12111824277293" lon="3.9922248560122946"><ele>158.33333333333334</ele><time>2026-04-30T15:14:32.999Z</time></trkpt><trkpt lat="50.12118839517768" lon="3.991887844192429"><ele>157.66666666666669</ele><time>2026-04-30T15:14:33.999Z</time></trkpt><trkpt lat="50.12128409631532" lon="3.991617015734359"><ele>157.0</ele><time>2026-04-30T15:14:34.999Z</time></trkpt><trkpt lat="50.12136883901056" lon="3.9913532548256554"><ele>157.0</ele><time>2026-04-30T15:14:35.999Z</time></trkpt><trkpt lat="50.12146984678674" lon="3.991111628109075"><ele>157.0</ele><time>2026-04-30T15:14:36.999Z</time></trkpt><trkpt lat="50.12158599158905" lon="3.9908733810418413"><ele>157.0</ele><time>2026-04-30T15:14:37.999Z</time></trkpt><trkpt lat="50.12172121925085" lon="3.990624963282067"><ele>156.0</ele><time>2026-04-30T15:14:38.999Z</time></trkpt><trkpt lat="50.12185627109044" lon="3.9903427809653382"><ele>155.0</ele><time>2026-04-30T15:14:39.999Z</time></trkpt><trkpt lat="50.12201201743462" lon="3.9900706713063525"><ele>155.5</ele><time>2026-04-30T15:14:40.999Z</time></trkpt><trkpt lat="50.12216841406964" lon="3.9897935628245924"><ele>156.0</ele><time>2026-04-30T15:14:41.999Z</time></trkpt><trkpt lat="50.122323102706424" lon="3.9895329965299693"><ele>156.0</ele><time>2026-04-30T15:14:42.999Z</time></trkpt><trkpt lat="50.12248843909046" lon="3.9892531447898865"><ele>156.0</ele><time>2026-04-30T15:14:43.999Z</time></trkpt><trkpt lat="50.12264837170317" lon="3.9890082242485447"><ele>156.0</ele><time>2026-04-30T15:14:44.999Z</time></trkpt><trkpt lat="50.122805819856445" lon="3.9887830558813926"><ele>156.0</ele><time>2026-04-30T15:14:45.999Z</time></trkpt><trkpt lat="50.1229619015087" lon="3.988555101341916"><ele>156.0</ele><time>2026-04-30T15:14:46.999Z</time></trkpt><trkpt lat="50.12311544643894" lon="3.988332833598942"><ele>156.0</ele><time>2026-04-30T15:14:47.999Z</time></trkpt><trkpt lat="50.12326226171404" lon="3.98812097640561"><ele>156.0</ele><time>2026-04-30T15:14:48.999Z</time></trkpt><trkpt lat="50.12340164810737" lon="3.9879111321038585"><ele>156.0</ele><time>2026-04-30T15:14:49.999Z</time></trkpt><trkpt lat="50.123540779033576" lon="3.987709550268262"><ele>156.0</ele><time>2026-04-30T15:14:50.999Z</time></trkpt><trkpt lat="50.12368684129972" lon="3.9875169319820616"><ele>156.0</ele><time>2026-04-30T15:14:51.999Z</time></trkpt><trkpt lat="50.12382536166349" lon="3.9873214109929536"><ele>156.0</ele><time>2026-04-30T15:14:52.999Z</time></trkpt><trkpt lat="50.12396625688672" lon="3.9871336671601822"><ele>156.33333333333334</ele><time>2026-04-30T15:14:53.999Z</time></trkpt><trkpt lat="50.124099498684245" lon="3.986942874252972"><ele>156.66666666666669</ele><time>2026-04-30T15:14:54.999Z</time></trkpt><trkpt lat="50.124224552383765" lon="3.9867380385152784"><ele>157.0</ele><time>2026-04-30T15:14:55.999Z</time></trkpt><trkpt lat="50.12434490661021" lon="3.9865303559587573"><ele>157.0</ele><time>2026-04-30T15:14:56.999Z</time></trkpt><trkpt lat="50.124449056789786" lon="3.9862885889400235"><ele>157.0</ele><time>2026-04-30T15:14:57.999Z</time></trkpt><trkpt lat="50.12454776148113" lon="3.9860234990405816"><ele>157.0</ele><time>2026-04-30T15:14:58.999Z</time></trkpt><trkpt lat="50.12465014864965" lon="3.9857491680438026"><ele>156.66666666666669</ele><time>2026-04-30T15:14:59.999Z</time></trkpt><trkpt lat="50.12474343758938" lon="3.9854816722161686"><ele>156.33333333333334</ele><time>2026-04-30T15:15:00.999Z</time></trkpt><trkpt lat="50.12483434505702" lon="3.9852450337919985"><ele>156.0</ele><time>2026-04-30T15:15:01.999Z</time></trkpt><trkpt lat="50.124925194136786" lon="3.9850182085776638"><ele>157.25</ele><time>2026-04-30T15:15:02.999Z</time></trkpt><trkpt lat="50.12501383703022" lon="3.9848038905769805"><ele>158.5</ele><time>2026-04-30T15:15:03.999Z</time></trkpt><trkpt lat="50.12509005129845" lon="3.9846215208290534"><ele>159.75</ele><time>2026-04-30T15:15:04.999Z</time></trkpt><trkpt lat="50.12514875614068" lon="3.9844502952328202"><ele>161.0</ele><time>2026-04-30T15:15:05.999Z</time></trkpt><trkpt lat="50.12519060756785" lon="3.984250289256594"><ele>161.0</ele><time>2026-04-30T15:15:06.999Z</time></trkpt><trkpt lat="50.12520641601719" lon="3.9840083378771016"><ele>161.0</ele><time>2026-04-30T15:15:07.999Z</time></trkpt><trkpt lat="50.12524462883401" lon="3.983760791554228"><ele>161.0</ele><time>2026-04-30T15:15:08.998Z</time></trkpt><trkpt lat="50.12527796450696" lon="3.9834924196931984"><ele>160.5</ele><time>2026-04-30T15:15:09.998Z</time></trkpt><trkpt lat="50.125302823019446" lon="3.9832161784209084"><ele>160.0</ele><time>2026-04-30T15:15:10.998Z</time></trkpt><trkpt lat="50.12506925043211" lon="3.982850700036061"><ele>160.0</ele><time>2026-04-30T15:15:12Z</time></trkpt><trkpt lat="50.12500496686771" lon="3.982554075802186"><ele>160.0</ele><time>2026-04-30T15:15:13Z</time></trkpt><trkpt lat="50.12496990895983" lon="3.982263484108873"><ele>160.0</ele><time>2026-04-30T15:15:14Z</time></trkpt><trkpt lat="50.1249591320178" lon="3.9819626602154705"><ele>160.0</ele><time>2026-04-30T15:15:15Z</time></trkpt><trkpt lat="50.124952807578694" lon="3.98162133064476"><ele>160.0</ele><time>2026-04-30T15:15:16Z</time></trkpt><trkpt lat="50.12495201044359" lon="3.9812570415979915"><ele>160.0</ele><time>2026-04-30T15:15:17Z</time></trkpt><trkpt lat="50.12493175733854" lon="3.980911370613172"><ele>160.0</ele><time>2026-04-30T15:15:18Z</time></trkpt><trkpt lat="50.12492210394675" lon="3.980614601711558"><ele>160.0</ele><time>2026-04-30T15:15:19Z</time></trkpt><trkpt lat="50.12490818641897" lon="3.9803194712289636"><ele>158.33333333333334</ele><time>2026-04-30T15:15:20Z</time></trkpt><trkpt lat="50.12488948728136" lon="3.9800258599393907"><ele>156.66666666666666</ele><time>2026-04-30T15:15:21Z</time></trkpt><trkpt lat="50.12487011001622" lon="3.979738210934163"><ele>155.0</ele><time>2026-04-30T15:15:22Z</time></trkpt><trkpt lat="50.1248472949187" lon="3.979459133845592"><ele>155.33333333333331</ele><time>2026-04-30T15:15:23Z</time></trkpt><trkpt lat="50.124821116111406" lon="3.9791835683419077"><ele>155.66666666666666</ele><time>2026-04-30T15:15:24Z</time></trkpt><trkpt lat="50.12479279401673" lon="3.9789092344721455"><ele>156.0</ele><time>2026-04-30T15:15:25Z</time></trkpt><trkpt lat="50.12478648128818" lon="3.97863561401178"><ele>156.0</ele><time>2026-04-30T15:15:26Z</time></trkpt><trkpt lat="50.12477193181873" lon="3.9783521733278553"><ele>156.0</ele><time>2026-04-30T15:15:27Z</time></trkpt><trkpt lat="50.1247613870005" lon="3.9780628436592664"><ele>156.0</ele><time>2026-04-30T15:15:28Z</time></trkpt><trkpt lat="50.12475193395035" lon="3.977761799031991"><ele>157.0</ele><time>2026-04-30T15:15:29Z</time></trkpt><trkpt lat="50.12474021021478" lon="3.97746144692227"><ele>158.0</ele><time>2026-04-30T15:15:30Z</time></trkpt><trkpt lat="50.12472555246842" lon="3.9771727562371324"><ele>159.0</ele><time>2026-04-30T15:15:31Z</time></trkpt><trkpt lat="50.12471684550517" lon="3.9768843013254416"><ele>159.0</ele><time>2026-04-30T15:15:32Z</time></trkpt><trkpt lat="50.12472974245989" lon="3.976591768091249"><ele>159.0</ele><time>2026-04-30T15:15:33Z</time></trkpt><trkpt lat="50.12476269026841" lon="3.97629016752942"><ele>159.0</ele><time>2026-04-30T15:15:34Z</time></trkpt><trkpt lat="50.1248084480293" lon="3.9759830101470257"><ele>159.33333333333334</ele><time>2026-04-30T15:15:35Z</time></trkpt><trkpt lat="50.12486222477824" lon="3.9756738514676733"><ele>159.66666666666669</ele><time>2026-04-30T15:15:36Z</time></trkpt><trkpt lat="50.12492129375817" lon="3.9753887730523885"><ele>160.0</ele><time>2026-04-30T15:15:37Z</time></trkpt><trkpt lat="50.12497659793289" lon="3.9751222986343047"><ele>161.0</ele><time>2026-04-30T15:15:38Z</time></trkpt><trkpt lat="50.125024320233464" lon="3.974869127152998"><ele>162.0</ele><time>2026-04-30T15:15:39Z</time></trkpt><trkpt lat="50.125064291311574" lon="3.9746016825094737"><ele>163.0</ele><time>2026-04-30T15:15:40Z</time></trkpt><trkpt lat="50.1251088801148" lon="3.9743491800595714"><ele>162.66666666666669</ele><time>2026-04-30T15:15:41Z</time></trkpt><trkpt lat="50.12516075542714" lon="3.9740980166732967"><ele>162.33333333333334</ele><time>2026-04-30T15:15:42Z</time></trkpt><trkpt lat="50.125213585686595" lon="3.973858239188475"><ele>162.0</ele><time>2026-04-30T15:15:43Z</time></trkpt><trkpt lat="50.12526228387755" lon="3.973635783765431"><ele>162.0</ele><time>2026-04-30T15:15:44Z</time></trkpt><trkpt lat="50.12531630299368" lon="3.973431139954793"><ele>162.0</ele><time>2026-04-30T15:15:45Z</time></trkpt><trkpt lat="50.12536515200407" lon="3.9732511191459126"><ele>162.0</ele><time>2026-04-30T15:15:46Z</time></trkpt><trkpt lat="50.12541178030314" lon="3.973077097821992"><ele>162.0</ele><time>2026-04-30T15:15:47Z</time></trkpt><trkpt lat="50.125446700360776" lon="3.9729165436614347"><ele>162.0</ele><time>2026-04-30T15:15:48Z</time></trkpt><trkpt lat="50.12546664085596" lon="3.9727855189080112"><ele>162.0</ele><time>2026-04-30T15:15:49Z</time></trkpt><trkpt lat="50.12548428479876" lon="3.972660929979378"><ele>162.0</ele><time>2026-04-30T15:15:50Z</time></trkpt><trkpt lat="50.12549614812791" lon="3.9725550246473507"><ele>162.0</ele><time>2026-04-30T15:15:51Z</time></trkpt><trkpt lat="50.125511813335" lon="3.9724367971637946"><ele>162.0</ele><time>2026-04-30T15:15:53Z</time></trkpt><trkpt lat="50.12553112418951" lon="3.972268388523657"><ele>162.0</ele><time>2026-04-30T15:15:56Z</time></trkpt><trkpt lat="50.12555267075086" lon="3.972111093638765"><ele>162.0</ele><time>2026-04-30T15:15:58Z</time></trkpt><trkpt lat="50.12557026071889" lon="3.972013446583711"><ele>162.0</ele><time>2026-04-30T15:15:59Z</time></trkpt><trkpt lat="50.125596621261316" lon="3.971895318425634"><ele>162.0</ele><time>2026-04-30T15:16:00Z</time></trkpt><trkpt lat="50.12563359165014" lon="3.9717549103531566"><ele>162.0</ele><time>2026-04-30T15:16:01Z</time></trkpt><trkpt lat="50.12567319783779" lon="3.9715970539551084"><ele>162.0</ele><time>2026-04-30T15:16:02Z</time></trkpt><trkpt lat="50.12569415607512" lon="3.971379687274301"><ele>162.0</ele><time>2026-04-30T15:16:03Z</time></trkpt><trkpt lat="50.12568130245439" lon="3.9711490133060185"><ele>162.0</ele><time>2026-04-30T15:16:04Z</time></trkpt><trkpt lat="50.12565502404076" lon="3.970897068821988"><ele>162.0</ele><time>2026-04-30T15:16:05Z</time></trkpt><trkpt lat="50.12563303343919" lon="3.9706606505605313"><ele>161.75</ele><time>2026-04-30T15:16:06Z</time></trkpt><trkpt lat="50.125612795620675" lon="3.970445264902203"><ele>161.5</ele><time>2026-04-30T15:16:07Z</time></trkpt><trkpt lat="50.12558716375073" lon="3.970243833952513"><ele>161.25</ele><time>2026-04-30T15:16:08Z</time></trkpt><trkpt lat="50.12556729323462" lon="3.970052074148545"><ele>161.0</ele><time>2026-04-30T15:16:09Z</time></trkpt><trkpt lat="50.125549952476796" lon="3.9698709978412725"><ele>160.5</ele><time>2026-04-30T15:16:09.999Z</time></trkpt><trkpt lat="50.125526431355254" lon="3.9696906650271946"><ele>160.0</ele><time>2026-04-30T15:16:10.999Z</time></trkpt><trkpt lat="50.1255029731439" lon="3.9695056895757155"><ele>159.5</ele><time>2026-04-30T15:16:11.999Z</time></trkpt><trkpt lat="50.12548501706212" lon="3.9693146898930496"><ele>159.0</ele><time>2026-04-30T15:16:12.999Z</time></trkpt><trkpt lat="50.125472114660084" lon="3.9691335309937243"><ele>158.6</ele><time>2026-04-30T15:16:13.999Z</time></trkpt><trkpt lat="50.12545852366524" lon="3.96898078430612"><ele>158.2</ele><time>2026-04-30T15:16:14.999Z</time></trkpt><trkpt lat="50.125455875969315" lon="3.968856851470788"><ele>157.79999999999998</ele><time>2026-04-30T15:16:15.999Z</time></trkpt><trkpt lat="50.12547172179277" lon="3.968754087686807"><ele>157.4</ele><time>2026-04-30T15:16:16.999Z</time></trkpt><trkpt lat="50.12554875648502" lon="3.968599979160541"><ele>157.0</ele><time>2026-04-30T15:16:18.999Z</time></trkpt><trkpt lat="50.12562742276392" lon="3.9685431020838755"><ele>156.5</ele><time>2026-04-30T15:16:19.999Z</time></trkpt><trkpt lat="50.12573577021097" lon="3.9684691605421745"><ele>156.0</ele><time>2026-04-30T15:16:20.999Z</time></trkpt><trkpt lat="50.12586734107546" lon="3.9683664264272687"><ele>155.5</ele><time>2026-04-30T15:16:21.999Z</time></trkpt><trkpt lat="50.126009049056364" lon="3.968263660953806"><ele>155.0</ele><time>2026-04-30T15:16:22.999Z</time></trkpt><trkpt lat="50.12614066562178" lon="3.9681827231446714"><ele>154.6</ele><time>2026-04-30T15:16:23.999Z</time></trkpt><trkpt lat="50.12623815206491" lon="3.968105017462357"><ele>154.2</ele><time>2026-04-30T15:16:24.999Z</time></trkpt><trkpt lat="50.12629318431828" lon="3.9680520237319445"><ele>153.8</ele><time>2026-04-30T15:16:25.999Z</time></trkpt><trkpt lat="50.12638950899974" lon="3.9679420149257605"><ele>153.4</ele><time>2026-04-30T15:16:35.999Z</time></trkpt><trkpt lat="50.12639203836767" lon="3.9677106573556173"><ele>153.0</ele><time>2026-04-30T15:16:36.999Z</time></trkpt><trkpt lat="50.1264245611455" lon="3.967497394564358"><ele>153.0</ele><time>2026-04-30T15:16:37.999Z</time></trkpt><trkpt lat="50.12644678955341" lon="3.9673007411407437"><ele>153.0</ele><time>2026-04-30T15:16:38.999Z</time></trkpt><trkpt lat="50.12646867700938" lon="3.9671488529567074"><ele>153.0</ele><time>2026-04-30T15:16:39.999Z</time></trkpt><trkpt lat="50.1264782256815" lon="3.9670220437078223"><ele>153.0</ele><time>2026-04-30T15:16:40.999Z</time></trkpt><trkpt lat="50.12647984122017" lon="3.9669086704281615"><ele>153.0</ele><time>2026-04-30T15:16:41.999Z</time></trkpt><trkpt lat="50.12647982962185" lon="3.9667771230859796"><ele>152.8</ele><time>2026-04-30T15:16:43.999Z</time></trkpt><trkpt lat="50.12647889952849" lon="3.966670795931048"><ele>152.60000000000002</ele><time>2026-04-30T15:16:45.999Z</time></trkpt><trkpt lat="50.12647933480767" lon="3.9665633695224694"><ele>152.39999999999998</ele><time>2026-04-30T15:16:46.999Z</time></trkpt><trkpt lat="50.1264840345314" lon="3.9664168150509793"><ele>152.2</ele><time>2026-04-30T15:16:47.999Z</time></trkpt><trkpt lat="50.12649654242183" lon="3.9662470409927386"><ele>152.0</ele><time>2026-04-30T15:16:48.999Z</time></trkpt><trkpt lat="50.126515150308734" lon="3.966073132401395"><ele>152.0</ele><time>2026-04-30T15:16:49.999Z</time></trkpt><trkpt lat="50.12653654785367" lon="3.9658823880831027"><ele>152.0</ele><time>2026-04-30T15:16:50.999Z</time></trkpt><trkpt lat="50.126561861633476" lon="3.9656779394019304"><ele>152.0</ele><time>2026-04-30T15:16:51.999Z</time></trkpt><trkpt lat="50.12659560859322" lon="3.965466255964566"><ele>152.0</ele><time>2026-04-30T15:16:52.999Z</time></trkpt><trkpt lat="50.126632257363546" lon="3.9652507699841077"><ele>152.5</ele><time>2026-04-30T15:16:53.999Z</time></trkpt><trkpt lat="50.126660671324785" lon="3.9650406169124044"><ele>153.0</ele><time>2026-04-30T15:16:54.999Z</time></trkpt><trkpt lat="50.12667567976185" lon="3.964831936244741"><ele>153.5</ele><time>2026-04-30T15:16:55.999Z</time></trkpt><trkpt lat="50.12667016643143" lon="3.9646113359952615"><ele>154.0</ele><time>2026-04-30T15:16:56.999Z</time></trkpt><trkpt lat="50.126640147320714" lon="3.964395835495065"><ele>154.0</ele><time>2026-04-30T15:16:57.999Z</time></trkpt><trkpt lat="50.1266102626928" lon="3.9642029519205626"><ele>154.0</ele><time>2026-04-30T15:16:58.999Z</time></trkpt><trkpt lat="50.126575663970144" lon="3.9640121160336492"><ele>154.0</ele><time>2026-04-30T15:16:59.999Z</time></trkpt><trkpt lat="50.126538420087435" lon="3.963815736584247"><ele>154.0</ele><time>2026-04-30T15:17:00.999Z</time></trkpt><trkpt lat="50.12649937744724" lon="3.963620087383886"><ele>153.5</ele><time>2026-04-30T15:17:01.999Z</time></trkpt><trkpt lat="50.126457706681975" lon="3.9634227078920907"><ele>153.0</ele><time>2026-04-30T15:17:02.999Z</time></trkpt><trkpt lat="50.12641086395429" lon="3.9632218561078143"><ele>152.5</ele><time>2026-04-30T15:17:03.999Z</time></trkpt><trkpt lat="50.12636419512801" lon="3.963011819341001"><ele>152.0</ele><time>2026-04-30T15:17:04.999Z</time></trkpt><trkpt lat="50.12631248127832" lon="3.962805550811062"><ele>152.0</ele><time>2026-04-30T15:17:05.999Z</time></trkpt><trkpt lat="50.12626099960598" lon="3.9626199871753984"><ele>152.0</ele><time>2026-04-30T15:17:06.999Z</time></trkpt><trkpt lat="50.12621736163093" lon="3.9624464807253093"><ele>152.0</ele><time>2026-04-30T15:17:07.999Z</time></trkpt><trkpt lat="50.12619571563838" lon="3.962256033698239"><ele>152.0</ele><time>2026-04-30T15:17:08.999Z</time></trkpt><trkpt lat="50.1261459917507" lon="3.962063131478505"><ele>152.0</ele><time>2026-04-30T15:17:09.999Z</time></trkpt><trkpt lat="50.12611946711922" lon="3.96185324116946"><ele>152.0</ele><time>2026-04-30T15:17:10.999Z</time></trkpt><trkpt lat="50.12609159956032" lon="3.9616424040697127"><ele>152.0</ele><time>2026-04-30T15:17:11.999Z</time></trkpt><trkpt lat="50.12606062190964" lon="3.961432054255019"><ele>152.0</ele><time>2026-04-30T15:17:12.999Z</time></trkpt><trkpt lat="50.126023604085034" lon="3.9612177777495927"><ele>152.0</ele><time>2026-04-30T15:17:13.999Z</time></trkpt><trkpt lat="50.12598607964914" lon="3.960995679449809"><ele>152.0</ele><time>2026-04-30T15:17:14.999Z</time></trkpt><trkpt lat="50.125957873171174" lon="3.960770555702629"><ele>152.0</ele><time>2026-04-30T15:17:15.999Z</time></trkpt><trkpt lat="50.12592710746556" lon="3.9605342949674984"><ele>152.0</ele><time>2026-04-30T15:17:16.999Z</time></trkpt><trkpt lat="50.12589875561904" lon="3.960286807695187"><ele>152.33333333333331</ele><time>2026-04-30T15:17:18Z</time></trkpt><trkpt lat="50.12587621919216" lon="3.960038541452774"><ele>152.66666666666666</ele><time>2026-04-30T15:17:19Z</time></trkpt><trkpt lat="50.12585299902393" lon="3.959807699558891"><ele>153.0</ele><time>2026-04-30T15:17:20Z</time></trkpt><trkpt lat="50.12582526777973" lon="3.959581615595447"><ele>153.33333333333334</ele><time>2026-04-30T15:17:21Z</time></trkpt><trkpt lat="50.125784998989886" lon="3.9593395318959064"><ele>153.66666666666669</ele><time>2026-04-30T15:17:22Z</time></trkpt><trkpt lat="50.125736533423364" lon="3.9590714925219332"><ele>154.0</ele><time>2026-04-30T15:17:23Z</time></trkpt><trkpt lat="50.1256880542619" lon="3.958782419389571"><ele>154.0</ele><time>2026-04-30T15:17:24Z</time></trkpt><trkpt lat="50.125634157300546" lon="3.958486026593991"><ele>154.0</ele><time>2026-04-30T15:17:25Z</time></trkpt><trkpt lat="50.125585453885584" lon="3.958210572794066"><ele>154.0</ele><time>2026-04-30T15:17:26Z</time></trkpt><trkpt lat="50.125537206539214" lon="3.957961751418493"><ele>154.0</ele><time>2026-04-30T15:17:27Z</time></trkpt><trkpt lat="50.125489257143364" lon="3.95773409400647"><ele>154.0</ele><time>2026-04-30T15:17:28Z</time></trkpt><trkpt lat="50.12543783345598" lon="3.957507610212036"><ele>154.0</ele><time>2026-04-30T15:17:29Z</time></trkpt><trkpt lat="50.12538904274465" lon="3.9572797585987507"><ele>154.0</ele><time>2026-04-30T15:17:30Z</time></trkpt><trkpt lat="50.12534317068425" lon="3.9570521748332976"><ele>154.0</ele><time>2026-04-30T15:17:31Z</time></trkpt><trkpt lat="50.12530103538511" lon="3.9568214228338072"><ele>154.0</ele><time>2026-04-30T15:17:32Z</time></trkpt><trkpt lat="50.12526372307948" lon="3.95659066140862"><ele>154.0</ele><time>2026-04-30T15:17:33Z</time></trkpt><trkpt lat="50.12523174181164" lon="3.9563633325617977"><ele>154.0</ele><time>2026-04-30T15:17:34Z</time></trkpt><trkpt lat="50.12520720335672" lon="3.9561597405280398"><ele>154.0</ele><time>2026-04-30T15:17:35Z</time></trkpt><trkpt lat="50.125191014173495" lon="3.955985650579846"><ele>154.0</ele><time>2026-04-30T15:17:36Z</time></trkpt><trkpt lat="50.125180810483506" lon="3.9558019164243157"><ele>154.66666666666669</ele><time>2026-04-30T15:17:37Z</time></trkpt><trkpt lat="50.125167998347116" lon="3.9555870679378358"><ele>155.33333333333334</ele><time>2026-04-30T15:17:38Z</time></trkpt><trkpt lat="50.125152897568476" lon="3.955333151758916"><ele>156.0</ele><time>2026-04-30T15:17:39Z</time></trkpt><trkpt lat="50.125140367856474" lon="3.955077451314191"><ele>155.8</ele><time>2026-04-30T15:17:40Z</time></trkpt><trkpt lat="50.1251321293301" lon="3.954885299813924"><ele>155.6</ele><time>2026-04-30T15:17:41Z</time></trkpt><trkpt lat="50.125133559785006" lon="3.954725847584587"><ele>155.4</ele><time>2026-04-30T15:17:42Z</time></trkpt><trkpt lat="50.12515167183403" lon="3.9545973802571344"><ele>155.2</ele><time>2026-04-30T15:17:43Z</time></trkpt><trkpt lat="50.12519844906648" lon="3.9545134134072626"><ele>155.0</ele><time>2026-04-30T15:17:44Z</time></trkpt><trkpt lat="50.125265686197295" lon="3.9544572238983333"><ele>155.0</ele><time>2026-04-30T15:17:45Z</time></trkpt><trkpt lat="50.12535651530136" lon="3.9544276491942023"><ele>155.0</ele><time>2026-04-30T15:17:46Z</time></trkpt><trkpt lat="50.12547201901209" lon="3.954473993686997"><ele>155.0</ele><time>2026-04-30T15:17:47Z</time></trkpt><trkpt lat="50.125619589981085" lon="3.954480755186207"><ele>155.0</ele><time>2026-04-30T15:17:48Z</time></trkpt><trkpt lat="50.12579190530163" lon="3.954518616630427"><ele>156.33333333333331</ele><time>2026-04-30T15:17:49Z</time></trkpt><trkpt lat="50.12598527500365" lon="3.9545608372464645"><ele>157.66666666666666</ele><time>2026-04-30T15:17:50Z</time></trkpt><trkpt lat="50.12619497534533" lon="3.954595203795744"><ele>159.0</ele><time>2026-04-30T15:17:51Z</time></trkpt><trkpt lat="50.12640930153353" lon="3.954619183899542"><ele>159.0</ele><time>2026-04-30T15:17:52Z</time></trkpt><trkpt lat="50.12664510854376" lon="3.954628228008759"><ele>159.0</ele><time>2026-04-30T15:17:53Z</time></trkpt><trkpt lat="50.1269067176773" lon="3.954647228269917"><ele>159.0</ele><time>2026-04-30T15:17:54Z</time></trkpt><trkpt lat="50.12718246640747" lon="3.9546868903304433"><ele>159.0</ele><time>2026-04-30T15:17:55Z</time></trkpt><trkpt lat="50.127437763151185" lon="3.954738979253481"><ele>158.66666666666666</ele><time>2026-04-30T15:17:56Z</time></trkpt><trkpt lat="50.12766206997428" lon="3.9547960650842353"><ele>158.33333333333331</ele><time>2026-04-30T15:17:57Z</time></trkpt><trkpt lat="50.12786184503467" lon="3.954852981955619"><ele>158.0</ele><time>2026-04-30T15:17:58Z</time></trkpt><trkpt lat="50.12805191712514" lon="3.9549005186285515"><ele>158.0</ele><time>2026-04-30T15:17:59Z</time></trkpt><trkpt lat="50.12822482438106" lon="3.9549416753086195"><ele>158.0</ele><time>2026-04-30T15:18:00Z</time></trkpt><trkpt lat="50.12838343935881" lon="3.954980621282681"><ele>158.0</ele><time>2026-04-30T15:18:01Z</time></trkpt><trkpt lat="50.1285426813674" lon="3.9549977501625384"><ele>157.25</ele><time>2026-04-30T15:18:02Z</time></trkpt><trkpt lat="50.128694927809164" lon="3.9549907807039433"><ele>156.5</ele><time>2026-04-30T15:18:03Z</time></trkpt><trkpt lat="50.12881366260919" lon="3.9549743564273165"><ele>155.75</ele><time>2026-04-30T15:18:04Z</time></trkpt><trkpt lat="50.12890539957938" lon="3.9549517288670697"><ele>155.0</ele><time>2026-04-30T15:18:05Z</time></trkpt><trkpt lat="50.128980576688726" lon="3.95488159379571"><ele>155.0</ele><time>2026-04-30T15:18:06Z</time></trkpt><trkpt lat="50.12903875943757" lon="3.9547461290461476"><ele>155.0</ele><time>2026-04-30T15:18:07Z</time></trkpt><trkpt lat="50.129061389328605" lon="3.9545541929625716"><ele>155.0</ele><time>2026-04-30T15:18:08Z</time></trkpt><trkpt lat="50.129043558808426" lon="3.9543111375989444"><ele>155.0</ele><time>2026-04-30T15:18:09Z</time></trkpt><trkpt lat="50.12902357730803" lon="3.954027027412126"><ele>155.0</ele><time>2026-04-30T15:18:10Z</time></trkpt><trkpt lat="50.12902128476851" lon="3.9537042104274467"><ele>155.0</ele><time>2026-04-30T15:18:11Z</time></trkpt><trkpt lat="50.1290329733217" lon="3.9533393452772043"><ele>155.0</ele><time>2026-04-30T15:18:12Z</time></trkpt><trkpt lat="50.12906661499769" lon="3.9529418672006646"><ele>155.5</ele><time>2026-04-30T15:18:13Z</time></trkpt><trkpt lat="50.129098322933984" lon="3.9525406156159737"><ele>156.0</ele><time>2026-04-30T15:18:14Z</time></trkpt><trkpt lat="50.129152091348224" lon="3.952182082321594"><ele>156.0</ele><time>2026-04-30T15:18:15Z</time></trkpt><trkpt lat="50.129213885906026" lon="3.9518435675348367"><ele>156.0</ele><time>2026-04-30T15:18:16Z</time></trkpt><trkpt lat="50.12927750494315" lon="3.951539620056441"><ele>156.0</ele><time>2026-04-30T15:18:17Z</time></trkpt><trkpt lat="50.129357558510755" lon="3.9512466295494026"><ele>156.0</ele><time>2026-04-30T15:18:18Z</time></trkpt><trkpt lat="50.12944233428259" lon="3.95097136177103"><ele>156.0</ele><time>2026-04-30T15:18:19Z</time></trkpt><trkpt lat="50.12953822667534" lon="3.950677155812537"><ele>156.0</ele><time>2026-04-30T15:18:20Z</time></trkpt><trkpt lat="50.12964152876207" lon="3.9503701173552317"><ele>156.5</ele><time>2026-04-30T15:18:21Z</time></trkpt><trkpt lat="50.1297525813237" lon="3.9500461555997655"><ele>157.0</ele><time>2026-04-30T15:18:22Z</time></trkpt><trkpt lat="50.12986352708456" lon="3.9497210835211987"><ele>158.0</ele><time>2026-04-30T15:18:23Z</time></trkpt><trkpt lat="50.129946155758915" lon="3.9493992673121374"><ele>159.0</ele><time>2026-04-30T15:18:24Z</time></trkpt><trkpt lat="50.13001645245531" lon="3.949059420645301"><ele>159.0</ele><time>2026-04-30T15:18:24.999Z</time></trkpt><trkpt lat="50.13007655797808" lon="3.948723769285782"><ele>159.0</ele><time>2026-04-30T15:18:25.999Z</time></trkpt><trkpt lat="50.13012170632512" lon="3.948378718703143"><ele>159.0</ele><time>2026-04-30T15:18:26.999Z</time></trkpt><trkpt lat="50.13014936531213" lon="3.948010572159014"><ele>159.33333333333334</ele><time>2026-04-30T15:18:27.999Z</time></trkpt><trkpt lat="50.13016981308598" lon="3.947653024472802"><ele>159.66666666666669</ele><time>2026-04-30T15:18:28.999Z</time></trkpt><trkpt lat="50.1301950994499" lon="3.947334166060953"><ele>160.0</ele><time>2026-04-30T15:18:29.999Z</time></trkpt><trkpt lat="50.130225719065535" lon="3.947039020956338"><ele>160.0</ele><time>2026-04-30T15:18:30.999Z</time></trkpt><trkpt lat="50.130261335878416" lon="3.946795496534574"><ele>160.0</ele><time>2026-04-30T15:18:31.999Z</time></trkpt><trkpt lat="50.130305225159994" lon="3.9465876129299757"><ele>160.0</ele><time>2026-04-30T15:18:32.999Z</time></trkpt><trkpt lat="50.13032958869532" lon="3.946410920385058"><ele>160.0</ele><time>2026-04-30T15:18:33.999Z</time></trkpt><trkpt lat="50.13034545306657" lon="3.9462393350993734"><ele>160.25</ele><time>2026-04-30T15:18:34.999Z</time></trkpt><trkpt lat="50.130358166104635" lon="3.946038927292551"><ele>160.5</ele><time>2026-04-30T15:18:35.999Z</time></trkpt><trkpt lat="50.130345553982956" lon="3.9458243369442725"><ele>160.75</ele><time>2026-04-30T15:18:36.999Z</time></trkpt><trkpt lat="50.13031583773463" lon="3.9456009083149404"><ele>161.0</ele><time>2026-04-30T15:18:37.999Z</time></trkpt><trkpt lat="50.13026362631699" lon="3.9453837351990733"><ele>161.0</ele><time>2026-04-30T15:18:38.999Z</time></trkpt><trkpt lat="50.13020652267833" lon="3.9452066666451127"><ele>161.0</ele><time>2026-04-30T15:18:39.999Z</time></trkpt><trkpt lat="50.130174366123065" lon="3.9450573347792126"><ele>161.0</ele><time>2026-04-30T15:18:40.999Z</time></trkpt><trkpt lat="50.130173602334416" lon="3.9449181948968772"><ele>161.0</ele><time>2026-04-30T15:18:41.999Z</time></trkpt><trkpt lat="50.130196524905514" lon="3.944749229020349"><ele>161.0</ele><time>2026-04-30T15:18:42.999Z</time></trkpt><trkpt lat="50.13022107876719" lon="3.9445419135202657"><ele>161.25</ele><time>2026-04-30T15:18:43.999Z</time></trkpt><trkpt lat="50.130248209148576" lon="3.944305081367083"><ele>161.5</ele><time>2026-04-30T15:18:44.999Z</time></trkpt><trkpt lat="50.13024243196114" lon="3.9440997270061477"><ele>161.75</ele><time>2026-04-30T15:18:45.999Z</time></trkpt><trkpt lat="50.13020075834576" lon="3.94390623537794"><ele>162.0</ele><time>2026-04-30T15:18:46.999Z</time></trkpt><trkpt lat="50.13011714536512" lon="3.9437252657059902"><ele>162.0</ele><time>2026-04-30T15:18:47.999Z</time></trkpt><trkpt lat="50.13003588805068" lon="3.9435497503030152"><ele>162.0</ele><time>2026-04-30T15:18:48.999Z</time></trkpt><trkpt lat="50.12990888907902" lon="3.9433823218606197"><ele>162.0</ele><time>2026-04-30T15:18:49.999Z</time></trkpt><trkpt lat="50.12984390473047" lon="3.9432156858048297"><ele>162.0</ele><time>2026-04-30T15:18:50.999Z</time></trkpt><trkpt lat="50.12980980588027" lon="3.943056238345082"><ele>158.66666666666666</ele><time>2026-04-30T15:18:51.999Z</time></trkpt><trkpt lat="50.12978462434902" lon="3.9428632186278105"><ele>155.33333333333331</ele><time>2026-04-30T15:18:52.999Z</time></trkpt><trkpt lat="50.129763674735976" lon="3.9426220870200077"><ele>152.0</ele><time>2026-04-30T15:18:53.999Z</time></trkpt><trkpt lat="50.12971832469129" lon="3.942349175440118"><ele>152.0</ele><time>2026-04-30T15:18:54.999Z</time></trkpt><trkpt lat="50.12968690700328" lon="3.9420436451918"><ele>152.0</ele><time>2026-04-30T15:18:55.999Z</time></trkpt><trkpt lat="50.1296523160982" lon="3.941718864941372"><ele>152.0</ele><time>2026-04-30T15:18:56.999Z</time></trkpt><trkpt lat="50.129595735755245" lon="3.941424871259357"><ele>152.66666666666666</ele><time>2026-04-30T15:18:57.999Z</time></trkpt><trkpt lat="50.12954008619908" lon="3.9411716640569234"><ele>153.33333333333334</ele><time>2026-04-30T15:18:58.999Z</time></trkpt><trkpt lat="50.12948516589147" lon="3.9409265294129896"><ele>154.0</ele><time>2026-04-30T15:18:59.999Z</time></trkpt><trkpt lat="50.129437555274166" lon="3.9406880960050215"><ele>155.33333333333334</ele><time>2026-04-30T15:19:00.999Z</time></trkpt><trkpt lat="50.12938129017566" lon="3.940451707247765"><ele>156.66666666666666</ele><time>2026-04-30T15:19:01.999Z</time></trkpt><trkpt lat="50.12931852604297" lon="3.940224978987126"><ele>158.0</ele><time>2026-04-30T15:19:02.999Z</time></trkpt><trkpt lat="50.12925097379603" lon="3.9400246503371013"><ele>159.25</ele><time>2026-04-30T15:19:03.999Z</time></trkpt><trkpt lat="50.12917068872553" lon="3.93985097779716"><ele>160.5</ele><time>2026-04-30T15:19:04.999Z</time></trkpt><trkpt lat="50.12908210478034" lon="3.9396851101857164"><ele>161.75</ele><time>2026-04-30T15:19:05.999Z</time></trkpt><trkpt lat="50.12898610554693" lon="3.9395188940619112"><ele>163.0</ele><time>2026-04-30T15:19:06.999Z</time></trkpt><trkpt lat="50.12890872336738" lon="3.939373180376055"><ele>161.8</ele><time>2026-04-30T15:19:07.999Z</time></trkpt><trkpt lat="50.12886564884629" lon="3.9392311224507504"><ele>160.60000000000002</ele><time>2026-04-30T15:19:08.999Z</time></trkpt><trkpt lat="50.128840744750605" lon="3.939083813258117"><ele>159.39999999999998</ele><time>2026-04-30T15:19:09.999Z</time></trkpt><trkpt lat="50.12886124211656" lon="3.938913207037818"><ele>158.2</ele><time>2026-04-30T15:19:10.999Z</time></trkpt><trkpt lat="50.128883241975096" lon="3.938703799062753"><ele>157.0</ele><time>2026-04-30T15:19:11.999Z</time></trkpt><trkpt lat="50.12889562362135" lon="3.938466151607348"><ele>158.5</ele><time>2026-04-30T15:19:12.999Z</time></trkpt><trkpt lat="50.12892587291756" lon="3.938205460282266"><ele>160.0</ele><time>2026-04-30T15:19:13.999Z</time></trkpt><trkpt lat="50.12894446327905" lon="3.9379809713132485"><ele>161.5</ele><time>2026-04-30T15:19:14.999Z</time></trkpt><trkpt lat="50.12896528748144" lon="3.9377851761929756"><ele>163.0</ele><time>2026-04-30T15:19:15.999Z</time></trkpt><trkpt lat="50.128982927779745" lon="3.9376205267363638"><ele>163.60000000000002</ele><time>2026-04-30T15:19:16.999Z</time></trkpt><trkpt lat="50.12901161051167" lon="3.9375186911220235"><ele>164.20000000000002</ele><time>2026-04-30T15:19:17.999Z</time></trkpt><trkpt lat="50.12905429040918" lon="3.9374071773587724"><ele>164.8</ele><time>2026-04-30T15:19:44Z</time></trkpt><trkpt lat="50.12921737347538" lon="3.9375413824797385"><ele>165.4</ele><time>2026-04-30T15:19:46Z</time></trkpt><trkpt lat="50.12931075311466" lon="3.9375873332871856"><ele>166.0</ele><time>2026-04-30T15:19:47Z</time></trkpt><trkpt lat="50.12940482808873" lon="3.937660632112035"><ele>167.0</ele><time>2026-04-30T15:19:48Z</time></trkpt><trkpt lat="50.129492040666264" lon="3.937729085449363"><ele>168.0</ele><time>2026-04-30T15:19:49Z</time></trkpt><trkpt lat="50.12955897439279" lon="3.937786028836887"><ele>169.0</ele><time>2026-04-30T15:19:50Z</time></trkpt><trkpt lat="50.12964492418535" lon="3.9378570552983674"><ele>170.0</ele><time>2026-04-30T15:19:52Z</time></trkpt><trkpt lat="50.12975421352696" lon="3.93795664588977"><ele>171.0</ele><time>2026-04-30T15:19:54Z</time></trkpt><trkpt lat="50.12982597398712" lon="3.9380025806209726"><ele>171.33333333333334</ele><time>2026-04-30T15:19:55Z</time></trkpt><trkpt lat="50.12989257770464" lon="3.938069030690577"><ele>171.66666666666666</ele><time>2026-04-30T15:19:56Z</time></trkpt><trkpt lat="50.12997577754235" lon="3.9381319471650515"><ele>172.0</ele><time>2026-04-30T15:19:57Z</time></trkpt><trkpt lat="50.13005870092624" lon="3.9382003169924924"><ele>172.33333333333331</ele><time>2026-04-30T15:19:58Z</time></trkpt><trkpt lat="50.13013456339333" lon="3.9382597921385147"><ele>172.66666666666666</ele><time>2026-04-30T15:19:59Z</time></trkpt><trkpt lat="50.130216568732486" lon="3.9383179958346206"><ele>173.0</ele><time>2026-04-30T15:20:00Z</time></trkpt><trkpt lat="50.13030269609126" lon="3.9383823643599185"><ele>172.8</ele><time>2026-04-30T15:20:01Z</time></trkpt><trkpt lat="50.13038878609192" lon="3.9384532112858355"><ele>172.60000000000002</ele><time>2026-04-30T15:20:02Z</time></trkpt><trkpt lat="50.130475450275334" lon="3.938528830509529"><ele>172.39999999999998</ele><time>2026-04-30T15:20:03Z</time></trkpt><trkpt lat="50.13056714709267" lon="3.9386049703089436"><ele>172.2</ele><time>2026-04-30T15:20:04Z</time></trkpt><trkpt lat="50.13066669927883" lon="3.9386775570440546"><ele>172.0</ele><time>2026-04-30T15:20:05Z</time></trkpt><trkpt lat="50.13077775142874" lon="3.9387648761084337"><ele>173.0</ele><time>2026-04-30T15:20:06Z</time></trkpt><trkpt lat="50.13088957365329" lon="3.938866071195593"><ele>174.0</ele><time>2026-04-30T15:20:07Z</time></trkpt><trkpt lat="50.13100941496737" lon="3.938968717904919"><ele>175.0</ele><time>2026-04-30T15:20:08Z</time></trkpt><trkpt lat="50.1311235386036" lon="3.93906963642957"><ele>176.0</ele><time>2026-04-30T15:20:09Z</time></trkpt><trkpt lat="50.131234041866165" lon="3.9391759364803276"><ele>176.25</ele><time>2026-04-30T15:20:10Z</time></trkpt><trkpt lat="50.13133175413042" lon="3.9392911766987044"><ele>176.5</ele><time>2026-04-30T15:20:11Z</time></trkpt><trkpt lat="50.13141960983182" lon="3.939423424022264"><ele>176.75</ele><time>2026-04-30T15:20:12Z</time></trkpt><trkpt lat="50.13150401127534" lon="3.9395620828944544"><ele>177.0</ele><time>2026-04-30T15:20:13Z</time></trkpt><trkpt lat="50.13158327128631" lon="3.93970765038142"><ele>177.0</ele><time>2026-04-30T15:20:14Z</time></trkpt><trkpt lat="50.131656636903735" lon="3.9398653013692737"><ele>177.0</ele><time>2026-04-30T15:20:15Z</time></trkpt><trkpt lat="50.131729371499894" lon="3.940035917640547"><ele>177.0</ele><time>2026-04-30T15:20:16Z</time></trkpt><trkpt lat="50.13179055445028" lon="3.9402047481546014"><ele>177.0</ele><time>2026-04-30T15:20:17Z</time></trkpt><trkpt lat="50.13185087311551" lon="3.9403800781085847"><ele>177.25</ele><time>2026-04-30T15:20:18Z</time></trkpt><trkpt lat="50.131915092336136" lon="3.94055133510519"><ele>177.5</ele><time>2026-04-30T15:20:19Z</time></trkpt><trkpt lat="50.13198169866002" lon="3.9407274206230753"><ele>177.75</ele><time>2026-04-30T15:20:20Z</time></trkpt><trkpt lat="50.132051684800224" lon="3.9409105773394"><ele>178.0</ele><time>2026-04-30T15:20:21Z</time></trkpt><trkpt lat="50.13213028870943" lon="3.941103566154415"><ele>178.25</ele><time>2026-04-30T15:20:22Z</time></trkpt><trkpt lat="50.132210749173325" lon="3.9412922608096173"><ele>178.5</ele><time>2026-04-30T15:20:23Z</time></trkpt><trkpt lat="50.13230729814024" lon="3.941469324785212"><ele>178.75</ele><time>2026-04-30T15:20:24Z</time></trkpt><trkpt lat="50.13241654607196" lon="3.941627957588027"><ele>179.0</ele><time>2026-04-30T15:20:25Z</time></trkpt><trkpt lat="50.13253549777152" lon="3.9417706282674176"><ele>179.33333333333331</ele><time>2026-04-30T15:20:26Z</time></trkpt><trkpt lat="50.13266943072853" lon="3.9419069817765067"><ele>179.66666666666666</ele><time>2026-04-30T15:20:27Z</time></trkpt><trkpt lat="50.13281152054329" lon="3.9420269920161886"><ele>180.0</ele><time>2026-04-30T15:20:28Z</time></trkpt><trkpt lat="50.132954451502265" lon="3.942148827935737"><ele>180.0</ele><time>2026-04-30T15:20:29Z</time></trkpt><trkpt lat="50.13310130556431" lon="3.9422713608160094"><ele>180.0</ele><time>2026-04-30T15:20:30Z</time></trkpt><trkpt lat="50.13325517251964" lon="3.9423997707394034"><ele>180.0</ele><time>2026-04-30T15:20:31Z</time></trkpt><trkpt lat="50.13340952116769" lon="3.942542831937891"><ele>181.33333333333334</ele><time>2026-04-30T15:20:32Z</time></trkpt><trkpt lat="50.133592578652625" lon="3.9427177635337687"><ele>182.66666666666669</ele><time>2026-04-30T15:20:33Z</time></trkpt><trkpt lat="50.133789812481325" lon="3.9429130943747666"><ele>184.0</ele><time>2026-04-30T15:20:34Z</time></trkpt><trkpt lat="50.13398864139859" lon="3.943111688127363"><ele>184.0</ele><time>2026-04-30T15:20:35Z</time></trkpt><trkpt lat="50.13417747121985" lon="3.943300842835984"><ele>184.0</ele><time>2026-04-30T15:20:36Z</time></trkpt><trkpt lat="50.134357888575025" lon="3.9434834260069147"><ele>184.0</ele><time>2026-04-30T15:20:37Z</time></trkpt><trkpt lat="50.134529982340766" lon="3.9436495335147774"><ele>184.0</ele><time>2026-04-30T15:20:38Z</time></trkpt><trkpt lat="50.134681571237756" lon="3.9437967055451604"><ele>184.0</ele><time>2026-04-30T15:20:39Z</time></trkpt><trkpt lat="50.1348261152252" lon="3.9439437510260804"><ele>184.0</ele><time>2026-04-30T15:20:40Z</time></trkpt><trkpt lat="50.1349573743629" lon="3.944077152811633"><ele>184.25</ele><time>2026-04-30T15:20:41Z</time></trkpt><trkpt lat="50.135080586492656" lon="3.9441986446909114"><ele>184.5</ele><time>2026-04-30T15:20:42Z</time></trkpt><trkpt lat="50.135199051964285" lon="3.944322748783638"><ele>184.75</ele><time>2026-04-30T15:20:42.999Z</time></trkpt><trkpt lat="50.13531823893685" lon="3.9444464845228953"><ele>185.0</ele><time>2026-04-30T15:20:43.999Z</time></trkpt><trkpt lat="50.13544218226793" lon="3.94456413612719"><ele>185.5</ele><time>2026-04-30T15:20:44.999Z</time></trkpt><trkpt lat="50.135564705139814" lon="3.944679118526189"><ele>186.0</ele><time>2026-04-30T15:20:45.999Z</time></trkpt><trkpt lat="50.13567536797765" lon="3.944785970334068"><ele>186.5</ele><time>2026-04-30T15:20:46.999Z</time></trkpt><trkpt lat="50.13578556216599" lon="3.9448987178900916"><ele>187.0</ele><time>2026-04-30T15:20:47.999Z</time></trkpt><trkpt lat="50.13589912421484" lon="3.9450136503868656"><ele>186.0</ele><time>2026-04-30T15:20:48.999Z</time></trkpt><trkpt lat="50.13601225075173" lon="3.945127490512619"><ele>185.0</ele><time>2026-04-30T15:20:49.999Z</time></trkpt><trkpt lat="50.13612796513097" lon="3.9452397827344345"><ele>184.0</ele><time>2026-04-30T15:20:50.999Z</time></trkpt><trkpt lat="50.136246261785594" lon="3.9453556999355697"><ele>183.0</ele><time>2026-04-30T15:20:51.999Z</time></trkpt><trkpt lat="50.13636848198832" lon="3.945477048500507"><ele>183.0</ele><time>2026-04-30T15:20:52.999Z</time></trkpt><trkpt lat="50.13650015427533" lon="3.945598968731958"><ele>183.0</ele><time>2026-04-30T15:20:53.999Z</time></trkpt><trkpt lat="50.13664220283256" lon="3.945727935027247"><ele>183.0</ele><time>2026-04-30T15:20:54.999Z</time></trkpt><trkpt lat="50.136791564278155" lon="3.94585123001819"><ele>180.33333333333334</ele><time>2026-04-30T15:20:55.999Z</time></trkpt><trkpt lat="50.136944636101894" lon="3.945966630880774"><ele>177.66666666666669</ele><time>2026-04-30T15:20:56.999Z</time></trkpt><trkpt lat="50.13710419295789" lon="3.9460716551920534"><ele>175.0</ele><time>2026-04-30T15:20:57.999Z</time></trkpt><trkpt lat="50.13726542504622" lon="3.9461702343522442"><ele>171.66666666666669</ele><time>2026-04-30T15:20:58.999Z</time></trkpt><trkpt lat="50.1374316852467" lon="3.9462711211928596"><ele>168.33333333333334</ele><time>2026-04-30T15:20:59.999Z</time></trkpt><trkpt lat="50.13759743544733" lon="3.9463626107862964"><ele>165.0</ele><time>2026-04-30T15:21:00.999Z</time></trkpt><trkpt lat="50.13776214889939" lon="3.946443572969721"><ele>165.0</ele><time>2026-04-30T15:21:01.999Z</time></trkpt><trkpt lat="50.13791712379667" lon="3.946519929047717"><ele>165.0</ele><time>2026-04-30T15:21:02.999Z</time></trkpt><trkpt lat="50.138074586353696" lon="3.9465904909416416"><ele>165.0</ele><time>2026-04-30T15:21:03.998Z</time></trkpt><trkpt lat="50.13823230426046" lon="3.9466512720709055"><ele>165.5</ele><time>2026-04-30T15:21:04.998Z</time></trkpt><trkpt lat="50.138380317942676" lon="3.9467019417392666"><ele>166.0</ele><time>2026-04-30T15:21:05.998Z</time></trkpt><trkpt lat="50.13851467255865" lon="3.946737466038936"><ele>166.5</ele><time>2026-04-30T15:21:06.998Z</time></trkpt><trkpt lat="50.13863870834951" lon="3.9467717079661293"><ele>167.0</ele><time>2026-04-30T15:21:07.998Z</time></trkpt><trkpt lat="50.13876199248181" lon="3.9468039065649814"><ele>167.0</ele><time>2026-04-30T15:21:08.998Z</time></trkpt><trkpt lat="50.138889186523656" lon="3.9468333816374734"><ele>167.0</ele><time>2026-04-30T15:21:09.998Z</time></trkpt><trkpt lat="50.139011880874286" lon="3.9468573398960243"><ele>167.0</ele><time>2026-04-30T15:21:10.998Z</time></trkpt><trkpt lat="50.13913523780003" lon="3.9468838094341976"><ele>167.0</ele><time>2026-04-30T15:21:11.998Z</time></trkpt><trkpt lat="50.139263196318005" lon="3.9469126896865756"><ele>169.33333333333331</ele><time>2026-04-30T15:21:12.998Z</time></trkpt><trkpt lat="50.13940806648304" lon="3.9469404593915605"><ele>171.66666666666666</ele><time>2026-04-30T15:21:13.998Z</time></trkpt><trkpt lat="50.13958883981354" lon="3.9469730076235434"><ele>174.0</ele><time>2026-04-30T15:21:14.998Z</time></trkpt><trkpt lat="50.13977442801492" lon="3.9470083111199497"><ele>175.66666666666666</ele><time>2026-04-30T15:21:15.998Z</time></trkpt><trkpt lat="50.13996294490824" lon="3.9470432937662827"><ele>177.33333333333331</ele><time>2026-04-30T15:21:16.998Z</time></trkpt><trkpt lat="50.14014385785157" lon="3.9470731903859884"><ele>179.0</ele><time>2026-04-30T15:21:17.998Z</time></trkpt><trkpt lat="50.14032217555211" lon="3.9471099477382308"><ele>179.0</ele><time>2026-04-30T15:21:18.998Z</time></trkpt><trkpt lat="50.14048772937412" lon="3.9471478157302835"><ele>179.0</ele><time>2026-04-30T15:21:19.998Z</time></trkpt><trkpt lat="50.140650614515614" lon="3.947174430535045"><ele>179.0</ele><time>2026-04-30T15:21:20.998Z</time></trkpt><trkpt lat="50.14080533245208" lon="3.947205264171357"><ele>180.75</ele><time>2026-04-30T15:21:21.998Z</time></trkpt><trkpt lat="50.140952257136675" lon="3.947235316929387"><ele>182.5</ele><time>2026-04-30T15:21:22.998Z</time></trkpt><trkpt lat="50.141102527592096" lon="3.9472648430696013"><ele>184.25</ele><time>2026-04-30T15:21:23.998Z</time></trkpt><trkpt lat="50.14123427515211" lon="3.947290438488798"><ele>186.0</ele><time>2026-04-30T15:21:24.998Z</time></trkpt><trkpt lat="50.14135311466904" lon="3.9473176512708883"><ele>186.0</ele><time>2026-04-30T15:21:25.998Z</time></trkpt><trkpt lat="50.14146235070653" lon="3.947338392123136"><ele>186.0</ele><time>2026-04-30T15:21:26.998Z</time></trkpt><trkpt lat="50.14158293131956" lon="3.9473617699135044"><ele>186.0</ele><time>2026-04-30T15:21:27.998Z</time></trkpt><trkpt lat="50.14171258367818" lon="3.947382423471454"><ele>186.0</ele><time>2026-04-30T15:21:28.998Z</time></trkpt><trkpt lat="50.14184854962984" lon="3.947409727698049"><ele>186.25</ele><time>2026-04-30T15:21:30Z</time></trkpt><trkpt lat="50.14199015696551" lon="3.9474435374030197"><ele>186.5</ele><time>2026-04-30T15:21:31Z</time></trkpt><trkpt lat="50.14213383993871" lon="3.9474791464615047"><ele>186.75</ele><time>2026-04-30T15:21:32Z</time></trkpt><trkpt lat="50.142275564413886" lon="3.9475010568735556"><ele>187.0</ele><time>2026-04-30T15:21:33Z</time></trkpt><trkpt lat="50.14241240055541" lon="3.9475302232986476"><ele>187.5</ele><time>2026-04-30T15:21:34Z</time></trkpt><trkpt lat="50.14254049500095" lon="3.9475548873763366"><ele>188.0</ele><time>2026-04-30T15:21:34.999Z</time></trkpt><trkpt lat="50.14265981520124" lon="3.9475776679312307"><ele>188.5</ele><time>2026-04-30T15:21:35.999Z</time></trkpt><trkpt lat="50.142776979424575" lon="3.947601516343526"><ele>189.0</ele><time>2026-04-30T15:21:37Z</time></trkpt><trkpt lat="50.14288761027216" lon="3.947625951408916"><ele>189.0</ele><time>2026-04-30T15:21:37.999Z</time></trkpt><trkpt lat="50.14299557422196" lon="3.9476404849765925"><ele>189.0</ele><time>2026-04-30T15:21:38.999Z</time></trkpt><trkpt lat="50.14309978152567" lon="3.947633587001699"><ele>189.0</ele><time>2026-04-30T15:21:40Z</time></trkpt><trkpt lat="50.14320002999628" lon="3.9476774521085454"><ele>189.0</ele><time>2026-04-30T15:21:40.999Z</time></trkpt><trkpt lat="50.143314698331835" lon="3.9477062123910756"><ele>189.0</ele><time>2026-04-30T15:21:41.999Z</time></trkpt><trkpt lat="50.14341771856009" lon="3.9477305523413584"><ele>190.0</ele><time>2026-04-30T15:21:43Z</time></trkpt><trkpt lat="50.143519556883064" lon="3.9477490140907237"><ele>191.0</ele><time>2026-04-30T15:21:43.999Z</time></trkpt><trkpt lat="50.14362566669574" lon="3.947765897342178"><ele>192.0</ele><time>2026-04-30T15:21:44.999Z</time></trkpt><trkpt lat="50.14374573764024" lon="3.947784596369771"><ele>193.0</ele><time>2026-04-30T15:21:45.999Z</time></trkpt><trkpt lat="50.14387365693464" lon="3.9478100610908586"><ele>193.0</ele><time>2026-04-30T15:21:46.999Z</time></trkpt><trkpt lat="50.14400298137393" lon="3.947842955457886"><ele>193.0</ele><time>2026-04-30T15:21:47.999Z</time></trkpt><trkpt lat="50.14413667227475" lon="3.9478765942908693"><ele>193.0</ele><time>2026-04-30T15:21:48.999Z</time></trkpt><trkpt lat="50.144273063236795" lon="3.9479132225982365"><ele>193.0</ele><time>2026-04-30T15:21:49.999Z</time></trkpt><trkpt lat="50.144404976297984" lon="3.9479599955624542"><ele>193.0</ele><time>2026-04-30T15:21:50.999Z</time></trkpt><trkpt lat="50.14453032378024" lon="3.948008387960507"><ele>193.0</ele><time>2026-04-30T15:21:51.999Z</time></trkpt><trkpt lat="50.14465038222254" lon="3.9480531395107805"><ele>193.0</ele><time>2026-04-30T15:21:52.999Z</time></trkpt><trkpt lat="50.14476704647676" lon="3.948100421986864"><ele>193.0</ele><time>2026-04-30T15:21:53.999Z</time></trkpt><trkpt lat="50.14488460424819" lon="3.9481617539625553"><ele>193.75</ele><time>2026-04-30T15:21:54.999Z</time></trkpt><trkpt lat="50.145001155236976" lon="3.9482304055643134"><ele>194.5</ele><time>2026-04-30T15:21:55.999Z</time></trkpt><trkpt lat="50.145116785371755" lon="3.948308146096052"><ele>195.25</ele><time>2026-04-30T15:21:56.999Z</time></trkpt><trkpt lat="50.145224951934544" lon="3.9483838238733933"><ele>196.0</ele><time>2026-04-30T15:21:57.999Z</time></trkpt><trkpt lat="50.145328992980716" lon="3.9484536078619987"><ele>195.99999999999997</ele><time>2026-04-30T15:21:58.999Z</time></trkpt><trkpt lat="50.145431065367575" lon="3.948524458661887"><ele>196.0</ele><time>2026-04-30T15:21:59.999Z</time></trkpt><trkpt lat="50.14552224251544" lon="3.948592050172903"><ele>196.0</ele><time>2026-04-30T15:22:00.999Z</time></trkpt><trkpt lat="50.14560048767507" lon="3.948645262675712"><ele>196.0</ele><time>2026-04-30T15:22:01.999Z</time></trkpt><trkpt lat="50.14566374258218" lon="3.9486907503784834"><ele>195.99999999999997</ele><time>2026-04-30T15:22:02.999Z</time></trkpt><trkpt lat="50.14573513608521" lon="3.9487346201659874"><ele>196.0</ele><time>2026-04-30T15:22:03.999Z</time></trkpt><trkpt lat="50.14581311627221" lon="3.948782770050619"><ele>196.33333333333331</ele><time>2026-04-30T15:22:04.999Z</time></trkpt><trkpt lat="50.14588634959566" lon="3.948849671543117"><ele>196.66666666666666</ele><time>2026-04-30T15:22:05.999Z</time></trkpt><trkpt lat="50.145964322531654" lon="3.948903672007045"><ele>197.0</ele><time>2026-04-30T15:22:06.999Z</time></trkpt><trkpt lat="50.14604425429467" lon="3.9489590291057337"><ele>197.33333333333331</ele><time>2026-04-30T15:22:07.999Z</time></trkpt><trkpt lat="50.1461234689316" lon="3.949013889600367"><ele>197.66666666666666</ele><time>2026-04-30T15:22:08.999Z</time></trkpt><trkpt lat="50.14620143043728" lon="3.94906788206852"><ele>198.0</ele><time>2026-04-30T15:22:09.999Z</time></trkpt><trkpt lat="50.14628308803308" lon="3.949124434375234"><ele>198.0</ele><time>2026-04-30T15:22:10.999Z</time></trkpt><trkpt lat="50.14636048110717" lon="3.9491780332295083"><ele>198.0</ele><time>2026-04-30T15:22:11.999Z</time></trkpt><trkpt lat="50.14643332860913" lon="3.949228484055121"><ele>198.0</ele><time>2026-04-30T15:22:12.999Z</time></trkpt><trkpt lat="50.14650064800721" lon="3.9492751063650062"><ele>198.0</ele><time>2026-04-30T15:22:13.999Z</time></trkpt><trkpt lat="50.146567662878624" lon="3.949321509507468"><ele>198.0</ele><time>2026-04-30T15:22:14.999Z</time></trkpt><trkpt lat="50.14663503506174" lon="3.9493681035447685"><ele>198.0</ele><time>2026-04-30T15:22:15.999Z</time></trkpt><trkpt lat="50.14670664000845" lon="3.949417624841254"><ele>198.33333333333334</ele><time>2026-04-30T15:22:16.999Z</time></trkpt><trkpt lat="50.146781664692" lon="3.9494695112708036"><ele>198.66666666666669</ele><time>2026-04-30T15:22:17.999Z</time></trkpt><trkpt lat="50.14685407560891" lon="3.949519589997854"><ele>199.0</ele><time>2026-04-30T15:22:18.999Z</time></trkpt><trkpt lat="50.146927349613186" lon="3.949570265666448"><ele>199.33333333333334</ele><time>2026-04-30T15:22:19.999Z</time></trkpt><trkpt lat="50.14700140526833" lon="3.9496214819903996"><ele>199.66666666666669</ele><time>2026-04-30T15:22:20.999Z</time></trkpt><trkpt lat="50.14708385446842" lon="3.9496785030626733"><ele>200.0</ele><time>2026-04-30T15:22:21.999Z</time></trkpt><trkpt lat="50.14718048766642" lon="3.949745333774257"><ele>200.0</ele><time>2026-04-30T15:22:22.999Z</time></trkpt><trkpt lat="50.14728017405861" lon="3.9498142759197283"><ele>200.0</ele><time>2026-04-30T15:22:23.999Z</time></trkpt><trkpt lat="50.14737993761517" lon="3.9498827947867987"><ele>200.0</ele><time>2026-04-30T15:22:24.999Z</time></trkpt><trkpt lat="50.14748351358158" lon="3.949953809441945"><ele>200.0</ele><time>2026-04-30T15:22:25.999Z</time></trkpt><trkpt lat="50.14759403217039" lon="3.950015553252653"><ele>200.0</ele><time>2026-04-30T15:22:26.999Z</time></trkpt><trkpt lat="50.147711659628804" lon="3.9501059103648686"><ele>199.25</ele><time>2026-04-30T15:22:27.999Z</time></trkpt><trkpt lat="50.14783362076232" lon="3.9501866331286686"><ele>198.5</ele><time>2026-04-30T15:22:28.999Z</time></trkpt><trkpt lat="50.1479537098452" lon="3.9502669638354075"><ele>197.75</ele><time>2026-04-30T15:22:29.999Z</time></trkpt><trkpt lat="50.14806943823111" lon="3.9503469071872015"><ele>197.0</ele><time>2026-04-30T15:22:30.999Z</time></trkpt><trkpt lat="50.14818537613999" lon="3.9504272393333"><ele>198.25</ele><time>2026-04-30T15:22:31.999Z</time></trkpt><trkpt lat="50.14830641368649" lon="3.9505071598377595"><ele>199.5</ele><time>2026-04-30T15:22:32.999Z</time></trkpt><trkpt lat="50.14842628812956" lon="3.950588655488612"><ele>200.75</ele><time>2026-04-30T15:22:33.999Z</time></trkpt><trkpt lat="50.14854457943751" lon="3.9506716592226203"><ele>202.0</ele><time>2026-04-30T15:22:34.999Z</time></trkpt><trkpt lat="50.14866208430324" lon="3.9507523970163883"><ele>202.0</ele><time>2026-04-30T15:22:35.999Z</time></trkpt><trkpt lat="50.14877560061942" lon="3.9508319546646464"><ele>202.0</ele><time>2026-04-30T15:22:36.999Z</time></trkpt><trkpt lat="50.14888669211782" lon="3.9509069914502764"><ele>202.0</ele><time>2026-04-30T15:22:37.999Z</time></trkpt><trkpt lat="50.14899324357488" lon="3.950980012440902"><ele>202.0</ele><time>2026-04-30T15:22:38.999Z</time></trkpt><trkpt lat="50.14910549103442" lon="3.95106125233709"><ele>202.0</ele><time>2026-04-30T15:22:39.999Z</time></trkpt><trkpt lat="50.14922484860441" lon="3.951142847297427"><ele>202.0</ele><time>2026-04-30T15:22:40.999Z</time></trkpt><trkpt lat="50.14934767412468" lon="3.951230185323103"><ele>202.0</ele><time>2026-04-30T15:22:41.999Z</time></trkpt><trkpt lat="50.14947138138336" lon="3.951315214812307"><ele>202.0</ele><time>2026-04-30T15:22:42.999Z</time></trkpt><trkpt lat="50.1495984574628" lon="3.9513988551114934"><ele>202.0</ele><time>2026-04-30T15:22:43.999Z</time></trkpt><trkpt lat="50.14972500216772" lon="3.9514858799182213"><ele>202.0</ele><time>2026-04-30T15:22:44.999Z</time></trkpt><trkpt lat="50.14985856220232" lon="3.951578978309878"><ele>202.0</ele><time>2026-04-30T15:22:45.999Z</time></trkpt><trkpt lat="50.14999414537185" lon="3.9516764355092935"><ele>202.0</ele><time>2026-04-30T15:22:46.999Z</time></trkpt><trkpt lat="50.150145033608545" lon="3.9517827671054797"><ele>202.33333333333331</ele><time>2026-04-30T15:22:47.999Z</time></trkpt><trkpt lat="50.1503025517383" lon="3.951888501111588"><ele>202.66666666666669</ele><time>2026-04-30T15:22:48.999Z</time></trkpt><trkpt lat="50.15046763776326" lon="3.9520048464690305"><ele>203.0</ele><time>2026-04-30T15:22:49.999Z</time></trkpt><trkpt lat="50.150635902912015" lon="3.9521231798732446"><ele>203.66666666666669</ele><time>2026-04-30T15:22:50.999Z</time></trkpt><trkpt lat="50.15079923208972" lon="3.9522356147957622"><ele>204.33333333333331</ele><time>2026-04-30T15:22:51.999Z</time></trkpt><trkpt lat="50.150953990920655" lon="3.952338869333384"><ele>205.0</ele><time>2026-04-30T15:22:52.999Z</time></trkpt><trkpt lat="50.15110899135452" lon="3.9524396251205314"><ele>205.33333333333331</ele><time>2026-04-30T15:22:53.998Z</time></trkpt><trkpt lat="50.151260504868574" lon="3.9525475850093676"><ele>205.66666666666669</ele><time>2026-04-30T15:22:54.998Z</time></trkpt><trkpt lat="50.15140647054748" lon="3.952644788961936"><ele>206.0</ele><time>2026-04-30T15:22:55.998Z</time></trkpt><trkpt lat="50.151549278168275" lon="3.9527424144970067"><ele>206.75</ele><time>2026-04-30T15:22:56.998Z</time></trkpt><trkpt lat="50.151683491403034" lon="3.952833918091835"><ele>207.5</ele><time>2026-04-30T15:22:57.998Z</time></trkpt><trkpt lat="50.15181189945271" lon="3.95292559002305"><ele>208.25</ele><time>2026-04-30T15:22:58.998Z</time></trkpt><trkpt lat="50.151945652705955" lon="3.9530122569733837"><ele>209.0</ele><time>2026-04-30T15:22:59.998Z</time></trkpt><trkpt lat="50.1520746563345" lon="3.9531024622176685"><ele>209.0</ele><time>2026-04-30T15:23:00.998Z</time></trkpt><trkpt lat="50.15220107609555" lon="3.953193367215958"><ele>209.0</ele><time>2026-04-30T15:23:01.998Z</time></trkpt><trkpt lat="50.152312309720244" lon="3.953279625868392"><ele>209.0</ele><time>2026-04-30T15:23:02.998Z</time></trkpt><trkpt lat="50.152410868297586" lon="3.9533590509818515"><ele>209.0</ele><time>2026-04-30T15:23:03.998Z</time></trkpt><trkpt lat="50.15249155808641" lon="3.953428218515791"><ele>209.2</ele><time>2026-04-30T15:23:04.998Z</time></trkpt><trkpt lat="50.15255013312216" lon="3.9534813760672134"><ele>209.39999999999998</ele><time>2026-04-30T15:23:05.998Z</time></trkpt><trkpt lat="50.152622600842605" lon="3.9535465124712856"><ele>209.6</ele><time>2026-04-30T15:23:07.998Z</time></trkpt><trkpt lat="50.1526814636082" lon="3.953595200042045"><ele>209.8</ele><time>2026-04-30T15:24:11.999Z</time></trkpt><trkpt lat="50.15280274429829" lon="3.9536374609185003"><ele>210.0</ele><time>2026-04-30T15:24:13.999Z</time></trkpt><trkpt lat="50.15293378455445" lon="3.9537079289883845"><ele>210.0</ele><time>2026-04-30T15:24:14.999Z</time></trkpt><trkpt lat="50.153075425774894" lon="3.9538057111828544"><ele>210.0</ele><time>2026-04-30T15:24:15.999Z</time></trkpt><trkpt lat="50.15324047765208" lon="3.9539199391409077"><ele>210.0</ele><time>2026-04-30T15:24:16.999Z</time></trkpt><trkpt lat="50.15342380029626" lon="3.954038894607602"><ele>209.0</ele><time>2026-04-30T15:24:17.999Z</time></trkpt><trkpt lat="50.15360461450393" lon="3.954156865706326"><ele>208.0</ele><time>2026-04-30T15:24:18.999Z</time></trkpt><trkpt lat="50.15377795525136" lon="3.9542806492365887"><ele>207.0</ele><time>2026-04-30T15:24:19.999Z</time></trkpt><trkpt lat="50.15394981027066" lon="3.9544002525484943"><ele>206.66666666666669</ele><time>2026-04-30T15:24:20.999Z</time></trkpt><trkpt lat="50.15411619721543" lon="3.9545156378799846"><ele>206.33333333333334</ele><time>2026-04-30T15:24:21.999Z</time></trkpt><trkpt lat="50.15427743089212" lon="3.9546328370369217"><ele>206.0</ele><time>2026-04-30T15:24:22.999Z</time></trkpt><trkpt lat="50.15443143771149" lon="3.9547355647603863"><ele>206.0</ele><time>2026-04-30T15:24:23.999Z</time></trkpt><trkpt lat="50.154593538381704" lon="3.9548167207604914"><ele>206.0</ele><time>2026-04-30T15:24:24.999Z</time></trkpt><trkpt lat="50.15476158296865" lon="3.9548564117305296"><ele>206.0</ele><time>2026-04-30T15:24:25.999Z</time></trkpt><trkpt lat="50.15494248012829" lon="3.9548606599803118"><ele>205.66666666666669</ele><time>2026-04-30T15:24:26.999Z</time></trkpt><trkpt lat="50.15513403223254" lon="3.954850252567503"><ele>205.33333333333331</ele><time>2026-04-30T15:24:27.999Z</time></trkpt><trkpt lat="50.155336977825115" lon="3.9548279977034895"><ele>205.0</ele><time>2026-04-30T15:24:28.999Z</time></trkpt><trkpt lat="50.1555335486543" lon="3.9548092714685628"><ele>204.33333333333331</ele><time>2026-04-30T15:24:29.999Z</time></trkpt><trkpt lat="50.15571369170761" lon="3.954791954331972"><ele>203.66666666666669</ele><time>2026-04-30T15:24:30.999Z</time></trkpt><trkpt lat="50.15588522651238" lon="3.954769819079049"><ele>203.0</ele><time>2026-04-30T15:24:31.999Z</time></trkpt><trkpt lat="50.15605751682883" lon="3.9547546359994183"><ele>203.0</ele><time>2026-04-30T15:24:32.999Z</time></trkpt><trkpt lat="50.15622469076601" lon="3.9547352874377535"><ele>203.0</ele><time>2026-04-30T15:24:33.999Z</time></trkpt><trkpt lat="50.15638171020625" lon="3.954717148529952"><ele>203.0</ele><time>2026-04-30T15:24:34.999Z</time></trkpt><trkpt lat="50.156535670025775" lon="3.9547025039076233"><ele>203.0</ele><time>2026-04-30T15:24:35.999Z</time></trkpt><trkpt lat="50.156690742175556" lon="3.9546802801800562"><ele>203.0</ele><time>2026-04-30T15:24:36.999Z</time></trkpt><trkpt lat="50.156846981177644" lon="3.954659871369258"><ele>203.0</ele><time>2026-04-30T15:24:37.999Z</time></trkpt><trkpt lat="50.15699339775027" lon="3.95465116255565"><ele>203.0</ele><time>2026-04-30T15:24:38.999Z</time></trkpt><trkpt lat="50.15713940600408" lon="3.954639435406653"><ele>203.0</ele><time>2026-04-30T15:24:39.999Z</time></trkpt><trkpt lat="50.157292313224325" lon="3.9546237627507983"><ele>203.0</ele><time>2026-04-30T15:24:40.999Z</time></trkpt><trkpt lat="50.1574437077123" lon="3.954610395854797"><ele>202.66666666666669</ele><time>2026-04-30T15:24:41.999Z</time></trkpt><trkpt lat="50.157595645994625" lon="3.9545990490874363"><ele>202.33333333333331</ele><time>2026-04-30T15:24:42.999Z</time></trkpt><trkpt lat="50.15774784443129" lon="3.954583929414749"><ele>202.0</ele><time>2026-04-30T15:24:43.999Z</time></trkpt><trkpt lat="50.1578931781142" lon="3.9545678878297936"><ele>202.0</ele><time>2026-04-30T15:24:44.999Z</time></trkpt><trkpt lat="50.15802903323422" lon="3.954556581526291"><ele>202.0</ele><time>2026-04-30T15:24:45.999Z</time></trkpt><trkpt lat="50.158163452717865" lon="3.9545464434635673"><ele>202.0</ele><time>2026-04-30T15:24:46.999Z</time></trkpt><trkpt lat="50.158299054406655" lon="3.9545268690861124"><ele>202.0</ele><time>2026-04-30T15:24:47.999Z</time></trkpt><trkpt lat="50.15844963263301" lon="3.954511735474161"><ele>201.0</ele><time>2026-04-30T15:24:48.999Z</time></trkpt><trkpt lat="50.15861597383482" lon="3.9544951309311145"><ele>200.0</ele><time>2026-04-30T15:24:49.999Z</time></trkpt><trkpt lat="50.15878977612003" lon="3.9544920648509643"><ele>199.0</ele><time>2026-04-30T15:24:50.999Z</time></trkpt><trkpt lat="50.15896521191062" lon="3.954491806869924"><ele>198.33333333333331</ele><time>2026-04-30T15:24:51.999Z</time></trkpt><trkpt lat="50.159121000652696" lon="3.9544329723061558"><ele>197.66666666666669</ele><time>2026-04-30T15:24:52.999Z</time></trkpt><trkpt lat="50.15930115829862" lon="3.9544204251541153"><ele>197.0</ele><time>2026-04-30T15:24:53.999Z</time></trkpt><trkpt lat="50.1594930922169" lon="3.9543967851993354"><ele>197.0</ele><time>2026-04-30T15:24:54.999Z</time></trkpt><trkpt lat="50.15969872386944" lon="3.9543736364138153"><ele>197.0</ele><time>2026-04-30T15:24:55.998Z</time></trkpt><trkpt lat="50.15991768059643" lon="3.9543635228811955"><ele>197.0</ele><time>2026-04-30T15:24:56.998Z</time></trkpt><trkpt lat="50.160139764189644" lon="3.954352666958023"><ele>197.0</ele><time>2026-04-30T15:24:57.998Z</time></trkpt><trkpt lat="50.16036390262782" lon="3.9543345164287858"><ele>197.0</ele><time>2026-04-30T15:24:58.998Z</time></trkpt><trkpt lat="50.16056681254861" lon="3.9543142452352193"><ele>197.0</ele><time>2026-04-30T15:24:59.998Z</time></trkpt><trkpt lat="50.16076212469509" lon="3.954291676168697"><ele>196.0</ele><time>2026-04-30T15:25:00.998Z</time></trkpt><trkpt lat="50.160958081951804" lon="3.9542782933253844"><ele>195.0</ele><time>2026-04-30T15:25:01.998Z</time></trkpt><trkpt lat="50.161148153802095" lon="3.9542554799945244"><ele>194.0</ele><time>2026-04-30T15:25:02.998Z</time></trkpt><trkpt lat="50.16132097060545" lon="3.954237582704054"><ele>194.0</ele><time>2026-04-30T15:25:03.998Z</time></trkpt><trkpt lat="50.16149648549436" lon="3.9542272143827795"><ele>194.0</ele><time>2026-04-30T15:25:04.998Z</time></trkpt><trkpt lat="50.16166864483532" lon="3.9542081775906026"><ele>194.0</ele><time>2026-04-30T15:25:05.998Z</time></trkpt><trkpt lat="50.16184146650499" lon="3.9541999967270236"><ele>193.0</ele><time>2026-04-30T15:25:06.998Z</time></trkpt><trkpt lat="50.162013399725616" lon="3.9541830228637065"><ele>192.0</ele><time>2026-04-30T15:25:07.998Z</time></trkpt><trkpt lat="50.16218509870301" lon="3.95416221641759"><ele>191.0</ele><time>2026-04-30T15:25:08.998Z</time></trkpt><trkpt lat="50.16235358415042" lon="3.9541455495207827"><ele>190.75</ele><time>2026-04-30T15:25:09.998Z</time></trkpt><trkpt lat="50.16251150834831" lon="3.954133812206446"><ele>190.5</ele><time>2026-04-30T15:25:10.998Z</time></trkpt><trkpt lat="50.162660309331365" lon="3.954120934240331"><ele>190.25</ele><time>2026-04-30T15:25:11.998Z</time></trkpt><trkpt lat="50.162801217736344" lon="3.954105635196496"><ele>190.0</ele><time>2026-04-30T15:25:12.998Z</time></trkpt><trkpt lat="50.162942707643104" lon="3.9540913116209064"><ele>190.0</ele><time>2026-04-30T15:25:13.998Z</time></trkpt><trkpt lat="50.163096227178976" lon="3.954079177160435"><ele>190.0</ele><time>2026-04-30T15:25:14.998Z</time></trkpt><trkpt lat="50.16325895305735" lon="3.9540659009055283"><ele>190.0</ele><time>2026-04-30T15:25:15.998Z</time></trkpt><trkpt lat="50.16342631487305" lon="3.954053224644027"><ele>188.66666666666669</ele><time>2026-04-30T15:25:16.998Z</time></trkpt><trkpt lat="50.16359688677062" lon="3.954038280188534"><ele>187.33333333333334</ele><time>2026-04-30T15:25:17.998Z</time></trkpt><trkpt lat="50.16376247058828" lon="3.95402253386681"><ele>186.0</ele><time>2026-04-30T15:25:18.998Z</time></trkpt><trkpt lat="50.163922813388695" lon="3.954009077772039"><ele>185.66666666666666</ele><time>2026-04-30T15:25:19.998Z</time></trkpt><trkpt lat="50.164084849657364" lon="3.9539938853360184"><ele>185.33333333333331</ele><time>2026-04-30T15:25:20.998Z</time></trkpt><trkpt lat="50.16424219601848" lon="3.953978410760158"><ele>185.0</ele><time>2026-04-30T15:25:21.998Z</time></trkpt><trkpt lat="50.16440523622824" lon="3.9539610092630872"><ele>185.0</ele><time>2026-04-30T15:25:22.998Z</time></trkpt><trkpt lat="50.164569580748655" lon="3.9539438540389495"><ele>185.0</ele><time>2026-04-30T15:25:23.998Z</time></trkpt><trkpt lat="50.16474404864214" lon="3.9539253445053553"><ele>185.0</ele><time>2026-04-30T15:25:24.998Z</time></trkpt><trkpt lat="50.16492592937001" lon="3.953908434994524"><ele>184.66666666666666</ele><time>2026-04-30T15:25:25.998Z</time></trkpt><trkpt lat="50.16511739318608" lon="3.9538891194284576"><ele>184.33333333333334</ele><time>2026-04-30T15:25:26.998Z</time></trkpt><trkpt lat="50.16530352536091" lon="3.9538681968048697"><ele>184.0</ele><time>2026-04-30T15:25:27.998Z</time></trkpt><trkpt lat="50.16548682395467" lon="3.953850149755518"><ele>184.0</ele><time>2026-04-30T15:25:28.998Z</time></trkpt><trkpt lat="50.16567620112895" lon="3.9538316679416177"><ele>184.0</ele><time>2026-04-30T15:25:29.998Z</time></trkpt><trkpt lat="50.16586192775338" lon="3.9538089899722664"><ele>184.0</ele><time>2026-04-30T15:25:30.998Z</time></trkpt><trkpt lat="50.16604578456666" lon="3.9537888001397232"><ele>182.0</ele><time>2026-04-30T15:25:31.998Z</time></trkpt><trkpt lat="50.16623105492404" lon="3.9537675160730004"><ele>180.0</ele><time>2026-04-30T15:25:32.998Z</time></trkpt><trkpt lat="50.16642567578877" lon="3.9537409032874966"><ele>178.0</ele><time>2026-04-30T15:25:33.998Z</time></trkpt><trkpt lat="50.16662603480178" lon="3.9537202929426796"><ele>177.0</ele><time>2026-04-30T15:25:34.998Z</time></trkpt><trkpt lat="50.16684495332394" lon="3.953700899771352"><ele>176.0</ele><time>2026-04-30T15:25:35.998Z</time></trkpt><trkpt lat="50.167077969140244" lon="3.953683222521355"><ele>176.0</ele><time>2026-04-30T15:25:36.998Z</time></trkpt><trkpt lat="50.167317769609426" lon="3.9536669563652307"><ele>176.0</ele><time>2026-04-30T15:25:37.998Z</time></trkpt><trkpt lat="50.167549727111336" lon="3.9536437542472225"><ele>176.33333333333331</ele><time>2026-04-30T15:25:38.998Z</time></trkpt><trkpt lat="50.167761852994495" lon="3.95362208641603"><ele>176.66666666666666</ele><time>2026-04-30T15:25:39.998Z</time></trkpt><trkpt lat="50.16795911787638" lon="3.9536029052662784"><ele>177.0</ele><time>2026-04-30T15:25:40.998Z</time></trkpt><trkpt lat="50.16814217260188" lon="3.9535851189034013"><ele>177.66666666666666</ele><time>2026-04-30T15:25:41.998Z</time></trkpt><trkpt lat="50.168314895645544" lon="3.9535654434379284"><ele>178.33333333333331</ele><time>2026-04-30T15:25:42.998Z</time></trkpt><trkpt lat="50.16848193879956" lon="3.9535508398384285"><ele>179.0</ele><time>2026-04-30T15:25:43.998Z</time></trkpt><trkpt lat="50.16865424551528" lon="3.953537726270622"><ele>179.0</ele><time>2026-04-30T15:25:44.998Z</time></trkpt><trkpt lat="50.16882637965315" lon="3.9535180124156715"><ele>179.0</ele><time>2026-04-30T15:25:45.998Z</time></trkpt><trkpt lat="50.1689993355458" lon="3.9535016136526266"><ele>179.0</ele><time>2026-04-30T15:25:46.998Z</time></trkpt><trkpt lat="50.16916945059028" lon="3.9534820830964925"><ele>179.66666666666666</ele><time>2026-04-30T15:25:47.998Z</time></trkpt><trkpt lat="50.16934257504951" lon="3.9534648999941266"><ele>180.33333333333334</ele><time>2026-04-30T15:25:48.998Z</time></trkpt><trkpt lat="50.1695180699457" lon="3.953448990818417"><ele>181.0</ele><time>2026-04-30T15:25:49.998Z</time></trkpt><trkpt lat="50.169700250599945" lon="3.9534280824754346"><ele>183.0</ele><time>2026-04-30T15:25:50.999Z</time></trkpt><trkpt lat="50.169871556458915" lon="3.9534150413046336"><ele>185.0</ele><time>2026-04-30T15:25:51.999Z</time></trkpt><trkpt lat="50.17004679738049" lon="3.9534009995828776"><ele>187.0</ele><time>2026-04-30T15:25:52.999Z</time></trkpt><trkpt lat="50.17022486023645" lon="3.9533850342373484"><ele>187.0</ele><time>2026-04-30T15:25:53.999Z</time></trkpt><trkpt lat="50.17040866776489" lon="3.95336993699976"><ele>187.0</ele><time>2026-04-30T15:25:54.999Z</time></trkpt><trkpt lat="50.170602704979856" lon="3.95334922147515"><ele>187.0</ele><time>2026-04-30T15:25:55.999Z</time></trkpt><trkpt lat="50.17079526061448" lon="3.9533277958698174"><ele>187.0</ele><time>2026-04-30T15:25:56.999Z</time></trkpt><trkpt lat="50.170998067048494" lon="3.953302542589383"><ele>187.0</ele><time>2026-04-30T15:25:57.999Z</time></trkpt><trkpt lat="50.17120911635232" lon="3.9532785319510406"><ele>187.0</ele><time>2026-04-30T15:25:58.999Z</time></trkpt><trkpt lat="50.17142304805073" lon="3.953260120988362"><ele>186.66666666666669</ele><time>2026-04-30T15:25:59.999Z</time></trkpt><trkpt lat="50.17161947479098" lon="3.9532439808804067"><ele>186.33333333333334</ele><time>2026-04-30T15:26:00.999Z</time></trkpt><trkpt lat="50.17178467362833" lon="3.953227440863251"><ele>186.0</ele><time>2026-04-30T15:26:01.999Z</time></trkpt><trkpt lat="50.17194847516275" lon="3.953216294122665"><ele>186.0</ele><time>2026-04-30T15:26:02.999Z</time></trkpt><trkpt lat="50.172100985751456" lon="3.9532013372933497"><ele>186.0</ele><time>2026-04-30T15:26:03.999Z</time></trkpt><trkpt lat="50.172245748282336" lon="3.953189268510624"><ele>186.0</ele><time>2026-04-30T15:26:04.999Z</time></trkpt><trkpt lat="50.17238932670587" lon="3.9531740877401043"><ele>186.0</ele><time>2026-04-30T15:26:05.999Z</time></trkpt><trkpt lat="50.17252883259755" lon="3.953163015745699"><ele>185.75</ele><time>2026-04-30T15:26:06.999Z</time></trkpt><trkpt lat="50.1726617032776" lon="3.9531581454472877"><ele>185.5</ele><time>2026-04-30T15:26:07.999Z</time></trkpt><trkpt lat="50.17277913315967" lon="3.953137170573166"><ele>185.25</ele><time>2026-04-30T15:26:08.999Z</time></trkpt><trkpt lat="50.17288943580424" lon="3.9531285370449263"><ele>185.0</ele><time>2026-04-30T15:26:09.999Z</time></trkpt><trkpt lat="50.17299953703992" lon="3.953124133536252"><ele>185.0</ele><time>2026-04-30T15:26:10.999Z</time></trkpt><trkpt lat="50.173121504244314" lon="3.9531105893409126"><ele>185.0</ele><time>2026-04-30T15:26:11.999Z</time></trkpt><trkpt lat="50.17324975811544" lon="3.953095967127271"><ele>185.0</ele><time>2026-04-30T15:26:12.999Z</time></trkpt><trkpt lat="50.173370000706605" lon="3.953085627241927"><ele>185.0</ele><time>2026-04-30T15:26:13.999Z</time></trkpt><trkpt lat="50.17349096842176" lon="3.9530770212478625"><ele>184.25</ele><time>2026-04-30T15:26:14.999Z</time></trkpt><trkpt lat="50.173622108427026" lon="3.9530660942356817"><ele>183.5</ele><time>2026-04-30T15:26:15.999Z</time></trkpt><trkpt lat="50.17375654820776" lon="3.953048539870662"><ele>182.75</ele><time>2026-04-30T15:26:16.999Z</time></trkpt><trkpt lat="50.173885332623165" lon="3.953038603873628"><ele>182.0</ele><time>2026-04-30T15:26:17.999Z</time></trkpt><trkpt lat="50.17400758093275" lon="3.953027920332282"><ele>180.5</ele><time>2026-04-30T15:26:18.999Z</time></trkpt><trkpt lat="50.174122879947724" lon="3.953014909462909"><ele>179.0</ele><time>2026-04-30T15:26:19.999Z</time></trkpt><trkpt lat="50.17424250652919" lon="3.953004493614435"><ele>177.5</ele><time>2026-04-30T15:26:20.999Z</time></trkpt><trkpt lat="50.17436259751244" lon="3.9529932248897106"><ele>176.0</ele><time>2026-04-30T15:26:21.999Z</time></trkpt><trkpt lat="50.1744835463579" lon="3.9529787604206974"><ele>176.0</ele><time>2026-04-30T15:26:22.999Z</time></trkpt><trkpt lat="50.17460949351556" lon="3.9529743267747337"><ele>176.0</ele><time>2026-04-30T15:26:23.999Z</time></trkpt><trkpt lat="50.1747328574521" lon="3.9529735917350797"><ele>176.0</ele><time>2026-04-30T15:26:24.999Z</time></trkpt><trkpt lat="50.17484986808841" lon="3.9529712419379788"><ele>176.0</ele><time>2026-04-30T15:26:25.999Z</time></trkpt><trkpt lat="50.17496254203091" lon="3.952965665384802"><ele>176.20000000000002</ele><time>2026-04-30T15:26:26.999Z</time></trkpt><trkpt lat="50.17506571908785" lon="3.95295762493044"><ele>176.4</ele><time>2026-04-30T15:26:27.999Z</time></trkpt><trkpt lat="50.17517351649606" lon="3.952957238116112"><ele>176.6</ele><time>2026-04-30T15:26:28.999Z</time></trkpt><trkpt lat="50.17528011276142" lon="3.9529429275952395"><ele>176.8</ele><time>2026-04-30T15:26:29.999Z</time></trkpt><trkpt lat="50.17538431213433" lon="3.9529292589095975"><ele>177.0</ele><time>2026-04-30T15:26:30.999Z</time></trkpt><trkpt lat="50.175496142029544" lon="3.9529135558342303"><ele>177.0</ele><time>2026-04-30T15:26:31.999Z</time></trkpt><trkpt lat="50.17560304990117" lon="3.952900235061023"><ele>177.0</ele><time>2026-04-30T15:26:32.999Z</time></trkpt><trkpt lat="50.17570784212282" lon="3.952887556277642"><ele>177.0</ele><time>2026-04-30T15:26:33.999Z</time></trkpt><trkpt lat="50.17580471002318" lon="3.9528815177036947"><ele>177.0</ele><time>2026-04-30T15:26:34.999Z</time></trkpt><trkpt lat="50.17589332896722" lon="3.952871497950673"><ele>177.0</ele><time>2026-04-30T15:26:35.999Z</time></trkpt><trkpt lat="50.17598334308839" lon="3.952859759860811"><ele>178.0</ele><time>2026-04-30T15:26:36.999Z</time></trkpt><trkpt lat="50.176082125401535" lon="3.952849561120951"><ele>179.0</ele><time>2026-04-30T15:26:37.999Z</time></trkpt><trkpt lat="50.17618669662231" lon="3.952837421644178"><ele>180.0</ele><time>2026-04-30T15:26:38.999Z</time></trkpt><trkpt lat="50.17628381702012" lon="3.9528254690186815"><ele>181.0</ele><time>2026-04-30T15:26:39.999Z</time></trkpt><trkpt lat="50.17637876978694" lon="3.9528132000804983"><ele>182.0</ele><time>2026-04-30T15:26:40.999Z</time></trkpt><trkpt lat="50.176472524533914" lon="3.9527989470550273"><ele>182.39999999999998</ele><time>2026-04-30T15:26:41.999Z</time></trkpt><trkpt lat="50.17656127635646" lon="3.9527866890637853"><ele>182.79999999999998</ele><time>2026-04-30T15:26:42.999Z</time></trkpt><trkpt lat="50.17665288960453" lon="3.9527776672828976"><ele>183.2</ele><time>2026-04-30T15:26:43.999Z</time></trkpt><trkpt lat="50.176749252450385" lon="3.952771114500399"><ele>183.6</ele><time>2026-04-30T15:26:44.999Z</time></trkpt><trkpt lat="50.176851572960686" lon="3.9527614277478196"><ele>184.0</ele><time>2026-04-30T15:26:45.999Z</time></trkpt><trkpt lat="50.17696082376517" lon="3.9527510226855695"><ele>184.0</ele><time>2026-04-30T15:26:46.999Z</time></trkpt><trkpt lat="50.17707253575028" lon="3.9527408885756996"><ele>184.0</ele><time>2026-04-30T15:26:47.999Z</time></trkpt><trkpt lat="50.1771810147119" lon="3.9527325878393587"><ele>184.0</ele><time>2026-04-30T15:26:48.999Z</time></trkpt><trkpt lat="50.177279212799995" lon="3.9527247483217622"><ele>184.0</ele><time>2026-04-30T15:26:49.999Z</time></trkpt><trkpt lat="50.17737257120439" lon="3.952714118620638"><ele>184.0</ele><time>2026-04-30T15:26:50.999Z</time></trkpt><trkpt lat="50.177457845851315" lon="3.952705965783729"><ele>184.39999999999998</ele><time>2026-04-30T15:26:51.999Z</time></trkpt><trkpt lat="50.17754859909701" lon="3.9526994816791095"><ele>184.8</ele><time>2026-04-30T15:26:52.999Z</time></trkpt><trkpt lat="50.177646253501266" lon="3.952691414337459"><ele>185.2</ele><time>2026-04-30T15:26:53.999Z</time></trkpt><trkpt lat="50.177747141281124" lon="3.952676968622963"><ele>185.60000000000002</ele><time>2026-04-30T15:26:54.999Z</time></trkpt><trkpt lat="50.177858259938034" lon="3.9526648641975184"><ele>186.0</ele><time>2026-04-30T15:26:55.999Z</time></trkpt><trkpt lat="50.177971412876026" lon="3.9526542139233687"><ele>186.0</ele><time>2026-04-30T15:26:56.999Z</time></trkpt><trkpt lat="50.17808362557479" lon="3.952645450448772"><ele>186.0</ele><time>2026-04-30T15:26:57.999Z</time></trkpt><trkpt lat="50.17819853704751" lon="3.9526305656423935"><ele>186.0</ele><time>2026-04-30T15:26:58.999Z</time></trkpt><trkpt lat="50.17831152594059" lon="3.9526194431587895"><ele>186.0</ele><time>2026-04-30T15:26:59.999Z</time></trkpt><trkpt lat="50.17844073306359" lon="3.9526128426281546"><ele>186.5</ele><time>2026-04-30T15:27:00.999Z</time></trkpt><trkpt lat="50.178575489625395" lon="3.9526004630948317"><ele>187.0</ele><time>2026-04-30T15:27:01.999Z</time></trkpt><trkpt lat="50.17871120866206" lon="3.95258340340246"><ele>187.5</ele><time>2026-04-30T15:27:02.999Z</time></trkpt><trkpt lat="50.17884629308243" lon="3.952568742860918"><ele>188.0</ele><time>2026-04-30T15:27:03.999Z</time></trkpt><trkpt lat="50.17898028340436" lon="3.9525588915785543"><ele>188.25</ele><time>2026-04-30T15:27:04.998Z</time></trkpt><trkpt lat="50.17911648010819" lon="3.9525496906157778"><ele>188.5</ele><time>2026-04-30T15:27:05.998Z</time></trkpt><trkpt lat="50.179254163855454" lon="3.952533439106152"><ele>188.75</ele><time>2026-04-30T15:27:06.998Z</time></trkpt><trkpt lat="50.17939343542497" lon="3.9525228875742924"><ele>189.0</ele><time>2026-04-30T15:27:07.998Z</time></trkpt><trkpt lat="50.179541330784424" lon="3.9525100124912784"><ele>189.0</ele><time>2026-04-30T15:27:08.998Z</time></trkpt><trkpt lat="50.17969229801737" lon="3.9524947052923136"><ele>189.0</ele><time>2026-04-30T15:27:09.998Z</time></trkpt><trkpt lat="50.17985127343717" lon="3.952476176506272"><ele>189.0</ele><time>2026-04-30T15:27:10.998Z</time></trkpt><trkpt lat="50.18000910212052" lon="3.9524627674297177"><ele>189.0</ele><time>2026-04-30T15:27:11.998Z</time></trkpt><trkpt lat="50.18017265704649" lon="3.9524469007744556"><ele>189.0</ele><time>2026-04-30T15:27:12.998Z</time></trkpt><trkpt lat="50.18033714611131" lon="3.9524322211186043"><ele>189.0</ele><time>2026-04-30T15:27:13.998Z</time></trkpt><trkpt lat="50.18049946945879" lon="3.9524164526443673"><ele>189.0</ele><time>2026-04-30T15:27:14.998Z</time></trkpt><trkpt lat="50.1806659631861" lon="3.952399297971817"><ele>189.0</ele><time>2026-04-30T15:27:15.998Z</time></trkpt><trkpt lat="50.18082953471488" lon="3.9523817228878535"><ele>189.0</ele><time>2026-04-30T15:27:16.998Z</time></trkpt><trkpt lat="50.181000653723835" lon="3.952364437345239"><ele>187.66666666666666</ele><time>2026-04-30T15:27:17.998Z</time></trkpt><trkpt lat="50.18117003953674" lon="3.9523498587533132"><ele>186.33333333333331</ele><time>2026-04-30T15:27:18.998Z</time></trkpt><trkpt lat="50.181341752642695" lon="3.952330569207917"><ele>185.0</ele><time>2026-04-30T15:27:19.998Z</time></trkpt><trkpt lat="50.1815161682182" lon="3.9523141502135695"><ele>183.66666666666666</ele><time>2026-04-30T15:27:20.998Z</time></trkpt><trkpt lat="50.18168795590858" lon="3.9522974368865937"><ele>182.33333333333334</ele><time>2026-04-30T15:27:21.998Z</time></trkpt><trkpt lat="50.18186149982808" lon="3.952282978837748"><ele>181.0</ele><time>2026-04-30T15:27:22.998Z</time></trkpt><trkpt lat="50.18203640782867" lon="3.9522613806294506"><ele>181.0</ele><time>2026-04-30T15:27:23.998Z</time></trkpt><trkpt lat="50.182207965176005" lon="3.9522427421235715"><ele>181.0</ele><time>2026-04-30T15:27:24.998Z</time></trkpt><trkpt lat="50.18237733854438" lon="3.9522241731271213"><ele>181.0</ele><time>2026-04-30T15:27:25.998Z</time></trkpt><trkpt lat="50.18254733313518" lon="3.9522147679213053"><ele>180.0</ele><time>2026-04-30T15:27:26.998Z</time></trkpt><trkpt lat="50.18272020777167" lon="3.952196869592441"><ele>179.0</ele><time>2026-04-30T15:27:27.998Z</time></trkpt><trkpt lat="50.182897136703914" lon="3.9521765278094616"><ele>178.0</ele><time>2026-04-30T15:27:28.998Z</time></trkpt><trkpt lat="50.183073714366294" lon="3.9521636800640216"><ele>178.66666666666669</ele><time>2026-04-30T15:27:29.998Z</time></trkpt><trkpt lat="50.183250435876126" lon="3.9521501847568503"><ele>179.33333333333334</ele><time>2026-04-30T15:27:30.998Z</time></trkpt><trkpt lat="50.18342824253702" lon="3.95213126493434"><ele>180.0</ele><time>2026-04-30T15:27:31.998Z</time></trkpt><trkpt lat="50.18361065001092" lon="3.9521068908084787"><ele>180.0</ele><time>2026-04-30T15:27:32.998Z</time></trkpt><trkpt lat="50.183785194707816" lon="3.952089315362386"><ele>180.0</ele><time>2026-04-30T15:27:33.998Z</time></trkpt><trkpt lat="50.183954911922974" lon="3.9520768287289094"><ele>180.0</ele><time>2026-04-30T15:27:34.998Z</time></trkpt><trkpt lat="50.184121288068454" lon="3.9520585454870583"><ele>180.66666666666666</ele><time>2026-04-30T15:27:35.998Z</time></trkpt><trkpt lat="50.18429169721629" lon="3.9520404576814077"><ele>181.33333333333331</ele><time>2026-04-30T15:27:36.998Z</time></trkpt><trkpt lat="50.18446140100868" lon="3.9520217857039692"><ele>182.0</ele><time>2026-04-30T15:27:37.998Z</time></trkpt><trkpt lat="50.184633438732675" lon="3.952002011650858"><ele>182.0</ele><time>2026-04-30T15:27:38.998Z</time></trkpt><trkpt lat="50.18480605951295" lon="3.951988737114143"><ele>182.0</ele><time>2026-04-30T15:27:39.998Z</time></trkpt><trkpt lat="50.18497505222896" lon="3.9519754195642443"><ele>182.0</ele><time>2026-04-30T15:27:40.998Z</time></trkpt><trkpt lat="50.185145522954414" lon="3.9519593133272757"><ele>183.0</ele><time>2026-04-30T15:27:41.998Z</time></trkpt><trkpt lat="50.18531655114471" lon="3.9519445790497465"><ele>184.0</ele><time>2026-04-30T15:27:42.998Z</time></trkpt><trkpt lat="50.18548860326635" lon="3.9519275734647397"><ele>185.0</ele><time>2026-04-30T15:27:43.998Z</time></trkpt><trkpt lat="50.185661447894695" lon="3.951911219441486"><ele>185.66666666666666</ele><time>2026-04-30T15:27:44.998Z</time></trkpt><trkpt lat="50.1858279705456" lon="3.95189918846158"><ele>186.33333333333334</ele><time>2026-04-30T15:27:45.998Z</time></trkpt><trkpt lat="50.18599323833823" lon="3.9518818148285284"><ele>187.0</ele><time>2026-04-30T15:27:46.998Z</time></trkpt><trkpt lat="50.18615795892979" lon="3.9518653940319277"><ele>187.0</ele><time>2026-04-30T15:27:47.999Z</time></trkpt><trkpt lat="50.186323515506814" lon="3.9518532704838165"><ele>187.0</ele><time>2026-04-30T15:27:48.999Z</time></trkpt><trkpt lat="50.1864889479399" lon="3.951840039782337"><ele>187.0</ele><time>2026-04-30T15:27:49.999Z</time></trkpt><trkpt lat="50.18664928730807" lon="3.9518215776509105"><ele>188.33333333333334</ele><time>2026-04-30T15:27:50.999Z</time></trkpt><trkpt lat="50.186808116718765" lon="3.9518036330140993"><ele>189.66666666666666</ele><time>2026-04-30T15:27:51.999Z</time></trkpt><trkpt lat="50.186967681991966" lon="3.9517832734809653"><ele>191.0</ele><time>2026-04-30T15:27:52.999Z</time></trkpt><trkpt lat="50.1871320364109" lon="3.951766468682357"><ele>191.0</ele><time>2026-04-30T15:27:54Z</time></trkpt><trkpt lat="50.1873048160757" lon="3.951753678682709"><ele>191.0</ele><time>2026-04-30T15:27:55Z</time></trkpt><trkpt lat="50.187470365360724" lon="3.9517390679745485"><ele>191.0</ele><time>2026-04-30T15:27:56Z</time></trkpt><trkpt lat="50.187638252960795" lon="3.9517239653817544"><ele>191.66666666666666</ele><time>2026-04-30T15:27:57Z</time></trkpt><trkpt lat="50.18780842337785" lon="3.9517077890182555"><ele>192.33333333333331</ele><time>2026-04-30T15:27:58Z</time></trkpt><trkpt lat="50.187980345857945" lon="3.9516926271179593"><ele>193.0</ele><time>2026-04-30T15:27:59Z</time></trkpt><trkpt lat="50.18815755260266" lon="3.951676033940441"><ele>193.33333333333331</ele><time>2026-04-30T15:28:00Z</time></trkpt><trkpt lat="50.18833662560258" lon="3.9516599372122285"><ele>193.66666666666669</ele><time>2026-04-30T15:28:01Z</time></trkpt><trkpt lat="50.188514643558044" lon="3.9516403834733436"><ele>194.0</ele><time>2026-04-30T15:28:02Z</time></trkpt><trkpt lat="50.188694122207934" lon="3.9516225801714358"><ele>194.0</ele><time>2026-04-30T15:28:03Z</time></trkpt><trkpt lat="50.18887145426806" lon="3.9516122911490377"><ele>194.0</ele><time>2026-04-30T15:28:04Z</time></trkpt><trkpt lat="50.18904502939148" lon="3.9516003981207315"><ele>194.0</ele><time>2026-04-30T15:28:05Z</time></trkpt><trkpt lat="50.1892179143678" lon="3.9515875489259042"><ele>193.33333333333334</ele><time>2026-04-30T15:28:06Z</time></trkpt><trkpt lat="50.189390921583204" lon="3.9515682458253507"><ele>192.66666666666669</ele><time>2026-04-30T15:28:07Z</time></trkpt><trkpt lat="50.18956483482797" lon="3.9515457697190555"><ele>192.0</ele><time>2026-04-30T15:28:08Z</time></trkpt><trkpt lat="50.18974299794726" lon="3.9515243306901224"><ele>190.66666666666666</ele><time>2026-04-30T15:28:09Z</time></trkpt><trkpt lat="50.189924838992575" lon="3.9515077939693195"><ele>189.33333333333331</ele><time>2026-04-30T15:28:10Z</time></trkpt><trkpt lat="50.190112747063814" lon="3.951492392664687"><ele>188.0</ele><time>2026-04-30T15:28:11Z</time></trkpt><trkpt lat="50.190302702844924" lon="3.9514716714571616"><ele>188.0</ele><time>2026-04-30T15:28:12Z</time></trkpt><trkpt lat="50.19048432269588" lon="3.9514531512825717"><ele>188.0</ele><time>2026-04-30T15:28:13Z</time></trkpt><trkpt lat="50.190664488095074" lon="3.9514393762725506"><ele>188.0</ele><time>2026-04-30T15:28:14Z</time></trkpt><trkpt lat="50.19084932365158" lon="3.951419874558521"><ele>187.33333333333331</ele><time>2026-04-30T15:28:15Z</time></trkpt><trkpt lat="50.19103793886725" lon="3.9513988773363384"><ele>186.66666666666666</ele><time>2026-04-30T15:28:16Z</time></trkpt><trkpt lat="50.19122624448273" lon="3.951380370408992"><ele>186.0</ele><time>2026-04-30T15:28:17Z</time></trkpt><trkpt lat="50.191413524346544" lon="3.9513603712832475"><ele>185.0</ele><time>2026-04-30T15:28:18Z</time></trkpt><trkpt lat="50.19160257652206" lon="3.9513407902558857"><ele>184.0</ele><time>2026-04-30T15:28:19Z</time></trkpt><trkpt lat="50.191794576907505" lon="3.9513190740648527"><ele>183.0</ele><time>2026-04-30T15:28:20Z</time></trkpt><trkpt lat="50.191980501805205" lon="3.9512963750225696"><ele>183.0</ele><time>2026-04-30T15:28:21Z</time></trkpt><trkpt lat="50.19216377304938" lon="3.9512793038358134"><ele>183.0</ele><time>2026-04-30T15:28:22Z</time></trkpt><trkpt lat="50.19235011803613" lon="3.951258646667914"><ele>183.0</ele><time>2026-04-30T15:28:23Z</time></trkpt><trkpt lat="50.19253630228224" lon="3.951240026911269"><ele>183.0</ele><time>2026-04-30T15:28:24Z</time></trkpt><trkpt lat="50.192721050325666" lon="3.9512198273296923"><ele>183.0</ele><time>2026-04-30T15:28:25Z</time></trkpt><trkpt lat="50.192895058403394" lon="3.951200350417784"><ele>183.0</ele><time>2026-04-30T15:28:26Z</time></trkpt><trkpt lat="50.193061356895925" lon="3.9511819799248538"><ele>184.33333333333334</ele><time>2026-04-30T15:28:27Z</time></trkpt><trkpt lat="50.19323046250522" lon="3.9511571345180787"><ele>185.66666666666669</ele><time>2026-04-30T15:28:28Z</time></trkpt><trkpt lat="50.19340709655437" lon="3.9511389773178434"><ele>187.0</ele><time>2026-04-30T15:28:29Z</time></trkpt><trkpt lat="50.19358542818162" lon="3.951124047557919"><ele>187.0</ele><time>2026-04-30T15:28:30Z</time></trkpt><trkpt lat="50.19376402967361" lon="3.9511128306268857"><ele>187.0</ele><time>2026-04-30T15:28:31Z</time></trkpt><trkpt lat="50.193938261322785" lon="3.951102866478561"><ele>187.0</ele><time>2026-04-30T15:28:32Z</time></trkpt><trkpt lat="50.19410302318503" lon="3.9510836575281183"><ele>188.66666666666669</ele><time>2026-04-30T15:28:32.999Z</time></trkpt><trkpt lat="50.194257129032685" lon="3.951066913229384"><ele>190.33333333333334</ele><time>2026-04-30T15:28:33.999Z</time></trkpt><trkpt lat="50.19440925361876" lon="3.9510532061972183"><ele>192.0</ele><time>2026-04-30T15:28:34.999Z</time></trkpt><trkpt lat="50.19456429022594" lon="3.951040776642871"><ele>192.0</ele><time>2026-04-30T15:28:35.999Z</time></trkpt><trkpt lat="50.19471728308523" lon="3.9510252613226164"><ele>192.0</ele><time>2026-04-30T15:28:36.999Z</time></trkpt><trkpt lat="50.194866484136824" lon="3.951016368962021"><ele>192.0</ele><time>2026-04-30T15:28:37.999Z</time></trkpt><trkpt lat="50.195014725494936" lon="3.951007024991522"><ele>194.66666666666669</ele><time>2026-04-30T15:28:38.999Z</time></trkpt><trkpt lat="50.19516396143264" lon="3.9509962600720883"><ele>197.33333333333334</ele><time>2026-04-30T15:28:39.999Z</time></trkpt><trkpt lat="50.19531837415156" lon="3.950981274395534"><ele>200.0</ele><time>2026-04-30T15:28:40.999Z</time></trkpt><trkpt lat="50.19547985055543" lon="3.9509616222725366"><ele>200.0</ele><time>2026-04-30T15:28:41.999Z</time></trkpt><trkpt lat="50.19564652453121" lon="3.950941990092508"><ele>200.0</ele><time>2026-04-30T15:28:42.999Z</time></trkpt><trkpt lat="50.19580837746255" lon="3.950929633469845"><ele>200.0</ele><time>2026-04-30T15:28:43.999Z</time></trkpt><trkpt lat="50.195970010378126" lon="3.9509173353458014"><ele>200.33333333333334</ele><time>2026-04-30T15:28:44.999Z</time></trkpt><trkpt lat="50.19612996926981" lon="3.950900443151335"><ele>200.66666666666669</ele><time>2026-04-30T15:28:45.999Z</time></trkpt><trkpt lat="50.19628376909481" lon="3.950882830057826"><ele>201.0</ele><time>2026-04-30T15:28:46.999Z</time></trkpt><trkpt lat="50.196431732871936" lon="3.950867365993697"><ele>199.0</ele><time>2026-04-30T15:28:47.999Z</time></trkpt><trkpt lat="50.196581658428485" lon="3.95085306813725"><ele>197.0</ele><time>2026-04-30T15:28:48.999Z</time></trkpt><trkpt lat="50.196731644650306" lon="3.950836941249546"><ele>195.0</ele><time>2026-04-30T15:28:49.999Z</time></trkpt><trkpt lat="50.19688855975714" lon="3.950824781549854"><ele>195.0</ele><time>2026-04-30T15:28:50.999Z</time></trkpt><trkpt lat="50.19705876412438" lon="3.950806963448785"><ele>195.0</ele><time>2026-04-30T15:28:51.999Z</time></trkpt><trkpt lat="50.19721661452594" lon="3.9507907923810137"><ele>195.0</ele><time>2026-04-30T15:28:52.999Z</time></trkpt><trkpt lat="50.19737357362976" lon="3.950777744087392"><ele>192.0</ele><time>2026-04-30T15:28:53.999Z</time></trkpt><trkpt lat="50.19753294867195" lon="3.950762309864162"><ele>189.0</ele><time>2026-04-30T15:28:54.999Z</time></trkpt><trkpt lat="50.19769710122847" lon="3.950741144684779"><ele>186.0</ele><time>2026-04-30T15:28:55.999Z</time></trkpt><trkpt lat="50.19787116890517" lon="3.9507164035830145"><ele>186.0</ele><time>2026-04-30T15:28:56.999Z</time></trkpt><trkpt lat="50.198017047689284" lon="3.9507073504232113"><ele>186.0</ele><time>2026-04-30T15:28:57.999Z</time></trkpt><trkpt lat="50.19817251023808" lon="3.95069185495355"><ele>186.0</ele><time>2026-04-30T15:28:58.999Z</time></trkpt><trkpt lat="50.198343788608106" lon="3.950664056780419"><ele>184.66666666666666</ele><time>2026-04-30T15:28:59.999Z</time></trkpt><trkpt lat="50.198514524177" lon="3.9506599661212882"><ele>183.33333333333331</ele><time>2026-04-30T15:29:00.999Z</time></trkpt><trkpt lat="50.198689247604335" lon="3.9506390910261207"><ele>182.0</ele><time>2026-04-30T15:29:01.999Z</time></trkpt><trkpt lat="50.19886950158377" lon="3.950612814225274"><ele>182.66666666666666</ele><time>2026-04-30T15:29:02.999Z</time></trkpt><trkpt lat="50.19905135843091" lon="3.9506077666665247"><ele>183.33333333333334</ele><time>2026-04-30T15:29:03.999Z</time></trkpt><trkpt lat="50.199225337227624" lon="3.950596121661208"><ele>184.0</ele><time>2026-04-30T15:29:04.999Z</time></trkpt><trkpt lat="50.19937896989183" lon="3.950571903296278"><ele>184.0</ele><time>2026-04-30T15:29:05.999Z</time></trkpt><trkpt lat="50.19954230995096" lon="3.9505526597444653"><ele>184.0</ele><time>2026-04-30T15:29:06.999Z</time></trkpt><trkpt lat="50.19969497243172" lon="3.950539855401496"><ele>184.0</ele><time>2026-04-30T15:29:07.999Z</time></trkpt><trkpt lat="50.1998484405578" lon="3.950513027171622"><ele>184.66666666666669</ele><time>2026-04-30T15:29:08.999Z</time></trkpt><trkpt lat="50.19999316300571" lon="3.950512096887438"><ele>185.33333333333334</ele><time>2026-04-30T15:29:09.999Z</time></trkpt><trkpt lat="50.20014422857568" lon="3.9504963116997693"><ele>186.0</ele><time>2026-04-30T15:29:10.999Z</time></trkpt><trkpt lat="50.20030583541868" lon="3.950465738106256"><ele>186.0</ele><time>2026-04-30T15:29:11.999Z</time></trkpt><trkpt lat="50.200467403110224" lon="3.9504483540484"><ele>186.0</ele><time>2026-04-30T15:29:12.999Z</time></trkpt><trkpt lat="50.20062502950537" lon="3.95043973519256"><ele>186.0</ele><time>2026-04-30T15:29:13.999Z</time></trkpt><trkpt lat="50.20079101987329" lon="3.950434776347676"><ele>186.66666666666666</ele><time>2026-04-30T15:29:14.999Z</time></trkpt><trkpt lat="50.20094921610314" lon="3.950414636079673"><ele>187.33333333333331</ele><time>2026-04-30T15:29:15.999Z</time></trkpt><trkpt lat="50.2011047234921" lon="3.950396730138115"><ele>188.0</ele><time>2026-04-30T15:29:16.999Z</time></trkpt><trkpt lat="50.20126165258688" lon="3.9503868846473735"><ele>188.0</ele><time>2026-04-30T15:29:17.999Z</time></trkpt><trkpt lat="50.20141563655746" lon="3.9503789305935824"><ele>188.0</ele><time>2026-04-30T15:29:18.999Z</time></trkpt><trkpt lat="50.20156312592714" lon="3.950353884464777"><ele>188.0</ele><time>2026-04-30T15:29:19.999Z</time></trkpt><trkpt lat="50.20170585102868" lon="3.9503437540542325"><ele>188.0</ele><time>2026-04-30T15:29:20.999Z</time></trkpt><trkpt lat="50.201849446112476" lon="3.950327109863891"><ele>187.5</ele><time>2026-04-30T15:29:21.999Z</time></trkpt><trkpt lat="50.201979532241964" lon="3.9503150102171927"><ele>187.0</ele><time>2026-04-30T15:29:22.999Z</time></trkpt><trkpt lat="50.202107022454165" lon="3.950302996609748"><ele>186.5</ele><time>2026-04-30T15:29:23.999Z</time></trkpt><trkpt lat="50.20223600723618" lon="3.950281386693293"><ele>186.0</ele><time>2026-04-30T15:29:24.999Z</time></trkpt><trkpt lat="50.20237691424349" lon="3.9502667504782196"><ele>185.5</ele><time>2026-04-30T15:29:25.999Z</time></trkpt><trkpt lat="50.202522613425124" lon="3.950255805269128"><ele>185.0</ele><time>2026-04-30T15:29:26.999Z</time></trkpt><trkpt lat="50.202669874063844" lon="3.9502380643610584"><ele>184.5</ele><time>2026-04-30T15:29:27.999Z</time></trkpt><trkpt lat="50.20281297074172" lon="3.9502192697918517"><ele>184.0</ele><time>2026-04-30T15:29:28.999Z</time></trkpt><trkpt lat="50.20294695745123" lon="3.9502147382706285"><ele>184.0</ele><time>2026-04-30T15:29:29.999Z</time></trkpt><trkpt lat="50.2030816656655" lon="3.950200317442542"><ele>184.0</ele><time>2026-04-30T15:29:30.999Z</time></trkpt><trkpt lat="50.20322051864655" lon="3.950183675626842"><ele>184.0</ele><time>2026-04-30T15:29:31.999Z</time></trkpt><trkpt lat="50.20335718429654" lon="3.9501693634348083"><ele>184.0</ele><time>2026-04-30T15:29:32.999Z</time></trkpt><trkpt lat="50.20349369724516" lon="3.9501573699285486"><ele>183.0</ele><time>2026-04-30T15:29:33.999Z</time></trkpt><trkpt lat="50.20362815744218" lon="3.9501464054324718"><ele>182.0</ele><time>2026-04-30T15:29:34.999Z</time></trkpt><trkpt lat="50.20375989586137" lon="3.950133234373965"><ele>181.0</ele><time>2026-04-30T15:29:35.999Z</time></trkpt><trkpt lat="50.20388700979211" lon="3.950117312598914"><ele>180.0</ele><time>2026-04-30T15:29:36.999Z</time></trkpt><trkpt lat="50.204016818412114" lon="3.9501055524746667"><ele>179.25</ele><time>2026-04-30T15:29:37.999Z</time></trkpt><trkpt lat="50.20414800639639" lon="3.9500959858826903"><ele>178.5</ele><time>2026-04-30T15:29:38.999Z</time></trkpt><trkpt lat="50.20427717167903" lon="3.950081999491231"><ele>177.75</ele><time>2026-04-30T15:29:39.999Z</time></trkpt><trkpt lat="50.204399463838804" lon="3.950067762057397"><ele>177.0</ele><time>2026-04-30T15:29:40.999Z</time></trkpt><trkpt lat="50.20451711724938" lon="3.950055725328468"><ele>177.0</ele><time>2026-04-30T15:29:41.999Z</time></trkpt><trkpt lat="50.20463993917805" lon="3.9500458089142296"><ele>177.0</ele><time>2026-04-30T15:29:42.999Z</time></trkpt><trkpt lat="50.204761999926454" lon="3.950031165697521"><ele>177.0</ele><time>2026-04-30T15:29:43.999Z</time></trkpt><trkpt lat="50.204885255128815" lon="3.9500165267955203"><ele>177.0</ele><time>2026-04-30T15:29:44.999Z</time></trkpt><trkpt lat="50.20499581506898" lon="3.9500051048273983"><ele>176.39999999999998</ele><time>2026-04-30T15:29:45.999Z</time></trkpt><trkpt lat="50.20510586569087" lon="3.9499960686256883"><ele>175.79999999999998</ele><time>2026-04-30T15:29:46.999Z</time></trkpt><trkpt lat="50.20520609689162" lon="3.9499891749223766"><ele>175.2</ele><time>2026-04-30T15:29:47.999Z</time></trkpt><trkpt lat="50.20529942826918" lon="3.949973474991507"><ele>174.6</ele><time>2026-04-30T15:29:48.999Z</time></trkpt><trkpt lat="50.20538522692272" lon="3.949973461375662"><ele>174.0</ele><time>2026-04-30T15:29:49.999Z</time></trkpt><trkpt lat="50.20545796280648" lon="3.949976228235303"><ele>174.0</ele><time>2026-04-30T15:29:50.999Z</time></trkpt><trkpt lat="50.20552809746385" lon="3.9499849787921737"><ele>174.0</ele><time>2026-04-30T15:29:51.999Z</time></trkpt><trkpt lat="50.20566731358524" lon="3.950060016848973"><ele>174.0</ele><time>2026-04-30T15:29:54Z</time></trkpt><trkpt lat="50.20574783065446" lon="3.9501319462961733"><ele>174.0</ele><time>2026-04-30T15:29:55Z</time></trkpt><trkpt lat="50.20583051874792" lon="3.9502205444832326"><ele>174.0</ele><time>2026-04-30T15:29:56Z</time></trkpt><trkpt lat="50.20590662977727" lon="3.9503318217197894"><ele>173.25</ele><time>2026-04-30T15:29:57Z</time></trkpt><trkpt lat="50.205971711460734" lon="3.9504736906731157"><ele>172.5</ele><time>2026-04-30T15:29:58Z</time></trkpt><trkpt lat="50.20603320774744" lon="3.950633401873617"><ele>171.75</ele><time>2026-04-30T15:29:59Z</time></trkpt><trkpt lat="50.20608073987058" lon="3.9508219977309555"><ele>171.0</ele><time>2026-04-30T15:30:00Z</time></trkpt><trkpt lat="50.20612681475835" lon="3.9510109328928738"><ele>171.0</ele><time>2026-04-30T15:30:01Z</time></trkpt><trkpt lat="50.206173320878534" lon="3.9512064288063367"><ele>171.0</ele><time>2026-04-30T15:30:02Z</time></trkpt><trkpt lat="50.206218819650225" lon="3.9513979514321713"><ele>171.0</ele><time>2026-04-30T15:30:03Z</time></trkpt><trkpt lat="50.20626737067757" lon="3.9515892518525555"><ele>171.0</ele><time>2026-04-30T15:30:04Z</time></trkpt><trkpt lat="50.206320728730844" lon="3.951783538201246"><ele>172.0</ele><time>2026-04-30T15:30:05Z</time></trkpt><trkpt lat="50.20637212791526" lon="3.9519844996118074"><ele>173.0</ele><time>2026-04-30T15:30:06Z</time></trkpt><trkpt lat="50.20642464060261" lon="3.9522061909949087"><ele>174.0</ele><time>2026-04-30T15:30:07Z</time></trkpt><trkpt lat="50.20648338579748" lon="3.9524415765383476"><ele>173.33333333333334</ele><time>2026-04-30T15:30:08Z</time></trkpt><trkpt lat="50.20654350698119" lon="3.952671491294316"><ele>172.66666666666669</ele><time>2026-04-30T15:30:09Z</time></trkpt><trkpt lat="50.206600675747495" lon="3.952886226541424"><ele>172.0</ele><time>2026-04-30T15:30:10Z</time></trkpt><trkpt lat="50.206656223806554" lon="3.953100510484732"><ele>172.0</ele><time>2026-04-30T15:30:11Z</time></trkpt><trkpt lat="50.20671176042944" lon="3.9533178855238265"><ele>172.0</ele><time>2026-04-30T15:30:12Z</time></trkpt><trkpt lat="50.20676775324456" lon="3.9535366120010114"><ele>172.0</ele><time>2026-04-30T15:30:13Z</time></trkpt><trkpt lat="50.20682473657887" lon="3.9537582875168797"><ele>172.0</ele><time>2026-04-30T15:30:14Z</time></trkpt><trkpt lat="50.20687948130729" lon="3.9539825569920235"><ele>172.0</ele><time>2026-04-30T15:30:15Z</time></trkpt><trkpt lat="50.20693415201607" lon="3.9541950098121523"><ele>172.0</ele><time>2026-04-30T15:30:16Z</time></trkpt><trkpt lat="50.206983736680556" lon="3.9543866300250614"><ele>172.0</ele><time>2026-04-30T15:30:17Z</time></trkpt><trkpt lat="50.20703221153858" lon="3.9545751388001205"><ele>172.0</ele><time>2026-04-30T15:30:18Z</time></trkpt><trkpt lat="50.207080805411664" lon="3.954769812446227"><ele>172.0</ele><time>2026-04-30T15:30:19Z</time></trkpt><trkpt lat="50.207130087543945" lon="3.954962928092002"><ele>172.0</ele><time>2026-04-30T15:30:20Z</time></trkpt><trkpt lat="50.20717600350336" lon="3.955146601077013"><ele>172.0</ele><time>2026-04-30T15:30:21Z</time></trkpt><trkpt lat="50.207221758290785" lon="3.9553231240314197"><ele>172.25</ele><time>2026-04-30T15:30:22Z</time></trkpt><trkpt lat="50.20726866099053" lon="3.9555022330689185"><ele>172.5</ele><time>2026-04-30T15:30:23Z</time></trkpt><trkpt lat="50.207310787779626" lon="3.9556774464570283"><ele>172.75</ele><time>2026-04-30T15:30:24Z</time></trkpt><trkpt lat="50.20734402330245" lon="3.9558586606545183"><ele>173.0</ele><time>2026-04-30T15:30:25Z</time></trkpt><trkpt lat="50.20735834877805" lon="3.9560349537658275"><ele>173.0</ele><time>2026-04-30T15:30:26Z</time></trkpt><trkpt lat="50.207348498286756" lon="3.9562020699847693"><ele>173.0</ele><time>2026-04-30T15:30:27Z</time></trkpt><trkpt lat="50.20732107606134" lon="3.9563737399836127"><ele>173.0</ele><time>2026-04-30T15:30:28Z</time></trkpt><trkpt lat="50.20726878786734" lon="3.9565398397908327"><ele>173.0</ele><time>2026-04-30T15:30:29Z</time></trkpt><trkpt lat="50.20718990108925" lon="3.9566784684915275"><ele>173.5</ele><time>2026-04-30T15:30:30Z</time></trkpt><trkpt lat="50.20709231379213" lon="3.9567829643386445"><ele>174.0</ele><time>2026-04-30T15:30:31Z</time></trkpt><trkpt lat="50.206981648235704" lon="3.9568471673402863"><ele>174.5</ele><time>2026-04-30T15:30:32Z</time></trkpt><trkpt lat="50.20686523712756" lon="3.9568712368663976"><ele>175.0</ele><time>2026-04-30T15:30:33Z</time></trkpt><trkpt lat="50.2067481331911" lon="3.956851339995417"><ele>175.0</ele><time>2026-04-30T15:30:34Z</time></trkpt><trkpt lat="50.2066374089168" lon="3.956784896328948"><ele>175.0</ele><time>2026-04-30T15:30:35Z</time></trkpt><trkpt lat="50.20654332929856" lon="3.9566776821363376"><ele>175.0</ele><time>2026-04-30T15:30:36Z</time></trkpt><trkpt lat="50.2064663250239" lon="3.9565403575044353"><ele>175.0</ele><time>2026-04-30T15:30:37Z</time></trkpt><trkpt lat="50.20641253534643" lon="3.9563768681841402"><ele>175.4</ele><time>2026-04-30T15:30:38Z</time></trkpt><trkpt lat="50.20637947516343" lon="3.956207396286894"><ele>175.8</ele><time>2026-04-30T15:30:39Z</time></trkpt><trkpt lat="50.20637507585623" lon="3.9560362395788027"><ele>176.2</ele><time>2026-04-30T15:30:40Z</time></trkpt><trkpt lat="50.20639461141618" lon="3.9558667961174168"><ele>176.6</ele><time>2026-04-30T15:30:41Z</time></trkpt><trkpt lat="50.206438332797" lon="3.9557067694621577"><ele>177.0</ele><time>2026-04-30T15:30:42Z</time></trkpt><trkpt lat="50.20651386875674" lon="3.95556264346"><ele>176.0</ele><time>2026-04-30T15:30:43Z</time></trkpt><trkpt lat="50.20661457597962" lon="3.955437333125025"><ele>175.0</ele><time>2026-04-30T15:30:44Z</time></trkpt><trkpt lat="50.20673509695771" lon="3.9553309269289003"><ele>174.0</ele><time>2026-04-30T15:30:45Z</time></trkpt><trkpt lat="50.20687084836327" lon="3.9552483145424095"><ele>173.0</ele><time>2026-04-30T15:30:46Z</time></trkpt><trkpt lat="50.207016978777766" lon="3.955172347087872"><ele>173.0</ele><time>2026-04-30T15:30:47Z</time></trkpt><trkpt lat="50.2071691042796" lon="3.9550870618718474"><ele>173.0</ele><time>2026-04-30T15:30:48Z</time></trkpt><trkpt lat="50.207329910542995" lon="3.9549855838117867"><ele>173.0</ele><time>2026-04-30T15:30:49Z</time></trkpt><trkpt lat="50.20751492538231" lon="3.954863533958947"><ele>170.5</ele><time>2026-04-30T15:30:50Z</time></trkpt><trkpt lat="50.207727714402225" lon="3.954724413631353"><ele>168.0</ele><time>2026-04-30T15:30:51Z</time></trkpt><trkpt lat="50.207978746213314" lon="3.954596857161097"><ele>167.5</ele><time>2026-04-30T15:30:52Z</time></trkpt><trkpt lat="50.20825113078421" lon="3.95448757353616"><ele>167.0</ele><time>2026-04-30T15:30:53Z</time></trkpt><trkpt lat="50.208541705183414" lon="3.954384289047812"><ele>167.0</ele><time>2026-04-30T15:30:54Z</time></trkpt><trkpt lat="50.20884681697089" lon="3.9542842366605275"><ele>167.0</ele><time>2026-04-30T15:30:55Z</time></trkpt><trkpt lat="50.209162903215386" lon="3.9542019530890635"><ele>166.0</ele><time>2026-04-30T15:30:56Z</time></trkpt><trkpt lat="50.20949113958638" lon="3.954140293114115"><ele>165.0</ele><time>2026-04-30T15:30:57Z</time></trkpt><trkpt lat="50.209815347752" lon="3.95408066076644"><ele>165.0</ele><time>2026-04-30T15:30:58Z</time></trkpt><trkpt lat="50.21013000969956" lon="3.9540215580615983"><ele>165.0</ele><time>2026-04-30T15:30:59Z</time></trkpt><trkpt lat="50.2104460532232" lon="3.9539647960957103"><ele>166.0</ele><time>2026-04-30T15:31:00Z</time></trkpt><trkpt lat="50.210768901431756" lon="3.953923009968058"><ele>167.0</ele><time>2026-04-30T15:31:01Z</time></trkpt><trkpt lat="50.21109313458217" lon="3.9538822128440896"><ele>167.0</ele><time>2026-04-30T15:31:02Z</time></trkpt><trkpt lat="50.21141530991941" lon="3.953836515752706"><ele>167.0</ele><time>2026-04-30T15:31:03Z</time></trkpt><trkpt lat="50.21173175857638" lon="3.953795474187302"><ele>166.0</ele><time>2026-04-30T15:31:04Z</time></trkpt><trkpt lat="50.212043080624895" lon="3.9537428807983477"><ele>165.0</ele><time>2026-04-30T15:31:05Z</time></trkpt><trkpt lat="50.2123463953088" lon="3.953695979010595"><ele>165.0</ele><time>2026-04-30T15:31:06Z</time></trkpt><trkpt lat="50.21264660298321" lon="3.9536526284054982"><ele>165.0</ele><time>2026-04-30T15:31:07Z</time></trkpt><trkpt lat="50.212944871932" lon="3.9536080371186433"><ele>163.5</ele><time>2026-04-30T15:31:08Z</time></trkpt><trkpt lat="50.21324320070333" lon="3.953566039126227"><ele>162.0</ele><time>2026-04-30T15:31:09Z</time></trkpt><trkpt lat="50.21354244859553" lon="3.953523143948199"><ele>162.0</ele><time>2026-04-30T15:31:10Z</time></trkpt><trkpt lat="50.21384362694339" lon="3.9534837321624487"><ele>162.0</ele><time>2026-04-30T15:31:11Z</time></trkpt><trkpt lat="50.21414759526267" lon="3.9534485629635814"><ele>164.0</ele><time>2026-04-30T15:31:12Z</time></trkpt><trkpt lat="50.21445286085099" lon="3.9534264572660125"><ele>166.0</ele><time>2026-04-30T15:31:13Z</time></trkpt><trkpt lat="50.21476232570714" lon="3.95341872355248"><ele>168.0</ele><time>2026-04-30T15:31:14Z</time></trkpt><trkpt lat="50.21507658583121" lon="3.9534224162645035"><ele>170.0</ele><time>2026-04-30T15:31:15Z</time></trkpt><trkpt lat="50.21539666723124" lon="3.9534362128753693"><ele>173.0</ele><time>2026-04-30T15:31:16Z</time></trkpt><trkpt lat="50.21571941515405" lon="3.9534604274782907"><ele>176.0</ele><time>2026-04-30T15:31:17Z</time></trkpt><trkpt lat="50.21604519992108" lon="3.953492263125419"><ele>176.0</ele><time>2026-04-30T15:31:18Z</time></trkpt><trkpt lat="50.21637689492626" lon="3.953535572844856"><ele>176.0</ele><time>2026-04-30T15:31:19Z</time></trkpt><trkpt lat="50.21670941102824" lon="3.953592499530907"><ele>176.0</ele><time>2026-04-30T15:31:20Z</time></trkpt><trkpt lat="50.21704703548564" lon="3.9536587418529883"><ele>176.0</ele><time>2026-04-30T15:31:21Z</time></trkpt><trkpt lat="50.21738430263209" lon="3.9537443728137487"><ele>176.5</ele><time>2026-04-30T15:31:22Z</time></trkpt><trkpt lat="50.21772123234727" lon="3.9538433417695824"><ele>177.0</ele><time>2026-04-30T15:31:23Z</time></trkpt><trkpt lat="50.2180579103417" lon="3.9539527870840185"><ele>177.0</ele><time>2026-04-30T15:31:24Z</time></trkpt><trkpt lat="50.218393903502" lon="3.9540762420683113"><ele>177.0</ele><time>2026-04-30T15:31:25Z</time></trkpt><trkpt lat="50.21872556025817" lon="3.9542104111646768"><ele>176.5</ele><time>2026-04-30T15:31:26Z</time></trkpt><trkpt lat="50.219048251505896" lon="3.954354029154646"><ele>176.0</ele><time>2026-04-30T15:31:27Z</time></trkpt><trkpt lat="50.21936391354483" lon="3.95450491641134"><ele>176.0</ele><time>2026-04-30T15:31:28Z</time></trkpt><trkpt lat="50.21967231642106" lon="3.95466854900483"><ele>176.0</ele><time>2026-04-30T15:31:29Z</time></trkpt><trkpt lat="50.21997407429034" lon="3.954844366963642"><ele>175.5</ele><time>2026-04-30T15:31:30Z</time></trkpt><trkpt lat="50.22027500913729" lon="3.955029445274202"><ele>175.0</ele><time>2026-04-30T15:31:31Z</time></trkpt><trkpt lat="50.22057699041792" lon="3.955224455201322"><ele>174.0</ele><time>2026-04-30T15:31:32Z</time></trkpt><trkpt lat="50.220878473648916" lon="3.95543047960461"><ele>173.0</ele><time>2026-04-30T15:31:33Z</time></trkpt><trkpt lat="50.22117970676471" lon="3.9556459301793363"><ele>173.0</ele><time>2026-04-30T15:31:34Z</time></trkpt><trkpt lat="50.22147919134748" lon="3.955868080332742"><ele>173.0</ele><time>2026-04-30T15:31:35Z</time></trkpt><trkpt lat="50.2217782872516" lon="3.95609013610067"><ele>173.0</ele><time>2026-04-30T15:31:36Z</time></trkpt><trkpt lat="50.22207765432627" lon="3.9563067685724036"><ele>173.0</ele><time>2026-04-30T15:31:37Z</time></trkpt><trkpt lat="50.22237874243571" lon="3.956518997101738"><ele>173.0</ele><time>2026-04-30T15:31:38Z</time></trkpt><trkpt lat="50.22267965885171" lon="3.9567357998048442"><ele>173.0</ele><time>2026-04-30T15:31:39Z</time></trkpt><trkpt lat="50.22298094705062" lon="3.9569552689235525"><ele>171.5</ele><time>2026-04-30T15:31:40Z</time></trkpt><trkpt lat="50.22328131368904" lon="3.957174983884974"><ele>170.0</ele><time>2026-04-30T15:31:41Z</time></trkpt><trkpt lat="50.223579398949916" lon="3.9573912278303336"><ele>170.5</ele><time>2026-04-30T15:31:42Z</time></trkpt><trkpt lat="50.2238745254267" lon="3.9575995454793986"><ele>171.0</ele><time>2026-04-30T15:31:42.999Z</time></trkpt><trkpt lat="50.22417247155893" lon="3.957804655842342"><ele>171.5</ele><time>2026-04-30T15:31:43.999Z</time></trkpt><trkpt lat="50.22447274254695" lon="3.958011450537595"><ele>172.0</ele><time>2026-04-30T15:31:44.999Z</time></trkpt><trkpt lat="50.22476249988613" lon="3.958214261660886"><ele>172.5</ele><time>2026-04-30T15:31:45.999Z</time></trkpt><trkpt lat="50.22503359496019" lon="3.958409584647961"><ele>173.0</ele><time>2026-04-30T15:31:46.998Z</time></trkpt><trkpt lat="50.225299460772305" lon="3.9585899629086376"><ele>173.0</ele><time>2026-04-30T15:31:47.998Z</time></trkpt><trkpt lat="50.22555714950729" lon="3.958781757905831"><ele>173.0</ele><time>2026-04-30T15:31:48.998Z</time></trkpt><trkpt lat="50.22581552348328" lon="3.958971983308352"><ele>174.5</ele><time>2026-04-30T15:31:49.998Z</time></trkpt><trkpt lat="50.22607014618847" lon="3.959157658525141"><ele>176.0</ele><time>2026-04-30T15:31:50.998Z</time></trkpt><trkpt lat="50.22632319418936" lon="3.959342122025186"><ele>176.5</ele><time>2026-04-30T15:31:51.998Z</time></trkpt><trkpt lat="50.22657720889148" lon="3.9595341301805047"><ele>177.0</ele><time>2026-04-30T15:31:52.998Z</time></trkpt><trkpt lat="50.22683246083784" lon="3.9597365682189953"><ele>177.0</ele><time>2026-04-30T15:31:53.998Z</time></trkpt><trkpt lat="50.22709369438731" lon="3.959945550457098"><ele>177.0</ele><time>2026-04-30T15:31:54.998Z</time></trkpt><trkpt lat="50.2273591851248" lon="3.960154115147645"><ele>176.0</ele><time>2026-04-30T15:31:55.998Z</time></trkpt><trkpt lat="50.227632490623" lon="3.960363095003966"><ele>175.0</ele><time>2026-04-30T15:31:56.998Z</time></trkpt><trkpt lat="50.22791186169864" lon="3.960561199029435"><ele>175.5</ele><time>2026-04-30T15:31:57.998Z</time></trkpt><trkpt lat="50.22819752055471" lon="3.960759156904223"><ele>176.0</ele><time>2026-04-30T15:31:58.998Z</time></trkpt><trkpt lat="50.228488728150595" lon="3.9609564046905503"><ele>176.5</ele><time>2026-04-30T15:32:00Z</time></trkpt><trkpt lat="50.22878645758692" lon="3.9611399365960156"><ele>177.0</ele><time>2026-04-30T15:32:01Z</time></trkpt><trkpt lat="50.2290891703537" lon="3.961309585480446"><ele>176.0</ele><time>2026-04-30T15:32:02Z</time></trkpt><trkpt lat="50.22939914279027" lon="3.9614678918877457"><ele>175.0</ele><time>2026-04-30T15:32:03Z</time></trkpt><trkpt lat="50.22971434546717" lon="3.961615646678448"><ele>174.5</ele><time>2026-04-30T15:32:04Z</time></trkpt><trkpt lat="50.2300353570175" lon="3.961751666787071"><ele>174.0</ele><time>2026-04-30T15:32:05Z</time></trkpt><trkpt lat="50.23036072118618" lon="3.9618773454673546"><ele>171.5</ele><time>2026-04-30T15:32:06Z</time></trkpt><trkpt lat="50.23068478959729" lon="3.9619875263071958"><ele>169.0</ele><time>2026-04-30T15:32:07Z</time></trkpt><trkpt lat="50.231011074136" lon="3.9620846280899045"><ele>169.0</ele><time>2026-04-30T15:32:08Z</time></trkpt><trkpt lat="50.23133550624887" lon="3.962171744855726"><ele>169.0</ele><time>2026-04-30T15:32:09Z</time></trkpt><trkpt lat="50.231661329772045" lon="3.96224185604722"><ele>168.5</ele><time>2026-04-30T15:32:10Z</time></trkpt><trkpt lat="50.23198290511384" lon="3.96229530317818"><ele>168.0</ele><time>2026-04-30T15:32:11Z</time></trkpt><trkpt lat="50.23230185062102" lon="3.9623348868120702"><ele>166.0</ele><time>2026-04-30T15:32:12Z</time></trkpt><trkpt lat="50.23261802751753" lon="3.9623614627832215"><ele>164.0</ele><time>2026-04-30T15:32:13Z</time></trkpt><trkpt lat="50.23293457691626" lon="3.962374638328871"><ele>164.0</ele><time>2026-04-30T15:32:14Z</time></trkpt><trkpt lat="50.23325082684964" lon="3.962371800504165"><ele>164.0</ele><time>2026-04-30T15:32:15Z</time></trkpt><trkpt lat="50.23356733813124" lon="3.962352245850341"><ele>164.0</ele><time>2026-04-30T15:32:16Z</time></trkpt><trkpt lat="50.23388451181619" lon="3.9623272860939713"><ele>164.0</ele><time>2026-04-30T15:32:17Z</time></trkpt><trkpt lat="50.2341999820553" lon="3.9622927301531674"><ele>166.0</ele><time>2026-04-30T15:32:18Z</time></trkpt><trkpt lat="50.23451608986707" lon="3.9622395128493832"><ele>168.0</ele><time>2026-04-30T15:32:19Z</time></trkpt><trkpt lat="50.23483481762935" lon="3.9621783430788398"><ele>169.5</ele><time>2026-04-30T15:32:20Z</time></trkpt><trkpt lat="50.235153555421306" lon="3.962103490698543"><ele>171.0</ele><time>2026-04-30T15:32:21Z</time></trkpt><trkpt lat="50.23547396673767" lon="3.962008873312962"><ele>173.0</ele><time>2026-04-30T15:32:22Z</time></trkpt><trkpt lat="50.23579580154404" lon="3.9619039124462967"><ele>175.0</ele><time>2026-04-30T15:32:23Z</time></trkpt><trkpt lat="50.236118928009034" lon="3.9617878948583196"><ele>175.0</ele><time>2026-04-30T15:32:24Z</time></trkpt><trkpt lat="50.23644020616446" lon="3.9616567288779243"><ele>175.0</ele><time>2026-04-30T15:32:25Z</time></trkpt><trkpt lat="50.23676169550615" lon="3.961505311388784"><ele>175.5</ele><time>2026-04-30T15:32:26Z</time></trkpt><trkpt lat="50.23708196870474" lon="3.961337786845664"><ele>176.0</ele><time>2026-04-30T15:32:27Z</time></trkpt><trkpt lat="50.237403608172" lon="3.9611605758557196"><ele>178.0</ele><time>2026-04-30T15:32:28Z</time></trkpt><trkpt lat="50.23772302311733" lon="3.960964219933378"><ele>180.0</ele><time>2026-04-30T15:32:29Z</time></trkpt><trkpt lat="50.238037664390845" lon="3.9607544953814324"><ele>180.5</ele><time>2026-04-30T15:32:30Z</time></trkpt><trkpt lat="50.238343496185166" lon="3.960539746607894"><ele>181.0</ele><time>2026-04-30T15:32:31Z</time></trkpt><trkpt lat="50.238631004809804" lon="3.960319973364392"><ele>181.0</ele><time>2026-04-30T15:32:32Z</time></trkpt><trkpt lat="50.23890601525998" lon="3.9600894074977266"><ele>181.0</ele><time>2026-04-30T15:32:33Z</time></trkpt><trkpt lat="50.23917390655338" lon="3.9598520335418246"><ele>181.0</ele><time>2026-04-30T15:32:34Z</time></trkpt><trkpt lat="50.23943381304582" lon="3.9596094291131343"><ele>181.0</ele><time>2026-04-30T15:32:35Z</time></trkpt><trkpt lat="50.23968314421925" lon="3.9593612582959925"><ele>179.5</ele><time>2026-04-30T15:32:36Z</time></trkpt><trkpt lat="50.23992085746578" lon="3.9591024224173763"><ele>178.0</ele><time>2026-04-30T15:32:37Z</time></trkpt><trkpt lat="50.240149844999436" lon="3.9588406321453187"><ele>178.0</ele><time>2026-04-30T15:32:38Z</time></trkpt><trkpt lat="50.24037558824928" lon="3.958576753795669"><ele>178.0</ele><time>2026-04-30T15:32:39Z</time></trkpt><trkpt lat="50.240594179986616" lon="3.9583121652297986"><ele>177.0</ele><time>2026-04-30T15:32:40Z</time></trkpt><trkpt lat="50.240804683939274" lon="3.9580424935993515"><ele>176.0</ele><time>2026-04-30T15:32:41Z</time></trkpt><trkpt lat="50.24101812773056" lon="3.9577599241775423"><ele>176.5</ele><time>2026-04-30T15:32:42Z</time></trkpt><trkpt lat="50.24123465482068" lon="3.957468755381742"><ele>177.0</ele><time>2026-04-30T15:32:43Z</time></trkpt><trkpt lat="50.241451984047586" lon="3.957169263267216"><ele>177.0</ele><time>2026-04-30T15:32:44Z</time></trkpt><trkpt lat="50.241664631181614" lon="3.9568590201367373"><ele>177.0</ele><time>2026-04-30T15:32:45Z</time></trkpt><trkpt lat="50.24187507587515" lon="3.956546614871775"><ele>177.0</ele><time>2026-04-30T15:32:46Z</time></trkpt><trkpt lat="50.24208995370739" lon="3.9562435870134274"><ele>177.0</ele><time>2026-04-30T15:32:47Z</time></trkpt><trkpt lat="50.24231234197176" lon="3.955961089270885"><ele>176.5</ele><time>2026-04-30T15:32:48Z</time></trkpt><trkpt lat="50.24254286012968" lon="3.9556906642541687"><ele>176.0</ele><time>2026-04-30T15:32:48.999Z</time></trkpt><trkpt lat="50.24278088718573" lon="3.955433003519499"><ele>176.0</ele><time>2026-04-30T15:32:49.999Z</time></trkpt><trkpt lat="50.24301954876195" lon="3.9551910483007577"><ele>176.0</ele><time>2026-04-30T15:32:50.999Z</time></trkpt><trkpt lat="50.24326398600034" lon="3.954971272292346"><ele>173.5</ele><time>2026-04-30T15:32:51.999Z</time></trkpt><trkpt lat="50.24351704409672" lon="3.9547703485623824"><ele>171.0</ele><time>2026-04-30T15:32:52.999Z</time></trkpt><trkpt lat="50.24377103626326" lon="3.954584262122371"><ele>171.5</ele><time>2026-04-30T15:32:53.999Z</time></trkpt><trkpt lat="50.24403307813531" lon="3.954411887820971"><ele>172.0</ele><time>2026-04-30T15:32:54.999Z</time></trkpt><trkpt lat="50.244300203785606" lon="3.9542330257996796"><ele>172.0</ele><time>2026-04-30T15:32:55.999Z</time></trkpt><trkpt lat="50.24457613589545" lon="3.954068923376393"><ele>172.0</ele><time>2026-04-30T15:32:56.999Z</time></trkpt><trkpt lat="50.244862553493256" lon="3.9539146804388863"><ele>170.5</ele><time>2026-04-30T15:32:57.999Z</time></trkpt><trkpt lat="50.24516137404851" lon="3.95377647819451"><ele>169.0</ele><time>2026-04-30T15:32:58.999Z</time></trkpt><trkpt lat="50.24546998314744" lon="3.953661080667403"><ele>167.5</ele><time>2026-04-30T15:32:59.999Z</time></trkpt><trkpt lat="50.245785638481706" lon="3.9535619322065716"><ele>166.0</ele><time>2026-04-30T15:33:00.999Z</time></trkpt><trkpt lat="50.24610085168986" lon="3.9534687057221856"><ele>166.0</ele><time>2026-04-30T15:33:01.999Z</time></trkpt><trkpt lat="50.24641479107423" lon="3.9533757222772277"><ele>166.0</ele><time>2026-04-30T15:33:02.999Z</time></trkpt><trkpt lat="50.24671874873732" lon="3.953275672289933"><ele>165.0</ele><time>2026-04-30T15:33:03.999Z</time></trkpt><trkpt lat="50.24701682392414" lon="3.9531563601474518"><ele>164.0</ele><time>2026-04-30T15:33:04.999Z</time></trkpt><trkpt lat="50.247309146189245" lon="3.9530163763902486"><ele>163.0</ele><time>2026-04-30T15:33:05.999Z</time></trkpt><trkpt lat="50.24759804434689" lon="3.9528574286868245"><ele>162.0</ele><time>2026-04-30T15:33:06.999Z</time></trkpt><trkpt lat="50.247869903368226" lon="3.952679879636946"><ele>162.0</ele><time>2026-04-30T15:33:07.999Z</time></trkpt><trkpt lat="50.24812658790773" lon="3.9524899144613546"><ele>162.0</ele><time>2026-04-30T15:33:08.999Z</time></trkpt><trkpt lat="50.24836087964407" lon="3.952275194338145"><ele>161.5</ele><time>2026-04-30T15:33:09.999Z</time></trkpt><trkpt lat="50.24859271890312" lon="3.9520561192642396"><ele>161.0</ele><time>2026-04-30T15:33:10.999Z</time></trkpt><trkpt lat="50.2488174771209" lon="3.9518168967106084"><ele>162.5</ele><time>2026-04-30T15:33:11.999Z</time></trkpt><trkpt lat="50.24903729070338" lon="3.9515645010236127"><ele>164.0</ele><time>2026-04-30T15:33:12.999Z</time></trkpt><trkpt lat="50.24925223640884" lon="3.95129288450528"><ele>164.0</ele><time>2026-04-30T15:33:13.999Z</time></trkpt><trkpt lat="50.24945911566384" lon="3.950991888029552"><ele>164.0</ele><time>2026-04-30T15:33:14.999Z</time></trkpt><trkpt lat="50.249656808274516" lon="3.950670088139803"><ele>164.0</ele><time>2026-04-30T15:33:15.999Z</time></trkpt><trkpt lat="50.24984554254567" lon="3.9503254112227935"><ele>164.0</ele><time>2026-04-30T15:33:16.999Z</time></trkpt><trkpt lat="50.25002591155872" lon="3.9499581540112896"><ele>163.5</ele><time>2026-04-30T15:33:17.999Z</time></trkpt><trkpt lat="50.25019800644849" lon="3.949575362179909"><ele>163.0</ele><time>2026-04-30T15:33:18.999Z</time></trkpt><trkpt lat="50.250372686393256" lon="3.9491805473439"><ele>164.0</ele><time>2026-04-30T15:33:19.999Z</time></trkpt><trkpt lat="50.25055212020744" lon="3.9487839117994388"><ele>165.0</ele><time>2026-04-30T15:33:20.999Z</time></trkpt><trkpt lat="50.25073475638715" lon="3.948388047046181"><ele>163.5</ele><time>2026-04-30T15:33:21.999Z</time></trkpt><trkpt lat="50.25092065548302" lon="3.9479900406242914"><ele>162.0</ele><time>2026-04-30T15:33:22.999Z</time></trkpt><trkpt lat="50.25110525054866" lon="3.947586077994468"><ele>162.5</ele><time>2026-04-30T15:33:23.999Z</time></trkpt><trkpt lat="50.25128855205284" lon="3.947180690793948"><ele>163.0</ele><time>2026-04-30T15:33:24.999Z</time></trkpt><trkpt lat="50.251470110096676" lon="3.9467794092833364"><ele>159.5</ele><time>2026-04-30T15:33:25.999Z</time></trkpt><trkpt lat="50.251653910221066" lon="3.946376075370991"><ele>156.0</ele><time>2026-04-30T15:33:26.999Z</time></trkpt><trkpt lat="50.25183707135828" lon="3.9459680205790453"><ele>156.5</ele><time>2026-04-30T15:33:27.999Z</time></trkpt><trkpt lat="50.252020743683545" lon="3.9455594772536595"><ele>157.0</ele><time>2026-04-30T15:33:28.999Z</time></trkpt><trkpt lat="50.252201382225095" lon="3.945165697215895"><ele>154.0</ele><time>2026-04-30T15:33:29.999Z</time></trkpt><trkpt lat="50.25237547325543" lon="3.9447863708786453"><ele>151.0</ele><time>2026-04-30T15:33:30.999Z</time></trkpt><trkpt lat="50.25254554165378" lon="3.9444247619295703"><ele>151.0</ele><time>2026-04-30T15:33:31.999Z</time></trkpt><trkpt lat="50.25271350412692" lon="3.944079738985868"><ele>151.0</ele><time>2026-04-30T15:33:32.999Z</time></trkpt><trkpt lat="50.25287521685577" lon="3.9437736698173764"><ele>151.0</ele><time>2026-04-30T15:33:33.999Z</time></trkpt><trkpt lat="50.25303736189707" lon="3.9434985402699465"><ele>151.0</ele><time>2026-04-30T15:33:34.999Z</time></trkpt><trkpt lat="50.25320803503542" lon="3.943243294743193"><ele>148.5</ele><time>2026-04-30T15:33:35.999Z</time></trkpt><trkpt lat="50.253394527008965" lon="3.9430029020287747"><ele>146.0</ele><time>2026-04-30T15:33:36.999Z</time></trkpt><trkpt lat="50.25359454111611" lon="3.9427814208228322"><ele>146.0</ele><time>2026-04-30T15:33:37.999Z</time></trkpt><trkpt lat="50.25380487450298" lon="3.9425770025527487"><ele>146.0</ele><time>2026-04-30T15:33:38.999Z</time></trkpt><trkpt lat="50.25401409875276" lon="3.942399544240998"><ele>145.5</ele><time>2026-04-30T15:33:39.999Z</time></trkpt><trkpt lat="50.25422171235925" lon="3.9422514950383607"><ele>145.0</ele><time>2026-04-30T15:33:40.999Z</time></trkpt><trkpt lat="50.254439401081726" lon="3.9421305960759727"><ele>145.0</ele><time>2026-04-30T15:33:41.999Z</time></trkpt><trkpt lat="50.254661100532175" lon="3.942032936718195"><ele>145.0</ele><time>2026-04-30T15:33:42.999Z</time></trkpt><trkpt lat="50.25487043497844" lon="3.941959168840538"><ele>145.0</ele><time>2026-04-30T15:33:43.999Z</time></trkpt><trkpt lat="50.25507156684694" lon="3.9419014956005665"><ele>144.33333333333334</ele><time>2026-04-30T15:33:44.999Z</time></trkpt><trkpt lat="50.25527632805671" lon="3.9418553738937896"><ele>143.66666666666666</ele><time>2026-04-30T15:33:45.999Z</time></trkpt><trkpt lat="50.25548809183397" lon="3.9418071403708113"><ele>143.0</ele><time>2026-04-30T15:33:46.999Z</time></trkpt><trkpt lat="50.25570279424565" lon="3.9417478096621683"><ele>143.33333333333331</ele><time>2026-04-30T15:33:47.999Z</time></trkpt><trkpt lat="50.25592089411644" lon="3.9416699343206183"><ele>143.66666666666666</ele><time>2026-04-30T15:33:48.999Z</time></trkpt><trkpt lat="50.25613188921159" lon="3.9415775621855644"><ele>144.0</ele><time>2026-04-30T15:33:49.999Z</time></trkpt><trkpt lat="50.25633470162771" lon="3.9414677057681375"><ele>143.5</ele><time>2026-04-30T15:33:50.999Z</time></trkpt><trkpt lat="50.25654023943361" lon="3.9413392837785035"><ele>143.0</ele><time>2026-04-30T15:33:51.999Z</time></trkpt><trkpt lat="50.25675292634734" lon="3.9412021933980848"><ele>143.0</ele><time>2026-04-30T15:33:52.999Z</time></trkpt><trkpt lat="50.25696527769312" lon="3.9410479801962"><ele>143.0</ele><time>2026-04-30T15:33:53.999Z</time></trkpt><trkpt lat="50.25717655369122" lon="3.94087350484086"><ele>143.5</ele><time>2026-04-30T15:33:54.999Z</time></trkpt><trkpt lat="50.25738359977961" lon="3.940679864263713"><ele>144.0</ele><time>2026-04-30T15:33:55.999Z</time></trkpt><trkpt lat="50.25758776993162" lon="3.9404710636698455"><ele>144.0</ele><time>2026-04-30T15:33:56.999Z</time></trkpt><trkpt lat="50.25778382641647" lon="3.940243753633036"><ele>144.0</ele><time>2026-04-30T15:33:57.999Z</time></trkpt><trkpt lat="50.25797412136583" lon="3.940001453100131"><ele>144.0</ele><time>2026-04-30T15:33:58.999Z</time></trkpt><trkpt lat="50.25815409343392" lon="3.9397466739539007"><ele>144.0</ele><time>2026-04-30T15:33:59.999Z</time></trkpt><trkpt lat="50.25832741959895" lon="3.9394802472297656"><ele>146.0</ele><time>2026-04-30T15:34:00.999Z</time></trkpt><trkpt lat="50.25849546473077" lon="3.9391985667600773"><ele>148.0</ele><time>2026-04-30T15:34:01.999Z</time></trkpt><trkpt lat="50.2586548542778" lon="3.9388998798363697"><ele>148.0</ele><time>2026-04-30T15:34:02.999Z</time></trkpt><trkpt lat="50.258803488866285" lon="3.938583961497187"><ele>148.0</ele><time>2026-04-30T15:34:03.999Z</time></trkpt><trkpt lat="50.25894180837752" lon="3.9382513727450115"><ele>146.5</ele><time>2026-04-30T15:34:04.999Z</time></trkpt><trkpt lat="50.25907093113145" lon="3.9379068244525426"><ele>145.0</ele><time>2026-04-30T15:34:06Z</time></trkpt><trkpt lat="50.259188686563455" lon="3.9375653739444965"><ele>146.0</ele><time>2026-04-30T15:34:07.001Z</time></trkpt><trkpt lat="50.25929614400323" lon="3.937225754470575"><ele>147.0</ele><time>2026-04-30T15:34:08.001Z</time></trkpt><trkpt lat="50.25938819429483" lon="3.9368731984424663"><ele>148.0</ele><time>2026-04-30T15:34:09.001Z</time></trkpt><trkpt lat="50.259469821769734" lon="3.9365072707676023"><ele>149.0</ele><time>2026-04-30T15:34:10.001Z</time></trkpt><trkpt lat="50.259544825119086" lon="3.936130431556369"><ele>147.5</ele><time>2026-04-30T15:34:11Z</time></trkpt><trkpt lat="50.2596097739162" lon="3.9357438632925295"><ele>146.0</ele><time>2026-04-30T15:34:12Z</time></trkpt><trkpt lat="50.25966850325387" lon="3.935369242098577"><ele>146.0</ele><time>2026-04-30T15:34:13Z</time></trkpt><trkpt lat="50.25973021120147" lon="3.93501075723389"><ele>146.0</ele><time>2026-04-30T15:34:14Z</time></trkpt><trkpt lat="50.2597914077105" lon="3.934647937041704"><ele>142.5</ele><time>2026-04-30T15:34:15Z</time></trkpt><trkpt lat="50.259851665812846" lon="3.9342810911593515"><ele>139.0</ele><time>2026-04-30T15:34:16Z</time></trkpt><trkpt lat="50.259914005697475" lon="3.9339133920029905"><ele>139.0</ele><time>2026-04-30T15:34:17Z</time></trkpt><trkpt lat="50.25997479216975" lon="3.9335425707352423"><ele>139.0</ele><time>2026-04-30T15:34:18Z</time></trkpt><trkpt lat="50.2600366337496" lon="3.93316856133676"><ele>139.0</ele><time>2026-04-30T15:34:19Z</time></trkpt><trkpt lat="50.260097914629945" lon="3.932807118920264"><ele>139.0</ele><time>2026-04-30T15:34:20Z</time></trkpt><trkpt lat="50.260157492682026" lon="3.9324536013563334"><ele>138.33333333333334</ele><time>2026-04-30T15:34:21Z</time></trkpt><trkpt lat="50.2602132509445" lon="3.9321125500316083"><ele>137.66666666666666</ele><time>2026-04-30T15:34:22Z</time></trkpt><trkpt lat="50.26027099830226" lon="3.9317770367674827"><ele>137.0</ele><time>2026-04-30T15:34:23Z</time></trkpt><trkpt lat="50.26033744314072" lon="3.9314434494975194"><ele>136.33333333333331</ele><time>2026-04-30T15:34:24Z</time></trkpt><trkpt lat="50.26041032104957" lon="3.9311169978886253"><ele>135.66666666666666</ele><time>2026-04-30T15:34:25Z</time></trkpt><trkpt lat="50.26048601759605" lon="3.9307932688034266"><ele>135.0</ele><time>2026-04-30T15:34:26Z</time></trkpt><trkpt lat="50.260559870807576" lon="3.930483911988303"><ele>133.33333333333334</ele><time>2026-04-30T15:34:27Z</time></trkpt><trkpt lat="50.26063152827275" lon="3.9301755750909426"><ele>131.66666666666669</ele><time>2026-04-30T15:34:28Z</time></trkpt><trkpt lat="50.260741869982354" lon="3.9299337615891066"><ele>130.0</ele><time>2026-04-30T15:34:29Z</time></trkpt><trkpt lat="50.26083466804018" lon="3.929684383195631"><ele>129.66666666666669</ele><time>2026-04-30T15:34:30Z</time></trkpt><trkpt lat="50.260935289479015" lon="3.9294360044632652"><ele>129.33333333333334</ele><time>2026-04-30T15:34:31Z</time></trkpt><trkpt lat="50.26104046591961" lon="3.9291803152606177"><ele>129.0</ele><time>2026-04-30T15:34:32Z</time></trkpt><trkpt lat="50.261155445498616" lon="3.928916079175507"><ele>128.66666666666666</ele><time>2026-04-30T15:34:33Z</time></trkpt><trkpt lat="50.2612831671799" lon="3.92864699093914"><ele>128.33333333333331</ele><time>2026-04-30T15:34:34Z</time></trkpt><trkpt lat="50.261419698123895" lon="3.928382271413952"><ele>128.0</ele><time>2026-04-30T15:34:35Z</time></trkpt><trkpt lat="50.26155838554068" lon="3.928117813978464"><ele>128.0</ele><time>2026-04-30T15:34:36Z</time></trkpt><trkpt lat="50.26170071974785" lon="3.9278614228236957"><ele>128.0</ele><time>2026-04-30T15:34:37Z</time></trkpt><trkpt lat="50.2618533975768" lon="3.9276102874434895"><ele>128.0</ele><time>2026-04-30T15:34:38Z</time></trkpt><trkpt lat="50.262013932570014" lon="3.9273755067565053"><ele>128.0</ele><time>2026-04-30T15:34:39Z</time></trkpt><trkpt lat="50.262174281410125" lon="3.9271601736121653"><ele>128.0</ele><time>2026-04-30T15:34:40Z</time></trkpt><trkpt lat="50.262334777039335" lon="3.9269519577233925"><ele>128.0</ele><time>2026-04-30T15:34:41Z</time></trkpt><trkpt lat="50.26250061836841" lon="3.9267503593150366"><ele>128.66666666666666</ele><time>2026-04-30T15:34:42Z</time></trkpt><trkpt lat="50.26265734307002" lon="3.9265734177533953"><ele>129.33333333333334</ele><time>2026-04-30T15:34:43Z</time></trkpt><trkpt lat="50.26280212593981" lon="3.9264288406133008"><ele>130.0</ele><time>2026-04-30T15:34:44Z</time></trkpt><trkpt lat="50.26294550608885" lon="3.9262838294450386"><ele>130.0</ele><time>2026-04-30T15:34:45Z</time></trkpt><trkpt lat="50.26309473571039" lon="3.926143632687267"><ele>130.0</ele><time>2026-04-30T15:34:46Z</time></trkpt><trkpt lat="50.263241876778736" lon="3.9260120151619757"><ele>130.0</ele><time>2026-04-30T15:34:47Z</time></trkpt><trkpt lat="50.26339178809847" lon="3.92588197641512"><ele>131.0</ele><time>2026-04-30T15:34:48Z</time></trkpt><trkpt lat="50.26354455741193" lon="3.9257585445033563"><ele>132.0</ele><time>2026-04-30T15:34:49Z</time></trkpt><trkpt lat="50.26370622574061" lon="3.9256492837496015"><ele>133.0</ele><time>2026-04-30T15:34:50Z</time></trkpt><trkpt lat="50.26387580523919" lon="3.925550726311677"><ele>135.0</ele><time>2026-04-30T15:34:51Z</time></trkpt><trkpt lat="50.264042546441125" lon="3.9254547523014893"><ele>137.0</ele><time>2026-04-30T15:34:52Z</time></trkpt><trkpt lat="50.26420860907992" lon="3.925353335750642"><ele>139.0</ele><time>2026-04-30T15:34:53Z</time></trkpt><trkpt lat="50.2643666599562" lon="3.9252671592276442"><ele>139.0</ele><time>2026-04-30T15:34:54Z</time></trkpt><trkpt lat="50.26452025609515" lon="3.9251907607976664"><ele>139.0</ele><time>2026-04-30T15:34:55Z</time></trkpt><trkpt lat="50.26467803567502" lon="3.925113693760445"><ele>139.0</ele><time>2026-04-30T15:34:56Z</time></trkpt><trkpt lat="50.26483228179845" lon="3.925030830298532"><ele>142.66666666666669</ele><time>2026-04-30T15:34:57Z</time></trkpt><trkpt lat="50.26498953551769" lon="3.9249558813118526"><ele>146.33333333333334</ele><time>2026-04-30T15:34:58Z</time></trkpt><trkpt lat="50.26515278253378" lon="3.9248777145833738"><ele>150.0</ele><time>2026-04-30T15:34:59Z</time></trkpt><trkpt lat="50.265317148577914" lon="3.9247892128378195"><ele>150.0</ele><time>2026-04-30T15:35:00Z</time></trkpt><trkpt lat="50.265491146077196" lon="3.9246987663522175"><ele>150.0</ele><time>2026-04-30T15:35:01Z</time></trkpt><trkpt lat="50.26566760142597" lon="3.9246106785333494"><ele>150.0</ele><time>2026-04-30T15:35:02Z</time></trkpt><trkpt lat="50.265851422089845" lon="3.9245146085551617"><ele>151.33333333333334</ele><time>2026-04-30T15:35:03Z</time></trkpt><trkpt lat="50.26604002497418" lon="3.9244222719715482"><ele>152.66666666666669</ele><time>2026-04-30T15:35:04Z</time></trkpt><trkpt lat="50.26622698219202" lon="3.924343032865721"><ele>154.0</ele><time>2026-04-30T15:35:05Z</time></trkpt><trkpt lat="50.26641188169059" lon="3.924256796719034"><ele>155.33333333333334</ele><time>2026-04-30T15:35:06Z</time></trkpt><trkpt lat="50.266592601621205" lon="3.924171550682092"><ele>156.66666666666666</ele><time>2026-04-30T15:35:07Z</time></trkpt><trkpt lat="50.26676422539703" lon="3.9240932487770146"><ele>158.0</ele><time>2026-04-30T15:35:08Z</time></trkpt><trkpt lat="50.266920853964834" lon="3.9240028983187374"><ele>158.0</ele><time>2026-04-30T15:35:09Z</time></trkpt><trkpt lat="50.26706778056839" lon="3.9239502138699676"><ele>158.0</ele><time>2026-04-30T15:35:10Z</time></trkpt><trkpt lat="50.26718092144427" lon="3.923888687666118"><ele>158.0</ele><time>2026-04-30T15:35:11Z</time></trkpt><trkpt lat="50.267301905336986" lon="3.923999849588258"><ele>158.0</ele><time>2026-04-30T15:35:11.999Z</time></trkpt><trkpt lat="50.267384323796996" lon="3.924087435418379"><ele>158.25</ele><time>2026-04-30T15:35:12.999Z</time></trkpt><trkpt lat="50.267453238078886" lon="3.9242260481788587"><ele>158.5</ele><time>2026-04-30T15:35:13.999Z</time></trkpt><trkpt lat="50.26749588362069" lon="3.9244082833928107"><ele>158.75</ele><time>2026-04-30T15:35:14.999Z</time></trkpt><trkpt lat="50.26750061022239" lon="3.9246142555335455"><ele>159.0</ele><time>2026-04-30T15:35:15.999Z</time></trkpt><trkpt lat="50.26745432384708" lon="3.924779972644015"><ele>159.0</ele><time>2026-04-30T15:35:16.999Z</time></trkpt><trkpt lat="50.26736370907891" lon="3.9249058561004766"><ele>159.0</ele><time>2026-04-30T15:35:17.999Z</time></trkpt><trkpt lat="50.267275936778454" lon="3.925002306034554"><ele>159.0</ele><time>2026-04-30T15:35:18.999Z</time></trkpt><trkpt lat="50.267220048500825" lon="3.9250960095144554"><ele>159.0</ele><time>2026-04-30T15:35:19.999Z</time></trkpt><trkpt lat="50.267159192546984" lon="3.9251361473152304"><ele>159.0</ele><time>2026-04-30T15:35:22.999Z</time></trkpt><trkpt lat="50.26706598681254" lon="3.9251732245445003"><ele>158.83333333333334</ele><time>2026-04-30T15:35:26.999Z</time></trkpt><trkpt lat="50.26699708296662" lon="3.925150308647792"><ele>158.66666666666666</ele><time>2026-04-30T15:35:27.999Z</time></trkpt><trkpt lat="50.2669318218275" lon="3.9251471862786915"><ele>158.5</ele><time>2026-04-30T15:35:28.999Z</time></trkpt><trkpt lat="50.26686896655084" lon="3.925177050927536"><ele>158.33333333333331</ele><time>2026-04-30T15:35:29.999Z</time></trkpt><trkpt lat="50.26677805932091" lon="3.9253121586514994"><ele>158.16666666666666</ele><time>2026-04-30T15:35:31.999Z</time></trkpt><trkpt lat="50.26675945012926" lon="3.9254323196913283"><ele>158.0</ele><time>2026-04-30T15:35:32.999Z</time></trkpt><trkpt lat="50.2667943970115" lon="3.9255407534320046"><ele>158.0</ele><time>2026-04-30T15:35:33.999Z</time></trkpt><trkpt lat="50.26683519905245" lon="3.9256283368900426"><ele>158.0</ele><time>2026-04-30T15:35:34.999Z</time></trkpt><trkpt lat="50.26689638687231" lon="3.925692302370032"><ele>158.0</ele><time>2026-04-30T15:35:35.999Z</time></trkpt><trkpt lat="50.266979570822286" lon="3.925716196447682"><ele>158.0</ele><time>2026-04-30T15:35:36.999Z</time></trkpt><trkpt lat="50.26707566322594" lon="3.9257267564907234"><ele>158.0</ele><time>2026-04-30T15:35:37.999Z</time></trkpt><trkpt lat="50.267179069732215" lon="3.92575283733131"><ele>158.0</ele><time>2026-04-30T15:35:38.999Z</time></trkpt><trkpt lat="50.26727786347735" lon="3.9258115050702775"><ele>157.5</ele><time>2026-04-30T15:35:39.999Z</time></trkpt><trkpt lat="50.26738624950162" lon="3.9258942229601375"><ele>157.0</ele><time>2026-04-30T15:35:40.999Z</time></trkpt><trkpt lat="50.267501877255874" lon="3.925991705778423"><ele>156.5</ele><time>2026-04-30T15:35:41.999Z</time></trkpt><trkpt lat="50.267618946658764" lon="3.926096687186909"><ele>156.0</ele><time>2026-04-30T15:35:42.999Z</time></trkpt><trkpt lat="50.26773521389686" lon="3.9262123244542813"><ele>156.0</ele><time>2026-04-30T15:35:43.999Z</time></trkpt><trkpt lat="50.26784307690352" lon="3.9263338267304495"><ele>156.0</ele><time>2026-04-30T15:35:44.999Z</time></trkpt><trkpt lat="50.26796065266093" lon="3.9264592367497357"><ele>156.0</ele><time>2026-04-30T15:35:45.999Z</time></trkpt><trkpt lat="50.268072641964956" lon="3.9265933530962913"><ele>156.0</ele><time>2026-04-30T15:35:46.999Z</time></trkpt><trkpt lat="50.2681780956136" lon="3.926722905408054"><ele>155.0</ele><time>2026-04-30T15:35:47.999Z</time></trkpt><trkpt lat="50.26828907227941" lon="3.9268509462405796"><ele>154.0</ele><time>2026-04-30T15:35:48.999Z</time></trkpt><trkpt lat="50.26840005286019" lon="3.9269766400085766"><ele>153.0</ele><time>2026-04-30T15:35:49.999Z</time></trkpt><trkpt lat="50.26851204600627" lon="3.9271047639028973"><ele>152.0</ele><time>2026-04-30T15:35:50.999Z</time></trkpt><trkpt lat="50.268624323852144" lon="3.9272311764503827"><ele>152.0</ele><time>2026-04-30T15:35:51.999Z</time></trkpt><trkpt lat="50.26873350413619" lon="3.927360837869403"><ele>152.0</ele><time>2026-04-30T15:35:52.999Z</time></trkpt><trkpt lat="50.268834516434396" lon="3.927488752439423"><ele>152.0</ele><time>2026-04-30T15:35:53.999Z</time></trkpt><trkpt lat="50.26892802329129" lon="3.927613913156212"><ele>152.0</ele><time>2026-04-30T15:35:54.999Z</time></trkpt><trkpt lat="50.2690147898992" lon="3.9277470816294486"><ele>150.25</ele><time>2026-04-30T15:35:55.999Z</time></trkpt><trkpt lat="50.26910106886284" lon="3.9279017930028934"><ele>148.5</ele><time>2026-04-30T15:35:56.999Z</time></trkpt><trkpt lat="50.269179005507404" lon="3.928071341218127"><ele>146.75</ele><time>2026-04-30T15:35:57.999Z</time></trkpt><trkpt lat="50.269244373953164" lon="3.928246485866771"><ele>145.0</ele><time>2026-04-30T15:35:58.999Z</time></trkpt><trkpt lat="50.26929688109943" lon="3.9284192472671458"><ele>144.33333333333334</ele><time>2026-04-30T15:35:59.999Z</time></trkpt><trkpt lat="50.269334134890194" lon="3.9285636881201222"><ele>143.66666666666669</ele><time>2026-04-30T15:36:00.999Z</time></trkpt><trkpt lat="50.269360931883185" lon="3.928667234487136"><ele>143.0</ele><time>2026-04-30T15:36:01.999Z</time></trkpt><trkpt lat="50.26940224148655" lon="3.928819232458426"><ele>142.33333333333334</ele><time>2026-04-30T15:36:03.999Z</time></trkpt><trkpt lat="50.26943366651689" lon="3.928913808622117"><ele>141.66666666666666</ele><time>2026-04-30T15:36:04.999Z</time></trkpt><trkpt lat="50.269481112188394" lon="3.9290325861717297"><ele>141.0</ele><time>2026-04-30T15:36:05.999Z</time></trkpt><trkpt lat="50.26954090720129" lon="3.929161549048811"><ele>140.8</ele><time>2026-04-30T15:36:06.999Z</time></trkpt><trkpt lat="50.269600995259175" lon="3.929295845452823"><ele>140.6</ele><time>2026-04-30T15:36:07.999Z</time></trkpt><trkpt lat="50.2696841064829" lon="3.9294025498193146"><ele>140.4</ele><time>2026-04-30T15:36:08.999Z</time></trkpt><trkpt lat="50.26976580199174" lon="3.929497519856082"><ele>140.2</ele><time>2026-04-30T15:36:09.999Z</time></trkpt><trkpt lat="50.26984735772009" lon="3.9295764339387618"><ele>140.0</ele><time>2026-04-30T15:36:10.999Z</time></trkpt><trkpt lat="50.26993810795983" lon="3.929660422776736"><ele>141.2</ele><time>2026-04-30T15:36:12.001Z</time></trkpt><trkpt lat="50.27004810952249" lon="3.92968702776526"><ele>142.4</ele><time>2026-04-30T15:36:13.001Z</time></trkpt><trkpt lat="50.27014916575738" lon="3.929629460495614"><ele>143.6</ele><time>2026-04-30T15:36:14.001Z</time></trkpt><trkpt lat="50.27021692883879" lon="3.929546152412521"><ele>144.8</ele><time>2026-04-30T15:36:15.001Z</time></trkpt><trkpt lat="50.27026319767614" lon="3.9294321476214837"><ele>146.0</ele><time>2026-04-30T15:36:16.001Z</time></trkpt><trkpt lat="50.2703794208386" lon="3.9293722770158492"><ele>146.0</ele><time>2026-04-30T15:36:17.001Z</time></trkpt><trkpt lat="50.270484712354985" lon="3.9292620988714253"><ele>146.0</ele><time>2026-04-30T15:36:18.001Z</time></trkpt><trkpt lat="50.27059706318313" lon="3.9290927479344964"><ele>146.0</ele><time>2026-04-30T15:36:19.001Z</time></trkpt><trkpt lat="50.27070851022216" lon="3.92887664089298"><ele>147.0</ele><time>2026-04-30T15:36:20.001Z</time></trkpt><trkpt lat="50.270799283423585" lon="3.9286381831534274"><ele>148.0</ele><time>2026-04-30T15:36:21.001Z</time></trkpt><trkpt lat="50.270874286399" lon="3.9283648883307793"><ele>149.0</ele><time>2026-04-30T15:36:22Z</time></trkpt><trkpt lat="50.2709315123544" lon="3.9280998834098546"><ele>149.25</ele><time>2026-04-30T15:36:23Z</time></trkpt><trkpt lat="50.270971011456275" lon="3.927873699248667"><ele>149.5</ele><time>2026-04-30T15:36:24Z</time></trkpt><trkpt lat="50.27100058520861" lon="3.927678152040418"><ele>149.75</ele><time>2026-04-30T15:36:25Z</time></trkpt><trkpt lat="50.271021361767495" lon="3.927511610579905"><ele>150.0</ele><time>2026-04-30T15:36:26Z</time></trkpt><trkpt lat="50.271036587590494" lon="3.9273683909492263"><ele>150.0</ele><time>2026-04-30T15:36:27Z</time></trkpt><trkpt lat="50.27107272814228" lon="3.927258778663263"><ele>150.0</ele><time>2026-04-30T15:36:28Z</time></trkpt><trkpt lat="50.271190957186185" lon="3.9271276938425026"><ele>150.0</ele><time>2026-04-30T15:36:30Z</time></trkpt><trkpt lat="50.27130109472356" lon="3.9272123105468033"><ele>150.0</ele><time>2026-04-30T15:36:31Z</time></trkpt><trkpt lat="50.27140365982162" lon="3.9272541659539937"><ele>150.25</ele><time>2026-04-30T15:36:32Z</time></trkpt><trkpt lat="50.27151366300027" lon="3.9274023309759336"><ele>150.5</ele><time>2026-04-30T15:36:33Z</time></trkpt><trkpt lat="50.271628760379876" lon="3.927519427632789"><ele>150.75</ele><time>2026-04-30T15:36:34Z</time></trkpt><trkpt lat="50.271749235434044" lon="3.9276387704308866"><ele>151.0</ele><time>2026-04-30T15:36:35Z</time></trkpt><trkpt lat="50.27187087343233" lon="3.9277601014227295"><ele>151.0</ele><time>2026-04-30T15:36:36Z</time></trkpt><trkpt lat="50.27198678586896" lon="3.9278978158997857"><ele>151.0</ele><time>2026-04-30T15:36:37Z</time></trkpt><trkpt lat="50.27208752625784" lon="3.9280372793693106"><ele>151.0</ele><time>2026-04-30T15:36:38Z</time></trkpt><trkpt lat="50.27217121993643" lon="3.928233784616829"><ele>151.0</ele><time>2026-04-30T15:36:39Z</time></trkpt><trkpt lat="50.272267704941626" lon="3.9283998014041455"><ele>150.0</ele><time>2026-04-30T15:36:40Z</time></trkpt><trkpt lat="50.27233375657991" lon="3.928568351356481"><ele>149.0</ele><time>2026-04-30T15:36:41Z</time></trkpt><trkpt lat="50.27242168688472" lon="3.9287130861024893"><ele>148.0</ele><time>2026-04-30T15:36:42Z</time></trkpt><trkpt lat="50.27250230506067" lon="3.9288336521238074"><ele>147.0</ele><time>2026-04-30T15:36:43Z</time></trkpt><trkpt lat="50.27258190137078" lon="3.9289383541284506"><ele>147.0</ele><time>2026-04-30T15:36:44Z</time></trkpt><trkpt lat="50.27267290517111" lon="3.929035019647987"><ele>147.0</ele><time>2026-04-30T15:36:45Z</time></trkpt><trkpt lat="50.272777997995384" lon="3.9291424295108874"><ele>147.0</ele><time>2026-04-30T15:36:46Z</time></trkpt><trkpt lat="50.27289409841225" lon="3.929252822110124"><ele>147.0</ele><time>2026-04-30T15:36:47Z</time></trkpt><trkpt lat="50.273012652131094" lon="3.9293729456886872"><ele>146.25</ele><time>2026-04-30T15:36:48Z</time></trkpt><trkpt lat="50.27313340630659" lon="3.9295035311065845"><ele>145.5</ele><time>2026-04-30T15:36:49Z</time></trkpt><trkpt lat="50.27325617494217" lon="3.92964031487725"><ele>144.75</ele><time>2026-04-30T15:36:50Z</time></trkpt><trkpt lat="50.273356852399544" lon="3.9298048700844426"><ele>144.0</ele><time>2026-04-30T15:36:51Z</time></trkpt><trkpt lat="50.27346108186418" lon="3.9299631171681058"><ele>143.75</ele><time>2026-04-30T15:36:52Z</time></trkpt><trkpt lat="50.27356867826141" lon="3.9301219429003043"><ele>143.5</ele><time>2026-04-30T15:36:53Z</time></trkpt><trkpt lat="50.27366598860596" lon="3.930282422042504"><ele>143.25</ele><time>2026-04-30T15:36:54Z</time></trkpt><trkpt lat="50.27374611804827" lon="3.930405609215838"><ele>143.0</ele><time>2026-04-30T15:36:55Z</time></trkpt><trkpt lat="50.27381751141324" lon="3.930525813643751"><ele>143.0</ele><time>2026-04-30T15:36:56Z</time></trkpt><trkpt lat="50.27390463051695" lon="3.93066137415825"><ele>143.0</ele><time>2026-04-30T15:36:57Z</time></trkpt><trkpt lat="50.27401125541553" lon="3.930803923819873"><ele>143.0</ele><time>2026-04-30T15:36:58Z</time></trkpt><trkpt lat="50.27413958655025" lon="3.930962102273049"><ele>143.0</ele><time>2026-04-30T15:36:59Z</time></trkpt><trkpt lat="50.27428230443621" lon="3.9311264267855326"><ele>142.0</ele><time>2026-04-30T15:37:00Z</time></trkpt><trkpt lat="50.27443805843049" lon="3.931296820507898"><ele>141.0</ele><time>2026-04-30T15:37:01Z</time></trkpt><trkpt lat="50.27457988055055" lon="3.9314502860749254"><ele>140.0</ele><time>2026-04-30T15:37:02Z</time></trkpt><trkpt lat="50.27470245399787" lon="3.931579784464264"><ele>139.5</ele><time>2026-04-30T15:37:03Z</time></trkpt><trkpt lat="50.27480823207699" lon="3.931695743858854"><ele>139.0</ele><time>2026-04-30T15:37:04Z</time></trkpt><trkpt lat="50.274891395805334" lon="3.931812141105595"><ele>138.5</ele><time>2026-04-30T15:37:05Z</time></trkpt><trkpt lat="50.274985859049686" lon="3.9318933790843578"><ele>138.0</ele><time>2026-04-30T15:37:06Z</time></trkpt><trkpt lat="50.2750646028258" lon="3.9320035260573976"><ele>137.75</ele><time>2026-04-30T15:37:07Z</time></trkpt><trkpt lat="50.27513835175662" lon="3.9320995974325452"><ele>137.5</ele><time>2026-04-30T15:37:08Z</time></trkpt><trkpt lat="50.2752234441064" lon="3.9322090871150954"><ele>137.25</ele><time>2026-04-30T15:37:09Z</time></trkpt><trkpt lat="50.27531840478901" lon="3.9323218861751625"><ele>137.0</ele><time>2026-04-30T15:37:10Z</time></trkpt><trkpt lat="50.27542302854767" lon="3.93246686546445"><ele>137.0</ele><time>2026-04-30T15:37:11Z</time></trkpt><trkpt lat="50.27553628525726" lon="3.932604424376439"><ele>137.0</ele><time>2026-04-30T15:37:12Z</time></trkpt><trkpt lat="50.27562675831155" lon="3.932735341697708"><ele>137.0</ele><time>2026-04-30T15:37:13Z</time></trkpt><trkpt lat="50.27568987765783" lon="3.9328725437610257"><ele>137.0</ele><time>2026-04-30T15:37:14Z</time></trkpt><trkpt lat="50.27572955835036" lon="3.9330035095413836"><ele>136.66666666666666</ele><time>2026-04-30T15:37:15Z</time></trkpt><trkpt lat="50.275753225604134" lon="3.933137269403265"><ele>136.33333333333331</ele><time>2026-04-30T15:37:16Z</time></trkpt><trkpt lat="50.275741313516185" lon="3.93323788823373"><ele>136.0</ele><time>2026-04-30T15:37:17Z</time></trkpt><trkpt lat="50.27572271560406" lon="3.9333814153830433"><ele>135.66666666666666</ele><time>2026-04-30T15:37:18Z</time></trkpt><trkpt lat="50.27572271560404" lon="3.9334928708417887"><ele>135.33333333333334</ele><time>2026-04-30T15:37:19Z</time></trkpt><trkpt lat="50.275835183577584" lon="3.9335884215476877"><ele>135.0</ele><time>2026-04-30T15:37:20Z</time></trkpt><trkpt lat="50.275925895100585" lon="3.933701537173196"><ele>135.0</ele><time>2026-04-30T15:37:21Z</time></trkpt><trkpt lat="50.27600852937671" lon="3.933874248797294"><ele>135.0</ele><time>2026-04-30T15:37:22Z</time></trkpt><trkpt lat="50.27609132311107" lon="3.9340842376024914"><ele>135.0</ele><time>2026-04-30T15:37:23Z</time></trkpt><trkpt lat="50.276165757790274" lon="3.9343146514764302"><ele>135.0</ele><time>2026-04-30T15:37:24Z</time></trkpt><trkpt lat="50.27622959202026" lon="3.9345273692192353"><ele>135.0</ele><time>2026-04-30T15:37:25Z</time></trkpt><trkpt lat="50.276310177939976" lon="3.934730122584386"><ele>135.0</ele><time>2026-04-30T15:37:26Z</time></trkpt><trkpt lat="50.27638984060015" lon="3.9349403031208965"><ele>134.25</ele><time>2026-04-30T15:37:27Z</time></trkpt><trkpt lat="50.27646885541068" lon="3.9351484669018175"><ele>133.5</ele><time>2026-04-30T15:37:28Z</time></trkpt><trkpt lat="50.27655378621681" lon="3.935340901980076"><ele>132.75</ele><time>2026-04-30T15:37:29Z</time></trkpt><trkpt lat="50.276622338938864" lon="3.935504164974458"><ele>132.0</ele><time>2026-04-30T15:37:30Z</time></trkpt><trkpt lat="50.27669148326214" lon="3.93564165372034"><ele>132.0</ele><time>2026-04-30T15:37:31Z</time></trkpt><trkpt lat="50.27677561491882" lon="3.935769851143846"><ele>132.0</ele><time>2026-04-30T15:37:32Z</time></trkpt><trkpt lat="50.276881585449644" lon="3.935898245657439"><ele>132.0</ele><time>2026-04-30T15:37:33Z</time></trkpt><trkpt lat="50.27700654225451" lon="3.9360231295176566"><ele>132.0</ele><time>2026-04-30T15:37:33.999Z</time></trkpt><trkpt lat="50.27714850106468" lon="3.9361397409689287"><ele>132.66666666666666</ele><time>2026-04-30T15:37:34.999Z</time></trkpt><trkpt lat="50.277304482542334" lon="3.9362470146051245"><ele>133.33333333333331</ele><time>2026-04-30T15:37:35.999Z</time></trkpt><trkpt lat="50.27746028189617" lon="3.9363344457205107"><ele>134.0</ele><time>2026-04-30T15:37:36.999Z</time></trkpt><trkpt lat="50.2775988184562" lon="3.936399449756258"><ele>134.0</ele><time>2026-04-30T15:37:37.999Z</time></trkpt><trkpt lat="50.2777044409894" lon="3.9364796164646485"><ele>134.0</ele><time>2026-04-30T15:37:38.999Z</time></trkpt><trkpt lat="50.277799381201476" lon="3.9365620108740864"><ele>134.0</ele><time>2026-04-30T15:37:39.999Z</time></trkpt><trkpt lat="50.27787381731389" lon="3.9366653792172643"><ele>134.0</ele><time>2026-04-30T15:37:40.999Z</time></trkpt><trkpt lat="50.27794858316899" lon="3.936735286798657"><ele>134.0</ele><time>2026-04-30T15:37:41.999Z</time></trkpt><trkpt lat="50.27800278359663" lon="3.936812430545707"><ele>134.4</ele><time>2026-04-30T15:37:42.999Z</time></trkpt><trkpt lat="50.2780602399407" lon="3.9368663750563595"><ele>134.8</ele><time>2026-04-30T15:37:43.999Z</time></trkpt><trkpt lat="50.27812688129849" lon="3.936900364497927"><ele>135.2</ele><time>2026-04-30T15:37:44.999Z</time></trkpt><trkpt lat="50.27822545608406" lon="3.936905570566906"><ele>135.6</ele><time>2026-04-30T15:37:45.999Z</time></trkpt><trkpt lat="50.27834954807968" lon="3.936885506960323"><ele>136.0</ele><time>2026-04-30T15:37:46.999Z</time></trkpt><trkpt lat="50.27849805144323" lon="3.9368524463830226"><ele>137.0</ele><time>2026-04-30T15:37:47.999Z</time></trkpt><trkpt lat="50.278651420705685" lon="3.9368239723131135"><ele>138.0</ele><time>2026-04-30T15:37:48.999Z</time></trkpt><trkpt lat="50.27878430447398" lon="3.9368078655193233"><ele>139.0</ele><time>2026-04-30T15:37:49.999Z</time></trkpt><trkpt lat="50.2788975785569" lon="3.9368093812559097"><ele>140.0</ele><time>2026-04-30T15:37:50.999Z</time></trkpt><trkpt lat="50.27900261133064" lon="3.9368455458466625"><ele>140.5</ele><time>2026-04-30T15:37:51.999Z</time></trkpt><trkpt lat="50.2791217422716" lon="3.9369244995912425"><ele>141.0</ele><time>2026-04-30T15:37:52.999Z</time></trkpt><trkpt lat="50.27924868603039" lon="3.9370192513131115"><ele>141.5</ele><time>2026-04-30T15:37:53.999Z</time></trkpt><trkpt lat="50.27938160804604" lon="3.937111215618382"><ele>142.0</ele><time>2026-04-30T15:37:54.999Z</time></trkpt><trkpt lat="50.27951907890021" lon="3.9372035314943155"><ele>142.0</ele><time>2026-04-30T15:37:55.999Z</time></trkpt><trkpt lat="50.27966591704258" lon="3.9372922714520717"><ele>142.0</ele><time>2026-04-30T15:37:56.999Z</time></trkpt><trkpt lat="50.27981948694969" lon="3.9373922446907152"><ele>142.0</ele><time>2026-04-30T15:37:57.999Z</time></trkpt><trkpt lat="50.27998368685595" lon="3.937469497074553"><ele>144.33333333333334</ele><time>2026-04-30T15:37:58.999Z</time></trkpt><trkpt lat="50.280139923736996" lon="3.9375599200375917"><ele>146.66666666666666</ele><time>2026-04-30T15:37:59.999Z</time></trkpt><trkpt lat="50.280269185916005" lon="3.9376490079484396"><ele>149.0</ele><time>2026-04-30T15:38:00.999Z</time></trkpt><trkpt lat="50.28040355762359" lon="3.937732385768533"><ele>149.0</ele><time>2026-04-30T15:38:01.999Z</time></trkpt><trkpt lat="50.28052895842789" lon="3.937811193432938"><ele>149.0</ele><time>2026-04-30T15:38:02.999Z</time></trkpt><trkpt lat="50.280647625214776" lon="3.937880381741692"><ele>149.0</ele><time>2026-04-30T15:38:03.999Z</time></trkpt><trkpt lat="50.28075374239554" lon="3.9379490037706386"><ele>149.0</ele><time>2026-04-30T15:38:04.999Z</time></trkpt><trkpt lat="50.28084818553195" lon="3.938008521260555"><ele>149.4</ele><time>2026-04-30T15:38:05.999Z</time></trkpt><trkpt lat="50.28094437889945" lon="3.938063685046023"><ele>149.8</ele><time>2026-04-30T15:38:06.999Z</time></trkpt><trkpt lat="50.28103446802698" lon="3.9381055374924325"><ele>150.2</ele><time>2026-04-30T15:38:07.999Z</time></trkpt><trkpt lat="50.28113661618146" lon="3.938123061999847"><ele>150.6</ele><time>2026-04-30T15:38:08.999Z</time></trkpt><trkpt lat="50.28124514585923" lon="3.938135941640218"><ele>151.0</ele><time>2026-04-30T15:38:09.999Z</time></trkpt><trkpt lat="50.28136356673796" lon="3.9381630702124175"><ele>151.0</ele><time>2026-04-30T15:38:10.999Z</time></trkpt><trkpt lat="50.281491507293794" lon="3.9382165521610664"><ele>151.0</ele><time>2026-04-30T15:38:11.999Z</time></trkpt><trkpt lat="50.28161929973207" lon="3.9382770570655325"><ele>151.0</ele><time>2026-04-30T15:38:12.999Z</time></trkpt><trkpt lat="50.281745023840365" lon="3.938323785662489"><ele>151.0</ele><time>2026-04-30T15:38:13.999Z</time></trkpt><trkpt lat="50.281868245767" lon="3.9383608909698933"><ele>150.75</ele><time>2026-04-30T15:38:14.999Z</time></trkpt><trkpt lat="50.281987030963585" lon="3.938386011655698"><ele>150.5</ele><time>2026-04-30T15:38:15.999Z</time></trkpt><trkpt lat="50.282099322367614" lon="3.938402861315974"><ele>150.25</ele><time>2026-04-30T15:38:17.001Z</time></trkpt><trkpt lat="50.282214995707655" lon="3.938418856326743"><ele>150.0</ele><time>2026-04-30T15:38:18.001Z</time></trkpt><trkpt lat="50.28233318046835" lon="3.9384464842617555"><ele>149.75</ele><time>2026-04-30T15:38:19.001Z</time></trkpt><trkpt lat="50.28245232832648" lon="3.938476043460987"><ele>149.5</ele><time>2026-04-30T15:38:20.001Z</time></trkpt><trkpt lat="50.28256788491646" lon="3.9385015870379823"><ele>149.25</ele><time>2026-04-30T15:38:21.001Z</time></trkpt><trkpt lat="50.28267835785729" lon="3.938527840743692"><ele>149.0</ele><time>2026-04-30T15:38:22.001Z</time></trkpt><trkpt lat="50.282785389795094" lon="3.938561838468635"><ele>149.0</ele><time>2026-04-30T15:38:23.001Z</time></trkpt><trkpt lat="50.28288604090056" lon="3.9386019450798395"><ele>149.0</ele><time>2026-04-30T15:38:24.001Z</time></trkpt><trkpt lat="50.28297758009064" lon="3.9386400843737115"><ele>149.0</ele><time>2026-04-30T15:38:25.001Z</time></trkpt><trkpt lat="50.28306777885816" lon="3.9386760449990312"><ele>149.0</ele><time>2026-04-30T15:38:26.001Z</time></trkpt><trkpt lat="50.28316432527693" lon="3.9387173924433716"><ele>149.0</ele><time>2026-04-30T15:38:27Z</time></trkpt><trkpt lat="50.283264692926195" lon="3.9387747351873363"><ele>148.6</ele><time>2026-04-30T15:38:28Z</time></trkpt><trkpt lat="50.283364766157725" lon="3.938832098447036"><ele>148.2</ele><time>2026-04-30T15:38:29Z</time></trkpt><trkpt lat="50.28346096829305" lon="3.938882973434573"><ele>147.79999999999998</ele><time>2026-04-30T15:38:30Z</time></trkpt><trkpt lat="50.28355971720835" lon="3.938930393876165"><ele>147.4</ele><time>2026-04-30T15:38:31Z</time></trkpt><trkpt lat="50.28365595542459" lon="3.9389815072120644"><ele>147.0</ele><time>2026-04-30T15:38:32Z</time></trkpt><trkpt lat="50.28375777432137" lon="3.9390387550970933"><ele>147.0</ele><time>2026-04-30T15:38:33Z</time></trkpt><trkpt lat="50.283863703630296" lon="3.939096972961966"><ele>147.0</ele><time>2026-04-30T15:38:34Z</time></trkpt><trkpt lat="50.28397000525488" lon="3.939158162260928"><ele>147.0</ele><time>2026-04-30T15:38:35Z</time></trkpt><trkpt lat="50.284072104541416" lon="3.9392152384272796"><ele>147.0</ele><time>2026-04-30T15:38:36Z</time></trkpt><trkpt lat="50.2841609490711" lon="3.939264701108959"><ele>147.0</ele><time>2026-04-30T15:38:37Z</time></trkpt><trkpt lat="50.28423845555296" lon="3.939302883760036"><ele>147.0</ele><time>2026-04-30T15:38:38Z</time></trkpt><trkpt lat="50.28431900328524" lon="3.93934915106426"><ele>147.0</ele><time>2026-04-30T15:38:39Z</time></trkpt><trkpt lat="50.2844064733262" lon="3.9394088200224093"><ele>147.0</ele><time>2026-04-30T15:38:40Z</time></trkpt><trkpt lat="50.28449779864316" lon="3.939453236808576"><ele>147.0</ele><time>2026-04-30T15:38:41Z</time></trkpt><trkpt lat="50.284589256392" lon="3.939486088709952"><ele>147.0</ele><time>2026-04-30T15:38:42Z</time></trkpt><trkpt lat="50.28467767668967" lon="3.9395233082972956"><ele>147.0</ele><time>2026-04-30T15:38:43Z</time></trkpt><trkpt lat="50.28476043300083" lon="3.9395526093569826"><ele>147.0</ele><time>2026-04-30T15:38:44Z</time></trkpt><trkpt lat="50.284831588395974" lon="3.9395728738270677"><ele>147.0</ele><time>2026-04-30T15:38:45Z</time></trkpt><trkpt lat="50.284962938722224" lon="3.9396181180839265"><ele>147.0</ele><time>2026-04-30T15:38:47Z</time></trkpt><trkpt lat="50.285046767739836" lon="3.9396425277552187"><ele>147.0</ele><time>2026-04-30T15:38:48Z</time></trkpt><trkpt lat="50.285116933142056" lon="3.9396628583569298"><ele>147.0</ele><time>2026-04-30T15:38:49Z</time></trkpt><trkpt lat="50.28522888540603" lon="3.9397067375528665"><ele>146.5</ele><time>2026-04-30T15:38:51Z</time></trkpt><trkpt lat="50.285343441115394" lon="3.939752445226864"><ele>146.0</ele><time>2026-04-30T15:38:53Z</time></trkpt><trkpt lat="50.28540924181179" lon="3.9397796252802464"><ele>145.5</ele><time>2026-04-30T15:38:55Z</time></trkpt><trkpt lat="50.28550047124534" lon="3.9398049455963173"><ele>145.0</ele><time>2026-04-30T15:39:10Z</time></trkpt><trkpt lat="50.2855987777796" lon="3.9398379220227038"><ele>144.5</ele><time>2026-04-30T15:39:12Z</time></trkpt><trkpt lat="50.28566214163961" lon="3.9398568328932626"><ele>144.0</ele><time>2026-04-30T15:39:13Z</time></trkpt><trkpt lat="50.285722239330696" lon="3.939888363825774"><ele>144.0</ele><time>2026-04-30T15:39:14Z</time></trkpt><trkpt lat="50.28582925368039" lon="3.9399273666808954"><ele>144.0</ele><time>2026-04-30T15:39:16Z</time></trkpt><trkpt lat="50.2859118917171" lon="3.940003123141225"><ele>144.0</ele><time>2026-04-30T15:39:18Z</time></trkpt><trkpt lat="50.28597448678058" lon="3.940057180565491"><ele>144.0</ele><time>2026-04-30T15:39:19Z</time></trkpt><trkpt lat="50.286047113100786" lon="3.9401299954197726"><ele>144.0</ele><time>2026-04-30T15:39:20Z</time></trkpt><trkpt lat="50.286129112678964" lon="3.940218946131576"><ele>144.2</ele><time>2026-04-30T15:39:21Z</time></trkpt><trkpt lat="50.28621070688593" lon="3.940304057661225"><ele>144.4</ele><time>2026-04-30T15:39:22Z</time></trkpt><trkpt lat="50.28629923659605" lon="3.940414047624916"><ele>144.6</ele><time>2026-04-30T15:39:23Z</time></trkpt><trkpt lat="50.28638908347742" lon="3.9405260891584883"><ele>144.8</ele><time>2026-04-30T15:39:24Z</time></trkpt><trkpt lat="50.28649077567649" lon="3.940635214698956"><ele>145.0</ele><time>2026-04-30T15:39:25Z</time></trkpt><trkpt lat="50.2865904595388" lon="3.940749021952751"><ele>144.5</ele><time>2026-04-30T15:39:26Z</time></trkpt><trkpt lat="50.286689300118134" lon="3.9408667464201823"><ele>144.0</ele><time>2026-04-30T15:39:27Z</time></trkpt><trkpt lat="50.28678536467006" lon="3.940984005178064"><ele>143.5</ele><time>2026-04-30T15:39:28Z</time></trkpt><trkpt lat="50.28688062661176" lon="3.9410954053868976"><ele>143.0</ele><time>2026-04-30T15:39:29Z</time></trkpt><trkpt lat="50.286976164734256" lon="3.9412070011517883"><ele>143.0</ele><time>2026-04-30T15:39:30Z</time></trkpt><trkpt lat="50.28707576199041" lon="3.94132389740613"><ele>143.0</ele><time>2026-04-30T15:39:31Z</time></trkpt><trkpt lat="50.28718036587057" lon="3.9414422241325755"><ele>143.0</ele><time>2026-04-30T15:39:32Z</time></trkpt><trkpt lat="50.28728006158581" lon="3.9415655973030477"><ele>143.0</ele><time>2026-04-30T15:39:33Z</time></trkpt><trkpt lat="50.28738276694903" lon="3.9416836019123553"><ele>142.5</ele><time>2026-04-30T15:39:34Z</time></trkpt><trkpt lat="50.28748468051151" lon="3.941803773488235"><ele>142.0</ele><time>2026-04-30T15:39:34.999Z</time></trkpt><trkpt lat="50.28758088225068" lon="3.941916606380007"><ele>141.5</ele><time>2026-04-30T15:39:35.999Z</time></trkpt><trkpt lat="50.287674761743226" lon="3.942028169505876"><ele>141.0</ele><time>2026-04-30T15:39:36.999Z</time></trkpt><trkpt lat="50.28777142318103" lon="3.942144431502372"><ele>141.0</ele><time>2026-04-30T15:39:37.999Z</time></trkpt><trkpt lat="50.28786837115729" lon="3.942261996019682"><ele>141.0</ele><time>2026-04-30T15:39:38.999Z</time></trkpt><trkpt lat="50.287962037026325" lon="3.942368729955174"><ele>141.0</ele><time>2026-04-30T15:39:39.999Z</time></trkpt><trkpt lat="50.28805187330505" lon="3.942474222567763"><ele>141.0</ele><time>2026-04-30T15:39:40.999Z</time></trkpt><trkpt lat="50.28813850174294" lon="3.942567067940978"><ele>141.66666666666666</ele><time>2026-04-30T15:39:41.999Z</time></trkpt><trkpt lat="50.28821348753669" lon="3.9426629941739906"><ele>142.33333333333334</ele><time>2026-04-30T15:39:42.999Z</time></trkpt><trkpt lat="50.288285615964746" lon="3.9427494490384847"><ele>143.0</ele><time>2026-04-30T15:39:43.999Z</time></trkpt><trkpt lat="50.28834231099064" lon="3.9428203798655073"><ele>143.66666666666669</ele><time>2026-04-30T15:39:44.999Z</time></trkpt><trkpt lat="50.28839612260903" lon="3.9428827049496977"><ele>144.33333333333334</ele><time>2026-04-30T15:39:45.999Z</time></trkpt><trkpt lat="50.288453818730346" lon="3.9429501061067054"><ele>145.0</ele><time>2026-04-30T15:39:46.999Z</time></trkpt><trkpt lat="50.28850886823378" lon="3.9430201236206237"><ele>145.0</ele><time>2026-04-30T15:39:47.999Z</time></trkpt><trkpt lat="50.28856348858472" lon="3.943087933582277"><ele>145.0</ele><time>2026-04-30T15:39:48.999Z</time></trkpt><trkpt lat="50.28862070428769" lon="3.9431566592932676"><ele>145.0</ele><time>2026-04-30T15:39:49.999Z</time></trkpt><trkpt lat="50.28867255082547" lon="3.9432157235623047"><ele>145.0</ele><time>2026-04-30T15:39:50.999Z</time></trkpt><trkpt lat="50.28876812302791" lon="3.943324670011166"><ele>145.0</ele><time>2026-04-30T15:39:52.999Z</time></trkpt><trkpt lat="50.288864293017475" lon="3.9434372122592505"><ele>145.0</ele><time>2026-04-30T15:39:54.999Z</time></trkpt><trkpt lat="50.2889163201652" lon="3.943500391552305"><ele>145.66666666666669</ele><time>2026-04-30T15:39:55.999Z</time></trkpt><trkpt lat="50.2889735467353" lon="3.943563671769371"><ele>146.33333333333334</ele><time>2026-04-30T15:39:56.999Z</time></trkpt><trkpt lat="50.28904143523926" lon="3.9436326050824753"><ele>147.0</ele><time>2026-04-30T15:39:57.999Z</time></trkpt><trkpt lat="50.28911681875848" lon="3.943720739183385"><ele>147.66666666666666</ele><time>2026-04-30T15:39:58.999Z</time></trkpt><trkpt lat="50.28919311082078" lon="3.943815989639304"><ele>148.33333333333331</ele><time>2026-04-30T15:39:59.999Z</time></trkpt><trkpt lat="50.28926695458639" lon="3.9439341647063118"><ele>149.0</ele><time>2026-04-30T15:40:00.999Z</time></trkpt><trkpt lat="50.289339696193636" lon="3.9440587496646526"><ele>149.0</ele><time>2026-04-30T15:40:01.999Z</time></trkpt><trkpt lat="50.28943113641577" lon="3.9440970453039634"><ele>149.0</ele><time>2026-04-30T15:40:02.999Z</time></trkpt><trkpt lat="50.289509597285296" lon="3.944190569660652"><ele>149.0</ele><time>2026-04-30T15:40:03.999Z</time></trkpt><trkpt lat="50.28959706585798" lon="3.944287255393327"><ele>149.0</ele><time>2026-04-30T15:40:04.999Z</time></trkpt><trkpt lat="50.28968735473075" lon="3.9443939536806183"><ele>149.0</ele><time>2026-04-30T15:40:05.999Z</time></trkpt><trkpt lat="50.289786318088595" lon="3.944505743369056"><ele>148.75</ele><time>2026-04-30T15:40:06.999Z</time></trkpt><trkpt lat="50.28988532678972" lon="3.9446314348975022"><ele>148.5</ele><time>2026-04-30T15:40:07.999Z</time></trkpt><trkpt lat="50.28998093088042" lon="3.9447451933248505"><ele>148.25</ele><time>2026-04-30T15:40:08.999Z</time></trkpt><trkpt lat="50.29007326208724" lon="3.9448513727926904"><ele>148.0</ele><time>2026-04-30T15:40:09.999Z</time></trkpt><trkpt lat="50.29016357632557" lon="3.9449563428176573"><ele>148.25</ele><time>2026-04-30T15:40:10.999Z</time></trkpt><trkpt lat="50.29025532879926" lon="3.945065119435044"><ele>148.5</ele><time>2026-04-30T15:40:11.999Z</time></trkpt><trkpt lat="50.29035256215552" lon="3.9451714946584406"><ele>148.75</ele><time>2026-04-30T15:40:12.999Z</time></trkpt><trkpt lat="50.29045634637084" lon="3.945292766698933"><ele>149.0</ele><time>2026-04-30T15:40:13.999Z</time></trkpt><trkpt lat="50.29056420575625" lon="3.945419261475672"><ele>148.4</ele><time>2026-04-30T15:40:14.999Z</time></trkpt><trkpt lat="50.290660934101574" lon="3.9455341028302167"><ele>147.8</ele><time>2026-04-30T15:40:15.999Z</time></trkpt><trkpt lat="50.29074995593927" lon="3.945638028847538"><ele>147.2</ele><time>2026-04-30T15:40:16.999Z</time></trkpt><trkpt lat="50.290831176418315" lon="3.945734303130388"><ele>146.6</ele><time>2026-04-30T15:40:17.999Z</time></trkpt><trkpt lat="50.290917237482475" lon="3.945840408572493"><ele>146.0</ele><time>2026-04-30T15:40:18.999Z</time></trkpt><trkpt lat="50.291005550513304" lon="3.9459423124698136"><ele>146.0</ele><time>2026-04-30T15:40:19.999Z</time></trkpt><trkpt lat="50.29109456263343" lon="3.9460513859347985"><ele>146.0</ele><time>2026-04-30T15:40:20.999Z</time></trkpt><trkpt lat="50.29119019342173" lon="3.9461648446034725"><ele>146.0</ele><time>2026-04-30T15:40:21.999Z</time></trkpt><trkpt lat="50.29129019709208" lon="3.9462857250445014"><ele>146.0</ele><time>2026-04-30T15:40:23.001Z</time></trkpt><trkpt lat="50.29139193224062" lon="3.946403080473202"><ele>146.25</ele><time>2026-04-30T15:40:24.001Z</time></trkpt><trkpt lat="50.29149594807416" lon="3.9465168080673236"><ele>146.5</ele><time>2026-04-30T15:40:25.001Z</time></trkpt><trkpt lat="50.29159189187471" lon="3.9466338602604782"><ele>146.75</ele><time>2026-04-30T15:40:26.001Z</time></trkpt><trkpt lat="50.29168870324517" lon="3.9467463676241645"><ele>147.0</ele><time>2026-04-30T15:40:27.001Z</time></trkpt><trkpt lat="50.2917895710318" lon="3.9468637295358846"><ele>146.5</ele><time>2026-04-30T15:40:28.001Z</time></trkpt><trkpt lat="50.29188839325643" lon="3.9469818222033255"><ele>146.0</ele><time>2026-04-30T15:40:29.001Z</time></trkpt><trkpt lat="50.29198579449632" lon="3.9470999701596847"><ele>145.5</ele><time>2026-04-30T15:40:30.001Z</time></trkpt><trkpt lat="50.29207799181804" lon="3.9472108169945095"><ele>145.0</ele><time>2026-04-30T15:40:31.001Z</time></trkpt><trkpt lat="50.29216362460134" lon="3.9473111580828886"><ele>145.0</ele><time>2026-04-30T15:40:32.001Z</time></trkpt><trkpt lat="50.29224308192217" lon="3.947408522829632"><ele>145.0</ele><time>2026-04-30T15:40:33.001Z</time></trkpt><trkpt lat="50.292325879516675" lon="3.94749914391185"><ele>145.0</ele><time>2026-04-30T15:40:34.001Z</time></trkpt><trkpt lat="50.29240777295895" lon="3.947597298764941"><ele>145.0</ele><time>2026-04-30T15:40:35.001Z</time></trkpt><trkpt lat="50.292488255477856" lon="3.9476979863129418"><ele>145.0</ele><time>2026-04-30T15:40:36.001Z</time></trkpt><trkpt lat="50.292571535489344" lon="3.9477928537133957"><ele>144.8</ele><time>2026-04-30T15:40:37.001Z</time></trkpt><trkpt lat="50.2926560557992" lon="3.9478839262382373"><ele>144.6</ele><time>2026-04-30T15:40:38.001Z</time></trkpt><trkpt lat="50.292742052061755" lon="3.947972797529375"><ele>144.4</ele><time>2026-04-30T15:40:39Z</time></trkpt><trkpt lat="50.29283029294868" lon="3.9480629217043424"><ele>144.2</ele><time>2026-04-30T15:40:40Z</time></trkpt><trkpt lat="50.29292087394735" lon="3.948151120465854"><ele>144.0</ele><time>2026-04-30T15:40:41Z</time></trkpt><trkpt lat="50.2930172732211" lon="3.9482321412628694"><ele>144.2</ele><time>2026-04-30T15:40:42Z</time></trkpt><trkpt lat="50.29311988874054" lon="3.9483140059341646"><ele>144.4</ele><time>2026-04-30T15:40:43Z</time></trkpt><trkpt lat="50.29321991736682" lon="3.94840672805131"><ele>144.6</ele><time>2026-04-30T15:40:44Z</time></trkpt><trkpt lat="50.293320196534935" lon="3.9485053775779897"><ele>144.8</ele><time>2026-04-30T15:40:45Z</time></trkpt><trkpt lat="50.293410785074514" lon="3.9485593717583143"><ele>145.0</ele><time>2026-04-30T15:40:46Z</time></trkpt><trkpt lat="50.29347740267706" lon="3.9486171716938303"><ele>145.0</ele><time>2026-04-30T15:40:47Z</time></trkpt><trkpt lat="50.293538876931045" lon="3.9486672017565283"><ele>145.0</ele><time>2026-04-30T15:40:48Z</time></trkpt><trkpt lat="50.293600706965826" lon="3.948715276108012"><ele>145.0</ele><time>2026-04-30T15:40:49Z</time></trkpt><trkpt lat="50.29365583415284" lon="3.9487634844338664"><ele>145.0</ele><time>2026-04-30T15:40:50Z</time></trkpt><trkpt lat="50.29374245914177" lon="3.9488301261645558"><ele>145.0</ele><time>2026-04-30T15:40:52Z</time></trkpt><trkpt lat="50.29380254524507" lon="3.9488936171071383"><ele>145.0</ele><time>2026-04-30T15:40:54Z</time></trkpt><trkpt lat="50.293875041409386" lon="3.9489671888544713"><ele>146.0</ele><time>2026-04-30T15:41:05Z</time></trkpt><trkpt lat="50.293940490545225" lon="3.949037294128208"><ele>147.0</ele><time>2026-04-30T15:41:07Z</time></trkpt><trkpt lat="50.29403453720552" lon="3.949173759875033"><ele>148.0</ele><time>2026-04-30T15:41:09Z</time></trkpt><trkpt lat="50.29408734396213" lon="3.949262620656494"><ele>149.0</ele><time>2026-04-30T15:41:10Z</time></trkpt><trkpt lat="50.2941418459382" lon="3.9493794249641994"><ele>150.0</ele><time>2026-04-30T15:41:11Z</time></trkpt><trkpt lat="50.294192703256996" lon="3.9495140996745066"><ele>150.0</ele><time>2026-04-30T15:41:12Z</time></trkpt><trkpt lat="50.2942431674875" lon="3.9496554613998387"><ele>150.0</ele><time>2026-04-30T15:41:13Z</time></trkpt><trkpt lat="50.29428982490494" lon="3.9497932666037254"><ele>150.0</ele><time>2026-04-30T15:41:14Z</time></trkpt><trkpt lat="50.294344690529115" lon="3.949921533099032"><ele>150.0</ele><time>2026-04-30T15:41:15Z</time></trkpt><trkpt lat="50.29439397777572" lon="3.950051385743154"><ele>150.0</ele><time>2026-04-30T15:41:16Z</time></trkpt><trkpt lat="50.294441091737866" lon="3.9501859334511105"><ele>150.0</ele><time>2026-04-30T15:41:17Z</time></trkpt><trkpt lat="50.29447716124233" lon="3.9503235073994256"><ele>150.0</ele><time>2026-04-30T15:41:18Z</time></trkpt><trkpt lat="50.29453427985189" lon="3.9504231129384015"><ele>150.0</ele><time>2026-04-30T15:41:19Z</time></trkpt><trkpt lat="50.29456735236989" lon="3.9505203424503867"><ele>150.0</ele><time>2026-04-30T15:41:20Z</time></trkpt><trkpt lat="50.29459632863659" lon="3.9506266047500183"><ele>150.0</ele><time>2026-04-30T15:41:21Z</time></trkpt><trkpt lat="50.2946532814168" lon="3.95072463126491"><ele>150.0</ele><time>2026-04-30T15:41:23Z</time></trkpt><trkpt lat="50.294701395649774" lon="3.950792224072463"><ele>150.25</ele><time>2026-04-30T15:41:49.999Z</time></trkpt><trkpt lat="50.294764226834765" lon="3.9508569888396368"><ele>150.5</ele><time>2026-04-30T15:42:02.999Z</time></trkpt><trkpt lat="50.2948725870898" lon="3.950594850999959"><ele>150.75</ele><time>2026-04-30T15:42:03.999Z</time></trkpt><trkpt lat="50.29492837300149" lon="3.9503894943551954"><ele>151.0</ele><time>2026-04-30T15:42:04.999Z</time></trkpt><trkpt lat="50.29499764056106" lon="3.9501510009147043"><ele>151.66666666666669</ele><time>2026-04-30T15:42:05.999Z</time></trkpt><trkpt lat="50.2950729358977" lon="3.9498882251125536"><ele>152.33333333333334</ele><time>2026-04-30T15:42:06.999Z</time></trkpt><trkpt lat="50.295135896445" lon="3.9496551660061407"><ele>153.0</ele><time>2026-04-30T15:42:07.999Z</time></trkpt><trkpt lat="50.29518706265867" lon="3.9494528810196017"><ele>153.0</ele><time>2026-04-30T15:42:08.999Z</time></trkpt><trkpt lat="50.29523595858758" lon="3.949250403469328"><ele>153.0</ele><time>2026-04-30T15:42:09.999Z</time></trkpt><trkpt lat="50.29528092515415" lon="3.9490438473875593"><ele>153.0</ele><time>2026-04-30T15:42:10.999Z</time></trkpt><trkpt lat="50.29532293837485" lon="3.9488468122642186"><ele>153.0</ele><time>2026-04-30T15:42:11.999Z</time></trkpt><trkpt lat="50.29536199047996" lon="3.9486621838669227"><ele>153.0</ele><time>2026-04-30T15:42:12.999Z</time></trkpt><trkpt lat="50.29539426218483" lon="3.948489523629795"><ele>153.0</ele><time>2026-04-30T15:42:13.999Z</time></trkpt><trkpt lat="50.29542379215888" lon="3.948320970648105"><ele>153.0</ele><time>2026-04-30T15:42:14.999Z</time></trkpt><trkpt lat="50.29544987424512" lon="3.9481597714084677"><ele>153.0</ele><time>2026-04-30T15:42:15.999Z</time></trkpt><trkpt lat="50.295474337166986" lon="3.9479885076881023"><ele>153.0</ele><time>2026-04-30T15:42:16.999Z</time></trkpt><trkpt lat="50.29550535692618" lon="3.9478003334361853"><ele>152.75</ele><time>2026-04-30T15:42:17.999Z</time></trkpt><trkpt lat="50.29553087719727" lon="3.9476285470243164"><ele>152.5</ele><time>2026-04-30T15:42:18.999Z</time></trkpt><trkpt lat="50.295558322324254" lon="3.94745993527621"><ele>152.25</ele><time>2026-04-30T15:42:19.999Z</time></trkpt><trkpt lat="50.29558783457837" lon="3.947276979455036"><ele>152.0</ele><time>2026-04-30T15:42:20.999Z</time></trkpt><trkpt lat="50.29561816934664" lon="3.9470814033677635"><ele>151.5</ele><time>2026-04-30T15:42:21.999Z</time></trkpt><trkpt lat="50.295650613820946" lon="3.9468794849148594"><ele>151.0</ele><time>2026-04-30T15:42:22.999Z</time></trkpt><trkpt lat="50.295689355572144" lon="3.94668295820658"><ele>150.5</ele><time>2026-04-30T15:42:23.999Z</time></trkpt><trkpt lat="50.29572852960907" lon="3.946492538588709"><ele>150.0</ele><time>2026-04-30T15:42:24.999Z</time></trkpt><trkpt lat="50.2957653031339" lon="3.946309237534999"><ele>149.75</ele><time>2026-04-30T15:42:25.999Z</time></trkpt><trkpt lat="50.29579414507242" lon="3.9461191569715157"><ele>149.5</ele><time>2026-04-30T15:42:26.999Z</time></trkpt><trkpt lat="50.29581832721095" lon="3.9459227163309154"><ele>149.25</ele><time>2026-04-30T15:42:27.999Z</time></trkpt><trkpt lat="50.29583933626233" lon="3.9457314908880767"><ele>149.0</ele><time>2026-04-30T15:42:29Z</time></trkpt><trkpt lat="50.295862069501496" lon="3.9455428325614106"><ele>149.0</ele><time>2026-04-30T15:42:30Z</time></trkpt><trkpt lat="50.295893731142314" lon="3.9453572744652488"><ele>149.0</ele><time>2026-04-30T15:42:31Z</time></trkpt><trkpt lat="50.295929350845476" lon="3.9451637442626164"><ele>149.0</ele><time>2026-04-30T15:42:32Z</time></trkpt><trkpt lat="50.295963768687564" lon="3.944964467861545"><ele>149.0</ele><time>2026-04-30T15:42:33Z</time></trkpt><trkpt lat="50.29599253730421" lon="3.9447652744560857"><ele>149.0</ele><time>2026-04-30T15:42:34Z</time></trkpt><trkpt lat="50.296020379190864" lon="3.9445757396658925"><ele>149.0</ele><time>2026-04-30T15:42:35Z</time></trkpt><trkpt lat="50.29605043031491" lon="3.944386533190689"><ele>149.0</ele><time>2026-04-30T15:42:36Z</time></trkpt><trkpt lat="50.29608138490009" lon="3.944196333287184"><ele>149.0</ele><time>2026-04-30T15:42:37Z</time></trkpt><trkpt lat="50.29611510775465" lon="3.9440058905330857"><ele>149.0</ele><time>2026-04-30T15:42:38Z</time></trkpt><trkpt lat="50.296145230683976" lon="3.9438180486579832"><ele>149.0</ele><time>2026-04-30T15:42:39Z</time></trkpt><trkpt lat="50.29617726262851" lon="3.9436321414608266"><ele>149.0</ele><time>2026-04-30T15:42:40Z</time></trkpt><trkpt lat="50.2962074861449" lon="3.9434528584268715"><ele>149.0</ele><time>2026-04-30T15:42:41Z</time></trkpt><trkpt lat="50.29623794838426" lon="3.943277609697153"><ele>149.0</ele><time>2026-04-30T15:42:42Z</time></trkpt><trkpt lat="50.29626695120106" lon="3.9431108560761103"><ele>149.0</ele><time>2026-04-30T15:42:43Z</time></trkpt><trkpt lat="50.29629664713252" lon="3.942945400269302"><ele>149.0</ele><time>2026-04-30T15:42:44Z</time></trkpt><trkpt lat="50.2963304376748" lon="3.9427889964967213"><ele>149.0</ele><time>2026-04-30T15:42:45Z</time></trkpt><trkpt lat="50.296373100349754" lon="3.9426358096445546"><ele>149.0</ele><time>2026-04-30T15:42:46Z</time></trkpt><trkpt lat="50.29642124359239" lon="3.942485537461158"><ele>149.2</ele><time>2026-04-30T15:42:47Z</time></trkpt><trkpt lat="50.29639071865331" lon="3.942285963895317"><ele>149.4</ele><time>2026-04-30T15:42:48Z</time></trkpt><trkpt lat="50.29641722479816" lon="3.942137435714907"><ele>149.6</ele><time>2026-04-30T15:42:49Z</time></trkpt><trkpt lat="50.29644075061487" lon="3.9419910816106256"><ele>149.8</ele><time>2026-04-30T15:42:50Z</time></trkpt><trkpt lat="50.296478782585886" lon="3.941840509355625"><ele>150.0</ele><time>2026-04-30T15:42:51Z</time></trkpt><trkpt lat="50.296497926075" lon="3.9417234386203956"><ele>150.0</ele><time>2026-04-30T15:42:52Z</time></trkpt><trkpt lat="50.296518163535" lon="3.9416106020456874"><ele>150.0</ele><time>2026-04-30T15:42:53Z</time></trkpt><trkpt lat="50.29655627466203" lon="3.9414985557763953"><ele>150.0</ele><time>2026-04-30T15:42:54Z</time></trkpt><trkpt lat="50.29658634987659" lon="3.941384390395931"><ele>150.0</ele><time>2026-04-30T15:42:55Z</time></trkpt><trkpt lat="50.296602921233216" lon="3.9412839400525823"><ele>150.0</ele><time>2026-04-30T15:42:56Z</time></trkpt><trkpt lat="50.296777822053485" lon="3.941421687394123"><ele>150.0</ele><time>2026-04-30T15:42:57Z</time></trkpt><trkpt lat="50.29687806121708" lon="3.9414934762396463"><ele>150.0</ele><time>2026-04-30T15:42:58Z</time></trkpt><trkpt lat="50.296996594021145" lon="3.9415541196364963"><ele>150.0</ele><time>2026-04-30T15:42:59Z</time></trkpt><trkpt lat="50.29712067406161" lon="3.9416544919179497"><ele>150.0</ele><time>2026-04-30T15:43:00Z</time></trkpt><trkpt lat="50.297264377193876" lon="3.941754023474323"><ele>150.66666666666666</ele><time>2026-04-30T15:43:00.999Z</time></trkpt><trkpt lat="50.297404811012406" lon="3.9418530663548794"><ele>151.33333333333331</ele><time>2026-04-30T15:43:01.999Z</time></trkpt><trkpt lat="50.29756705318996" lon="3.9419674335470867"><ele>152.0</ele><time>2026-04-30T15:43:02.999Z</time></trkpt><trkpt lat="50.2977241066066" lon="3.942078589329037"><ele>152.0</ele><time>2026-04-30T15:43:03.999Z</time></trkpt><trkpt lat="50.297878865785925" lon="3.9421838987011433"><ele>152.0</ele><time>2026-04-30T15:43:04.999Z</time></trkpt><trkpt lat="50.29802758354331" lon="3.9422768495275213"><ele>152.0</ele><time>2026-04-30T15:43:05.999Z</time></trkpt><trkpt lat="50.298158809652946" lon="3.9423623207583307"><ele>152.5</ele><time>2026-04-30T15:43:06.999Z</time></trkpt><trkpt lat="50.29827933006583" lon="3.942438123755627"><ele>153.0</ele><time>2026-04-30T15:43:07.999Z</time></trkpt><trkpt lat="50.29840348546945" lon="3.9425253760395895"><ele>153.5</ele><time>2026-04-30T15:43:08.999Z</time></trkpt><trkpt lat="50.29850750929345" lon="3.9426524225109527"><ele>154.0</ele><time>2026-04-30T15:43:09.999Z</time></trkpt><trkpt lat="50.2985986724424" lon="3.9427951527870544"><ele>154.0</ele><time>2026-04-30T15:43:10.999Z</time></trkpt><trkpt lat="50.298674757994725" lon="3.942951728162779"><ele>154.0</ele><time>2026-04-30T15:43:11.999Z</time></trkpt><trkpt lat="50.29876428070301" lon="3.9430893954110444"><ele>154.0</ele><time>2026-04-30T15:43:12.999Z</time></trkpt><trkpt lat="50.2988294914269" lon="3.943267600724992"><ele>154.0</ele><time>2026-04-30T15:43:13.999Z</time></trkpt><trkpt lat="50.29890354223217" lon="3.943441068068525"><ele>154.0</ele><time>2026-04-30T15:43:14.999Z</time></trkpt><trkpt lat="50.29899330379651" lon="3.943611652323457"><ele>154.0</ele><time>2026-04-30T15:43:15.999Z</time></trkpt><trkpt lat="50.299102505608836" lon="3.943776454820531"><ele>154.0</ele><time>2026-04-30T15:43:16.999Z</time></trkpt><trkpt lat="50.29922333778563" lon="3.943922096173876"><ele>154.0</ele><time>2026-04-30T15:43:17.999Z</time></trkpt><trkpt lat="50.29937353332541" lon="3.9441127000333873"><ele>153.0</ele><time>2026-04-30T15:43:18.999Z</time></trkpt><trkpt lat="50.29955321288108" lon="3.944314871251816"><ele>152.0</ele><time>2026-04-30T15:43:19.999Z</time></trkpt><trkpt lat="50.29974067646864" lon="3.9445190581004983"><ele>151.66666666666666</ele><time>2026-04-30T15:43:20.999Z</time></trkpt><trkpt lat="50.29991878804998" lon="3.9447109821268773"><ele>151.33333333333334</ele><time>2026-04-30T15:43:21.999Z</time></trkpt><trkpt lat="50.30008817505448" lon="3.9448705510610713"><ele>151.0</ele><time>2026-04-30T15:43:22.999Z</time></trkpt><trkpt lat="50.300240672445874" lon="3.945032243552919"><ele>151.0</ele><time>2026-04-30T15:43:23.999Z</time></trkpt><trkpt lat="50.300386227659025" lon="3.945185137218512"><ele>151.0</ele><time>2026-04-30T15:43:24.999Z</time></trkpt><trkpt lat="50.30052482451429" lon="3.945331304870682"><ele>151.0</ele><time>2026-04-30T15:43:25.999Z</time></trkpt><trkpt lat="50.30066108869653" lon="3.9454752106646884"><ele>151.0</ele><time>2026-04-30T15:43:26.999Z</time></trkpt><trkpt lat="50.30079921757093" lon="3.945620216042602"><ele>151.0</ele><time>2026-04-30T15:43:27.999Z</time></trkpt><trkpt lat="50.30093770560068" lon="3.94576571791825"><ele>151.0</ele><time>2026-04-30T15:43:28.999Z</time></trkpt><trkpt lat="50.3010706238002" lon="3.9459079359722224"><ele>151.0</ele><time>2026-04-30T15:43:29.999Z</time></trkpt><trkpt lat="50.301194434453244" lon="3.946037928720994"><ele>151.0</ele><time>2026-04-30T15:43:30.999Z</time></trkpt><trkpt lat="50.301314933795545" lon="3.9461622890080967"><ele>151.0</ele><time>2026-04-30T15:43:31.999Z</time></trkpt><trkpt lat="50.30143818877967" lon="3.9462933835962137"><ele>151.0</ele><time>2026-04-30T15:43:32.999Z</time></trkpt><trkpt lat="50.301561673003384" lon="3.9464254856098373"><ele>151.0</ele><time>2026-04-30T15:43:33.999Z</time></trkpt><trkpt lat="50.301681753349335" lon="3.9465500529934934"><ele>151.0</ele><time>2026-04-30T15:43:34.999Z</time></trkpt><trkpt lat="50.301804155744826" lon="3.9466781858286395"><ele>151.0</ele><time>2026-04-30T15:43:35.999Z</time></trkpt><trkpt lat="50.301930914558255" lon="3.946809715569787"><ele>151.0</ele><time>2026-04-30T15:43:36.999Z</time></trkpt><trkpt lat="50.302057329795716" lon="3.9469673442735447"><ele>151.0</ele><time>2026-04-30T15:43:37.999Z</time></trkpt><trkpt lat="50.3022041776786" lon="3.9471303470821835"><ele>151.0</ele><time>2026-04-30T15:43:38.999Z</time></trkpt><trkpt lat="50.30233719586923" lon="3.947292196749862"><ele>151.0</ele><time>2026-04-30T15:43:39.999Z</time></trkpt><trkpt lat="50.3024408876801" lon="3.9474299975957408"><ele>150.25</ele><time>2026-04-30T15:43:40.999Z</time></trkpt><trkpt lat="50.302539324802005" lon="3.9475731559651988"><ele>149.5</ele><time>2026-04-30T15:43:41.999Z</time></trkpt><trkpt lat="50.30265604480689" lon="3.9477150989119623"><ele>148.75</ele><time>2026-04-30T15:43:42.999Z</time></trkpt><trkpt lat="50.30276273145757" lon="3.947878284847877"><ele>148.0</ele><time>2026-04-30T15:43:43.999Z</time></trkpt><trkpt lat="50.30287011766816" lon="3.94804050722301"><ele>148.0</ele><time>2026-04-30T15:43:44.998Z</time></trkpt><trkpt lat="50.30296814189828" lon="3.9482278677810125"><ele>148.0</ele><time>2026-04-30T15:43:45.998Z</time></trkpt><trkpt lat="50.30308786803336" lon="3.948417839004997"><ele>148.0</ele><time>2026-04-30T15:43:46.998Z</time></trkpt><trkpt lat="50.3032315326904" lon="3.948646293681321"><ele>148.5</ele><time>2026-04-30T15:43:47.998Z</time></trkpt><trkpt lat="50.303396544601334" lon="3.94890707580905"><ele>149.0</ele><time>2026-04-30T15:43:48.998Z</time></trkpt><trkpt lat="50.303572784494136" lon="3.9491863878955953"><ele>149.5</ele><time>2026-04-30T15:43:49.998Z</time></trkpt><trkpt lat="50.3037598961849" lon="3.9494829299018814"><ele>150.0</ele><time>2026-04-30T15:43:50.998Z</time></trkpt><trkpt lat="50.30395629994082" lon="3.9497941982065683"><ele>149.0</ele><time>2026-04-30T15:43:51.998Z</time></trkpt><trkpt lat="50.30417046834616" lon="3.950096756333491"><ele>148.0</ele><time>2026-04-30T15:43:52.998Z</time></trkpt><trkpt lat="50.30438127298183" lon="3.9504273240529817"><ele>148.0</ele><time>2026-04-30T15:43:53.998Z</time></trkpt><trkpt lat="50.30458290376453" lon="3.9507758250272342"><ele>148.0</ele><time>2026-04-30T15:43:54.998Z</time></trkpt><trkpt lat="50.30478601160447" lon="3.951092668098764"><ele>148.0</ele><time>2026-04-30T15:43:55.998Z</time></trkpt><trkpt lat="50.30498499163368" lon="3.951407655279093"><ele>148.0</ele><time>2026-04-30T15:43:56.998Z</time></trkpt><trkpt lat="50.30518438096892" lon="3.9517170344458323"><ele>147.0</ele><time>2026-04-30T15:43:57.998Z</time></trkpt><trkpt lat="50.30539018635155" lon="3.9520017975898853"><ele>146.0</ele><time>2026-04-30T15:43:58.998Z</time></trkpt><trkpt lat="50.30557177146677" lon="3.952324041627679"><ele>146.5</ele><time>2026-04-30T15:43:59.998Z</time></trkpt><trkpt lat="50.305765749582584" lon="3.95262937266105"><ele>147.0</ele><time>2026-04-30T15:44:00.998Z</time></trkpt><trkpt lat="50.30596143819056" lon="3.952937396166243"><ele>147.0</ele><time>2026-04-30T15:44:01.998Z</time></trkpt><trkpt lat="50.30616617378108" lon="3.9532283799256303"><ele>147.0</ele><time>2026-04-30T15:44:02.998Z</time></trkpt><trkpt lat="50.306364154350426" lon="3.953540843991117"><ele>148.0</ele><time>2026-04-30T15:44:03.998Z</time></trkpt><trkpt lat="50.306561567953096" lon="3.953853511753812"><ele>149.0</ele><time>2026-04-30T15:44:04.998Z</time></trkpt><trkpt lat="50.306762354195314" lon="3.9541631109123725"><ele>148.0</ele><time>2026-04-30T15:44:05.998Z</time></trkpt><trkpt lat="50.30696045368812" lon="3.954471485153482"><ele>147.0</ele><time>2026-04-30T15:44:06.998Z</time></trkpt><trkpt lat="50.307143168458815" lon="3.954761940242733"><ele>147.5</ele><time>2026-04-30T15:44:07.998Z</time></trkpt><trkpt lat="50.30731569635808" lon="3.9550320140331547"><ele>148.0</ele><time>2026-04-30T15:44:08.998Z</time></trkpt><trkpt lat="50.30747842805595" lon="3.955291854272737"><ele>148.0</ele><time>2026-04-30T15:44:09.998Z</time></trkpt><trkpt lat="50.30764516596334" lon="3.955556053575523"><ele>148.0</ele><time>2026-04-30T15:44:10.998Z</time></trkpt><trkpt lat="50.307818567736184" lon="3.955833457390804"><ele>148.0</ele><time>2026-04-30T15:44:11.998Z</time></trkpt><trkpt lat="50.307993425825416" lon="3.956119244890715"><ele>148.0</ele><time>2026-04-30T15:44:12.998Z</time></trkpt><trkpt lat="50.30816330883669" lon="3.956407823638829"><ele>148.0</ele><time>2026-04-30T15:44:13.998Z</time></trkpt><trkpt lat="50.308314673728866" lon="3.9566687483433602"><ele>148.0</ele><time>2026-04-30T15:44:14.998Z</time></trkpt><trkpt lat="50.3084351296144" lon="3.956927312777529"><ele>148.0</ele><time>2026-04-30T15:44:15.998Z</time></trkpt><trkpt lat="50.308548313506144" lon="3.9571694603118996"><ele>147.66666666666669</ele><time>2026-04-30T15:44:16.998Z</time></trkpt><trkpt lat="50.308636914197606" lon="3.957416784465063"><ele>147.33333333333334</ele><time>2026-04-30T15:44:17.998Z</time></trkpt><trkpt lat="50.308718873268646" lon="3.9576870928181065"><ele>147.0</ele><time>2026-04-30T15:44:18.998Z</time></trkpt><trkpt lat="50.30879871412835" lon="3.957978578233352"><ele>147.0</ele><time>2026-04-30T15:44:19.998Z</time></trkpt><trkpt lat="50.30889136600228" lon="3.958270477344698"><ele>147.0</ele><time>2026-04-30T15:44:20.998Z</time></trkpt><trkpt lat="50.30894500001294" lon="3.9585521028018458"><ele>147.0</ele><time>2026-04-30T15:44:21.998Z</time></trkpt><trkpt lat="50.30899533262895" lon="3.9587771246404"><ele>146.75</ele><time>2026-04-30T15:44:22.998Z</time></trkpt><trkpt lat="50.30903745965823" lon="3.9589654617979497"><ele>146.5</ele><time>2026-04-30T15:44:23.998Z</time></trkpt><trkpt lat="50.30913490443052" lon="3.9591134759856894"><ele>146.25</ele><time>2026-04-30T15:44:24.998Z</time></trkpt><trkpt lat="50.309248864798704" lon="3.959234255187497"><ele>146.0</ele><time>2026-04-30T15:44:25.998Z</time></trkpt><trkpt lat="50.30940076115145" lon="3.9593207063658316"><ele>145.33333333333331</ele><time>2026-04-30T15:44:26.998Z</time></trkpt><trkpt lat="50.309582395578616" lon="3.959410161040969"><ele>144.66666666666666</ele><time>2026-04-30T15:44:27.998Z</time></trkpt><trkpt lat="50.30976498974313" lon="3.9595310683330944"><ele>144.0</ele><time>2026-04-30T15:44:28.998Z</time></trkpt><trkpt lat="50.309926303521195" lon="3.9597080702505796"><ele>143.66666666666666</ele><time>2026-04-30T15:44:29.998Z</time></trkpt><trkpt lat="50.3100864729939" lon="3.959931100320986"><ele>143.33333333333331</ele><time>2026-04-30T15:44:30.998Z</time></trkpt><trkpt lat="50.310254800920944" lon="3.9601808919736348"><ele>143.0</ele><time>2026-04-30T15:44:31.998Z</time></trkpt><trkpt lat="50.31043186518444" lon="3.960457777434464"><ele>144.0</ele><time>2026-04-30T15:44:32.998Z</time></trkpt><trkpt lat="50.310618959794624" lon="3.9607552327134243"><ele>145.0</ele><time>2026-04-30T15:44:33.998Z</time></trkpt><trkpt lat="50.31080736503355" lon="3.961056850338546"><ele>145.0</ele><time>2026-04-30T15:44:34.999Z</time></trkpt><trkpt lat="50.31097393057375" lon="3.961324713200643"><ele>145.0</ele><time>2026-04-30T15:44:35.999Z</time></trkpt><trkpt lat="50.311127417000115" lon="3.9615681887257725"><ele>145.33333333333334</ele><time>2026-04-30T15:44:36.999Z</time></trkpt><trkpt lat="50.311270419786936" lon="3.96179100287002"><ele>145.66666666666666</ele><time>2026-04-30T15:44:37.999Z</time></trkpt><trkpt lat="50.311400223310216" lon="3.9619938557907872"><ele>146.0</ele><time>2026-04-30T15:44:38.999Z</time></trkpt><trkpt lat="50.31150334978156" lon="3.9621692570535347"><ele>146.66666666666666</ele><time>2026-04-30T15:44:39.999Z</time></trkpt><trkpt lat="50.31158286052874" lon="3.9623525781582005"><ele>147.33333333333334</ele><time>2026-04-30T15:44:40.999Z</time></trkpt><trkpt lat="50.3116373053389" lon="3.962572568490535"><ele>148.0</ele><time>2026-04-30T15:44:41.999Z</time></trkpt><trkpt lat="50.31167153952884" lon="3.9628433094565767"><ele>148.25</ele><time>2026-04-30T15:44:42.999Z</time></trkpt><trkpt lat="50.31170513200474" lon="3.9631127832236315"><ele>148.5</ele><time>2026-04-30T15:44:43.999Z</time></trkpt><trkpt lat="50.311741909364144" lon="3.9633352149267025"><ele>148.75</ele><time>2026-04-30T15:44:44.999Z</time></trkpt><trkpt lat="50.31177556460366" lon="3.96351642788251"><ele>149.0</ele><time>2026-04-30T15:44:45.999Z</time></trkpt><trkpt lat="50.31181230846661" lon="3.963662035581826"><ele>149.0</ele><time>2026-04-30T15:44:46.999Z</time></trkpt><trkpt lat="50.31186830132047" lon="3.9637770233874385"><ele>149.0</ele><time>2026-04-30T15:44:47.999Z</time></trkpt><trkpt lat="50.311958845043854" lon="3.963870668420383"><ele>149.0</ele><time>2026-04-30T15:44:48.999Z</time></trkpt><trkpt lat="50.31206837335483" lon="3.9639734272634555"><ele>149.0</ele><time>2026-04-30T15:44:49.999Z</time></trkpt><trkpt lat="50.31214486905404" lon="3.964122953918364"><ele>148.66666666666666</ele><time>2026-04-30T15:44:50.999Z</time></trkpt><trkpt lat="50.31218789506891" lon="3.964338894141753"><ele>148.33333333333334</ele><time>2026-04-30T15:44:51.999Z</time></trkpt><trkpt lat="50.31221618211005" lon="3.9646291277265253"><ele>148.0</ele><time>2026-04-30T15:44:52.999Z</time></trkpt><trkpt lat="50.312256846628564" lon="3.96495023930681"><ele>146.5</ele><time>2026-04-30T15:44:53.999Z</time></trkpt><trkpt lat="50.31233365613794" lon="3.965300202088358"><ele>145.0</ele><time>2026-04-30T15:44:54.999Z</time></trkpt><trkpt lat="50.31243447286684" lon="3.9656619483189632"><ele>145.0</ele><time>2026-04-30T15:44:55.999Z</time></trkpt><trkpt lat="50.31253103146427" lon="3.9660054143512666"><ele>145.0</ele><time>2026-04-30T15:44:56.999Z</time></trkpt><trkpt lat="50.31262028325998" lon="3.9663431080238616"><ele>145.0</ele><time>2026-04-30T15:44:57.999Z</time></trkpt><trkpt lat="50.31270462711929" lon="3.966683598584953"><ele>145.0</ele><time>2026-04-30T15:44:58.999Z</time></trkpt><trkpt lat="50.31277608039407" lon="3.9669981554165714"><ele>145.0</ele><time>2026-04-30T15:44:59.999Z</time></trkpt><trkpt lat="50.312835421902776" lon="3.9672748943338565"><ele>145.66666666666669</ele><time>2026-04-30T15:45:00.999Z</time></trkpt><trkpt lat="50.3128821993991" lon="3.9675150180606855"><ele>146.33333333333334</ele><time>2026-04-30T15:45:01.999Z</time></trkpt><trkpt lat="50.31290765046742" lon="3.967752430160761"><ele>147.0</ele><time>2026-04-30T15:45:02.999Z</time></trkpt><trkpt lat="50.31291528724791" lon="3.9680499109633374"><ele>148.0</ele><time>2026-04-30T15:45:03.999Z</time></trkpt><trkpt lat="50.31291011562988" lon="3.9684047907919773"><ele>149.0</ele><time>2026-04-30T15:45:04.999Z</time></trkpt><trkpt lat="50.31290425001566" lon="3.968776175352672"><ele>149.0</ele><time>2026-04-30T15:45:05.999Z</time></trkpt><trkpt lat="50.312905019371534" lon="3.969133247647238"><ele>149.0</ele><time>2026-04-30T15:45:06.999Z</time></trkpt><trkpt lat="50.31290685948782" lon="3.969455313782841"><ele>149.0</ele><time>2026-04-30T15:45:07.999Z</time></trkpt><trkpt lat="50.31290322170854" lon="3.969795112494557"><ele>148.5</ele><time>2026-04-30T15:45:08.999Z</time></trkpt><trkpt lat="50.312904747839646" lon="3.970174418032723"><ele>148.0</ele><time>2026-04-30T15:45:09.999Z</time></trkpt><trkpt lat="50.31291286138824" lon="3.9705580639406604"><ele>147.33333333333334</ele><time>2026-04-30T15:45:10.999Z</time></trkpt><trkpt lat="50.3129280414085" lon="3.97090553006622"><ele>146.66666666666666</ele><time>2026-04-30T15:45:11.999Z</time></trkpt><trkpt lat="50.312946013697534" lon="3.971228180532808"><ele>146.0</ele><time>2026-04-30T15:45:12.999Z</time></trkpt><trkpt lat="50.312968901900675" lon="3.9715386051879595"><ele>145.66666666666666</ele><time>2026-04-30T15:45:13.999Z</time></trkpt><trkpt lat="50.31300080720925" lon="3.9718543024766038"><ele>145.33333333333334</ele><time>2026-04-30T15:45:14.999Z</time></trkpt><trkpt lat="50.31304252738167" lon="3.972190557970505"><ele>145.0</ele><time>2026-04-30T15:45:15.999Z</time></trkpt><trkpt lat="50.31309689015866" lon="3.972536689044738"><ele>145.0</ele><time>2026-04-30T15:45:16.999Z</time></trkpt><trkpt lat="50.31315580386253" lon="3.9728785070611905"><ele>145.0</ele><time>2026-04-30T15:45:17.999Z</time></trkpt><trkpt lat="50.313208079097365" lon="3.9731900882164255"><ele>145.0</ele><time>2026-04-30T15:45:18.999Z</time></trkpt><trkpt lat="50.3132520315224" lon="3.973479819950071"><ele>145.33333333333334</ele><time>2026-04-30T15:45:19.999Z</time></trkpt><trkpt lat="50.313300193331855" lon="3.9737637913087105"><ele>145.66666666666666</ele><time>2026-04-30T15:45:20.999Z</time></trkpt><trkpt lat="50.3133577798673" lon="3.9740603850953655"><ele>146.0</ele><time>2026-04-30T15:45:21.999Z</time></trkpt><trkpt lat="50.31341622275054" lon="3.974340278212678"><ele>146.5</ele><time>2026-04-30T15:45:22.999Z</time></trkpt><trkpt lat="50.31346710852699" lon="3.9745742732948255"><ele>147.0</ele><time>2026-04-30T15:45:23.999Z</time></trkpt><trkpt lat="50.31350547316747" lon="3.9747491483651145"><ele>147.5</ele><time>2026-04-30T15:45:24.999Z</time></trkpt><trkpt lat="50.31353760508432" lon="3.9748969645796843"><ele>148.0</ele><time>2026-04-30T15:45:25.999Z</time></trkpt><trkpt lat="50.31356228773896" lon="3.9750173758060163"><ele>148.4</ele><time>2026-04-30T15:45:26.999Z</time></trkpt><trkpt lat="50.31358283679113" lon="3.975113458386927"><ele>148.8</ele><time>2026-04-30T15:45:27.999Z</time></trkpt><trkpt lat="50.31358750079637" lon="3.97523097837067"><ele>149.2</ele><time>2026-04-30T15:45:29.999Z</time></trkpt><trkpt lat="50.31362871562484" lon="3.9754247389639144"><ele>149.6</ele><time>2026-04-30T15:45:35.999Z</time></trkpt><trkpt lat="50.31366161917482" lon="3.9755794262906217"><ele>150.0</ele><time>2026-04-30T15:45:36.999Z</time></trkpt><trkpt lat="50.31370729256217" lon="3.975794147617786"><ele>150.0</ele><time>2026-04-30T15:45:37.999Z</time></trkpt><trkpt lat="50.31375608284308" lon="3.9760235221833575"><ele>150.0</ele><time>2026-04-30T15:45:38.999Z</time></trkpt><trkpt lat="50.31381796135714" lon="3.9763144276259617"><ele>150.0</ele><time>2026-04-30T15:45:39.999Z</time></trkpt><trkpt lat="50.313873413717516" lon="3.976575122189496"><ele>150.0</ele><time>2026-04-30T15:45:40.999Z</time></trkpt><trkpt lat="50.31392794791034" lon="3.976817150800934"><ele>150.0</ele><time>2026-04-30T15:45:41.999Z</time></trkpt><trkpt lat="50.313986432092435" lon="3.977007027302746"><ele>150.0</ele><time>2026-04-30T15:45:42.999Z</time></trkpt><trkpt lat="50.31401869079393" lon="3.9771732483769946"><ele>150.0</ele><time>2026-04-30T15:45:43.999Z</time></trkpt><trkpt lat="50.31404910490703" lon="3.977314562950869"><ele>150.0</ele><time>2026-04-30T15:45:44.999Z</time></trkpt><trkpt lat="50.314051822946254" lon="3.977433481381516"><ele>150.0</ele><time>2026-04-30T15:45:45.999Z</time></trkpt><trkpt lat="50.314088040235696" lon="3.9775406032307616"><ele>150.0</ele><time>2026-04-30T15:45:47.999Z</time></trkpt><trkpt lat="50.31414207512425" lon="3.977631712972787"><ele>150.0</ele><time>2026-04-30T15:45:52.999Z</time></trkpt><trkpt lat="50.31422837928403" lon="3.9776584607631804"><ele>150.0</ele><time>2026-04-30T15:45:53.999Z</time></trkpt><trkpt lat="50.31436372584147" lon="3.977638270716655"><ele>149.66666666666666</ele><time>2026-04-30T15:45:54.999Z</time></trkpt><trkpt lat="50.314538329015996" lon="3.9776064434588068"><ele>149.33333333333331</ele><time>2026-04-30T15:45:55.998Z</time></trkpt><trkpt lat="50.31473403116355" lon="3.9775552436487454"><ele>149.0</ele><time>2026-04-30T15:45:56.998Z</time></trkpt><trkpt lat="50.3149598074285" lon="3.977497308993578"><ele>149.0</ele><time>2026-04-30T15:45:57.998Z</time></trkpt><trkpt lat="50.315195087742865" lon="3.977439962641083"><ele>149.0</ele><time>2026-04-30T15:45:58.998Z</time></trkpt><trkpt lat="50.315449622924774" lon="3.977385413116567"><ele>149.5</ele><time>2026-04-30T15:45:59.998Z</time></trkpt><trkpt lat="50.315712769622586" lon="3.9773237819664966"><ele>150.0</ele><time>2026-04-30T15:46:00.998Z</time></trkpt><trkpt lat="50.315955956254584" lon="3.977263129402274"><ele>150.0</ele><time>2026-04-30T15:46:01.998Z</time></trkpt><trkpt lat="50.31618134282097" lon="3.9772107360336895"><ele>150.0</ele><time>2026-04-30T15:46:02.998Z</time></trkpt><trkpt lat="50.316389402169975" lon="3.977164495904302"><ele>150.0</ele><time>2026-04-30T15:46:03.998Z</time></trkpt><trkpt lat="50.31656301827308" lon="3.9771213904872624"><ele>150.75</ele><time>2026-04-30T15:46:04.998Z</time></trkpt><trkpt lat="50.316715585869694" lon="3.9770813511108307"><ele>151.5</ele><time>2026-04-30T15:46:05.998Z</time></trkpt><trkpt lat="50.316856548752774" lon="3.9770440580159074"><ele>152.25</ele><time>2026-04-30T15:46:06.998Z</time></trkpt><trkpt lat="50.31699842344468" lon="3.977008665038932"><ele>153.0</ele><time>2026-04-30T15:46:07.998Z</time></trkpt><trkpt lat="50.31714113553345" lon="3.9769751214243576"><ele>152.75</ele><time>2026-04-30T15:46:08.998Z</time></trkpt><trkpt lat="50.31728520152046" lon="3.976935649908329"><ele>152.5</ele><time>2026-04-30T15:46:09.998Z</time></trkpt><trkpt lat="50.317429492422995" lon="3.9769051940417377"><ele>152.25</ele><time>2026-04-30T15:46:10.998Z</time></trkpt><trkpt lat="50.31757147033082" lon="3.976873754310863"><ele>152.0</ele><time>2026-04-30T15:46:11.998Z</time></trkpt><trkpt lat="50.317717932627566" lon="3.976842902937108"><ele>152.0</ele><time>2026-04-30T15:46:12.998Z</time></trkpt><trkpt lat="50.31786446806592" lon="3.976806728190341"><ele>152.0</ele><time>2026-04-30T15:46:13.998Z</time></trkpt><trkpt lat="50.31801686794746" lon="3.976770620397365"><ele>152.0</ele><time>2026-04-30T15:46:14.998Z</time></trkpt><trkpt lat="50.31817146403589" lon="3.976737208593488"><ele>151.75</ele><time>2026-04-30T15:46:15.998Z</time></trkpt><trkpt lat="50.31831898667212" lon="3.976703648135885"><ele>151.5</ele><time>2026-04-30T15:46:16.998Z</time></trkpt><trkpt lat="50.31845884282255" lon="3.9766737854892105"><ele>151.25</ele><time>2026-04-30T15:46:17.998Z</time></trkpt><trkpt lat="50.3186028462645" lon="3.976639659388175"><ele>151.0</ele><time>2026-04-30T15:46:18.998Z</time></trkpt><trkpt lat="50.31874830757739" lon="3.9765994521178567"><ele>151.0</ele><time>2026-04-30T15:46:19.998Z</time></trkpt><trkpt lat="50.3188978743439" lon="3.9765632192066818"><ele>151.0</ele><time>2026-04-30T15:46:20.998Z</time></trkpt><trkpt lat="50.319054778427166" lon="3.97652566538097"><ele>151.0</ele><time>2026-04-30T15:46:21.998Z</time></trkpt><trkpt lat="50.3192182425603" lon="3.9764895232256436"><ele>150.0</ele><time>2026-04-30T15:46:22.998Z</time></trkpt><trkpt lat="50.31938160351035" lon="3.976455674280799"><ele>149.0</ele><time>2026-04-30T15:46:23.998Z</time></trkpt><trkpt lat="50.31953174563086" lon="3.976423395603945"><ele>148.0</ele><time>2026-04-30T15:46:24.998Z</time></trkpt><trkpt lat="50.31967598331383" lon="3.9763876220241436"><ele>148.25</ele><time>2026-04-30T15:46:25.998Z</time></trkpt><trkpt lat="50.31981288881364" lon="3.976357097213728"><ele>148.5</ele><time>2026-04-30T15:46:26.998Z</time></trkpt><trkpt lat="50.31994913360087" lon="3.976319416618756"><ele>148.75</ele><time>2026-04-30T15:46:27.998Z</time></trkpt><trkpt lat="50.32007282865349" lon="3.9762978984312474"><ele>149.0</ele><time>2026-04-30T15:46:28.998Z</time></trkpt><trkpt lat="50.32020171590381" lon="3.976267327018574"><ele>149.0</ele><time>2026-04-30T15:46:29.998Z</time></trkpt><trkpt lat="50.32035008330861" lon="3.976227721230796"><ele>149.0</ele><time>2026-04-30T15:46:30.998Z</time></trkpt><trkpt lat="50.320520893490276" lon="3.9761758929365167"><ele>149.0</ele><time>2026-04-30T15:46:31.998Z</time></trkpt><trkpt lat="50.32070417795981" lon="3.9761363049584753"><ele>149.0</ele><time>2026-04-30T15:46:32.998Z</time></trkpt><trkpt lat="50.32088928694052" lon="3.9761011295901914"><ele>149.0</ele><time>2026-04-30T15:46:33.998Z</time></trkpt><trkpt lat="50.32107682396207" lon="3.9760657893428957"><ele>149.0</ele><time>2026-04-30T15:46:34.998Z</time></trkpt><trkpt lat="50.32126558616504" lon="3.9760260297182253"><ele>148.33333333333331</ele><time>2026-04-30T15:46:35.998Z</time></trkpt><trkpt lat="50.32145249182664" lon="3.975985337994147"><ele>147.66666666666666</ele><time>2026-04-30T15:46:36.998Z</time></trkpt><trkpt lat="50.321627347446466" lon="3.975944677168638"><ele>147.0</ele><time>2026-04-30T15:46:37.998Z</time></trkpt><trkpt lat="50.321793439835744" lon="3.975904093956635"><ele>147.0</ele><time>2026-04-30T15:46:38.998Z</time></trkpt><trkpt lat="50.32195964380555" lon="3.975866303744142"><ele>147.0</ele><time>2026-04-30T15:46:39.998Z</time></trkpt><trkpt lat="50.32212948015824" lon="3.9758271412805954"><ele>147.0</ele><time>2026-04-30T15:46:41Z</time></trkpt><trkpt lat="50.32230626428874" lon="3.9757825352606933"><ele>147.33333333333334</ele><time>2026-04-30T15:46:42Z</time></trkpt><trkpt lat="50.32249200849607" lon="3.9757375338220333"><ele>147.66666666666669</ele><time>2026-04-30T15:46:43Z</time></trkpt><trkpt lat="50.32268484575559" lon="3.9756966967682574"><ele>148.0</ele><time>2026-04-30T15:46:44Z</time></trkpt><trkpt lat="50.32288178944163" lon="3.975653148517853"><ele>148.66666666666669</ele><time>2026-04-30T15:46:45Z</time></trkpt><trkpt lat="50.3230842605508" lon="3.9756021407667372"><ele>149.33333333333334</ele><time>2026-04-30T15:46:46Z</time></trkpt><trkpt lat="50.3232980914722" lon="3.9755534570964257"><ele>150.0</ele><time>2026-04-30T15:46:47Z</time></trkpt><trkpt lat="50.3235336854715" lon="3.975511943203714"><ele>150.0</ele><time>2026-04-30T15:46:48Z</time></trkpt><trkpt lat="50.32379346548929" lon="3.9754614285111916"><ele>150.0</ele><time>2026-04-30T15:46:49Z</time></trkpt><trkpt lat="50.324067472019934" lon="3.975396503284702"><ele>150.5</ele><time>2026-04-30T15:46:50Z</time></trkpt><trkpt lat="50.32435459160013" lon="3.9753281203673994"><ele>151.0</ele><time>2026-04-30T15:46:51Z</time></trkpt><trkpt lat="50.32465169891672" lon="3.9752626988447557"><ele>152.0</ele><time>2026-04-30T15:46:52Z</time></trkpt><trkpt lat="50.324955119071674" lon="3.975194396304697"><ele>153.0</ele><time>2026-04-30T15:46:53Z</time></trkpt><trkpt lat="50.32525448482697" lon="3.9751282839529516"><ele>153.0</ele><time>2026-04-30T15:46:54Z</time></trkpt><trkpt lat="50.3255429042172" lon="3.975064635199243"><ele>153.0</ele><time>2026-04-30T15:46:55Z</time></trkpt><trkpt lat="50.325823996893085" lon="3.9749992643806897"><ele>153.0</ele><time>2026-04-30T15:46:56Z</time></trkpt><trkpt lat="50.32610418921672" lon="3.974933355865873"><ele>153.0</ele><time>2026-04-30T15:46:57Z</time></trkpt><trkpt lat="50.32637972202194" lon="3.974870661788916"><ele>152.0</ele><time>2026-04-30T15:46:58Z</time></trkpt><trkpt lat="50.32665302872716" lon="3.974808183286615"><ele>151.0</ele><time>2026-04-30T15:46:59Z</time></trkpt><trkpt lat="50.326919642694385" lon="3.9747484652342746"><ele>151.0</ele><time>2026-04-30T15:47:00Z</time></trkpt><trkpt lat="50.327183191266386" lon="3.9746889288360787"><ele>151.0</ele><time>2026-04-30T15:47:01Z</time></trkpt><trkpt lat="50.32744812114809" lon="3.974628288389367"><ele>150.0</ele><time>2026-04-30T15:47:02Z</time></trkpt><trkpt lat="50.32771254294733" lon="3.974567819324575"><ele>149.0</ele><time>2026-04-30T15:47:03Z</time></trkpt><trkpt lat="50.327979734253425" lon="3.9745062092900967"><ele>149.0</ele><time>2026-04-30T15:47:04Z</time></trkpt><trkpt lat="50.32824699605612" lon="3.9744448946906736"><ele>149.0</ele><time>2026-04-30T15:47:05Z</time></trkpt><trkpt lat="50.3285127725359" lon="3.97438301463337"><ele>149.0</ele><time>2026-04-30T15:47:06Z</time></trkpt><trkpt lat="50.3287809534224" lon="3.9743233185481714"><ele>149.0</ele><time>2026-04-30T15:47:07Z</time></trkpt><trkpt lat="50.3290444853825" lon="3.974265946473892"><ele>149.0</ele><time>2026-04-30T15:47:08Z</time></trkpt><trkpt lat="50.329296559729755" lon="3.974213114570549"><ele>149.0</ele><time>2026-04-30T15:47:09Z</time></trkpt><trkpt lat="50.32953566643445" lon="3.9741620340107877"><ele>149.33333333333331</ele><time>2026-04-30T15:47:10Z</time></trkpt><trkpt lat="50.3297634206699" lon="3.9741164633405823"><ele>149.66666666666666</ele><time>2026-04-30T15:47:11Z</time></trkpt><trkpt lat="50.329976765525636" lon="3.974069006833623"><ele>150.0</ele><time>2026-04-30T15:47:12Z</time></trkpt><trkpt lat="50.33017134399155" lon="3.9740250154373125"><ele>150.0</ele><time>2026-04-30T15:47:13Z</time></trkpt><trkpt lat="50.33034715420325" lon="3.9739864312881292"><ele>150.0</ele><time>2026-04-30T15:47:14Z</time></trkpt><trkpt lat="50.330514676797506" lon="3.973947511531357"><ele>150.0</ele><time>2026-04-30T15:47:14.999Z</time></trkpt><trkpt lat="50.3306739175866" lon="3.973908074122169"><ele>150.0</ele><time>2026-04-30T15:47:15.999Z</time></trkpt><trkpt lat="50.33082848170026" lon="3.9738732199830213"><ele>150.0</ele><time>2026-04-30T15:47:16.999Z</time></trkpt><trkpt lat="50.33097315785411" lon="3.9738433048192143"><ele>150.0</ele><time>2026-04-30T15:47:17.999Z</time></trkpt><trkpt lat="50.33111209323075" lon="3.973811244293315"><ele>150.0</ele><time>2026-04-30T15:47:18.999Z</time></trkpt><trkpt lat="50.331246121616765" lon="3.973779414422369"><ele>150.0</ele><time>2026-04-30T15:47:19.999Z</time></trkpt><trkpt lat="50.33137583160121" lon="3.9737474489463818"><ele>150.0</ele><time>2026-04-30T15:47:20.999Z</time></trkpt><trkpt lat="50.331498359366876" lon="3.973722840328115"><ele>150.0</ele><time>2026-04-30T15:47:21.999Z</time></trkpt><trkpt lat="50.33162021414183" lon="3.973693840008808"><ele>150.0</ele><time>2026-04-30T15:47:22.999Z</time></trkpt><trkpt lat="50.33174859813419" lon="3.973663888560981"><ele>150.0</ele><time>2026-04-30T15:47:23.999Z</time></trkpt><trkpt lat="50.331880934663864" lon="3.973637617405057"><ele>150.0</ele><time>2026-04-30T15:47:24.999Z</time></trkpt><trkpt lat="50.33201518450307" lon="3.9736085361445648"><ele>150.0</ele><time>2026-04-30T15:47:25.999Z</time></trkpt><trkpt lat="50.332153936330904" lon="3.973575802060804"><ele>150.0</ele><time>2026-04-30T15:47:26.999Z</time></trkpt><trkpt lat="50.33228974805605" lon="3.973544583787424"><ele>149.25</ele><time>2026-04-30T15:47:27.999Z</time></trkpt><trkpt lat="50.33242765976251" lon="3.973506955546304"><ele>148.5</ele><time>2026-04-30T15:47:28.999Z</time></trkpt><trkpt lat="50.33256920812015" lon="3.9734766521721823"><ele>147.75</ele><time>2026-04-30T15:47:29.999Z</time></trkpt><trkpt lat="50.33271040881889" lon="3.973447720969076"><ele>147.0</ele><time>2026-04-30T15:47:30.999Z</time></trkpt><trkpt lat="50.332852231705466" lon="3.9734098772038116"><ele>147.0</ele><time>2026-04-30T15:47:31.999Z</time></trkpt><trkpt lat="50.33298974622056" lon="3.973377147169505"><ele>147.0</ele><time>2026-04-30T15:47:32.999Z</time></trkpt><trkpt lat="50.333129602833246" lon="3.973347843215669"><ele>147.0</ele><time>2026-04-30T15:47:33.999Z</time></trkpt><trkpt lat="50.33327561476904" lon="3.9733154373425585"><ele>147.0</ele><time>2026-04-30T15:47:34.999Z</time></trkpt><trkpt lat="50.33342072266158" lon="3.973279467814568"><ele>146.33333333333334</ele><time>2026-04-30T15:47:35.999Z</time></trkpt><trkpt lat="50.33356979763516" lon="3.9732450365375476"><ele>145.66666666666669</ele><time>2026-04-30T15:47:36.999Z</time></trkpt><trkpt lat="50.33372221546391" lon="3.97321100972477"><ele>145.0</ele><time>2026-04-30T15:47:37.999Z</time></trkpt><trkpt lat="50.33387761606284" lon="3.973175773961341"><ele>144.33333333333334</ele><time>2026-04-30T15:47:38.999Z</time></trkpt><trkpt lat="50.33403558609309" lon="3.9731410201600545"><ele>143.66666666666666</ele><time>2026-04-30T15:47:39.999Z</time></trkpt><trkpt lat="50.33419259505075" lon="3.97310866466188"><ele>143.0</ele><time>2026-04-30T15:47:40.999Z</time></trkpt><trkpt lat="50.334349390879055" lon="3.973075166646521"><ele>143.0</ele><time>2026-04-30T15:47:41.999Z</time></trkpt><trkpt lat="50.33451153050426" lon="3.97303922298968"><ele>143.0</ele><time>2026-04-30T15:47:42.999Z</time></trkpt><trkpt lat="50.33466877614337" lon="3.9730024191698217"><ele>143.0</ele><time>2026-04-30T15:47:43.999Z</time></trkpt><trkpt lat="50.33481989525397" lon="3.972968008632978"><ele>143.5</ele><time>2026-04-30T15:47:44.999Z</time></trkpt><trkpt lat="50.33496687908933" lon="3.9729383503464377"><ele>144.0</ele><time>2026-04-30T15:47:45.999Z</time></trkpt><trkpt lat="50.3351115586455" lon="3.972903228705137"><ele>144.5</ele><time>2026-04-30T15:47:46.999Z</time></trkpt><trkpt lat="50.33525256858752" lon="3.972873126136147"><ele>145.0</ele><time>2026-04-30T15:47:47.999Z</time></trkpt><trkpt lat="50.33538797541343" lon="3.972846357633792"><ele>145.0</ele><time>2026-04-30T15:47:48.999Z</time></trkpt><trkpt lat="50.33551484932605" lon="3.9728183018385637"><ele>145.0</ele><time>2026-04-30T15:47:49.999Z</time></trkpt><trkpt lat="50.33564498176831" lon="3.9727845150925925"><ele>145.0</ele><time>2026-04-30T15:47:50.999Z</time></trkpt><trkpt lat="50.33577405694207" lon="3.972757375536802"><ele>145.0</ele><time>2026-04-30T15:47:51.999Z</time></trkpt><trkpt lat="50.33590578094089" lon="3.9727274433202355"><ele>145.0</ele><time>2026-04-30T15:47:52.999Z</time></trkpt><trkpt lat="50.33604162124774" lon="3.972693716964228"><ele>145.0</ele><time>2026-04-30T15:47:53.999Z</time></trkpt><trkpt lat="50.33617744547331" lon="3.9726597575765874"><ele>145.0</ele><time>2026-04-30T15:47:54.999Z</time></trkpt><trkpt lat="50.336314889767756" lon="3.9726388466978397"><ele>145.0</ele><time>2026-04-30T15:47:55.999Z</time></trkpt><trkpt lat="50.33645030045898" lon="3.9726092441994694"><ele>144.5</ele><time>2026-04-30T15:47:56.999Z</time></trkpt><trkpt lat="50.33658708352014" lon="3.972572528566162"><ele>144.0</ele><time>2026-04-30T15:47:57.999Z</time></trkpt><trkpt lat="50.3367257670612" lon="3.9725420236501665"><ele>143.5</ele><time>2026-04-30T15:47:58.999Z</time></trkpt><trkpt lat="50.336866701391706" lon="3.9725072891701636"><ele>143.0</ele><time>2026-04-30T15:47:59.999Z</time></trkpt><trkpt lat="50.33700217646166" lon="3.972475752602266"><ele>143.0</ele><time>2026-04-30T15:48:00.999Z</time></trkpt><trkpt lat="50.33713890945443" lon="3.9724485788117248"><ele>143.0</ele><time>2026-04-30T15:48:01.999Z</time></trkpt><trkpt lat="50.33727655326648" lon="3.9724152509206494"><ele>143.0</ele><time>2026-04-30T15:48:02.999Z</time></trkpt><trkpt lat="50.337409764586404" lon="3.9723817660734517"><ele>143.0</ele><time>2026-04-30T15:48:03.999Z</time></trkpt><trkpt lat="50.3375403039516" lon="3.972351802770314"><ele>142.5</ele><time>2026-04-30T15:48:04.999Z</time></trkpt><trkpt lat="50.33766968636137" lon="3.9723254332471805"><ele>142.0</ele><time>2026-04-30T15:48:05.999Z</time></trkpt><trkpt lat="50.337799356054305" lon="3.9722947277058"><ele>141.5</ele><time>2026-04-30T15:48:06.999Z</time></trkpt><trkpt lat="50.33792985481126" lon="3.972263528313322"><ele>141.0</ele><time>2026-04-30T15:48:07.999Z</time></trkpt><trkpt lat="50.338061550307906" lon="3.9722331360641836"><ele>140.5</ele><time>2026-04-30T15:48:08.999Z</time></trkpt><trkpt lat="50.33819195033297" lon="3.9722068425289025"><ele>140.0</ele><time>2026-04-30T15:48:09.999Z</time></trkpt><trkpt lat="50.3383237315137" lon="3.9721791660278956"><ele>139.5</ele><time>2026-04-30T15:48:10.999Z</time></trkpt><trkpt lat="50.338456888903146" lon="3.9721429042540577"><ele>139.0</ele><time>2026-04-30T15:48:11.999Z</time></trkpt><trkpt lat="50.33859041601152" lon="3.9721075016007448"><ele>139.0</ele><time>2026-04-30T15:48:12.999Z</time></trkpt><trkpt lat="50.33872528302388" lon="3.9720797341993426"><ele>139.0</ele><time>2026-04-30T15:48:13.999Z</time></trkpt><trkpt lat="50.33886000611819" lon="3.972051114990087"><ele>139.0</ele><time>2026-04-30T15:48:14.999Z</time></trkpt><trkpt lat="50.339000797043674" lon="3.9720229564219935"><ele>139.0</ele><time>2026-04-30T15:48:15.999Z</time></trkpt><trkpt lat="50.33913998533048" lon="3.971993714437434"><ele>138.75</ele><time>2026-04-30T15:48:16.999Z</time></trkpt><trkpt lat="50.339284977252774" lon="3.9719623673916136"><ele>138.5</ele><time>2026-04-30T15:48:17.999Z</time></trkpt><trkpt lat="50.33942914496837" lon="3.971922518650005"><ele>138.25</ele><time>2026-04-30T15:48:18.999Z</time></trkpt><trkpt lat="50.33957277303719" lon="3.971886123751089"><ele>138.0</ele><time>2026-04-30T15:48:19.999Z</time></trkpt><trkpt lat="50.33970320615333" lon="3.9718599983516234"><ele>138.25</ele><time>2026-04-30T15:48:20.999Z</time></trkpt><trkpt lat="50.33983050800318" lon="3.9718345930150765"><ele>138.5</ele><time>2026-04-30T15:48:21.999Z</time></trkpt><trkpt lat="50.3399524288545" lon="3.9718057493846524"><ele>138.75</ele><time>2026-04-30T15:48:22.999Z</time></trkpt><trkpt lat="50.34007358843423" lon="3.9717847558258965"><ele>139.0</ele><time>2026-04-30T15:48:23.999Z</time></trkpt><trkpt lat="50.34019567547663" lon="3.9717523135963284"><ele>139.0</ele><time>2026-04-30T15:48:24.998Z</time></trkpt><trkpt lat="50.34031621298702" lon="3.97172070567624"><ele>139.0</ele><time>2026-04-30T15:48:25.998Z</time></trkpt><trkpt lat="50.340437349532905" lon="3.9716893674485134"><ele>139.0</ele><time>2026-04-30T15:48:26.998Z</time></trkpt><trkpt lat="50.34055603640634" lon="3.971650752189202"><ele>139.0</ele><time>2026-04-30T15:48:27.998Z</time></trkpt><trkpt lat="50.34068075504189" lon="3.9716078848003242"><ele>138.5</ele><time>2026-04-30T15:48:28.998Z</time></trkpt><trkpt lat="50.34080394641069" lon="3.9715727634737363"><ele>138.0</ele><time>2026-04-30T15:48:29.998Z</time></trkpt><trkpt lat="50.34093192041272" lon="3.9715383344696917"><ele>137.5</ele><time>2026-04-30T15:48:30.998Z</time></trkpt><trkpt lat="50.3410651557167" lon="3.971518553279765"><ele>137.0</ele><time>2026-04-30T15:48:31.998Z</time></trkpt><trkpt lat="50.3412030416533" lon="3.971504313530401"><ele>137.0</ele><time>2026-04-30T15:48:32.998Z</time></trkpt><trkpt lat="50.341343343993735" lon="3.9715012706406707"><ele>137.0</ele><time>2026-04-30T15:48:33.998Z</time></trkpt><trkpt lat="50.34148780893713" lon="3.971471187102856"><ele>137.0</ele><time>2026-04-30T15:48:34.998Z</time></trkpt><trkpt lat="50.34163335569977" lon="3.9714083782290706"><ele>137.0</ele><time>2026-04-30T15:48:35.998Z</time></trkpt><trkpt lat="50.3417822929545" lon="3.971345962593572"><ele>136.33333333333331</ele><time>2026-04-30T15:48:36.998Z</time></trkpt><trkpt lat="50.34193569192988" lon="3.9712831721842656"><ele>135.66666666666666</ele><time>2026-04-30T15:48:37.998Z</time></trkpt><trkpt lat="50.34208772707407" lon="3.9712313870866827"><ele>135.0</ele><time>2026-04-30T15:48:38.998Z</time></trkpt><trkpt lat="50.34223992132744" lon="3.9711742516830126"><ele>134.66666666666666</ele><time>2026-04-30T15:48:39.998Z</time></trkpt><trkpt lat="50.3423874118476" lon="3.9711097727418343"><ele>134.33333333333331</ele><time>2026-04-30T15:48:40.998Z</time></trkpt><trkpt lat="50.34253187806712" lon="3.9710347802444876"><ele>134.0</ele><time>2026-04-30T15:48:41.998Z</time></trkpt><trkpt lat="50.3426779122659" lon="3.970931308271072"><ele>134.0</ele><time>2026-04-30T15:48:42.998Z</time></trkpt><trkpt lat="50.34282768901741" lon="3.9708534701746934"><ele>134.0</ele><time>2026-04-30T15:48:43.998Z</time></trkpt><trkpt lat="50.34297854304055" lon="3.9707979097184904"><ele>134.0</ele><time>2026-04-30T15:48:44.998Z</time></trkpt><trkpt lat="50.34313194357508" lon="3.9707546107279184"><ele>133.0</ele><time>2026-04-30T15:48:45.998Z</time></trkpt><trkpt lat="50.34328161121173" lon="3.9707193907015554"><ele>132.0</ele><time>2026-04-30T15:48:47Z</time></trkpt><trkpt lat="50.34343409617648" lon="3.970663157663112"><ele>131.0</ele><time>2026-04-30T15:48:48Z</time></trkpt><trkpt lat="50.343589660819426" lon="3.9706077050207385"><ele>131.0</ele><time>2026-04-30T15:48:49Z</time></trkpt><trkpt lat="50.3437461041656" lon="3.970550999090845"><ele>131.0</ele><time>2026-04-30T15:48:50Z</time></trkpt><trkpt lat="50.34390219468768" lon="3.9704981939596435"><ele>131.0</ele><time>2026-04-30T15:48:51Z</time></trkpt><trkpt lat="50.3440613803591" lon="3.970445905010382"><ele>131.0</ele><time>2026-04-30T15:48:52Z</time></trkpt><trkpt lat="50.34422032999933" lon="3.970392346369243"><ele>131.0</ele><time>2026-04-30T15:48:53Z</time></trkpt><trkpt lat="50.34438246820309" lon="3.970334172720921"><ele>131.0</ele><time>2026-04-30T15:48:54Z</time></trkpt><trkpt lat="50.344547937478886" lon="3.970273839069018"><ele>130.33333333333331</ele><time>2026-04-30T15:48:55Z</time></trkpt><trkpt lat="50.34472024631531" lon="3.9702140690986267"><ele>129.66666666666666</ele><time>2026-04-30T15:48:56Z</time></trkpt><trkpt lat="50.34489347635302" lon="3.9701552906422024"><ele>129.0</ele><time>2026-04-30T15:48:57Z</time></trkpt><trkpt lat="50.34506971482508" lon="3.9700915248770117"><ele>129.0</ele><time>2026-04-30T15:48:58Z</time></trkpt><trkpt lat="50.345247903174666" lon="3.9700279893387065"><ele>129.0</ele><time>2026-04-30T15:48:59Z</time></trkpt><trkpt lat="50.345419568040484" lon="3.9699743146095128"><ele>129.0</ele><time>2026-04-30T15:49:00Z</time></trkpt><trkpt lat="50.345582742008325" lon="3.9699171561542195"><ele>129.66666666666666</ele><time>2026-04-30T15:49:01Z</time></trkpt><trkpt lat="50.34573815217868" lon="3.9698662536154785"><ele>130.33333333333331</ele><time>2026-04-30T15:49:02Z</time></trkpt><trkpt lat="50.34588834797025" lon="3.9698115558889335"><ele>131.0</ele><time>2026-04-30T15:49:03Z</time></trkpt><trkpt lat="50.34604367002682" lon="3.9697585843020042"><ele>131.0</ele><time>2026-04-30T15:49:04Z</time></trkpt><trkpt lat="50.34620141232386" lon="3.969701505348681"><ele>131.0</ele><time>2026-04-30T15:49:05Z</time></trkpt><trkpt lat="50.34635364150884" lon="3.9696463583827994"><ele>131.0</ele><time>2026-04-30T15:49:06Z</time></trkpt><trkpt lat="50.34649811805578" lon="3.9695940410943216"><ele>130.33333333333331</ele><time>2026-04-30T15:49:07Z</time></trkpt><trkpt lat="50.34665009655583" lon="3.969543767321027"><ele>129.66666666666666</ele><time>2026-04-30T15:49:08Z</time></trkpt><trkpt lat="50.346809566002754" lon="3.9694888772983714"><ele>129.0</ele><time>2026-04-30T15:49:09Z</time></trkpt><trkpt lat="50.34696770629411" lon="3.9694300458224197"><ele>129.0</ele><time>2026-04-30T15:49:10Z</time></trkpt><trkpt lat="50.347122944324326" lon="3.9693755474763774"><ele>129.0</ele><time>2026-04-30T15:49:11Z</time></trkpt><trkpt lat="50.347274977660796" lon="3.969325705085955"><ele>129.0</ele><time>2026-04-30T15:49:12Z</time></trkpt><trkpt lat="50.34742089892032" lon="3.9692736080478306"><ele>128.33333333333334</ele><time>2026-04-30T15:49:13Z</time></trkpt><trkpt lat="50.347567295870995" lon="3.96921616728098"><ele>127.66666666666667</ele><time>2026-04-30T15:49:14Z</time></trkpt><trkpt lat="50.34772151332414" lon="3.969153432061524"><ele>127.0</ele><time>2026-04-30T15:49:15Z</time></trkpt><trkpt lat="50.34786733517503" lon="3.969105959199092"><ele>127.0</ele><time>2026-04-30T15:49:16Z</time></trkpt><trkpt lat="50.34800838092812" lon="3.969056133712813"><ele>127.0</ele><time>2026-04-30T15:49:17Z</time></trkpt><trkpt lat="50.34815016450664" lon="3.969005320631639"><ele>127.0</ele><time>2026-04-30T15:49:18Z</time></trkpt><trkpt lat="50.348283204330734" lon="3.9689595712503074"><ele>127.0</ele><time>2026-04-30T15:49:19Z</time></trkpt><trkpt lat="50.3484260179144" lon="3.9689047501236616"><ele>126.0</ele><time>2026-04-30T15:49:20Z</time></trkpt><trkpt lat="50.34857785979034" lon="3.9688478123460316"><ele>125.0</ele><time>2026-04-30T15:49:21Z</time></trkpt><trkpt lat="50.34874339511294" lon="3.968775311509613"><ele>124.0</ele><time>2026-04-30T15:49:22Z</time></trkpt><trkpt lat="50.348913095437865" lon="3.968704767089744"><ele>124.0</ele><time>2026-04-30T15:49:23Z</time></trkpt><trkpt lat="50.34908429786603" lon="3.968654250389222"><ele>124.0</ele><time>2026-04-30T15:49:24Z</time></trkpt><trkpt lat="50.34925941263095" lon="3.968597195295102"><ele>124.0</ele><time>2026-04-30T15:49:25Z</time></trkpt><trkpt lat="50.349443304026565" lon="3.96853533252843"><ele>124.0</ele><time>2026-04-30T15:49:26Z</time></trkpt><trkpt lat="50.349627691992026" lon="3.9684737003642554"><ele>124.0</ele><time>2026-04-30T15:49:27Z</time></trkpt><trkpt lat="50.34981080699777" lon="3.968408449910253"><ele>124.0</ele><time>2026-04-30T15:49:28Z</time></trkpt><trkpt lat="50.34998929131007" lon="3.9683422526356993"><ele>122.66666666666667</ele><time>2026-04-30T15:49:29Z</time></trkpt><trkpt lat="50.35016245835793" lon="3.9682886048667223"><ele>121.33333333333334</ele><time>2026-04-30T15:49:30Z</time></trkpt><trkpt lat="50.35033920475844" lon="3.968222088280271"><ele>120.0</ele><time>2026-04-30T15:49:31Z</time></trkpt><trkpt lat="50.350511120845006" lon="3.968159433194643"><ele>119.66666666666666</ele><time>2026-04-30T15:49:32Z</time></trkpt><trkpt lat="50.350684589852975" lon="3.9681023565838522"><ele>119.33333333333333</ele><time>2026-04-30T15:49:33Z</time></trkpt><trkpt lat="50.3508601800815" lon="3.968052886107957"><ele>119.0</ele><time>2026-04-30T15:49:34Z</time></trkpt><trkpt lat="50.35104005489746" lon="3.968014059504346"><ele>119.0</ele><time>2026-04-30T15:49:35Z</time></trkpt><trkpt lat="50.35122302848071" lon="3.967976160665625"><ele>119.0</ele><time>2026-04-30T15:49:36Z</time></trkpt><trkpt lat="50.351402627346474" lon="3.967935694127163"><ele>119.0</ele><time>2026-04-30T15:49:37Z</time></trkpt><trkpt lat="50.35157345717419" lon="3.9679068150434924"><ele>118.33333333333333</ele><time>2026-04-30T15:49:38Z</time></trkpt><trkpt lat="50.351741885370416" lon="3.9678852505644158"><ele>117.66666666666666</ele><time>2026-04-30T15:49:39Z</time></trkpt><trkpt lat="50.351906798036346" lon="3.9678701277554596"><ele>117.0</ele><time>2026-04-30T15:49:39.999Z</time></trkpt><trkpt lat="50.352060551012954" lon="3.9678573624860993"><ele>116.5</ele><time>2026-04-30T15:49:40.999Z</time></trkpt><trkpt lat="50.352208780980156" lon="3.9678457204951503"><ele>116.0</ele><time>2026-04-30T15:49:41.999Z</time></trkpt><trkpt lat="50.35235416790078" lon="3.967835274690667"><ele>115.5</ele><time>2026-04-30T15:49:42.999Z</time></trkpt><trkpt lat="50.352500548556" lon="3.9678257738396794"><ele>115.0</ele><time>2026-04-30T15:49:43.999Z</time></trkpt><trkpt lat="50.352653638591754" lon="3.9678059601419275"><ele>115.0</ele><time>2026-04-30T15:49:44.999Z</time></trkpt><trkpt lat="50.35281166684855" lon="3.967787320445677"><ele>115.0</ele><time>2026-04-30T15:49:45.999Z</time></trkpt><trkpt lat="50.352967341415926" lon="3.967777511367068"><ele>115.0</ele><time>2026-04-30T15:49:46.999Z</time></trkpt><trkpt lat="50.35311804565027" lon="3.9677656663015473"><ele>114.25</ele><time>2026-04-30T15:49:47.999Z</time></trkpt><trkpt lat="50.353260596430594" lon="3.9677557415087534"><ele>113.5</ele><time>2026-04-30T15:49:48.999Z</time></trkpt><trkpt lat="50.35339613194026" lon="3.9677471911549724"><ele>112.75</ele><time>2026-04-30T15:49:49.999Z</time></trkpt><trkpt lat="50.3535306513571" lon="3.9677336645651295"><ele>112.0</ele><time>2026-04-30T15:49:50.999Z</time></trkpt><trkpt lat="50.35366487226413" lon="3.9677263697212823"><ele>112.0</ele><time>2026-04-30T15:49:51.999Z</time></trkpt><trkpt lat="50.35380454159033" lon="3.9677128105639023"><ele>112.0</ele><time>2026-04-30T15:49:52.999Z</time></trkpt><trkpt lat="50.35394817620299" lon="3.9677014693669865"><ele>112.0</ele><time>2026-04-30T15:49:53.999Z</time></trkpt><trkpt lat="50.35409425206942" lon="3.9676885807247744"><ele>112.0</ele><time>2026-04-30T15:49:54.999Z</time></trkpt><trkpt lat="50.35423017138684" lon="3.967680440592874"><ele>111.75</ele><time>2026-04-30T15:49:55.999Z</time></trkpt><trkpt lat="50.35436723011653" lon="3.967664824633189"><ele>111.5</ele><time>2026-04-30T15:49:56.999Z</time></trkpt><trkpt lat="50.35450393778832" lon="3.967655127523689"><ele>111.25</ele><time>2026-04-30T15:49:57.999Z</time></trkpt><trkpt lat="50.35463462304655" lon="3.9676324897300472"><ele>111.0</ele><time>2026-04-30T15:49:58.999Z</time></trkpt><trkpt lat="50.35477139376072" lon="3.96761791567562"><ele>110.5</ele><time>2026-04-30T15:49:59.999Z</time></trkpt><trkpt lat="50.35490684914446" lon="3.9675972197087943"><ele>110.0</ele><time>2026-04-30T15:50:00.999Z</time></trkpt><trkpt lat="50.355039300527615" lon="3.9675746925747992"><ele>109.5</ele><time>2026-04-30T15:50:01.999Z</time></trkpt><trkpt lat="50.35517503835477" lon="3.9675484440532336"><ele>109.0</ele><time>2026-04-30T15:50:02.999Z</time></trkpt><trkpt lat="50.35531121877404" lon="3.967517356602118"><ele>109.0</ele><time>2026-04-30T15:50:03.999Z</time></trkpt><trkpt lat="50.35544397009196" lon="3.967482549883013"><ele>109.0</ele><time>2026-04-30T15:50:04.999Z</time></trkpt><trkpt lat="50.35557458581235" lon="3.9674433631325123"><ele>109.0</ele><time>2026-04-30T15:50:05.999Z</time></trkpt><trkpt lat="50.35569242419526" lon="3.967412947070493"><ele>109.0</ele><time>2026-04-30T15:50:06.999Z</time></trkpt><trkpt lat="50.35581908916911" lon="3.9673697264921537"><ele>108.5</ele><time>2026-04-30T15:50:07.999Z</time></trkpt><trkpt lat="50.35595585303245" lon="3.967325122323932"><ele>108.0</ele><time>2026-04-30T15:50:08.999Z</time></trkpt><trkpt lat="50.35609939411696" lon="3.9672843401280113"><ele>107.5</ele><time>2026-04-30T15:50:09.999Z</time></trkpt><trkpt lat="50.35623101985895" lon="3.9672486170612364"><ele>107.0</ele><time>2026-04-30T15:50:10.999Z</time></trkpt><trkpt lat="50.35635922492323" lon="3.9672197961562676"><ele>106.25</ele><time>2026-04-30T15:50:11.999Z</time></trkpt><trkpt lat="50.35649209267477" lon="3.967190036426675"><ele>105.5</ele><time>2026-04-30T15:50:12.999Z</time></trkpt><trkpt lat="50.356631032235725" lon="3.967165227758233"><ele>104.75</ele><time>2026-04-30T15:50:13.999Z</time></trkpt><trkpt lat="50.35677461580308" lon="3.9671320862707438"><ele>104.0</ele><time>2026-04-30T15:50:14.999Z</time></trkpt><trkpt lat="50.35692487892621" lon="3.96709940726137"><ele>104.0</ele><time>2026-04-30T15:50:15.999Z</time></trkpt><trkpt lat="50.357081658414224" lon="3.9670730550130417"><ele>104.0</ele><time>2026-04-30T15:50:16.999Z</time></trkpt><trkpt lat="50.3572405540247" lon="3.967055691301907"><ele>104.0</ele><time>2026-04-30T15:50:17.999Z</time></trkpt><trkpt lat="50.357396742547344" lon="3.9670426333450832"><ele>103.0</ele><time>2026-04-30T15:50:18.999Z</time></trkpt><trkpt lat="50.35754715896578" lon="3.9670330288576223"><ele>102.0</ele><time>2026-04-30T15:50:19.999Z</time></trkpt><trkpt lat="50.3577026726767" lon="3.967030624191661"><ele>101.0</ele><time>2026-04-30T15:50:20.999Z</time></trkpt><trkpt lat="50.357870787036" lon="3.9670286407769537"><ele>100.0</ele><time>2026-04-30T15:50:21.999Z</time></trkpt><trkpt lat="50.35804523530872" lon="3.967025089079117"><ele>99.0</ele><time>2026-04-30T15:50:22.999Z</time></trkpt><trkpt lat="50.35824729718325" lon="3.9670175913202126"><ele>98.0</ele><time>2026-04-30T15:50:23.999Z</time></trkpt><trkpt lat="50.35848141501808" lon="3.9670151486276954"><ele>98.0</ele><time>2026-04-30T15:50:24.999Z</time></trkpt><trkpt lat="50.3587368618828" lon="3.967054599034069"><ele>98.0</ele><time>2026-04-30T15:50:25.999Z</time></trkpt><trkpt lat="50.359007806572826" lon="3.967057490040867"><ele>97.5</ele><time>2026-04-30T15:50:26.999Z</time></trkpt><trkpt lat="50.35929512332644" lon="3.967090617336471"><ele>97.0</ele><time>2026-04-30T15:50:27.999Z</time></trkpt><trkpt lat="50.35958908665298" lon="3.967113335713632"><ele>96.0</ele><time>2026-04-30T15:50:28.999Z</time></trkpt><trkpt lat="50.35988225701679" lon="3.9671279029335467"><ele>95.0</ele><time>2026-04-30T15:50:29.999Z</time></trkpt><trkpt lat="50.36015602598293" lon="3.967134420324041"><ele>95.0</ele><time>2026-04-30T15:50:30.999Z</time></trkpt><trkpt lat="50.36042290969989" lon="3.9671455765670407"><ele>95.0</ele><time>2026-04-30T15:50:31.999Z</time></trkpt><trkpt lat="50.36069257648549" lon="3.9671651398027747"><ele>95.0</ele><time>2026-04-30T15:50:32.999Z</time></trkpt><trkpt lat="50.360964718741954" lon="3.9671892765035146"><ele>95.0</ele><time>2026-04-30T15:50:33.999Z</time></trkpt><trkpt lat="50.36123830968319" lon="3.9672058524996654"><ele>93.5</ele><time>2026-04-30T15:50:34.999Z</time></trkpt><trkpt lat="50.3615180880769" lon="3.967218696626406"><ele>92.0</ele><time>2026-04-30T15:50:35.999Z</time></trkpt><trkpt lat="50.361800936469365" lon="3.9672317250513296"><ele>92.0</ele><time>2026-04-30T15:50:36.999Z</time></trkpt><trkpt lat="50.362089791449044" lon="3.9672493990358797"><ele>92.0</ele><time>2026-04-30T15:50:37.999Z</time></trkpt><trkpt lat="50.36238647900238" lon="3.967264538748839"><ele>91.0</ele><time>2026-04-30T15:50:38.999Z</time></trkpt><trkpt lat="50.36268682324482" lon="3.9672774258664805"><ele>90.0</ele><time>2026-04-30T15:50:39.999Z</time></trkpt><trkpt lat="50.36299020177353" lon="3.967290183020147"><ele>88.5</ele><time>2026-04-30T15:50:40.999Z</time></trkpt><trkpt lat="50.3632875699349" lon="3.967305976971081"><ele>87.0</ele><time>2026-04-30T15:50:41.999Z</time></trkpt><trkpt lat="50.36356813212286" lon="3.9673257361798915"><ele>87.0</ele><time>2026-04-30T15:50:42.999Z</time></trkpt><trkpt lat="50.363834442800936" lon="3.967344577606757"><ele>87.0</ele><time>2026-04-30T15:50:43.999Z</time></trkpt><trkpt lat="50.36409783760408" lon="3.967356280675619"><ele>85.5</ele><time>2026-04-30T15:50:44.999Z</time></trkpt><trkpt lat="50.36436311530903" lon="3.9673655075830783"><ele>84.0</ele><time>2026-04-30T15:50:45.999Z</time></trkpt><trkpt lat="50.36462918607903" lon="3.967381854958716"><ele>83.0</ele><time>2026-04-30T15:50:46.999Z</time></trkpt><trkpt lat="50.36489830406778" lon="3.967398353647383"><ele>82.0</ele><time>2026-04-30T15:50:47.998Z</time></trkpt><trkpt lat="50.365169123527636" lon="3.967411557154525"><ele>82.0</ele><time>2026-04-30T15:50:48.998Z</time></trkpt><trkpt lat="50.365436305834145" lon="3.9674285869854473"><ele>82.0</ele><time>2026-04-30T15:50:49.998Z</time></trkpt><trkpt lat="50.36569469465239" lon="3.967451205416723"><ele>80.5</ele><time>2026-04-30T15:50:50.998Z</time></trkpt><trkpt lat="50.36595006736183" lon="3.9674692002239564"><ele>79.0</ele><time>2026-04-30T15:50:52Z</time></trkpt><trkpt lat="50.36620965359022" lon="3.967486159192172"><ele>78.5</ele><time>2026-04-30T15:50:53Z</time></trkpt><trkpt lat="50.36647519830962" lon="3.9674995966951934"><ele>78.0</ele><time>2026-04-30T15:50:54Z</time></trkpt><trkpt lat="50.36674513740965" lon="3.9675185736598477"><ele>78.5</ele><time>2026-04-30T15:50:55Z</time></trkpt><trkpt lat="50.36702080816181" lon="3.9675429322411153"><ele>79.0</ele><time>2026-04-30T15:50:56Z</time></trkpt><trkpt lat="50.36730280258033" lon="3.9675662928345132"><ele>78.0</ele><time>2026-04-30T15:50:57Z</time></trkpt><trkpt lat="50.36758551253913" lon="3.9675745928708155"><ele>77.0</ele><time>2026-04-30T15:50:58Z</time></trkpt><trkpt lat="50.36787213426646" lon="3.9675907943794826"><ele>77.5</ele><time>2026-04-30T15:50:59Z</time></trkpt><trkpt lat="50.36814930438469" lon="3.967614598862428"><ele>78.0</ele><time>2026-04-30T15:51:00Z</time></trkpt><trkpt lat="50.36842735237638" lon="3.967634145748594"><ele>78.0</ele><time>2026-04-30T15:51:01Z</time></trkpt><trkpt lat="50.36870223859199" lon="3.9676519984388197"><ele>78.0</ele><time>2026-04-30T15:51:02Z</time></trkpt><trkpt lat="50.368975734205385" lon="3.9676752721330346"><ele>76.5</ele><time>2026-04-30T15:51:03Z</time></trkpt><trkpt lat="50.36924620791984" lon="3.967692063071043"><ele>75.0</ele><time>2026-04-30T15:51:04Z</time></trkpt><trkpt lat="50.369514151026976" lon="3.9677027304932397"><ele>75.0</ele><time>2026-04-30T15:51:05Z</time></trkpt><trkpt lat="50.36978232276678" lon="3.967711985226724"><ele>75.0</ele><time>2026-04-30T15:51:06Z</time></trkpt><trkpt lat="50.37005768731562" lon="3.9677224332576704"><ele>75.0</ele><time>2026-04-30T15:51:07Z</time></trkpt><trkpt lat="50.37033709806465" lon="3.9677421513483875"><ele>75.0</ele><time>2026-04-30T15:51:08Z</time></trkpt><trkpt lat="50.370620831092246" lon="3.967762328769195"><ele>75.0</ele><time>2026-04-30T15:51:09Z</time></trkpt><trkpt lat="50.3709069409275" lon="3.9677817398949617"><ele>75.0</ele><time>2026-04-30T15:51:10Z</time></trkpt><trkpt lat="50.37118774773803" lon="3.9677991966997412"><ele>74.5</ele><time>2026-04-30T15:51:11Z</time></trkpt><trkpt lat="50.371463730354" lon="3.967816265810758"><ele>74.0</ele><time>2026-04-30T15:51:12Z</time></trkpt><trkpt lat="50.371736748686345" lon="3.9678317581337694"><ele>74.0</ele><time>2026-04-30T15:51:13Z</time></trkpt><trkpt lat="50.372006541392864" lon="3.9678495745630302"><ele>74.0</ele><time>2026-04-30T15:51:14Z</time></trkpt><trkpt lat="50.372273487091974" lon="3.967866875675472"><ele>73.5</ele><time>2026-04-30T15:51:15Z</time></trkpt><trkpt lat="50.372541808996246" lon="3.9678881146872493"><ele>73.0</ele><time>2026-04-30T15:51:16Z</time></trkpt><trkpt lat="50.372811885935434" lon="3.9679031191249257"><ele>72.0</ele><time>2026-04-30T15:51:17Z</time></trkpt><trkpt lat="50.37308765711967" lon="3.9679179675852088"><ele>71.0</ele><time>2026-04-30T15:51:18Z</time></trkpt><trkpt lat="50.373361566623494" lon="3.9679319544992286"><ele>71.0</ele><time>2026-04-30T15:51:19Z</time></trkpt><trkpt lat="50.373637535597894" lon="3.967948211409794"><ele>71.0</ele><time>2026-04-30T15:51:20Z</time></trkpt><trkpt lat="50.37390225004813" lon="3.9679688341582056"><ele>69.0</ele><time>2026-04-30T15:51:21Z</time></trkpt><trkpt lat="50.374148138748" lon="3.967990099112679"><ele>67.0</ele><time>2026-04-30T15:51:22Z</time></trkpt><trkpt lat="50.374384387486714" lon="3.9680047147261193"><ele>67.0</ele><time>2026-04-30T15:51:23Z</time></trkpt><trkpt lat="50.374606990672056" lon="3.9680110763936196"><ele>67.0</ele><time>2026-04-30T15:51:24Z</time></trkpt><trkpt lat="50.37482662375557" lon="3.9680134805787683"><ele>67.0</ele><time>2026-04-30T15:51:25Z</time></trkpt><trkpt lat="50.37504775757045" lon="3.9680065393424107"><ele>67.5</ele><time>2026-04-30T15:51:26Z</time></trkpt><trkpt lat="50.37527173655654" lon="3.967970439206672"><ele>68.0</ele><time>2026-04-30T15:51:27Z</time></trkpt><trkpt lat="50.37549633662907" lon="3.9679175215637636"><ele>67.0</ele><time>2026-04-30T15:51:28Z</time></trkpt><trkpt lat="50.375707383875294" lon="3.9678504249120303"><ele>66.0</ele><time>2026-04-30T15:51:29Z</time></trkpt><trkpt lat="50.375915912304194" lon="3.9677678176189497"><ele>65.0</ele><time>2026-04-30T15:51:30Z</time></trkpt><trkpt lat="50.376118860417144" lon="3.967675348908593"><ele>65.0</ele><time>2026-04-30T15:51:31Z</time></trkpt><trkpt lat="50.37630919849137" lon="3.9675759603249334"><ele>65.0</ele><time>2026-04-30T15:51:32Z</time></trkpt><trkpt lat="50.376498598634605" lon="3.967468922301757"><ele>65.0</ele><time>2026-04-30T15:51:33Z</time></trkpt><trkpt lat="50.376687559281" lon="3.9673597781948056"><ele>64.33333333333334</ele><time>2026-04-30T15:51:34Z</time></trkpt><trkpt lat="50.376877887798166" lon="3.967256509379034"><ele>63.66666666666667</ele><time>2026-04-30T15:51:35Z</time></trkpt><trkpt lat="50.37706494983048" lon="3.967163935080567"><ele>63.0</ele><time>2026-04-30T15:51:36Z</time></trkpt><trkpt lat="50.37725024035527" lon="3.9670703339057365"><ele>62.0</ele><time>2026-04-30T15:51:37Z</time></trkpt><trkpt lat="50.377434810622965" lon="3.966970995206802"><ele>61.0</ele><time>2026-04-30T15:51:38Z</time></trkpt><trkpt lat="50.37761939369533" lon="3.966866927359908"><ele>60.0</ele><time>2026-04-30T15:51:39Z</time></trkpt><trkpt lat="50.37780630990535" lon="3.9667629083237292"><ele>60.66666666666667</ele><time>2026-04-30T15:51:40Z</time></trkpt><trkpt lat="50.37799164247408" lon="3.9666603029334926"><ele>61.333333333333336</ele><time>2026-04-30T15:51:41Z</time></trkpt><trkpt lat="50.378176761369396" lon="3.966561445679054"><ele>62.0</ele><time>2026-04-30T15:51:42Z</time></trkpt><trkpt lat="50.378362614422315" lon="3.9664695137446375"><ele>62.0</ele><time>2026-04-30T15:51:43Z</time></trkpt><trkpt lat="50.37855092308758" lon="3.9663872615762736"><ele>62.0</ele><time>2026-04-30T15:51:44Z</time></trkpt><trkpt lat="50.37873826639587" lon="3.966317915694884"><ele>62.0</ele><time>2026-04-30T15:51:45Z</time></trkpt><trkpt lat="50.378926070869305" lon="3.9662662791802594"><ele>62.0</ele><time>2026-04-30T15:51:46Z</time></trkpt><trkpt lat="50.37911366226464" lon="3.966227764671331"><ele>62.0</ele><time>2026-04-30T15:51:47Z</time></trkpt><trkpt lat="50.37930917774829" lon="3.9661998442822806"><ele>62.0</ele><time>2026-04-30T15:51:48Z</time></trkpt><trkpt lat="50.379511082112" lon="3.966175736821582"><ele>62.66666666666667</ele><time>2026-04-30T15:51:49Z</time></trkpt><trkpt lat="50.379713116350466" lon="3.9661540394979253"><ele>63.33333333333333</ele><time>2026-04-30T15:51:50Z</time></trkpt><trkpt lat="50.37991591783331" lon="3.9661382497016726"><ele>64.0</ele><time>2026-04-30T15:51:51Z</time></trkpt><trkpt lat="50.38011729278302" lon="3.966122648388958"><ele>64.0</ele><time>2026-04-30T15:51:52Z</time></trkpt><trkpt lat="50.38032666595706" lon="3.9661014298601707"><ele>64.0</ele><time>2026-04-30T15:51:53Z</time></trkpt><trkpt lat="50.380560779504364" lon="3.966069650280658"><ele>64.0</ele><time>2026-04-30T15:51:54Z</time></trkpt><trkpt lat="50.38080531650961" lon="3.966048309745528"><ele>66.0</ele><time>2026-04-30T15:51:55Z</time></trkpt><trkpt lat="50.381046252587595" lon="3.966038097003632"><ele>68.0</ele><time>2026-04-30T15:51:56Z</time></trkpt><trkpt lat="50.381278639065016" lon="3.966027958247362"><ele>69.5</ele><time>2026-04-30T15:51:57Z</time></trkpt><trkpt lat="50.38150665428249" lon="3.966015037126529"><ele>71.0</ele><time>2026-04-30T15:51:58Z</time></trkpt><trkpt lat="50.381734869161924" lon="3.966002191331733"><ele>71.0</ele><time>2026-04-30T15:51:59Z</time></trkpt><trkpt lat="50.38196333318224" lon="3.9659892436500233"><ele>71.0</ele><time>2026-04-30T15:52:00Z</time></trkpt><trkpt lat="50.382190867338146" lon="3.965982721597073"><ele>73.5</ele><time>2026-04-30T15:52:01Z</time></trkpt><trkpt lat="50.38242339056641" lon="3.965982748137286"><ele>76.0</ele><time>2026-04-30T15:52:01.999Z</time></trkpt><trkpt lat="50.382655710409686" lon="3.9659781080921186"><ele>76.0</ele><time>2026-04-30T15:52:02.999Z</time></trkpt><trkpt lat="50.38287022665687" lon="3.9659719684112558"><ele>76.0</ele><time>2026-04-30T15:52:03.999Z</time></trkpt><trkpt lat="50.38308185064467" lon="3.9659648897693205"><ele>76.0</ele><time>2026-04-30T15:52:04.999Z</time></trkpt><trkpt lat="50.38329141140411" lon="3.9659549709397335"><ele>77.0</ele><time>2026-04-30T15:52:05.999Z</time></trkpt><trkpt lat="50.383496176505915" lon="3.9659459919029123"><ele>78.0</ele><time>2026-04-30T15:52:06.999Z</time></trkpt><trkpt lat="50.3837020823706" lon="3.9659387119940286"><ele>79.0</ele><time>2026-04-30T15:52:07.999Z</time></trkpt><trkpt lat="50.38391474252849" lon="3.965929360310839"><ele>79.66666666666666</ele><time>2026-04-30T15:52:08.999Z</time></trkpt><trkpt lat="50.38413067013716" lon="3.9659139561038494"><ele>80.33333333333333</ele><time>2026-04-30T15:52:09.999Z</time></trkpt><trkpt lat="50.384349045917055" lon="3.9658992143348306"><ele>81.0</ele><time>2026-04-30T15:52:10.999Z</time></trkpt><trkpt lat="50.384560374989675" lon="3.9658914310577593"><ele>80.66666666666667</ele><time>2026-04-30T15:52:11.999Z</time></trkpt><trkpt lat="50.384771593757776" lon="3.9658870654836678"><ele>80.33333333333334</ele><time>2026-04-30T15:52:12.999Z</time></trkpt><trkpt lat="50.38498401397867" lon="3.9658775873209593"><ele>80.0</ele><time>2026-04-30T15:52:13.999Z</time></trkpt><trkpt lat="50.3852040708893" lon="3.9658652037719486"><ele>80.0</ele><time>2026-04-30T15:52:14.999Z</time></trkpt><trkpt lat="50.38542643924809" lon="3.9658522327207626"><ele>80.0</ele><time>2026-04-30T15:52:15.999Z</time></trkpt><trkpt lat="50.385644872769795" lon="3.965837194209104"><ele>80.0</ele><time>2026-04-30T15:52:16.999Z</time></trkpt><trkpt lat="50.385863671799314" lon="3.9658246357163858"><ele>79.66666666666667</ele><time>2026-04-30T15:52:17.999Z</time></trkpt><trkpt lat="50.38608479132712" lon="3.965812693110765"><ele>79.33333333333333</ele><time>2026-04-30T15:52:18.999Z</time></trkpt><trkpt lat="50.386305680595385" lon="3.9658032994441106"><ele>79.0</ele><time>2026-04-30T15:52:19.999Z</time></trkpt><trkpt lat="50.38652318376513" lon="3.9657911950337046"><ele>78.66666666666666</ele><time>2026-04-30T15:52:20.999Z</time></trkpt><trkpt lat="50.386740455984985" lon="3.965778615097058"><ele>78.33333333333333</ele><time>2026-04-30T15:52:21.999Z</time></trkpt><trkpt lat="50.38696214065048" lon="3.9657632422282942"><ele>78.0</ele><time>2026-04-30T15:52:22.999Z</time></trkpt><trkpt lat="50.387187219825115" lon="3.965746998607252"><ele>77.0</ele><time>2026-04-30T15:52:23.999Z</time></trkpt><trkpt lat="50.387419623163815" lon="3.9657305803652365"><ele>76.0</ele><time>2026-04-30T15:52:24.999Z</time></trkpt><trkpt lat="50.38764778056423" lon="3.965717600934657"><ele>76.0</ele><time>2026-04-30T15:52:25.999Z</time></trkpt><trkpt lat="50.387878776151105" lon="3.9657016157163585"><ele>76.0</ele><time>2026-04-30T15:52:26.999Z</time></trkpt><trkpt lat="50.38810984162134" lon="3.9656854775323342"><ele>76.5</ele><time>2026-04-30T15:52:27.999Z</time></trkpt><trkpt lat="50.3883411515563" lon="3.965675646082044"><ele>77.0</ele><time>2026-04-30T15:52:28.999Z</time></trkpt><trkpt lat="50.38856584007916" lon="3.965666800187356"><ele>77.0</ele><time>2026-04-30T15:52:29.999Z</time></trkpt><trkpt lat="50.388785158376" lon="3.965655507425569"><ele>77.0</ele><time>2026-04-30T15:52:30.999Z</time></trkpt><trkpt lat="50.389007418808646" lon="3.965654025984759"><ele>77.0</ele><time>2026-04-30T15:52:31.999Z</time></trkpt><trkpt lat="50.38923334729112" lon="3.965672884382684"><ele>79.0</ele><time>2026-04-30T15:52:32.999Z</time></trkpt><trkpt lat="50.38945431778966" lon="3.965709017655206"><ele>81.0</ele><time>2026-04-30T15:52:33.999Z</time></trkpt><trkpt lat="50.389675939509" lon="3.965758676870107"><ele>83.0</ele><time>2026-04-30T15:52:34.999Z</time></trkpt><trkpt lat="50.38989832669078" lon="3.965820665503633"><ele>80.5</ele><time>2026-04-30T15:52:35.999Z</time></trkpt><trkpt lat="50.390123927867464" lon="3.965894350917193"><ele>78.0</ele><time>2026-04-30T15:52:36.999Z</time></trkpt><trkpt lat="50.3903519066043" lon="3.965974123399137"><ele>79.0</ele><time>2026-04-30T15:52:37.999Z</time></trkpt><trkpt lat="50.390711659817335" lon="3.9662263214092217"><ele>80.0</ele><time>2026-04-30T15:52:39.999Z</time></trkpt><trkpt lat="50.39092301090339" lon="3.9663445022389743"><ele>80.0</ele><time>2026-04-30T15:52:40.999Z</time></trkpt><trkpt lat="50.39113594129742" lon="3.966455398052058"><ele>80.0</ele><time>2026-04-30T15:52:41.999Z</time></trkpt><trkpt lat="50.39135075837184" lon="3.9665514273085827"><ele>80.0</ele><time>2026-04-30T15:52:42.999Z</time></trkpt><trkpt lat="50.39156207461315" lon="3.966633514252567"><ele>80.0</ele><time>2026-04-30T15:52:43.999Z</time></trkpt><trkpt lat="50.39177039268613" lon="3.966688526161978"><ele>80.0</ele><time>2026-04-30T15:52:44.999Z</time></trkpt><trkpt lat="50.39198843073641" lon="3.9667270168057884"><ele>80.0</ele><time>2026-04-30T15:52:45.999Z</time></trkpt><trkpt lat="50.39221552491506" lon="3.9667579447387586"><ele>80.66666666666667</ele><time>2026-04-30T15:52:46.999Z</time></trkpt><trkpt lat="50.39243819090178" lon="3.966769655865881"><ele>81.33333333333333</ele><time>2026-04-30T15:52:47.999Z</time></trkpt><trkpt lat="50.3926643371556" lon="3.966763554358241"><ele>82.0</ele><time>2026-04-30T15:52:48.999Z</time></trkpt><trkpt lat="50.39290408389202" lon="3.966738508839466"><ele>81.0</ele><time>2026-04-30T15:52:49.999Z</time></trkpt><trkpt lat="50.39315707142536" lon="3.966691374920932"><ele>80.0</ele><time>2026-04-30T15:52:50.999Z</time></trkpt><trkpt lat="50.393419591317816" lon="3.966629191118835"><ele>80.0</ele><time>2026-04-30T15:52:51.999Z</time></trkpt><trkpt lat="50.39369121204368" lon="3.966557933872447"><ele>80.0</ele><time>2026-04-30T15:52:52.999Z</time></trkpt><trkpt lat="50.39394235017352" lon="3.9665072386292324"><ele>79.0</ele><time>2026-04-30T15:52:53.999Z</time></trkpt><trkpt lat="50.39418052958925" lon="3.9664618360610935"><ele>78.0</ele><time>2026-04-30T15:52:54.999Z</time></trkpt><trkpt lat="50.3944049637828" lon="3.9664200977250084"><ele>78.0</ele><time>2026-04-30T15:52:55.999Z</time></trkpt><trkpt lat="50.394632692727214" lon="3.9663821325520012"><ele>78.0</ele><time>2026-04-30T15:52:56.999Z</time></trkpt><trkpt lat="50.39486381508277" lon="3.966334026130079"><ele>77.5</ele><time>2026-04-30T15:52:58.001Z</time></trkpt><trkpt lat="50.395102310248134" lon="3.966282930843512"><ele>77.0</ele><time>2026-04-30T15:52:59.001Z</time></trkpt><trkpt lat="50.39534352777261" lon="3.966236547001727"><ele>77.0</ele><time>2026-04-30T15:53:00.001Z</time></trkpt><trkpt lat="50.39559187280442" lon="3.9661989286798596"><ele>77.0</ele><time>2026-04-30T15:53:01.001Z</time></trkpt><trkpt lat="50.39583386115212" lon="3.9661570473090113"><ele>77.0</ele><time>2026-04-30T15:53:02.001Z</time></trkpt><trkpt lat="50.396064006051986" lon="3.9661010091045736"><ele>77.0</ele><time>2026-04-30T15:53:03.001Z</time></trkpt><trkpt lat="50.39628751517824" lon="3.9660620718536195"><ele>77.5</ele><time>2026-04-30T15:53:04.001Z</time></trkpt><trkpt lat="50.396510442500194" lon="3.9660304019284633"><ele>78.0</ele><time>2026-04-30T15:53:05.001Z</time></trkpt><trkpt lat="50.396738159889466" lon="3.966021509998407"><ele>78.0</ele><time>2026-04-30T15:53:06.001Z</time></trkpt><trkpt lat="50.39696526464445" lon="3.9660276036781528"><ele>78.0</ele><time>2026-04-30T15:53:07.001Z</time></trkpt><trkpt lat="50.3971954024462" lon="3.9660424321424816"><ele>76.0</ele><time>2026-04-30T15:53:08.001Z</time></trkpt><trkpt lat="50.39743143353561" lon="3.9660632441246766"><ele>74.0</ele><time>2026-04-30T15:53:09.001Z</time></trkpt><trkpt lat="50.39767191624271" lon="3.9660993120654364"><ele>74.0</ele><time>2026-04-30T15:53:10.001Z</time></trkpt><trkpt lat="50.397913813448724" lon="3.9661526357446633"><ele>74.0</ele><time>2026-04-30T15:53:11.001Z</time></trkpt><trkpt lat="50.39814806695059" lon="3.9662164486128817"><ele>72.5</ele><time>2026-04-30T15:53:12.001Z</time></trkpt><trkpt lat="50.39837324581675" lon="3.966295177726414"><ele>71.0</ele><time>2026-04-30T15:53:13.001Z</time></trkpt><trkpt lat="50.39859829729823" lon="3.9663825885574764"><ele>71.0</ele><time>2026-04-30T15:53:14Z</time></trkpt><trkpt lat="50.398824208381996" lon="3.966488259226047"><ele>71.0</ele><time>2026-04-30T15:53:15Z</time></trkpt><trkpt lat="50.3990522995775" lon="3.9666006758769474"><ele>71.5</ele><time>2026-04-30T15:53:16Z</time></trkpt><trkpt lat="50.399285036003405" lon="3.9667173915596874"><ele>72.0</ele><time>2026-04-30T15:53:17Z</time></trkpt><trkpt lat="50.39951145973329" lon="3.966835254581337"><ele>69.5</ele><time>2026-04-30T15:53:18Z</time></trkpt><trkpt lat="50.39973009188825" lon="3.9669449985593097"><ele>67.0</ele><time>2026-04-30T15:53:19Z</time></trkpt><trkpt lat="50.39995055742658" lon="3.967046348015513"><ele>67.0</ele><time>2026-04-30T15:53:20Z</time></trkpt><trkpt lat="50.40016776429037" lon="3.96713863804929"><ele>67.0</ele><time>2026-04-30T15:53:21Z</time></trkpt><trkpt lat="50.400381229831375" lon="3.9672045090386545"><ele>67.0</ele><time>2026-04-30T15:53:22Z</time></trkpt><trkpt lat="50.400595477460406" lon="3.967247879540706"><ele>65.0</ele><time>2026-04-30T15:53:23Z</time></trkpt><trkpt lat="50.40081293585748" lon="3.967276511108666"><ele>63.0</ele><time>2026-04-30T15:53:24Z</time></trkpt><trkpt lat="50.401038070026054" lon="3.967287778407419"><ele>61.0</ele><time>2026-04-30T15:53:25Z</time></trkpt><trkpt lat="50.40126843399125" lon="3.9672843425515523"><ele>60.5</ele><time>2026-04-30T15:53:26Z</time></trkpt><trkpt lat="50.4014934586728" lon="3.967322293528985"><ele>60.0</ele><time>2026-04-30T15:53:27Z</time></trkpt><trkpt lat="50.401722758833074" lon="3.9672168948502042"><ele>60.0</ele><time>2026-04-30T15:53:28Z</time></trkpt><trkpt lat="50.401943290625354" lon="3.9671640788068663"><ele>60.0</ele><time>2026-04-30T15:53:29Z</time></trkpt><trkpt lat="50.402169026563" lon="3.9670921174529195"><ele>61.0</ele><time>2026-04-30T15:53:30Z</time></trkpt><trkpt lat="50.40239382290477" lon="3.967001750687505"><ele>62.0</ele><time>2026-04-30T15:53:31Z</time></trkpt><trkpt lat="50.402617004653166" lon="3.966884736526637"><ele>62.0</ele><time>2026-04-30T15:53:32Z</time></trkpt><trkpt lat="50.402831615038416" lon="3.9667545791319463"><ele>62.0</ele><time>2026-04-30T15:53:33Z</time></trkpt><trkpt lat="50.403036294468066" lon="3.966611381297087"><ele>63.66666666666667</ele><time>2026-04-30T15:53:34Z</time></trkpt><trkpt lat="50.40323372058839" lon="3.9664536734213636"><ele>65.33333333333333</ele><time>2026-04-30T15:53:35Z</time></trkpt><trkpt lat="50.403423816914405" lon="3.9662810020891257"><ele>67.0</ele><time>2026-04-30T15:53:36Z</time></trkpt><trkpt lat="50.40360686026334" lon="3.9660921449314013"><ele>67.0</ele><time>2026-04-30T15:53:37Z</time></trkpt><trkpt lat="50.40378585654441" lon="3.9658864691811306"><ele>67.0</ele><time>2026-04-30T15:53:38Z</time></trkpt><trkpt lat="50.40396074369176" lon="3.965669739693618"><ele>67.0</ele><time>2026-04-30T15:53:39Z</time></trkpt><trkpt lat="50.40413481685654" lon="3.9654381555868405"><ele>64.5</ele><time>2026-04-30T15:53:40Z</time></trkpt><trkpt lat="50.40430024629095" lon="3.9651864667852146"><ele>62.0</ele><time>2026-04-30T15:53:41Z</time></trkpt><trkpt lat="50.40445622104011" lon="3.9649204953665906"><ele>61.333333333333336</ele><time>2026-04-30T15:53:42Z</time></trkpt><trkpt lat="50.40460412930631" lon="3.9646406806078285"><ele>60.66666666666667</ele><time>2026-04-30T15:53:43Z</time></trkpt><trkpt lat="50.40473353375934" lon="3.9643681208548767"><ele>60.0</ele><time>2026-04-30T15:53:44Z</time></trkpt><trkpt lat="50.404856369460134" lon="3.9640885729628534"><ele>58.66666666666667</ele><time>2026-04-30T15:53:45Z</time></trkpt><trkpt lat="50.40496966913999" lon="3.9638033493034976"><ele>57.333333333333336</ele><time>2026-04-30T15:53:45.999Z</time></trkpt><trkpt lat="50.40507641206888" lon="3.9635124767299894"><ele>56.0</ele><time>2026-04-30T15:53:46.999Z</time></trkpt><trkpt lat="50.405174185009756" lon="3.963202499121347"><ele>54.5</ele><time>2026-04-30T15:53:47.999Z</time></trkpt><trkpt lat="50.405266328744766" lon="3.9628772869824833"><ele>53.0</ele><time>2026-04-30T15:53:48.999Z</time></trkpt><trkpt lat="50.40535282252248" lon="3.962534312563261"><ele>52.5</ele><time>2026-04-30T15:53:49.999Z</time></trkpt><trkpt lat="50.40542724474929" lon="3.9621784046901127"><ele>52.0</ele><time>2026-04-30T15:53:50.999Z</time></trkpt><trkpt lat="50.405498884220194" lon="3.961818341749468"><ele>51.0</ele><time>2026-04-30T15:53:51.999Z</time></trkpt><trkpt lat="50.40556580653251" lon="3.9614697719429426"><ele>50.0</ele><time>2026-04-30T15:53:52.999Z</time></trkpt><trkpt lat="50.405626159029374" lon="3.9611197422882247"><ele>49.5</ele><time>2026-04-30T15:53:53.999Z</time></trkpt><trkpt lat="50.40567958893077" lon="3.9607631871781903"><ele>49.0</ele><time>2026-04-30T15:53:54.999Z</time></trkpt><trkpt lat="50.40572410741292" lon="3.9603937469006403"><ele>48.0</ele><time>2026-04-30T15:53:55.999Z</time></trkpt><trkpt lat="50.4057717509495" lon="3.9600036548981414"><ele>47.0</ele><time>2026-04-30T15:53:56.999Z</time></trkpt><trkpt lat="50.40582421190305" lon="3.959597610852833"><ele>46.5</ele><time>2026-04-30T15:53:57.999Z</time></trkpt><trkpt lat="50.405883705513645" lon="3.95916094789879"><ele>46.0</ele><time>2026-04-30T15:53:58.999Z</time></trkpt><trkpt lat="50.40594867931465" lon="3.9587029360004147"><ele>46.0</ele><time>2026-04-30T15:53:59.999Z</time></trkpt><trkpt lat="50.406014832517656" lon="3.9582316590427924"><ele>46.0</ele><time>2026-04-30T15:54:00.999Z</time></trkpt><trkpt lat="50.406074205434926" lon="3.957782824700959"><ele>45.5</ele><time>2026-04-30T15:54:01.999Z</time></trkpt><trkpt lat="50.406130602979275" lon="3.957340375718072"><ele>45.0</ele><time>2026-04-30T15:54:02.999Z</time></trkpt><trkpt lat="50.40620009605562" lon="3.9568756221857884"><ele>45.0</ele><time>2026-04-30T15:54:03.999Z</time></trkpt><trkpt lat="50.40627379699726" lon="3.9563857580891577"><ele>45.0</ele><time>2026-04-30T15:54:04.999Z</time></trkpt><trkpt lat="50.406347134042164" lon="3.9558787456625093"><ele>44.5</ele><time>2026-04-30T15:54:05.999Z</time></trkpt><trkpt lat="50.40641954739937" lon="3.95535105572735"><ele>44.0</ele><time>2026-04-30T15:54:06.999Z</time></trkpt><trkpt lat="50.40649472019554" lon="3.9548017869663665"><ele>44.0</ele><time>2026-04-30T15:54:07.999Z</time></trkpt><trkpt lat="50.406574317752344" lon="3.954242177112982"><ele>44.0</ele><time>2026-04-30T15:54:08.999Z</time></trkpt><trkpt lat="50.406662996800065" lon="3.9536745874770873"><ele>45.0</ele><time>2026-04-30T15:54:09.999Z</time></trkpt><trkpt lat="50.4067632921886" lon="3.9531030045095727"><ele>46.0</ele><time>2026-04-30T15:54:10.999Z</time></trkpt><trkpt lat="50.40687068066207" lon="3.9525299355747854"><ele>47.0</ele><time>2026-04-30T15:54:11.999Z</time></trkpt><trkpt lat="50.40698333677746" lon="3.9519685053427267"><ele>48.0</ele><time>2026-04-30T15:54:12.999Z</time></trkpt><trkpt lat="50.40709459403461" lon="3.9514261165950293"><ele>47.5</ele><time>2026-04-30T15:54:13.999Z</time></trkpt><trkpt lat="50.407202487699294" lon="3.950898689630616"><ele>47.0</ele><time>2026-04-30T15:54:14.999Z</time></trkpt><trkpt lat="50.40730778412859" lon="3.9503793739978894"><ele>48.5</ele><time>2026-04-30T15:54:15.999Z</time></trkpt><trkpt lat="50.40741546870263" lon="3.9498583174243427"><ele>50.0</ele><time>2026-04-30T15:54:16.999Z</time></trkpt><trkpt lat="50.40752295710453" lon="3.9493414376566927"><ele>50.0</ele><time>2026-04-30T15:54:17.999Z</time></trkpt><trkpt lat="50.40763616553382" lon="3.948816617300724"><ele>50.0</ele><time>2026-04-30T15:54:18.999Z</time></trkpt><trkpt lat="50.40775148377441" lon="3.948287771147138"><ele>50.0</ele><time>2026-04-30T15:54:19.999Z</time></trkpt><trkpt lat="50.40787298835623" lon="3.947752992639279"><ele>50.0</ele><time>2026-04-30T15:54:20.999Z</time></trkpt><trkpt lat="50.40799895435546" lon="3.9472178449330073"><ele>51.0</ele><time>2026-04-30T15:54:21.999Z</time></trkpt><trkpt lat="50.408130411476776" lon="3.946677221975465"><ele>52.0</ele><time>2026-04-30T15:54:22.998Z</time></trkpt><trkpt lat="50.40826038657157" lon="3.946154530261341"><ele>54.0</ele><time>2026-04-30T15:54:23.998Z</time></trkpt><trkpt lat="50.40839013866999" lon="3.9456491603766914"><ele>56.0</ele><time>2026-04-30T15:54:24.998Z</time></trkpt><trkpt lat="50.40851485318748" lon="3.94515026447992"><ele>58.0</ele><time>2026-04-30T15:54:25.998Z</time></trkpt><trkpt lat="50.40864373802801" lon="3.9446615829417753"><ele>60.0</ele><time>2026-04-30T15:54:26.998Z</time></trkpt><trkpt lat="50.40877080401333" lon="3.9441809978411237"><ele>60.5</ele><time>2026-04-30T15:54:27.998Z</time></trkpt><trkpt lat="50.40889760523447" lon="3.9437094878492545"><ele>61.0</ele><time>2026-04-30T15:54:28.998Z</time></trkpt><trkpt lat="50.409021807319895" lon="3.9432602365898592"><ele>61.0</ele><time>2026-04-30T15:54:29.998Z</time></trkpt><trkpt lat="50.409142463235085" lon="3.9428341264795757"><ele>61.0</ele><time>2026-04-30T15:54:30.998Z</time></trkpt><trkpt lat="50.409257696275496" lon="3.9424234222544556"><ele>61.0</ele><time>2026-04-30T15:54:31.998Z</time></trkpt><trkpt lat="50.40937536686632" lon="3.9419894561274607"><ele>61.0</ele><time>2026-04-30T15:54:32.998Z</time></trkpt><trkpt lat="50.40950393913165" lon="3.9415295172112637"><ele>61.0</ele><time>2026-04-30T15:54:33.998Z</time></trkpt><trkpt lat="50.40964568690418" lon="3.941050611912404"><ele>61.0</ele><time>2026-04-30T15:54:34.998Z</time></trkpt><trkpt lat="50.4097994888733" lon="3.9405607801263476"><ele>59.5</ele><time>2026-04-30T15:54:35.998Z</time></trkpt><trkpt lat="50.40995303973268" lon="3.9400710620032906"><ele>58.0</ele><time>2026-04-30T15:54:36.998Z</time></trkpt><trkpt lat="50.41011454938168" lon="3.939580413671687"><ele>56.0</ele><time>2026-04-30T15:54:37.998Z</time></trkpt><trkpt lat="50.41028254873627" lon="3.9390936464675894"><ele>54.0</ele><time>2026-04-30T15:54:38.998Z</time></trkpt><trkpt lat="50.410450798098715" lon="3.938612819595473"><ele>52.0</ele><time>2026-04-30T15:54:39.998Z</time></trkpt><trkpt lat="50.410610543099416" lon="3.9381396579610506"><ele>50.0</ele><time>2026-04-30T15:54:40.998Z</time></trkpt><trkpt lat="50.410765848247344" lon="3.9376715895959093"><ele>48.5</ele><time>2026-04-30T15:54:41.998Z</time></trkpt><trkpt lat="50.41091605796264" lon="3.937216421179111"><ele>47.0</ele><time>2026-04-30T15:54:42.998Z</time></trkpt><trkpt lat="50.41106799153402" lon="3.9367895771146535"><ele>46.0</ele><time>2026-04-30T15:54:43.998Z</time></trkpt><trkpt lat="50.411217653037596" lon="3.936373117981676"><ele>45.0</ele><time>2026-04-30T15:54:44.998Z</time></trkpt><trkpt lat="50.411358176840835" lon="3.9359630692295218"><ele>46.0</ele><time>2026-04-30T15:54:45.997Z</time></trkpt><trkpt lat="50.411483342630675" lon="3.9355681023058113"><ele>47.0</ele><time>2026-04-30T15:54:46.997Z</time></trkpt><trkpt lat="50.41160728886637" lon="3.9351685181692893"><ele>48.0</ele><time>2026-04-30T15:54:47.997Z</time></trkpt><trkpt lat="50.41173375315804" lon="3.934763849459719"><ele>49.0</ele><time>2026-04-30T15:54:48.997Z</time></trkpt><trkpt lat="50.41186167834779" lon="3.934355552535297"><ele>49.5</ele><time>2026-04-30T15:54:49.997Z</time></trkpt><trkpt lat="50.41199362500591" lon="3.9339544064859857"><ele>50.0</ele><time>2026-04-30T15:54:50.997Z</time></trkpt><trkpt lat="50.41212865563072" lon="3.9335548251840287"><ele>50.0</ele><time>2026-04-30T15:54:51.997Z</time></trkpt><trkpt lat="50.41226792004116" lon="3.93315542073145"><ele>50.0</ele><time>2026-04-30T15:54:52.997Z</time></trkpt><trkpt lat="50.412415774173745" lon="3.9327628463107684"><ele>50.0</ele><time>2026-04-30T15:54:53.997Z</time></trkpt><trkpt lat="50.41256072873959" lon="3.9323986140430134"><ele>50.0</ele><time>2026-04-30T15:54:54.997Z</time></trkpt><trkpt lat="50.412694300355874" lon="3.932076746905089"><ele>50.0</ele><time>2026-04-30T15:54:55.997Z</time></trkpt><trkpt lat="50.4128241362529" lon="3.9317657498133016"><ele>50.0</ele><time>2026-04-30T15:54:56.997Z</time></trkpt><trkpt lat="50.41295855236217" lon="3.931453684178652"><ele>49.0</ele><time>2026-04-30T15:54:57.997Z</time></trkpt><trkpt lat="50.413101838782694" lon="3.931142511659243"><ele>48.0</ele><time>2026-04-30T15:54:58.997Z</time></trkpt><trkpt lat="50.413251628101925" lon="3.930838060385864"><ele>48.0</ele><time>2026-04-30T15:54:59.997Z</time></trkpt><trkpt lat="50.41339642279838" lon="3.9305497059430197"><ele>48.0</ele><time>2026-04-30T15:55:00.997Z</time></trkpt><trkpt lat="50.4135313132641" lon="3.930289049101162"><ele>48.0</ele><time>2026-04-30T15:55:01.997Z</time></trkpt><trkpt lat="50.41365783176748" lon="3.9300555084520377"><ele>48.66666666666667</ele><time>2026-04-30T15:55:02.997Z</time></trkpt><trkpt lat="50.41377623841747" lon="3.9298569910598125"><ele>49.333333333333336</ele><time>2026-04-30T15:55:03.999Z</time></trkpt><trkpt lat="50.41388311840434" lon="3.92968239339256"><ele>50.0</ele><time>2026-04-30T15:55:04.999Z</time></trkpt><trkpt lat="50.41398203043625" lon="3.929517271399097"><ele>49.8</ele><time>2026-04-30T15:55:05.999Z</time></trkpt><trkpt lat="50.41406989573681" lon="3.929368164996994"><ele>49.6</ele><time>2026-04-30T15:55:06.999Z</time></trkpt><trkpt lat="50.41414500811294" lon="3.929241696595514"><ele>49.400000000000006</ele><time>2026-04-30T15:55:07.999Z</time></trkpt><trkpt lat="50.4142110217761" lon="3.929137343524965"><ele>49.2</ele><time>2026-04-30T15:55:08.999Z</time></trkpt><trkpt lat="50.41426432730575" lon="3.929055276085778"><ele>49.0</ele><time>2026-04-30T15:55:10.999Z</time></trkpt><trkpt lat="50.41440776662193" lon="3.9292496837859403"><ele>47.666666666666664</ele><time>2026-04-30T15:55:11.999Z</time></trkpt><trkpt lat="50.414486878463876" lon="3.929367491958914"><ele>46.33333333333333</ele><time>2026-04-30T15:55:12.999Z</time></trkpt><trkpt lat="50.41459702234587" lon="3.9295745622864704"><ele>45.0</ele><time>2026-04-30T15:55:13.999Z</time></trkpt><trkpt lat="50.41472353906833" lon="3.9297872517452648"><ele>49.0</ele><time>2026-04-30T15:55:14.999Z</time></trkpt><trkpt lat="50.41486523646345" lon="3.9300450226963655"><ele>53.0</ele><time>2026-04-30T15:55:16Z</time></trkpt><trkpt lat="50.415021827503665" lon="3.930329739523705"><ele>53.0</ele><time>2026-04-30T15:55:17Z</time></trkpt><trkpt lat="50.415191361657314" lon="3.9306498405991834"><ele>53.0</ele><time>2026-04-30T15:55:18Z</time></trkpt><trkpt lat="50.41537426721078" lon="3.9309990813205347"><ele>53.0</ele><time>2026-04-30T15:55:19Z</time></trkpt><trkpt lat="50.41556245410007" lon="3.9313607479833004"><ele>53.0</ele><time>2026-04-30T15:55:20Z</time></trkpt><trkpt lat="50.41576081212389" lon="3.931737627802043"><ele>53.0</ele><time>2026-04-30T15:55:21Z</time></trkpt><trkpt lat="50.41595928806917" lon="3.932117916028893"><ele>53.0</ele><time>2026-04-30T15:55:22Z</time></trkpt><trkpt lat="50.41613899746931" lon="3.9324597263680574"><ele>51.5</ele><time>2026-04-30T15:55:22.999Z</time></trkpt><trkpt lat="50.41631809257355" lon="3.932803101938768"><ele>50.0</ele><time>2026-04-30T15:55:23.999Z</time></trkpt><trkpt lat="50.41650418537747" lon="3.933135970161283"><ele>53.5</ele><time>2026-04-30T15:55:24.999Z</time></trkpt><trkpt lat="50.41669372679034" lon="3.9334651839652657"><ele>57.0</ele><time>2026-04-30T15:55:25.999Z</time></trkpt><trkpt lat="50.41689310658587" lon="3.9337921061587364"><ele>57.0</ele><time>2026-04-30T15:55:26.999Z</time></trkpt><trkpt lat="50.41710210620834" lon="3.934116056168795"><ele>57.0</ele><time>2026-04-30T15:55:27.999Z</time></trkpt><trkpt lat="50.417322156874775" lon="3.9344377857536283"><ele>58.5</ele><time>2026-04-30T15:55:28.999Z</time></trkpt><trkpt lat="50.41753527546601" lon="3.9347477290127966"><ele>60.0</ele><time>2026-04-30T15:55:29.999Z</time></trkpt><trkpt lat="50.417738747632676" lon="3.935033407584607"><ele>59.0</ele><time>2026-04-30T15:55:30.999Z</time></trkpt><trkpt lat="50.417929352996886" lon="3.9353000156083526"><ele>58.0</ele><time>2026-04-30T15:55:31.999Z</time></trkpt><trkpt lat="50.418118905174474" lon="3.9355648056995984"><ele>60.0</ele><time>2026-04-30T15:55:32.999Z</time></trkpt><trkpt lat="50.418306045457165" lon="3.935835637059223"><ele>62.0</ele><time>2026-04-30T15:55:33.999Z</time></trkpt><trkpt lat="50.41849597230723" lon="3.9361108764449373"><ele>62.0</ele><time>2026-04-30T15:55:34.999Z</time></trkpt><trkpt lat="50.4186895763681" lon="3.9363874926121247"><ele>62.0</ele><time>2026-04-30T15:55:35.999Z</time></trkpt><trkpt lat="50.41888361466448" lon="3.9366649656369157"><ele>61.5</ele><time>2026-04-30T15:55:36.999Z</time></trkpt><trkpt lat="50.41907297020334" lon="3.9369347299096678"><ele>61.0</ele><time>2026-04-30T15:55:37.999Z</time></trkpt><trkpt lat="50.41924807830551" lon="3.9371886864717083"><ele>61.0</ele><time>2026-04-30T15:55:38.999Z</time></trkpt><trkpt lat="50.41940673746888" lon="3.937418175213939"><ele>61.0</ele><time>2026-04-30T15:55:39.999Z</time></trkpt><trkpt lat="50.41955726991134" lon="3.937638342000639"><ele>61.0</ele><time>2026-04-30T15:55:40.999Z</time></trkpt><trkpt lat="50.4197008784753" lon="3.937852067336574"><ele>61.0</ele><time>2026-04-30T15:55:41.999Z</time></trkpt><trkpt lat="50.419844818515486" lon="3.938062846555964"><ele>61.0</ele><time>2026-04-30T15:55:42.999Z</time></trkpt><trkpt lat="50.419986906200045" lon="3.9382674150301327"><ele>61.0</ele><time>2026-04-30T15:55:43.999Z</time></trkpt><trkpt lat="50.42012097589657" lon="3.938467347351331"><ele>61.33333333333333</ele><time>2026-04-30T15:55:44.999Z</time></trkpt><trkpt lat="50.42024780181924" lon="3.9386537180714645"><ele>61.66666666666667</ele><time>2026-04-30T15:55:45.999Z</time></trkpt><trkpt lat="50.42037119208482" lon="3.9388283395406094"><ele>62.0</ele><time>2026-04-30T15:55:46.999Z</time></trkpt><trkpt lat="50.4204951842108" lon="3.9390009930846186"><ele>61.333333333333336</ele><time>2026-04-30T15:55:47.999Z</time></trkpt><trkpt lat="50.420615061944375" lon="3.939175522920551"><ele>60.66666666666667</ele><time>2026-04-30T15:55:48.999Z</time></trkpt><trkpt lat="50.42073417910469" lon="3.939353879655174"><ele>60.0</ele><time>2026-04-30T15:55:49.999Z</time></trkpt><trkpt lat="50.4208555223814" lon="3.9395301393339244"><ele>60.0</ele><time>2026-04-30T15:55:50.999Z</time></trkpt><trkpt lat="50.42097882069589" lon="3.9397132341238152"><ele>60.0</ele><time>2026-04-30T15:55:51.999Z</time></trkpt><trkpt lat="50.42110785434393" lon="3.9398975507656373"><ele>60.0</ele><time>2026-04-30T15:55:52.999Z</time></trkpt><trkpt lat="50.42123698031743" lon="3.9400900897341264"><ele>59.33333333333333</ele><time>2026-04-30T15:55:53.999Z</time></trkpt><trkpt lat="50.42136424692532" lon="3.9402965337303724"><ele>58.666666666666664</ele><time>2026-04-30T15:55:54.999Z</time></trkpt><trkpt lat="50.42148846719102" lon="3.9405124767870525"><ele>58.0</ele><time>2026-04-30T15:55:55.999Z</time></trkpt><trkpt lat="50.42160992075605" lon="3.9407236067348124"><ele>58.0</ele><time>2026-04-30T15:55:56.999Z</time></trkpt><trkpt lat="50.42172933681681" lon="3.9409331672645727"><ele>58.0</ele><time>2026-04-30T15:55:57.999Z</time></trkpt><trkpt lat="50.42184693531169" lon="3.941150938172067"><ele>58.0</ele><time>2026-04-30T15:55:58.999Z</time></trkpt><trkpt lat="50.42196927250549" lon="3.9413689216511387"><ele>58.0</ele><time>2026-04-30T15:55:59.999Z</time></trkpt><trkpt lat="50.422094626589846" lon="3.941583271371859"><ele>58.0</ele><time>2026-04-30T15:56:00.999Z</time></trkpt><trkpt lat="50.42221299951901" lon="3.9417985719002253"><ele>58.0</ele><time>2026-04-30T15:56:01.999Z</time></trkpt><trkpt lat="50.42233135582866" lon="3.942011669112451"><ele>57.33333333333333</ele><time>2026-04-30T15:56:02.999Z</time></trkpt><trkpt lat="50.42245310624533" lon="3.9422293697238913"><ele>56.66666666666667</ele><time>2026-04-30T15:56:03.999Z</time></trkpt><trkpt lat="50.42258123241437" lon="3.9424433652630206"><ele>56.0</ele><time>2026-04-30T15:56:04.999Z</time></trkpt><trkpt lat="50.42269427890726" lon="3.94267430367765"><ele>56.0</ele><time>2026-04-30T15:56:05.999Z</time></trkpt><trkpt lat="50.422813801325226" lon="3.942843039266427"><ele>56.0</ele><time>2026-04-30T15:56:06.999Z</time></trkpt><trkpt lat="50.4229399326694" lon="3.943028459547874"><ele>56.0</ele><time>2026-04-30T15:56:07.999Z</time></trkpt><trkpt lat="50.42306743483018" lon="3.94321644393221"><ele>55.66666666666667</ele><time>2026-04-30T15:56:08.999Z</time></trkpt><trkpt lat="50.42320194281186" lon="3.9433963466955735"><ele>55.33333333333333</ele><time>2026-04-30T15:56:09.999Z</time></trkpt><trkpt lat="50.42334310823561" lon="3.943561164197227"><ele>55.0</ele><time>2026-04-30T15:56:10.999Z</time></trkpt><trkpt lat="50.42348897147165" lon="3.9437231004203235"><ele>55.0</ele><time>2026-04-30T15:56:11.999Z</time></trkpt><trkpt lat="50.423632212940085" lon="3.9438810257401107"><ele>55.0</ele><time>2026-04-30T15:56:12.999Z</time></trkpt><trkpt lat="50.423784493095894" lon="3.9440269074738055"><ele>55.0</ele><time>2026-04-30T15:56:13.999Z</time></trkpt><trkpt lat="50.42394765192255" lon="3.9441570041546927"><ele>54.33333333333333</ele><time>2026-04-30T15:56:14.999Z</time></trkpt><trkpt lat="50.42412700497227" lon="3.9442739071682325"><ele>53.66666666666667</ele><time>2026-04-30T15:56:15.999Z</time></trkpt><trkpt lat="50.42430712948721" lon="3.944392515661381"><ele>53.0</ele><time>2026-04-30T15:56:16.999Z</time></trkpt><trkpt lat="50.424474526152274" lon="3.944509223726652"><ele>53.0</ele><time>2026-04-30T15:56:17.999Z</time></trkpt><trkpt lat="50.42463773883328" lon="3.9446137902718674"><ele>53.0</ele><time>2026-04-30T15:56:18.999Z</time></trkpt><trkpt lat="50.424809155139926" lon="3.9447129090787962"><ele>53.0</ele><time>2026-04-30T15:56:19.999Z</time></trkpt><trkpt lat="50.42497451062146" lon="3.9448457125552885"><ele>52.333333333333336</ele><time>2026-04-30T15:56:20.999Z</time></trkpt><trkpt lat="50.42514756563874" lon="3.9449631592599252"><ele>51.66666666666667</ele><time>2026-04-30T15:56:21.999Z</time></trkpt><trkpt lat="50.42529776760337" lon="3.94505862476527"><ele>51.0</ele><time>2026-04-30T15:56:22.999Z</time></trkpt><trkpt lat="50.42547242550194" lon="3.945174973078131"><ele>50.66666666666667</ele><time>2026-04-30T15:56:23.999Z</time></trkpt><trkpt lat="50.425649479311666" lon="3.945304648918249"><ele>50.333333333333336</ele><time>2026-04-30T15:56:24.999Z</time></trkpt><trkpt lat="50.42582913264744" lon="3.945429874254458"><ele>50.0</ele><time>2026-04-30T15:56:25.999Z</time></trkpt><trkpt lat="50.42599647480673" lon="3.9455486055794706"><ele>50.0</ele><time>2026-04-30T15:56:26.999Z</time></trkpt><trkpt lat="50.42615316945784" lon="3.945659431626085"><ele>50.0</ele><time>2026-04-30T15:56:27.999Z</time></trkpt><trkpt lat="50.426305656372925" lon="3.945782072673333"><ele>50.0</ele><time>2026-04-30T15:56:28.999Z</time></trkpt><trkpt lat="50.426425231853194" lon="3.945962560667594"><ele>49.5</ele><time>2026-04-30T15:56:29.999Z</time></trkpt><trkpt lat="50.42653175266217" lon="3.94613384766706"><ele>49.0</ele><time>2026-04-30T15:56:30.999Z</time></trkpt><trkpt lat="50.42659818968015" lon="3.946338511789047"><ele>48.5</ele><time>2026-04-30T15:56:31.999Z</time></trkpt><trkpt lat="50.42663090838457" lon="3.946556846108104"><ele>48.0</ele><time>2026-04-30T15:56:32.998Z</time></trkpt><trkpt lat="50.426651453565" lon="3.9467752131732854"><ele>47.333333333333336</ele><time>2026-04-30T15:56:33.998Z</time></trkpt><trkpt lat="50.42664795231962" lon="3.9469838391292207"><ele>46.66666666666667</ele><time>2026-04-30T15:56:34.998Z</time></trkpt><trkpt lat="50.426618122674945" lon="3.947212306892795"><ele>46.0</ele><time>2026-04-30T15:56:35.998Z</time></trkpt><trkpt lat="50.42655910104908" lon="3.947463222184469"><ele>45.5</ele><time>2026-04-30T15:56:36.998Z</time></trkpt><trkpt lat="50.426485215453376" lon="3.9476894150350295"><ele>45.0</ele><time>2026-04-30T15:56:37.998Z</time></trkpt><trkpt lat="50.42642111931092" lon="3.947882834656958"><ele>44.5</ele><time>2026-04-30T15:56:38.998Z</time></trkpt><trkpt lat="50.42636867544895" lon="3.9480223836640804"><ele>44.0</ele><time>2026-04-30T15:56:39.998Z</time></trkpt><trkpt lat="50.42632893884428" lon="3.9481317686333335"><ele>44.2</ele><time>2026-04-30T15:56:40.998Z</time></trkpt><trkpt lat="50.42628395277259" lon="3.9482623040623386"><ele>44.400000000000006</ele><time>2026-04-30T15:56:42.998Z</time></trkpt><trkpt lat="50.426253326547254" lon="3.948352973806979"><ele>44.6</ele><time>2026-04-30T15:57:19Z</time></trkpt><trkpt lat="50.42621213574425" lon="3.948478621241346"><ele>44.8</ele><time>2026-04-30T15:57:21Z</time></trkpt><trkpt lat="50.42615920762515" lon="3.9486469814499565"><ele>45.0</ele><time>2026-04-30T15:57:23Z</time></trkpt><trkpt lat="50.42630355445085" lon="3.948793732785577"><ele>44.666666666666664</ele><time>2026-04-30T15:57:25Z</time></trkpt><trkpt lat="50.42638180512301" lon="3.9487814315234964"><ele>44.333333333333336</ele><time>2026-04-30T15:57:26Z</time></trkpt><trkpt lat="50.4264635317342" lon="3.9487587741241206"><ele>44.0</ele><time>2026-04-30T15:57:27Z</time></trkpt><trkpt lat="50.42653445715072" lon="3.948743218557227"><ele>43.66666666666667</ele><time>2026-04-30T15:57:28Z</time></trkpt><trkpt lat="50.42660179837762" lon="3.9487387715795372"><ele>43.333333333333336</ele><time>2026-04-30T15:57:29Z</time></trkpt><trkpt lat="50.4266789501593" lon="3.9487317649161766"><ele>43.0</ele><time>2026-04-30T15:57:30Z</time></trkpt><trkpt lat="50.426760526012615" lon="3.9487260134991407"><ele>43.0</ele><time>2026-04-30T15:57:31Z</time></trkpt><trkpt lat="50.426845490768756" lon="3.948705927886779"><ele>43.0</ele><time>2026-04-30T15:57:32Z</time></trkpt><trkpt lat="50.426931520656886" lon="3.948690229210518"><ele>43.0</ele><time>2026-04-30T15:57:33Z</time></trkpt><trkpt lat="50.427012985832825" lon="3.9486824667095686"><ele>43.0</ele><time>2026-04-30T15:57:34Z</time></trkpt><trkpt lat="50.427092114666934" lon="3.9486646288271428"><ele>43.0</ele><time>2026-04-30T15:57:35Z</time></trkpt><trkpt lat="50.42717792760134" lon="3.9486504626551446"><ele>43.0</ele><time>2026-04-30T15:57:36Z</time></trkpt><trkpt lat="50.42728082078981" lon="3.948632521585592"><ele>43.0</ele><time>2026-04-30T15:57:37Z</time></trkpt><trkpt lat="50.42740325653372" lon="3.948608573152475"><ele>43.0</ele><time>2026-04-30T15:57:38Z</time></trkpt><trkpt lat="50.42754692622123" lon="3.948573860011619"><ele>43.0</ele><time>2026-04-30T15:57:39Z</time></trkpt><trkpt lat="50.42769843966703" lon="3.9485281706784727"><ele>43.0</ele><time>2026-04-30T15:57:40Z</time></trkpt><trkpt lat="50.42784514563855" lon="3.948474221350977"><ele>43.0</ele><time>2026-04-30T15:57:41Z</time></trkpt><trkpt lat="50.427978613996146" lon="3.948415233749571"><ele>43.0</ele><time>2026-04-30T15:57:42Z</time></trkpt><trkpt lat="50.42810061492406" lon="3.948346959188486"><ele>43.0</ele><time>2026-04-30T15:57:42.999Z</time></trkpt><trkpt lat="50.42820831340646" lon="3.948278770044285"><ele>43.0</ele><time>2026-04-30T15:57:43.999Z</time></trkpt><trkpt lat="50.42830766788497" lon="3.9482101838469412"><ele>43.25</ele><time>2026-04-30T15:57:44.999Z</time></trkpt><trkpt lat="50.42840457548107" lon="3.9481403616302995"><ele>43.5</ele><time>2026-04-30T15:57:45.999Z</time></trkpt><trkpt lat="50.42851252094452" lon="3.9480616608067156"><ele>43.75</ele><time>2026-04-30T15:57:46.999Z</time></trkpt><trkpt lat="50.42863963435541" lon="3.947964930197406"><ele>44.0</ele><time>2026-04-30T15:57:47.999Z</time></trkpt><trkpt lat="50.428793320065374" lon="3.947882568014283"><ele>44.33333333333333</ele><time>2026-04-30T15:57:48.999Z</time></trkpt><trkpt lat="50.42894453950561" lon="3.9477592356868754"><ele>44.666666666666664</ele><time>2026-04-30T15:57:49.999Z</time></trkpt><trkpt lat="50.42910244153371" lon="3.9476610435273782"><ele>45.0</ele><time>2026-04-30T15:57:50.999Z</time></trkpt><trkpt lat="50.429259007818324" lon="3.9475580729757014"><ele>45.0</ele><time>2026-04-30T15:57:51.999Z</time></trkpt><trkpt lat="50.4294071353196" lon="3.9474641060962914"><ele>45.0</ele><time>2026-04-30T15:57:52.999Z</time></trkpt><trkpt lat="50.42954365385011" lon="3.9473698838847833"><ele>45.0</ele><time>2026-04-30T15:57:53.999Z</time></trkpt><trkpt lat="50.429672710757536" lon="3.9472863113270873"><ele>45.0</ele><time>2026-04-30T15:57:54.999Z</time></trkpt><trkpt lat="50.42978469138908" lon="3.947220622642425"><ele>45.25</ele><time>2026-04-30T15:57:55.999Z</time></trkpt><trkpt lat="50.429899662322306" lon="3.9471510107572416"><ele>45.5</ele><time>2026-04-30T15:57:56.999Z</time></trkpt><trkpt lat="50.43002360413816" lon="3.9470845282883187"><ele>45.75</ele><time>2026-04-30T15:57:57.999Z</time></trkpt><trkpt lat="50.43015059929837" lon="3.947026978389663"><ele>46.0</ele><time>2026-04-30T15:57:58.999Z</time></trkpt><trkpt lat="50.43027581207052" lon="3.9469695235642606"><ele>46.0</ele><time>2026-04-30T15:57:59.999Z</time></trkpt><trkpt lat="50.430397609178875" lon="3.9469215720633053"><ele>46.0</ele><time>2026-04-30T15:58:00.999Z</time></trkpt><trkpt lat="50.43051687171499" lon="3.946887793641109"><ele>46.0</ele><time>2026-04-30T15:58:01.999Z</time></trkpt><trkpt lat="50.43063563187872" lon="3.9468694515424514"><ele>46.0</ele><time>2026-04-30T15:58:02.999Z</time></trkpt><trkpt lat="50.43075283057248" lon="3.9468644873560677"><ele>47.25</ele><time>2026-04-30T15:58:03.999Z</time></trkpt><trkpt lat="50.430873510110565" lon="3.9468748151947093"><ele>48.5</ele><time>2026-04-30T15:58:04.999Z</time></trkpt><trkpt lat="50.43099540536059" lon="3.9469101844529986"><ele>49.75</ele><time>2026-04-30T15:58:05.999Z</time></trkpt><trkpt lat="50.43110990060712" lon="3.9469622235050763"><ele>51.0</ele><time>2026-04-30T15:58:06.999Z</time></trkpt><trkpt lat="50.43122908933047" lon="3.9470211306136775"><ele>52.75</ele><time>2026-04-30T15:58:07.999Z</time></trkpt><trkpt lat="50.43134329895497" lon="3.9470889987182693"><ele>54.5</ele><time>2026-04-30T15:58:08.999Z</time></trkpt><trkpt lat="50.43145357126716" lon="3.9471596795652477"><ele>56.25</ele><time>2026-04-30T15:58:09.999Z</time></trkpt><trkpt lat="50.43155152023427" lon="3.947220428977066"><ele>58.0</ele><time>2026-04-30T15:58:10.999Z</time></trkpt><trkpt lat="50.43165589144582" lon="3.9472756471006356"><ele>58.0</ele><time>2026-04-30T15:58:11.999Z</time></trkpt><trkpt lat="50.43175788671781" lon="3.947326721836816"><ele>58.0</ele><time>2026-04-30T15:58:12.999Z</time></trkpt><trkpt lat="50.43186165453605" lon="3.9473685704047514"><ele>58.0</ele><time>2026-04-30T15:58:13.999Z</time></trkpt><trkpt lat="50.43196632485224" lon="3.94739080192053"><ele>58.0</ele><time>2026-04-30T15:58:14.999Z</time></trkpt><trkpt lat="50.43206996519745" lon="3.947400284944153"><ele>58.0</ele><time>2026-04-30T15:58:15.999Z</time></trkpt><trkpt lat="50.43217497903705" lon="3.9474029553050882"><ele>58.25</ele><time>2026-04-30T15:58:16.999Z</time></trkpt><trkpt lat="50.43228935420132" lon="3.947406993554664"><ele>58.5</ele><time>2026-04-30T15:58:17.999Z</time></trkpt><trkpt lat="50.43240839295622" lon="3.9473990997999073"><ele>58.75</ele><time>2026-04-30T15:58:18.999Z</time></trkpt><trkpt lat="50.43252242180206" lon="3.947394939984828"><ele>59.0</ele><time>2026-04-30T15:58:19.999Z</time></trkpt><trkpt lat="50.432636101737444" lon="3.9473972334853737"><ele>59.0</ele><time>2026-04-30T15:58:20.999Z</time></trkpt><trkpt lat="50.43275200440495" lon="3.9473989129447316"><ele>59.0</ele><time>2026-04-30T15:58:21.999Z</time></trkpt><trkpt lat="50.43287076630339" lon="3.947402024921435"><ele>59.0</ele><time>2026-04-30T15:58:22.999Z</time></trkpt><trkpt lat="50.43298766491027" lon="3.947403260290981"><ele>59.0</ele><time>2026-04-30T15:58:23.999Z</time></trkpt><trkpt lat="50.43310127689479" lon="3.947402140192626"><ele>59.5</ele><time>2026-04-30T15:58:24.999Z</time></trkpt><trkpt lat="50.433214763271685" lon="3.9474041794893324"><ele>60.0</ele><time>2026-04-30T15:58:25.999Z</time></trkpt><trkpt lat="50.43333030779577" lon="3.947411965228113"><ele>60.5</ele><time>2026-04-30T15:58:26.999Z</time></trkpt><trkpt lat="50.433441865073824" lon="3.947422813631325"><ele>61.0</ele><time>2026-04-30T15:58:27.999Z</time></trkpt><trkpt lat="50.43355672125213" lon="3.9474359917567337"><ele>61.0</ele><time>2026-04-30T15:58:28.999Z</time></trkpt><trkpt lat="50.43367574336992" lon="3.947449310704594"><ele>61.0</ele><time>2026-04-30T15:58:29.999Z</time></trkpt><trkpt lat="50.43379563230282" lon="3.9474666143131256"><ele>61.0</ele><time>2026-04-30T15:58:30.999Z</time></trkpt><trkpt lat="50.43391745395535" lon="3.9474884699679067"><ele>61.0</ele><time>2026-04-30T15:58:31.999Z</time></trkpt><trkpt lat="50.43403762129371" lon="3.947510484898589"><ele>60.8</ele><time>2026-04-30T15:58:32.999Z</time></trkpt><trkpt lat="50.4341519439582" lon="3.9475331411870465"><ele>60.599999999999994</ele><time>2026-04-30T15:58:33.999Z</time></trkpt><trkpt lat="50.434257609114105" lon="3.9475586790526886"><ele>60.4</ele><time>2026-04-30T15:58:34.999Z</time></trkpt><trkpt lat="50.43436058155027" lon="3.94758473409968"><ele>60.2</ele><time>2026-04-30T15:58:35.999Z</time></trkpt><trkpt lat="50.43446801217095" lon="3.9476069025811005"><ele>60.0</ele><time>2026-04-30T15:58:36.999Z</time></trkpt><trkpt lat="50.434577344682474" lon="3.947635097779734"><ele>59.75</ele><time>2026-04-30T15:58:37.999Z</time></trkpt><trkpt lat="50.434692817004056" lon="3.947666006613169"><ele>59.5</ele><time>2026-04-30T15:58:38.999Z</time></trkpt><trkpt lat="50.43481158454268" lon="3.947692656133502"><ele>59.25</ele><time>2026-04-30T15:58:39.999Z</time></trkpt><trkpt lat="50.43493297150993" lon="3.947711789317439"><ele>59.0</ele><time>2026-04-30T15:58:40.999Z</time></trkpt><trkpt lat="50.4350494482173" lon="3.947722729615709"><ele>59.0</ele><time>2026-04-30T15:58:41.999Z</time></trkpt><trkpt lat="50.435166640630726" lon="3.9477244807900473"><ele>59.00000000000001</ele><time>2026-04-30T15:58:42.999Z</time></trkpt><trkpt lat="50.43528063496429" lon="3.9477245559776786"><ele>59.00000000000001</ele><time>2026-04-30T15:58:43.999Z</time></trkpt><trkpt lat="50.43538701326094" lon="3.9477102626939935"><ele>59.0</ele><time>2026-04-30T15:58:44.998Z</time></trkpt><trkpt lat="50.435495083660015" lon="3.947701867062969"><ele>59.0</ele><time>2026-04-30T15:58:45.998Z</time></trkpt><trkpt lat="50.435612005663465" lon="3.9476932376042027"><ele>58.5</ele><time>2026-04-30T15:58:46.998Z</time></trkpt><trkpt lat="50.435738730846296" lon="3.9476807175142885"><ele>58.0</ele><time>2026-04-30T15:58:47.998Z</time></trkpt><trkpt lat="50.4358651616989" lon="3.947667608741111"><ele>57.5</ele><time>2026-04-30T15:58:48.998Z</time></trkpt><trkpt lat="50.435986385345245" lon="3.9476476873637454"><ele>57.0</ele><time>2026-04-30T15:58:49.998Z</time></trkpt><trkpt lat="50.43609498527712" lon="3.9476310155635836"><ele>57.0</ele><time>2026-04-30T15:58:50.998Z</time></trkpt><trkpt lat="50.43620538810643" lon="3.947617271316794"><ele>57.0</ele><time>2026-04-30T15:58:51.998Z</time></trkpt><trkpt lat="50.43632209031751" lon="3.9475988621048232"><ele>57.0</ele><time>2026-04-30T15:58:52.998Z</time></trkpt><trkpt lat="50.43644934511344" lon="3.94757631597233"><ele>57.0</ele><time>2026-04-30T15:58:53.998Z</time></trkpt><trkpt lat="50.43658319616953" lon="3.9475501893651583"><ele>55.75</ele><time>2026-04-30T15:58:54.998Z</time></trkpt><trkpt lat="50.436697515628516" lon="3.9475197722651894"><ele>54.5</ele><time>2026-04-30T15:58:55.998Z</time></trkpt><trkpt lat="50.43680661294187" lon="3.947487072009995"><ele>53.25</ele><time>2026-04-30T15:58:56.998Z</time></trkpt><trkpt lat="50.436923635884035" lon="3.947438051711425"><ele>52.0</ele><time>2026-04-30T15:58:57.998Z</time></trkpt><trkpt lat="50.43703876972414" lon="3.9473790679227476"><ele>52.0</ele><time>2026-04-30T15:58:58.998Z</time></trkpt><trkpt lat="50.43715750091171" lon="3.9473099624722474"><ele>52.0</ele><time>2026-04-30T15:58:59.998Z</time></trkpt><trkpt lat="50.43726964536679" lon="3.947245152994835"><ele>52.0</ele><time>2026-04-30T15:59:00.998Z</time></trkpt><trkpt lat="50.43737698741965" lon="3.947182729339709"><ele>52.0</ele><time>2026-04-30T15:59:01.998Z</time></trkpt><trkpt lat="50.43748270712198" lon="3.947129870401932"><ele>52.0</ele><time>2026-04-30T15:59:02.998Z</time></trkpt><trkpt lat="50.4375903507471" lon="3.947068815507116"><ele>52.0</ele><time>2026-04-30T15:59:03.998Z</time></trkpt><trkpt lat="50.437703724264544" lon="3.9470022949007437"><ele>52.0</ele><time>2026-04-30T15:59:04.998Z</time></trkpt><trkpt lat="50.43782170302697" lon="3.946929185874331"><ele>52.0</ele><time>2026-04-30T15:59:05.998Z</time></trkpt><trkpt lat="50.43794558466328" lon="3.946857220736454"><ele>51.25</ele><time>2026-04-30T15:59:06.998Z</time></trkpt><trkpt lat="50.43807254206543" lon="3.9467830867739306"><ele>50.5</ele><time>2026-04-30T15:59:07.998Z</time></trkpt><trkpt lat="50.43819693324767" lon="3.9467098603850332"><ele>49.75</ele><time>2026-04-30T15:59:08.998Z</time></trkpt><trkpt lat="50.43831031439433" lon="3.9466400897182528"><ele>49.0</ele><time>2026-04-30T15:59:09.998Z</time></trkpt><trkpt lat="50.438415706095434" lon="3.946578488892959"><ele>49.0</ele><time>2026-04-30T15:59:10.998Z</time></trkpt><trkpt lat="50.43851596279858" lon="3.9465205168205926"><ele>49.0</ele><time>2026-04-30T15:59:11.998Z</time></trkpt><trkpt lat="50.43860951181902" lon="3.9464702866582746"><ele>49.0</ele><time>2026-04-30T15:59:12.998Z</time></trkpt><trkpt lat="50.43869913978519" lon="3.94642050274961"><ele>49.0</ele><time>2026-04-30T15:59:13.998Z</time></trkpt><trkpt lat="50.438792043834034" lon="3.9463683476097358"><ele>49.0</ele><time>2026-04-30T15:59:15Z</time></trkpt><trkpt lat="50.43888371576091" lon="3.9463277735562574"><ele>48.400000000000006</ele><time>2026-04-30T15:59:16Z</time></trkpt><trkpt lat="50.43897783933778" lon="3.9462892356676798"><ele>47.8</ele><time>2026-04-30T15:59:17Z</time></trkpt><trkpt lat="50.43907507887355" lon="3.946247458121323"><ele>47.2</ele><time>2026-04-30T15:59:18Z</time></trkpt><trkpt lat="50.43917042507912" lon="3.94618193115576"><ele>46.599999999999994</ele><time>2026-04-30T15:59:19Z</time></trkpt><trkpt lat="50.43926769558798" lon="3.9461143301716075"><ele>46.0</ele><time>2026-04-30T15:59:20Z</time></trkpt><trkpt lat="50.43937079495519" lon="3.9460522617396285"><ele>46.0</ele><time>2026-04-30T15:59:21Z</time></trkpt><trkpt lat="50.4394727946966" lon="3.9460002463383197"><ele>46.0</ele><time>2026-04-30T15:59:22Z</time></trkpt><trkpt lat="50.43955666984517" lon="3.9459071860145802"><ele>46.0</ele><time>2026-04-30T15:59:23Z</time></trkpt><trkpt lat="50.43963688515453" lon="3.9458507748716714"><ele>46.0</ele><time>2026-04-30T15:59:24Z</time></trkpt><trkpt lat="50.439719653930986" lon="3.945810897501955"><ele>46.0</ele><time>2026-04-30T15:59:25Z</time></trkpt><trkpt lat="50.439797906826406" lon="3.945776286279232"><ele>45.0</ele><time>2026-04-30T15:59:26Z</time></trkpt><trkpt lat="50.43986945491589" lon="3.94574922376758"><ele>44.0</ele><time>2026-04-30T15:59:27Z</time></trkpt><trkpt lat="50.43997201269574" lon="3.9457229559856164"><ele>43.0</ele><time>2026-04-30T15:59:29Z</time></trkpt><trkpt lat="50.44006145901231" lon="3.9457087275867972"><ele>42.0</ele><time>2026-04-30T15:59:32Z</time></trkpt><trkpt lat="50.44014425007354" lon="3.945689704868487"><ele>41.0</ele><time>2026-04-30T15:59:34Z</time></trkpt><trkpt lat="50.44024297998867" lon="3.9457382153247758"><ele>41.0</ele><time>2026-04-30T15:59:36Z</time></trkpt><trkpt lat="50.44035656503622" lon="3.9457896648752047"><ele>41.0</ele><time>2026-04-30T15:59:38Z</time></trkpt><trkpt lat="50.44047981485375" lon="3.945745378091997"><ele>41.0</ele><time>2026-04-30T15:59:40Z</time></trkpt><trkpt lat="50.44058585360246" lon="3.9457250462652054"><ele>41.0</ele><time>2026-04-30T15:59:42Z</time></trkpt><trkpt lat="50.440658315299196" lon="3.945758072411253"><ele>41.0</ele><time>2026-04-30T15:59:43Z</time></trkpt><trkpt lat="50.44074128544228" lon="3.945805477908057"><ele>41.0</ele><time>2026-04-30T15:59:44Z</time></trkpt><trkpt lat="50.44084360119471" lon="3.945843176623488"><ele>41.0</ele><time>2026-04-30T15:59:45Z</time></trkpt><trkpt lat="50.440939343018506" lon="3.9458799789181818"><ele>41.0</ele><time>2026-04-30T15:59:46Z</time></trkpt><trkpt lat="50.441033192338125" lon="3.94591395475858"><ele>41.0</ele><time>2026-04-30T15:59:47Z</time></trkpt><trkpt lat="50.44113329453654" lon="3.945949774028706"><ele>41.0</ele><time>2026-04-30T15:59:48Z</time></trkpt><trkpt lat="50.44124022830325" lon="3.945993113001179"><ele>41.0</ele><time>2026-04-30T15:59:49Z</time></trkpt><trkpt lat="50.44134868243632" lon="3.946039123581027"><ele>41.0</ele><time>2026-04-30T15:59:50Z</time></trkpt><trkpt lat="50.44145875218799" lon="3.9460900644775148"><ele>41.0</ele><time>2026-04-30T15:59:51Z</time></trkpt><trkpt lat="50.441577522630055" lon="3.9461378872128328"><ele>41.0</ele><time>2026-04-30T15:59:52Z</time></trkpt><trkpt lat="50.4416918508406" lon="3.9461816421533142"><ele>41.0</ele><time>2026-04-30T15:59:53Z</time></trkpt><trkpt lat="50.44180842838567" lon="3.946230404960231"><ele>41.0</ele><time>2026-04-30T15:59:54Z</time></trkpt><trkpt lat="50.441924249006405" lon="3.9462876612485815"><ele>41.0</ele><time>2026-04-30T15:59:54.999Z</time></trkpt><trkpt lat="50.4420446139167" lon="3.946334674667294"><ele>41.0</ele><time>2026-04-30T15:59:55.999Z</time></trkpt><trkpt lat="50.442164411161954" lon="3.9463931410044295"><ele>40.0</ele><time>2026-04-30T15:59:56.999Z</time></trkpt><trkpt lat="50.44227880307188" lon="3.946472621993488"><ele>39.0</ele><time>2026-04-30T15:59:57.999Z</time></trkpt><trkpt lat="50.44236777391796" lon="3.9465289173381812"><ele>38.0</ele><time>2026-04-30T15:59:58.999Z</time></trkpt><trkpt lat="50.442456286755075" lon="3.9465622413164434"><ele>37.0</ele><time>2026-04-30T15:59:59.999Z</time></trkpt><trkpt lat="50.442548340270626" lon="3.94658429779954"><ele>36.0</ele><time>2026-04-30T16:00:00.999Z</time></trkpt><trkpt lat="50.44265740101815" lon="3.946619358517192"><ele>36.0</ele><time>2026-04-30T16:00:01.999Z</time></trkpt><trkpt lat="50.44277111020779" lon="3.9466397706907226"><ele>36.0</ele><time>2026-04-30T16:00:02.999Z</time></trkpt><trkpt lat="50.44287646435228" lon="3.946678820869045"><ele>36.0</ele><time>2026-04-30T16:00:03.999Z</time></trkpt><trkpt lat="50.44299193402258" lon="3.946732848468335"><ele>36.0</ele><time>2026-04-30T16:00:04.999Z</time></trkpt><trkpt lat="50.443108301050515" lon="3.9467830351476776"><ele>35.75</ele><time>2026-04-30T16:00:05.999Z</time></trkpt><trkpt lat="50.443219990225344" lon="3.946835106224245"><ele>35.5</ele><time>2026-04-30T16:00:06.999Z</time></trkpt><trkpt lat="50.4433334197937" lon="3.946883615281824"><ele>35.25</ele><time>2026-04-30T16:00:07.999Z</time></trkpt><trkpt lat="50.44344515504586" lon="3.94693543993465"><ele>35.0</ele><time>2026-04-30T16:00:08.999Z</time></trkpt><trkpt lat="50.44355844822694" lon="3.9469823674094195"><ele>35.0</ele><time>2026-04-30T16:00:09.999Z</time></trkpt><trkpt lat="50.44367162393992" lon="3.9470251188520504"><ele>35.0</ele><time>2026-04-30T16:00:10.999Z</time></trkpt><trkpt lat="50.44378372408314" lon="3.9470711608662974"><ele>35.0</ele><time>2026-04-30T16:00:11.999Z</time></trkpt><trkpt lat="50.44389403148098" lon="3.9471171679443113"><ele>35.0</ele><time>2026-04-30T16:00:12.999Z</time></trkpt><trkpt lat="50.444004321083156" lon="3.947167450487722"><ele>34.8</ele><time>2026-04-30T16:00:13.999Z</time></trkpt><trkpt lat="50.44411062256268" lon="3.947212505434946"><ele>34.6</ele><time>2026-04-30T16:00:14.999Z</time></trkpt><trkpt lat="50.444216948219406" lon="3.947252825440849"><ele>34.4</ele><time>2026-04-30T16:00:15.999Z</time></trkpt><trkpt lat="50.44431894401871" lon="3.947289468059372"><ele>34.2</ele><time>2026-04-30T16:00:16.999Z</time></trkpt><trkpt lat="50.44440975182299" lon="3.9473269662272594"><ele>34.0</ele><time>2026-04-30T16:00:17.999Z</time></trkpt><trkpt lat="50.444481419398755" lon="3.9473590672146686"><ele>34.0</ele><time>2026-04-30T16:00:18.999Z</time></trkpt><trkpt lat="50.44459079145866" lon="3.947462240688615"><ele>34.0</ele><time>2026-04-30T16:00:20.999Z</time></trkpt><trkpt lat="50.44464300930103" lon="3.94756993487336"><ele>34.0</ele><time>2026-04-30T16:00:21.999Z</time></trkpt><trkpt lat="50.44466954594311" lon="3.9476967015991207"><ele>34.0</ele><time>2026-04-30T16:00:22.999Z</time></trkpt><trkpt lat="50.4446574700825" lon="3.94783128644123"><ele>34.0</ele><time>2026-04-30T16:00:23.999Z</time></trkpt><trkpt lat="50.44462180501344" lon="3.94800322161013"><ele>34.0</ele><time>2026-04-30T16:00:24.999Z</time></trkpt><trkpt lat="50.44458281471141" lon="3.9482078623267873"><ele>34.0</ele><time>2026-04-30T16:00:25.999Z</time></trkpt><trkpt lat="50.444547670390556" lon="3.9484179470517358"><ele>34.0</ele><time>2026-04-30T16:00:26.999Z</time></trkpt><trkpt lat="50.44452295483055" lon="3.948584864235018"><ele>34.0</ele><time>2026-04-30T16:00:27.999Z</time></trkpt><trkpt lat="50.44452036917215" lon="3.94872807377799"><ele>33.8</ele><time>2026-04-30T16:00:28.999Z</time></trkpt><trkpt lat="50.4445352872975" lon="3.9488708297870097"><ele>33.599999999999994</ele><time>2026-04-30T16:00:29.999Z</time></trkpt><trkpt lat="50.44457016164429" lon="3.949019521695711"><ele>33.4</ele><time>2026-04-30T16:00:30.999Z</time></trkpt><trkpt lat="50.4445999197386" lon="3.9491569410421548"><ele>33.199999999999996</ele><time>2026-04-30T16:00:31.999Z</time></trkpt><trkpt lat="50.444628454722675" lon="3.949281964103791"><ele>33.0</ele><time>2026-04-30T16:00:32.999Z</time></trkpt><trkpt lat="50.444671313465356" lon="3.9494011659724606"><ele>33.0</ele><time>2026-04-30T16:00:33.999Z</time></trkpt><trkpt lat="50.44471063233747" lon="3.9495346681298344"><ele>33.0</ele><time>2026-04-30T16:00:34.999Z</time></trkpt><trkpt lat="50.44474465820632" lon="3.9496705287729688"><ele>33.0</ele><time>2026-04-30T16:00:35.999Z</time></trkpt><trkpt lat="50.44477730537344" lon="3.9498015480790376"><ele>33.0</ele><time>2026-04-30T16:00:36.999Z</time></trkpt><trkpt lat="50.44480502036784" lon="3.949913259909526"><ele>33.0</ele><time>2026-04-30T16:00:37.999Z</time></trkpt><trkpt lat="50.44483594673841" lon="3.9500176058792587"><ele>33.0</ele><time>2026-04-30T16:00:38.999Z</time></trkpt><trkpt lat="50.44486567374765" lon="3.95011303844656"><ele>33.0</ele><time>2026-04-30T16:00:39.999Z</time></trkpt><trkpt lat="50.44490293857045" lon="3.9502541991613462"><ele>33.0</ele><time>2026-04-30T16:00:41.999Z</time></trkpt><trkpt lat="50.44493264726924" lon="3.9503693136167546"><ele>33.0</ele><time>2026-04-30T16:00:43.999Z</time></trkpt><trkpt lat="50.444959707893034" lon="3.950460635170172"><ele>33.0</ele><time>2026-04-30T16:00:44.999Z</time></trkpt><trkpt lat="50.44498621030247" lon="3.9505601181569174"><ele>33.0</ele><time>2026-04-30T16:00:45.999Z</time></trkpt><trkpt lat="50.44501323755765" lon="3.950667018709122"><ele>33.0</ele><time>2026-04-30T16:00:46.999Z</time></trkpt><trkpt lat="50.44504147660832" lon="3.9507761815222993"><ele>33.0</ele><time>2026-04-30T16:00:47.999Z</time></trkpt><trkpt lat="50.44506434406284" lon="3.950869114287115"><ele>33.0</ele><time>2026-04-30T16:00:48.999Z</time></trkpt><trkpt lat="50.44499607669941" lon="3.951127810581659"><ele>33.0</ele><time>2026-04-30T16:01:38Z</time></trkpt><trkpt lat="50.44493387788452" lon="3.951172224458479"><ele>33.0</ele><time>2026-04-30T16:01:46Z</time></trkpt><trkpt lat="50.444979745671205" lon="3.950929575041544"><ele>32.833333333333336</ele><time>2026-04-30T16:01:48Z</time></trkpt><trkpt lat="50.444888267448675" lon="3.950961614354734"><ele>32.666666666666664</ele><time>2026-04-30T16:01:51Z</time></trkpt><trkpt lat="50.44480296448368" lon="3.951011394046042"><ele>32.5</ele><time>2026-04-30T16:01:53Z</time></trkpt><trkpt lat="50.44473740170228" lon="3.950998399995567"><ele>32.33333333333333</ele><time>2026-04-30T16:01:55Z</time></trkpt><trkpt lat="50.444673415681976" lon="3.9509689148574725"><ele>32.166666666666664</ele><time>2026-04-30T16:01:57Z</time></trkpt><trkpt lat="50.44461237092697" lon="3.9510373213661802"><ele>32.0</ele><time>2026-04-30T16:02:06Z</time></trkpt><trkpt lat="50.44454685627419" lon="3.951146992425841"><ele>31.5</ele><time>2026-04-30T16:02:12.999Z</time></trkpt><trkpt lat="50.444474386292434" lon="3.9509224444401387"><ele>31.0</ele><time>2026-04-30T16:02:16.999Z</time></trkpt><trkpt lat="50.44441512470593" lon="3.9508889211444624"><ele>30.5</ele><time>2026-04-30T16:02:19.999Z</time></trkpt><trkpt lat="50.44456217237557" lon="3.951092537332025"><ele>30.0</ele><time>2026-04-30T16:02:24.999Z</time></trkpt><trkpt lat="50.444528581728655" lon="3.95124048454675"><ele>30.0</ele><time>2026-04-30T16:02:26.999Z</time></trkpt><trkpt lat="50.444393708064325" lon="3.9510268594738513"><ele>30.0</ele><time>2026-04-30T16:02:27.999Z</time></trkpt><trkpt lat="50.444826577573" lon="3.9511051106430726"><ele>30.25</ele><time>2026-04-30T16:02:48.697Z</time></trkpt><trkpt lat="50.44476448201342" lon="3.951021784687837"><ele>30.5</ele><time>2026-04-30T16:07:12.115Z</time></trkpt><trkpt lat="50.44465639890326" lon="3.950826513193353"><ele>30.75</ele><time>2026-04-30T16:07:14.016Z</time></trkpt><trkpt lat="50.44461345367037" lon="3.9507530522635173"><ele>31.0</ele><time>2026-04-30T16:07:19.017Z</time></trkpt><trkpt lat="50.44473325729776" lon="3.9508864814496105"><ele>31.0</ele><time>2026-04-30T16:12:47Z</time></trkpt><trkpt lat="50.44456274272556" lon="3.9504149948758616"><ele>31.0</ele><time>2026-04-30T16:13:03.074Z</time></trkpt><trkpt lat="50.444826577573" lon="3.9511051106430726"><ele>31.200000000000003</ele><time>2026-04-30T16:13:39.091Z</time></trkpt><trkpt lat="50.44481484675361" lon="3.9509787381475694"><ele>31.400000000000002</ele><time>2026-04-30T16:14:48.012Z</time></trkpt><trkpt lat="50.444826577573" lon="3.9511051106430726"><ele>31.6</ele><time>2026-04-30T16:15:27.009Z</time></trkpt><trkpt lat="50.444758141466835" lon="3.9510411159416554"><ele>31.8</ele><time>2026-04-30T16:18:23.011Z</time></trkpt><trkpt lat="50.44485734123453" lon="3.9511077583292797"><ele>32.0</ele><time>2026-04-30T16:20:31.519Z</time></trkpt><trkpt lat="50.444964231788106" lon="3.9510737849682145"><ele>32.0</ele><time>2026-04-30T16:21:06.99Z</time></trkpt><trkpt lat="50.445033077939485" lon="3.951037463966495"><ele>32.0</ele><time>2026-04-30T16:21:13Z</time></trkpt><trkpt lat="50.44509841307788" lon="3.9510835048825634"><ele>32.0</ele><time>2026-04-30T16:21:17Z</time></trkpt><trkpt lat="50.44513870111679" lon="3.95116282757691"><ele>32.0</ele><time>2026-04-30T16:21:21Z</time></trkpt><trkpt lat="50.44527669911332" lon="3.9513778936664137"><ele>32.0</ele><time>2026-04-30T16:25:02.999Z</time></trkpt><trkpt lat="50.44625359243331" lon="3.95287873928363"><ele>35.0</ele><time>2026-04-30T16:25:29.255Z</time></trkpt><trkpt lat="50.447322394163784" lon="3.9530427316769803"><ele>35.0</ele><time>2026-04-30T16:26:03.732Z</time></trkpt><trkpt lat="50.44737699876779" lon="3.9531001141889974"><ele>35.0</ele><time>2026-04-30T16:26:06.257Z</time></trkpt><trkpt lat="50.44770068611438" lon="3.9535429990248883"><ele>34.5</ele><time>2026-04-30T16:26:11.427Z</time></trkpt><trkpt lat="50.44802796280697" lon="3.9539751863165193"><ele>34.0</ele><time>2026-04-30T16:26:17.863Z</time></trkpt><trkpt lat="50.44812021046425" lon="3.9541115298997704"><ele>37.0</ele><time>2026-04-30T16:26:24.31Z</time></trkpt><trkpt lat="50.449762381430524" lon="3.9561304119126053"><ele>37.0</ele><time>2026-04-30T16:26:57.507Z</time></trkpt><trkpt lat="50.4501498698428" lon="3.9565741905255654"><ele>36.0</ele><time>2026-04-30T16:27:03.918Z</time></trkpt><trkpt lat="50.451018613703326" lon="3.9577429367441552"><ele>36.0</ele><time>2026-04-30T16:27:12.767Z</time></trkpt><trkpt lat="50.45129037572054" lon="3.9580627238360524"><ele>36.0</ele><time>2026-04-30T16:27:19.184Z</time></trkpt><trkpt lat="50.45147406753987" lon="3.9582669920436633"><ele>37.0</ele><time>2026-04-30T16:27:20.41Z</time></trkpt><trkpt lat="50.45264068913099" lon="3.9598466304246167"><ele>38.0</ele><time>2026-04-30T16:27:29.671Z</time></trkpt><trkpt lat="50.453120201002136" lon="3.960419092881157"><ele>38.0</ele><time>2026-04-30T16:27:36.092Z</time></trkpt><trkpt lat="50.45445457715812" lon="3.961142783771571"><ele>37.0</ele><time>2026-04-30T16:27:47.993Z</time></trkpt><trkpt lat="50.455254410232" lon="3.9609804512941027"><ele>38.0</ele><time>2026-04-30T16:27:54.333Z</time></trkpt><trkpt lat="50.45646725067887" lon="3.9608222435980047"><ele>38.0</ele><time>2026-04-30T16:28:00.762Z</time></trkpt><trkpt lat="50.45743196256876" lon="3.9607983521707992"><ele>38.0</ele><time>2026-04-30T16:28:07.189Z</time></trkpt><trkpt lat="50.458437458112435" lon="3.9604962772387355"><ele>42.0</ele><time>2026-04-30T16:28:14.839Z</time></trkpt><trkpt lat="50.460116156092255" lon="3.9594285936286364"><ele>37.0</ele><time>2026-04-30T16:28:27.228Z</time></trkpt><trkpt lat="50.460365581409384" lon="3.9579051025076555"><ele>38.0</ele><time>2026-04-30T16:28:33.659Z</time></trkpt><trkpt lat="50.46082996211532" lon="3.9522865547527744"><ele>38.0</ele><time>2026-04-30T16:28:55.904Z</time></trkpt><trkpt lat="50.460250836291515" lon="3.9503062609455815"><ele>37.0</ele><time>2026-04-30T16:29:09.423Z</time></trkpt><trkpt lat="50.45991838730112" lon="3.94913590984409"><ele>37.0</ele><time>2026-04-30T16:29:15.85Z</time></trkpt><trkpt lat="50.45992462523922" lon="3.94894774846598"><ele>37.0</ele><time>2026-04-30T16:29:32.425Z</time></trkpt><trkpt lat="50.4605216562727" lon="3.945773540916624"><ele>33.0</ele><time>2026-04-30T16:29:36.543Z</time></trkpt><trkpt lat="50.46096710771756" lon="3.94441454644635"><ele>31.0</ele><time>2026-04-30T16:29:42.33Z</time></trkpt><trkpt lat="50.46140273525073" lon="3.943303331017359"><ele>37.0</ele><time>2026-04-30T16:29:48.756Z</time></trkpt><trkpt lat="50.483845087886735" lon="3.958628880215983"><ele>38.0</ele><time>2026-04-30T16:32:19.991Z</time></trkpt><trkpt lat="50.483928972318665" lon="3.959584068140315"><ele>37.5</ele><time>2026-04-30T16:32:21.99Z</time></trkpt><trkpt lat="50.483957940717936" lon="3.960076505723626"><ele>37.0</ele><time>2026-04-30T16:32:22.99Z</time></trkpt><trkpt lat="50.48401900503021" lon="3.9605767084511507"><ele>35.5</ele><time>2026-04-30T16:32:23.99Z</time></trkpt><trkpt lat="50.48407792969911" lon="3.961040951466674"><ele>34.0</ele><time>2026-04-30T16:32:24.99Z</time></trkpt><trkpt lat="50.48414098798831" lon="3.961501727423784"><ele>35.0</ele><time>2026-04-30T16:32:26Z</time></trkpt><trkpt lat="50.48420469462527" lon="3.9619490027626005"><ele>36.0</ele><time>2026-04-30T16:32:27Z</time></trkpt><trkpt lat="50.48426856942316" lon="3.9623896405436976"><ele>35.5</ele><time>2026-04-30T16:32:28Z</time></trkpt><trkpt lat="50.48433907358578" lon="3.9628181432726026"><ele>35.0</ele><time>2026-04-30T16:32:29Z</time></trkpt><trkpt lat="50.48441097317328" lon="3.9632583288852348"><ele>35.5</ele><time>2026-04-30T16:32:30Z</time></trkpt><trkpt lat="50.48448879464041" lon="3.963711164006232"><ele>36.0</ele><time>2026-04-30T16:32:31Z</time></trkpt><trkpt lat="50.48456731242686" lon="3.9641682975803394"><ele>36.5</ele><time>2026-04-30T16:32:32Z</time></trkpt><trkpt lat="50.48465763288692" lon="3.964630657711601"><ele>37.0</ele><time>2026-04-30T16:32:33Z</time></trkpt><trkpt lat="50.48475449602791" lon="3.965118831679968"><ele>38.0</ele><time>2026-04-30T16:32:34Z</time></trkpt><trkpt lat="50.4848508309424" lon="3.965593198624571"><ele>39.0</ele><time>2026-04-30T16:32:35Z</time></trkpt><trkpt lat="50.48494645649838" lon="3.9660524203185084"><ele>39.0</ele><time>2026-04-30T16:32:36Z</time></trkpt><trkpt lat="50.485047214283554" lon="3.9665026742821063"><ele>39.0</ele><time>2026-04-30T16:32:37Z</time></trkpt><trkpt lat="50.48515404237781" lon="3.9669568791373644"><ele>38.5</ele><time>2026-04-30T16:32:38Z</time></trkpt><trkpt lat="50.48526439135606" lon="3.967422061626293"><ele>38.0</ele><time>2026-04-30T16:32:39Z</time></trkpt><trkpt lat="50.485371238761694" lon="3.967863582553823"><ele>38.5</ele><time>2026-04-30T16:32:40Z</time></trkpt><trkpt lat="50.48547989408619" lon="3.9683019965864204"><ele>39.0</ele><time>2026-04-30T16:32:41Z</time></trkpt><trkpt lat="50.485593498123876" lon="3.968741973208677"><ele>38.0</ele><time>2026-04-30T16:32:42Z</time></trkpt><trkpt lat="50.485683565851524" lon="3.969354429028831"><ele>37.0</ele><time>2026-04-30T16:32:43Z</time></trkpt><trkpt lat="50.48582218599656" lon="3.969717652226303"><ele>37.5</ele><time>2026-04-30T16:32:44Z</time></trkpt><trkpt lat="50.4859489562859" lon="3.9701534411122408"><ele>38.0</ele><time>2026-04-30T16:32:45Z</time></trkpt><trkpt lat="50.48607068168334" lon="3.9705832893553867"><ele>38.5</ele><time>2026-04-30T16:32:46Z</time></trkpt><trkpt lat="50.48619562045894" lon="3.9710172821735035"><ele>39.0</ele><time>2026-04-30T16:32:47Z</time></trkpt><trkpt lat="50.48633611879816" lon="3.971429870463609"><ele>40.0</ele><time>2026-04-30T16:32:48Z</time></trkpt><trkpt lat="50.4864749305861" lon="3.9718469592061143"><ele>41.0</ele><time>2026-04-30T16:32:49Z</time></trkpt><trkpt lat="50.48661988802651" lon="3.9722397902996316"><ele>41.5</ele><time>2026-04-30T16:32:50Z</time></trkpt><trkpt lat="50.48676172868928" lon="3.972663857573322"><ele>42.0</ele><time>2026-04-30T16:32:51Z</time></trkpt><trkpt lat="50.48690022350779" lon="3.97309387774048"><ele>43.5</ele><time>2026-04-30T16:32:52Z</time></trkpt><trkpt lat="50.48703559284975" lon="3.973543908115445"><ele>45.0</ele><time>2026-04-30T16:32:53Z</time></trkpt><trkpt lat="50.48717553973778" lon="3.9739889260686367"><ele>45.0</ele><time>2026-04-30T16:32:54Z</time></trkpt><trkpt lat="50.48731103782397" lon="3.974462790950107"><ele>45.0</ele><time>2026-04-30T16:32:55Z</time></trkpt><trkpt lat="50.4874630317773" lon="3.97488600015485"><ele>45.5</ele><time>2026-04-30T16:32:56Z</time></trkpt><trkpt lat="50.48763160008632" lon="3.975290099935006"><ele>46.0</ele><time>2026-04-30T16:32:57Z</time></trkpt><trkpt lat="50.48777508888589" lon="3.975689721762972"><ele>47.5</ele><time>2026-04-30T16:32:58Z</time></trkpt><trkpt lat="50.487935124421355" lon="3.9760750884993836"><ele>49.0</ele><time>2026-04-30T16:32:59Z</time></trkpt><trkpt lat="50.48810777308897" lon="3.976469468041819"><ele>49.0</ele><time>2026-04-30T16:33:00Z</time></trkpt><trkpt lat="50.488285049892994" lon="3.976848726040667"><ele>49.0</ele><time>2026-04-30T16:33:00.999Z</time></trkpt><trkpt lat="50.48845668903285" lon="3.977234817591941"><ele>49.0</ele><time>2026-04-30T16:33:01.999Z</time></trkpt><trkpt lat="50.48862592557511" lon="3.9776237275305166"><ele>49.0</ele><time>2026-04-30T16:33:02.999Z</time></trkpt><trkpt lat="50.48879626434816" lon="3.9780174957383765"><ele>50.0</ele><time>2026-04-30T16:33:03.999Z</time></trkpt><trkpt lat="50.48897293921557" lon="3.9783998458954795"><ele>51.0</ele><time>2026-04-30T16:33:04.999Z</time></trkpt><trkpt lat="50.489150966526246" lon="3.978780519634961"><ele>51.0</ele><time>2026-04-30T16:33:05.999Z</time></trkpt><trkpt lat="50.489325202814385" lon="3.979167165769805"><ele>51.0</ele><time>2026-04-30T16:33:06.999Z</time></trkpt><trkpt lat="50.489491256213675" lon="3.9795676013922514"><ele>52.0</ele><time>2026-04-30T16:33:07.999Z</time></trkpt><trkpt lat="50.489661060482" lon="3.9799640263611455"><ele>53.0</ele><time>2026-04-30T16:33:08.999Z</time></trkpt><trkpt lat="50.48981546208343" lon="3.980367561884034"><ele>54.0</ele><time>2026-04-30T16:33:09.999Z</time></trkpt><trkpt lat="50.489968493057134" lon="3.980780532393084"><ele>55.0</ele><time>2026-04-30T16:33:10.999Z</time></trkpt><trkpt lat="50.49012073581329" lon="3.981194787244007"><ele>55.5</ele><time>2026-04-30T16:33:11.999Z</time></trkpt><trkpt lat="50.49027507094732" lon="3.981593863552627"><ele>56.0</ele><time>2026-04-30T16:33:12.999Z</time></trkpt><trkpt lat="50.490427286121324" lon="3.98199913524387"><ele>57.0</ele><time>2026-04-30T16:33:13.999Z</time></trkpt><trkpt lat="50.490566069943704" lon="3.9824107356746414"><ele>58.0</ele><time>2026-04-30T16:33:14.999Z</time></trkpt><trkpt lat="50.49070626727316" lon="3.9828150613001685"><ele>58.0</ele><time>2026-04-30T16:33:15.999Z</time></trkpt><trkpt lat="50.490840242328886" lon="3.9832377911271397"><ele>58.0</ele><time>2026-04-30T16:33:16.999Z</time></trkpt><trkpt lat="50.490976437400754" lon="3.983641003899134"><ele>58.0</ele><time>2026-04-30T16:33:17.999Z</time></trkpt><trkpt lat="50.49109544476802" lon="3.9840784547522037"><ele>58.0</ele><time>2026-04-30T16:33:18.999Z</time></trkpt><trkpt lat="50.491218014554" lon="3.984501027946598"><ele>58.5</ele><time>2026-04-30T16:33:19.999Z</time></trkpt><trkpt lat="50.49133202112977" lon="3.9849350606591734"><ele>59.0</ele><time>2026-04-30T16:33:20.999Z</time></trkpt><trkpt lat="50.491441011287854" lon="3.985375654292329"><ele>59.0</ele><time>2026-04-30T16:33:21.999Z</time></trkpt><trkpt lat="50.49153476754205" lon="3.9858297480591136"><ele>59.0</ele><time>2026-04-30T16:33:22.999Z</time></trkpt><trkpt lat="50.49161775874434" lon="3.9862847882378847"><ele>60.5</ele><time>2026-04-30T16:33:23.999Z</time></trkpt><trkpt lat="50.49169496043598" lon="3.9867352626104604"><ele>62.0</ele><time>2026-04-30T16:33:24.999Z</time></trkpt><trkpt lat="50.49177002976982" lon="3.9871848064446898"><ele>63.5</ele><time>2026-04-30T16:33:25.999Z</time></trkpt><trkpt lat="50.49183780738379" lon="3.987648820103938"><ele>65.0</ele><time>2026-04-30T16:33:26.999Z</time></trkpt><trkpt lat="50.49192060506566" lon="3.9880926034465536"><ele>66.0</ele><time>2026-04-30T16:33:27.999Z</time></trkpt><trkpt lat="50.4919942477294" lon="3.9885388648131803"><ele>67.0</ele><time>2026-04-30T16:33:28.999Z</time></trkpt><trkpt lat="50.492057002461515" lon="3.9890021245885734"><ele>68.5</ele><time>2026-04-30T16:33:29.999Z</time></trkpt><trkpt lat="50.49211026947133" lon="3.989462080861998"><ele>70.0</ele><time>2026-04-30T16:33:30.999Z</time></trkpt><trkpt lat="50.49215979470999" lon="3.98993964885638"><ele>70.0</ele><time>2026-04-30T16:33:31.999Z</time></trkpt><trkpt lat="50.492210597965666" lon="3.9904116731085324"><ele>70.0</ele><time>2026-04-30T16:33:32.999Z</time></trkpt><trkpt lat="50.4922403704771" lon="3.9908745411850135"><ele>70.0</ele><time>2026-04-30T16:33:33.999Z</time></trkpt><trkpt lat="50.49225460788851" lon="3.9913548364551166"><ele>70.0</ele><time>2026-04-30T16:33:34.999Z</time></trkpt><trkpt lat="50.49228349251097" lon="3.9918162237854133"><ele>70.0</ele><time>2026-04-30T16:33:35.999Z</time></trkpt><trkpt lat="50.49230354435407" lon="3.992309329993537"><ele>70.0</ele><time>2026-04-30T16:33:36.999Z</time></trkpt><trkpt lat="50.49231307145833" lon="3.992780913055723"><ele>71.0</ele><time>2026-04-30T16:33:37.999Z</time></trkpt><trkpt lat="50.492301484068285" lon="3.9932435610316177"><ele>72.0</ele><time>2026-04-30T16:33:38.999Z</time></trkpt><trkpt lat="50.49222781256389" lon="3.993702979258733"><ele>73.0</ele><time>2026-04-30T16:33:39.999Z</time></trkpt><trkpt lat="50.49211486817492" lon="3.9941537226391786"><ele>74.0</ele><time>2026-04-30T16:33:40.999Z</time></trkpt><trkpt lat="50.492028047466306" lon="3.9946593374017523"><ele>75.0</ele><time>2026-04-30T16:33:41.999Z</time></trkpt><trkpt lat="50.492041708647065" lon="3.995137871302335"><ele>76.0</ele><time>2026-04-30T16:33:42.999Z</time></trkpt><trkpt lat="50.49199706097178" lon="3.995605935914762"><ele>75.0</ele><time>2026-04-30T16:33:43.999Z</time></trkpt><trkpt lat="50.49196569721338" lon="3.9960839822329643"><ele>74.0</ele><time>2026-04-30T16:33:44.999Z</time></trkpt><trkpt lat="50.49192737148498" lon="3.996550974846672"><ele>71.0</ele><time>2026-04-30T16:33:45.999Z</time></trkpt><trkpt lat="50.492037198347155" lon="3.9972884183187323"><ele>71.5</ele><time>2026-04-30T16:33:46.999Z</time></trkpt><trkpt lat="50.49203644178546" lon="3.997858624959292"><ele>72.0</ele><time>2026-04-30T16:33:47.999Z</time></trkpt><trkpt lat="50.491763935680645" lon="3.99787749209242"><ele>72.5</ele><time>2026-04-30T16:33:48.999Z</time></trkpt><trkpt lat="50.491689713397186" lon="3.9983555857345743"><ele>73.0</ele><time>2026-04-30T16:33:49.999Z</time></trkpt><trkpt lat="50.49160429885112" lon="3.9988711698688335"><ele>73.5</ele><time>2026-04-30T16:33:50.999Z</time></trkpt><trkpt lat="50.49152254131176" lon="3.999337045799865"><ele>74.0</ele><time>2026-04-30T16:33:51.999Z</time></trkpt><trkpt lat="50.4914243515631" lon="3.999803219517644"><ele>74.0</ele><time>2026-04-30T16:33:52.999Z</time></trkpt><trkpt lat="50.49135254993887" lon="4.00026869561441"><ele>74.0</ele><time>2026-04-30T16:33:53.999Z</time></trkpt><trkpt lat="50.49126044238153" lon="4.000713096561325"><ele>74.5</ele><time>2026-04-30T16:33:54.999Z</time></trkpt><trkpt lat="50.491171767443134" lon="4.001160892715475"><ele>75.0</ele><time>2026-04-30T16:33:55.999Z</time></trkpt><trkpt lat="50.49107967801088" lon="4.001618474895389"><ele>74.5</ele><time>2026-04-30T16:33:56.999Z</time></trkpt><trkpt lat="50.49099700019491" lon="4.002074235535556"><ele>74.0</ele><time>2026-04-30T16:33:57.999Z</time></trkpt><trkpt lat="50.490891911328376" lon="4.002505452280827"><ele>73.5</ele><time>2026-04-30T16:33:58.999Z</time></trkpt><trkpt lat="50.49079706531562" lon="4.002960349844688"><ele>73.0</ele><time>2026-04-30T16:33:59.999Z</time></trkpt><trkpt lat="50.490705263554794" lon="4.003411260105556"><ele>72.5</ele><time>2026-04-30T16:34:00.999Z</time></trkpt><trkpt lat="50.49061328115737" lon="4.003861677091554"><ele>72.0</ele><time>2026-04-30T16:34:01.999Z</time></trkpt><trkpt lat="50.49051968064685" lon="4.004318821396287"><ele>72.0</ele><time>2026-04-30T16:34:02.999Z</time></trkpt><trkpt lat="50.490419561081275" lon="4.004768310074463"><ele>72.0</ele><time>2026-04-30T16:34:03.998Z</time></trkpt><trkpt lat="50.49032505830777" lon="4.005222514609993"><ele>72.0</ele><time>2026-04-30T16:34:04.998Z</time></trkpt><trkpt lat="50.49022658927052" lon="4.005671938438177"><ele>72.0</ele><time>2026-04-30T16:34:05.998Z</time></trkpt><trkpt lat="50.49012589500416" lon="4.006126275747657"><ele>72.0</ele><time>2026-04-30T16:34:06.998Z</time></trkpt><trkpt lat="50.49002445854844" lon="4.006580307257826"><ele>72.0</ele><time>2026-04-30T16:34:07.998Z</time></trkpt><trkpt lat="50.48992211465422" lon="4.007039308651026"><ele>72.0</ele><time>2026-04-30T16:34:08.998Z</time></trkpt><trkpt lat="50.48982037895962" lon="4.0074864142839255"><ele>72.0</ele><time>2026-04-30T16:34:09.998Z</time></trkpt><trkpt lat="50.48972087283888" lon="4.007934497793982"><ele>72.0</ele><time>2026-04-30T16:34:10.998Z</time></trkpt><trkpt lat="50.48962187460921" lon="4.008374609928038"><ele>72.0</ele><time>2026-04-30T16:34:11.998Z</time></trkpt><trkpt lat="50.489521976651396" lon="4.008806029579103"><ele>71.5</ele><time>2026-04-30T16:34:12.998Z</time></trkpt><trkpt lat="50.48942341788981" lon="4.009242792988906"><ele>71.0</ele><time>2026-04-30T16:34:13.998Z</time></trkpt><trkpt lat="50.489326669791225" lon="4.009681711383471"><ele>71.0</ele><time>2026-04-30T16:34:14.998Z</time></trkpt><trkpt lat="50.48922997592734" lon="4.010120827937511"><ele>71.0</ele><time>2026-04-30T16:34:15.998Z</time></trkpt><trkpt lat="50.489132013446685" lon="4.010561320242386"><ele>69.5</ele><time>2026-04-30T16:34:16.998Z</time></trkpt><trkpt lat="50.489035608075476" lon="4.011002402452737"><ele>68.0</ele><time>2026-04-30T16:34:17.998Z</time></trkpt><trkpt lat="50.48893850633898" lon="4.011447316546767"><ele>67.0</ele><time>2026-04-30T16:34:18.998Z</time></trkpt><trkpt lat="50.48884045684532" lon="4.011891853203034"><ele>66.0</ele><time>2026-04-30T16:34:19.998Z</time></trkpt><trkpt lat="50.48874253100041" lon="4.01233743383518"><ele>65.5</ele><time>2026-04-30T16:34:20.998Z</time></trkpt><trkpt lat="50.4886459160412" lon="4.012780411658608"><ele>65.0</ele><time>2026-04-30T16:34:21.998Z</time></trkpt><trkpt lat="50.48854985348325" lon="4.013218961036447"><ele>65.0</ele><time>2026-04-30T16:34:22.998Z</time></trkpt><trkpt lat="50.4884561372681" lon="4.013654117018841"><ele>65.0</ele><time>2026-04-30T16:34:23.998Z</time></trkpt><trkpt lat="50.48836228685983" lon="4.014079006048699"><ele>64.0</ele><time>2026-04-30T16:34:24.998Z</time></trkpt><trkpt lat="50.48827255596203" lon="4.014489106883747"><ele>63.0</ele><time>2026-04-30T16:34:25.998Z</time></trkpt><trkpt lat="50.48818477755549" lon="4.014891187085071"><ele>62.5</ele><time>2026-04-30T16:34:26.998Z</time></trkpt><trkpt lat="50.48809687386697" lon="4.015289443302533"><ele>62.0</ele><time>2026-04-30T16:34:27.998Z</time></trkpt><trkpt lat="50.48800957451714" lon="4.015686519137011"><ele>60.0</ele><time>2026-04-30T16:34:28.998Z</time></trkpt><trkpt lat="50.48792304019333" lon="4.016085493921531"><ele>58.0</ele><time>2026-04-30T16:34:29.998Z</time></trkpt><trkpt lat="50.48783666362566" lon="4.016484214313842"><ele>57.0</ele><time>2026-04-30T16:34:31Z</time></trkpt><trkpt lat="50.4877459392347" lon="4.016884339466478"><ele>56.0</ele><time>2026-04-30T16:34:32Z</time></trkpt><trkpt lat="50.48766030976567" lon="4.017282208018252"><ele>56.0</ele><time>2026-04-30T16:34:33Z</time></trkpt><trkpt lat="50.48757290948404" lon="4.017679987874347"><ele>56.0</ele><time>2026-04-30T16:34:34Z</time></trkpt><trkpt lat="50.487483682205486" lon="4.018081923666097"><ele>56.5</ele><time>2026-04-30T16:34:35Z</time></trkpt><trkpt lat="50.48739521501878" lon="4.018484176353873"><ele>57.0</ele><time>2026-04-30T16:34:36Z</time></trkpt><trkpt lat="50.48730277519296" lon="4.018884935063157"><ele>56.5</ele><time>2026-04-30T16:34:37Z</time></trkpt><trkpt lat="50.48721440559853" lon="4.019290340390106"><ele>56.0</ele><time>2026-04-30T16:34:38Z</time></trkpt><trkpt lat="50.48712474073283" lon="4.019697542661514"><ele>54.5</ele><time>2026-04-30T16:34:39Z</time></trkpt><trkpt lat="50.48703242941646" lon="4.020106809245887"><ele>53.0</ele><time>2026-04-30T16:34:40Z</time></trkpt><trkpt lat="50.48693452968529" lon="4.020519454628676"><ele>55.0</ele><time>2026-04-30T16:34:41Z</time></trkpt><trkpt lat="50.48683149838361" lon="4.020936166592815"><ele>57.0</ele><time>2026-04-30T16:34:42Z</time></trkpt><trkpt lat="50.48673058595075" lon="4.021348651385723"><ele>58.5</ele><time>2026-04-30T16:34:43Z</time></trkpt><trkpt lat="50.486633371196895" lon="4.021769991510571"><ele>60.0</ele><time>2026-04-30T16:34:44Z</time></trkpt><trkpt lat="50.48653443956152" lon="4.022212128488737"><ele>61.5</ele><time>2026-04-30T16:34:45Z</time></trkpt><trkpt lat="50.486437019773874" lon="4.02264833073808"><ele>63.0</ele><time>2026-04-30T16:34:46Z</time></trkpt><trkpt lat="50.48634157581933" lon="4.023090622378225"><ele>66.0</ele><time>2026-04-30T16:34:47Z</time></trkpt><trkpt lat="50.48624478272568" lon="4.023533642332843"><ele>69.0</ele><time>2026-04-30T16:34:48Z</time></trkpt><trkpt lat="50.4861476019852" lon="4.023968537710732"><ele>69.5</ele><time>2026-04-30T16:34:49Z</time></trkpt><trkpt lat="50.486056792977855" lon="4.024398291562412"><ele>70.0</ele><time>2026-04-30T16:34:50Z</time></trkpt><trkpt lat="50.48597133125505" lon="4.0248244847129255"><ele>69.5</ele><time>2026-04-30T16:34:51Z</time></trkpt><trkpt lat="50.485875888624236" lon="4.0252498602568165"><ele>69.0</ele><time>2026-04-30T16:34:52Z</time></trkpt><trkpt lat="50.48577837217562" lon="4.025670237876808"><ele>70.0</ele><time>2026-04-30T16:34:53Z</time></trkpt><trkpt lat="50.48568433416643" lon="4.026092080685834"><ele>71.0</ele><time>2026-04-30T16:34:54Z</time></trkpt><trkpt lat="50.48559510358582" lon="4.026514691309479"><ele>72.5</ele><time>2026-04-30T16:34:55Z</time></trkpt><trkpt lat="50.48551164456185" lon="4.026923128059898"><ele>74.0</ele><time>2026-04-30T16:34:56Z</time></trkpt><trkpt lat="50.48542353461187" lon="4.027303317430345"><ele>74.0</ele><time>2026-04-30T16:34:57Z</time></trkpt><trkpt lat="50.48534914688695" lon="4.027680319907327"><ele>74.0</ele><time>2026-04-30T16:34:58Z</time></trkpt><trkpt lat="50.48527146671561" lon="4.028044723477275"><ele>74.0</ele><time>2026-04-30T16:34:59Z</time></trkpt><trkpt lat="50.485193311860854" lon="4.028402706083662"><ele>74.0</ele><time>2026-04-30T16:35:00Z</time></trkpt><trkpt lat="50.485111187972784" lon="4.028752175265453"><ele>74.0</ele><time>2026-04-30T16:35:01Z</time></trkpt><trkpt lat="50.48503230385204" lon="4.029102026360471"><ele>74.0</ele><time>2026-04-30T16:35:02Z</time></trkpt><trkpt lat="50.48495744226401" lon="4.029449607961382"><ele>73.66666666666667</ele><time>2026-04-30T16:35:03Z</time></trkpt><trkpt lat="50.48488464610079" lon="4.029789201563596"><ele>73.33333333333333</ele><time>2026-04-30T16:35:04Z</time></trkpt><trkpt lat="50.48482144683841" lon="4.030116171174662"><ele>73.0</ele><time>2026-04-30T16:35:05Z</time></trkpt><trkpt lat="50.484755243750655" lon="4.0304309674515935"><ele>73.66666666666666</ele><time>2026-04-30T16:35:06Z</time></trkpt><trkpt lat="50.484684291527444" lon="4.030736362487563"><ele>74.33333333333333</ele><time>2026-04-30T16:35:07Z</time></trkpt><trkpt lat="50.48461232454253" lon="4.031039429814704"><ele>75.0</ele><time>2026-04-30T16:35:08Z</time></trkpt><trkpt lat="50.48454964105457" lon="4.031328822382248"><ele>76.0</ele><time>2026-04-30T16:35:09Z</time></trkpt><trkpt lat="50.484478403122935" lon="4.031616188204895"><ele>77.0</ele><time>2026-04-30T16:35:10Z</time></trkpt><trkpt lat="50.48440176486995" lon="4.031903611738983"><ele>78.0</ele><time>2026-04-30T16:35:11Z</time></trkpt><trkpt lat="50.48433895395963" lon="4.0321769805204415"><ele>78.0</ele><time>2026-04-30T16:35:12Z</time></trkpt><trkpt lat="50.48426847703647" lon="4.032458440157824"><ele>78.0</ele><time>2026-04-30T16:35:13Z</time></trkpt><trkpt lat="50.48419879502145" lon="4.032747582213504"><ele>78.0</ele><time>2026-04-30T16:35:14Z</time></trkpt><trkpt lat="50.48412799693113" lon="4.033041304736856"><ele>78.66666666666667</ele><time>2026-04-30T16:35:15Z</time></trkpt><trkpt lat="50.484059710151634" lon="4.033350461839779"><ele>79.33333333333334</ele><time>2026-04-30T16:35:15.999Z</time></trkpt><trkpt lat="50.48399360635646" lon="4.0336618872332854"><ele>80.0</ele><time>2026-04-30T16:35:16.999Z</time></trkpt><trkpt lat="50.483916726012" lon="4.033967885281234"><ele>79.66666666666667</ele><time>2026-04-30T16:35:17.999Z</time></trkpt><trkpt lat="50.48383623046577" lon="4.034256643333312"><ele>79.33333333333333</ele><time>2026-04-30T16:35:18.999Z</time></trkpt><trkpt lat="50.48377502708855" lon="4.034549027229093"><ele>79.0</ele><time>2026-04-30T16:35:19.999Z</time></trkpt><trkpt lat="50.48371996913695" lon="4.034826122316875"><ele>80.0</ele><time>2026-04-30T16:35:20.999Z</time></trkpt><trkpt lat="50.48366184648634" lon="4.035091844363362"><ele>81.0</ele><time>2026-04-30T16:35:21.999Z</time></trkpt><trkpt lat="50.48359032055192" lon="4.035365276274817"><ele>82.0</ele><time>2026-04-30T16:35:22.999Z</time></trkpt><trkpt lat="50.48352834220842" lon="4.0356238938438915"><ele>82.0</ele><time>2026-04-30T16:35:23.999Z</time></trkpt><trkpt lat="50.48347741047336" lon="4.03588356426023"><ele>82.0</ele><time>2026-04-30T16:35:24.999Z</time></trkpt><trkpt lat="50.48341437772333" lon="4.036142908111575"><ele>82.0</ele><time>2026-04-30T16:35:25.999Z</time></trkpt><trkpt lat="50.48335511366989" lon="4.0363825881092605"><ele>82.0</ele><time>2026-04-30T16:35:26.999Z</time></trkpt><trkpt lat="50.48331999411704" lon="4.036615051768794"><ele>82.0</ele><time>2026-04-30T16:35:27.999Z</time></trkpt><trkpt lat="50.483267458332676" lon="4.0368262926552685"><ele>82.0</ele><time>2026-04-30T16:35:28.999Z</time></trkpt><trkpt lat="50.48322386791349" lon="4.037022547325416"><ele>82.0</ele><time>2026-04-30T16:35:29.999Z</time></trkpt><trkpt lat="50.48317856415764" lon="4.037231704784983"><ele>81.75</ele><time>2026-04-30T16:35:30.999Z</time></trkpt><trkpt lat="50.483130437618" lon="4.037434576626383"><ele>81.5</ele><time>2026-04-30T16:35:31.999Z</time></trkpt><trkpt lat="50.483087987639934" lon="4.0376467484567025"><ele>81.25</ele><time>2026-04-30T16:35:32.999Z</time></trkpt><trkpt lat="50.48304424361053" lon="4.03786333409778"><ele>81.0</ele><time>2026-04-30T16:35:33.999Z</time></trkpt><trkpt lat="50.482996728574285" lon="4.038072794061547"><ele>80.5</ele><time>2026-04-30T16:35:34.999Z</time></trkpt><trkpt lat="50.48294843907255" lon="4.038277123989318"><ele>80.0</ele><time>2026-04-30T16:35:35.999Z</time></trkpt><trkpt lat="50.4828996519765" lon="4.038484518487999"><ele>79.5</ele><time>2026-04-30T16:35:36.999Z</time></trkpt><trkpt lat="50.48284591457769" lon="4.038695883676399"><ele>79.0</ele><time>2026-04-30T16:35:37.999Z</time></trkpt><trkpt lat="50.48280290997678" lon="4.038913246646406"><ele>78.0</ele><time>2026-04-30T16:35:38.999Z</time></trkpt><trkpt lat="50.48275284700738" lon="4.039140760031122"><ele>77.0</ele><time>2026-04-30T16:35:39.999Z</time></trkpt><trkpt lat="50.48270439250964" lon="4.039371751240549"><ele>76.0</ele><time>2026-04-30T16:35:40.999Z</time></trkpt><trkpt lat="50.48265898697529" lon="4.039582107492754"><ele>75.0</ele><time>2026-04-30T16:35:41.999Z</time></trkpt><trkpt lat="50.48261288737315" lon="4.0397930560748225"><ele>75.0</ele><time>2026-04-30T16:35:42.999Z</time></trkpt><trkpt lat="50.482567040679704" lon="4.040005395616138"><ele>75.0</ele><time>2026-04-30T16:35:43.999Z</time></trkpt><trkpt lat="50.48251792592406" lon="4.040216574153184"><ele>75.0</ele><time>2026-04-30T16:35:44.999Z</time></trkpt><trkpt lat="50.482470446407085" lon="4.0404271785106065"><ele>75.0</ele><time>2026-04-30T16:35:45.999Z</time></trkpt><trkpt lat="50.48242215120845" lon="4.040644073812505"><ele>75.0</ele><time>2026-04-30T16:35:46.999Z</time></trkpt><trkpt lat="50.48237231822641" lon="4.040867921483381"><ele>75.0</ele><time>2026-04-30T16:35:47.999Z</time></trkpt><trkpt lat="50.48232143214844" lon="4.041094201774098"><ele>75.0</ele><time>2026-04-30T16:35:48.999Z</time></trkpt><trkpt lat="50.48227072587591" lon="4.041328197835951"><ele>75.0</ele><time>2026-04-30T16:35:49.999Z</time></trkpt><trkpt lat="50.48221908789616" lon="4.041566862690854"><ele>75.0</ele><time>2026-04-30T16:35:50.999Z</time></trkpt><trkpt lat="50.482165589836214" lon="4.041813115870989"><ele>75.0</ele><time>2026-04-30T16:35:51.999Z</time></trkpt><trkpt lat="50.482109988780564" lon="4.042062605380917"><ele>74.0</ele><time>2026-04-30T16:35:52.999Z</time></trkpt><trkpt lat="50.482052823439794" lon="4.042317288408615"><ele>73.0</ele><time>2026-04-30T16:35:53.999Z</time></trkpt><trkpt lat="50.48199595821925" lon="4.042569816782531"><ele>72.0</ele><time>2026-04-30T16:35:54.999Z</time></trkpt><trkpt lat="50.4819390710623" lon="4.0428273143217055"><ele>72.0</ele><time>2026-04-30T16:35:55.999Z</time></trkpt><trkpt lat="50.48188253721733" lon="4.043083606037468"><ele>72.0</ele><time>2026-04-30T16:35:56.999Z</time></trkpt><trkpt lat="50.48182645588758" lon="4.043343420188278"><ele>72.0</ele><time>2026-04-30T16:35:57.999Z</time></trkpt><trkpt lat="50.48176935147789" lon="4.043608642564392"><ele>71.66666666666667</ele><time>2026-04-30T16:35:58.999Z</time></trkpt><trkpt lat="50.481710167567215" lon="4.043877943253076"><ele>71.33333333333334</ele><time>2026-04-30T16:35:59.999Z</time></trkpt><trkpt lat="50.48164821036428" lon="4.044153459339087"><ele>71.0</ele><time>2026-04-30T16:36:00.999Z</time></trkpt><trkpt lat="50.481586793936415" lon="4.044431696901261"><ele>71.0</ele><time>2026-04-30T16:36:01.999Z</time></trkpt><trkpt lat="50.48152717350605" lon="4.044712782228802"><ele>71.0</ele><time>2026-04-30T16:36:02.999Z</time></trkpt><trkpt lat="50.48146901369696" lon="4.044994794027819"><ele>71.0</ele><time>2026-04-30T16:36:03.999Z</time></trkpt><trkpt lat="50.481414855721255" lon="4.045275945816662"><ele>71.0</ele><time>2026-04-30T16:36:04.999Z</time></trkpt><trkpt lat="50.48135633024033" lon="4.045557774614134"><ele>71.0</ele><time>2026-04-30T16:36:05.999Z</time></trkpt><trkpt lat="50.48130333608488" lon="4.04584514670299"><ele>71.0</ele><time>2026-04-30T16:36:06.999Z</time></trkpt><trkpt lat="50.48124776726619" lon="4.0461194876243765"><ele>73.33333333333334</ele><time>2026-04-30T16:36:07.999Z</time></trkpt><trkpt lat="50.481193468840196" lon="4.046396425670661"><ele>75.66666666666667</ele><time>2026-04-30T16:36:08.999Z</time></trkpt><trkpt lat="50.48113050149233" lon="4.046672150091457"><ele>78.0</ele><time>2026-04-30T16:36:09.999Z</time></trkpt><trkpt lat="50.48106478435587" lon="4.046941289828942"><ele>78.0</ele><time>2026-04-30T16:36:10.999Z</time></trkpt><trkpt lat="50.481016602368506" lon="4.0472264401755025"><ele>78.0</ele><time>2026-04-30T16:36:11.999Z</time></trkpt><trkpt lat="50.48095449432513" lon="4.0475067710890045"><ele>78.0</ele><time>2026-04-30T16:36:12.999Z</time></trkpt><trkpt lat="50.48089164565218" lon="4.047789187141348"><ele>77.33333333333333</ele><time>2026-04-30T16:36:13.999Z</time></trkpt><trkpt lat="50.48083621783403" lon="4.048056886332637"><ele>76.66666666666666</ele><time>2026-04-30T16:36:14.999Z</time></trkpt><trkpt lat="50.48078336031253" lon="4.048310004549481"><ele>76.0</ele><time>2026-04-30T16:36:15.999Z</time></trkpt><trkpt lat="50.480736944186425" lon="4.048548659032044"><ele>74.66666666666666</ele><time>2026-04-30T16:36:16.999Z</time></trkpt><trkpt lat="50.480692771054954" lon="4.048788200329177"><ele>73.33333333333333</ele><time>2026-04-30T16:36:17.999Z</time></trkpt><trkpt lat="50.480650327659845" lon="4.049032886168137"><ele>72.0</ele><time>2026-04-30T16:36:18.998Z</time></trkpt><trkpt lat="50.480608502522585" lon="4.049283113646936"><ele>71.33333333333333</ele><time>2026-04-30T16:36:19.998Z</time></trkpt><trkpt lat="50.480568308498704" lon="4.049540602756031"><ele>70.66666666666666</ele><time>2026-04-30T16:36:20.998Z</time></trkpt><trkpt lat="50.48052867096376" lon="4.049799008367451"><ele>70.0</ele><time>2026-04-30T16:36:21.998Z</time></trkpt><trkpt lat="50.48049035794072" lon="4.050057440285385"><ele>69.0</ele><time>2026-04-30T16:36:22.998Z</time></trkpt><trkpt lat="50.48045675240937" lon="4.050315538388678"><ele>68.0</ele><time>2026-04-30T16:36:23.998Z</time></trkpt><trkpt lat="50.480424489344394" lon="4.050578765071447"><ele>67.0</ele><time>2026-04-30T16:36:24.998Z</time></trkpt><trkpt lat="50.480393303656385" lon="4.050838464783389"><ele>65.0</ele><time>2026-04-30T16:36:25.998Z</time></trkpt><trkpt lat="50.48036576725332" lon="4.051097520351464"><ele>63.0</ele><time>2026-04-30T16:36:26.998Z</time></trkpt><trkpt lat="50.48034084500268" lon="4.051357395892015"><ele>61.0</ele><time>2026-04-30T16:36:27.998Z</time></trkpt><trkpt lat="50.48031824285604" lon="4.051618823438011"><ele>59.666666666666664</ele><time>2026-04-30T16:36:28.998Z</time></trkpt><trkpt lat="50.48029933432287" lon="4.051877208131381"><ele>58.33333333333333</ele><time>2026-04-30T16:36:29.998Z</time></trkpt><trkpt lat="50.480282542150334" lon="4.052134897785751"><ele>57.0</ele><time>2026-04-30T16:36:30.998Z</time></trkpt><trkpt lat="50.48026816377018" lon="4.052390973050759"><ele>57.33333333333333</ele><time>2026-04-30T16:36:31.998Z</time></trkpt><trkpt lat="50.48025717073126" lon="4.052647276029267"><ele>57.666666666666664</ele><time>2026-04-30T16:36:32.998Z</time></trkpt><trkpt lat="50.48024929244198" lon="4.052907697963601"><ele>58.0</ele><time>2026-04-30T16:36:33.998Z</time></trkpt><trkpt lat="50.48024323065449" lon="4.053168746317434"><ele>58.33333333333333</ele><time>2026-04-30T16:36:34.998Z</time></trkpt><trkpt lat="50.48024054316972" lon="4.053435140844222"><ele>58.66666666666667</ele><time>2026-04-30T16:36:35.998Z</time></trkpt><trkpt lat="50.4802392802673" lon="4.0537057642303775"><ele>59.0</ele><time>2026-04-30T16:36:37Z</time></trkpt><trkpt lat="50.48023983890246" lon="4.053981265599112"><ele>59.66666666666667</ele><time>2026-04-30T16:36:38Z</time></trkpt><trkpt lat="50.48024432869019" lon="4.054261531980719"><ele>60.33333333333333</ele><time>2026-04-30T16:36:39Z</time></trkpt><trkpt lat="50.480251247153866" lon="4.054545162839985"><ele>61.0</ele><time>2026-04-30T16:36:40Z</time></trkpt><trkpt lat="50.4802631918667" lon="4.0548310602476"><ele>61.0</ele><time>2026-04-30T16:36:41Z</time></trkpt><trkpt lat="50.48027780748036" lon="4.055115813651023"><ele>61.0</ele><time>2026-04-30T16:36:42Z</time></trkpt><trkpt lat="50.480295361891045" lon="4.055400266049374"><ele>61.0</ele><time>2026-04-30T16:36:43Z</time></trkpt><trkpt lat="50.48031597077003" lon="4.055681955811705"><ele>60.0</ele><time>2026-04-30T16:36:44Z</time></trkpt><trkpt lat="50.480338721827735" lon="4.0559599949041285"><ele>59.0</ele><time>2026-04-30T16:36:45Z</time></trkpt><trkpt lat="50.480364335865204" lon="4.0562351306846"><ele>58.0</ele><time>2026-04-30T16:36:46Z</time></trkpt><trkpt lat="50.48039282480575" lon="4.056506494570694"><ele>57.666666666666664</ele><time>2026-04-30T16:36:47Z</time></trkpt><trkpt lat="50.48042296923789" lon="4.056773505533589"><ele>57.33333333333333</ele><time>2026-04-30T16:36:48Z</time></trkpt><trkpt lat="50.48045527281341" lon="4.057034635615909"><ele>57.0</ele><time>2026-04-30T16:36:49Z</time></trkpt><trkpt lat="50.48048944673368" lon="4.057291433606572"><ele>58.33333333333333</ele><time>2026-04-30T16:36:50Z</time></trkpt><trkpt lat="50.48052537379626" lon="4.057543603170065"><ele>59.666666666666664</ele><time>2026-04-30T16:36:51Z</time></trkpt><trkpt lat="50.480565075625954" lon="4.057795248033796"><ele>61.0</ele><time>2026-04-30T16:36:52Z</time></trkpt><trkpt lat="50.48060875843318" lon="4.058044544050334"><ele>60.33333333333333</ele><time>2026-04-30T16:36:53Z</time></trkpt><trkpt lat="50.48065190110078" lon="4.0582905601138055"><ele>59.66666666666667</ele><time>2026-04-30T16:36:54Z</time></trkpt><trkpt lat="50.48069541045907" lon="4.058533237450693"><ele>59.0</ele><time>2026-04-30T16:36:55Z</time></trkpt><trkpt lat="50.48074044112804" lon="4.05877189131398"><ele>59.0</ele><time>2026-04-30T16:36:56Z</time></trkpt><trkpt lat="50.48078673325468" lon="4.059013737661216"><ele>59.0</ele><time>2026-04-30T16:36:57Z</time></trkpt><trkpt lat="50.48083251004945" lon="4.059257498923725"><ele>59.0</ele><time>2026-04-30T16:36:58Z</time></trkpt><trkpt lat="50.480882460776655" lon="4.059506964548828"><ele>59.0</ele><time>2026-04-30T16:36:59Z</time></trkpt><trkpt lat="50.48093231805411" lon="4.059758596086678"><ele>59.0</ele><time>2026-04-30T16:37:00Z</time></trkpt><trkpt lat="50.48098127944043" lon="4.060008030845169"><ele>59.0</ele><time>2026-04-30T16:37:01Z</time></trkpt><trkpt lat="50.48103254168721" lon="4.060256978168683"><ele>59.66666666666667</ele><time>2026-04-30T16:37:02Z</time></trkpt><trkpt lat="50.48108277203226" lon="4.06050653844665"><ele>60.33333333333333</ele><time>2026-04-30T16:37:03Z</time></trkpt><trkpt lat="50.481135410771124" lon="4.06075698338858"><ele>61.0</ele><time>2026-04-30T16:37:04Z</time></trkpt><trkpt lat="50.481189175733796" lon="4.061006053174281"><ele>61.33333333333333</ele><time>2026-04-30T16:37:05Z</time></trkpt><trkpt lat="50.48124397632274" lon="4.061254542448119"><ele>61.66666666666667</ele><time>2026-04-30T16:37:06Z</time></trkpt><trkpt lat="50.48130031123342" lon="4.061507271629444"><ele>62.0</ele><time>2026-04-30T16:37:07Z</time></trkpt><trkpt lat="50.48135771820806" lon="4.061766303265484"><ele>62.0</ele><time>2026-04-30T16:37:08Z</time></trkpt><trkpt lat="50.48141729483689" lon="4.0620271880817835"><ele>62.0</ele><time>2026-04-30T16:37:09Z</time></trkpt><trkpt lat="50.481477964548866" lon="4.062293550105436"><ele>62.0</ele><time>2026-04-30T16:37:10Z</time></trkpt><trkpt lat="50.481538414224296" lon="4.062560649021489"><ele>62.0</ele><time>2026-04-30T16:37:11Z</time></trkpt><trkpt lat="50.48159837036805" lon="4.062825871958206"><ele>62.0</ele><time>2026-04-30T16:37:12Z</time></trkpt><trkpt lat="50.48165830297705" lon="4.063088493799193"><ele>62.0</ele><time>2026-04-30T16:37:13Z</time></trkpt><trkpt lat="50.48171762405831" lon="4.063350363000391"><ele>61.333333333333336</ele><time>2026-04-30T16:37:14Z</time></trkpt><trkpt lat="50.48177524353887" lon="4.063605588584864"><ele>60.66666666666667</ele><time>2026-04-30T16:37:15Z</time></trkpt><trkpt lat="50.48183394923402" lon="4.063861991579555"><ele>60.0</ele><time>2026-04-30T16:37:16Z</time></trkpt><trkpt lat="50.48189123505407" lon="4.064118879767229"><ele>59.0</ele><time>2026-04-30T16:37:17Z</time></trkpt><trkpt lat="50.48195091658519" lon="4.064375599142525"><ele>58.0</ele><time>2026-04-30T16:37:18Z</time></trkpt><trkpt lat="50.48201079942219" lon="4.064637818614855"><ele>57.0</ele><time>2026-04-30T16:37:19Z</time></trkpt><trkpt lat="50.48206865662172" lon="4.064901129794213"><ele>58.0</ele><time>2026-04-30T16:37:20Z</time></trkpt><trkpt lat="50.4821354446965" lon="4.065163798853982"><ele>59.0</ele><time>2026-04-30T16:37:21Z</time></trkpt><trkpt lat="50.482193651307526" lon="4.065434139890032"><ele>60.0</ele><time>2026-04-30T16:37:22Z</time></trkpt><trkpt lat="50.48226007599599" lon="4.065686717404052"><ele>60.66666666666667</ele><time>2026-04-30T16:37:23Z</time></trkpt><trkpt lat="50.48231972629511" lon="4.0659451562272055"><ele>61.333333333333336</ele><time>2026-04-30T16:37:24Z</time></trkpt><trkpt lat="50.482370965561294" lon="4.066211354353227"><ele>62.0</ele><time>2026-04-30T16:37:25Z</time></trkpt><trkpt lat="50.48242512010924" lon="4.066458467884658"><ele>62.66666666666667</ele><time>2026-04-30T16:37:26Z</time></trkpt><trkpt lat="50.48247968741111" lon="4.066702516785449"><ele>63.33333333333333</ele><time>2026-04-30T16:37:27Z</time></trkpt><trkpt lat="50.48253451624807" lon="4.066946896053833"><ele>64.0</ele><time>2026-04-30T16:37:28Z</time></trkpt><trkpt lat="50.482589153459124" lon="4.06719397496355"><ele>64.0</ele><time>2026-04-30T16:37:29Z</time></trkpt><trkpt lat="50.48264446739781" lon="4.067441127400033"><ele>64.0</ele><time>2026-04-30T16:37:30Z</time></trkpt><trkpt lat="50.48270071723998" lon="4.067692147965785"><ele>64.0</ele><time>2026-04-30T16:37:31Z</time></trkpt><trkpt lat="50.48275898993459" lon="4.067944119018708"><ele>63.666666666666664</ele><time>2026-04-30T16:37:31.999Z</time></trkpt><trkpt lat="50.482812867124856" lon="4.068195550573799"><ele>63.33333333333333</ele><time>2026-04-30T16:37:32.999Z</time></trkpt><trkpt lat="50.48286917218272" lon="4.068444799803977"><ele>63.0</ele><time>2026-04-30T16:37:33.999Z</time></trkpt><trkpt lat="50.482923573541726" lon="4.0686886484698475"><ele>64.0</ele><time>2026-04-30T16:37:34.999Z</time></trkpt><trkpt lat="50.48297622860564" lon="4.068926221610081"><ele>65.0</ele><time>2026-04-30T16:37:35.999Z</time></trkpt><trkpt lat="50.48302898234216" lon="4.069162160723023"><ele>66.0</ele><time>2026-04-30T16:37:36.999Z</time></trkpt><trkpt lat="50.483083058162" lon="4.069400249982981"><ele>67.0</ele><time>2026-04-30T16:37:37.999Z</time></trkpt><trkpt lat="50.48313621793734" lon="4.069637172115014"><ele>68.0</ele><time>2026-04-30T16:37:38.999Z</time></trkpt><trkpt lat="50.48319212985172" lon="4.069877802460345"><ele>69.0</ele><time>2026-04-30T16:37:39.999Z</time></trkpt><trkpt lat="50.48324801104874" lon="4.070128064651698"><ele>70.0</ele><time>2026-04-30T16:37:40.999Z</time></trkpt><trkpt lat="50.48330422673588" lon="4.070376426079855"><ele>71.0</ele><time>2026-04-30T16:37:41.999Z</time></trkpt><trkpt lat="50.483360158953005" lon="4.070626909019679"><ele>72.0</ele><time>2026-04-30T16:37:42.999Z</time></trkpt><trkpt lat="50.48341457869675" lon="4.070873979581802"><ele>72.0</ele><time>2026-04-30T16:37:43.999Z</time></trkpt><trkpt lat="50.48346803699299" lon="4.071112822060909"><ele>72.0</ele><time>2026-04-30T16:37:44.999Z</time></trkpt><trkpt lat="50.4835212899932" lon="4.07135054633685"><ele>72.0</ele><time>2026-04-30T16:37:45.999Z</time></trkpt><trkpt lat="50.48357445684099" lon="4.0715869253206565"><ele>72.33333333333333</ele><time>2026-04-30T16:37:46.999Z</time></trkpt><trkpt lat="50.483626793188755" lon="4.071830478364011"><ele>72.66666666666666</ele><time>2026-04-30T16:37:47.999Z</time></trkpt><trkpt lat="50.4836812818663" lon="4.072071430890636"><ele>73.0</ele><time>2026-04-30T16:37:48.999Z</time></trkpt><trkpt lat="50.483737680378574" lon="4.072317323001731"><ele>75.0</ele><time>2026-04-30T16:37:49.999Z</time></trkpt><trkpt lat="50.483793461034395" lon="4.072568416381327"><ele>77.0</ele><time>2026-04-30T16:37:50.999Z</time></trkpt><trkpt lat="50.48385049324114" lon="4.072825015176468"><ele>79.0</ele><time>2026-04-30T16:37:51.999Z</time></trkpt><trkpt lat="50.48390978934704" lon="4.073085135031247"><ele>79.33333333333333</ele><time>2026-04-30T16:37:52.999Z</time></trkpt><trkpt lat="50.483967486689245" lon="4.0733474903002085"><ele>79.66666666666667</ele><time>2026-04-30T16:37:53.999Z</time></trkpt><trkpt lat="50.484024280337984" lon="4.073613195178256"><ele>80.0</ele><time>2026-04-30T16:37:54.999Z</time></trkpt><trkpt lat="50.48408496222767" lon="4.07387521100472"><ele>80.33333333333334</ele><time>2026-04-30T16:37:55.999Z</time></trkpt><trkpt lat="50.484142437180715" lon="4.074138570758075"><ele>80.66666666666667</ele><time>2026-04-30T16:37:56.999Z</time></trkpt><trkpt lat="50.48420116866876" lon="4.074400947368159"><ele>81.0</ele><time>2026-04-30T16:37:57.999Z</time></trkpt><trkpt lat="50.48426261881318" lon="4.074664588315928"><ele>81.0</ele><time>2026-04-30T16:37:58.999Z</time></trkpt><trkpt lat="50.48432407411148" lon="4.074926626441412"><ele>81.0</ele><time>2026-04-30T16:37:59.999Z</time></trkpt><trkpt lat="50.48439014217494" lon="4.075185510490461"><ele>81.0</ele><time>2026-04-30T16:38:00.999Z</time></trkpt><trkpt lat="50.484455245843975" lon="4.0754412800242985"><ele>81.33333333333333</ele><time>2026-04-30T16:38:01.999Z</time></trkpt><trkpt lat="50.48452233165192" lon="4.075691991093792"><ele>81.66666666666666</ele><time>2026-04-30T16:38:02.999Z</time></trkpt><trkpt lat="50.48458705701968" lon="4.075948657532169"><ele>82.0</ele><time>2026-04-30T16:38:03.999Z</time></trkpt><trkpt lat="50.48465338558329" lon="4.076203260289037"><ele>83.0</ele><time>2026-04-30T16:38:04.999Z</time></trkpt><trkpt lat="50.484720615672266" lon="4.0764602771558005"><ele>84.0</ele><time>2026-04-30T16:38:05.999Z</time></trkpt><trkpt lat="50.4847871162757" lon="4.076726973877331"><ele>85.0</ele><time>2026-04-30T16:38:06.999Z</time></trkpt><trkpt lat="50.48485173501969" lon="4.077004632103138"><ele>85.33333333333333</ele><time>2026-04-30T16:38:07.999Z</time></trkpt><trkpt lat="50.4849145106237" lon="4.077291447612523"><ele>85.66666666666667</ele><time>2026-04-30T16:38:08.999Z</time></trkpt><trkpt lat="50.48498012102187" lon="4.077586791815444"><ele>86.0</ele><time>2026-04-30T16:38:09.999Z</time></trkpt><trkpt lat="50.48504890811742" lon="4.077889715105059"><ele>86.66666666666667</ele><time>2026-04-30T16:38:10.999Z</time></trkpt><trkpt lat="50.485119637168545" lon="4.078198138602971"><ele>87.33333333333333</ele><time>2026-04-30T16:38:11.999Z</time></trkpt><trkpt lat="50.485191248489805" lon="4.0785154894912115"><ele>88.0</ele><time>2026-04-30T16:38:12.999Z</time></trkpt><trkpt lat="50.48526397552933" lon="4.078840819076457"><ele>90.0</ele><time>2026-04-30T16:38:13.999Z</time></trkpt><trkpt lat="50.485338050753995" lon="4.079170504464819"><ele>92.0</ele><time>2026-04-30T16:38:14.999Z</time></trkpt><trkpt lat="50.4854115936304" lon="4.079503342730935"><ele>94.0</ele><time>2026-04-30T16:38:15.999Z</time></trkpt><trkpt lat="50.48548576626354" lon="4.079839216959183"><ele>95.0</ele><time>2026-04-30T16:38:16.999Z</time></trkpt><trkpt lat="50.48556379558325" lon="4.08018236887425"><ele>96.0</ele><time>2026-04-30T16:38:17.999Z</time></trkpt><trkpt lat="50.48564467936959" lon="4.080532456661133"><ele>96.0</ele><time>2026-04-30T16:38:18.999Z</time></trkpt><trkpt lat="50.48572649197503" lon="4.080890601491263"><ele>96.0</ele><time>2026-04-30T16:38:19.999Z</time></trkpt><trkpt lat="50.48580950195568" lon="4.0812547762643705"><ele>97.0</ele><time>2026-04-30T16:38:20.999Z</time></trkpt><trkpt lat="50.485893679855685" lon="4.081625203899643"><ele>98.0</ele><time>2026-04-30T16:38:21.999Z</time></trkpt><trkpt lat="50.48597768981087" lon="4.08200273401758"><ele>98.0</ele><time>2026-04-30T16:38:22.999Z</time></trkpt><trkpt lat="50.48606430144388" lon="4.082385315619647"><ele>98.0</ele><time>2026-04-30T16:38:23.999Z</time></trkpt><trkpt lat="50.48615341523397" lon="4.082774006023808"><ele>98.0</ele><time>2026-04-30T16:38:24.999Z</time></trkpt><trkpt lat="50.48624237929312" lon="4.0831675258043685"><ele>98.0</ele><time>2026-04-30T16:38:25.999Z</time></trkpt><trkpt lat="50.48633091958149" lon="4.083568156347443"><ele>100.5</ele><time>2026-04-30T16:38:26.999Z</time></trkpt><trkpt lat="50.486420566538506" lon="4.0839738765006395"><ele>103.0</ele><time>2026-04-30T16:38:27.999Z</time></trkpt><trkpt lat="50.486513526284234" lon="4.0843850099697185"><ele>103.0</ele><time>2026-04-30T16:38:28.999Z</time></trkpt><trkpt lat="50.486607369606986" lon="4.08480116639515"><ele>103.0</ele><time>2026-04-30T16:38:29.999Z</time></trkpt><trkpt lat="50.48670231840844" lon="4.085221724194397"><ele>103.0</ele><time>2026-04-30T16:38:30.999Z</time></trkpt><trkpt lat="50.48679882046884" lon="4.085648293630494"><ele>103.0</ele><time>2026-04-30T16:38:31.999Z</time></trkpt><trkpt lat="50.48689726933116" lon="4.086080188592239"><ele>103.0</ele><time>2026-04-30T16:38:32.999Z</time></trkpt><trkpt lat="50.48699675226318" lon="4.086517179741983"><ele>103.0</ele><time>2026-04-30T16:38:33.999Z</time></trkpt><trkpt lat="50.48709711725248" lon="4.086961019674982"><ele>105.0</ele><time>2026-04-30T16:38:34.999Z</time></trkpt><trkpt lat="50.487200016755644" lon="4.0874071809437185"><ele>107.0</ele><time>2026-04-30T16:38:35.998Z</time></trkpt><trkpt lat="50.487301254023" lon="4.087853711703461"><ele>108.0</ele><time>2026-04-30T16:38:36.998Z</time></trkpt><trkpt lat="50.48740515946994" lon="4.088306916026402"><ele>109.0</ele><time>2026-04-30T16:38:37.998Z</time></trkpt><trkpt lat="50.487499308622354" lon="4.088758839498034"><ele>109.0</ele><time>2026-04-30T16:38:38.998Z</time></trkpt><trkpt lat="50.487601554937754" lon="4.08920778377899"><ele>109.0</ele><time>2026-04-30T16:38:39.998Z</time></trkpt><trkpt lat="50.48770483211418" lon="4.089658094662669"><ele>109.5</ele><time>2026-04-30T16:38:40.998Z</time></trkpt><trkpt lat="50.48780577417388" lon="4.090102221266196"><ele>110.0</ele><time>2026-04-30T16:38:41.998Z</time></trkpt><trkpt lat="50.48789656153296" lon="4.090557455056286"><ele>113.0</ele><time>2026-04-30T16:38:43Z</time></trkpt><trkpt lat="50.48799697115516" lon="4.091008019707005"><ele>116.0</ele><time>2026-04-30T16:38:44Z</time></trkpt><trkpt lat="50.48810694039879" lon="4.091492171963838"><ele>117.0</ele><time>2026-04-30T16:38:45Z</time></trkpt><trkpt lat="50.48820925545241" lon="4.091955833163603"><ele>118.0</ele><time>2026-04-30T16:38:46Z</time></trkpt><trkpt lat="50.488312266602776" lon="4.092416950827813"><ele>118.5</ele><time>2026-04-30T16:38:47Z</time></trkpt><trkpt lat="50.488408498614966" lon="4.092863176826707"><ele>119.0</ele><time>2026-04-30T16:38:48Z</time></trkpt><trkpt lat="50.48850683856534" lon="4.093316230008194"><ele>119.5</ele><time>2026-04-30T16:38:49Z</time></trkpt><trkpt lat="50.4885283324146" lon="4.0938250128856755"><ele>120.0</ele><time>2026-04-30T16:38:50.056Z</time></trkpt><trkpt lat="50.488631289055185" lon="4.094281428309119"><ele>121.0</ele><time>2026-04-30T16:38:51.059Z</time></trkpt><trkpt lat="50.48873271942926" lon="4.094732401750591"><ele>122.0</ele><time>2026-04-30T16:38:52.055Z</time></trkpt><trkpt lat="50.48883265688293" lon="4.095177665591913"><ele>122.0</ele><time>2026-04-30T16:38:53.053Z</time></trkpt><trkpt lat="50.48893274955921" lon="4.095623679646302"><ele>122.0</ele><time>2026-04-30T16:38:54.046Z</time></trkpt><trkpt lat="50.48715695666261" lon="4.2692980308753885"><ele>136.5</ele><time>2026-04-30T16:49:02.99Z</time></trkpt><trkpt lat="50.48696040551352" lon="4.269673921376811"><ele>151.0</ele><time>2026-04-30T16:49:03.99Z</time></trkpt><trkpt lat="50.48674714122215" lon="4.27001464004404"><ele>152.0</ele><time>2026-04-30T16:49:04.99Z</time></trkpt><trkpt lat="50.48652241260351" lon="4.270335948925778"><ele>153.0</ele><time>2026-04-30T16:49:05.99Z</time></trkpt><trkpt lat="50.48631934543763" lon="4.270634681790944"><ele>154.5</ele><time>2026-04-30T16:49:07Z</time></trkpt><trkpt lat="50.486124545171684" lon="4.270959323844386"><ele>156.0</ele><time>2026-04-30T16:49:08Z</time></trkpt><trkpt lat="50.48592613324492" lon="4.271332218765328"><ele>156.0</ele><time>2026-04-30T16:49:09Z</time></trkpt><trkpt lat="50.48569734955496" lon="4.2717602262829875"><ele>156.0</ele><time>2026-04-30T16:49:10Z</time></trkpt><trkpt lat="50.485483921436085" lon="4.272177292729074"><ele>156.0</ele><time>2026-04-30T16:49:11Z</time></trkpt><trkpt lat="50.48510063919697" lon="4.272309352105996"><ele>156.0</ele><time>2026-04-30T16:49:12Z</time></trkpt><trkpt lat="50.48470470128973" lon="4.27316304967502"><ele>157.5</ele><time>2026-04-30T16:49:14Z</time></trkpt><trkpt lat="50.48451639705967" lon="4.273614569056041"><ele>159.0</ele><time>2026-04-30T16:49:15Z</time></trkpt><trkpt lat="50.484438966577855" lon="4.2741746531117055"><ele>159.0</ele><time>2026-04-30T16:49:16Z</time></trkpt><trkpt lat="50.48425025572475" lon="4.27454294213534"><ele>159.0</ele><time>2026-04-30T16:49:17Z</time></trkpt><trkpt lat="50.48406178517249" lon="4.274912948430225"><ele>160.0</ele><time>2026-04-30T16:49:18Z</time></trkpt><trkpt lat="50.4838591605518" lon="4.275313416204603"><ele>161.0</ele><time>2026-04-30T16:49:19Z</time></trkpt><trkpt lat="50.48365371233311" lon="4.275729973510365"><ele>161.5</ele><time>2026-04-30T16:49:20Z</time></trkpt><trkpt lat="50.48348708219187" lon="4.276160460889259"><ele>162.0</ele><time>2026-04-30T16:49:21Z</time></trkpt><trkpt lat="50.48330468698483" lon="4.276578694409143"><ele>162.5</ele><time>2026-04-30T16:49:22Z</time></trkpt><trkpt lat="50.483112229975994" lon="4.276974309303806"><ele>163.0</ele><time>2026-04-30T16:49:23Z</time></trkpt><trkpt lat="50.48292184644595" lon="4.277364146405278"><ele>163.0</ele><time>2026-04-30T16:49:24Z</time></trkpt><trkpt lat="50.48274422297623" lon="4.277736749763767"><ele>163.0</ele><time>2026-04-30T16:49:25Z</time></trkpt><trkpt lat="50.48256245259942" lon="4.278132795286919"><ele>163.0</ele><time>2026-04-30T16:49:26Z</time></trkpt><trkpt lat="50.482392884598795" lon="4.278549507542841"><ele>163.0</ele><time>2026-04-30T16:49:27Z</time></trkpt><trkpt lat="50.48223921893849" lon="4.278949143860902"><ele>162.5</ele><time>2026-04-30T16:49:28Z</time></trkpt><trkpt lat="50.48207328957856" lon="4.27937671990446"><ele>162.0</ele><time>2026-04-30T16:49:29Z</time></trkpt><trkpt lat="50.48190006346074" lon="4.279797102946763"><ele>162.0</ele><time>2026-04-30T16:49:30Z</time></trkpt><trkpt lat="50.481730483874756" lon="4.280197983818815"><ele>162.0</ele><time>2026-04-30T16:49:31Z</time></trkpt><trkpt lat="50.48156859509745" lon="4.280632739273571"><ele>161.5</ele><time>2026-04-30T16:49:32Z</time></trkpt><trkpt lat="50.481396179261075" lon="4.281026888410803"><ele>161.0</ele><time>2026-04-30T16:49:33Z</time></trkpt><trkpt lat="50.48123708374202" lon="4.281422878391542"><ele>160.0</ele><time>2026-04-30T16:49:34Z</time></trkpt><trkpt lat="50.481083451765606" lon="4.281845284908633"><ele>159.0</ele><time>2026-04-30T16:49:35Z</time></trkpt><trkpt lat="50.48093905790363" lon="4.282272574586059"><ele>159.0</ele><time>2026-04-30T16:49:36Z</time></trkpt><trkpt lat="50.48077494303254" lon="4.282685086710779"><ele>159.0</ele><time>2026-04-30T16:49:37Z</time></trkpt><trkpt lat="50.48062300138562" lon="4.283132030592692"><ele>159.0</ele><time>2026-04-30T16:49:38Z</time></trkpt><trkpt lat="50.48047653906589" lon="4.283563119497315"><ele>159.0</ele><time>2026-04-30T16:49:39Z</time></trkpt><trkpt lat="50.48033973699542" lon="4.283985175647516"><ele>159.0</ele><time>2026-04-30T16:49:40Z</time></trkpt><trkpt lat="50.48020321794636" lon="4.284421161691048"><ele>159.0</ele><time>2026-04-30T16:49:41Z</time></trkpt><trkpt lat="50.48007508003107" lon="4.284851439404536"><ele>159.0</ele><time>2026-04-30T16:49:42Z</time></trkpt><trkpt lat="50.47995103846497" lon="4.285281208774543"><ele>159.0</ele><time>2026-04-30T16:49:43Z</time></trkpt><trkpt lat="50.47982904479879" lon="4.285715710470722"><ele>159.0</ele><time>2026-04-30T16:49:44Z</time></trkpt><trkpt lat="50.479707107378275" lon="4.286145492160106"><ele>159.0</ele><time>2026-04-30T16:49:45Z</time></trkpt><trkpt lat="50.47958887881409" lon="4.286592900270437"><ele>159.0</ele><time>2026-04-30T16:49:46Z</time></trkpt><trkpt lat="50.47948185992595" lon="4.287035946198872"><ele>159.0</ele><time>2026-04-30T16:49:47Z</time></trkpt><trkpt lat="50.47937576757328" lon="4.287487535815241"><ele>158.5</ele><time>2026-04-30T16:49:48Z</time></trkpt><trkpt lat="50.47928326716673" lon="4.287957268110521"><ele>158.0</ele><time>2026-04-30T16:49:49Z</time></trkpt><trkpt lat="50.4791807699342" lon="4.288429212238721"><ele>157.5</ele><time>2026-04-30T16:49:50Z</time></trkpt><trkpt lat="50.47908568158477" lon="4.288903811859855"><ele>157.0</ele><time>2026-04-30T16:49:51Z</time></trkpt><trkpt lat="50.47899683511985" lon="4.28938030422164"><ele>154.0</ele><time>2026-04-30T16:49:52Z</time></trkpt><trkpt lat="50.47891386352594" lon="4.289858903261976"><ele>151.0</ele><time>2026-04-30T16:49:53Z</time></trkpt><trkpt lat="50.47883388451119" lon="4.290335107967067"><ele>153.0</ele><time>2026-04-30T16:49:54Z</time></trkpt><trkpt lat="50.47875526867472" lon="4.290818255398499"><ele>155.0</ele><time>2026-04-30T16:49:55Z</time></trkpt><trkpt lat="50.478691447960216" lon="4.2913029866854915"><ele>153.0</ele><time>2026-04-30T16:49:56Z</time></trkpt><trkpt lat="50.478636495338826" lon="4.291797805383569"><ele>151.0</ele><time>2026-04-30T16:49:57Z</time></trkpt><trkpt lat="50.47858052745427" lon="4.292294372533587"><ele>150.5</ele><time>2026-04-30T16:49:58Z</time></trkpt><trkpt lat="50.47853161971346" lon="4.292783701160935"><ele>150.0</ele><time>2026-04-30T16:49:59Z</time></trkpt><trkpt lat="50.4784862555593" lon="4.293278213280256"><ele>148.5</ele><time>2026-04-30T16:50:00Z</time></trkpt><trkpt lat="50.47844573195775" lon="4.293770500648063"><ele>147.0</ele><time>2026-04-30T16:50:01Z</time></trkpt><trkpt lat="50.47840740481043" lon="4.2942643955731405"><ele>146.0</ele><time>2026-04-30T16:50:02Z</time></trkpt><trkpt lat="50.47837496551916" lon="4.294761364554758"><ele>145.0</ele><time>2026-04-30T16:50:03Z</time></trkpt><trkpt lat="50.478350348564554" lon="4.295257254935966"><ele>144.5</ele><time>2026-04-30T16:50:04Z</time></trkpt><trkpt lat="50.478322789133884" lon="4.2957565168197664"><ele>144.0</ele><time>2026-04-30T16:50:05Z</time></trkpt><trkpt lat="50.478295777765254" lon="4.296253902857293"><ele>143.0</ele><time>2026-04-30T16:50:06Z</time></trkpt><trkpt lat="50.478275797689506" lon="4.2967567576890255"><ele>142.0</ele><time>2026-04-30T16:50:07Z</time></trkpt><trkpt lat="50.4782536296623" lon="4.29724433509977"><ele>141.0</ele><time>2026-04-30T16:50:08Z</time></trkpt><trkpt lat="50.478241980436366" lon="4.297751994657061"><ele>140.0</ele><time>2026-04-30T16:50:09Z</time></trkpt><trkpt lat="50.478239010959754" lon="4.298261069470045"><ele>140.0</ele><time>2026-04-30T16:50:10Z</time></trkpt><trkpt lat="50.4782431173221" lon="4.298760467823483"><ele>140.0</ele><time>2026-04-30T16:50:11Z</time></trkpt><trkpt lat="50.47824772226415" lon="4.299263143152345"><ele>139.0</ele><time>2026-04-30T16:50:12Z</time></trkpt><trkpt lat="50.47826167592457" lon="4.299765843514095"><ele>138.0</ele><time>2026-04-30T16:50:13Z</time></trkpt><trkpt lat="50.478283480820636" lon="4.300248613178443"><ele>139.0</ele><time>2026-04-30T16:50:14Z</time></trkpt><trkpt lat="50.47830099455173" lon="4.30074640063117"><ele>140.0</ele><time>2026-04-30T16:50:15Z</time></trkpt><trkpt lat="50.47830927262065" lon="4.3012420683233845"><ele>141.5</ele><time>2026-04-30T16:50:16Z</time></trkpt><trkpt lat="50.47833134983371" lon="4.301730381981154"><ele>143.0</ele><time>2026-04-30T16:50:16.999Z</time></trkpt><trkpt lat="50.47836192152188" lon="4.3021838136677975"><ele>145.0</ele><time>2026-04-30T16:50:17.999Z</time></trkpt><trkpt lat="50.47842517259817" lon="4.30264144465204"><ele>147.0</ele><time>2026-04-30T16:50:18.999Z</time></trkpt><trkpt lat="50.47847440216031" lon="4.303154741877367"><ele>148.5</ele><time>2026-04-30T16:50:19.999Z</time></trkpt><trkpt lat="50.478515082539595" lon="4.303694963507597"><ele>150.0</ele><time>2026-04-30T16:50:20.999Z</time></trkpt><trkpt lat="50.47855894375024" lon="4.304224528048177"><ele>151.0</ele><time>2026-04-30T16:50:21.999Z</time></trkpt><trkpt lat="50.47861033491026" lon="4.3047202016919535"><ele>152.0</ele><time>2026-04-30T16:50:22.999Z</time></trkpt><trkpt lat="50.47861881888197" lon="4.305231164904674"><ele>154.0</ele><time>2026-04-30T16:50:23.999Z</time></trkpt><trkpt lat="50.47864456827958" lon="4.305735331095211"><ele>156.0</ele><time>2026-04-30T16:50:24.999Z</time></trkpt><trkpt lat="50.47868554637957" lon="4.306248658486255"><ele>156.5</ele><time>2026-04-30T16:50:25.999Z</time></trkpt><trkpt lat="50.47874227327985" lon="4.306728560219784"><ele>157.0</ele><time>2026-04-30T16:50:26.999Z</time></trkpt><trkpt lat="50.478778134165594" lon="4.307235823410099"><ele>155.5</ele><time>2026-04-30T16:50:27.999Z</time></trkpt><trkpt lat="50.478814735587235" lon="4.307740900223759"><ele>154.0</ele><time>2026-04-30T16:50:28.999Z</time></trkpt><trkpt lat="50.47884553406215" lon="4.308236963079764"><ele>153.5</ele><time>2026-04-30T16:50:29.998Z</time></trkpt><trkpt lat="50.47888063325397" lon="4.308710101785264"><ele>153.0</ele><time>2026-04-30T16:50:30.998Z</time></trkpt><trkpt lat="50.4789170925815" lon="4.30920133583531"><ele>152.0</ele><time>2026-04-30T16:50:31.998Z</time></trkpt><trkpt lat="50.47896128769031" lon="4.309717658254679"><ele>151.0</ele><time>2026-04-30T16:50:32.998Z</time></trkpt><trkpt lat="50.47899988447419" lon="4.310217053246951"><ele>150.0</ele><time>2026-04-30T16:50:33.998Z</time></trkpt><trkpt lat="50.479021889069756" lon="4.310692541008715"><ele>149.0</ele><time>2026-04-30T16:50:34.998Z</time></trkpt><trkpt lat="50.479056161976914" lon="4.311201539247991"><ele>149.0</ele><time>2026-04-30T16:50:35.998Z</time></trkpt><trkpt lat="50.479092160272295" lon="4.311700406457507"><ele>149.0</ele><time>2026-04-30T16:50:36.998Z</time></trkpt><trkpt lat="50.479137093702164" lon="4.312205071067895"><ele>148.5</ele><time>2026-04-30T16:50:37.998Z</time></trkpt><trkpt lat="50.479164208229065" lon="4.3127046185100815"><ele>148.0</ele><time>2026-04-30T16:50:38.998Z</time></trkpt><trkpt lat="50.47920484788025" lon="4.313208060222653"><ele>148.0</ele><time>2026-04-30T16:50:39.998Z</time></trkpt><trkpt lat="50.47924325567545" lon="4.31370653676878"><ele>148.0</ele><time>2026-04-30T16:50:40.998Z</time></trkpt><trkpt lat="50.47928302127979" lon="4.314198249484683"><ele>148.5</ele><time>2026-04-30T16:50:41.998Z</time></trkpt><trkpt lat="50.479326730191154" lon="4.314709609397007"><ele>149.0</ele><time>2026-04-30T16:50:42.998Z</time></trkpt><trkpt lat="50.47936800170988" lon="4.31521458161267"><ele>150.0</ele><time>2026-04-30T16:50:43.998Z</time></trkpt><trkpt lat="50.479417425812976" lon="4.315712006035307"><ele>151.0</ele><time>2026-04-30T16:50:44.998Z</time></trkpt><trkpt lat="50.47945035301649" lon="4.31621101420992"><ele>149.5</ele><time>2026-04-30T16:50:45.998Z</time></trkpt><trkpt lat="50.47949174935954" lon="4.316698994277928"><ele>148.0</ele><time>2026-04-30T16:50:46.998Z</time></trkpt><trkpt lat="50.479530594245816" lon="4.317190234387391"><ele>147.5</ele><time>2026-04-30T16:50:47.998Z</time></trkpt><trkpt lat="50.479571217832515" lon="4.3176795859685235"><ele>147.0</ele><time>2026-04-30T16:50:48.998Z</time></trkpt><trkpt lat="50.47961101514402" lon="4.318168529484942"><ele>147.0</ele><time>2026-04-30T16:50:49.998Z</time></trkpt><trkpt lat="50.4796519176214" lon="4.318660658749404"><ele>147.0</ele><time>2026-04-30T16:50:50.998Z</time></trkpt><trkpt lat="50.47969373829961" lon="4.319150457234599"><ele>147.0</ele><time>2026-04-30T16:50:51.998Z</time></trkpt><trkpt lat="50.479735873253745" lon="4.319639561547411"><ele>147.0</ele><time>2026-04-30T16:50:52.998Z</time></trkpt><trkpt lat="50.47977585151624" lon="4.320127381258684"><ele>147.5</ele><time>2026-04-30T16:50:53.998Z</time></trkpt><trkpt lat="50.479818297728634" lon="4.320617340046777"><ele>148.0</ele><time>2026-04-30T16:50:54.998Z</time></trkpt><trkpt lat="50.47985994620551" lon="4.321111250197746"><ele>148.0</ele><time>2026-04-30T16:50:55.998Z</time></trkpt><trkpt lat="50.47990035660786" lon="4.321601192989108"><ele>148.0</ele><time>2026-04-30T16:50:56.998Z</time></trkpt><trkpt lat="50.47994312595953" lon="4.322099884213889"><ele>148.0</ele><time>2026-04-30T16:50:57.998Z</time></trkpt><trkpt lat="50.47998681251115" lon="4.322595826757416"><ele>148.0</ele><time>2026-04-30T16:50:58.998Z</time></trkpt><trkpt lat="50.48002836663171" lon="4.323084855785607"><ele>147.5</ele><time>2026-04-30T16:50:59.998Z</time></trkpt><trkpt lat="50.480070636364054" lon="4.323578538421182"><ele>147.0</ele><time>2026-04-30T16:51:00.998Z</time></trkpt><trkpt lat="50.480112007639725" lon="4.324070622888191"><ele>147.0</ele><time>2026-04-30T16:51:01.998Z</time></trkpt><trkpt lat="50.48015542960238" lon="4.324564995637279"><ele>147.0</ele><time>2026-04-30T16:51:02.998Z</time></trkpt><trkpt lat="50.4801977382825" lon="4.325057689406797"><ele>147.5</ele><time>2026-04-30T16:51:03.998Z</time></trkpt><trkpt lat="50.48023925255084" lon="4.32555386718764"><ele>148.0</ele><time>2026-04-30T16:51:04.998Z</time></trkpt><trkpt lat="50.4802815802327" lon="4.326050227156884"><ele>146.0</ele><time>2026-04-30T16:51:05.998Z</time></trkpt><trkpt lat="50.48032500550397" lon="4.326550469214559"><ele>144.0</ele><time>2026-04-30T16:51:06.998Z</time></trkpt><trkpt lat="50.480372239252596" lon="4.327045474349733"><ele>145.0</ele><time>2026-04-30T16:51:07.998Z</time></trkpt><trkpt lat="50.480415578918105" lon="4.327548998444421"><ele>146.0</ele><time>2026-04-30T16:51:08.998Z</time></trkpt><trkpt lat="50.48045973143011" lon="4.3280497566278"><ele>147.5</ele><time>2026-04-30T16:51:09.998Z</time></trkpt><trkpt lat="50.48050322310059" lon="4.328543782540064"><ele>149.0</ele><time>2026-04-30T16:51:10.998Z</time></trkpt><trkpt lat="50.480545514921914" lon="4.329035423622475"><ele>149.0</ele><time>2026-04-30T16:51:11.998Z</time></trkpt><trkpt lat="50.48058525793598" lon="4.329526803903963"><ele>149.0</ele><time>2026-04-30T16:51:12.999Z</time></trkpt><trkpt lat="50.4806276911885" lon="4.33001828164171"><ele>149.5</ele><time>2026-04-30T16:51:13.999Z</time></trkpt><trkpt lat="50.480672136271295" lon="4.330508552401684"><ele>150.0</ele><time>2026-04-30T16:51:14.999Z</time></trkpt><trkpt lat="50.48072203331465" lon="4.330998649063847"><ele>152.5</ele><time>2026-04-30T16:51:15.999Z</time></trkpt><trkpt lat="50.48077413829027" lon="4.331492580424833"><ele>155.0</ele><time>2026-04-30T16:51:16.999Z</time></trkpt><trkpt lat="50.480823158883915" lon="4.331988886025937"><ele>154.5</ele><time>2026-04-30T16:51:17.999Z</time></trkpt><trkpt lat="50.48087133234852" lon="4.3324802663767965"><ele>154.0</ele><time>2026-04-30T16:51:18.999Z</time></trkpt><trkpt lat="50.48091644160593" lon="4.3329769458925504"><ele>154.0</ele><time>2026-04-30T16:51:19.999Z</time></trkpt><trkpt lat="50.480955569885204" lon="4.333473122844915"><ele>154.0</ele><time>2026-04-30T16:51:20.999Z</time></trkpt><trkpt lat="50.480996843739206" lon="4.333967274106105"><ele>155.0</ele><time>2026-04-30T16:51:21.999Z</time></trkpt><trkpt lat="50.48104483215381" lon="4.3344565757399"><ele>156.0</ele><time>2026-04-30T16:51:22.999Z</time></trkpt><trkpt lat="50.48108555894961" lon="4.334950081691079"><ele>157.0</ele><time>2026-04-30T16:51:23.999Z</time></trkpt><trkpt lat="50.48113055955819" lon="4.335438778350305"><ele>158.0</ele><time>2026-04-30T16:51:24.999Z</time></trkpt><trkpt lat="50.48116990439484" lon="4.335926006988579"><ele>158.5</ele><time>2026-04-30T16:51:25.999Z</time></trkpt><trkpt lat="50.48120927734301" lon="4.33641026403232"><ele>159.0</ele><time>2026-04-30T16:51:26.999Z</time></trkpt><trkpt lat="50.48124840184152" lon="4.336889477086782"><ele>158.5</ele><time>2026-04-30T16:51:27.999Z</time></trkpt><trkpt lat="50.4812934132371" lon="4.337371298220668"><ele>158.0</ele><time>2026-04-30T16:51:28.999Z</time></trkpt><trkpt lat="50.481337187920246" lon="4.337846506710229"><ele>159.5</ele><time>2026-04-30T16:51:29.999Z</time></trkpt><trkpt lat="50.48137641620056" lon="4.338319419897921"><ele>161.0</ele><time>2026-04-30T16:51:30.999Z</time></trkpt><trkpt lat="50.48141955121729" lon="4.338794355783203"><ele>161.0</ele><time>2026-04-30T16:51:31.999Z</time></trkpt><trkpt lat="50.48145146377124" lon="4.339266511884588"><ele>161.0</ele><time>2026-04-30T16:51:32.999Z</time></trkpt><trkpt lat="50.48148696136376" lon="4.339741667978861"><ele>161.0</ele><time>2026-04-30T16:51:33.999Z</time></trkpt><trkpt lat="50.48151506345452" lon="4.340219843242828"><ele>161.0</ele><time>2026-04-30T16:51:34.999Z</time></trkpt><trkpt lat="50.48154448216966" lon="4.340697417474758"><ele>161.0</ele><time>2026-04-30T16:51:35.999Z</time></trkpt><trkpt lat="50.48157802430208" lon="4.341174921155121"><ele>161.0</ele><time>2026-04-30T16:51:36.999Z</time></trkpt><trkpt lat="50.48161616395486" lon="4.34165646968083"><ele>162.0</ele><time>2026-04-30T16:51:37.999Z</time></trkpt><trkpt lat="50.481661466824754" lon="4.342142223988364"><ele>163.0</ele><time>2026-04-30T16:51:38.999Z</time></trkpt><trkpt lat="50.48169722281391" lon="4.3426287121877944"><ele>164.0</ele><time>2026-04-30T16:51:39.999Z</time></trkpt><trkpt lat="50.481736943049896" lon="4.343113267688973"><ele>165.0</ele><time>2026-04-30T16:51:40.999Z</time></trkpt><trkpt lat="50.48178261753823" lon="4.343606563169391"><ele>166.5</ele><time>2026-04-30T16:51:41.999Z</time></trkpt><trkpt lat="50.481799521785625" lon="4.344091108417976"><ele>168.0</ele><time>2026-04-30T16:51:42.999Z</time></trkpt><trkpt lat="50.481833398657095" lon="4.34459961068266"><ele>168.0</ele><time>2026-04-30T16:51:43.999Z</time></trkpt><trkpt lat="50.48186117650038" lon="4.345090066264342"><ele>168.0</ele><time>2026-04-30T16:51:44.999Z</time></trkpt><trkpt lat="50.48188536668065" lon="4.345596938920668"><ele>168.0</ele><time>2026-04-30T16:51:45.999Z</time></trkpt><trkpt lat="50.481899237208474" lon="4.346102335082184"><ele>168.0</ele><time>2026-04-30T16:51:46.999Z</time></trkpt><trkpt lat="50.48191051191078" lon="4.3466072799298425"><ele>168.5</ele><time>2026-04-30T16:51:47.999Z</time></trkpt><trkpt lat="50.4819143105051" lon="4.347113136555624"><ele>169.0</ele><time>2026-04-30T16:51:48.999Z</time></trkpt><trkpt lat="50.48191513174863" lon="4.3476140410348"><ele>168.5</ele><time>2026-04-30T16:51:49.999Z</time></trkpt><trkpt lat="50.48191505971402" lon="4.348111952615454"><ele>168.0</ele><time>2026-04-30T16:51:50.999Z</time></trkpt><trkpt lat="50.48190972291993" lon="4.348606658798188"><ele>167.5</ele><time>2026-04-30T16:51:51.999Z</time></trkpt><trkpt lat="50.481899269812814" lon="4.3490966466808745"><ele>167.0</ele><time>2026-04-30T16:51:52.999Z</time></trkpt><trkpt lat="50.48188443401562" lon="4.349588769765782"><ele>167.0</ele><time>2026-04-30T16:51:53.999Z</time></trkpt><trkpt lat="50.48186147757801" lon="4.350078518305951"><ele>167.0</ele><time>2026-04-30T16:51:54.999Z</time></trkpt><trkpt lat="50.481839331006185" lon="4.350546565657719"><ele>166.5</ele><time>2026-04-30T16:51:55.999Z</time></trkpt><trkpt lat="50.481816640120286" lon="4.351016904266492"><ele>166.0</ele><time>2026-04-30T16:51:56.999Z</time></trkpt><trkpt lat="50.48178792325247" lon="4.351483400652562"><ele>165.0</ele><time>2026-04-30T16:51:57.999Z</time></trkpt><trkpt lat="50.481754358260986" lon="4.351953906961991"><ele>164.0</ele><time>2026-04-30T16:51:58.999Z</time></trkpt><trkpt lat="50.48171407228767" lon="4.352425395755384"><ele>163.5</ele><time>2026-04-30T16:51:59.999Z</time></trkpt><trkpt lat="50.48167478835311" lon="4.352897841666946"><ele>163.0</ele><time>2026-04-30T16:52:00.999Z</time></trkpt><trkpt lat="50.48163209952183" lon="4.353381778941413"><ele>161.0</ele><time>2026-04-30T16:52:01.999Z</time></trkpt><trkpt lat="50.48159416872547" lon="4.353858367092264"><ele>159.0</ele><time>2026-04-30T16:52:02.999Z</time></trkpt><trkpt lat="50.481557654998674" lon="4.354330294214977"><ele>158.5</ele><time>2026-04-30T16:52:03.999Z</time></trkpt><trkpt lat="50.48153552474796" lon="4.354782917298162"><ele>158.0</ele><time>2026-04-30T16:52:04.999Z</time></trkpt><trkpt lat="50.48147384759297" lon="4.355201662281547"><ele>158.0</ele><time>2026-04-30T16:52:05.999Z</time></trkpt><trkpt lat="50.48140367212842" lon="4.355661616552111"><ele>158.0</ele><time>2026-04-30T16:52:06.999Z</time></trkpt><trkpt lat="50.48136748759454" lon="4.356174851341633"><ele>157.5</ele><time>2026-04-30T16:52:07.999Z</time></trkpt><trkpt lat="50.48129797031092" lon="4.356633166021844"><ele>157.0</ele><time>2026-04-30T16:52:08.999Z</time></trkpt><trkpt lat="50.48121720668566" lon="4.357101355301302"><ele>158.0</ele><time>2026-04-30T16:52:09.999Z</time></trkpt><trkpt lat="50.48114403858191" lon="4.3575821034205"><ele>159.0</ele><time>2026-04-30T16:52:10.999Z</time></trkpt><trkpt lat="50.48106126297157" lon="4.35804522007585"><ele>159.0</ele><time>2026-04-30T16:52:11.999Z</time></trkpt><trkpt lat="50.48100726302165" lon="4.358496541603965"><ele>159.0</ele><time>2026-04-30T16:52:12.999Z</time></trkpt><trkpt lat="50.480949464623606" lon="4.358954685305742"><ele>159.0</ele><time>2026-04-30T16:52:13.999Z</time></trkpt><trkpt lat="50.48087206914103" lon="4.359419805405563"><ele>159.0</ele><time>2026-04-30T16:52:14.999Z</time></trkpt><trkpt lat="50.480785283631484" lon="4.359878359200574"><ele>158.0</ele><time>2026-04-30T16:52:15.999Z</time></trkpt><trkpt lat="50.480699749368945" lon="4.36033689270898"><ele>157.0</ele><time>2026-04-30T16:52:16.999Z</time></trkpt><trkpt lat="50.4806240548581" lon="4.360795671786954"><ele>156.5</ele><time>2026-04-30T16:52:17.999Z</time></trkpt><trkpt lat="50.480558578189175" lon="4.361238495822489"><ele>156.0</ele><time>2026-04-30T16:52:18.999Z</time></trkpt><trkpt lat="50.480491881619876" lon="4.361683274822033"><ele>155.5</ele><time>2026-04-30T16:52:19.999Z</time></trkpt><trkpt lat="50.48042641139984" lon="4.36212719344124"><ele>155.0</ele><time>2026-04-30T16:52:20.999Z</time></trkpt><trkpt lat="50.48036883248655" lon="4.3625973313925765"><ele>151.5</ele><time>2026-04-30T16:52:21.999Z</time></trkpt><trkpt lat="50.4802988773191" lon="4.363051166202499"><ele>148.0</ele><time>2026-04-30T16:52:22.999Z</time></trkpt><trkpt lat="50.480235461645435" lon="4.363499689063794"><ele>146.5</ele><time>2026-04-30T16:52:23.999Z</time></trkpt><trkpt lat="50.48016467749069" lon="4.363945756350929"><ele>145.0</ele><time>2026-04-30T16:52:24.999Z</time></trkpt><trkpt lat="50.4801297054585" lon="4.3643812201216"><ele>145.0</ele><time>2026-04-30T16:52:25.999Z</time></trkpt><trkpt lat="50.4800782553835" lon="4.364829883748679"><ele>145.0</ele><time>2026-04-30T16:52:26.998Z</time></trkpt><trkpt lat="50.48002605203779" lon="4.365279783182246"><ele>145.5</ele><time>2026-04-30T16:52:27.998Z</time></trkpt><trkpt lat="50.47997279190734" lon="4.365733989139533"><ele>146.0</ele><time>2026-04-30T16:52:28.998Z</time></trkpt><trkpt lat="50.47991444748262" lon="4.366180085464599"><ele>144.5</ele><time>2026-04-30T16:52:29.998Z</time></trkpt><trkpt lat="50.47985813246322" lon="4.366630604717362"><ele>143.0</ele><time>2026-04-30T16:52:30.998Z</time></trkpt><trkpt lat="50.479800380880576" lon="4.367072804134555"><ele>144.5</ele><time>2026-04-30T16:52:31.998Z</time></trkpt><trkpt lat="50.47974456168701" lon="4.367520687134334"><ele>146.0</ele><time>2026-04-30T16:52:32.998Z</time></trkpt><trkpt lat="50.47968486000961" lon="4.367969703215211"><ele>145.0</ele><time>2026-04-30T16:52:33.998Z</time></trkpt><trkpt lat="50.47962257632739" lon="4.368419029179685"><ele>144.0</ele><time>2026-04-30T16:52:34.998Z</time></trkpt><trkpt lat="50.479561320887974" lon="4.368867419568297"><ele>143.5</ele><time>2026-04-30T16:52:35.998Z</time></trkpt><trkpt lat="50.47949918829214" lon="4.369314442174636"><ele>143.0</ele><time>2026-04-30T16:52:36.998Z</time></trkpt><trkpt lat="50.47943874528965" lon="4.369763724575086"><ele>143.0</ele><time>2026-04-30T16:52:37.998Z</time></trkpt><trkpt lat="50.479375312683246" lon="4.370210170061275"><ele>143.0</ele><time>2026-04-30T16:52:38.998Z</time></trkpt><trkpt lat="50.479315465655304" lon="4.37065813676302"><ele>142.0</ele><time>2026-04-30T16:52:39.998Z</time></trkpt><trkpt lat="50.479255204379186" lon="4.371111546565604"><ele>141.0</ele><time>2026-04-30T16:52:40.998Z</time></trkpt><trkpt lat="50.479191246343994" lon="4.371560792005974"><ele>141.0</ele><time>2026-04-30T16:52:41.998Z</time></trkpt><trkpt lat="50.47912967500378" lon="4.3720038885663985"><ele>141.0</ele><time>2026-04-30T16:52:42.998Z</time></trkpt><trkpt lat="50.47906699929139" lon="4.372448400484298"><ele>144.0</ele><time>2026-04-30T16:52:43.998Z</time></trkpt><trkpt lat="50.4790050477396" lon="4.372893370024343"><ele>147.0</ele><time>2026-04-30T16:52:44.998Z</time></trkpt><trkpt lat="50.47894425205058" lon="4.373333303498433"><ele>147.5</ele><time>2026-04-30T16:52:45.998Z</time></trkpt><trkpt lat="50.47888729851254" lon="4.37377386880558"><ele>148.0</ele><time>2026-04-30T16:52:46.998Z</time></trkpt><trkpt lat="50.47882826501662" lon="4.3742165997848845"><ele>147.0</ele><time>2026-04-30T16:52:47.998Z</time></trkpt><trkpt lat="50.47876986244301" lon="4.374662157743745"><ele>146.0</ele><time>2026-04-30T16:52:48.998Z</time></trkpt><trkpt lat="50.478715546819735" lon="4.375109911119374"><ele>149.0</ele><time>2026-04-30T16:52:49.998Z</time></trkpt><trkpt lat="50.47865523904759" lon="4.3755491421743535"><ele>152.0</ele><time>2026-04-30T16:52:50.998Z</time></trkpt><trkpt lat="50.478591158370094" lon="4.375987327335489"><ele>150.5</ele><time>2026-04-30T16:52:51.998Z</time></trkpt><trkpt lat="50.47853037059532" lon="4.3764288123432395"><ele>149.0</ele><time>2026-04-30T16:52:52.998Z</time></trkpt><trkpt lat="50.47846877916406" lon="4.376871702053922"><ele>148.0</ele><time>2026-04-30T16:52:53.998Z</time></trkpt><trkpt lat="50.478408893207884" lon="4.377310846945884"><ele>147.0</ele><time>2026-04-30T16:52:54.998Z</time></trkpt><trkpt lat="50.47834962396348" lon="4.3777538847733135"><ele>147.5</ele><time>2026-04-30T16:52:55.998Z</time></trkpt><trkpt lat="50.47829013250353" lon="4.3781964179004005"><ele>148.0</ele><time>2026-04-30T16:52:56.998Z</time></trkpt><trkpt lat="50.478229900855524" lon="4.378636248856983"><ele>148.0</ele><time>2026-04-30T16:52:57.998Z</time></trkpt><trkpt lat="50.47817824731945" lon="4.37906197137625"><ele>148.0</ele><time>2026-04-30T16:52:58.998Z</time></trkpt><trkpt lat="50.478116142327174" lon="4.379514047420516"><ele>147.0</ele><time>2026-04-30T16:52:59.998Z</time></trkpt><trkpt lat="50.47805432909969" lon="4.379963482148162"><ele>146.0</ele><time>2026-04-30T16:53:00.998Z</time></trkpt><trkpt lat="50.47799370702225" lon="4.3804125749110705"><ele>147.5</ele><time>2026-04-30T16:53:01.998Z</time></trkpt><trkpt lat="50.47793355478952" lon="4.380858282470817"><ele>149.0</ele><time>2026-04-30T16:53:02.998Z</time></trkpt><trkpt lat="50.477870355370406" lon="4.381307712868809"><ele>148.0</ele><time>2026-04-30T16:53:03.998Z</time></trkpt><trkpt lat="50.47780902694076" lon="4.381757822071032"><ele>147.0</ele><time>2026-04-30T16:53:04.998Z</time></trkpt><trkpt lat="50.47774882015214" lon="4.382209304501587"><ele>147.0</ele><time>2026-04-30T16:53:05.998Z</time></trkpt><trkpt lat="50.477688345267936" lon="4.382662491562117"><ele>147.0</ele><time>2026-04-30T16:53:06.998Z</time></trkpt><trkpt lat="50.47762672714526" lon="4.383112159339698"><ele>147.0</ele><time>2026-04-30T16:53:07.998Z</time></trkpt><trkpt lat="50.47756745061977" lon="4.383559932831261"><ele>147.0</ele><time>2026-04-30T16:53:08.998Z</time></trkpt><trkpt lat="50.47750531379638" lon="4.3840070450628925"><ele>147.5</ele><time>2026-04-30T16:53:09.998Z</time></trkpt><trkpt lat="50.477443183017115" lon="4.384452069726566"><ele>148.0</ele><time>2026-04-30T16:53:10.998Z</time></trkpt><trkpt lat="50.47738162604465" lon="4.384896062643899"><ele>148.5</ele><time>2026-04-30T16:53:11.998Z</time></trkpt><trkpt lat="50.47732121216182" lon="4.385340033430491"><ele>149.0</ele><time>2026-04-30T16:53:12.998Z</time></trkpt><trkpt lat="50.47726081459424" lon="4.385781963386415"><ele>149.0</ele><time>2026-04-30T16:53:13.998Z</time></trkpt><trkpt lat="50.47719972356094" lon="4.386219609407327"><ele>149.0</ele><time>2026-04-30T16:53:14.998Z</time></trkpt><trkpt lat="50.47714115313239" lon="4.386663271529883"><ele>149.5</ele><time>2026-04-30T16:53:15.998Z</time></trkpt><trkpt lat="50.47708085096224" lon="4.387106129790956"><ele>150.0</ele><time>2026-04-30T16:53:16.998Z</time></trkpt><trkpt lat="50.47702169931547" lon="4.387553312515513"><ele>150.0</ele><time>2026-04-30T16:53:17.998Z</time></trkpt><trkpt lat="50.476968757386665" lon="4.387988720706129"><ele>150.0</ele><time>2026-04-30T16:53:18.999Z</time></trkpt><trkpt lat="50.476910480649735" lon="4.388436603410308"><ele>149.5</ele><time>2026-04-30T16:53:19.999Z</time></trkpt><trkpt lat="50.47684789272325" lon="4.388886230628162"><ele>149.0</ele><time>2026-04-30T16:53:20.999Z</time></trkpt><trkpt lat="50.476782776802324" lon="4.389337439929371"><ele>148.5</ele><time>2026-04-30T16:53:21.999Z</time></trkpt><trkpt lat="50.47672000031478" lon="4.3897835955561755"><ele>148.0</ele><time>2026-04-30T16:53:22.999Z</time></trkpt><trkpt lat="50.47665857207844" lon="4.390226888768362"><ele>147.0</ele><time>2026-04-30T16:53:23.999Z</time></trkpt><trkpt lat="50.476600083933285" lon="4.390669244085949"><ele>146.0</ele><time>2026-04-30T16:53:24.999Z</time></trkpt><trkpt lat="50.476541949138316" lon="4.391107680183064"><ele>145.0</ele><time>2026-04-30T16:53:25.999Z</time></trkpt><trkpt lat="50.47648223958979" lon="4.391541680103242"><ele>144.0</ele><time>2026-04-30T16:53:26.999Z</time></trkpt><trkpt lat="50.47642274455068" lon="4.391971966105925"><ele>142.0</ele><time>2026-04-30T16:53:27.999Z</time></trkpt><trkpt lat="50.476358984127586" lon="4.392395881876507"><ele>140.0</ele><time>2026-04-30T16:53:28.999Z</time></trkpt><trkpt lat="50.47629054119606" lon="4.3928192190881745"><ele>144.5</ele><time>2026-04-30T16:53:29.999Z</time></trkpt><trkpt lat="50.47622643242733" lon="4.393241332709046"><ele>149.0</ele><time>2026-04-30T16:53:30.999Z</time></trkpt><trkpt lat="50.47615839865933" lon="4.393665841229237"><ele>146.5</ele><time>2026-04-30T16:53:31.999Z</time></trkpt><trkpt lat="50.47609473994844" lon="4.3941027670698345"><ele>144.0</ele><time>2026-04-30T16:53:32.999Z</time></trkpt><trkpt lat="50.47603900615078" lon="4.394526337679808"><ele>142.0</ele><time>2026-04-30T16:53:33.999Z</time></trkpt><trkpt lat="50.47598610904178" lon="4.3949558223761995"><ele>140.0</ele><time>2026-04-30T16:53:34.999Z</time></trkpt><trkpt lat="50.47592929933381" lon="4.395384257961471"><ele>139.0</ele><time>2026-04-30T16:53:35.999Z</time></trkpt><trkpt lat="50.4758718473977" lon="4.3958152847644465"><ele>138.0</ele><time>2026-04-30T16:53:36.999Z</time></trkpt><trkpt lat="50.47581377428393" lon="4.396241004430166"><ele>138.0</ele><time>2026-04-30T16:53:37.999Z</time></trkpt><trkpt lat="50.475753123191986" lon="4.396657921796034"><ele>138.0</ele><time>2026-04-30T16:53:38.999Z</time></trkpt><trkpt lat="50.475698764342646" lon="4.397078719433659"><ele>135.0</ele><time>2026-04-30T16:53:39.999Z</time></trkpt><trkpt lat="50.47563920036302" lon="4.397498809205948"><ele>132.0</ele><time>2026-04-30T16:53:40.999Z</time></trkpt><trkpt lat="50.475578499679344" lon="4.397921228566228"><ele>127.5</ele><time>2026-04-30T16:53:41.999Z</time></trkpt><trkpt lat="50.47551607185484" lon="4.398346272307518"><ele>123.0</ele><time>2026-04-30T16:53:42.999Z</time></trkpt><trkpt lat="50.4754581043857" lon="4.398773762889789"><ele>123.5</ele><time>2026-04-30T16:53:43.999Z</time></trkpt><trkpt lat="50.475398900959114" lon="4.399203613513752"><ele>124.0</ele><time>2026-04-30T16:53:44.999Z</time></trkpt><trkpt lat="50.475340344913924" lon="4.399635559984267"><ele>124.0</ele><time>2026-04-30T16:53:45.999Z</time></trkpt><trkpt lat="50.47528338893727" lon="4.400069796009011"><ele>124.0</ele><time>2026-04-30T16:53:46.999Z</time></trkpt><trkpt lat="50.47522224954153" lon="4.400505390512618"><ele>124.0</ele><time>2026-04-30T16:53:47.999Z</time></trkpt><trkpt lat="50.47516151786113" lon="4.400943893588903"><ele>124.0</ele><time>2026-04-30T16:53:48.999Z</time></trkpt><trkpt lat="50.47510194469982" lon="4.401382878911292"><ele>124.0</ele><time>2026-04-30T16:53:49.999Z</time></trkpt><trkpt lat="50.47504338646084" lon="4.401821958112876"><ele>124.0</ele><time>2026-04-30T16:53:50.999Z</time></trkpt><trkpt lat="50.47498498678347" lon="4.402262176411487"><ele>126.5</ele><time>2026-04-30T16:53:51.999Z</time></trkpt><trkpt lat="50.47492704801018" lon="4.402699867049538"><ele>129.0</ele><time>2026-04-30T16:53:52.999Z</time></trkpt><trkpt lat="50.47487330562381" lon="4.40312593301299"><ele>131.5</ele><time>2026-04-30T16:53:53.999Z</time></trkpt><trkpt lat="50.4748210448098" lon="4.403535964057384"><ele>134.0</ele><time>2026-04-30T16:53:54.999Z</time></trkpt><trkpt lat="50.47477190823563" lon="4.4039347635464425"><ele>136.5</ele><time>2026-04-30T16:53:55.999Z</time></trkpt><trkpt lat="50.47472468501927" lon="4.404329325775126"><ele>139.0</ele><time>2026-04-30T16:53:56.999Z</time></trkpt><trkpt lat="50.474679913036816" lon="4.404719602135332"><ele>141.0</ele><time>2026-04-30T16:53:57.999Z</time></trkpt><trkpt lat="50.474634487755424" lon="4.405106556693534"><ele>143.0</ele><time>2026-04-30T16:53:58.999Z</time></trkpt><trkpt lat="50.47458910316477" lon="4.405489663387474"><ele>148.5</ele><time>2026-04-30T16:53:59.999Z</time></trkpt><trkpt lat="50.47455599566866" lon="4.405872719061029"><ele>154.0</ele><time>2026-04-30T16:54:00.999Z</time></trkpt><trkpt lat="50.47452220277136" lon="4.4062442346440625"><ele>154.5</ele><time>2026-04-30T16:54:01.999Z</time></trkpt><trkpt lat="50.47448722945165" lon="4.40662066237269"><ele>155.0</ele><time>2026-04-30T16:54:02.999Z</time></trkpt><trkpt lat="50.47444431882663" lon="4.4069921219936115"><ele>155.5</ele><time>2026-04-30T16:54:03.999Z</time></trkpt><trkpt lat="50.47439988783318" lon="4.407366589321321"><ele>156.0</ele><time>2026-04-30T16:54:04.999Z</time></trkpt><trkpt lat="50.4743584528925" lon="4.407742566431142"><ele>156.5</ele><time>2026-04-30T16:54:05.999Z</time></trkpt><trkpt lat="50.47432287644978" lon="4.408121343629146"><ele>157.0</ele><time>2026-04-30T16:54:06.999Z</time></trkpt><trkpt lat="50.47429095566201" lon="4.408490744396761"><ele>157.0</ele><time>2026-04-30T16:54:07.999Z</time></trkpt><trkpt lat="50.47426814982987" lon="4.408852536435533"><ele>157.0</ele><time>2026-04-30T16:54:08.999Z</time></trkpt><trkpt lat="50.47424749130788" lon="4.409217591636263"><ele>157.0</ele><time>2026-04-30T16:54:09.999Z</time></trkpt><trkpt lat="50.47422771252172" lon="4.409576378604171"><ele>157.0</ele><time>2026-04-30T16:54:10.999Z</time></trkpt><trkpt lat="50.47421009642386" lon="4.409930095552341"><ele>156.0</ele><time>2026-04-30T16:54:11.999Z</time></trkpt><trkpt lat="50.474193187969945" lon="4.410275275233587"><ele>155.0</ele><time>2026-04-30T16:54:12.999Z</time></trkpt><trkpt lat="50.47417592451081" lon="4.410614382097479"><ele>154.0</ele><time>2026-04-30T16:54:13.999Z</time></trkpt><trkpt lat="50.47415389872104" lon="4.410953612932404"><ele>154.0</ele><time>2026-04-30T16:54:14.999Z</time></trkpt><trkpt lat="50.474129720733366" lon="4.411292420753486"><ele>154.0</ele><time>2026-04-30T16:54:15.999Z</time></trkpt><trkpt lat="50.4740963816756" lon="4.411629345138139"><ele>154.0</ele><time>2026-04-30T16:54:16.999Z</time></trkpt><trkpt lat="50.47405426609229" lon="4.411960466448521"><ele>155.33333333333334</ele><time>2026-04-30T16:54:17.999Z</time></trkpt><trkpt lat="50.47400600153687" lon="4.4123002603371475"><ele>156.66666666666666</ele><time>2026-04-30T16:54:18.999Z</time></trkpt><trkpt lat="50.47394787576297" lon="4.412641845821599"><ele>158.0</ele><time>2026-04-30T16:54:19.999Z</time></trkpt><trkpt lat="50.473865821295796" lon="4.4129734176286535"><ele>158.0</ele><time>2026-04-30T16:54:20.999Z</time></trkpt><trkpt lat="50.47377508669608" lon="4.413293736666548"><ele>158.0</ele><time>2026-04-30T16:54:21.999Z</time></trkpt><trkpt lat="50.473680046794954" lon="4.413605925008892"><ele>158.0</ele><time>2026-04-30T16:54:22.999Z</time></trkpt><trkpt lat="50.47357059363881" lon="4.413911966866697"><ele>158.0</ele><time>2026-04-30T16:54:23.999Z</time></trkpt><trkpt lat="50.47344863573707" lon="4.414203789502045"><ele>158.0</ele><time>2026-04-30T16:54:24.999Z</time></trkpt><trkpt lat="50.47332084339685" lon="4.414492833620005"><ele>158.0</ele><time>2026-04-30T16:54:25.999Z</time></trkpt><trkpt lat="50.47317843211686" lon="4.414773240204988"><ele>157.5</ele><time>2026-04-30T16:54:26.999Z</time></trkpt><trkpt lat="50.47302820144164" lon="4.415041772500225"><ele>157.0</ele><time>2026-04-30T16:54:27.999Z</time></trkpt><trkpt lat="50.47285962746947" lon="4.415290696123471"><ele>153.5</ele><time>2026-04-30T16:54:28.999Z</time></trkpt><trkpt lat="50.472673393108145" lon="4.415514793855325"><ele>150.0</ele><time>2026-04-30T16:54:29.999Z</time></trkpt><trkpt lat="50.472500543462026" lon="4.415759435419437"><ele>150.0</ele><time>2026-04-30T16:54:30.999Z</time></trkpt><trkpt lat="50.47230892074807" lon="4.415974488786432"><ele>150.0</ele><time>2026-04-30T16:54:31.999Z</time></trkpt><trkpt lat="50.47211465212111" lon="4.416169782470545"><ele>146.0</ele><time>2026-04-30T16:54:32.999Z</time></trkpt><trkpt lat="50.4719067560338" lon="4.416343329024153"><ele>142.0</ele><time>2026-04-30T16:54:33.999Z</time></trkpt><trkpt lat="50.47168321425712" lon="4.416477121950119"><ele>142.0</ele><time>2026-04-30T16:54:34.999Z</time></trkpt><trkpt lat="50.471452430214676" lon="4.4165928278861895"><ele>142.0</ele><time>2026-04-30T16:54:35.999Z</time></trkpt><trkpt lat="50.47121507249732" lon="4.416677825903621"><ele>139.5</ele><time>2026-04-30T16:54:36.998Z</time></trkpt><trkpt lat="50.47097006036903" lon="4.41672230543106"><ele>137.0</ele><time>2026-04-30T16:54:37.998Z</time></trkpt><trkpt lat="50.47072363194195" lon="4.416751052994891"><ele>137.0</ele><time>2026-04-30T16:54:38.998Z</time></trkpt><trkpt lat="50.47047171215928" lon="4.41674480203787"><ele>137.0</ele><time>2026-04-30T16:54:39.998Z</time></trkpt><trkpt lat="50.47022487599988" lon="4.41670395165228"><ele>136.5</ele><time>2026-04-30T16:54:40.998Z</time></trkpt><trkpt lat="50.46998329399422" lon="4.416647678164882"><ele>136.0</ele><time>2026-04-30T16:54:41.998Z</time></trkpt><trkpt lat="50.469741918481006" lon="4.416592471871713"><ele>135.5</ele><time>2026-04-30T16:54:42.998Z</time></trkpt><trkpt lat="50.46948828641554" lon="4.416540298945583"><ele>135.0</ele><time>2026-04-30T16:54:43.998Z</time></trkpt><trkpt lat="50.46923754573006" lon="4.416501125723889"><ele>135.0</ele><time>2026-04-30T16:54:44.998Z</time></trkpt><trkpt lat="50.46898883165468" lon="4.416466260357885"><ele>135.0</ele><time>2026-04-30T16:54:45.998Z</time></trkpt><trkpt lat="50.46875023198991" lon="4.416432475987679"><ele>135.0</ele><time>2026-04-30T16:54:46.998Z</time></trkpt><trkpt lat="50.46851432454584" lon="4.416399676541483"><ele>135.0</ele><time>2026-04-30T16:54:47.998Z</time></trkpt><trkpt lat="50.46828097317723" lon="4.416369185196983"><ele>135.0</ele><time>2026-04-30T16:54:48.998Z</time></trkpt><trkpt lat="50.468048353372154" lon="4.4163408141156415"><ele>135.0</ele><time>2026-04-30T16:54:49.998Z</time></trkpt><trkpt lat="50.46781835328971" lon="4.416311074322433"><ele>133.0</ele><time>2026-04-30T16:54:50.998Z</time></trkpt><trkpt lat="50.467584277111044" lon="4.416278280835359"><ele>131.0</ele><time>2026-04-30T16:54:51.998Z</time></trkpt><trkpt lat="50.467358294713556" lon="4.416254275196643"><ele>131.0</ele><time>2026-04-30T16:54:52.998Z</time></trkpt><trkpt lat="50.46713438377562" lon="4.416231525927611"><ele>131.0</ele><time>2026-04-30T16:54:53.998Z</time></trkpt><trkpt lat="50.46691153649901" lon="4.416215021307022"><ele>131.0</ele><time>2026-04-30T16:54:54.998Z</time></trkpt><trkpt lat="50.46668312547475" lon="4.416204894913716"><ele>131.5</ele><time>2026-04-30T16:54:55.998Z</time></trkpt><trkpt lat="50.46645555648383" lon="4.416191189893942"><ele>132.0</ele><time>2026-04-30T16:54:56.998Z</time></trkpt><trkpt lat="50.466224960305645" lon="4.4161859313330885"><ele>130.5</ele><time>2026-04-30T16:54:57.998Z</time></trkpt><trkpt lat="50.46599662912781" lon="4.4161807471934855"><ele>129.0</ele><time>2026-04-30T16:54:58.998Z</time></trkpt><trkpt lat="50.465765131193635" lon="4.416182662273045"><ele>129.0</ele><time>2026-04-30T16:54:59.998Z</time></trkpt><trkpt lat="50.46553282221817" lon="4.416196118272011"><ele>129.0</ele><time>2026-04-30T16:55:00.998Z</time></trkpt><trkpt lat="50.46529552284302" lon="4.416225667115225"><ele>129.0</ele><time>2026-04-30T16:55:01.998Z</time></trkpt><trkpt lat="50.46505536333165" lon="4.416275521927862"><ele>129.0</ele><time>2026-04-30T16:55:02.998Z</time></trkpt><trkpt lat="50.4648108232485" lon="4.416332905901113"><ele>129.5</ele><time>2026-04-30T16:55:03.998Z</time></trkpt><trkpt lat="50.46456181950177" lon="4.416398068621284"><ele>130.0</ele><time>2026-04-30T16:55:04.998Z</time></trkpt><trkpt lat="50.464306503181476" lon="4.416469224548345"><ele>130.0</ele><time>2026-04-30T16:55:05.998Z</time></trkpt><trkpt lat="50.46404552403746" lon="4.416555640032295"><ele>130.0</ele><time>2026-04-30T16:55:06.998Z</time></trkpt><trkpt lat="50.46378456752335" lon="4.416653229866034"><ele>129.5</ele><time>2026-04-30T16:55:07.998Z</time></trkpt><trkpt lat="50.46352251151599" lon="4.416756406811002"><ele>129.0</ele><time>2026-04-30T16:55:08.998Z</time></trkpt><trkpt lat="50.463257952682284" lon="4.416865106617565"><ele>129.0</ele><time>2026-04-30T16:55:09.998Z</time></trkpt><trkpt lat="50.462995888198854" lon="4.416995070021248"><ele>129.0</ele><time>2026-04-30T16:55:10.998Z</time></trkpt><trkpt lat="50.46273309283021" lon="4.417144584986027"><ele>128.5</ele><time>2026-04-30T16:55:11.998Z</time></trkpt><trkpt lat="50.462471511817846" lon="4.417315412808147"><ele>128.0</ele><time>2026-04-30T16:55:12.998Z</time></trkpt><trkpt lat="50.4622122768178" lon="4.417497262559777"><ele>129.0</ele><time>2026-04-30T16:55:13.998Z</time></trkpt><trkpt lat="50.461961429323935" lon="4.41768855955635"><ele>130.0</ele><time>2026-04-30T16:55:14.998Z</time></trkpt><trkpt lat="50.4617125257057" lon="4.417902739350084"><ele>130.5</ele><time>2026-04-30T16:55:15.998Z</time></trkpt><trkpt lat="50.461473648151895" lon="4.418138536673782"><ele>131.0</ele><time>2026-04-30T16:55:16.998Z</time></trkpt><trkpt lat="50.46124328203073" lon="4.418388496750984"><ele>131.0</ele><time>2026-04-30T16:55:17.998Z</time></trkpt><trkpt lat="50.461015117196965" lon="4.418654225126521"><ele>131.0</ele><time>2026-04-30T16:55:18.998Z</time></trkpt><trkpt lat="50.46079059518546" lon="4.418935022983508"><ele>131.0</ele><time>2026-04-30T16:55:19.998Z</time></trkpt><trkpt lat="50.460571129378025" lon="4.419227530630699"><ele>131.0</ele><time>2026-04-30T16:55:20.998Z</time></trkpt><trkpt lat="50.46035379665013" lon="4.419530283050775"><ele>131.5</ele><time>2026-04-30T16:55:21.998Z</time></trkpt><trkpt lat="50.46013693764647" lon="4.419838400167598"><ele>132.0</ele><time>2026-04-30T16:55:22.998Z</time></trkpt><trkpt lat="50.45992454028653" lon="4.420158026206954"><ele>133.5</ele><time>2026-04-30T16:55:23.998Z</time></trkpt><trkpt lat="50.45971564030474" lon="4.420488578675508"><ele>135.0</ele><time>2026-04-30T16:55:24.999Z</time></trkpt><trkpt lat="50.4595114943516" lon="4.42082665672833"><ele>136.0</ele><time>2026-04-30T16:55:25.999Z</time></trkpt><trkpt lat="50.45931100083872" lon="4.421171724562733"><ele>137.0</ele><time>2026-04-30T16:55:26.999Z</time></trkpt><trkpt lat="50.45911086018876" lon="4.421522282254422"><ele>137.0</ele><time>2026-04-30T16:55:27.999Z</time></trkpt><trkpt lat="50.4589130606066" lon="4.421871866960378"><ele>137.0</ele><time>2026-04-30T16:55:28.999Z</time></trkpt><trkpt lat="50.458700967658544" lon="4.422196496754335"><ele>137.0</ele><time>2026-04-30T16:55:29.999Z</time></trkpt><trkpt lat="50.4585155866721" lon="4.422563743447792"><ele>137.0</ele><time>2026-04-30T16:55:30.999Z</time></trkpt><trkpt lat="50.45831950887695" lon="4.422911734462113"><ele>137.5</ele><time>2026-04-30T16:55:31.999Z</time></trkpt><trkpt lat="50.45812831148691" lon="4.423262183145705"><ele>138.0</ele><time>2026-04-30T16:55:32.999Z</time></trkpt><trkpt lat="50.45794206564871" lon="4.423610278244508"><ele>139.5</ele><time>2026-04-30T16:55:33.999Z</time></trkpt><trkpt lat="50.457754229816985" lon="4.423964855737446"><ele>141.0</ele><time>2026-04-30T16:55:34.999Z</time></trkpt><trkpt lat="50.457572883421314" lon="4.424308556320023"><ele>142.0</ele><time>2026-04-30T16:55:35.999Z</time></trkpt><trkpt lat="50.45739747745919" lon="4.424651419013692"><ele>143.0</ele><time>2026-04-30T16:55:36.999Z</time></trkpt><trkpt lat="50.4572171278441" lon="4.424994395692913"><ele>145.5</ele><time>2026-04-30T16:55:37.999Z</time></trkpt><trkpt lat="50.457031530276716" lon="4.425326565758189"><ele>148.0</ele><time>2026-04-30T16:55:38.999Z</time></trkpt><trkpt lat="50.45685541472404" lon="4.425671277316357"><ele>150.0</ele><time>2026-04-30T16:55:39.999Z</time></trkpt><trkpt lat="50.45668305308188" lon="4.426012617598004"><ele>152.0</ele><time>2026-04-30T16:55:40.999Z</time></trkpt><trkpt lat="50.45651439948384" lon="4.426355059834174"><ele>153.5</ele><time>2026-04-30T16:55:41.999Z</time></trkpt><trkpt lat="50.45634764576341" lon="4.426694762525109"><ele>155.0</ele><time>2026-04-30T16:55:42.999Z</time></trkpt><trkpt lat="50.45618648900634" lon="4.427031538043143"><ele>157.5</ele><time>2026-04-30T16:55:43.999Z</time></trkpt><trkpt lat="50.45602847448944" lon="4.427370310781172"><ele>160.0</ele><time>2026-04-30T16:55:44.999Z</time></trkpt><trkpt lat="50.455875596515185" lon="4.427712219149549"><ele>162.0</ele><time>2026-04-30T16:55:45.999Z</time></trkpt><trkpt lat="50.45572250593011" lon="4.4280481522070625"><ele>164.0</ele><time>2026-04-30T16:55:46.999Z</time></trkpt><trkpt lat="50.45557174333754" lon="4.428381902364817"><ele>164.0</ele><time>2026-04-30T16:55:47.999Z</time></trkpt><trkpt lat="50.455421428208524" lon="4.428714867509851"><ele>164.0</ele><time>2026-04-30T16:55:48.999Z</time></trkpt><trkpt lat="50.45527218452181" lon="4.429047933274568"><ele>164.5</ele><time>2026-04-30T16:55:49.999Z</time></trkpt><trkpt lat="50.45512658704452" lon="4.429373316384355"><ele>165.0</ele><time>2026-04-30T16:55:50.999Z</time></trkpt><trkpt lat="50.454985057845626" lon="4.429688076959328"><ele>167.0</ele><time>2026-04-30T16:55:51.999Z</time></trkpt><trkpt lat="50.45484315335348" lon="4.429996733927075"><ele>169.0</ele><time>2026-04-30T16:55:52.999Z</time></trkpt><trkpt lat="50.454705935239325" lon="4.43030111896014"><ele>171.5</ele><time>2026-04-30T16:55:53.999Z</time></trkpt><trkpt lat="50.45456903968291" lon="4.4306015567164705"><ele>174.0</ele><time>2026-04-30T16:55:54.999Z</time></trkpt><trkpt lat="50.45443897479509" lon="4.430905909823531"><ele>174.0</ele><time>2026-04-30T16:55:55.999Z</time></trkpt><trkpt lat="50.454310595328785" lon="4.431211636004092"><ele>174.0</ele><time>2026-04-30T16:55:56.999Z</time></trkpt><trkpt lat="50.45419027215333" lon="4.431524399211002"><ele>174.5</ele><time>2026-04-30T16:55:57.999Z</time></trkpt><trkpt lat="50.45407343222032" lon="4.431840770041432"><ele>175.0</ele><time>2026-04-30T16:55:58.999Z</time></trkpt><trkpt lat="50.45396306348242" lon="4.432162703169531"><ele>176.0</ele><time>2026-04-30T16:55:59.999Z</time></trkpt><trkpt lat="50.45386046037151" lon="4.432491178432404"><ele>177.0</ele><time>2026-04-30T16:56:00.999Z</time></trkpt><trkpt lat="50.45376695215575" lon="4.432825809993137"><ele>177.5</ele><time>2026-04-30T16:56:01.999Z</time></trkpt><trkpt lat="50.45368294376453" lon="4.433160537771428"><ele>178.0</ele><time>2026-04-30T16:56:02.999Z</time></trkpt><trkpt lat="50.453604036344124" lon="4.433505421460212"><ele>178.5</ele><time>2026-04-30T16:56:03.999Z</time></trkpt><trkpt lat="50.45353190824417" lon="4.433853899677247"><ele>179.0</ele><time>2026-04-30T16:56:04.999Z</time></trkpt><trkpt lat="50.453450855315346" lon="4.434220573449201"><ele>179.0</ele><time>2026-04-30T16:56:05.999Z</time></trkpt><trkpt lat="50.453401211299735" lon="4.434573258818249"><ele>179.0</ele><time>2026-04-30T16:56:06.999Z</time></trkpt><trkpt lat="50.45336627317568" lon="4.4349276105901305"><ele>179.0</ele><time>2026-04-30T16:56:07.999Z</time></trkpt><trkpt lat="50.4533267613666" lon="4.435273755195645"><ele>179.0</ele><time>2026-04-30T16:56:08.999Z</time></trkpt><trkpt lat="50.45329594067247" lon="4.435625717807638"><ele>179.66666666666666</ele><time>2026-04-30T16:56:09.999Z</time></trkpt><trkpt lat="50.45326614899392" lon="4.435978189460758"><ele>180.33333333333334</ele><time>2026-04-30T16:56:10.999Z</time></trkpt><trkpt lat="50.45324394577061" lon="4.436312761532594"><ele>181.0</ele><time>2026-04-30T16:56:11.999Z</time></trkpt><trkpt lat="50.45321715830147" lon="4.436639057158479"><ele>181.0</ele><time>2026-04-30T16:56:12.999Z</time></trkpt><trkpt lat="50.45318733773418" lon="4.436955548267989"><ele>181.0</ele><time>2026-04-30T16:56:13.999Z</time></trkpt><trkpt lat="50.453148136769755" lon="4.437257792780772"><ele>181.0</ele><time>2026-04-30T16:56:14.999Z</time></trkpt><trkpt lat="50.453097471709405" lon="4.437548712678548"><ele>180.66666666666669</ele><time>2026-04-30T16:56:15.999Z</time></trkpt><trkpt lat="50.45303707076095" lon="4.437829355170618"><ele>180.33333333333334</ele><time>2026-04-30T16:56:16.999Z</time></trkpt><trkpt lat="50.45296321612491" lon="4.438094274057232"><ele>180.0</ele><time>2026-04-30T16:56:17.999Z</time></trkpt><trkpt lat="50.45287155519008" lon="4.438345167299127"><ele>182.33333333333334</ele><time>2026-04-30T16:56:18.999Z</time></trkpt><trkpt lat="50.45276995697095" lon="4.4385757764698806"><ele>184.66666666666669</ele><time>2026-04-30T16:56:19.999Z</time></trkpt><trkpt lat="50.452660073568005" lon="4.438781417811399"><ele>187.0</ele><time>2026-04-30T16:56:20.999Z</time></trkpt><trkpt lat="50.45254494242483" lon="4.438972507232331"><ele>187.5</ele><time>2026-04-30T16:56:21.999Z</time></trkpt><trkpt lat="50.45242979264989" lon="4.439140008058996"><ele>188.0</ele><time>2026-04-30T16:56:22.999Z</time></trkpt><trkpt lat="50.452323556875186" lon="4.4392750897097955"><ele>188.5</ele><time>2026-04-30T16:56:23.999Z</time></trkpt><trkpt lat="50.452219971788715" lon="4.439364284135226"><ele>189.0</ele><time>2026-04-30T16:56:24.999Z</time></trkpt><trkpt lat="50.45213849625292" lon="4.439439595230283"><ele>188.66666666666666</ele><time>2026-04-30T16:56:25.999Z</time></trkpt><trkpt lat="50.452075115747355" lon="4.4394937901124605"><ele>188.33333333333334</ele><time>2026-04-30T16:56:26.999Z</time></trkpt><trkpt lat="50.45198575561603" lon="4.439570400896839"><ele>188.0</ele><time>2026-04-30T16:56:28.999Z</time></trkpt><trkpt lat="50.45192255872192" lon="4.439624969681741"><ele>187.66666666666669</ele><time>2026-04-30T16:56:33.999Z</time></trkpt><trkpt lat="50.45186286816347" lon="4.439740717040127"><ele>187.33333333333334</ele><time>2026-04-30T16:57:01.998Z</time></trkpt><trkpt lat="50.451833434011625" lon="4.439862463491804"><ele>187.0</ele><time>2026-04-30T16:57:03.998Z</time></trkpt><trkpt lat="50.45184481573329" lon="4.440031687870819"><ele>187.0</ele><time>2026-04-30T16:57:05.998Z</time></trkpt><trkpt lat="50.45186067941131" lon="4.440137553747988"><ele>187.0</ele><time>2026-04-30T16:57:06.998Z</time></trkpt><trkpt lat="50.45190518286526" lon="4.440225348020551"><ele>187.0</ele><time>2026-04-30T16:57:07.998Z</time></trkpt><trkpt lat="50.45196517181276" lon="4.440305735353482"><ele>187.0</ele><time>2026-04-30T16:57:08.998Z</time></trkpt><trkpt lat="50.452028178530725" lon="4.440402289100549"><ele>187.0</ele><time>2026-04-30T16:57:09.998Z</time></trkpt><trkpt lat="50.45209760734321" lon="4.440508684295531"><ele>187.0</ele><time>2026-04-30T16:57:10.998Z</time></trkpt><trkpt lat="50.45217469965664" lon="4.440626823312102"><ele>186.75</ele><time>2026-04-30T16:57:11.998Z</time></trkpt><trkpt lat="50.452258642388834" lon="4.440746837919515"><ele>186.5</ele><time>2026-04-30T16:57:12.998Z</time></trkpt><trkpt lat="50.45233841899651" lon="4.440881515042109"><ele>186.25</ele><time>2026-04-30T16:57:13.998Z</time></trkpt><trkpt lat="50.45242540374665" lon="4.441019986692066"><ele>186.0</ele><time>2026-04-30T16:57:14.998Z</time></trkpt><trkpt lat="50.452518969346585" lon="4.4411660728791205"><ele>185.75</ele><time>2026-04-30T16:57:15.998Z</time></trkpt><trkpt lat="50.45261920711985" lon="4.441317692937341"><ele>185.5</ele><time>2026-04-30T16:57:16.998Z</time></trkpt><trkpt lat="50.45272553945989" lon="4.44147215641486"><ele>185.25</ele><time>2026-04-30T16:57:17.998Z</time></trkpt><trkpt lat="50.452835006268856" lon="4.441638369822402"><ele>185.0</ele><time>2026-04-30T16:57:18.998Z</time></trkpt><trkpt lat="50.45295561178324" lon="4.441799914858787"><ele>185.0</ele><time>2026-04-30T16:57:19.998Z</time></trkpt><trkpt lat="50.453075332734045" lon="4.441970328854887"><ele>185.0</ele><time>2026-04-30T16:57:20.998Z</time></trkpt><trkpt lat="50.45319141614786" lon="4.442161745914402"><ele>185.0</ele><time>2026-04-30T16:57:21.998Z</time></trkpt><trkpt lat="50.45331184808366" lon="4.442357110432987"><ele>184.33333333333331</ele><time>2026-04-30T16:57:22.998Z</time></trkpt><trkpt lat="50.4534418806809" lon="4.442564577217375"><ele>183.66666666666666</ele><time>2026-04-30T16:57:23.998Z</time></trkpt><trkpt lat="50.453573960189196" lon="4.442776431945701"><ele>183.0</ele><time>2026-04-30T16:57:24.998Z</time></trkpt><trkpt lat="50.45370213945478" lon="4.442998806022361"><ele>182.66666666666666</ele><time>2026-04-30T16:57:25.998Z</time></trkpt><trkpt lat="50.45382576945535" lon="4.443237491163312"><ele>182.33333333333331</ele><time>2026-04-30T16:57:26.998Z</time></trkpt><trkpt lat="50.453940372923526" lon="4.443488340637877"><ele>182.0</ele><time>2026-04-30T16:57:27.998Z</time></trkpt><trkpt lat="50.454045650009206" lon="4.443752333744489"><ele>181.66666666666666</ele><time>2026-04-30T16:57:28.998Z</time></trkpt><trkpt lat="50.45414626621573" lon="4.444027359624546"><ele>181.33333333333334</ele><time>2026-04-30T16:57:29.998Z</time></trkpt><trkpt lat="50.45424096297583" lon="4.444314077657641"><ele>181.0</ele><time>2026-04-30T16:57:30.998Z</time></trkpt><trkpt lat="50.454326212944565" lon="4.444612258955975"><ele>180.66666666666669</ele><time>2026-04-30T16:57:31.998Z</time></trkpt><trkpt lat="50.454412339780745" lon="4.444914430960786"><ele>180.33333333333334</ele><time>2026-04-30T16:57:32.998Z</time></trkpt><trkpt lat="50.454500411498394" lon="4.445217272516393"><ele>180.0</ele><time>2026-04-30T16:57:33.998Z</time></trkpt><trkpt lat="50.45458774597819" lon="4.44552259863258"><ele>180.0</ele><time>2026-04-30T16:57:34.998Z</time></trkpt><trkpt lat="50.45467466835313" lon="4.445829569770192"><ele>180.0</ele><time>2026-04-30T16:57:35.998Z</time></trkpt><trkpt lat="50.454762223000245" lon="4.446144934402767"><ele>180.0</ele><time>2026-04-30T16:57:36.998Z</time></trkpt><trkpt lat="50.4548461852445" lon="4.4464641379079906"><ele>180.0</ele><time>2026-04-30T16:57:37.998Z</time></trkpt><trkpt lat="50.45492970608263" lon="4.446783888755725"><ele>180.0</ele><time>2026-04-30T16:57:38.999Z</time></trkpt><trkpt lat="50.45503375858802" lon="4.447091529035276"><ele>180.0</ele><time>2026-04-30T16:57:39.999Z</time></trkpt><trkpt lat="50.45512521614443" lon="4.447406034640091"><ele>179.33333333333334</ele><time>2026-04-30T16:57:40.999Z</time></trkpt><trkpt lat="50.45521315802393" lon="4.4477109478737376"><ele>178.66666666666669</ele><time>2026-04-30T16:57:41.999Z</time></trkpt><trkpt lat="50.45530186769731" lon="4.448016050589143"><ele>178.0</ele><time>2026-04-30T16:57:42.999Z</time></trkpt><trkpt lat="50.45539955534746" lon="4.448314700954149"><ele>178.66666666666669</ele><time>2026-04-30T16:57:43.999Z</time></trkpt><trkpt lat="50.45548630014619" lon="4.448594387981171"><ele>179.33333333333334</ele><time>2026-04-30T16:57:44.999Z</time></trkpt><trkpt lat="50.45557652925692" lon="4.448900671878633"><ele>180.0</ele><time>2026-04-30T16:57:45.999Z</time></trkpt><trkpt lat="50.45565829647454" lon="4.449178231768748"><ele>180.0</ele><time>2026-04-30T16:57:46.999Z</time></trkpt><trkpt lat="50.455753003322286" lon="4.449499045816294"><ele>180.0</ele><time>2026-04-30T16:57:47.999Z</time></trkpt><trkpt lat="50.455840881290214" lon="4.449803843975517"><ele>180.0</ele><time>2026-04-30T16:57:48.999Z</time></trkpt><trkpt lat="50.45592984084618" lon="4.450112393554091"><ele>179.33333333333334</ele><time>2026-04-30T16:57:49.999Z</time></trkpt><trkpt lat="50.4560175306792" lon="4.450416539180341"><ele>178.66666666666669</ele><time>2026-04-30T16:57:50.999Z</time></trkpt><trkpt lat="50.45609751612938" lon="4.450693962737532"><ele>178.0</ele><time>2026-04-30T16:57:51.999Z</time></trkpt><trkpt lat="50.45618131966033" lon="4.450984628836432"><ele>177.33333333333334</ele><time>2026-04-30T16:57:52.999Z</time></trkpt><trkpt lat="50.45624868535408" lon="4.4512182805804965"><ele>176.66666666666666</ele><time>2026-04-30T16:57:53.999Z</time></trkpt><trkpt lat="50.45631780241955" lon="4.451468406403775"><ele>176.0</ele><time>2026-04-30T16:57:54.999Z</time></trkpt><trkpt lat="50.45637969928508" lon="4.4517090797398"><ele>178.0</ele><time>2026-04-30T16:57:55.999Z</time></trkpt><trkpt lat="50.45647102059851" lon="4.452046383400115"><ele>180.0</ele><time>2026-04-30T16:57:56.999Z</time></trkpt><trkpt lat="50.45654783954885" lon="4.452285831264151"><ele>182.0</ele><time>2026-04-30T16:57:57.999Z</time></trkpt><trkpt lat="50.456623289257784" lon="4.452519175292772"><ele>182.0</ele><time>2026-04-30T16:57:58.999Z</time></trkpt><trkpt lat="50.45669573029597" lon="4.452743214794965"><ele>182.0</ele><time>2026-04-30T16:57:59.999Z</time></trkpt><trkpt lat="50.45676433999304" lon="4.452955405048113"><ele>182.0</ele><time>2026-04-30T16:58:00.999Z</time></trkpt><trkpt lat="50.456825061029804" lon="4.453143197936239"><ele>182.0</ele><time>2026-04-30T16:58:01.999Z</time></trkpt><trkpt lat="50.45686672523818" lon="4.45330367444882"><ele>182.0</ele><time>2026-04-30T16:58:02.999Z</time></trkpt><trkpt lat="50.45690489859272" lon="4.453466381929146"><ele>182.0</ele><time>2026-04-30T16:58:03.999Z</time></trkpt><trkpt lat="50.45693997406224" lon="4.4536160983667346"><ele>182.0</ele><time>2026-04-30T16:58:04.999Z</time></trkpt><trkpt lat="50.45697211503222" lon="4.453753289159623"><ele>182.0</ele><time>2026-04-30T16:58:05.999Z</time></trkpt><trkpt lat="50.45699705238584" lon="4.453859731972147"><ele>182.0</ele><time>2026-04-30T16:58:06.999Z</time></trkpt><trkpt lat="50.45702123870957" lon="4.453981234359943"><ele>181.6</ele><time>2026-04-30T16:58:07.999Z</time></trkpt><trkpt lat="50.45703219953442" lon="4.454113164296208"><ele>181.2</ele><time>2026-04-30T16:58:08.999Z</time></trkpt><trkpt lat="50.456989882671415" lon="4.454218467248612"><ele>180.8</ele><time>2026-04-30T16:58:09.999Z</time></trkpt><trkpt lat="50.457144174274326" lon="4.454360870264381"><ele>180.4</ele><time>2026-04-30T16:58:10.999Z</time></trkpt><trkpt lat="50.45719191619106" lon="4.454466919858031"><ele>180.0</ele><time>2026-04-30T16:58:11.999Z</time></trkpt><trkpt lat="50.45726082169767" lon="4.4545503416506875"><ele>180.2</ele><time>2026-04-30T16:58:12.999Z</time></trkpt><trkpt lat="50.457334661459925" lon="4.454638002537034"><ele>180.4</ele><time>2026-04-30T16:58:13.999Z</time></trkpt><trkpt lat="50.45730326255604" lon="4.454847543512062"><ele>180.60000000000002</ele><time>2026-04-30T16:58:14.999Z</time></trkpt><trkpt lat="50.45735082818133" lon="4.454982163168851"><ele>180.8</ele><time>2026-04-30T16:58:15.999Z</time></trkpt><trkpt lat="50.45740130140384" lon="4.455124691764894"><ele>181.0</ele><time>2026-04-30T16:58:16.999Z</time></trkpt><trkpt lat="50.457442171023075" lon="4.455265433146595"><ele>181.0</ele><time>2026-04-30T16:58:17.999Z</time></trkpt><trkpt lat="50.45748553883156" lon="4.455420442322663"><ele>181.0</ele><time>2026-04-30T16:58:18.999Z</time></trkpt><trkpt lat="50.457543922452444" lon="4.455635981814628"><ele>181.0</ele><time>2026-04-30T16:58:19.999Z</time></trkpt><trkpt lat="50.45760132617768" lon="4.455851185234909"><ele>181.0</ele><time>2026-04-30T16:58:20.999Z</time></trkpt><trkpt lat="50.457665482155704" lon="4.456074445014689"><ele>181.66666666666669</ele><time>2026-04-30T16:58:21.999Z</time></trkpt><trkpt lat="50.45772947245614" lon="4.45629564216489"><ele>182.33333333333334</ele><time>2026-04-30T16:58:22.999Z</time></trkpt><trkpt lat="50.45779595615975" lon="4.456525458346136"><ele>183.0</ele><time>2026-04-30T16:58:23.999Z</time></trkpt><trkpt lat="50.4578576410434" lon="4.456763917207731"><ele>183.0</ele><time>2026-04-30T16:58:24.999Z</time></trkpt><trkpt lat="50.45792136508117" lon="4.457010171195557"><ele>183.0</ele><time>2026-04-30T16:58:25.999Z</time></trkpt><trkpt lat="50.45800518379213" lon="4.457268618600347"><ele>183.0</ele><time>2026-04-30T16:58:26.999Z</time></trkpt><trkpt lat="50.458085928976814" lon="4.457538383051139"><ele>182.66666666666666</ele><time>2026-04-30T16:58:27.999Z</time></trkpt><trkpt lat="50.45817262128754" lon="4.4578160062495815"><ele>182.33333333333331</ele><time>2026-04-30T16:58:28.999Z</time></trkpt><trkpt lat="50.45825307356167" lon="4.458101791684893"><ele>182.0</ele><time>2026-04-30T16:58:29.999Z</time></trkpt><trkpt lat="50.45833955004087" lon="4.4583910034628005"><ele>181.66666666666666</ele><time>2026-04-30T16:58:30.999Z</time></trkpt><trkpt lat="50.45842633275274" lon="4.45868915349176"><ele>181.33333333333334</ele><time>2026-04-30T16:58:31.999Z</time></trkpt><trkpt lat="50.45851103319944" lon="4.458986850722697"><ele>181.0</ele><time>2026-04-30T16:58:32.999Z</time></trkpt><trkpt lat="50.458597860454425" lon="4.459285186586866"><ele>180.66666666666669</ele><time>2026-04-30T16:58:33.999Z</time></trkpt><trkpt lat="50.45868702688595" lon="4.459589135457232"><ele>180.33333333333334</ele><time>2026-04-30T16:58:34.999Z</time></trkpt><trkpt lat="50.45877741928403" lon="4.459897329545808"><ele>180.0</ele><time>2026-04-30T16:58:35.999Z</time></trkpt><trkpt lat="50.45886003244339" lon="4.460203309131767"><ele>179.0</ele><time>2026-04-30T16:58:36.999Z</time></trkpt><trkpt lat="50.45894012433129" lon="4.4605196572206465"><ele>178.0</ele><time>2026-04-30T16:58:37.999Z</time></trkpt><trkpt lat="50.45902309590826" lon="4.460828148297062"><ele>177.0</ele><time>2026-04-30T16:58:38.999Z</time></trkpt><trkpt lat="50.45910012658782" lon="4.461113289565492"><ele>176.66666666666666</ele><time>2026-04-30T16:58:39.999Z</time></trkpt><trkpt lat="50.459178424561244" lon="4.461403666626235"><ele>176.33333333333331</ele><time>2026-04-30T16:58:40.999Z</time></trkpt><trkpt lat="50.45925776644548" lon="4.461696291211311"><ele>176.0</ele><time>2026-04-30T16:58:41.999Z</time></trkpt><trkpt lat="50.45935295683053" lon="4.461973368279991"><ele>176.0</ele><time>2026-04-30T16:58:42.999Z</time></trkpt><trkpt lat="50.459436925739006" lon="4.462262235835044"><ele>176.0</ele><time>2026-04-30T16:58:43.999Z</time></trkpt><trkpt lat="50.459533617521515" lon="4.462566488258367"><ele>176.0</ele><time>2026-04-30T16:58:44.999Z</time></trkpt><trkpt lat="50.459623705663866" lon="4.4628532845647575"><ele>175.66666666666666</ele><time>2026-04-30T16:58:45.999Z</time></trkpt><trkpt lat="50.459716794269276" lon="4.463170144770053"><ele>175.33333333333334</ele><time>2026-04-30T16:58:46.999Z</time></trkpt><trkpt lat="50.45980747550129" lon="4.463488626021234"><ele>175.0</ele><time>2026-04-30T16:58:47.999Z</time></trkpt><trkpt lat="50.45990156613799" lon="4.4638071646708"><ele>175.0</ele><time>2026-04-30T16:58:48.999Z</time></trkpt><trkpt lat="50.46000534371682" lon="4.464164614051222"><ele>175.0</ele><time>2026-04-30T16:58:49.999Z</time></trkpt><trkpt lat="50.46008589605632" lon="4.464437540332308"><ele>175.0</ele><time>2026-04-30T16:58:50.999Z</time></trkpt><trkpt lat="50.46020346978052" lon="4.4648385742477945"><ele>175.0</ele><time>2026-04-30T16:58:51.999Z</time></trkpt><trkpt lat="50.46032783502065" lon="4.465272223590484"><ele>175.0</ele><time>2026-04-30T16:58:52.999Z</time></trkpt><trkpt lat="50.460442243956656" lon="4.4656617287769755"><ele>175.5</ele><time>2026-04-30T16:58:53.999Z</time></trkpt><trkpt lat="50.4605483509501" lon="4.466023656723172"><ele>176.0</ele><time>2026-04-30T16:58:54.999Z</time></trkpt><trkpt lat="50.460653724616535" lon="4.466386767958044"><ele>176.0</ele><time>2026-04-30T16:58:55.999Z</time></trkpt><trkpt lat="50.46076162134216" lon="4.4667602108948445"><ele>176.0</ele><time>2026-04-30T16:58:56.999Z</time></trkpt><trkpt lat="50.46086851652539" lon="4.467129093340803"><ele>176.0</ele><time>2026-04-30T16:58:57.999Z</time></trkpt><trkpt lat="50.4609704604919" lon="4.467480889735001"><ele>176.0</ele><time>2026-04-30T16:58:58.999Z</time></trkpt><trkpt lat="50.46107597188319" lon="4.467839132154098"><ele>175.5</ele><time>2026-04-30T16:58:59.999Z</time></trkpt><trkpt lat="50.46116627436109" lon="4.468204052260106"><ele>175.0</ele><time>2026-04-30T16:59:00.999Z</time></trkpt><trkpt lat="50.461268518948096" lon="4.468560165681773"><ele>173.0</ele><time>2026-04-30T16:59:01.999Z</time></trkpt><trkpt lat="50.46137615083821" lon="4.46891886761498"><ele>171.0</ele><time>2026-04-30T16:59:02.999Z</time></trkpt><trkpt lat="50.46148541458213" lon="4.469282267991034"><ele>171.5</ele><time>2026-04-30T16:59:03.999Z</time></trkpt><trkpt lat="50.46159783989272" lon="4.46964661635034"><ele>172.0</ele><time>2026-04-30T16:59:04.999Z</time></trkpt><trkpt lat="50.46170301740289" lon="4.470000532010187"><ele>172.0</ele><time>2026-04-30T16:59:05.999Z</time></trkpt><trkpt lat="50.46180751968258" lon="4.470350500285457"><ele>172.0</ele><time>2026-04-30T16:59:06.999Z</time></trkpt><trkpt lat="50.46191460112447" lon="4.470678345107776"><ele>172.5</ele><time>2026-04-30T16:59:07.999Z</time></trkpt><trkpt lat="50.4620260216318" lon="4.471000774414762"><ele>173.0</ele><time>2026-04-30T16:59:08.999Z</time></trkpt><trkpt lat="50.462133145471675" lon="4.471385407475003"><ele>171.5</ele><time>2026-04-30T16:59:09.999Z</time></trkpt><trkpt lat="50.46224109583317" lon="4.471763801405261"><ele>170.0</ele><time>2026-04-30T16:59:10.999Z</time></trkpt><trkpt lat="50.46233368414979" lon="4.472117808036395"><ele>173.0</ele><time>2026-04-30T16:59:11.999Z</time></trkpt><trkpt lat="50.46243546356964" lon="4.472481577331779"><ele>176.0</ele><time>2026-04-30T16:59:12.999Z</time></trkpt><trkpt lat="50.462535654916216" lon="4.472822269917054"><ele>176.0</ele><time>2026-04-30T16:59:13.999Z</time></trkpt><trkpt lat="50.46263219464336" lon="4.473150640184761"><ele>176.0</ele><time>2026-04-30T16:59:14.999Z</time></trkpt><trkpt lat="50.46272862683385" lon="4.473488562914794"><ele>176.5</ele><time>2026-04-30T16:59:15.999Z</time></trkpt><trkpt lat="50.462827464417586" lon="4.473814419848853"><ele>177.0</ele><time>2026-04-30T16:59:16.999Z</time></trkpt><trkpt lat="50.46293174065504" lon="4.474144512791129"><ele>176.5</ele><time>2026-04-30T16:59:17.999Z</time></trkpt><trkpt lat="50.46303002588787" lon="4.47446943806214"><ele>176.0</ele><time>2026-04-30T16:59:18.999Z</time></trkpt><trkpt lat="50.46312488467169" lon="4.47478373931635"><ele>175.66666666666666</ele><time>2026-04-30T16:59:19.999Z</time></trkpt><trkpt lat="50.46323149480404" lon="4.475089664074985"><ele>175.33333333333334</ele><time>2026-04-30T16:59:20.999Z</time></trkpt><trkpt lat="50.463334845644944" lon="4.475403203030877"><ele>175.0</ele><time>2026-04-30T16:59:21.999Z</time></trkpt><trkpt lat="50.46343129220452" lon="4.475719175145958"><ele>174.66666666666669</ele><time>2026-04-30T16:59:22.999Z</time></trkpt><trkpt lat="50.463530609852" lon="4.476037946801463"><ele>174.33333333333334</ele><time>2026-04-30T16:59:23.999Z</time></trkpt><trkpt lat="50.463624387802135" lon="4.476352451605301"><ele>174.0</ele><time>2026-04-30T16:59:24.999Z</time></trkpt><trkpt lat="50.46372452216727" lon="4.476648839610313"><ele>174.0</ele><time>2026-04-30T16:59:25.999Z</time></trkpt><trkpt lat="50.46383532781923" lon="4.4769750410102"><ele>174.0</ele><time>2026-04-30T16:59:26.999Z</time></trkpt><trkpt lat="50.463940287261195" lon="4.477291458347793"><ele>175.0</ele><time>2026-04-30T16:59:27.999Z</time></trkpt><trkpt lat="50.46405070209271" lon="4.477590742623634"><ele>176.0</ele><time>2026-04-30T16:59:28.999Z</time></trkpt><trkpt lat="50.464168569678954" lon="4.4779044393513265"><ele>177.0</ele><time>2026-04-30T16:59:29.999Z</time></trkpt><trkpt lat="50.46427483187838" lon="4.478238033992555"><ele>178.0</ele><time>2026-04-30T16:59:31.067Z</time></trkpt><trkpt lat="50.464336517665046" lon="4.478446956887236"><ele>179.0</ele><time>2026-04-30T16:59:31.999Z</time></trkpt><trkpt lat="50.464262842229914" lon="4.478751229339881"><ele>179.5</ele><time>2026-04-30T16:59:32.999Z</time></trkpt><trkpt lat="50.4642684398071" lon="4.4791066991453885"><ele>180.0</ele><time>2026-04-30T16:59:33.999Z</time></trkpt><trkpt lat="50.464297734249975" lon="4.479494239601445"><ele>180.0</ele><time>2026-04-30T16:59:34.999Z</time></trkpt><trkpt lat="50.464423500081494" lon="4.479814859335476"><ele>180.0</ele><time>2026-04-30T16:59:35.999Z</time></trkpt><trkpt lat="50.464483358495876" lon="4.480141512746125"><ele>180.0</ele><time>2026-04-30T16:59:36.999Z</time></trkpt><trkpt lat="50.464560533613756" lon="4.4803112390499376"><ele>180.0</ele><time>2026-04-30T16:59:38Z</time></trkpt><trkpt lat="50.46462752872218" lon="4.4805585687621665"><ele>180.0</ele><time>2026-04-30T16:59:39Z</time></trkpt><trkpt lat="50.4647044428759" lon="4.48068532799269"><ele>180.0</ele><time>2026-04-30T16:59:40Z</time></trkpt><trkpt lat="50.46476753800114" lon="4.480954846777489"><ele>179.66666666666666</ele><time>2026-04-30T16:59:41.066Z</time></trkpt><trkpt lat="50.464829279712525" lon="4.481204501743508"><ele>179.33333333333331</ele><time>2026-04-30T16:59:42.063Z</time></trkpt><trkpt lat="50.464884036464085" lon="4.481482089276081"><ele>179.0</ele><time>2026-04-30T16:59:43.063Z</time></trkpt><trkpt lat="50.465863232169674" lon="4.482576777899375"><ele>177.5</ele><time>2026-04-30T16:59:45Z</time></trkpt><trkpt lat="50.46596882468947" lon="4.482848343325424"><ele>176.0</ele><time>2026-04-30T16:59:46Z</time></trkpt><trkpt lat="50.47216973105368" lon="4.480015415711906"><ele>173.4</ele><time>2026-04-30T17:01:53.999Z</time></trkpt><trkpt lat="50.472084189331085" lon="4.480243364940307"><ele>170.8</ele><time>2026-04-30T17:01:56.998Z</time></trkpt><trkpt lat="50.47207952184596" lon="4.480348467025641"><ele>168.20000000000002</ele><time>2026-04-30T17:01:57.998Z</time></trkpt><trkpt lat="50.47208611344326" lon="4.4804484041562676"><ele>165.60000000000002</ele><time>2026-04-30T17:01:58.998Z</time></trkpt><trkpt lat="50.4721606359426" lon="4.4805199271423515"><ele>163.0</ele><time>2026-04-30T17:02:01Z</time></trkpt><trkpt lat="50.47229176116452" lon="4.480574467438091"><ele>162.75</ele><time>2026-04-30T17:02:02Z</time></trkpt><trkpt lat="50.472385544406315" lon="4.48053648487536"><ele>162.5</ele><time>2026-04-30T17:02:03Z</time></trkpt><trkpt lat="50.47247427242012" lon="4.480331115750371"><ele>162.25</ele><time>2026-04-30T17:02:05Z</time></trkpt><trkpt lat="50.472518098296405" lon="4.4802437127689485"><ele>162.0</ele><time>2026-04-30T17:02:06Z</time></trkpt><trkpt lat="50.472621828054066" lon="4.480135113016953"><ele>162.0</ele><time>2026-04-30T17:02:07Z</time></trkpt><trkpt lat="50.4726998967514" lon="4.480011435382274"><ele>162.0</ele><time>2026-04-30T17:02:08Z</time></trkpt><trkpt lat="50.472774770689945" lon="4.479883965277409"><ele>162.0</ele><time>2026-04-30T17:02:09Z</time></trkpt><trkpt lat="50.47285524375182" lon="4.479762800668846"><ele>162.0</ele><time>2026-04-30T17:02:10Z</time></trkpt><trkpt lat="50.47293630048236" lon="4.47964075725023"><ele>162.0</ele><time>2026-04-30T17:02:11Z</time></trkpt><trkpt lat="50.47301708920805" lon="4.4795191173613285"><ele>163.0</ele><time>2026-04-30T17:02:12Z</time></trkpt><trkpt lat="50.47310210729637" lon="4.479389902154748"><ele>164.0</ele><time>2026-04-30T17:02:13Z</time></trkpt><trkpt lat="50.47318112813816" lon="4.479269811243076"><ele>165.0</ele><time>2026-04-30T17:02:14Z</time></trkpt><trkpt lat="50.4732608314621" lon="4.479149190437697"><ele>166.0</ele><time>2026-04-30T17:02:15Z</time></trkpt><trkpt lat="50.473369001911756" lon="4.4789980540729415"><ele>166.0</ele><time>2026-04-30T17:02:16Z</time></trkpt><trkpt lat="50.47344192074402" lon="4.478885043066865"><ele>166.0</ele><time>2026-04-30T17:02:17Z</time></trkpt><trkpt lat="50.473509973651666" lon="4.478777899070671"><ele>166.0</ele><time>2026-04-30T17:02:18Z</time></trkpt><trkpt lat="50.47357695895739" lon="4.478673428592968"><ele>166.0</ele><time>2026-04-30T17:02:19Z</time></trkpt><trkpt lat="50.473636855169914" lon="4.478567528798567"><ele>166.0</ele><time>2026-04-30T17:02:20Z</time></trkpt><trkpt lat="50.473683374962185" lon="4.478444241396752"><ele>166.33333333333334</ele><time>2026-04-30T17:02:21Z</time></trkpt><trkpt lat="50.47371744267562" lon="4.478311654659327"><ele>166.66666666666669</ele><time>2026-04-30T17:02:22Z</time></trkpt><trkpt lat="50.47372856969051" lon="4.478173966065461"><ele>167.0</ele><time>2026-04-30T17:02:23Z</time></trkpt><trkpt lat="50.47374853154509" lon="4.478047920937992"><ele>167.33333333333334</ele><time>2026-04-30T17:02:24Z</time></trkpt><trkpt lat="50.473739990819205" lon="4.47792188185759"><ele>167.66666666666666</ele><time>2026-04-30T17:02:25Z</time></trkpt><trkpt lat="50.47371297539764" lon="4.477810474608075"><ele>168.0</ele><time>2026-04-30T17:02:26Z</time></trkpt><trkpt lat="50.47368634225692" lon="4.477700213365586"><ele>168.0</ele><time>2026-04-30T17:02:27Z</time></trkpt><trkpt lat="50.47365724682682" lon="4.4776025891977795"><ele>168.0</ele><time>2026-04-30T17:02:28Z</time></trkpt><trkpt lat="50.47359238242128" lon="4.47752478520643"><ele>168.0</ele><time>2026-04-30T17:02:29Z</time></trkpt><trkpt lat="50.473563070751354" lon="4.477407541774685"><ele>168.0</ele><time>2026-04-30T17:02:30Z</time></trkpt><trkpt lat="50.47353679713675" lon="4.477290740272413"><ele>168.0</ele><time>2026-04-30T17:02:31Z</time></trkpt><trkpt lat="50.473508084684" lon="4.477179836169582"><ele>168.0</ele><time>2026-04-30T17:02:32Z</time></trkpt><trkpt lat="50.47346299624407" lon="4.477077007901853"><ele>168.0</ele><time>2026-04-30T17:02:33Z</time></trkpt><trkpt lat="50.47341363235194" lon="4.476988104638597"><ele>168.0</ele><time>2026-04-30T17:02:34Z</time></trkpt><trkpt lat="50.4733531541002" lon="4.476916222772096"><ele>168.0</ele><time>2026-04-30T17:02:35Z</time></trkpt><trkpt lat="50.473283040457005" lon="4.4768696499499825"><ele>168.0</ele><time>2026-04-30T17:02:36Z</time></trkpt><trkpt lat="50.47320786090498" lon="4.476831665640304"><ele>168.0</ele><time>2026-04-30T17:02:37Z</time></trkpt><trkpt lat="50.47313277393349" lon="4.476811080703247"><ele>168.0</ele><time>2026-04-30T17:02:38Z</time></trkpt><trkpt lat="50.47306168513296" lon="4.476794161442452"><ele>168.0</ele><time>2026-04-30T17:02:39Z</time></trkpt><trkpt lat="50.47298511751059" lon="4.476755151592607"><ele>168.0</ele><time>2026-04-30T17:02:41Z</time></trkpt><trkpt lat="50.472917439783295" lon="4.476737655807285"><ele>168.0</ele><time>2026-04-30T17:02:45Z</time></trkpt><trkpt lat="50.47285601817542" lon="4.476708369259273"><ele>168.0</ele><time>2026-04-30T17:02:54Z</time></trkpt><trkpt lat="50.4727767416204" lon="4.476684014637513"><ele>168.0</ele><time>2026-04-30T17:03:00Z</time></trkpt><trkpt lat="50.47269857016382" lon="4.476661217430916"><ele>168.0</ele><time>2026-04-30T17:03:07Z</time></trkpt><trkpt lat="50.472624931778434" lon="4.476632900232733"><ele>168.0</ele><time>2026-04-30T17:03:14.999Z</time></trkpt><trkpt lat="50.47255788847204" lon="4.47660658158411"><ele>168.0</ele><time>2026-04-30T17:03:22.999Z</time></trkpt><trkpt lat="50.47248646634955" lon="4.476579500468184"><ele>168.0</ele><time>2026-04-30T17:03:50.999Z</time></trkpt><trkpt lat="50.472422308610234" lon="4.476532372695694"><ele>168.0</ele><time>2026-04-30T17:04:03.999Z</time></trkpt><trkpt lat="50.47236492423779" lon="4.476491652928404"><ele>168.0</ele><time>2026-04-30T17:04:12.001Z</time></trkpt><trkpt lat="50.4723113240796" lon="4.476392915598495"><ele>168.0</ele><time>2026-04-30T17:04:16.001Z</time></trkpt><trkpt lat="50.472315732850234" lon="4.476283777884773"><ele>168.0</ele><time>2026-04-30T17:04:18.001Z</time></trkpt><trkpt lat="50.472281890660966" lon="4.4761716274824614"><ele>168.0</ele><time>2026-04-30T17:04:21.001Z</time></trkpt><trkpt lat="50.47222390615136" lon="4.476102536544288"><ele>168.14285714285714</ele><time>2026-04-30T17:04:24Z</time></trkpt><trkpt lat="50.47221499756367" lon="4.475997075863981"><ele>168.28571428571428</ele><time>2026-04-30T17:04:37Z</time></trkpt><trkpt lat="50.47218457821563" lon="4.475902272805229"><ele>168.42857142857144</ele><time>2026-04-30T17:05:10Z</time></trkpt><trkpt lat="50.472154292998304" lon="4.475809714049713"><ele>168.57142857142856</ele><time>2026-04-30T17:05:15Z</time></trkpt><trkpt lat="50.47216374707537" lon="4.47570009323561"><ele>168.71428571428572</ele><time>2026-04-30T17:05:56.999Z</time></trkpt><trkpt lat="50.472139728272346" lon="4.4755990266609835"><ele>168.85714285714286</ele><time>2026-04-30T17:06:07.999Z</time></trkpt><trkpt lat="50.47220988403655" lon="4.475639597802869"><ele>169.0</ele><time>2026-04-30T17:06:17.001Z</time></trkpt><trkpt lat="50.4721369108919" lon="4.475487161143572"><ele>169.14285714285714</ele><time>2026-04-30T17:06:54Z</time></trkpt><trkpt lat="50.47206114610467" lon="4.475509078417284"><ele>169.28571428571428</ele><time>2026-04-30T17:06:59Z</time></trkpt><trkpt lat="50.472008889050414" lon="4.475450266686748"><ele>169.42857142857144</ele><time>2026-04-30T17:07:11Z</time></trkpt><trkpt lat="50.47195718953437" lon="4.4753871091018045"><ele>169.57142857142856</ele><time>2026-04-30T17:07:15Z</time></trkpt><trkpt lat="50.47197303141403" lon="4.4752709144325875"><ele>169.7142857142857</ele><time>2026-04-30T17:07:47Z</time></trkpt><trkpt lat="50.47195314458219" lon="4.475176162281398"><ele>169.85714285714286</ele><time>2026-04-30T17:07:48.999Z</time></trkpt><trkpt lat="50.47190634312424" lon="4.475056390116172"><ele>170.0</ele><time>2026-04-30T17:08:02.999Z</time></trkpt><trkpt lat="50.47187283407099" lon="4.474972273783222"><ele>170.0</ele><time>2026-04-30T17:08:11.999Z</time></trkpt><trkpt lat="50.47183470850637" lon="4.474876448305205"><ele>170.0</ele><time>2026-04-30T17:08:36.001Z</time></trkpt><trkpt lat="50.471765026668244" lon="4.474723584257594"><ele>170.0</ele><time>2026-04-30T17:08:42.001Z</time></trkpt><trkpt lat="50.47168692464684" lon="4.474676726195948"><ele>170.0</ele><time>2026-04-30T17:08:45Z</time></trkpt><trkpt lat="50.47161689155293" lon="4.474630275656846"><ele>170.0</ele><time>2026-04-30T17:08:49Z</time></trkpt><trkpt lat="50.471546812160454" lon="4.4746756194298"><ele>170.0</ele><time>2026-04-30T17:08:52Z</time></trkpt><trkpt lat="50.47148599536997" lon="4.474728282536034"><ele>170.0</ele><time>2026-04-30T17:08:55Z</time></trkpt><trkpt lat="50.47141742278026" lon="4.474761018821262"><ele>170.0</ele><time>2026-04-30T17:09:00Z</time></trkpt><trkpt lat="50.47133895508813" lon="4.474825284220673"><ele>170.0</ele><time>2026-04-30T17:09:03Z</time></trkpt><trkpt lat="50.47125365868686" lon="4.474877951635001"><ele>170.0</ele><time>2026-04-30T17:09:06Z</time></trkpt><trkpt lat="50.47120243105984" lon="4.474805216199235"><ele>170.0</ele><time>2026-04-30T17:09:10Z</time></trkpt><trkpt lat="50.47118419389886" lon="4.474697793185287"><ele>170.0</ele><time>2026-04-30T17:09:15Z</time></trkpt><trkpt lat="50.47114961248443" lon="4.474592255065137"><ele>169.66666666666666</ele><time>2026-04-30T17:09:19Z</time></trkpt><trkpt lat="50.47111816464737" lon="4.474489650842723"><ele>169.33333333333331</ele><time>2026-04-30T17:09:26Z</time></trkpt><trkpt lat="50.47108794650587" lon="4.474393001385429"><ele>169.0</ele><time>2026-04-30T17:09:29Z</time></trkpt><trkpt lat="50.4710443887151" lon="4.474300659700439"><ele>168.66666666666666</ele><time>2026-04-30T17:09:33Z</time></trkpt><trkpt lat="50.47116780658159" lon="4.474158556722406"><ele>168.33333333333334</ele><time>2026-04-30T17:09:37Z</time></trkpt><trkpt lat="50.47118869645648" lon="4.474057569554703"><ele>168.0</ele><time>2026-04-30T17:09:40Z</time></trkpt><trkpt lat="50.47117313192487" lon="4.473856280883694"><ele>168.42857142857142</ele><time>2026-04-30T17:11:04Z</time></trkpt><trkpt lat="50.47115768116792" lon="4.473756469304151"><ele>168.85714285714286</ele><time>2026-04-30T17:11:10Z</time></trkpt><trkpt lat="50.471141396506184" lon="4.4736598761928"><ele>169.28571428571428</ele><time>2026-04-30T17:11:24Z</time></trkpt><trkpt lat="50.47110373360253" lon="4.473563783471178"><ele>169.71428571428572</ele><time>2026-04-30T17:11:37Z</time></trkpt><trkpt lat="50.47107482723459" lon="4.473473050163125"><ele>170.14285714285714</ele><time>2026-04-30T17:11:42Z</time></trkpt><trkpt lat="50.471050848093356" lon="4.473376703011328"><ele>170.57142857142856</ele><time>2026-04-30T17:11:52Z</time></trkpt><trkpt lat="50.47100871664562" lon="4.4732916252222745"><ele>171.0</ele><time>2026-04-30T17:11:58.999Z</time></trkpt><trkpt lat="50.47097619741216" lon="4.4731830848416605"><ele>170.99999999999997</ele><time>2026-04-30T17:12:03.998Z</time></trkpt><trkpt lat="50.470951839348274" lon="4.473090763741665"><ele>171.0</ele><time>2026-04-30T17:12:08.998Z</time></trkpt><trkpt lat="50.47093026830883" lon="4.472993136306234"><ele>171.0</ele><time>2026-04-30T17:12:13.998Z</time></trkpt><trkpt lat="50.470904304218465" lon="4.472898184666504"><ele>171.0</ele><time>2026-04-30T17:12:18.998Z</time></trkpt><trkpt lat="50.47087825466857" lon="4.4728046271910165"><ele>171.0</ele><time>2026-04-30T17:12:23.998Z</time></trkpt><trkpt lat="50.470856895124356" lon="4.472703457924681"><ele>170.99999999999997</ele><time>2026-04-30T17:12:29Z</time></trkpt><trkpt lat="50.47082320513851" lon="4.47260486455059"><ele>171.0</ele><time>2026-04-30T17:12:37Z</time></trkpt><trkpt lat="50.470781268710766" lon="4.472515830946003"><ele>170.99999999999997</ele><time>2026-04-30T17:12:42Z</time></trkpt><trkpt lat="50.47072784226464" lon="4.472456602087221"><ele>171.0</ele><time>2026-04-30T17:12:47Z</time></trkpt><trkpt lat="50.47067768405959" lon="4.472370767173994"><ele>171.0</ele><time>2026-04-30T17:12:53Z</time></trkpt><trkpt lat="50.470609371553394" lon="4.4723745323647055"><ele>171.0</ele><time>2026-04-30T17:12:58Z</time></trkpt><trkpt lat="50.47054476138746" lon="4.47240347406895"><ele>171.0</ele><time>2026-04-30T17:13:03.999Z</time></trkpt><trkpt lat="50.47047591231274" lon="4.472382753048622"><ele>170.99999999999997</ele><time>2026-04-30T17:13:13.999Z</time></trkpt><trkpt lat="50.47041604272238" lon="4.472321076460062"><ele>171.0</ele><time>2026-04-30T17:13:22.999Z</time></trkpt><trkpt lat="50.47037681436004" lon="4.472198558510618"><ele>171.42857142857142</ele><time>2026-04-30T17:13:27.999Z</time></trkpt><trkpt lat="50.47036440801083" lon="4.472092302557366"><ele>171.85714285714286</ele><time>2026-04-30T17:13:33.999Z</time></trkpt><trkpt lat="50.4703652621249" lon="4.471981743061573"><ele>172.28571428571428</ele><time>2026-04-30T17:13:37.999Z</time></trkpt><trkpt lat="50.47031821347186" lon="4.471893004951398"><ele>172.71428571428572</ele><time>2026-04-30T17:13:43.999Z</time></trkpt><trkpt lat="50.47029634002599" lon="4.471798980161394"><ele>173.14285714285714</ele><time>2026-04-30T17:13:47.999Z</time></trkpt><trkpt lat="50.47026610021949" lon="4.471706189030138"><ele>173.57142857142856</ele><time>2026-04-30T17:13:51.999Z</time></trkpt><trkpt lat="50.470209658514264" lon="4.471778969004455"><ele>174.0</ele><time>2026-04-30T17:13:52.999Z</time></trkpt><trkpt lat="50.47048153813794" lon="4.472024093311042"><ele>175.0</ele><time>2026-04-30T17:14:12.998Z</time></trkpt><trkpt lat="50.47020604058062" lon="4.471393673542276"><ele>175.0</ele><time>2026-04-30T17:14:15.998Z</time></trkpt><trkpt lat="50.470207229079115" lon="4.471498203875229"><ele>175.0</ele><time>2026-04-30T17:14:18.998Z</time></trkpt><trkpt lat="50.47024708942542" lon="4.471394594268728"><ele>175.0</ele><time>2026-04-30T17:14:25.998Z</time></trkpt><trkpt lat="50.47023506233468" lon="4.471289584377439"><ele>175.0</ele><time>2026-04-30T17:14:29.998Z</time></trkpt><trkpt lat="50.47022465546807" lon="4.471186047669838"><ele>175.0</ele><time>2026-04-30T17:14:35Z</time></trkpt><trkpt lat="50.47018415627303" lon="4.4710879374012364"><ele>175.0</ele><time>2026-04-30T17:14:40Z</time></trkpt><trkpt lat="50.47015032028736" lon="4.471004272360405"><ele>175.0</ele><time>2026-04-30T17:14:48Z</time></trkpt><trkpt lat="50.47011215179516" lon="4.4708897605736135"><ele>175.16666666666669</ele><time>2026-04-30T17:14:52Z</time></trkpt><trkpt lat="50.4700738718142" lon="4.470800393189838"><ele>175.33333333333334</ele><time>2026-04-30T17:14:57Z</time></trkpt><trkpt lat="50.47000572614452" lon="4.470805409327793"><ele>175.5</ele><time>2026-04-30T17:15:01Z</time></trkpt><trkpt lat="50.4699319988994" lon="4.470849189777972"><ele>175.66666666666666</ele><time>2026-04-30T17:15:06Z</time></trkpt><trkpt lat="50.46986197335182" lon="4.470859170653762"><ele>175.83333333333331</ele><time>2026-04-30T17:15:12Z</time></trkpt><trkpt lat="50.46983882996566" lon="4.470767060865134"><ele>176.0</ele><time>2026-04-30T17:16:01.999Z</time></trkpt><trkpt lat="50.469767768290026" lon="4.4705812901295845"><ele>176.0</ele><time>2026-04-30T17:22:46.983Z</time></trkpt><trkpt lat="50.46969958737446" lon="4.470393780131973"><ele>176.0</ele><time>2026-04-30T17:22:53.455Z</time></trkpt><trkpt lat="50.46976311282837" lon="4.470300876666583"><ele>176.0</ele><time>2026-04-30T17:28:02.016Z</time></trkpt><trkpt lat="50.46959856094674" lon="4.47016402263135"><ele>176.0</ele><time>2026-04-30T17:28:04.017Z</time></trkpt><trkpt lat="50.46953258313773" lon="4.470111965978445"><ele>176.0</ele><time>2026-04-30T17:28:09.021Z</time></trkpt><trkpt lat="50.469475157106764" lon="4.470261864121715"><ele>176.0</ele><time>2026-04-30T17:28:15.02Z</time></trkpt><trkpt lat="50.469548703648904" lon="4.4702847543837265"><ele>176.0</ele><time>2026-04-30T17:28:20.991Z</time></trkpt><trkpt lat="50.46961770010717" lon="4.470267737518246"><ele>176.0</ele><time>2026-04-30T17:28:25Z</time></trkpt><trkpt lat="50.46968787943962" lon="4.470253663702257"><ele>176.0</ele><time>2026-04-30T17:28:29Z</time></trkpt><trkpt lat="50.46975747870943" lon="4.470202841942565"><ele>176.0</ele><time>2026-04-30T17:28:34Z</time></trkpt><trkpt lat="50.469858264232606" lon="4.470124434563395"><ele>176.0</ele><time>2026-04-30T17:28:36Z</time></trkpt><trkpt lat="50.46978657981877" lon="4.470244462797965"><ele>176.0</ele><time>2026-04-30T17:29:05.487Z</time></trkpt><trkpt lat="50.46966563809505" lon="4.470178697620142"><ele>176.0</ele><time>2026-04-30T17:36:53.816Z</time></trkpt><trkpt lat="50.46961160731222" lon="4.4701277136545565"><ele>176.0</ele><time>2026-04-30T17:37:00.447Z</time></trkpt><trkpt lat="50.46945666371355" lon="4.4699561596349815"><ele>175.25</ele><time>2026-04-30T17:37:57.458Z</time></trkpt><trkpt lat="50.46936726933076" lon="4.4698750192815195"><ele>174.5</ele><time>2026-04-30T17:38:04.98Z</time></trkpt><trkpt lat="50.469395030060014" lon="4.470121794809115"><ele>173.75</ele><time>2026-04-30T17:38:30.767Z</time></trkpt><trkpt lat="50.46946880029861" lon="4.47038111899524"><ele>173.0</ele><time>2026-04-30T17:38:36.777Z</time></trkpt><trkpt lat="50.46949418032322" lon="4.470626947241682"><ele>172.0</ele><time>2026-04-30T17:38:51.271Z</time></trkpt><trkpt lat="50.469477125218624" lon="4.47075882247357"><ele>172.0</ele><time>2026-04-30T17:39:04.191Z</time></trkpt><trkpt lat="50.46935855308105" lon="4.470665413824963"><ele>172.0</ele><time>2026-04-30T17:41:00.421Z</time></trkpt><trkpt lat="50.46921733950618" lon="4.470686156529248"><ele>172.0</ele><time>2026-04-30T17:43:04.487Z</time></trkpt></trkseg></trk></gpx>